<?xml version="1.0" encoding="UTF-8" standalone="no" ?>
<gpx xmlns="http://www.topografix.com/GPX/1/1" xmlns:xsi="http://www.w3.org/2001/XMLSchema-instance" xsi:schemaLocation="http://www.topografix.com/GPX/1/1 http://www.topografix.com/GPX/1/1/gpx.xsd" version="1.1" creator="VisuGPX - https://www.visugpx.com">
  <metadata>
    <name>RA 2021 V7 70KM 070721</name>
    <desc><![CDATA[RA 2021 V7 70KM 070721]]></desc>
  </metadata>
  <trk>
    <name><![CDATA[RA 2021 V7 70KM 070721]]></name>
    <trkseg>
      <trkpt lat="44.55967" lon="4.60414">
        <ele>192.80000305176</ele>
        <time>2020-02-07T14:01:01Z</time>
      </trkpt>
      <trkpt lat="44.55949" lon="4.60406">
        <ele>192.60000610352</ele>
        <time>2020-02-07T14:01:06Z</time>
      </trkpt>
      <trkpt lat="44.55945" lon="4.60404">
        <ele>192.60000610352</ele>
        <time>2020-02-07T14:01:07Z</time>
      </trkpt>
      <trkpt lat="44.55942" lon="4.60402">
        <ele>192.60000610352</ele>
        <time>2020-02-07T14:01:08Z</time>
      </trkpt>
      <trkpt lat="44.55939" lon="4.604">
        <ele>192.60000610352</ele>
        <time>2020-02-07T14:01:09Z</time>
      </trkpt>
      <trkpt lat="44.55936" lon="4.60398">
        <ele>192.60000610352</ele>
        <time>2020-02-07T14:01:10Z</time>
      </trkpt>
      <trkpt lat="44.55933" lon="4.60396">
        <ele>192.60000610352</ele>
        <time>2020-02-07T14:01:11Z</time>
      </trkpt>
      <trkpt lat="44.5593" lon="4.60394">
        <ele>192.19999694824</ele>
        <time>2020-02-07T14:01:12Z</time>
      </trkpt>
      <trkpt lat="44.55925" lon="4.60389">
        <ele>191.80000305176</ele>
        <time>2020-02-07T14:01:14Z</time>
      </trkpt>
      <trkpt lat="44.55919" lon="4.60384">
        <ele>191.80000305176</ele>
        <time>2020-02-07T14:01:16Z</time>
      </trkpt>
      <trkpt lat="44.55916" lon="4.60382">
        <ele>191.60000610352</ele>
        <time>2020-02-07T14:01:17Z</time>
      </trkpt>
      <trkpt lat="44.55912" lon="4.60379">
        <ele>191.60000610352</ele>
        <time>2020-02-07T14:01:18Z</time>
      </trkpt>
      <trkpt lat="44.55908" lon="4.60376">
        <ele>191.60000610352</ele>
        <time>2020-02-07T14:01:19Z</time>
      </trkpt>
      <trkpt lat="44.55902" lon="4.6037">
        <ele>191.39999389648</ele>
        <time>2020-02-07T14:01:21Z</time>
      </trkpt>
      <trkpt lat="44.55895" lon="4.60364">
        <ele>191.39999389648</ele>
        <time>2020-02-07T14:01:23Z</time>
      </trkpt>
      <trkpt lat="44.55891" lon="4.60361">
        <ele>191.39999389648</ele>
        <time>2020-02-07T14:01:24Z</time>
      </trkpt>
      <trkpt lat="44.55888" lon="4.60359">
        <ele>191.19999694824</ele>
        <time>2020-02-07T14:01:25Z</time>
      </trkpt>
      <trkpt lat="44.55884" lon="4.60356">
        <ele>191.19999694824</ele>
        <time>2020-02-07T14:01:26Z</time>
      </trkpt>
      <trkpt lat="44.55864" lon="4.60344">
        <ele>190.39999389648</ele>
        <time>2020-02-07T14:01:31Z</time>
      </trkpt>
      <trkpt lat="44.5586" lon="4.60341">
        <ele>190.39999389648</ele>
        <time>2020-02-07T14:01:32Z</time>
      </trkpt>
      <trkpt lat="44.55856" lon="4.60339">
        <ele>190.39999389648</ele>
        <time>2020-02-07T14:01:33Z</time>
      </trkpt>
      <trkpt lat="44.55852" lon="4.60337">
        <ele>190.19999694824</ele>
        <time>2020-02-07T14:01:34Z</time>
      </trkpt>
      <trkpt lat="44.55848" lon="4.60335">
        <ele>190.19999694824</ele>
        <time>2020-02-07T14:01:35Z</time>
      </trkpt>
      <trkpt lat="44.5584" lon="4.6033">
        <ele>190.19999694824</ele>
        <time>2020-02-07T14:01:37Z</time>
      </trkpt>
      <trkpt lat="44.55836" lon="4.60328">
        <ele>190.19999694824</ele>
        <time>2020-02-07T14:01:38Z</time>
      </trkpt>
      <trkpt lat="44.55832" lon="4.60326">
        <ele>190.19999694824</ele>
        <time>2020-02-07T14:01:39Z</time>
      </trkpt>
      <trkpt lat="44.55827" lon="4.60324">
        <ele>190.19999694824</ele>
        <time>2020-02-07T14:01:40Z</time>
      </trkpt>
      <trkpt lat="44.55823" lon="4.60321">
        <ele>190.19999694824</ele>
        <time>2020-02-07T14:01:41Z</time>
      </trkpt>
      <trkpt lat="44.55818" lon="4.60319">
        <ele>190.19999694824</ele>
        <time>2020-02-07T14:01:42Z</time>
      </trkpt>
      <trkpt lat="44.55813" lon="4.60317">
        <ele>190</ele>
        <time>2020-02-07T14:01:43Z</time>
      </trkpt>
      <trkpt lat="44.55804" lon="4.60312">
        <ele>190</ele>
        <time>2020-02-07T14:01:45Z</time>
      </trkpt>
      <trkpt lat="44.55799" lon="4.60309">
        <ele>190</ele>
        <time>2020-02-07T14:01:46Z</time>
      </trkpt>
      <trkpt lat="44.55794" lon="4.60307">
        <ele>190</ele>
        <time>2020-02-07T14:01:47Z</time>
      </trkpt>
      <trkpt lat="44.55789" lon="4.60305">
        <ele>189.60000610352</ele>
        <time>2020-02-07T14:01:48Z</time>
      </trkpt>
      <trkpt lat="44.55785" lon="4.60303">
        <ele>189.39999389648</ele>
        <time>2020-02-07T14:01:49Z</time>
      </trkpt>
      <trkpt lat="44.5578" lon="4.60301">
        <ele>189</ele>
        <time>2020-02-07T14:01:50Z</time>
      </trkpt>
      <trkpt lat="44.55776" lon="4.60298">
        <ele>188.60000610352</ele>
        <time>2020-02-07T14:01:51Z</time>
      </trkpt>
      <trkpt lat="44.55771" lon="4.60296">
        <ele>188.19999694824</ele>
        <time>2020-02-07T14:01:52Z</time>
      </trkpt>
      <trkpt lat="44.55768" lon="4.60293">
        <ele>188.19999694824</ele>
        <time>2020-02-07T14:01:53Z</time>
      </trkpt>
      <trkpt lat="44.55765" lon="4.60291">
        <ele>188</ele>
        <time>2020-02-07T14:01:54Z</time>
      </trkpt>
      <trkpt lat="44.55763" lon="4.6029">
        <ele>188.19999694824</ele>
        <time>2020-02-07T14:01:55Z</time>
      </trkpt>
      <trkpt lat="44.55762" lon="4.6029">
        <ele>188</ele>
        <time>2020-02-07T14:01:56Z</time>
      </trkpt>
      <trkpt lat="44.55761" lon="4.6029">
        <ele>188</ele>
        <time>2020-02-07T14:01:57Z</time>
      </trkpt>
      <trkpt lat="44.5576" lon="4.6029">
        <ele>188</ele>
        <time>2020-02-07T14:01:58Z</time>
      </trkpt>
      <trkpt lat="44.55759" lon="4.6029">
        <ele>188</ele>
        <time>2020-02-07T14:01:59Z</time>
      </trkpt>
      <trkpt lat="44.55759" lon="4.6029">
        <ele>188.19999694824</ele>
        <time>2020-02-07T14:02:01Z</time>
      </trkpt>
      <trkpt lat="44.55759" lon="4.6029">
        <ele>188</ele>
        <time>2020-02-07T14:02:02Z</time>
      </trkpt>
      <trkpt lat="44.55759" lon="4.6029">
        <ele>188.19999694824</ele>
        <time>2020-02-07T14:02:07Z</time>
      </trkpt>
      <trkpt lat="44.55758" lon="4.6029">
        <ele>188</ele>
        <time>2020-02-07T14:02:08Z</time>
      </trkpt>
      <trkpt lat="44.55757" lon="4.60291">
        <ele>188</ele>
        <time>2020-02-07T14:02:09Z</time>
      </trkpt>
      <trkpt lat="44.55756" lon="4.60291">
        <ele>188.19999694824</ele>
        <time>2020-02-07T14:02:10Z</time>
      </trkpt>
      <trkpt lat="44.5575" lon="4.60295">
        <ele>188.19999694824</ele>
        <time>2020-02-07T14:02:12Z</time>
      </trkpt>
      <trkpt lat="44.55747" lon="4.60298">
        <ele>188.39999389648</ele>
        <time>2020-02-07T14:02:13Z</time>
      </trkpt>
      <trkpt lat="44.55743" lon="4.60302">
        <ele>188.19999694824</ele>
        <time>2020-02-07T14:02:14Z</time>
      </trkpt>
      <trkpt lat="44.5574" lon="4.60307">
        <ele>188.39999389648</ele>
        <time>2020-02-07T14:02:15Z</time>
      </trkpt>
      <trkpt lat="44.55733" lon="4.60316">
        <ele>188.19999694824</ele>
        <time>2020-02-07T14:02:17Z</time>
      </trkpt>
      <trkpt lat="44.5573" lon="4.60321">
        <ele>188.19999694824</ele>
        <time>2020-02-07T14:02:18Z</time>
      </trkpt>
      <trkpt lat="44.55727" lon="4.60326">
        <ele>188.19999694824</ele>
        <time>2020-02-07T14:02:19Z</time>
      </trkpt>
      <trkpt lat="44.55723" lon="4.60331">
        <ele>188.19999694824</ele>
        <time>2020-02-07T14:02:20Z</time>
      </trkpt>
      <trkpt lat="44.5572" lon="4.60336">
        <ele>188.19999694824</ele>
        <time>2020-02-07T14:02:21Z</time>
      </trkpt>
      <trkpt lat="44.55716" lon="4.60341">
        <ele>188.19999694824</ele>
        <time>2020-02-07T14:02:22Z</time>
      </trkpt>
      <trkpt lat="44.55712" lon="4.60346">
        <ele>188</ele>
        <time>2020-02-07T14:02:23Z</time>
      </trkpt>
      <trkpt lat="44.55708" lon="4.6035">
        <ele>188</ele>
        <time>2020-02-07T14:02:24Z</time>
      </trkpt>
      <trkpt lat="44.55682" lon="4.60374">
        <ele>187.39999389648</ele>
        <time>2020-02-07T14:02:29Z</time>
      </trkpt>
      <trkpt lat="44.55677" lon="4.60379">
        <ele>187.39999389648</ele>
        <time>2020-02-07T14:02:30Z</time>
      </trkpt>
      <trkpt lat="44.55672" lon="4.60383">
        <ele>187</ele>
        <time>2020-02-07T14:02:31Z</time>
      </trkpt>
      <trkpt lat="44.55667" lon="4.60388">
        <ele>186.80000305176</ele>
        <time>2020-02-07T14:02:32Z</time>
      </trkpt>
      <trkpt lat="44.55662" lon="4.60392">
        <ele>186.80000305176</ele>
        <time>2020-02-07T14:02:33Z</time>
      </trkpt>
      <trkpt lat="44.55652" lon="4.60401">
        <ele>186.39999389648</ele>
        <time>2020-02-07T14:02:35Z</time>
      </trkpt>
      <trkpt lat="44.55641" lon="4.60408">
        <ele>186.60000610352</ele>
        <time>2020-02-07T14:02:37Z</time>
      </trkpt>
      <trkpt lat="44.55636" lon="4.60412">
        <ele>186.39999389648</ele>
        <time>2020-02-07T14:02:38Z</time>
      </trkpt>
      <trkpt lat="44.55631" lon="4.60416">
        <ele>186.39999389648</ele>
        <time>2020-02-07T14:02:39Z</time>
      </trkpt>
      <trkpt lat="44.55626" lon="4.6042">
        <ele>186.19999694824</ele>
        <time>2020-02-07T14:02:40Z</time>
      </trkpt>
      <trkpt lat="44.55622" lon="4.60423">
        <ele>186.19999694824</ele>
        <time>2020-02-07T14:02:41Z</time>
      </trkpt>
      <trkpt lat="44.55618" lon="4.60428">
        <ele>186.19999694824</ele>
        <time>2020-02-07T14:02:42Z</time>
      </trkpt>
      <trkpt lat="44.55614" lon="4.60433">
        <ele>186</ele>
        <time>2020-02-07T14:02:43Z</time>
      </trkpt>
      <trkpt lat="44.55611" lon="4.60438">
        <ele>186.19999694824</ele>
        <time>2020-02-07T14:02:44Z</time>
      </trkpt>
      <trkpt lat="44.55608" lon="4.60442">
        <ele>186</ele>
        <time>2020-02-07T14:02:45Z</time>
      </trkpt>
      <trkpt lat="44.55603" lon="4.60445">
        <ele>186</ele>
        <time>2020-02-07T14:02:46Z</time>
      </trkpt>
      <trkpt lat="44.55594" lon="4.60449">
        <ele>186</ele>
        <time>2020-02-07T14:02:48Z</time>
      </trkpt>
      <trkpt lat="44.5559" lon="4.60452">
        <ele>186</ele>
        <time>2020-02-07T14:02:49Z</time>
      </trkpt>
      <trkpt lat="44.55586" lon="4.60454">
        <ele>186</ele>
        <time>2020-02-07T14:02:50Z</time>
      </trkpt>
      <trkpt lat="44.55582" lon="4.60456">
        <ele>186</ele>
        <time>2020-02-07T14:02:51Z</time>
      </trkpt>
      <trkpt lat="44.55578" lon="4.60457">
        <ele>186</ele>
        <time>2020-02-07T14:02:52Z</time>
      </trkpt>
      <trkpt lat="44.55576" lon="4.60458">
        <ele>186</ele>
        <time>2020-02-07T14:02:53Z</time>
      </trkpt>
      <trkpt lat="44.55574" lon="4.6046">
        <ele>186</ele>
        <time>2020-02-07T14:02:54Z</time>
      </trkpt>
      <trkpt lat="44.55572" lon="4.60463">
        <ele>186</ele>
        <time>2020-02-07T14:02:55Z</time>
      </trkpt>
      <trkpt lat="44.55569" lon="4.60465">
        <ele>186.19999694824</ele>
        <time>2020-02-07T14:02:56Z</time>
      </trkpt>
      <trkpt lat="44.55566" lon="4.60466">
        <ele>186.39999389648</ele>
        <time>2020-02-07T14:02:57Z</time>
      </trkpt>
      <trkpt lat="44.55563" lon="4.60468">
        <ele>186.60000610352</ele>
        <time>2020-02-07T14:02:58Z</time>
      </trkpt>
      <trkpt lat="44.5556" lon="4.6047">
        <ele>186.80000305176</ele>
        <time>2020-02-07T14:02:59Z</time>
      </trkpt>
      <trkpt lat="44.55558" lon="4.60471">
        <ele>186.80000305176</ele>
        <time>2020-02-07T14:03:00Z</time>
      </trkpt>
      <trkpt lat="44.55555" lon="4.60473">
        <ele>186.80000305176</ele>
        <time>2020-02-07T14:03:01Z</time>
      </trkpt>
      <trkpt lat="44.55552" lon="4.60475">
        <ele>187.19999694824</ele>
        <time>2020-02-07T14:03:02Z</time>
      </trkpt>
      <trkpt lat="44.55549" lon="4.60476">
        <ele>187.39999389648</ele>
        <time>2020-02-07T14:03:03Z</time>
      </trkpt>
      <trkpt lat="44.55547" lon="4.60478">
        <ele>187.60000610352</ele>
        <time>2020-02-07T14:03:04Z</time>
      </trkpt>
      <trkpt lat="44.55544" lon="4.6048">
        <ele>187.39999389648</ele>
        <time>2020-02-07T14:03:05Z</time>
      </trkpt>
      <trkpt lat="44.55541" lon="4.60481">
        <ele>187.80000305176</ele>
        <time>2020-02-07T14:03:06Z</time>
      </trkpt>
      <trkpt lat="44.55538" lon="4.60483">
        <ele>187.80000305176</ele>
        <time>2020-02-07T14:03:07Z</time>
      </trkpt>
      <trkpt lat="44.55536" lon="4.60485">
        <ele>188</ele>
        <time>2020-02-07T14:03:08Z</time>
      </trkpt>
      <trkpt lat="44.55533" lon="4.60487">
        <ele>188.19999694824</ele>
        <time>2020-02-07T14:03:09Z</time>
      </trkpt>
      <trkpt lat="44.5553" lon="4.60488">
        <ele>188.39999389648</ele>
        <time>2020-02-07T14:03:10Z</time>
      </trkpt>
      <trkpt lat="44.55525" lon="4.60492">
        <ele>189</ele>
        <time>2020-02-07T14:03:12Z</time>
      </trkpt>
      <trkpt lat="44.55522" lon="4.60494">
        <ele>189</ele>
        <time>2020-02-07T14:03:13Z</time>
      </trkpt>
      <trkpt lat="44.55519" lon="4.60496">
        <ele>189</ele>
        <time>2020-02-07T14:03:14Z</time>
      </trkpt>
      <trkpt lat="44.55517" lon="4.60497">
        <ele>189</ele>
        <time>2020-02-07T14:03:15Z</time>
      </trkpt>
      <trkpt lat="44.55514" lon="4.60499">
        <ele>189.19999694824</ele>
        <time>2020-02-07T14:03:16Z</time>
      </trkpt>
      <trkpt lat="44.55512" lon="4.605">
        <ele>189.39999389648</ele>
        <time>2020-02-07T14:03:17Z</time>
      </trkpt>
      <trkpt lat="44.55509" lon="4.60502">
        <ele>189.39999389648</ele>
        <time>2020-02-07T14:03:18Z</time>
      </trkpt>
      <trkpt lat="44.55507" lon="4.60503">
        <ele>189.39999389648</ele>
        <time>2020-02-07T14:03:19Z</time>
      </trkpt>
      <trkpt lat="44.55504" lon="4.60504">
        <ele>189.60000610352</ele>
        <time>2020-02-07T14:03:20Z</time>
      </trkpt>
      <trkpt lat="44.55501" lon="4.60506">
        <ele>189.60000610352</ele>
        <time>2020-02-07T14:03:21Z</time>
      </trkpt>
      <trkpt lat="44.55498" lon="4.60507">
        <ele>189.80000305176</ele>
        <time>2020-02-07T14:03:22Z</time>
      </trkpt>
      <trkpt lat="44.55496" lon="4.60508">
        <ele>190</ele>
        <time>2020-02-07T14:03:23Z</time>
      </trkpt>
      <trkpt lat="44.55483" lon="4.60514">
        <ele>190.60000610352</ele>
        <time>2020-02-07T14:03:27Z</time>
      </trkpt>
      <trkpt lat="44.55473" lon="4.60519">
        <ele>190.80000305176</ele>
        <time>2020-02-07T14:03:30Z</time>
      </trkpt>
      <trkpt lat="44.5547" lon="4.60521">
        <ele>190.80000305176</ele>
        <time>2020-02-07T14:03:31Z</time>
      </trkpt>
      <trkpt lat="44.55467" lon="4.60523">
        <ele>190.80000305176</ele>
        <time>2020-02-07T14:03:32Z</time>
      </trkpt>
      <trkpt lat="44.55464" lon="4.60524">
        <ele>190.80000305176</ele>
        <time>2020-02-07T14:03:33Z</time>
      </trkpt>
      <trkpt lat="44.55458" lon="4.60528">
        <ele>190.80000305176</ele>
        <time>2020-02-07T14:03:35Z</time>
      </trkpt>
      <trkpt lat="44.55454" lon="4.6053">
        <ele>190.60000610352</ele>
        <time>2020-02-07T14:03:36Z</time>
      </trkpt>
      <trkpt lat="44.55442" lon="4.60539">
        <ele>190.60000610352</ele>
        <time>2020-02-07T14:03:40Z</time>
      </trkpt>
      <trkpt lat="44.55439" lon="4.60541">
        <ele>190.60000610352</ele>
        <time>2020-02-07T14:03:41Z</time>
      </trkpt>
      <trkpt lat="44.55439" lon="4.60542">
        <ele>189.60000610352</ele>
        <time>2021-07-02T14:17:45Z</time>
      </trkpt>
      <trkpt lat="44.55438" lon="4.60546">
        <ele>189.60000610352</ele>
        <time>2021-07-02T14:17:46Z</time>
      </trkpt>
      <trkpt lat="44.55437" lon="4.60552">
        <ele>189.60000610352</ele>
        <time>2021-07-02T14:17:47Z</time>
      </trkpt>
      <trkpt lat="44.55437" lon="4.60558">
        <ele>189.60000610352</ele>
        <time>2021-07-02T14:17:48Z</time>
      </trkpt>
      <trkpt lat="44.55438" lon="4.60564">
        <ele>189.60000610352</ele>
        <time>2021-07-02T14:17:49Z</time>
      </trkpt>
      <trkpt lat="44.55438" lon="4.6057">
        <ele>189.80000305176</ele>
        <time>2021-07-02T14:17:50Z</time>
      </trkpt>
      <trkpt lat="44.55439" lon="4.60581">
        <ele>189.60000610352</ele>
        <time>2021-07-02T14:17:52Z</time>
      </trkpt>
      <trkpt lat="44.5544" lon="4.60587">
        <ele>189.80000305176</ele>
        <time>2021-07-02T14:17:53Z</time>
      </trkpt>
      <trkpt lat="44.5544" lon="4.60592">
        <ele>189.60000610352</ele>
        <time>2021-07-02T14:17:54Z</time>
      </trkpt>
      <trkpt lat="44.5544" lon="4.60597">
        <ele>189.80000305176</ele>
        <time>2021-07-02T14:17:55Z</time>
      </trkpt>
      <trkpt lat="44.55441" lon="4.60602">
        <ele>189.80000305176</ele>
        <time>2021-07-02T14:17:56Z</time>
      </trkpt>
      <trkpt lat="44.5544" lon="4.60607">
        <ele>190</ele>
        <time>2021-07-02T14:17:57Z</time>
      </trkpt>
      <trkpt lat="44.55439" lon="4.6061">
        <ele>190.19999694824</ele>
        <time>2021-07-02T14:17:58Z</time>
      </trkpt>
      <trkpt lat="44.55436" lon="4.60612">
        <ele>190.19999694824</ele>
        <time>2021-07-02T14:17:59Z</time>
      </trkpt>
      <trkpt lat="44.55433" lon="4.60611">
        <ele>190.39999389648</ele>
        <time>2021-07-02T14:18:00Z</time>
      </trkpt>
      <trkpt lat="44.5543" lon="4.60611">
        <ele>190.80000305176</ele>
        <time>2021-07-02T14:18:01Z</time>
      </trkpt>
      <trkpt lat="44.55428" lon="4.60612">
        <ele>190.80000305176</ele>
        <time>2021-07-02T14:18:02Z</time>
      </trkpt>
      <trkpt lat="44.55425" lon="4.60613">
        <ele>191.19999694824</ele>
        <time>2021-07-02T14:18:03Z</time>
      </trkpt>
      <trkpt lat="44.55423" lon="4.60615">
        <ele>191.39999389648</ele>
        <time>2021-07-02T14:18:04Z</time>
      </trkpt>
      <trkpt lat="44.55421" lon="4.60617">
        <ele>191.80000305176</ele>
        <time>2021-07-02T14:18:05Z</time>
      </trkpt>
      <trkpt lat="44.5542" lon="4.6062">
        <ele>192</ele>
        <time>2021-07-02T14:18:06Z</time>
      </trkpt>
      <trkpt lat="44.55419" lon="4.60623">
        <ele>192.19999694824</ele>
        <time>2021-07-02T14:18:07Z</time>
      </trkpt>
      <trkpt lat="44.55418" lon="4.60626">
        <ele>192.39999389648</ele>
        <time>2021-07-02T14:18:08Z</time>
      </trkpt>
      <trkpt lat="44.55417" lon="4.6063">
        <ele>192.60000610352</ele>
        <time>2021-07-02T14:18:09Z</time>
      </trkpt>
      <trkpt lat="44.55417" lon="4.60634">
        <ele>192.60000610352</ele>
        <time>2021-07-02T14:18:10Z</time>
      </trkpt>
      <trkpt lat="44.55417" lon="4.60638">
        <ele>192.80000305176</ele>
        <time>2021-07-02T14:18:11Z</time>
      </trkpt>
      <trkpt lat="44.55416" lon="4.60641">
        <ele>193</ele>
        <time>2021-07-02T14:18:12Z</time>
      </trkpt>
      <trkpt lat="44.55416" lon="4.60646">
        <ele>193</ele>
        <time>2021-07-02T14:18:13Z</time>
      </trkpt>
      <trkpt lat="44.55416" lon="4.6065">
        <ele>193</ele>
        <time>2021-07-02T14:18:14Z</time>
      </trkpt>
      <trkpt lat="44.55415" lon="4.60653">
        <ele>193.60000610352</ele>
        <time>2021-07-02T14:18:15Z</time>
      </trkpt>
      <trkpt lat="44.55414" lon="4.60656">
        <ele>194</ele>
        <time>2021-07-02T14:18:16Z</time>
      </trkpt>
      <trkpt lat="44.55412" lon="4.60658">
        <ele>194.39999389648</ele>
        <time>2021-07-02T14:18:17Z</time>
      </trkpt>
      <trkpt lat="44.5541" lon="4.60659">
        <ele>194.60000610352</ele>
        <time>2021-07-02T14:18:18Z</time>
      </trkpt>
      <trkpt lat="44.55408" lon="4.60659">
        <ele>194.80000305176</ele>
        <time>2021-07-02T14:18:19Z</time>
      </trkpt>
      <trkpt lat="44.55405" lon="4.6066">
        <ele>194.80000305176</ele>
        <time>2021-07-02T14:18:20Z</time>
      </trkpt>
      <trkpt lat="44.55403" lon="4.6066">
        <ele>195.19999694824</ele>
        <time>2021-07-02T14:18:21Z</time>
      </trkpt>
      <trkpt lat="44.554" lon="4.6066">
        <ele>195.39999389648</ele>
        <time>2021-07-02T14:18:22Z</time>
      </trkpt>
      <trkpt lat="44.55397" lon="4.60661">
        <ele>195.80000305176</ele>
        <time>2021-07-02T14:18:23Z</time>
      </trkpt>
      <trkpt lat="44.55395" lon="4.60662">
        <ele>196.19999694824</ele>
        <time>2021-07-02T14:18:24Z</time>
      </trkpt>
      <trkpt lat="44.55393" lon="4.60664">
        <ele>196.39999389648</ele>
        <time>2021-07-02T14:18:25Z</time>
      </trkpt>
      <trkpt lat="44.55391" lon="4.60665">
        <ele>196.80000305176</ele>
        <time>2021-07-02T14:18:26Z</time>
      </trkpt>
      <trkpt lat="44.55391" lon="4.60665">
        <ele>197</ele>
        <time>2021-07-02T14:18:27Z</time>
      </trkpt>
      <trkpt lat="44.55391" lon="4.60665">
        <ele>197</ele>
        <time>2021-07-02T14:18:29Z</time>
      </trkpt>
      <trkpt lat="44.55391" lon="4.60666">
        <ele>197.19999694824</ele>
        <time>2021-07-02T14:18:30Z</time>
      </trkpt>
      <trkpt lat="44.5539" lon="4.60665">
        <ele>198.19999694824</ele>
        <time>2020-02-07T14:05:30Z</time>
      </trkpt>
      <trkpt lat="44.5539" lon="4.60665">
        <ele>198.39999389648</ele>
        <time>2020-02-07T14:05:31Z</time>
      </trkpt>
      <trkpt lat="44.55389" lon="4.60666">
        <ele>198.39999389648</ele>
        <time>2020-02-07T14:05:32Z</time>
      </trkpt>
      <trkpt lat="44.55388" lon="4.60667">
        <ele>198.60000610352</ele>
        <time>2020-02-07T14:05:33Z</time>
      </trkpt>
      <trkpt lat="44.55388" lon="4.60667">
        <ele>199</ele>
        <time>2020-02-07T14:05:34Z</time>
      </trkpt>
      <trkpt lat="44.55387" lon="4.60668">
        <ele>199.60000610352</ele>
        <time>2020-02-07T14:05:38Z</time>
      </trkpt>
      <trkpt lat="44.55386" lon="4.60669">
        <ele>200.19999694824</ele>
        <time>2020-02-07T14:05:41Z</time>
      </trkpt>
      <trkpt lat="44.55386" lon="4.6067">
        <ele>200.19999694824</ele>
        <time>2020-02-07T14:05:42Z</time>
      </trkpt>
      <trkpt lat="44.55385" lon="4.60671">
        <ele>200.19999694824</ele>
        <time>2020-02-07T14:05:43Z</time>
      </trkpt>
      <trkpt lat="44.55385" lon="4.60672">
        <ele>200.39999389648</ele>
        <time>2020-02-07T14:05:44Z</time>
      </trkpt>
      <trkpt lat="44.55385" lon="4.60673">
        <ele>200.60000610352</ele>
        <time>2020-02-07T14:05:45Z</time>
      </trkpt>
      <trkpt lat="44.55385" lon="4.60674">
        <ele>200.80000305176</ele>
        <time>2020-02-07T14:05:46Z</time>
      </trkpt>
      <trkpt lat="44.55385" lon="4.60675">
        <ele>201.19999694824</ele>
        <time>2020-02-07T14:05:47Z</time>
      </trkpt>
      <trkpt lat="44.55385" lon="4.60676">
        <ele>201.19999694824</ele>
        <time>2020-02-07T14:05:48Z</time>
      </trkpt>
      <trkpt lat="44.55385" lon="4.60676">
        <ele>201.60000610352</ele>
        <time>2020-02-07T14:05:49Z</time>
      </trkpt>
      <trkpt lat="44.55385" lon="4.60676">
        <ele>201.80000305176</ele>
        <time>2020-02-07T14:05:50Z</time>
      </trkpt>
      <trkpt lat="44.55385" lon="4.60676">
        <ele>202.80000305176</ele>
        <time>2020-02-07T14:06:03Z</time>
      </trkpt>
      <trkpt lat="44.55385" lon="4.60676">
        <ele>203</ele>
        <time>2020-02-07T14:06:29Z</time>
      </trkpt>
      <trkpt lat="44.55385" lon="4.60677">
        <ele>202.80000305176</ele>
        <time>2020-02-07T14:06:59Z</time>
      </trkpt>
      <trkpt lat="44.55384" lon="4.60678">
        <ele>202.60000610352</ele>
        <time>2020-02-07T14:07:27Z</time>
      </trkpt>
      <trkpt lat="44.55385" lon="4.60679">
        <ele>202.60000610352</ele>
        <time>2020-02-07T14:07:32Z</time>
      </trkpt>
      <trkpt lat="44.55385" lon="4.6068">
        <ele>202.60000610352</ele>
        <time>2020-02-07T14:07:33Z</time>
      </trkpt>
      <trkpt lat="44.55385" lon="4.60682">
        <ele>202.60000610352</ele>
        <time>2020-02-07T14:07:34Z</time>
      </trkpt>
      <trkpt lat="44.55386" lon="4.60683">
        <ele>202.60000610352</ele>
        <time>2020-02-07T14:07:35Z</time>
      </trkpt>
      <trkpt lat="44.55386" lon="4.60685">
        <ele>202.60000610352</ele>
        <time>2020-02-07T14:07:36Z</time>
      </trkpt>
      <trkpt lat="44.55386" lon="4.60686">
        <ele>202.60000610352</ele>
        <time>2020-02-07T14:07:37Z</time>
      </trkpt>
      <trkpt lat="44.55386" lon="4.60688">
        <ele>202.60000610352</ele>
        <time>2020-02-07T14:07:38Z</time>
      </trkpt>
      <trkpt lat="44.55385" lon="4.6069">
        <ele>202.80000305176</ele>
        <time>2020-02-07T14:07:39Z</time>
      </trkpt>
      <trkpt lat="44.55384" lon="4.60692">
        <ele>202.80000305176</ele>
        <time>2020-02-07T14:07:40Z</time>
      </trkpt>
      <trkpt lat="44.55382" lon="4.60696">
        <ele>203</ele>
        <time>2020-02-07T14:07:42Z</time>
      </trkpt>
      <trkpt lat="44.55381" lon="4.60698">
        <ele>203.19999694824</ele>
        <time>2020-02-07T14:07:43Z</time>
      </trkpt>
      <trkpt lat="44.55381" lon="4.607">
        <ele>203.19999694824</ele>
        <time>2020-02-07T14:07:44Z</time>
      </trkpt>
      <trkpt lat="44.55381" lon="4.60702">
        <ele>203.39999389648</ele>
        <time>2020-02-07T14:07:45Z</time>
      </trkpt>
      <trkpt lat="44.55382" lon="4.60704">
        <ele>203.39999389648</ele>
        <time>2020-02-07T14:07:46Z</time>
      </trkpt>
      <trkpt lat="44.55383" lon="4.60706">
        <ele>203.60000610352</ele>
        <time>2020-02-07T14:07:47Z</time>
      </trkpt>
      <trkpt lat="44.55384" lon="4.60708">
        <ele>203.60000610352</ele>
        <time>2020-02-07T14:07:48Z</time>
      </trkpt>
      <trkpt lat="44.55384" lon="4.60709">
        <ele>203.60000610352</ele>
        <time>2020-02-07T14:07:49Z</time>
      </trkpt>
      <trkpt lat="44.55385" lon="4.60711">
        <ele>203.80000305176</ele>
        <time>2020-02-07T14:07:50Z</time>
      </trkpt>
      <trkpt lat="44.55386" lon="4.60713">
        <ele>203.80000305176</ele>
        <time>2020-02-07T14:07:51Z</time>
      </trkpt>
      <trkpt lat="44.55386" lon="4.60715">
        <ele>204</ele>
        <time>2020-02-07T14:07:52Z</time>
      </trkpt>
      <trkpt lat="44.55387" lon="4.60716">
        <ele>204.39999389648</ele>
        <time>2020-02-07T14:07:53Z</time>
      </trkpt>
      <trkpt lat="44.55388" lon="4.60718">
        <ele>204.39999389648</ele>
        <time>2020-02-07T14:07:54Z</time>
      </trkpt>
      <trkpt lat="44.55388" lon="4.6072">
        <ele>204.60000610352</ele>
        <time>2020-02-07T14:07:55Z</time>
      </trkpt>
      <trkpt lat="44.55389" lon="4.60722">
        <ele>204.80000305176</ele>
        <time>2020-02-07T14:07:56Z</time>
      </trkpt>
      <trkpt lat="44.5539" lon="4.60724">
        <ele>205.19999694824</ele>
        <time>2020-02-07T14:07:57Z</time>
      </trkpt>
      <trkpt lat="44.5539" lon="4.60726">
        <ele>205.19999694824</ele>
        <time>2020-02-07T14:07:58Z</time>
      </trkpt>
      <trkpt lat="44.55391" lon="4.60728">
        <ele>205.39999389648</ele>
        <time>2020-02-07T14:07:59Z</time>
      </trkpt>
      <trkpt lat="44.55391" lon="4.6073">
        <ele>205.80000305176</ele>
        <time>2020-02-07T14:08:00Z</time>
      </trkpt>
      <trkpt lat="44.55391" lon="4.60732">
        <ele>206</ele>
        <time>2020-02-07T14:08:01Z</time>
      </trkpt>
      <trkpt lat="44.55391" lon="4.60734">
        <ele>206.19999694824</ele>
        <time>2020-02-07T14:08:02Z</time>
      </trkpt>
      <trkpt lat="44.55391" lon="4.60736">
        <ele>206.39999389648</ele>
        <time>2020-02-07T14:08:03Z</time>
      </trkpt>
      <trkpt lat="44.55391" lon="4.60738">
        <ele>206.80000305176</ele>
        <time>2020-02-07T14:08:04Z</time>
      </trkpt>
      <trkpt lat="44.5539" lon="4.6074">
        <ele>207</ele>
        <time>2020-02-07T14:08:05Z</time>
      </trkpt>
      <trkpt lat="44.5539" lon="4.60742">
        <ele>207.19999694824</ele>
        <time>2020-02-07T14:08:06Z</time>
      </trkpt>
      <trkpt lat="44.5539" lon="4.60744">
        <ele>207.39999389648</ele>
        <time>2020-02-07T14:08:07Z</time>
      </trkpt>
      <trkpt lat="44.5539" lon="4.60746">
        <ele>207.80000305176</ele>
        <time>2020-02-07T14:08:08Z</time>
      </trkpt>
      <trkpt lat="44.5539" lon="4.60749">
        <ele>208.19999694824</ele>
        <time>2020-02-07T14:08:09Z</time>
      </trkpt>
      <trkpt lat="44.5539" lon="4.60751">
        <ele>208.19999694824</ele>
        <time>2020-02-07T14:08:10Z</time>
      </trkpt>
      <trkpt lat="44.55391" lon="4.60753">
        <ele>208.39999389648</ele>
        <time>2020-02-07T14:08:11Z</time>
      </trkpt>
      <trkpt lat="44.55391" lon="4.60755">
        <ele>208.39999389648</ele>
        <time>2020-02-07T14:08:12Z</time>
      </trkpt>
      <trkpt lat="44.55391" lon="4.60757">
        <ele>208.60000610352</ele>
        <time>2020-02-07T14:08:13Z</time>
      </trkpt>
      <trkpt lat="44.55391" lon="4.6076">
        <ele>208.80000305176</ele>
        <time>2020-02-07T14:08:14Z</time>
      </trkpt>
      <trkpt lat="44.55391" lon="4.60762">
        <ele>209</ele>
        <time>2020-02-07T14:08:15Z</time>
      </trkpt>
      <trkpt lat="44.55391" lon="4.60764">
        <ele>209.19999694824</ele>
        <time>2020-02-07T14:08:16Z</time>
      </trkpt>
      <trkpt lat="44.55391" lon="4.60766">
        <ele>209.39999389648</ele>
        <time>2020-02-07T14:08:17Z</time>
      </trkpt>
      <trkpt lat="44.55391" lon="4.60768">
        <ele>209.19999694824</ele>
        <time>2020-02-07T14:08:18Z</time>
      </trkpt>
      <trkpt lat="44.55392" lon="4.6077">
        <ele>209.39999389648</ele>
        <time>2020-02-07T14:08:19Z</time>
      </trkpt>
      <trkpt lat="44.55392" lon="4.60773">
        <ele>209.60000610352</ele>
        <time>2020-02-07T14:08:20Z</time>
      </trkpt>
      <trkpt lat="44.55392" lon="4.60775">
        <ele>209.80000305176</ele>
        <time>2020-02-07T14:08:21Z</time>
      </trkpt>
      <trkpt lat="44.55392" lon="4.60777">
        <ele>210</ele>
        <time>2020-02-07T14:08:22Z</time>
      </trkpt>
      <trkpt lat="44.55393" lon="4.60779">
        <ele>210.19999694824</ele>
        <time>2020-02-07T14:08:23Z</time>
      </trkpt>
      <trkpt lat="44.55393" lon="4.60781">
        <ele>210.39999389648</ele>
        <time>2020-02-07T14:08:24Z</time>
      </trkpt>
      <trkpt lat="44.55393" lon="4.60783">
        <ele>210.80000305176</ele>
        <time>2020-02-07T14:08:25Z</time>
      </trkpt>
      <trkpt lat="44.55393" lon="4.60785">
        <ele>211</ele>
        <time>2020-02-07T14:08:26Z</time>
      </trkpt>
      <trkpt lat="44.55393" lon="4.60787">
        <ele>211.19999694824</ele>
        <time>2020-02-07T14:08:27Z</time>
      </trkpt>
      <trkpt lat="44.55392" lon="4.60789">
        <ele>211.19999694824</ele>
        <time>2020-02-07T14:08:28Z</time>
      </trkpt>
      <trkpt lat="44.55392" lon="4.60791">
        <ele>211.39999389648</ele>
        <time>2020-02-07T14:08:29Z</time>
      </trkpt>
      <trkpt lat="44.55392" lon="4.60793">
        <ele>212</ele>
        <time>2020-02-07T14:08:30Z</time>
      </trkpt>
      <trkpt lat="44.55392" lon="4.60795">
        <ele>212.19999694824</ele>
        <time>2020-02-07T14:08:31Z</time>
      </trkpt>
      <trkpt lat="44.55392" lon="4.60797">
        <ele>212.60000610352</ele>
        <time>2020-02-07T14:08:32Z</time>
      </trkpt>
      <trkpt lat="44.55392" lon="4.60799">
        <ele>213</ele>
        <time>2020-02-07T14:08:33Z</time>
      </trkpt>
      <trkpt lat="44.55392" lon="4.60801">
        <ele>213</ele>
        <time>2020-02-07T14:08:34Z</time>
      </trkpt>
      <trkpt lat="44.55391" lon="4.60804">
        <ele>213</ele>
        <time>2020-02-07T14:08:35Z</time>
      </trkpt>
      <trkpt lat="44.55391" lon="4.60806">
        <ele>213.39999389648</ele>
        <time>2020-02-07T14:08:36Z</time>
      </trkpt>
      <trkpt lat="44.55392" lon="4.60808">
        <ele>213.39999389648</ele>
        <time>2020-02-07T14:08:37Z</time>
      </trkpt>
      <trkpt lat="44.55392" lon="4.6081">
        <ele>213.80000305176</ele>
        <time>2020-02-07T14:08:38Z</time>
      </trkpt>
      <trkpt lat="44.55392" lon="4.60812">
        <ele>213.80000305176</ele>
        <time>2020-02-07T14:08:39Z</time>
      </trkpt>
      <trkpt lat="44.55392" lon="4.60815">
        <ele>213.80000305176</ele>
        <time>2020-02-07T14:08:40Z</time>
      </trkpt>
      <trkpt lat="44.55392" lon="4.60817">
        <ele>214.19999694824</ele>
        <time>2020-02-07T14:08:41Z</time>
      </trkpt>
      <trkpt lat="44.55392" lon="4.60819">
        <ele>214.39999389648</ele>
        <time>2020-02-07T14:08:42Z</time>
      </trkpt>
      <trkpt lat="44.55392" lon="4.60821">
        <ele>214.60000610352</ele>
        <time>2020-02-07T14:08:43Z</time>
      </trkpt>
      <trkpt lat="44.55392" lon="4.60823">
        <ele>214.80000305176</ele>
        <time>2020-02-07T14:08:44Z</time>
      </trkpt>
      <trkpt lat="44.55392" lon="4.60825">
        <ele>214.80000305176</ele>
        <time>2020-02-07T14:08:45Z</time>
      </trkpt>
      <trkpt lat="44.55392" lon="4.60827">
        <ele>215</ele>
        <time>2020-02-07T14:08:46Z</time>
      </trkpt>
      <trkpt lat="44.55392" lon="4.60829">
        <ele>215.39999389648</ele>
        <time>2020-02-07T14:08:47Z</time>
      </trkpt>
      <trkpt lat="44.55392" lon="4.6083">
        <ele>216</ele>
        <time>2020-02-07T14:08:49Z</time>
      </trkpt>
      <trkpt lat="44.55393" lon="4.60831">
        <ele>217</ele>
        <time>2020-02-07T14:08:52Z</time>
      </trkpt>
      <trkpt lat="44.55393" lon="4.60833">
        <ele>217.19999694824</ele>
        <time>2020-02-07T14:08:53Z</time>
      </trkpt>
      <trkpt lat="44.55393" lon="4.60834">
        <ele>217.60000610352</ele>
        <time>2020-02-07T14:08:54Z</time>
      </trkpt>
      <trkpt lat="44.55394" lon="4.60836">
        <ele>217.60000610352</ele>
        <time>2020-02-07T14:08:55Z</time>
      </trkpt>
      <trkpt lat="44.55395" lon="4.60838">
        <ele>218</ele>
        <time>2020-02-07T14:08:56Z</time>
      </trkpt>
      <trkpt lat="44.55395" lon="4.6084">
        <ele>218.19999694824</ele>
        <time>2020-02-07T14:08:57Z</time>
      </trkpt>
      <trkpt lat="44.55396" lon="4.60842">
        <ele>218.60000610352</ele>
        <time>2020-02-07T14:08:58Z</time>
      </trkpt>
      <trkpt lat="44.55396" lon="4.60845">
        <ele>218.60000610352</ele>
        <time>2020-02-07T14:08:59Z</time>
      </trkpt>
      <trkpt lat="44.55397" lon="4.60847">
        <ele>218.60000610352</ele>
        <time>2020-02-07T14:09:00Z</time>
      </trkpt>
      <trkpt lat="44.55397" lon="4.60848">
        <ele>218.60000610352</ele>
        <time>2020-02-07T14:09:01Z</time>
      </trkpt>
      <trkpt lat="44.55397" lon="4.60849">
        <ele>219.19999694824</ele>
        <time>2020-02-07T14:09:03Z</time>
      </trkpt>
      <trkpt lat="44.55398" lon="4.6085">
        <ele>219.80000305176</ele>
        <time>2020-02-07T14:09:05Z</time>
      </trkpt>
      <trkpt lat="44.55398" lon="4.60851">
        <ele>220</ele>
        <time>2020-02-07T14:09:06Z</time>
      </trkpt>
      <trkpt lat="44.55399" lon="4.60851">
        <ele>220.39999389648</ele>
        <time>2020-02-07T14:09:07Z</time>
      </trkpt>
      <trkpt lat="44.55399" lon="4.60852">
        <ele>220.80000305176</ele>
        <time>2020-02-07T14:09:08Z</time>
      </trkpt>
      <trkpt lat="44.554" lon="4.60852">
        <ele>221.19999694824</ele>
        <time>2020-02-07T14:09:09Z</time>
      </trkpt>
      <trkpt lat="44.554" lon="4.60853">
        <ele>221.80000305176</ele>
        <time>2020-02-07T14:09:11Z</time>
      </trkpt>
      <trkpt lat="44.55401" lon="4.60853">
        <ele>222</ele>
        <time>2020-02-07T14:09:12Z</time>
      </trkpt>
      <trkpt lat="44.55401" lon="4.60854">
        <ele>222.19999694824</ele>
        <time>2020-02-07T14:09:13Z</time>
      </trkpt>
      <trkpt lat="44.55402" lon="4.60855">
        <ele>222.19999694824</ele>
        <time>2020-02-07T14:09:14Z</time>
      </trkpt>
      <trkpt lat="44.55402" lon="4.60855">
        <ele>222.19999694824</ele>
        <time>2020-02-07T14:09:15Z</time>
      </trkpt>
      <trkpt lat="44.55403" lon="4.60856">
        <ele>222.39999389648</ele>
        <time>2020-02-07T14:09:16Z</time>
      </trkpt>
      <trkpt lat="44.55403" lon="4.60857">
        <ele>222.39999389648</ele>
        <time>2020-02-07T14:09:17Z</time>
      </trkpt>
      <trkpt lat="44.55403" lon="4.60857">
        <ele>222.60000610352</ele>
        <time>2020-02-07T14:09:18Z</time>
      </trkpt>
      <trkpt lat="44.55404" lon="4.60857">
        <ele>222.80000305176</ele>
        <time>2020-02-07T14:09:19Z</time>
      </trkpt>
      <trkpt lat="44.55405" lon="4.60858">
        <ele>223</ele>
        <time>2020-02-07T14:09:20Z</time>
      </trkpt>
      <trkpt lat="44.55405" lon="4.60858">
        <ele>223</ele>
        <time>2020-02-07T14:09:21Z</time>
      </trkpt>
      <trkpt lat="44.55406" lon="4.60859">
        <ele>223.19999694824</ele>
        <time>2020-02-07T14:09:22Z</time>
      </trkpt>
      <trkpt lat="44.55407" lon="4.60859">
        <ele>223.60000610352</ele>
        <time>2020-02-07T14:09:23Z</time>
      </trkpt>
      <trkpt lat="44.55407" lon="4.6086">
        <ele>223.60000610352</ele>
        <time>2020-02-07T14:09:24Z</time>
      </trkpt>
      <trkpt lat="44.55407" lon="4.60861">
        <ele>224</ele>
        <time>2020-02-07T14:09:26Z</time>
      </trkpt>
      <trkpt lat="44.55408" lon="4.60861">
        <ele>224</ele>
        <time>2020-02-07T14:09:27Z</time>
      </trkpt>
      <trkpt lat="44.55409" lon="4.60862">
        <ele>224.19999694824</ele>
        <time>2020-02-07T14:09:28Z</time>
      </trkpt>
      <trkpt lat="44.55409" lon="4.60862">
        <ele>224.39999389648</ele>
        <time>2020-02-07T14:09:29Z</time>
      </trkpt>
      <trkpt lat="44.5541" lon="4.60863">
        <ele>224.39999389648</ele>
        <time>2020-02-07T14:09:30Z</time>
      </trkpt>
      <trkpt lat="44.5541" lon="4.60864">
        <ele>224.60000610352</ele>
        <time>2020-02-07T14:09:31Z</time>
      </trkpt>
      <trkpt lat="44.55411" lon="4.60864">
        <ele>224.80000305176</ele>
        <time>2020-02-07T14:09:32Z</time>
      </trkpt>
      <trkpt lat="44.55412" lon="4.60864">
        <ele>224.80000305176</ele>
        <time>2020-02-07T14:09:33Z</time>
      </trkpt>
      <trkpt lat="44.55412" lon="4.60865">
        <ele>225</ele>
        <time>2020-02-07T14:09:34Z</time>
      </trkpt>
      <trkpt lat="44.55413" lon="4.60865">
        <ele>225.19999694824</ele>
        <time>2020-02-07T14:09:35Z</time>
      </trkpt>
      <trkpt lat="44.55413" lon="4.60866">
        <ele>225.39999389648</ele>
        <time>2020-02-07T14:09:36Z</time>
      </trkpt>
      <trkpt lat="44.55414" lon="4.60866">
        <ele>225.60000610352</ele>
        <time>2020-02-07T14:09:37Z</time>
      </trkpt>
      <trkpt lat="44.55414" lon="4.60867">
        <ele>225.80000305176</ele>
        <time>2020-02-07T14:09:38Z</time>
      </trkpt>
      <trkpt lat="44.55415" lon="4.60867">
        <ele>225.80000305176</ele>
        <time>2020-02-07T14:09:39Z</time>
      </trkpt>
      <trkpt lat="44.55416" lon="4.60868">
        <ele>227.19999694824</ele>
        <time>2020-02-07T14:09:46Z</time>
      </trkpt>
      <trkpt lat="44.55416" lon="4.60869">
        <ele>227.39999389648</ele>
        <time>2020-02-07T14:09:47Z</time>
      </trkpt>
      <trkpt lat="44.55417" lon="4.60869">
        <ele>227.60000610352</ele>
        <time>2020-02-07T14:09:48Z</time>
      </trkpt>
      <trkpt lat="44.55417" lon="4.60869">
        <ele>227.80000305176</ele>
        <time>2020-02-07T14:09:49Z</time>
      </trkpt>
      <trkpt lat="44.55418" lon="4.6087">
        <ele>227.80000305176</ele>
        <time>2020-02-07T14:09:50Z</time>
      </trkpt>
      <trkpt lat="44.55418" lon="4.6087">
        <ele>227.80000305176</ele>
        <time>2020-02-07T14:09:51Z</time>
      </trkpt>
      <trkpt lat="44.55419" lon="4.6087">
        <ele>228</ele>
        <time>2020-02-07T14:09:52Z</time>
      </trkpt>
      <trkpt lat="44.55419" lon="4.60871">
        <ele>228</ele>
        <time>2020-02-07T14:09:53Z</time>
      </trkpt>
      <trkpt lat="44.5542" lon="4.60872">
        <ele>228</ele>
        <time>2020-02-07T14:09:54Z</time>
      </trkpt>
      <trkpt lat="44.5542" lon="4.60873">
        <ele>228</ele>
        <time>2020-02-07T14:09:55Z</time>
      </trkpt>
      <trkpt lat="44.55421" lon="4.60874">
        <ele>228.19999694824</ele>
        <time>2020-02-07T14:09:56Z</time>
      </trkpt>
      <trkpt lat="44.55421" lon="4.60875">
        <ele>228.39999389648</ele>
        <time>2020-02-07T14:09:57Z</time>
      </trkpt>
      <trkpt lat="44.55421" lon="4.60875">
        <ele>228.60000610352</ele>
        <time>2020-02-07T14:09:58Z</time>
      </trkpt>
      <trkpt lat="44.55422" lon="4.60876">
        <ele>228.80000305176</ele>
        <time>2020-02-07T14:09:59Z</time>
      </trkpt>
      <trkpt lat="44.55423" lon="4.60877">
        <ele>228.80000305176</ele>
        <time>2020-02-07T14:10:00Z</time>
      </trkpt>
      <trkpt lat="44.55423" lon="4.60877">
        <ele>229</ele>
        <time>2020-02-07T14:10:01Z</time>
      </trkpt>
      <trkpt lat="44.55423" lon="4.60878">
        <ele>229</ele>
        <time>2020-02-07T14:10:02Z</time>
      </trkpt>
      <trkpt lat="44.55424" lon="4.60878">
        <ele>229.39999389648</ele>
        <time>2020-02-07T14:10:03Z</time>
      </trkpt>
      <trkpt lat="44.55424" lon="4.60879">
        <ele>229.60000610352</ele>
        <time>2020-02-07T14:10:05Z</time>
      </trkpt>
      <trkpt lat="44.55425" lon="4.6088">
        <ele>229.60000610352</ele>
        <time>2020-02-07T14:10:06Z</time>
      </trkpt>
      <trkpt lat="44.55425" lon="4.6088">
        <ele>229.80000305176</ele>
        <time>2020-02-07T14:10:07Z</time>
      </trkpt>
      <trkpt lat="44.55425" lon="4.60882">
        <ele>230.19999694824</ele>
        <time>2020-02-07T14:10:08Z</time>
      </trkpt>
      <trkpt lat="44.55426" lon="4.60883">
        <ele>230.39999389648</ele>
        <time>2020-02-07T14:10:09Z</time>
      </trkpt>
      <trkpt lat="44.55426" lon="4.60884">
        <ele>230.60000610352</ele>
        <time>2020-02-07T14:10:10Z</time>
      </trkpt>
      <trkpt lat="44.55426" lon="4.60884">
        <ele>231</ele>
        <time>2020-02-07T14:10:11Z</time>
      </trkpt>
      <trkpt lat="44.55427" lon="4.60886">
        <ele>232</ele>
        <time>2020-02-07T14:10:17Z</time>
      </trkpt>
      <trkpt lat="44.55428" lon="4.60888">
        <ele>232</ele>
        <time>2020-02-07T14:10:18Z</time>
      </trkpt>
      <trkpt lat="44.55429" lon="4.60889">
        <ele>232.19999694824</ele>
        <time>2020-02-07T14:10:19Z</time>
      </trkpt>
      <trkpt lat="44.55432" lon="4.60893">
        <ele>232.39999389648</ele>
        <time>2020-02-07T14:10:21Z</time>
      </trkpt>
      <trkpt lat="44.55434" lon="4.60895">
        <ele>232.39999389648</ele>
        <time>2020-02-07T14:10:22Z</time>
      </trkpt>
      <trkpt lat="44.55435" lon="4.60896">
        <ele>232.39999389648</ele>
        <time>2020-02-07T14:10:23Z</time>
      </trkpt>
      <trkpt lat="44.55437" lon="4.60898">
        <ele>232.60000610352</ele>
        <time>2020-02-07T14:10:24Z</time>
      </trkpt>
      <trkpt lat="44.55439" lon="4.609">
        <ele>232.60000610352</ele>
        <time>2020-02-07T14:10:25Z</time>
      </trkpt>
      <trkpt lat="44.55441" lon="4.60901">
        <ele>232.60000610352</ele>
        <time>2020-02-07T14:10:26Z</time>
      </trkpt>
      <trkpt lat="44.55443" lon="4.60902">
        <ele>232.80000305176</ele>
        <time>2020-02-07T14:10:27Z</time>
      </trkpt>
      <trkpt lat="44.55444" lon="4.60904">
        <ele>232.80000305176</ele>
        <time>2020-02-07T14:10:28Z</time>
      </trkpt>
      <trkpt lat="44.55446" lon="4.60905">
        <ele>233.19999694824</ele>
        <time>2020-02-07T14:10:29Z</time>
      </trkpt>
      <trkpt lat="44.55447" lon="4.60906">
        <ele>233.39999389648</ele>
        <time>2020-02-07T14:10:30Z</time>
      </trkpt>
      <trkpt lat="44.55449" lon="4.60907">
        <ele>233.60000610352</ele>
        <time>2020-02-07T14:10:31Z</time>
      </trkpt>
      <trkpt lat="44.55451" lon="4.60909">
        <ele>233.80000305176</ele>
        <time>2020-02-07T14:10:32Z</time>
      </trkpt>
      <trkpt lat="44.55452" lon="4.6091">
        <ele>234</ele>
        <time>2020-02-07T14:10:33Z</time>
      </trkpt>
      <trkpt lat="44.55453" lon="4.60911">
        <ele>234.19999694824</ele>
        <time>2020-02-07T14:10:34Z</time>
      </trkpt>
      <trkpt lat="44.55455" lon="4.60913">
        <ele>234.80000305176</ele>
        <time>2020-02-07T14:10:35Z</time>
      </trkpt>
      <trkpt lat="44.55456" lon="4.60914">
        <ele>235</ele>
        <time>2020-02-07T14:10:36Z</time>
      </trkpt>
      <trkpt lat="44.55457" lon="4.60915">
        <ele>235.19999694824</ele>
        <time>2020-02-07T14:10:37Z</time>
      </trkpt>
      <trkpt lat="44.55458" lon="4.60916">
        <ele>235.80000305176</ele>
        <time>2020-02-07T14:10:38Z</time>
      </trkpt>
      <trkpt lat="44.5546" lon="4.60917">
        <ele>236.39999389648</ele>
        <time>2020-02-07T14:10:39Z</time>
      </trkpt>
      <trkpt lat="44.55461" lon="4.60918">
        <ele>236.60000610352</ele>
        <time>2020-02-07T14:10:40Z</time>
      </trkpt>
      <trkpt lat="44.55462" lon="4.60919">
        <ele>236.80000305176</ele>
        <time>2020-02-07T14:10:41Z</time>
      </trkpt>
      <trkpt lat="44.55464" lon="4.6092">
        <ele>237.19999694824</ele>
        <time>2020-02-07T14:10:42Z</time>
      </trkpt>
      <trkpt lat="44.55465" lon="4.60921">
        <ele>237.60000610352</ele>
        <time>2020-02-07T14:10:43Z</time>
      </trkpt>
      <trkpt lat="44.55467" lon="4.60922">
        <ele>237.60000610352</ele>
        <time>2020-02-07T14:10:44Z</time>
      </trkpt>
      <trkpt lat="44.55469" lon="4.60923">
        <ele>238</ele>
        <time>2020-02-07T14:10:45Z</time>
      </trkpt>
      <trkpt lat="44.5547" lon="4.60924">
        <ele>238.19999694824</ele>
        <time>2020-02-07T14:10:46Z</time>
      </trkpt>
      <trkpt lat="44.55472" lon="4.60925">
        <ele>238.80000305176</ele>
        <time>2020-02-07T14:10:47Z</time>
      </trkpt>
      <trkpt lat="44.55473" lon="4.60926">
        <ele>239</ele>
        <time>2020-02-07T14:10:48Z</time>
      </trkpt>
      <trkpt lat="44.55475" lon="4.60927">
        <ele>239.39999389648</ele>
        <time>2020-02-07T14:10:49Z</time>
      </trkpt>
      <trkpt lat="44.55476" lon="4.60929">
        <ele>239.39999389648</ele>
        <time>2020-02-07T14:10:50Z</time>
      </trkpt>
      <trkpt lat="44.55478" lon="4.6093">
        <ele>239.60000610352</ele>
        <time>2020-02-07T14:10:51Z</time>
      </trkpt>
      <trkpt lat="44.55479" lon="4.60932">
        <ele>239.80000305176</ele>
        <time>2020-02-07T14:10:52Z</time>
      </trkpt>
      <trkpt lat="44.55481" lon="4.60934">
        <ele>240.19999694824</ele>
        <time>2020-02-07T14:10:53Z</time>
      </trkpt>
      <trkpt lat="44.55482" lon="4.60935">
        <ele>240.19999694824</ele>
        <time>2020-02-07T14:10:54Z</time>
      </trkpt>
      <trkpt lat="44.55484" lon="4.60937">
        <ele>240.39999389648</ele>
        <time>2020-02-07T14:10:55Z</time>
      </trkpt>
      <trkpt lat="44.55486" lon="4.60938">
        <ele>240.60000610352</ele>
        <time>2020-02-07T14:10:56Z</time>
      </trkpt>
      <trkpt lat="44.55488" lon="4.6094">
        <ele>240.60000610352</ele>
        <time>2020-02-07T14:10:57Z</time>
      </trkpt>
      <trkpt lat="44.5549" lon="4.60941">
        <ele>240.80000305176</ele>
        <time>2020-02-07T14:10:58Z</time>
      </trkpt>
      <trkpt lat="44.55492" lon="4.60941">
        <ele>241</ele>
        <time>2020-02-07T14:10:59Z</time>
      </trkpt>
      <trkpt lat="44.55494" lon="4.60942">
        <ele>241.19999694824</ele>
        <time>2020-02-07T14:11:00Z</time>
      </trkpt>
      <trkpt lat="44.55495" lon="4.60943">
        <ele>241.39999389648</ele>
        <time>2020-02-07T14:11:01Z</time>
      </trkpt>
      <trkpt lat="44.55497" lon="4.60945">
        <ele>241.80000305176</ele>
        <time>2020-02-07T14:11:02Z</time>
      </trkpt>
      <trkpt lat="44.55499" lon="4.60946">
        <ele>242.19999694824</ele>
        <time>2020-02-07T14:11:03Z</time>
      </trkpt>
      <trkpt lat="44.55501" lon="4.60947">
        <ele>242.19999694824</ele>
        <time>2020-02-07T14:11:04Z</time>
      </trkpt>
      <trkpt lat="44.55502" lon="4.60949">
        <ele>242.19999694824</ele>
        <time>2020-02-07T14:11:05Z</time>
      </trkpt>
      <trkpt lat="44.55503" lon="4.6095">
        <ele>242.39999389648</ele>
        <time>2020-02-07T14:11:06Z</time>
      </trkpt>
      <trkpt lat="44.55505" lon="4.60951">
        <ele>242.39999389648</ele>
        <time>2020-02-07T14:11:07Z</time>
      </trkpt>
      <trkpt lat="44.55506" lon="4.60952">
        <ele>242.60000610352</ele>
        <time>2020-02-07T14:11:08Z</time>
      </trkpt>
      <trkpt lat="44.55507" lon="4.60953">
        <ele>242.80000305176</ele>
        <time>2020-02-07T14:11:09Z</time>
      </trkpt>
      <trkpt lat="44.55509" lon="4.60954">
        <ele>243.39999389648</ele>
        <time>2020-02-07T14:11:10Z</time>
      </trkpt>
      <trkpt lat="44.5551" lon="4.60955">
        <ele>243.39999389648</ele>
        <time>2020-02-07T14:11:11Z</time>
      </trkpt>
      <trkpt lat="44.55511" lon="4.60956">
        <ele>243.39999389648</ele>
        <time>2020-02-07T14:11:12Z</time>
      </trkpt>
      <trkpt lat="44.55512" lon="4.60958">
        <ele>243.60000610352</ele>
        <time>2020-02-07T14:11:13Z</time>
      </trkpt>
      <trkpt lat="44.55513" lon="4.60959">
        <ele>243.80000305176</ele>
        <time>2020-02-07T14:11:14Z</time>
      </trkpt>
      <trkpt lat="44.55514" lon="4.6096">
        <ele>244.19999694824</ele>
        <time>2020-02-07T14:11:15Z</time>
      </trkpt>
      <trkpt lat="44.55515" lon="4.60962">
        <ele>244.19999694824</ele>
        <time>2020-02-07T14:11:16Z</time>
      </trkpt>
      <trkpt lat="44.55517" lon="4.60963">
        <ele>244.39999389648</ele>
        <time>2020-02-07T14:11:17Z</time>
      </trkpt>
      <trkpt lat="44.55518" lon="4.60964">
        <ele>244.60000610352</ele>
        <time>2020-02-07T14:11:18Z</time>
      </trkpt>
      <trkpt lat="44.55519" lon="4.60965">
        <ele>244.80000305176</ele>
        <time>2020-02-07T14:11:19Z</time>
      </trkpt>
      <trkpt lat="44.5552" lon="4.60966">
        <ele>245</ele>
        <time>2020-02-07T14:11:20Z</time>
      </trkpt>
      <trkpt lat="44.55521" lon="4.60968">
        <ele>245</ele>
        <time>2020-02-07T14:11:21Z</time>
      </trkpt>
      <trkpt lat="44.55522" lon="4.60969">
        <ele>245.39999389648</ele>
        <time>2020-02-07T14:11:22Z</time>
      </trkpt>
      <trkpt lat="44.55524" lon="4.6097">
        <ele>245.60000610352</ele>
        <time>2020-02-07T14:11:23Z</time>
      </trkpt>
      <trkpt lat="44.55525" lon="4.60972">
        <ele>245.60000610352</ele>
        <time>2020-02-07T14:11:24Z</time>
      </trkpt>
      <trkpt lat="44.55526" lon="4.60974">
        <ele>246</ele>
        <time>2020-02-07T14:11:25Z</time>
      </trkpt>
      <trkpt lat="44.55527" lon="4.60975">
        <ele>246.19999694824</ele>
        <time>2020-02-07T14:11:26Z</time>
      </trkpt>
      <trkpt lat="44.55529" lon="4.60976">
        <ele>246.19999694824</ele>
        <time>2020-02-07T14:11:27Z</time>
      </trkpt>
      <trkpt lat="44.5553" lon="4.60978">
        <ele>246.39999389648</ele>
        <time>2020-02-07T14:11:28Z</time>
      </trkpt>
      <trkpt lat="44.55532" lon="4.60979">
        <ele>246.80000305176</ele>
        <time>2020-02-07T14:11:29Z</time>
      </trkpt>
      <trkpt lat="44.55533" lon="4.60981">
        <ele>246.80000305176</ele>
        <time>2020-02-07T14:11:30Z</time>
      </trkpt>
      <trkpt lat="44.55535" lon="4.60982">
        <ele>247</ele>
        <time>2020-02-07T14:11:31Z</time>
      </trkpt>
      <trkpt lat="44.55537" lon="4.60983">
        <ele>247</ele>
        <time>2020-02-07T14:11:32Z</time>
      </trkpt>
      <trkpt lat="44.55538" lon="4.60984">
        <ele>247</ele>
        <time>2020-02-07T14:11:33Z</time>
      </trkpt>
      <trkpt lat="44.55539" lon="4.60985">
        <ele>247.19999694824</ele>
        <time>2020-02-07T14:11:34Z</time>
      </trkpt>
      <trkpt lat="44.55541" lon="4.60987">
        <ele>247.39999389648</ele>
        <time>2020-02-07T14:11:35Z</time>
      </trkpt>
      <trkpt lat="44.55542" lon="4.60988">
        <ele>247.60000610352</ele>
        <time>2020-02-07T14:11:36Z</time>
      </trkpt>
      <trkpt lat="44.55543" lon="4.6099">
        <ele>247.60000610352</ele>
        <time>2020-02-07T14:11:37Z</time>
      </trkpt>
      <trkpt lat="44.55545" lon="4.60991">
        <ele>247.60000610352</ele>
        <time>2020-02-07T14:11:38Z</time>
      </trkpt>
      <trkpt lat="44.55546" lon="4.60993">
        <ele>247.80000305176</ele>
        <time>2020-02-07T14:11:39Z</time>
      </trkpt>
      <trkpt lat="44.55549" lon="4.60997">
        <ele>248</ele>
        <time>2020-02-07T14:11:41Z</time>
      </trkpt>
      <trkpt lat="44.5555" lon="4.60998">
        <ele>248.19999694824</ele>
        <time>2020-02-07T14:11:42Z</time>
      </trkpt>
      <trkpt lat="44.55552" lon="4.60999">
        <ele>248.39999389648</ele>
        <time>2020-02-07T14:11:43Z</time>
      </trkpt>
      <trkpt lat="44.55553" lon="4.61">
        <ele>248.39999389648</ele>
        <time>2020-02-07T14:11:44Z</time>
      </trkpt>
      <trkpt lat="44.55554" lon="4.61">
        <ele>248.39999389648</ele>
        <time>2020-02-07T14:11:45Z</time>
      </trkpt>
      <trkpt lat="44.55555" lon="4.61001">
        <ele>248.80000305176</ele>
        <time>2020-02-07T14:11:46Z</time>
      </trkpt>
      <trkpt lat="44.55557" lon="4.61002">
        <ele>248.60000610352</ele>
        <time>2020-02-07T14:11:47Z</time>
      </trkpt>
      <trkpt lat="44.55558" lon="4.61002">
        <ele>248.60000610352</ele>
        <time>2020-02-07T14:11:48Z</time>
      </trkpt>
      <trkpt lat="44.55559" lon="4.61003">
        <ele>248.60000610352</ele>
        <time>2020-02-07T14:11:49Z</time>
      </trkpt>
      <trkpt lat="44.55561" lon="4.61004">
        <ele>248.80000305176</ele>
        <time>2020-02-07T14:11:50Z</time>
      </trkpt>
      <trkpt lat="44.55563" lon="4.61005">
        <ele>249</ele>
        <time>2020-02-07T14:11:51Z</time>
      </trkpt>
      <trkpt lat="44.55564" lon="4.61006">
        <ele>249.19999694824</ele>
        <time>2020-02-07T14:11:52Z</time>
      </trkpt>
      <trkpt lat="44.55565" lon="4.61007">
        <ele>249.39999389648</ele>
        <time>2020-02-07T14:11:53Z</time>
      </trkpt>
      <trkpt lat="44.55566" lon="4.61008">
        <ele>249.60000610352</ele>
        <time>2020-02-07T14:11:54Z</time>
      </trkpt>
      <trkpt lat="44.55568" lon="4.61009">
        <ele>249.60000610352</ele>
        <time>2020-02-07T14:11:55Z</time>
      </trkpt>
      <trkpt lat="44.55569" lon="4.6101">
        <ele>250</ele>
        <time>2020-02-07T14:11:56Z</time>
      </trkpt>
      <trkpt lat="44.5557" lon="4.61011">
        <ele>250</ele>
        <time>2020-02-07T14:11:57Z</time>
      </trkpt>
      <trkpt lat="44.55572" lon="4.61012">
        <ele>250.19999694824</ele>
        <time>2020-02-07T14:11:58Z</time>
      </trkpt>
      <trkpt lat="44.55573" lon="4.61013">
        <ele>250.39999389648</ele>
        <time>2020-02-07T14:11:59Z</time>
      </trkpt>
      <trkpt lat="44.55575" lon="4.61015">
        <ele>250.39999389648</ele>
        <time>2020-02-07T14:12:00Z</time>
      </trkpt>
      <trkpt lat="44.55576" lon="4.61016">
        <ele>250.60000610352</ele>
        <time>2020-02-07T14:12:01Z</time>
      </trkpt>
      <trkpt lat="44.55579" lon="4.61019">
        <ele>251</ele>
        <time>2020-02-07T14:12:03Z</time>
      </trkpt>
      <trkpt lat="44.55581" lon="4.6102">
        <ele>251</ele>
        <time>2020-02-07T14:12:04Z</time>
      </trkpt>
      <trkpt lat="44.55582" lon="4.61022">
        <ele>251</ele>
        <time>2020-02-07T14:12:05Z</time>
      </trkpt>
      <trkpt lat="44.55583" lon="4.61023">
        <ele>251.19999694824</ele>
        <time>2020-02-07T14:12:06Z</time>
      </trkpt>
      <trkpt lat="44.55585" lon="4.61024">
        <ele>251.19999694824</ele>
        <time>2020-02-07T14:12:07Z</time>
      </trkpt>
      <trkpt lat="44.55587" lon="4.61026">
        <ele>251.19999694824</ele>
        <time>2020-02-07T14:12:08Z</time>
      </trkpt>
      <trkpt lat="44.55588" lon="4.61027">
        <ele>251.39999389648</ele>
        <time>2020-02-07T14:12:09Z</time>
      </trkpt>
      <trkpt lat="44.5559" lon="4.61028">
        <ele>251.39999389648</ele>
        <time>2020-02-07T14:12:10Z</time>
      </trkpt>
      <trkpt lat="44.55591" lon="4.61029">
        <ele>251.39999389648</ele>
        <time>2020-02-07T14:12:11Z</time>
      </trkpt>
      <trkpt lat="44.55593" lon="4.61031">
        <ele>251.60000610352</ele>
        <time>2020-02-07T14:12:12Z</time>
      </trkpt>
      <trkpt lat="44.55595" lon="4.61032">
        <ele>251.80000305176</ele>
        <time>2020-02-07T14:12:13Z</time>
      </trkpt>
      <trkpt lat="44.55597" lon="4.61034">
        <ele>252</ele>
        <time>2020-02-07T14:12:14Z</time>
      </trkpt>
      <trkpt lat="44.55598" lon="4.61036">
        <ele>252.19999694824</ele>
        <time>2020-02-07T14:12:15Z</time>
      </trkpt>
      <trkpt lat="44.556" lon="4.61038">
        <ele>252.39999389648</ele>
        <time>2020-02-07T14:12:16Z</time>
      </trkpt>
      <trkpt lat="44.55601" lon="4.61039">
        <ele>252.60000610352</ele>
        <time>2020-02-07T14:12:17Z</time>
      </trkpt>
      <trkpt lat="44.55603" lon="4.6104">
        <ele>253</ele>
        <time>2020-02-07T14:12:18Z</time>
      </trkpt>
      <trkpt lat="44.55604" lon="4.61042">
        <ele>253</ele>
        <time>2020-02-07T14:12:19Z</time>
      </trkpt>
      <trkpt lat="44.55605" lon="4.61043">
        <ele>253.19999694824</ele>
        <time>2020-02-07T14:12:20Z</time>
      </trkpt>
      <trkpt lat="44.55607" lon="4.61044">
        <ele>253</ele>
        <time>2020-02-07T14:12:21Z</time>
      </trkpt>
      <trkpt lat="44.55609" lon="4.61046">
        <ele>253.19999694824</ele>
        <time>2020-02-07T14:12:22Z</time>
      </trkpt>
      <trkpt lat="44.5561" lon="4.61047">
        <ele>253.39999389648</ele>
        <time>2020-02-07T14:12:23Z</time>
      </trkpt>
      <trkpt lat="44.55612" lon="4.61049">
        <ele>253.19999694824</ele>
        <time>2020-02-07T14:12:24Z</time>
      </trkpt>
      <trkpt lat="44.55625" lon="4.61059">
        <ele>254</ele>
        <time>2020-02-07T14:12:31Z</time>
      </trkpt>
      <trkpt lat="44.55627" lon="4.6106">
        <ele>254</ele>
        <time>2020-02-07T14:12:32Z</time>
      </trkpt>
      <trkpt lat="44.55628" lon="4.61062">
        <ele>254.39999389648</ele>
        <time>2020-02-07T14:12:33Z</time>
      </trkpt>
      <trkpt lat="44.5563" lon="4.61062">
        <ele>254.19999694824</ele>
        <time>2020-02-07T14:12:34Z</time>
      </trkpt>
      <trkpt lat="44.5563" lon="4.61063">
        <ele>254.39999389648</ele>
        <time>2020-02-07T14:12:35Z</time>
      </trkpt>
      <trkpt lat="44.55631" lon="4.61064">
        <ele>254.39999389648</ele>
        <time>2020-02-07T14:12:36Z</time>
      </trkpt>
      <trkpt lat="44.55633" lon="4.61066">
        <ele>254.60000610352</ele>
        <time>2020-02-07T14:12:38Z</time>
      </trkpt>
      <trkpt lat="44.55636" lon="4.61069">
        <ele>254.80000305176</ele>
        <time>2020-02-07T14:12:40Z</time>
      </trkpt>
      <trkpt lat="44.55639" lon="4.61073">
        <ele>255.19999694824</ele>
        <time>2020-02-07T14:12:42Z</time>
      </trkpt>
      <trkpt lat="44.5564" lon="4.61074">
        <ele>255.19999694824</ele>
        <time>2020-02-07T14:12:43Z</time>
      </trkpt>
      <trkpt lat="44.55642" lon="4.61075">
        <ele>255.39999389648</ele>
        <time>2020-02-07T14:12:44Z</time>
      </trkpt>
      <trkpt lat="44.55643" lon="4.61076">
        <ele>255.19999694824</ele>
        <time>2020-02-07T14:12:45Z</time>
      </trkpt>
      <trkpt lat="44.55645" lon="4.61077">
        <ele>255.19999694824</ele>
        <time>2020-02-07T14:12:46Z</time>
      </trkpt>
      <trkpt lat="44.55646" lon="4.61078">
        <ele>255.39999389648</ele>
        <time>2020-02-07T14:12:47Z</time>
      </trkpt>
      <trkpt lat="44.55648" lon="4.61079">
        <ele>255.60000610352</ele>
        <time>2020-02-07T14:12:48Z</time>
      </trkpt>
      <trkpt lat="44.55649" lon="4.6108">
        <ele>255.60000610352</ele>
        <time>2020-02-07T14:12:49Z</time>
      </trkpt>
      <trkpt lat="44.5565" lon="4.61081">
        <ele>255.60000610352</ele>
        <time>2020-02-07T14:12:50Z</time>
      </trkpt>
      <trkpt lat="44.55651" lon="4.61082">
        <ele>255.80000305176</ele>
        <time>2020-02-07T14:12:51Z</time>
      </trkpt>
      <trkpt lat="44.55652" lon="4.61083">
        <ele>256</ele>
        <time>2020-02-07T14:12:52Z</time>
      </trkpt>
      <trkpt lat="44.55653" lon="4.61084">
        <ele>256.20001220703</ele>
        <time>2020-02-07T14:12:53Z</time>
      </trkpt>
      <trkpt lat="44.55654" lon="4.61085">
        <ele>256.20001220703</ele>
        <time>2020-02-07T14:12:54Z</time>
      </trkpt>
      <trkpt lat="44.55655" lon="4.61085">
        <ele>256</ele>
        <time>2020-02-07T14:12:55Z</time>
      </trkpt>
      <trkpt lat="44.55656" lon="4.61085">
        <ele>256.39999389648</ele>
        <time>2020-02-07T14:12:56Z</time>
      </trkpt>
      <trkpt lat="44.55657" lon="4.61084">
        <ele>256.39999389648</ele>
        <time>2020-02-07T14:12:57Z</time>
      </trkpt>
      <trkpt lat="44.55657" lon="4.61085">
        <ele>256.60000610352</ele>
        <time>2020-02-07T14:12:58Z</time>
      </trkpt>
      <trkpt lat="44.55659" lon="4.61085">
        <ele>256.60000610352</ele>
        <time>2020-02-07T14:12:59Z</time>
      </trkpt>
      <trkpt lat="44.5566" lon="4.61086">
        <ele>256.79998779297</ele>
        <time>2020-02-07T14:13:00Z</time>
      </trkpt>
      <trkpt lat="44.55664" lon="4.61089">
        <ele>256.79998779297</ele>
        <time>2020-02-07T14:13:02Z</time>
      </trkpt>
      <trkpt lat="44.55669" lon="4.61094">
        <ele>256.79998779297</ele>
        <time>2020-02-07T14:13:05Z</time>
      </trkpt>
      <trkpt lat="44.55671" lon="4.61095">
        <ele>257</ele>
        <time>2020-02-07T14:13:06Z</time>
      </trkpt>
      <trkpt lat="44.55674" lon="4.61095">
        <ele>257</ele>
        <time>2020-02-07T14:13:07Z</time>
      </trkpt>
      <trkpt lat="44.55675" lon="4.61096">
        <ele>256.79998779297</ele>
        <time>2020-02-07T14:13:08Z</time>
      </trkpt>
      <trkpt lat="44.55677" lon="4.61097">
        <ele>257</ele>
        <time>2020-02-07T14:13:09Z</time>
      </trkpt>
      <trkpt lat="44.55678" lon="4.61098">
        <ele>257</ele>
        <time>2020-02-07T14:13:10Z</time>
      </trkpt>
      <trkpt lat="44.55679" lon="4.61099">
        <ele>257</ele>
        <time>2020-02-07T14:13:12Z</time>
      </trkpt>
      <trkpt lat="44.5568" lon="4.611">
        <ele>257.20001220703</ele>
        <time>2020-02-07T14:13:15Z</time>
      </trkpt>
      <trkpt lat="44.55684" lon="4.61102">
        <ele>257.20001220703</ele>
        <time>2020-02-07T14:13:18Z</time>
      </trkpt>
      <trkpt lat="44.55687" lon="4.61104">
        <ele>257.60000610352</ele>
        <time>2020-02-07T14:13:20Z</time>
      </trkpt>
      <trkpt lat="44.55688" lon="4.61106">
        <ele>257.79998779297</ele>
        <time>2020-02-07T14:13:21Z</time>
      </trkpt>
      <trkpt lat="44.55696" lon="4.61114">
        <ele>257.79998779297</ele>
        <time>2020-02-07T14:13:26Z</time>
      </trkpt>
      <trkpt lat="44.55697" lon="4.61116">
        <ele>258</ele>
        <time>2020-02-07T14:13:27Z</time>
      </trkpt>
      <trkpt lat="44.55698" lon="4.61118">
        <ele>258</ele>
        <time>2020-02-07T14:13:28Z</time>
      </trkpt>
      <trkpt lat="44.557" lon="4.61119">
        <ele>258</ele>
        <time>2020-02-07T14:13:29Z</time>
      </trkpt>
      <trkpt lat="44.55701" lon="4.61121">
        <ele>258</ele>
        <time>2020-02-07T14:13:30Z</time>
      </trkpt>
      <trkpt lat="44.55703" lon="4.61121">
        <ele>258</ele>
        <time>2020-02-07T14:13:31Z</time>
      </trkpt>
      <trkpt lat="44.55706" lon="4.61123">
        <ele>258.20001220703</ele>
        <time>2020-02-07T14:13:33Z</time>
      </trkpt>
      <trkpt lat="44.55708" lon="4.61124">
        <ele>258</ele>
        <time>2020-02-07T14:13:34Z</time>
      </trkpt>
      <trkpt lat="44.55713" lon="4.6113">
        <ele>258.79998779297</ele>
        <time>2020-02-07T14:13:37Z</time>
      </trkpt>
      <trkpt lat="44.55715" lon="4.61132">
        <ele>258.79998779297</ele>
        <time>2020-02-07T14:13:38Z</time>
      </trkpt>
      <trkpt lat="44.55717" lon="4.61133">
        <ele>258.79998779297</ele>
        <time>2020-02-07T14:13:39Z</time>
      </trkpt>
      <trkpt lat="44.55719" lon="4.61135">
        <ele>258.79998779297</ele>
        <time>2020-02-07T14:13:40Z</time>
      </trkpt>
      <trkpt lat="44.5572" lon="4.61136">
        <ele>259</ele>
        <time>2020-02-07T14:13:41Z</time>
      </trkpt>
      <trkpt lat="44.55722" lon="4.61137">
        <ele>259</ele>
        <time>2020-02-07T14:13:42Z</time>
      </trkpt>
      <trkpt lat="44.55723" lon="4.61139">
        <ele>259</ele>
        <time>2020-02-07T14:13:43Z</time>
      </trkpt>
      <trkpt lat="44.55726" lon="4.61142">
        <ele>259</ele>
        <time>2020-02-07T14:13:45Z</time>
      </trkpt>
      <trkpt lat="44.55728" lon="4.61143">
        <ele>259</ele>
        <time>2020-02-07T14:13:46Z</time>
      </trkpt>
      <trkpt lat="44.5573" lon="4.61144">
        <ele>259</ele>
        <time>2020-02-07T14:13:47Z</time>
      </trkpt>
      <trkpt lat="44.55731" lon="4.61145">
        <ele>259.20001220703</ele>
        <time>2020-02-07T14:13:48Z</time>
      </trkpt>
      <trkpt lat="44.55733" lon="4.61147">
        <ele>259.20001220703</ele>
        <time>2020-02-07T14:13:49Z</time>
      </trkpt>
      <trkpt lat="44.55734" lon="4.6115">
        <ele>259.20001220703</ele>
        <time>2020-02-07T14:13:50Z</time>
      </trkpt>
      <trkpt lat="44.55735" lon="4.61152">
        <ele>259.39999389648</ele>
        <time>2020-02-07T14:13:51Z</time>
      </trkpt>
      <trkpt lat="44.55736" lon="4.61154">
        <ele>259.39999389648</ele>
        <time>2020-02-07T14:13:52Z</time>
      </trkpt>
      <trkpt lat="44.55737" lon="4.61156">
        <ele>259.39999389648</ele>
        <time>2020-02-07T14:13:53Z</time>
      </trkpt>
      <trkpt lat="44.55739" lon="4.61158">
        <ele>259.60000610352</ele>
        <time>2020-02-07T14:13:54Z</time>
      </trkpt>
      <trkpt lat="44.55741" lon="4.61159">
        <ele>259.39999389648</ele>
        <time>2020-02-07T14:13:55Z</time>
      </trkpt>
      <trkpt lat="44.55742" lon="4.61161">
        <ele>259.39999389648</ele>
        <time>2020-02-07T14:13:56Z</time>
      </trkpt>
      <trkpt lat="44.55744" lon="4.61162">
        <ele>259.60000610352</ele>
        <time>2020-02-07T14:13:57Z</time>
      </trkpt>
      <trkpt lat="44.55752" lon="4.6117">
        <ele>259.79998779297</ele>
        <time>2020-02-07T14:14:01Z</time>
      </trkpt>
      <trkpt lat="44.55756" lon="4.61174">
        <ele>260</ele>
        <time>2020-02-07T14:14:03Z</time>
      </trkpt>
      <trkpt lat="44.55757" lon="4.61177">
        <ele>260.20001220703</ele>
        <time>2020-02-07T14:14:04Z</time>
      </trkpt>
      <trkpt lat="44.55759" lon="4.61179">
        <ele>260.39999389648</ele>
        <time>2020-02-07T14:14:05Z</time>
      </trkpt>
      <trkpt lat="44.55761" lon="4.61181">
        <ele>260.39999389648</ele>
        <time>2020-02-07T14:14:06Z</time>
      </trkpt>
      <trkpt lat="44.55763" lon="4.61183">
        <ele>260.60000610352</ele>
        <time>2020-02-07T14:14:07Z</time>
      </trkpt>
      <trkpt lat="44.55765" lon="4.61185">
        <ele>260.79998779297</ele>
        <time>2020-02-07T14:14:08Z</time>
      </trkpt>
      <trkpt lat="44.55768" lon="4.6119">
        <ele>260.60000610352</ele>
        <time>2020-02-07T14:14:10Z</time>
      </trkpt>
      <trkpt lat="44.5577" lon="4.61193">
        <ele>260.79998779297</ele>
        <time>2020-02-07T14:14:11Z</time>
      </trkpt>
      <trkpt lat="44.55772" lon="4.61196">
        <ele>261</ele>
        <time>2020-02-07T14:14:12Z</time>
      </trkpt>
      <trkpt lat="44.55773" lon="4.612">
        <ele>261</ele>
        <time>2020-02-07T14:14:13Z</time>
      </trkpt>
      <trkpt lat="44.55775" lon="4.61203">
        <ele>261</ele>
        <time>2020-02-07T14:14:14Z</time>
      </trkpt>
      <trkpt lat="44.55777" lon="4.61205">
        <ele>261.20001220703</ele>
        <time>2020-02-07T14:14:15Z</time>
      </trkpt>
      <trkpt lat="44.55779" lon="4.61207">
        <ele>261.20001220703</ele>
        <time>2020-02-07T14:14:16Z</time>
      </trkpt>
      <trkpt lat="44.55781" lon="4.6121">
        <ele>261.20001220703</ele>
        <time>2020-02-07T14:14:17Z</time>
      </trkpt>
      <trkpt lat="44.55785" lon="4.61216">
        <ele>261.60000610352</ele>
        <time>2020-02-07T14:14:19Z</time>
      </trkpt>
      <trkpt lat="44.55787" lon="4.61219">
        <ele>261.79998779297</ele>
        <time>2020-02-07T14:14:20Z</time>
      </trkpt>
      <trkpt lat="44.55789" lon="4.6122">
        <ele>261.79998779297</ele>
        <time>2020-02-07T14:14:21Z</time>
      </trkpt>
      <trkpt lat="44.5579" lon="4.61222">
        <ele>262</ele>
        <time>2020-02-07T14:14:22Z</time>
      </trkpt>
      <trkpt lat="44.55792" lon="4.61224">
        <ele>262</ele>
        <time>2020-02-07T14:14:23Z</time>
      </trkpt>
      <trkpt lat="44.55794" lon="4.61227">
        <ele>262.39999389648</ele>
        <time>2020-02-07T14:14:24Z</time>
      </trkpt>
      <trkpt lat="44.55795" lon="4.61229">
        <ele>262.79998779297</ele>
        <time>2020-02-07T14:14:25Z</time>
      </trkpt>
      <trkpt lat="44.55797" lon="4.6123">
        <ele>263.20001220703</ele>
        <time>2020-02-07T14:14:26Z</time>
      </trkpt>
      <trkpt lat="44.55798" lon="4.61232">
        <ele>263.39999389648</ele>
        <time>2020-02-07T14:14:27Z</time>
      </trkpt>
      <trkpt lat="44.558" lon="4.61234">
        <ele>263.39999389648</ele>
        <time>2020-02-07T14:14:28Z</time>
      </trkpt>
      <trkpt lat="44.55801" lon="4.61236">
        <ele>263.60000610352</ele>
        <time>2020-02-07T14:14:29Z</time>
      </trkpt>
      <trkpt lat="44.55803" lon="4.61239">
        <ele>264</ele>
        <time>2020-02-07T14:14:30Z</time>
      </trkpt>
      <trkpt lat="44.55804" lon="4.61241">
        <ele>263.79998779297</ele>
        <time>2020-02-07T14:14:31Z</time>
      </trkpt>
      <trkpt lat="44.55806" lon="4.61242">
        <ele>264</ele>
        <time>2020-02-07T14:14:32Z</time>
      </trkpt>
      <trkpt lat="44.55807" lon="4.61244">
        <ele>264.20001220703</ele>
        <time>2020-02-07T14:14:33Z</time>
      </trkpt>
      <trkpt lat="44.55809" lon="4.61246">
        <ele>264.20001220703</ele>
        <time>2020-02-07T14:14:34Z</time>
      </trkpt>
      <trkpt lat="44.5581" lon="4.61248">
        <ele>264.39999389648</ele>
        <time>2020-02-07T14:14:35Z</time>
      </trkpt>
      <trkpt lat="44.55811" lon="4.6125">
        <ele>264.39999389648</ele>
        <time>2020-02-07T14:14:36Z</time>
      </trkpt>
      <trkpt lat="44.55812" lon="4.61251">
        <ele>264.60000610352</ele>
        <time>2020-02-07T14:14:37Z</time>
      </trkpt>
      <trkpt lat="44.55813" lon="4.61253">
        <ele>264.60000610352</ele>
        <time>2020-02-07T14:14:38Z</time>
      </trkpt>
      <trkpt lat="44.55815" lon="4.61255">
        <ele>264.79998779297</ele>
        <time>2020-02-07T14:14:39Z</time>
      </trkpt>
      <trkpt lat="44.55816" lon="4.61257">
        <ele>265</ele>
        <time>2020-02-07T14:14:40Z</time>
      </trkpt>
      <trkpt lat="44.5582" lon="4.61261">
        <ele>265.60000610352</ele>
        <time>2020-02-07T14:14:42Z</time>
      </trkpt>
      <trkpt lat="44.55821" lon="4.61264">
        <ele>265.60000610352</ele>
        <time>2020-02-07T14:14:43Z</time>
      </trkpt>
      <trkpt lat="44.55823" lon="4.61266">
        <ele>265.39999389648</ele>
        <time>2020-02-07T14:14:44Z</time>
      </trkpt>
      <trkpt lat="44.55824" lon="4.61267">
        <ele>265.60000610352</ele>
        <time>2020-02-07T14:14:45Z</time>
      </trkpt>
      <trkpt lat="44.55826" lon="4.61269">
        <ele>265.79998779297</ele>
        <time>2020-02-07T14:14:46Z</time>
      </trkpt>
      <trkpt lat="44.55828" lon="4.61271">
        <ele>266</ele>
        <time>2020-02-07T14:14:47Z</time>
      </trkpt>
      <trkpt lat="44.5583" lon="4.61272">
        <ele>266</ele>
        <time>2020-02-07T14:14:48Z</time>
      </trkpt>
      <trkpt lat="44.55832" lon="4.61274">
        <ele>266</ele>
        <time>2020-02-07T14:14:49Z</time>
      </trkpt>
      <trkpt lat="44.55835" lon="4.61278">
        <ele>266.39999389648</ele>
        <time>2020-02-07T14:14:51Z</time>
      </trkpt>
      <trkpt lat="44.55836" lon="4.61279">
        <ele>266.60000610352</ele>
        <time>2020-02-07T14:14:52Z</time>
      </trkpt>
      <trkpt lat="44.55837" lon="4.6128">
        <ele>267</ele>
        <time>2020-02-07T14:14:53Z</time>
      </trkpt>
      <trkpt lat="44.55838" lon="4.6128">
        <ele>267</ele>
        <time>2020-02-07T14:14:54Z</time>
      </trkpt>
      <trkpt lat="44.55839" lon="4.6128">
        <ele>267.20001220703</ele>
        <time>2020-02-07T14:14:55Z</time>
      </trkpt>
      <trkpt lat="44.5584" lon="4.61281">
        <ele>267.39999389648</ele>
        <time>2020-02-07T14:14:56Z</time>
      </trkpt>
      <trkpt lat="44.55841" lon="4.61282">
        <ele>267.20001220703</ele>
        <time>2020-02-07T14:14:57Z</time>
      </trkpt>
      <trkpt lat="44.55842" lon="4.61283">
        <ele>267.39999389648</ele>
        <time>2020-02-07T14:14:58Z</time>
      </trkpt>
      <trkpt lat="44.55843" lon="4.61285">
        <ele>267.20001220703</ele>
        <time>2020-02-07T14:14:59Z</time>
      </trkpt>
      <trkpt lat="44.55844" lon="4.61286">
        <ele>267.39999389648</ele>
        <time>2020-02-07T14:15:00Z</time>
      </trkpt>
      <trkpt lat="44.55845" lon="4.61288">
        <ele>267.39999389648</ele>
        <time>2020-02-07T14:15:01Z</time>
      </trkpt>
      <trkpt lat="44.55849" lon="4.61294">
        <ele>267.39999389648</ele>
        <time>2020-02-07T14:15:04Z</time>
      </trkpt>
      <trkpt lat="44.5585" lon="4.61295">
        <ele>267.39999389648</ele>
        <time>2020-02-07T14:15:05Z</time>
      </trkpt>
      <trkpt lat="44.55851" lon="4.61296">
        <ele>267.39999389648</ele>
        <time>2020-02-07T14:15:06Z</time>
      </trkpt>
      <trkpt lat="44.55853" lon="4.61298">
        <ele>267.60000610352</ele>
        <time>2020-02-07T14:15:07Z</time>
      </trkpt>
      <trkpt lat="44.55854" lon="4.613">
        <ele>267.60000610352</ele>
        <time>2020-02-07T14:15:08Z</time>
      </trkpt>
      <trkpt lat="44.55855" lon="4.61302">
        <ele>267.60000610352</ele>
        <time>2020-02-07T14:15:09Z</time>
      </trkpt>
      <trkpt lat="44.55857" lon="4.61305">
        <ele>267.60000610352</ele>
        <time>2020-02-07T14:15:10Z</time>
      </trkpt>
      <trkpt lat="44.55858" lon="4.61307">
        <ele>267.60000610352</ele>
        <time>2020-02-07T14:15:11Z</time>
      </trkpt>
      <trkpt lat="44.5586" lon="4.6131">
        <ele>267.79998779297</ele>
        <time>2020-02-07T14:15:12Z</time>
      </trkpt>
      <trkpt lat="44.55862" lon="4.61312">
        <ele>267.79998779297</ele>
        <time>2020-02-07T14:15:13Z</time>
      </trkpt>
      <trkpt lat="44.55864" lon="4.61315">
        <ele>267.79998779297</ele>
        <time>2020-02-07T14:15:14Z</time>
      </trkpt>
      <trkpt lat="44.55865" lon="4.61317">
        <ele>267.79998779297</ele>
        <time>2020-02-07T14:15:15Z</time>
      </trkpt>
      <trkpt lat="44.55866" lon="4.61319">
        <ele>268.20001220703</ele>
        <time>2020-02-07T14:15:16Z</time>
      </trkpt>
      <trkpt lat="44.55866" lon="4.61322">
        <ele>268.39999389648</ele>
        <time>2020-02-07T14:15:17Z</time>
      </trkpt>
      <trkpt lat="44.55866" lon="4.61324">
        <ele>268.39999389648</ele>
        <time>2020-02-07T14:15:18Z</time>
      </trkpt>
      <trkpt lat="44.55866" lon="4.61326">
        <ele>268.60000610352</ele>
        <time>2020-02-07T14:15:19Z</time>
      </trkpt>
      <trkpt lat="44.55868" lon="4.61328">
        <ele>268.60000610352</ele>
        <time>2020-02-07T14:15:20Z</time>
      </trkpt>
      <trkpt lat="44.55869" lon="4.61331">
        <ele>269</ele>
        <time>2020-02-07T14:15:21Z</time>
      </trkpt>
      <trkpt lat="44.55871" lon="4.61333">
        <ele>269.20001220703</ele>
        <time>2020-02-07T14:15:22Z</time>
      </trkpt>
      <trkpt lat="44.55873" lon="4.61335">
        <ele>269.39999389648</ele>
        <time>2020-02-07T14:15:23Z</time>
      </trkpt>
      <trkpt lat="44.55874" lon="4.61338">
        <ele>269.79998779297</ele>
        <time>2020-02-07T14:15:24Z</time>
      </trkpt>
      <trkpt lat="44.55876" lon="4.6134">
        <ele>270</ele>
        <time>2020-02-07T14:15:25Z</time>
      </trkpt>
      <trkpt lat="44.55877" lon="4.61343">
        <ele>270</ele>
        <time>2020-02-07T14:15:26Z</time>
      </trkpt>
      <trkpt lat="44.55879" lon="4.61345">
        <ele>270.20001220703</ele>
        <time>2020-02-07T14:15:27Z</time>
      </trkpt>
      <trkpt lat="44.55881" lon="4.61347">
        <ele>270.60000610352</ele>
        <time>2020-02-07T14:15:28Z</time>
      </trkpt>
      <trkpt lat="44.55882" lon="4.6135">
        <ele>270.39999389648</ele>
        <time>2020-02-07T14:15:29Z</time>
      </trkpt>
      <trkpt lat="44.55884" lon="4.61352">
        <ele>270.60000610352</ele>
        <time>2020-02-07T14:15:30Z</time>
      </trkpt>
      <trkpt lat="44.55885" lon="4.61354">
        <ele>270.60000610352</ele>
        <time>2020-02-07T14:15:31Z</time>
      </trkpt>
      <trkpt lat="44.55887" lon="4.61356">
        <ele>270.79998779297</ele>
        <time>2020-02-07T14:15:32Z</time>
      </trkpt>
      <trkpt lat="44.55888" lon="4.61359">
        <ele>271</ele>
        <time>2020-02-07T14:15:33Z</time>
      </trkpt>
      <trkpt lat="44.5589" lon="4.61361">
        <ele>271.20001220703</ele>
        <time>2020-02-07T14:15:34Z</time>
      </trkpt>
      <trkpt lat="44.55891" lon="4.61362">
        <ele>271.39999389648</ele>
        <time>2020-02-07T14:15:35Z</time>
      </trkpt>
      <trkpt lat="44.55892" lon="4.61364">
        <ele>271.60000610352</ele>
        <time>2020-02-07T14:15:36Z</time>
      </trkpt>
      <trkpt lat="44.55893" lon="4.61366">
        <ele>271.79998779297</ele>
        <time>2020-02-07T14:15:37Z</time>
      </trkpt>
      <trkpt lat="44.55894" lon="4.61368">
        <ele>271.79998779297</ele>
        <time>2020-02-07T14:15:38Z</time>
      </trkpt>
      <trkpt lat="44.55896" lon="4.6137">
        <ele>272</ele>
        <time>2020-02-07T14:15:39Z</time>
      </trkpt>
      <trkpt lat="44.55897" lon="4.61372">
        <ele>272</ele>
        <time>2020-02-07T14:15:40Z</time>
      </trkpt>
      <trkpt lat="44.55898" lon="4.61373">
        <ele>272.20001220703</ele>
        <time>2020-02-07T14:15:41Z</time>
      </trkpt>
      <trkpt lat="44.559" lon="4.61375">
        <ele>272.20001220703</ele>
        <time>2020-02-07T14:15:42Z</time>
      </trkpt>
      <trkpt lat="44.55901" lon="4.61377">
        <ele>272.39999389648</ele>
        <time>2020-02-07T14:15:43Z</time>
      </trkpt>
      <trkpt lat="44.55903" lon="4.6138">
        <ele>273</ele>
        <time>2020-02-07T14:15:44Z</time>
      </trkpt>
      <trkpt lat="44.55904" lon="4.61382">
        <ele>273</ele>
        <time>2020-02-07T14:15:45Z</time>
      </trkpt>
      <trkpt lat="44.55905" lon="4.61384">
        <ele>273.39999389648</ele>
        <time>2020-02-07T14:15:46Z</time>
      </trkpt>
      <trkpt lat="44.55906" lon="4.61386">
        <ele>273.39999389648</ele>
        <time>2020-02-07T14:15:47Z</time>
      </trkpt>
      <trkpt lat="44.55907" lon="4.61388">
        <ele>273.60000610352</ele>
        <time>2020-02-07T14:15:48Z</time>
      </trkpt>
      <trkpt lat="44.55908" lon="4.6139">
        <ele>273.79998779297</ele>
        <time>2020-02-07T14:15:49Z</time>
      </trkpt>
      <trkpt lat="44.55909" lon="4.61392">
        <ele>274</ele>
        <time>2020-02-07T14:15:50Z</time>
      </trkpt>
      <trkpt lat="44.5591" lon="4.61393">
        <ele>274.20001220703</ele>
        <time>2020-02-07T14:15:51Z</time>
      </trkpt>
      <trkpt lat="44.55912" lon="4.61395">
        <ele>274.20001220703</ele>
        <time>2020-02-07T14:15:52Z</time>
      </trkpt>
      <trkpt lat="44.55914" lon="4.61397">
        <ele>274.39999389648</ele>
        <time>2020-02-07T14:15:53Z</time>
      </trkpt>
      <trkpt lat="44.55915" lon="4.61399">
        <ele>274.39999389648</ele>
        <time>2020-02-07T14:15:54Z</time>
      </trkpt>
      <trkpt lat="44.55917" lon="4.61401">
        <ele>274.79998779297</ele>
        <time>2020-02-07T14:15:55Z</time>
      </trkpt>
      <trkpt lat="44.55918" lon="4.61403">
        <ele>275</ele>
        <time>2020-02-07T14:15:56Z</time>
      </trkpt>
      <trkpt lat="44.55919" lon="4.61405">
        <ele>275.20001220703</ele>
        <time>2020-02-07T14:15:57Z</time>
      </trkpt>
      <trkpt lat="44.55921" lon="4.61408">
        <ele>275.39999389648</ele>
        <time>2020-02-07T14:15:58Z</time>
      </trkpt>
      <trkpt lat="44.55922" lon="4.6141">
        <ele>275.39999389648</ele>
        <time>2020-02-07T14:15:59Z</time>
      </trkpt>
      <trkpt lat="44.55923" lon="4.61412">
        <ele>275.79998779297</ele>
        <time>2020-02-07T14:16:00Z</time>
      </trkpt>
      <trkpt lat="44.55924" lon="4.61415">
        <ele>275.79998779297</ele>
        <time>2020-02-07T14:16:01Z</time>
      </trkpt>
      <trkpt lat="44.55925" lon="4.61417">
        <ele>276</ele>
        <time>2020-02-07T14:16:02Z</time>
      </trkpt>
      <trkpt lat="44.55927" lon="4.61419">
        <ele>276.39999389648</ele>
        <time>2020-02-07T14:16:03Z</time>
      </trkpt>
      <trkpt lat="44.55928" lon="4.61421">
        <ele>276.39999389648</ele>
        <time>2020-02-07T14:16:04Z</time>
      </trkpt>
      <trkpt lat="44.5593" lon="4.61423">
        <ele>276.39999389648</ele>
        <time>2020-02-07T14:16:05Z</time>
      </trkpt>
      <trkpt lat="44.55931" lon="4.61425">
        <ele>276.39999389648</ele>
        <time>2020-02-07T14:16:06Z</time>
      </trkpt>
      <trkpt lat="44.55933" lon="4.61427">
        <ele>276.60000610352</ele>
        <time>2020-02-07T14:16:07Z</time>
      </trkpt>
      <trkpt lat="44.55934" lon="4.61429">
        <ele>277</ele>
        <time>2020-02-07T14:16:08Z</time>
      </trkpt>
      <trkpt lat="44.55936" lon="4.6143">
        <ele>277</ele>
        <time>2020-02-07T14:16:09Z</time>
      </trkpt>
      <trkpt lat="44.55937" lon="4.61431">
        <ele>277.20001220703</ele>
        <time>2020-02-07T14:16:10Z</time>
      </trkpt>
      <trkpt lat="44.55938" lon="4.61433">
        <ele>277.39999389648</ele>
        <time>2020-02-07T14:16:11Z</time>
      </trkpt>
      <trkpt lat="44.5594" lon="4.61435">
        <ele>277.39999389648</ele>
        <time>2020-02-07T14:16:12Z</time>
      </trkpt>
      <trkpt lat="44.55941" lon="4.61437">
        <ele>277.39999389648</ele>
        <time>2020-02-07T14:16:13Z</time>
      </trkpt>
      <trkpt lat="44.55942" lon="4.61439">
        <ele>277.60000610352</ele>
        <time>2020-02-07T14:16:14Z</time>
      </trkpt>
      <trkpt lat="44.55943" lon="4.61441">
        <ele>277.60000610352</ele>
        <time>2020-02-07T14:16:15Z</time>
      </trkpt>
      <trkpt lat="44.55944" lon="4.61443">
        <ele>277.79998779297</ele>
        <time>2020-02-07T14:16:16Z</time>
      </trkpt>
      <trkpt lat="44.55945" lon="4.61444">
        <ele>278</ele>
        <time>2020-02-07T14:16:17Z</time>
      </trkpt>
      <trkpt lat="44.55946" lon="4.61445">
        <ele>278.20001220703</ele>
        <time>2020-02-07T14:16:18Z</time>
      </trkpt>
      <trkpt lat="44.55947" lon="4.61447">
        <ele>278.60000610352</ele>
        <time>2020-02-07T14:16:19Z</time>
      </trkpt>
      <trkpt lat="44.55949" lon="4.61448">
        <ele>278.79998779297</ele>
        <time>2020-02-07T14:16:20Z</time>
      </trkpt>
      <trkpt lat="44.5595" lon="4.6145">
        <ele>279</ele>
        <time>2020-02-07T14:16:21Z</time>
      </trkpt>
      <trkpt lat="44.55951" lon="4.61452">
        <ele>279</ele>
        <time>2020-02-07T14:16:22Z</time>
      </trkpt>
      <trkpt lat="44.55953" lon="4.61454">
        <ele>279.20001220703</ele>
        <time>2020-02-07T14:16:23Z</time>
      </trkpt>
      <trkpt lat="44.55954" lon="4.61456">
        <ele>279.60000610352</ele>
        <time>2020-02-07T14:16:24Z</time>
      </trkpt>
      <trkpt lat="44.55955" lon="4.61459">
        <ele>279.79998779297</ele>
        <time>2020-02-07T14:16:25Z</time>
      </trkpt>
      <trkpt lat="44.55957" lon="4.61461">
        <ele>280</ele>
        <time>2020-02-07T14:16:26Z</time>
      </trkpt>
      <trkpt lat="44.55958" lon="4.61463">
        <ele>280</ele>
        <time>2020-02-07T14:16:27Z</time>
      </trkpt>
      <trkpt lat="44.5596" lon="4.61465">
        <ele>280.20001220703</ele>
        <time>2020-02-07T14:16:28Z</time>
      </trkpt>
      <trkpt lat="44.55961" lon="4.61467">
        <ele>280.39999389648</ele>
        <time>2020-02-07T14:16:29Z</time>
      </trkpt>
      <trkpt lat="44.55962" lon="4.61469">
        <ele>280.39999389648</ele>
        <time>2020-02-07T14:16:30Z</time>
      </trkpt>
      <trkpt lat="44.55963" lon="4.61471">
        <ele>280.39999389648</ele>
        <time>2020-02-07T14:16:31Z</time>
      </trkpt>
      <trkpt lat="44.55964" lon="4.61474">
        <ele>280.79998779297</ele>
        <time>2020-02-07T14:16:32Z</time>
      </trkpt>
      <trkpt lat="44.55965" lon="4.61476">
        <ele>280.79998779297</ele>
        <time>2020-02-07T14:16:33Z</time>
      </trkpt>
      <trkpt lat="44.55967" lon="4.61478">
        <ele>281.20001220703</ele>
        <time>2020-02-07T14:16:34Z</time>
      </trkpt>
      <trkpt lat="44.55968" lon="4.6148">
        <ele>281</ele>
        <time>2020-02-07T14:16:35Z</time>
      </trkpt>
      <trkpt lat="44.5597" lon="4.61482">
        <ele>281.39999389648</ele>
        <time>2020-02-07T14:16:36Z</time>
      </trkpt>
      <trkpt lat="44.55971" lon="4.61483">
        <ele>281.79998779297</ele>
        <time>2020-02-07T14:16:37Z</time>
      </trkpt>
      <trkpt lat="44.55972" lon="4.61485">
        <ele>282</ele>
        <time>2020-02-07T14:16:38Z</time>
      </trkpt>
      <trkpt lat="44.55974" lon="4.61487">
        <ele>282.20001220703</ele>
        <time>2020-02-07T14:16:39Z</time>
      </trkpt>
      <trkpt lat="44.55975" lon="4.61489">
        <ele>282.20001220703</ele>
        <time>2020-02-07T14:16:40Z</time>
      </trkpt>
      <trkpt lat="44.55976" lon="4.61491">
        <ele>282.39999389648</ele>
        <time>2020-02-07T14:16:41Z</time>
      </trkpt>
      <trkpt lat="44.55977" lon="4.61493">
        <ele>282.39999389648</ele>
        <time>2020-02-07T14:16:42Z</time>
      </trkpt>
      <trkpt lat="44.55978" lon="4.61495">
        <ele>282.60000610352</ele>
        <time>2020-02-07T14:16:43Z</time>
      </trkpt>
      <trkpt lat="44.55979" lon="4.61497">
        <ele>282.79998779297</ele>
        <time>2020-02-07T14:16:44Z</time>
      </trkpt>
      <trkpt lat="44.5598" lon="4.61499">
        <ele>282.79998779297</ele>
        <time>2020-02-07T14:16:45Z</time>
      </trkpt>
      <trkpt lat="44.55981" lon="4.61502">
        <ele>283</ele>
        <time>2020-02-07T14:16:46Z</time>
      </trkpt>
      <trkpt lat="44.55983" lon="4.61504">
        <ele>283.20001220703</ele>
        <time>2020-02-07T14:16:47Z</time>
      </trkpt>
      <trkpt lat="44.55984" lon="4.61505">
        <ele>283.39999389648</ele>
        <time>2020-02-07T14:16:48Z</time>
      </trkpt>
      <trkpt lat="44.55985" lon="4.61507">
        <ele>283.60000610352</ele>
        <time>2020-02-07T14:16:49Z</time>
      </trkpt>
      <trkpt lat="44.55987" lon="4.61508">
        <ele>283.60000610352</ele>
        <time>2020-02-07T14:16:50Z</time>
      </trkpt>
      <trkpt lat="44.55993" lon="4.61513">
        <ele>284.20001220703</ele>
        <time>2020-02-07T14:16:53Z</time>
      </trkpt>
      <trkpt lat="44.55997" lon="4.61516">
        <ele>284.60000610352</ele>
        <time>2020-02-07T14:16:55Z</time>
      </trkpt>
      <trkpt lat="44.55999" lon="4.61518">
        <ele>284.79998779297</ele>
        <time>2020-02-07T14:16:56Z</time>
      </trkpt>
      <trkpt lat="44.56" lon="4.6152">
        <ele>284.79998779297</ele>
        <time>2020-02-07T14:16:57Z</time>
      </trkpt>
      <trkpt lat="44.56002" lon="4.61522">
        <ele>284.79998779297</ele>
        <time>2020-02-07T14:16:58Z</time>
      </trkpt>
      <trkpt lat="44.56004" lon="4.61524">
        <ele>285</ele>
        <time>2020-02-07T14:16:59Z</time>
      </trkpt>
      <trkpt lat="44.56006" lon="4.61526">
        <ele>285</ele>
        <time>2020-02-07T14:17:00Z</time>
      </trkpt>
      <trkpt lat="44.56008" lon="4.61528">
        <ele>285.20001220703</ele>
        <time>2020-02-07T14:17:01Z</time>
      </trkpt>
      <trkpt lat="44.56009" lon="4.6153">
        <ele>285.20001220703</ele>
        <time>2020-02-07T14:17:02Z</time>
      </trkpt>
      <trkpt lat="44.56011" lon="4.61532">
        <ele>285.20001220703</ele>
        <time>2020-02-07T14:17:03Z</time>
      </trkpt>
      <trkpt lat="44.56013" lon="4.61534">
        <ele>285.39999389648</ele>
        <time>2020-02-07T14:17:04Z</time>
      </trkpt>
      <trkpt lat="44.56016" lon="4.61538">
        <ele>285.60000610352</ele>
        <time>2020-02-07T14:17:06Z</time>
      </trkpt>
      <trkpt lat="44.56018" lon="4.61541">
        <ele>285.79998779297</ele>
        <time>2020-02-07T14:17:07Z</time>
      </trkpt>
      <trkpt lat="44.56019" lon="4.61542">
        <ele>286</ele>
        <time>2020-02-07T14:17:08Z</time>
      </trkpt>
      <trkpt lat="44.56021" lon="4.61544">
        <ele>286.20001220703</ele>
        <time>2020-02-07T14:17:09Z</time>
      </trkpt>
      <trkpt lat="44.56022" lon="4.61546">
        <ele>286.39999389648</ele>
        <time>2020-02-07T14:17:10Z</time>
      </trkpt>
      <trkpt lat="44.56024" lon="4.61548">
        <ele>286.20001220703</ele>
        <time>2020-02-07T14:17:11Z</time>
      </trkpt>
      <trkpt lat="44.56025" lon="4.6155">
        <ele>286.60000610352</ele>
        <time>2020-02-07T14:17:12Z</time>
      </trkpt>
      <trkpt lat="44.56027" lon="4.61553">
        <ele>286.60000610352</ele>
        <time>2020-02-07T14:17:13Z</time>
      </trkpt>
      <trkpt lat="44.56029" lon="4.61555">
        <ele>286.60000610352</ele>
        <time>2020-02-07T14:17:14Z</time>
      </trkpt>
      <trkpt lat="44.56031" lon="4.61557">
        <ele>286.39999389648</ele>
        <time>2020-02-07T14:17:15Z</time>
      </trkpt>
      <trkpt lat="44.56033" lon="4.61559">
        <ele>286.79998779297</ele>
        <time>2020-02-07T14:17:16Z</time>
      </trkpt>
      <trkpt lat="44.56035" lon="4.61562">
        <ele>286.79998779297</ele>
        <time>2020-02-07T14:17:17Z</time>
      </trkpt>
      <trkpt lat="44.56036" lon="4.61564">
        <ele>287</ele>
        <time>2020-02-07T14:17:18Z</time>
      </trkpt>
      <trkpt lat="44.56038" lon="4.61567">
        <ele>287</ele>
        <time>2020-02-07T14:17:19Z</time>
      </trkpt>
      <trkpt lat="44.56039" lon="4.61569">
        <ele>287.39999389648</ele>
        <time>2020-02-07T14:17:20Z</time>
      </trkpt>
      <trkpt lat="44.56041" lon="4.61571">
        <ele>287.39999389648</ele>
        <time>2020-02-07T14:17:21Z</time>
      </trkpt>
      <trkpt lat="44.56043" lon="4.61572">
        <ele>287.60000610352</ele>
        <time>2020-02-07T14:17:22Z</time>
      </trkpt>
      <trkpt lat="44.56045" lon="4.61575">
        <ele>287.60000610352</ele>
        <time>2020-02-07T14:17:23Z</time>
      </trkpt>
      <trkpt lat="44.56046" lon="4.61577">
        <ele>287.79998779297</ele>
        <time>2020-02-07T14:17:24Z</time>
      </trkpt>
      <trkpt lat="44.56048" lon="4.61579">
        <ele>288.20001220703</ele>
        <time>2020-02-07T14:17:25Z</time>
      </trkpt>
      <trkpt lat="44.56049" lon="4.61581">
        <ele>288.20001220703</ele>
        <time>2020-02-07T14:17:26Z</time>
      </trkpt>
      <trkpt lat="44.56051" lon="4.61583">
        <ele>288</ele>
        <time>2020-02-07T14:17:27Z</time>
      </trkpt>
      <trkpt lat="44.56053" lon="4.61585">
        <ele>288.20001220703</ele>
        <time>2020-02-07T14:17:28Z</time>
      </trkpt>
      <trkpt lat="44.56054" lon="4.61587">
        <ele>288.60000610352</ele>
        <time>2020-02-07T14:17:29Z</time>
      </trkpt>
      <trkpt lat="44.56056" lon="4.61589">
        <ele>289</ele>
        <time>2020-02-07T14:17:30Z</time>
      </trkpt>
      <trkpt lat="44.56057" lon="4.61592">
        <ele>289</ele>
        <time>2020-02-07T14:17:31Z</time>
      </trkpt>
      <trkpt lat="44.56059" lon="4.61595">
        <ele>289</ele>
        <time>2020-02-07T14:17:32Z</time>
      </trkpt>
      <trkpt lat="44.5606" lon="4.61597">
        <ele>289.20001220703</ele>
        <time>2020-02-07T14:17:33Z</time>
      </trkpt>
      <trkpt lat="44.56062" lon="4.616">
        <ele>289.39999389648</ele>
        <time>2020-02-07T14:17:34Z</time>
      </trkpt>
      <trkpt lat="44.56063" lon="4.61602">
        <ele>289.60000610352</ele>
        <time>2020-02-07T14:17:35Z</time>
      </trkpt>
      <trkpt lat="44.56065" lon="4.61604">
        <ele>289.60000610352</ele>
        <time>2020-02-07T14:17:36Z</time>
      </trkpt>
      <trkpt lat="44.56066" lon="4.61606">
        <ele>289.60000610352</ele>
        <time>2020-02-07T14:17:37Z</time>
      </trkpt>
      <trkpt lat="44.56067" lon="4.61609">
        <ele>289.79998779297</ele>
        <time>2020-02-07T14:17:38Z</time>
      </trkpt>
      <trkpt lat="44.56068" lon="4.61611">
        <ele>290</ele>
        <time>2020-02-07T14:17:39Z</time>
      </trkpt>
      <trkpt lat="44.56069" lon="4.61613">
        <ele>290.20001220703</ele>
        <time>2020-02-07T14:17:40Z</time>
      </trkpt>
      <trkpt lat="44.56071" lon="4.61615">
        <ele>290.20001220703</ele>
        <time>2020-02-07T14:17:41Z</time>
      </trkpt>
      <trkpt lat="44.56072" lon="4.61618">
        <ele>290.39999389648</ele>
        <time>2020-02-07T14:17:42Z</time>
      </trkpt>
      <trkpt lat="44.56074" lon="4.6162">
        <ele>290.60000610352</ele>
        <time>2020-02-07T14:17:43Z</time>
      </trkpt>
      <trkpt lat="44.56076" lon="4.61623">
        <ele>290.79998779297</ele>
        <time>2020-02-07T14:17:44Z</time>
      </trkpt>
      <trkpt lat="44.56077" lon="4.61625">
        <ele>291</ele>
        <time>2020-02-07T14:17:45Z</time>
      </trkpt>
      <trkpt lat="44.56079" lon="4.61627">
        <ele>291.20001220703</ele>
        <time>2020-02-07T14:17:46Z</time>
      </trkpt>
      <trkpt lat="44.5608" lon="4.61629">
        <ele>291.20001220703</ele>
        <time>2020-02-07T14:17:47Z</time>
      </trkpt>
      <trkpt lat="44.56082" lon="4.61632">
        <ele>291.39999389648</ele>
        <time>2020-02-07T14:17:48Z</time>
      </trkpt>
      <trkpt lat="44.56083" lon="4.61635">
        <ele>291.39999389648</ele>
        <time>2020-02-07T14:17:49Z</time>
      </trkpt>
      <trkpt lat="44.56085" lon="4.61637">
        <ele>291.60000610352</ele>
        <time>2020-02-07T14:17:50Z</time>
      </trkpt>
      <trkpt lat="44.56086" lon="4.6164">
        <ele>291.79998779297</ele>
        <time>2020-02-07T14:17:51Z</time>
      </trkpt>
      <trkpt lat="44.56087" lon="4.61643">
        <ele>292</ele>
        <time>2020-02-07T14:17:52Z</time>
      </trkpt>
      <trkpt lat="44.56089" lon="4.61645">
        <ele>291.79998779297</ele>
        <time>2020-02-07T14:17:53Z</time>
      </trkpt>
      <trkpt lat="44.5609" lon="4.61648">
        <ele>292</ele>
        <time>2020-02-07T14:17:54Z</time>
      </trkpt>
      <trkpt lat="44.56092" lon="4.6165">
        <ele>292.20001220703</ele>
        <time>2020-02-07T14:17:55Z</time>
      </trkpt>
      <trkpt lat="44.56094" lon="4.61653">
        <ele>292.39999389648</ele>
        <time>2020-02-07T14:17:56Z</time>
      </trkpt>
      <trkpt lat="44.56095" lon="4.61655">
        <ele>292.60000610352</ele>
        <time>2020-02-07T14:17:57Z</time>
      </trkpt>
      <trkpt lat="44.56097" lon="4.61658">
        <ele>292.60000610352</ele>
        <time>2020-02-07T14:17:58Z</time>
      </trkpt>
      <trkpt lat="44.56098" lon="4.61661">
        <ele>292.79998779297</ele>
        <time>2020-02-07T14:17:59Z</time>
      </trkpt>
      <trkpt lat="44.56099" lon="4.61664">
        <ele>293</ele>
        <time>2020-02-07T14:18:00Z</time>
      </trkpt>
      <trkpt lat="44.56101" lon="4.61666">
        <ele>293.20001220703</ele>
        <time>2020-02-07T14:18:01Z</time>
      </trkpt>
      <trkpt lat="44.56103" lon="4.61669">
        <ele>293.60000610352</ele>
        <time>2020-02-07T14:18:02Z</time>
      </trkpt>
      <trkpt lat="44.56104" lon="4.61671">
        <ele>293.79998779297</ele>
        <time>2020-02-07T14:18:03Z</time>
      </trkpt>
      <trkpt lat="44.56106" lon="4.61674">
        <ele>294</ele>
        <time>2020-02-07T14:18:04Z</time>
      </trkpt>
      <trkpt lat="44.56107" lon="4.61676">
        <ele>294</ele>
        <time>2020-02-07T14:18:05Z</time>
      </trkpt>
      <trkpt lat="44.56109" lon="4.61679">
        <ele>294.20001220703</ele>
        <time>2020-02-07T14:18:06Z</time>
      </trkpt>
      <trkpt lat="44.5611" lon="4.61681">
        <ele>294.39999389648</ele>
        <time>2020-02-07T14:18:07Z</time>
      </trkpt>
      <trkpt lat="44.56113" lon="4.61687">
        <ele>294.79998779297</ele>
        <time>2020-02-07T14:18:09Z</time>
      </trkpt>
      <trkpt lat="44.56114" lon="4.61689">
        <ele>295</ele>
        <time>2020-02-07T14:18:10Z</time>
      </trkpt>
      <trkpt lat="44.56116" lon="4.61692">
        <ele>295.20001220703</ele>
        <time>2020-02-07T14:18:11Z</time>
      </trkpt>
      <trkpt lat="44.56117" lon="4.61695">
        <ele>295.20001220703</ele>
        <time>2020-02-07T14:18:12Z</time>
      </trkpt>
      <trkpt lat="44.56119" lon="4.61697">
        <ele>295.39999389648</ele>
        <time>2020-02-07T14:18:13Z</time>
      </trkpt>
      <trkpt lat="44.5612" lon="4.617">
        <ele>295.39999389648</ele>
        <time>2020-02-07T14:18:14Z</time>
      </trkpt>
      <trkpt lat="44.56124" lon="4.61706">
        <ele>295.39999389648</ele>
        <time>2020-02-07T14:18:16Z</time>
      </trkpt>
      <trkpt lat="44.56126" lon="4.61708">
        <ele>295.79998779297</ele>
        <time>2020-02-07T14:18:17Z</time>
      </trkpt>
      <trkpt lat="44.56127" lon="4.6171">
        <ele>296</ele>
        <time>2020-02-07T14:18:18Z</time>
      </trkpt>
      <trkpt lat="44.56129" lon="4.61713">
        <ele>296</ele>
        <time>2020-02-07T14:18:19Z</time>
      </trkpt>
      <trkpt lat="44.56131" lon="4.61715">
        <ele>296</ele>
        <time>2020-02-07T14:18:20Z</time>
      </trkpt>
      <trkpt lat="44.56133" lon="4.61717">
        <ele>296</ele>
        <time>2020-02-07T14:18:21Z</time>
      </trkpt>
      <trkpt lat="44.56134" lon="4.61719">
        <ele>296.20001220703</ele>
        <time>2020-02-07T14:18:22Z</time>
      </trkpt>
      <trkpt lat="44.56135" lon="4.6172">
        <ele>296.20001220703</ele>
        <time>2020-02-07T14:18:23Z</time>
      </trkpt>
      <trkpt lat="44.56137" lon="4.61722">
        <ele>296.39999389648</ele>
        <time>2020-02-07T14:18:24Z</time>
      </trkpt>
      <trkpt lat="44.56138" lon="4.61724">
        <ele>296.60000610352</ele>
        <time>2020-02-07T14:18:25Z</time>
      </trkpt>
      <trkpt lat="44.5614" lon="4.61727">
        <ele>296.60000610352</ele>
        <time>2020-02-07T14:18:26Z</time>
      </trkpt>
      <trkpt lat="44.56144" lon="4.61732">
        <ele>297.20001220703</ele>
        <time>2020-02-07T14:18:28Z</time>
      </trkpt>
      <trkpt lat="44.5615" lon="4.61741">
        <ele>297.60000610352</ele>
        <time>2020-02-07T14:18:31Z</time>
      </trkpt>
      <trkpt lat="44.56151" lon="4.61744">
        <ele>297.79998779297</ele>
        <time>2020-02-07T14:18:32Z</time>
      </trkpt>
      <trkpt lat="44.56153" lon="4.61747">
        <ele>298</ele>
        <time>2020-02-07T14:18:33Z</time>
      </trkpt>
      <trkpt lat="44.56154" lon="4.61749">
        <ele>298</ele>
        <time>2020-02-07T14:18:34Z</time>
      </trkpt>
      <trkpt lat="44.56156" lon="4.61752">
        <ele>298</ele>
        <time>2020-02-07T14:18:35Z</time>
      </trkpt>
      <trkpt lat="44.56157" lon="4.61754">
        <ele>298.20001220703</ele>
        <time>2020-02-07T14:18:36Z</time>
      </trkpt>
      <trkpt lat="44.56159" lon="4.61757">
        <ele>298.20001220703</ele>
        <time>2020-02-07T14:18:37Z</time>
      </trkpt>
      <trkpt lat="44.5616" lon="4.6176">
        <ele>298.20001220703</ele>
        <time>2020-02-07T14:18:38Z</time>
      </trkpt>
      <trkpt lat="44.56161" lon="4.61763">
        <ele>298.20001220703</ele>
        <time>2020-02-07T14:18:39Z</time>
      </trkpt>
      <trkpt lat="44.56162" lon="4.61766">
        <ele>298.20001220703</ele>
        <time>2020-02-07T14:18:40Z</time>
      </trkpt>
      <trkpt lat="44.56163" lon="4.61768">
        <ele>298.20001220703</ele>
        <time>2020-02-07T14:18:41Z</time>
      </trkpt>
      <trkpt lat="44.56164" lon="4.6177">
        <ele>298.39999389648</ele>
        <time>2020-02-07T14:18:42Z</time>
      </trkpt>
      <trkpt lat="44.56164" lon="4.61772">
        <ele>298.60000610352</ele>
        <time>2020-02-07T14:18:43Z</time>
      </trkpt>
      <trkpt lat="44.56166" lon="4.61774">
        <ele>298.60000610352</ele>
        <time>2020-02-07T14:18:44Z</time>
      </trkpt>
      <trkpt lat="44.56168" lon="4.61779">
        <ele>299</ele>
        <time>2020-02-07T14:18:46Z</time>
      </trkpt>
      <trkpt lat="44.56169" lon="4.61783">
        <ele>298.79998779297</ele>
        <time>2020-02-07T14:18:47Z</time>
      </trkpt>
      <trkpt lat="44.5617" lon="4.61786">
        <ele>299.20001220703</ele>
        <time>2020-02-07T14:18:48Z</time>
      </trkpt>
      <trkpt lat="44.5617" lon="4.61789">
        <ele>299.20001220703</ele>
        <time>2020-02-07T14:18:49Z</time>
      </trkpt>
      <trkpt lat="44.56171" lon="4.61792">
        <ele>299.39999389648</ele>
        <time>2020-02-07T14:18:50Z</time>
      </trkpt>
      <trkpt lat="44.56171" lon="4.61795">
        <ele>299.39999389648</ele>
        <time>2020-02-07T14:18:51Z</time>
      </trkpt>
      <trkpt lat="44.56172" lon="4.61798">
        <ele>299.39999389648</ele>
        <time>2020-02-07T14:18:52Z</time>
      </trkpt>
      <trkpt lat="44.56173" lon="4.61801">
        <ele>299.39999389648</ele>
        <time>2020-02-07T14:18:53Z</time>
      </trkpt>
      <trkpt lat="44.56174" lon="4.61808">
        <ele>299.79998779297</ele>
        <time>2020-02-07T14:18:55Z</time>
      </trkpt>
      <trkpt lat="44.56177" lon="4.6181">
        <ele>296.60000610352</ele>
        <time>2019-08-04T09:06:56Z</time>
      </trkpt>
      <trkpt lat="44.56179" lon="4.61816">
        <ele>296.79998779297</ele>
        <time>2019-08-04T09:06:58Z</time>
      </trkpt>
      <trkpt lat="44.56182" lon="4.61821">
        <ele>296.79998779297</ele>
        <time>2019-08-04T09:07:00Z</time>
      </trkpt>
      <trkpt lat="44.56183" lon="4.61823">
        <ele>296.79998779297</ele>
        <time>2019-08-04T09:07:02Z</time>
      </trkpt>
      <trkpt lat="44.56184" lon="4.61823">
        <ele>297</ele>
        <time>2019-08-04T09:07:04Z</time>
      </trkpt>
      <trkpt lat="44.56184" lon="4.61823">
        <ele>297.20001220703</ele>
        <time>2019-08-04T09:07:06Z</time>
      </trkpt>
      <trkpt lat="44.56184" lon="4.61823">
        <ele>297.20001220703</ele>
        <time>2019-08-04T09:07:08Z</time>
      </trkpt>
      <trkpt lat="44.56184" lon="4.61823">
        <ele>297.39999389648</ele>
        <time>2019-08-04T09:07:10Z</time>
      </trkpt>
      <trkpt lat="44.56184" lon="4.61823">
        <ele>297.60000610352</ele>
        <time>2019-08-04T09:07:12Z</time>
      </trkpt>
      <trkpt lat="44.56184" lon="4.61823">
        <ele>297.60000610352</ele>
        <time>2019-08-04T09:07:14Z</time>
      </trkpt>
      <trkpt lat="44.56184" lon="4.61823">
        <ele>297.60000610352</ele>
        <time>2019-08-04T09:07:16Z</time>
      </trkpt>
      <trkpt lat="44.56184" lon="4.61823">
        <ele>297.60000610352</ele>
        <time>2019-08-04T09:07:18Z</time>
      </trkpt>
      <trkpt lat="44.56184" lon="4.61823">
        <ele>297.60000610352</ele>
        <time>2019-08-04T09:07:19Z</time>
      </trkpt>
      <trkpt lat="44.56184" lon="4.61823">
        <ele>297.60000610352</ele>
        <time>2019-08-04T09:07:20Z</time>
      </trkpt>
      <trkpt lat="44.56184" lon="4.61823">
        <ele>297.60000610352</ele>
        <time>2019-08-04T09:07:22Z</time>
      </trkpt>
      <trkpt lat="44.56184" lon="4.61823">
        <ele>297.60000610352</ele>
        <time>2019-08-04T09:07:24Z</time>
      </trkpt>
      <trkpt lat="44.56184" lon="4.61823">
        <ele>297.60000610352</ele>
        <time>2019-08-04T09:07:26Z</time>
      </trkpt>
      <trkpt lat="44.56184" lon="4.61823">
        <ele>297.60000610352</ele>
        <time>2019-08-04T09:07:28Z</time>
      </trkpt>
      <trkpt lat="44.56185" lon="4.61824">
        <ele>297.60000610352</ele>
        <time>2019-08-04T09:07:30Z</time>
      </trkpt>
      <trkpt lat="44.56188" lon="4.61828">
        <ele>297.60000610352</ele>
        <time>2019-08-04T09:07:32Z</time>
      </trkpt>
      <trkpt lat="44.56191" lon="4.61833">
        <ele>297.60000610352</ele>
        <time>2019-08-04T09:07:34Z</time>
      </trkpt>
      <trkpt lat="44.56193" lon="4.61841">
        <ele>297.60000610352</ele>
        <time>2019-08-04T09:07:36Z</time>
      </trkpt>
      <trkpt lat="44.56196" lon="4.61848">
        <ele>297.60000610352</ele>
        <time>2019-08-04T09:07:38Z</time>
      </trkpt>
      <trkpt lat="44.56198" lon="4.61852">
        <ele>297.79998779297</ele>
        <time>2019-08-04T09:07:39Z</time>
      </trkpt>
      <trkpt lat="44.56199" lon="4.61856">
        <ele>297.79998779297</ele>
        <time>2019-08-04T09:07:40Z</time>
      </trkpt>
      <trkpt lat="44.56201" lon="4.61863">
        <ele>298</ele>
        <time>2019-08-04T09:07:42Z</time>
      </trkpt>
      <trkpt lat="44.56203" lon="4.61871">
        <ele>298</ele>
        <time>2019-08-04T09:07:44Z</time>
      </trkpt>
      <trkpt lat="44.56205" lon="4.61879">
        <ele>298.20001220703</ele>
        <time>2019-08-04T09:07:46Z</time>
      </trkpt>
      <trkpt lat="44.56207" lon="4.61882">
        <ele>298.39999389648</ele>
        <time>2019-08-04T09:07:47Z</time>
      </trkpt>
      <trkpt lat="44.56208" lon="4.61884">
        <ele>298.60000610352</ele>
        <time>2019-08-04T09:07:48Z</time>
      </trkpt>
      <trkpt lat="44.5621" lon="4.61886">
        <ele>298.79998779297</ele>
        <time>2019-08-04T09:07:49Z</time>
      </trkpt>
      <trkpt lat="44.56212" lon="4.61888">
        <ele>298.79998779297</ele>
        <time>2019-08-04T09:07:50Z</time>
      </trkpt>
      <trkpt lat="44.56215" lon="4.6189">
        <ele>299.20001220703</ele>
        <time>2019-08-04T09:07:52Z</time>
      </trkpt>
      <trkpt lat="44.56216" lon="4.61892">
        <ele>299.39999389648</ele>
        <time>2019-08-04T09:07:53Z</time>
      </trkpt>
      <trkpt lat="44.56218" lon="4.61893">
        <ele>299.60000610352</ele>
        <time>2019-08-04T09:07:54Z</time>
      </trkpt>
      <trkpt lat="44.56221" lon="4.61896">
        <ele>299.79998779297</ele>
        <time>2019-08-04T09:07:56Z</time>
      </trkpt>
      <trkpt lat="44.56224" lon="4.61899">
        <ele>300</ele>
        <time>2019-08-04T09:07:58Z</time>
      </trkpt>
      <trkpt lat="44.56227" lon="4.61902">
        <ele>300.39999389648</ele>
        <time>2019-08-04T09:08:00Z</time>
      </trkpt>
      <trkpt lat="44.56228" lon="4.61903">
        <ele>300.79998779297</ele>
        <time>2019-08-04T09:08:01Z</time>
      </trkpt>
      <trkpt lat="44.56229" lon="4.61904">
        <ele>301</ele>
        <time>2019-08-04T09:08:02Z</time>
      </trkpt>
      <trkpt lat="44.56231" lon="4.61907">
        <ele>301.20001220703</ele>
        <time>2019-08-04T09:08:04Z</time>
      </trkpt>
      <trkpt lat="44.56233" lon="4.61911">
        <ele>301.79998779297</ele>
        <time>2019-08-04T09:08:06Z</time>
      </trkpt>
      <trkpt lat="44.56234" lon="4.61913">
        <ele>301.79998779297</ele>
        <time>2019-08-04T09:08:07Z</time>
      </trkpt>
      <trkpt lat="44.56234" lon="4.61914">
        <ele>302</ele>
        <time>2019-08-04T09:08:08Z</time>
      </trkpt>
      <trkpt lat="44.56236" lon="4.61917">
        <ele>302.20001220703</ele>
        <time>2019-08-04T09:08:10Z</time>
      </trkpt>
      <trkpt lat="44.56239" lon="4.61921">
        <ele>302.79998779297</ele>
        <time>2019-08-04T09:08:12Z</time>
      </trkpt>
      <trkpt lat="44.5624" lon="4.61924">
        <ele>303</ele>
        <time>2019-08-04T09:08:13Z</time>
      </trkpt>
      <trkpt lat="44.56241" lon="4.61927">
        <ele>303.39999389648</ele>
        <time>2019-08-04T09:08:14Z</time>
      </trkpt>
      <trkpt lat="44.56243" lon="4.61932">
        <ele>303.79998779297</ele>
        <time>2019-08-04T09:08:16Z</time>
      </trkpt>
      <trkpt lat="44.56245" lon="4.61936">
        <ele>304</ele>
        <time>2019-08-04T09:08:18Z</time>
      </trkpt>
      <trkpt lat="44.56246" lon="4.61938">
        <ele>304.20001220703</ele>
        <time>2019-08-04T09:08:19Z</time>
      </trkpt>
      <trkpt lat="44.56248" lon="4.6194">
        <ele>304.20001220703</ele>
        <time>2019-08-04T09:08:20Z</time>
      </trkpt>
      <trkpt lat="44.5625" lon="4.61944">
        <ele>304.39999389648</ele>
        <time>2019-08-04T09:08:22Z</time>
      </trkpt>
      <trkpt lat="44.56253" lon="4.61947">
        <ele>304.79998779297</ele>
        <time>2019-08-04T09:08:24Z</time>
      </trkpt>
      <trkpt lat="44.56255" lon="4.6195">
        <ele>305.20001220703</ele>
        <time>2019-08-04T09:08:26Z</time>
      </trkpt>
      <trkpt lat="44.56258" lon="4.61954">
        <ele>305.60000610352</ele>
        <time>2019-08-04T09:08:28Z</time>
      </trkpt>
      <trkpt lat="44.56261" lon="4.61958">
        <ele>306.20001220703</ele>
        <time>2019-08-04T09:08:30Z</time>
      </trkpt>
      <trkpt lat="44.56264" lon="4.61962">
        <ele>306.79998779297</ele>
        <time>2019-08-04T09:08:32Z</time>
      </trkpt>
      <trkpt lat="44.56265" lon="4.61965">
        <ele>307.20001220703</ele>
        <time>2019-08-04T09:08:33Z</time>
      </trkpt>
      <trkpt lat="44.56267" lon="4.61968">
        <ele>307.39999389648</ele>
        <time>2019-08-04T09:08:34Z</time>
      </trkpt>
      <trkpt lat="44.5627" lon="4.61972">
        <ele>307.60000610352</ele>
        <time>2019-08-04T09:08:36Z</time>
      </trkpt>
      <trkpt lat="44.56273" lon="4.61977">
        <ele>307.79998779297</ele>
        <time>2019-08-04T09:08:38Z</time>
      </trkpt>
      <trkpt lat="44.56274" lon="4.61979">
        <ele>307.79998779297</ele>
        <time>2019-08-04T09:08:39Z</time>
      </trkpt>
      <trkpt lat="44.56275" lon="4.61982">
        <ele>307.79998779297</ele>
        <time>2019-08-04T09:08:40Z</time>
      </trkpt>
      <trkpt lat="44.56277" lon="4.61987">
        <ele>308.20001220703</ele>
        <time>2019-08-04T09:08:42Z</time>
      </trkpt>
      <trkpt lat="44.56279" lon="4.61991">
        <ele>309</ele>
        <time>2019-08-04T09:08:44Z</time>
      </trkpt>
      <trkpt lat="44.56282" lon="4.61996">
        <ele>309.39999389648</ele>
        <time>2019-08-04T09:08:46Z</time>
      </trkpt>
      <trkpt lat="44.56284" lon="4.61999">
        <ele>309.60000610352</ele>
        <time>2019-08-04T09:08:48Z</time>
      </trkpt>
      <trkpt lat="44.56284" lon="4.62001">
        <ele>310</ele>
        <time>2019-08-04T09:08:50Z</time>
      </trkpt>
      <trkpt lat="44.56285" lon="4.62001">
        <ele>310.39999389648</ele>
        <time>2019-08-04T09:08:52Z</time>
      </trkpt>
      <trkpt lat="44.56285" lon="4.62001">
        <ele>311</ele>
        <time>2019-08-04T09:08:54Z</time>
      </trkpt>
      <trkpt lat="44.56285" lon="4.62002">
        <ele>311.39999389648</ele>
        <time>2019-08-04T09:08:55Z</time>
      </trkpt>
      <trkpt lat="44.56285" lon="4.62003">
        <ele>311.60000610352</ele>
        <time>2019-08-04T09:08:56Z</time>
      </trkpt>
      <trkpt lat="44.56286" lon="4.62005">
        <ele>312.39999389648</ele>
        <time>2019-08-04T09:08:58Z</time>
      </trkpt>
      <trkpt lat="44.56286" lon="4.62006">
        <ele>312.60000610352</ele>
        <time>2019-08-04T09:08:59Z</time>
      </trkpt>
      <trkpt lat="44.56286" lon="4.62007">
        <ele>312.79998779297</ele>
        <time>2019-08-04T09:09:00Z</time>
      </trkpt>
      <trkpt lat="44.56287" lon="4.62008">
        <ele>313</ele>
        <time>2019-08-04T09:09:02Z</time>
      </trkpt>
      <trkpt lat="44.56288" lon="4.62011">
        <ele>313</ele>
        <time>2019-08-04T09:09:04Z</time>
      </trkpt>
      <trkpt lat="44.56289" lon="4.62015">
        <ele>313</ele>
        <time>2019-08-04T09:09:06Z</time>
      </trkpt>
      <trkpt lat="44.56291" lon="4.6202">
        <ele>313.20001220703</ele>
        <time>2019-08-04T09:09:08Z</time>
      </trkpt>
      <trkpt lat="44.56293" lon="4.62025">
        <ele>313.39999389648</ele>
        <time>2019-08-04T09:09:10Z</time>
      </trkpt>
      <trkpt lat="44.56294" lon="4.62031">
        <ele>313.60000610352</ele>
        <time>2019-08-04T09:09:12Z</time>
      </trkpt>
      <trkpt lat="44.56295" lon="4.62033">
        <ele>313.79998779297</ele>
        <time>2019-08-04T09:09:13Z</time>
      </trkpt>
      <trkpt lat="44.56296" lon="4.62036">
        <ele>314</ele>
        <time>2019-08-04T09:09:14Z</time>
      </trkpt>
      <trkpt lat="44.56298" lon="4.62041">
        <ele>314.20001220703</ele>
        <time>2019-08-04T09:09:16Z</time>
      </trkpt>
      <trkpt lat="44.563" lon="4.62043">
        <ele>314.39999389648</ele>
        <time>2019-08-04T09:09:17Z</time>
      </trkpt>
      <trkpt lat="44.56301" lon="4.62046">
        <ele>314.79998779297</ele>
        <time>2019-08-04T09:09:18Z</time>
      </trkpt>
      <trkpt lat="44.56303" lon="4.6205">
        <ele>315.20001220703</ele>
        <time>2019-08-04T09:09:20Z</time>
      </trkpt>
      <trkpt lat="44.56305" lon="4.62055">
        <ele>316</ele>
        <time>2019-08-04T09:09:22Z</time>
      </trkpt>
      <trkpt lat="44.56305" lon="4.62058">
        <ele>316.39999389648</ele>
        <time>2019-08-04T09:09:23Z</time>
      </trkpt>
      <trkpt lat="44.56305" lon="4.62061">
        <ele>316.39999389648</ele>
        <time>2019-08-04T09:09:24Z</time>
      </trkpt>
      <trkpt lat="44.56305" lon="4.62067">
        <ele>317</ele>
        <time>2019-08-04T09:09:26Z</time>
      </trkpt>
      <trkpt lat="44.56305" lon="4.62069">
        <ele>317</ele>
        <time>2019-08-04T09:09:27Z</time>
      </trkpt>
      <trkpt lat="44.56305" lon="4.62072">
        <ele>317</ele>
        <time>2019-08-04T09:09:28Z</time>
      </trkpt>
      <trkpt lat="44.56306" lon="4.62078">
        <ele>317.39999389648</ele>
        <time>2019-08-04T09:09:30Z</time>
      </trkpt>
      <trkpt lat="44.56308" lon="4.62082">
        <ele>318.20001220703</ele>
        <time>2019-08-04T09:09:32Z</time>
      </trkpt>
      <trkpt lat="44.56309" lon="4.62084">
        <ele>318.39999389648</ele>
        <time>2019-08-04T09:09:33Z</time>
      </trkpt>
      <trkpt lat="44.56311" lon="4.62086">
        <ele>318.79998779297</ele>
        <time>2019-08-04T09:09:34Z</time>
      </trkpt>
      <trkpt lat="44.56312" lon="4.62088">
        <ele>319</ele>
        <time>2019-08-04T09:09:35Z</time>
      </trkpt>
      <trkpt lat="44.56314" lon="4.62089">
        <ele>319.60000610352</ele>
        <time>2019-08-04T09:09:36Z</time>
      </trkpt>
      <trkpt lat="44.56316" lon="4.62092">
        <ele>320.20001220703</ele>
        <time>2019-08-04T09:09:38Z</time>
      </trkpt>
      <trkpt lat="44.56319" lon="4.62094">
        <ele>320.79998779297</ele>
        <time>2019-08-04T09:09:40Z</time>
      </trkpt>
      <trkpt lat="44.56321" lon="4.62096">
        <ele>321</ele>
        <time>2019-08-04T09:09:41Z</time>
      </trkpt>
      <trkpt lat="44.56323" lon="4.62097">
        <ele>321</ele>
        <time>2019-08-04T09:09:42Z</time>
      </trkpt>
      <trkpt lat="44.56326" lon="4.62099">
        <ele>321.79998779297</ele>
        <time>2019-08-04T09:09:44Z</time>
      </trkpt>
      <trkpt lat="44.56327" lon="4.62101">
        <ele>322.20001220703</ele>
        <time>2019-08-04T09:09:45Z</time>
      </trkpt>
      <trkpt lat="44.56328" lon="4.62102">
        <ele>322.39999389648</ele>
        <time>2019-08-04T09:09:46Z</time>
      </trkpt>
      <trkpt lat="44.56331" lon="4.62103">
        <ele>322.60000610352</ele>
        <time>2019-08-04T09:09:48Z</time>
      </trkpt>
      <trkpt lat="44.56333" lon="4.62106">
        <ele>322.79998779297</ele>
        <time>2019-08-04T09:09:50Z</time>
      </trkpt>
      <trkpt lat="44.56335" lon="4.62107">
        <ele>323</ele>
        <time>2019-08-04T09:09:51Z</time>
      </trkpt>
      <trkpt lat="44.56336" lon="4.62108">
        <ele>323.20001220703</ele>
        <time>2019-08-04T09:09:52Z</time>
      </trkpt>
      <trkpt lat="44.56339" lon="4.62111">
        <ele>323.79998779297</ele>
        <time>2019-08-04T09:09:54Z</time>
      </trkpt>
      <trkpt lat="44.56342" lon="4.62112">
        <ele>324</ele>
        <time>2019-08-04T09:09:56Z</time>
      </trkpt>
      <trkpt lat="44.56344" lon="4.62114">
        <ele>324.60000610352</ele>
        <time>2019-08-04T09:09:58Z</time>
      </trkpt>
      <trkpt lat="44.56347" lon="4.62116">
        <ele>324.79998779297</ele>
        <time>2019-08-04T09:10:00Z</time>
      </trkpt>
      <trkpt lat="44.56349" lon="4.62117">
        <ele>325</ele>
        <time>2019-08-04T09:10:01Z</time>
      </trkpt>
      <trkpt lat="44.5635" lon="4.62118">
        <ele>325.20001220703</ele>
        <time>2019-08-04T09:10:02Z</time>
      </trkpt>
      <trkpt lat="44.56353" lon="4.62119">
        <ele>325.39999389648</ele>
        <time>2019-08-04T09:10:04Z</time>
      </trkpt>
      <trkpt lat="44.56356" lon="4.6212">
        <ele>326</ele>
        <time>2019-08-04T09:10:06Z</time>
      </trkpt>
      <trkpt lat="44.56357" lon="4.62121">
        <ele>326.39999389648</ele>
        <time>2019-08-04T09:10:07Z</time>
      </trkpt>
      <trkpt lat="44.56359" lon="4.62121">
        <ele>326.60000610352</ele>
        <time>2019-08-04T09:10:08Z</time>
      </trkpt>
      <trkpt lat="44.56361" lon="4.62124">
        <ele>327</ele>
        <time>2019-08-04T09:10:10Z</time>
      </trkpt>
      <trkpt lat="44.56363" lon="4.62126">
        <ele>327.20001220703</ele>
        <time>2019-08-04T09:10:12Z</time>
      </trkpt>
      <trkpt lat="44.56364" lon="4.62126">
        <ele>327.20001220703</ele>
        <time>2019-08-04T09:10:13Z</time>
      </trkpt>
      <trkpt lat="44.56365" lon="4.62127">
        <ele>327.39999389648</ele>
        <time>2019-08-04T09:10:14Z</time>
      </trkpt>
      <trkpt lat="44.56367" lon="4.6213">
        <ele>328.20001220703</ele>
        <time>2019-08-04T09:10:16Z</time>
      </trkpt>
      <trkpt lat="44.5637" lon="4.62133">
        <ele>328.39999389648</ele>
        <time>2019-08-04T09:10:18Z</time>
      </trkpt>
      <trkpt lat="44.5637" lon="4.62134">
        <ele>328.60000610352</ele>
        <time>2019-08-04T09:10:19Z</time>
      </trkpt>
      <trkpt lat="44.56371" lon="4.62136">
        <ele>328.60000610352</ele>
        <time>2019-08-04T09:10:20Z</time>
      </trkpt>
      <trkpt lat="44.56373" lon="4.6214">
        <ele>329.20001220703</ele>
        <time>2019-08-04T09:10:22Z</time>
      </trkpt>
      <trkpt lat="44.56374" lon="4.62144">
        <ele>329.79998779297</ele>
        <time>2019-08-04T09:10:24Z</time>
      </trkpt>
      <trkpt lat="44.56375" lon="4.62148">
        <ele>330.20001220703</ele>
        <time>2019-08-04T09:10:26Z</time>
      </trkpt>
      <trkpt lat="44.56376" lon="4.62152">
        <ele>330.60000610352</ele>
        <time>2019-08-04T09:10:28Z</time>
      </trkpt>
      <trkpt lat="44.56378" lon="4.62156">
        <ele>331.39999389648</ele>
        <time>2019-08-04T09:10:30Z</time>
      </trkpt>
      <trkpt lat="44.56379" lon="4.6216">
        <ele>331.79998779297</ele>
        <time>2019-08-04T09:10:32Z</time>
      </trkpt>
      <trkpt lat="44.5638" lon="4.62165">
        <ele>332</ele>
        <time>2019-08-04T09:10:34Z</time>
      </trkpt>
      <trkpt lat="44.56381" lon="4.62169">
        <ele>332.60000610352</ele>
        <time>2019-08-04T09:10:36Z</time>
      </trkpt>
      <trkpt lat="44.56382" lon="4.62173">
        <ele>333</ele>
        <time>2019-08-04T09:10:38Z</time>
      </trkpt>
      <trkpt lat="44.56382" lon="4.62175">
        <ele>333.20001220703</ele>
        <time>2019-08-04T09:10:39Z</time>
      </trkpt>
      <trkpt lat="44.56383" lon="4.62176">
        <ele>333.60000610352</ele>
        <time>2019-08-04T09:10:40Z</time>
      </trkpt>
      <trkpt lat="44.56384" lon="4.62178">
        <ele>334.20001220703</ele>
        <time>2019-08-04T09:10:42Z</time>
      </trkpt>
      <trkpt lat="44.56386" lon="4.62181">
        <ele>334.39999389648</ele>
        <time>2019-08-04T09:10:44Z</time>
      </trkpt>
      <trkpt lat="44.56386" lon="4.62183">
        <ele>334.79998779297</ele>
        <time>2019-08-04T09:10:45Z</time>
      </trkpt>
      <trkpt lat="44.56387" lon="4.62184">
        <ele>335</ele>
        <time>2019-08-04T09:10:46Z</time>
      </trkpt>
      <trkpt lat="44.56388" lon="4.62186">
        <ele>335.20001220703</ele>
        <time>2019-08-04T09:10:47Z</time>
      </trkpt>
      <trkpt lat="44.56388" lon="4.62187">
        <ele>335.39999389648</ele>
        <time>2019-08-04T09:10:48Z</time>
      </trkpt>
      <trkpt lat="44.5639" lon="4.6219">
        <ele>335.79998779297</ele>
        <time>2019-08-04T09:10:50Z</time>
      </trkpt>
      <trkpt lat="44.56391" lon="4.62192">
        <ele>336</ele>
        <time>2019-08-04T09:10:51Z</time>
      </trkpt>
      <trkpt lat="44.56392" lon="4.62193">
        <ele>336</ele>
        <time>2019-08-04T09:10:52Z</time>
      </trkpt>
      <trkpt lat="44.56393" lon="4.62195">
        <ele>336.39999389648</ele>
        <time>2019-08-04T09:10:53Z</time>
      </trkpt>
      <trkpt lat="44.56394" lon="4.62196">
        <ele>336.39999389648</ele>
        <time>2019-08-04T09:10:54Z</time>
      </trkpt>
      <trkpt lat="44.56395" lon="4.62198">
        <ele>336.60000610352</ele>
        <time>2019-08-04T09:10:55Z</time>
      </trkpt>
      <trkpt lat="44.56396" lon="4.62199">
        <ele>336.79998779297</ele>
        <time>2019-08-04T09:10:56Z</time>
      </trkpt>
      <trkpt lat="44.56396" lon="4.62201">
        <ele>337.20001220703</ele>
        <time>2019-08-04T09:10:57Z</time>
      </trkpt>
      <trkpt lat="44.56397" lon="4.62203">
        <ele>337.60000610352</ele>
        <time>2019-08-04T09:10:58Z</time>
      </trkpt>
      <trkpt lat="44.56399" lon="4.62206">
        <ele>337.79998779297</ele>
        <time>2019-08-04T09:11:00Z</time>
      </trkpt>
      <trkpt lat="44.56399" lon="4.62208">
        <ele>338</ele>
        <time>2019-08-04T09:11:01Z</time>
      </trkpt>
      <trkpt lat="44.564" lon="4.6221">
        <ele>338.20001220703</ele>
        <time>2019-08-04T09:11:02Z</time>
      </trkpt>
      <trkpt lat="44.56401" lon="4.62214">
        <ele>338.79998779297</ele>
        <time>2019-08-04T09:11:04Z</time>
      </trkpt>
      <trkpt lat="44.56402" lon="4.62217">
        <ele>339.39999389648</ele>
        <time>2019-08-04T09:11:06Z</time>
      </trkpt>
      <trkpt lat="44.56404" lon="4.62222">
        <ele>339.79998779297</ele>
        <time>2019-08-04T09:11:08Z</time>
      </trkpt>
      <trkpt lat="44.56405" lon="4.62224">
        <ele>340</ele>
        <time>2019-08-04T09:11:09Z</time>
      </trkpt>
      <trkpt lat="44.56405" lon="4.62227">
        <ele>340.20001220703</ele>
        <time>2019-08-04T09:11:10Z</time>
      </trkpt>
      <trkpt lat="44.56407" lon="4.62232">
        <ele>340.60000610352</ele>
        <time>2019-08-04T09:11:12Z</time>
      </trkpt>
      <trkpt lat="44.56409" lon="4.62236">
        <ele>341</ele>
        <time>2019-08-04T09:11:14Z</time>
      </trkpt>
      <trkpt lat="44.56411" lon="4.6224">
        <ele>341.20001220703</ele>
        <time>2019-08-04T09:11:16Z</time>
      </trkpt>
      <trkpt lat="44.56413" lon="4.62242">
        <ele>341.79998779297</ele>
        <time>2019-08-04T09:11:18Z</time>
      </trkpt>
      <trkpt lat="44.56415" lon="4.62244">
        <ele>342.20001220703</ele>
        <time>2019-08-04T09:11:20Z</time>
      </trkpt>
      <trkpt lat="44.56418" lon="4.62244">
        <ele>342.79998779297</ele>
        <time>2019-08-04T09:11:22Z</time>
      </trkpt>
      <trkpt lat="44.56421" lon="4.62245">
        <ele>343.20001220703</ele>
        <time>2019-08-04T09:11:24Z</time>
      </trkpt>
      <trkpt lat="44.56426" lon="4.62247">
        <ele>343.60000610352</ele>
        <time>2019-08-04T09:11:26Z</time>
      </trkpt>
      <trkpt lat="44.56427" lon="4.62248">
        <ele>343.60000610352</ele>
        <time>2019-08-04T09:11:27Z</time>
      </trkpt>
      <trkpt lat="44.56429" lon="4.62248">
        <ele>343.79998779297</ele>
        <time>2019-08-04T09:11:28Z</time>
      </trkpt>
      <trkpt lat="44.56432" lon="4.62249">
        <ele>344.20001220703</ele>
        <time>2019-08-04T09:11:30Z</time>
      </trkpt>
      <trkpt lat="44.56433" lon="4.62249">
        <ele>344.39999389648</ele>
        <time>2019-08-04T09:11:31Z</time>
      </trkpt>
      <trkpt lat="44.56435" lon="4.6225">
        <ele>344.79998779297</ele>
        <time>2019-08-04T09:11:32Z</time>
      </trkpt>
      <trkpt lat="44.56436" lon="4.6225">
        <ele>344.79998779297</ele>
        <time>2019-08-04T09:11:33Z</time>
      </trkpt>
      <trkpt lat="44.56438" lon="4.6225">
        <ele>345</ele>
        <time>2019-08-04T09:11:34Z</time>
      </trkpt>
      <trkpt lat="44.56442" lon="4.62251">
        <ele>345</ele>
        <time>2019-08-04T09:11:36Z</time>
      </trkpt>
      <trkpt lat="44.56445" lon="4.62253">
        <ele>345</ele>
        <time>2019-08-04T09:11:38Z</time>
      </trkpt>
      <trkpt lat="44.56446" lon="4.62254">
        <ele>345.60000610352</ele>
        <time>2019-08-04T09:11:39Z</time>
      </trkpt>
      <trkpt lat="44.56447" lon="4.62256">
        <ele>345.79998779297</ele>
        <time>2019-08-04T09:11:40Z</time>
      </trkpt>
      <trkpt lat="44.56449" lon="4.62259">
        <ele>346.20001220703</ele>
        <time>2019-08-04T09:11:42Z</time>
      </trkpt>
      <trkpt lat="44.5645" lon="4.62261">
        <ele>346.39999389648</ele>
        <time>2019-08-04T09:11:43Z</time>
      </trkpt>
      <trkpt lat="44.56451" lon="4.62263">
        <ele>346.60000610352</ele>
        <time>2019-08-04T09:11:44Z</time>
      </trkpt>
      <trkpt lat="44.56452" lon="4.62268">
        <ele>347</ele>
        <time>2019-08-04T09:11:46Z</time>
      </trkpt>
      <trkpt lat="44.56453" lon="4.62271">
        <ele>347.20001220703</ele>
        <time>2019-08-04T09:11:47Z</time>
      </trkpt>
      <trkpt lat="44.56454" lon="4.62273">
        <ele>347.39999389648</ele>
        <time>2019-08-04T09:11:48Z</time>
      </trkpt>
      <trkpt lat="44.56456" lon="4.62278">
        <ele>347.60000610352</ele>
        <time>2019-08-04T09:11:50Z</time>
      </trkpt>
      <trkpt lat="44.56457" lon="4.62282">
        <ele>348.20001220703</ele>
        <time>2019-08-04T09:11:52Z</time>
      </trkpt>
      <trkpt lat="44.56459" lon="4.62285">
        <ele>349</ele>
        <time>2019-08-04T09:11:54Z</time>
      </trkpt>
      <trkpt lat="44.5646" lon="4.62287">
        <ele>349.20001220703</ele>
        <time>2019-08-04T09:11:55Z</time>
      </trkpt>
      <trkpt lat="44.56462" lon="4.62287">
        <ele>349.20001220703</ele>
        <time>2019-08-04T09:11:56Z</time>
      </trkpt>
      <trkpt lat="44.56464" lon="4.62289">
        <ele>349.60000610352</ele>
        <time>2019-08-04T09:11:58Z</time>
      </trkpt>
      <trkpt lat="44.56466" lon="4.6229">
        <ele>349.79998779297</ele>
        <time>2019-08-04T09:11:59Z</time>
      </trkpt>
      <trkpt lat="44.56467" lon="4.62291">
        <ele>350</ele>
        <time>2019-08-04T09:12:00Z</time>
      </trkpt>
      <trkpt lat="44.56469" lon="4.62294">
        <ele>350.20001220703</ele>
        <time>2019-08-04T09:12:02Z</time>
      </trkpt>
      <trkpt lat="44.56472" lon="4.62297">
        <ele>350.79998779297</ele>
        <time>2019-08-04T09:12:04Z</time>
      </trkpt>
      <trkpt lat="44.56473" lon="4.62299">
        <ele>351.20001220703</ele>
        <time>2019-08-04T09:12:05Z</time>
      </trkpt>
      <trkpt lat="44.56474" lon="4.623">
        <ele>351.60000610352</ele>
        <time>2019-08-04T09:12:06Z</time>
      </trkpt>
      <trkpt lat="44.56475" lon="4.62301">
        <ele>351.60000610352</ele>
        <time>2019-08-04T09:12:07Z</time>
      </trkpt>
      <trkpt lat="44.56477" lon="4.62302">
        <ele>351.79998779297</ele>
        <time>2019-08-04T09:12:08Z</time>
      </trkpt>
      <trkpt lat="44.5648" lon="4.62305">
        <ele>352.20001220703</ele>
        <time>2019-08-04T09:12:10Z</time>
      </trkpt>
      <trkpt lat="44.56483" lon="4.62307">
        <ele>352.60000610352</ele>
        <time>2019-08-04T09:12:12Z</time>
      </trkpt>
      <trkpt lat="44.56485" lon="4.62309">
        <ele>353</ele>
        <time>2019-08-04T09:12:14Z</time>
      </trkpt>
      <trkpt lat="44.56486" lon="4.6231">
        <ele>353</ele>
        <time>2019-08-04T09:12:15Z</time>
      </trkpt>
      <trkpt lat="44.56487" lon="4.62311">
        <ele>353.39999389648</ele>
        <time>2019-08-04T09:12:16Z</time>
      </trkpt>
      <trkpt lat="44.56489" lon="4.62313">
        <ele>353.60000610352</ele>
        <time>2019-08-04T09:12:17Z</time>
      </trkpt>
      <trkpt lat="44.5649" lon="4.62314">
        <ele>353.60000610352</ele>
        <time>2019-08-04T09:12:18Z</time>
      </trkpt>
      <trkpt lat="44.56492" lon="4.62317">
        <ele>354.20001220703</ele>
        <time>2019-08-04T09:12:20Z</time>
      </trkpt>
      <trkpt lat="44.56494" lon="4.62318">
        <ele>354</ele>
        <time>2019-08-04T09:12:21Z</time>
      </trkpt>
      <trkpt lat="44.56495" lon="4.62319">
        <ele>354.39999389648</ele>
        <time>2019-08-04T09:12:22Z</time>
      </trkpt>
      <trkpt lat="44.56498" lon="4.62322">
        <ele>355</ele>
        <time>2019-08-04T09:12:24Z</time>
      </trkpt>
      <trkpt lat="44.565" lon="4.62323">
        <ele>355.20001220703</ele>
        <time>2019-08-04T09:12:25Z</time>
      </trkpt>
      <trkpt lat="44.56502" lon="4.62324">
        <ele>355.20001220703</ele>
        <time>2019-08-04T09:12:26Z</time>
      </trkpt>
      <trkpt lat="44.56505" lon="4.62326">
        <ele>355.79998779297</ele>
        <time>2019-08-04T09:12:28Z</time>
      </trkpt>
      <trkpt lat="44.56509" lon="4.62327">
        <ele>356.20001220703</ele>
        <time>2019-08-04T09:12:30Z</time>
      </trkpt>
      <trkpt lat="44.5651" lon="4.62328">
        <ele>356</ele>
        <time>2019-08-04T09:12:31Z</time>
      </trkpt>
      <trkpt lat="44.56512" lon="4.62329">
        <ele>356.20001220703</ele>
        <time>2019-08-04T09:12:32Z</time>
      </trkpt>
      <trkpt lat="44.56515" lon="4.6233">
        <ele>356.60000610352</ele>
        <time>2019-08-04T09:12:34Z</time>
      </trkpt>
      <trkpt lat="44.56518" lon="4.62332">
        <ele>357</ele>
        <time>2019-08-04T09:12:36Z</time>
      </trkpt>
      <trkpt lat="44.5652" lon="4.62332">
        <ele>357</ele>
        <time>2019-08-04T09:12:37Z</time>
      </trkpt>
      <trkpt lat="44.56522" lon="4.62333">
        <ele>357.39999389648</ele>
        <time>2019-08-04T09:12:38Z</time>
      </trkpt>
      <trkpt lat="44.56523" lon="4.62334">
        <ele>357.60000610352</ele>
        <time>2019-08-04T09:12:39Z</time>
      </trkpt>
      <trkpt lat="44.56525" lon="4.62335">
        <ele>358</ele>
        <time>2019-08-04T09:12:40Z</time>
      </trkpt>
      <trkpt lat="44.56528" lon="4.62337">
        <ele>358.60000610352</ele>
        <time>2019-08-04T09:12:42Z</time>
      </trkpt>
      <trkpt lat="44.5653" lon="4.62339">
        <ele>358.60000610352</ele>
        <time>2019-08-04T09:12:43Z</time>
      </trkpt>
      <trkpt lat="44.56531" lon="4.62341">
        <ele>358.79998779297</ele>
        <time>2019-08-04T09:12:44Z</time>
      </trkpt>
      <trkpt lat="44.56534" lon="4.62344">
        <ele>359</ele>
        <time>2019-08-04T09:12:46Z</time>
      </trkpt>
      <trkpt lat="44.56537" lon="4.62347">
        <ele>359.20001220703</ele>
        <time>2019-08-04T09:12:48Z</time>
      </trkpt>
      <trkpt lat="44.5654" lon="4.62349">
        <ele>359.20001220703</ele>
        <time>2019-08-04T09:12:50Z</time>
      </trkpt>
      <trkpt lat="44.56543" lon="4.62353">
        <ele>359.79998779297</ele>
        <time>2019-08-04T09:12:52Z</time>
      </trkpt>
      <trkpt lat="44.56546" lon="4.62355">
        <ele>360.20001220703</ele>
        <time>2019-08-04T09:12:54Z</time>
      </trkpt>
      <trkpt lat="44.56549" lon="4.62358">
        <ele>360.39999389648</ele>
        <time>2019-08-04T09:12:56Z</time>
      </trkpt>
      <trkpt lat="44.5655" lon="4.6236">
        <ele>360.60000610352</ele>
        <time>2019-08-04T09:12:57Z</time>
      </trkpt>
      <trkpt lat="44.56551" lon="4.62361">
        <ele>360.79998779297</ele>
        <time>2019-08-04T09:12:58Z</time>
      </trkpt>
      <trkpt lat="44.56554" lon="4.62364">
        <ele>361.60000610352</ele>
        <time>2019-08-04T09:13:00Z</time>
      </trkpt>
      <trkpt lat="44.56557" lon="4.62366">
        <ele>361.79998779297</ele>
        <time>2019-08-04T09:13:02Z</time>
      </trkpt>
      <trkpt lat="44.5656" lon="4.62369">
        <ele>362</ele>
        <time>2019-08-04T09:13:04Z</time>
      </trkpt>
      <trkpt lat="44.56562" lon="4.6237">
        <ele>362.20001220703</ele>
        <time>2019-08-04T09:13:05Z</time>
      </trkpt>
      <trkpt lat="44.56563" lon="4.62371">
        <ele>362.39999389648</ele>
        <time>2019-08-04T09:13:06Z</time>
      </trkpt>
      <trkpt lat="44.56565" lon="4.62372">
        <ele>362.39999389648</ele>
        <time>2019-08-04T09:13:07Z</time>
      </trkpt>
      <trkpt lat="44.56566" lon="4.62373">
        <ele>363</ele>
        <time>2019-08-04T09:13:08Z</time>
      </trkpt>
      <trkpt lat="44.5657" lon="4.62376">
        <ele>363.39999389648</ele>
        <time>2019-08-04T09:13:10Z</time>
      </trkpt>
      <trkpt lat="44.56573" lon="4.62379">
        <ele>363.60000610352</ele>
        <time>2019-08-04T09:13:12Z</time>
      </trkpt>
      <trkpt lat="44.56576" lon="4.62382">
        <ele>364</ele>
        <time>2019-08-04T09:13:13Z</time>
      </trkpt>
      <trkpt lat="44.56577" lon="4.62384">
        <ele>364</ele>
        <time>2019-08-04T09:13:14Z</time>
      </trkpt>
      <trkpt lat="44.56581" lon="4.62387">
        <ele>364.39999389648</ele>
        <time>2019-08-04T09:13:16Z</time>
      </trkpt>
      <trkpt lat="44.56585" lon="4.6239">
        <ele>364.60000610352</ele>
        <time>2019-08-04T09:13:18Z</time>
      </trkpt>
      <trkpt lat="44.56588" lon="4.62393">
        <ele>365</ele>
        <time>2019-08-04T09:13:20Z</time>
      </trkpt>
      <trkpt lat="44.5659" lon="4.62396">
        <ele>365.39999389648</ele>
        <time>2019-08-04T09:13:22Z</time>
      </trkpt>
      <trkpt lat="44.56592" lon="4.62398">
        <ele>365.39999389648</ele>
        <time>2019-08-04T09:13:24Z</time>
      </trkpt>
      <trkpt lat="44.56593" lon="4.62399">
        <ele>365.60000610352</ele>
        <time>2019-08-04T09:13:26Z</time>
      </trkpt>
      <trkpt lat="44.56593" lon="4.62399">
        <ele>365.79998779297</ele>
        <time>2019-08-04T09:13:27Z</time>
      </trkpt>
      <trkpt lat="44.56593" lon="4.62399">
        <ele>365.79998779297</ele>
        <time>2019-08-04T09:13:28Z</time>
      </trkpt>
      <trkpt lat="44.56595" lon="4.62403">
        <ele>365.79998779297</ele>
        <time>2019-08-04T09:13:30Z</time>
      </trkpt>
      <trkpt lat="44.56597" lon="4.62405">
        <ele>365.79998779297</ele>
        <time>2019-08-04T09:13:31Z</time>
      </trkpt>
      <trkpt lat="44.56599" lon="4.62407">
        <ele>366</ele>
        <time>2019-08-04T09:13:32Z</time>
      </trkpt>
      <trkpt lat="44.56603" lon="4.62411">
        <ele>365.79998779297</ele>
        <time>2019-08-04T09:13:34Z</time>
      </trkpt>
      <trkpt lat="44.56608" lon="4.62414">
        <ele>365.79998779297</ele>
        <time>2019-08-04T09:13:36Z</time>
      </trkpt>
      <trkpt lat="44.56613" lon="4.62418">
        <ele>366</ele>
        <time>2019-08-04T09:13:38Z</time>
      </trkpt>
      <trkpt lat="44.56618" lon="4.62422">
        <ele>365.79998779297</ele>
        <time>2019-08-04T09:13:40Z</time>
      </trkpt>
      <trkpt lat="44.5662" lon="4.62424">
        <ele>366</ele>
        <time>2019-08-04T09:13:41Z</time>
      </trkpt>
      <trkpt lat="44.56623" lon="4.62427">
        <ele>366</ele>
        <time>2019-08-04T09:13:42Z</time>
      </trkpt>
      <trkpt lat="44.56628" lon="4.62433">
        <ele>366</ele>
        <time>2019-08-04T09:13:44Z</time>
      </trkpt>
      <trkpt lat="44.56631" lon="4.62436">
        <ele>366</ele>
        <time>2019-08-04T09:13:45Z</time>
      </trkpt>
      <trkpt lat="44.56633" lon="4.62439">
        <ele>365.79998779297</ele>
        <time>2019-08-04T09:13:46Z</time>
      </trkpt>
      <trkpt lat="44.56637" lon="4.62446">
        <ele>365.60000610352</ele>
        <time>2019-08-04T09:13:48Z</time>
      </trkpt>
      <trkpt lat="44.56643" lon="4.62453">
        <ele>365.39999389648</ele>
        <time>2019-08-04T09:13:50Z</time>
      </trkpt>
      <trkpt lat="44.56645" lon="4.62457">
        <ele>365.20001220703</ele>
        <time>2019-08-04T09:13:51Z</time>
      </trkpt>
      <trkpt lat="44.56648" lon="4.6246">
        <ele>365.20001220703</ele>
        <time>2019-08-04T09:13:52Z</time>
      </trkpt>
      <trkpt lat="44.56653" lon="4.62466">
        <ele>365.20001220703</ele>
        <time>2019-08-04T09:13:54Z</time>
      </trkpt>
      <trkpt lat="44.5666" lon="4.62471">
        <ele>365.20001220703</ele>
        <time>2019-08-04T09:13:56Z</time>
      </trkpt>
      <trkpt lat="44.56663" lon="4.62473">
        <ele>365</ele>
        <time>2019-08-04T09:13:57Z</time>
      </trkpt>
      <trkpt lat="44.56666" lon="4.62475">
        <ele>365</ele>
        <time>2019-08-04T09:13:58Z</time>
      </trkpt>
      <trkpt lat="44.56669" lon="4.62477">
        <ele>365</ele>
        <time>2019-08-04T09:13:59Z</time>
      </trkpt>
      <trkpt lat="44.56671" lon="4.62479">
        <ele>365</ele>
        <time>2019-08-04T09:14:00Z</time>
      </trkpt>
      <trkpt lat="44.56676" lon="4.62482">
        <ele>365.20001220703</ele>
        <time>2019-08-04T09:14:02Z</time>
      </trkpt>
      <trkpt lat="44.56682" lon="4.62487">
        <ele>365.20001220703</ele>
        <time>2019-08-04T09:14:04Z</time>
      </trkpt>
      <trkpt lat="44.56685" lon="4.6249">
        <ele>365.39999389648</ele>
        <time>2019-08-04T09:14:05Z</time>
      </trkpt>
      <trkpt lat="44.56687" lon="4.62492">
        <ele>365.39999389648</ele>
        <time>2019-08-04T09:14:06Z</time>
      </trkpt>
      <trkpt lat="44.56689" lon="4.62494">
        <ele>365.60000610352</ele>
        <time>2019-08-04T09:14:07Z</time>
      </trkpt>
      <trkpt lat="44.56691" lon="4.62496">
        <ele>365.79998779297</ele>
        <time>2019-08-04T09:14:08Z</time>
      </trkpt>
      <trkpt lat="44.56694" lon="4.625">
        <ele>366.20001220703</ele>
        <time>2019-08-04T09:14:10Z</time>
      </trkpt>
      <trkpt lat="44.56699" lon="4.62504">
        <ele>366.39999389648</ele>
        <time>2019-08-04T09:14:12Z</time>
      </trkpt>
      <trkpt lat="44.56702" lon="4.62506">
        <ele>366.39999389648</ele>
        <time>2019-08-04T09:14:13Z</time>
      </trkpt>
      <trkpt lat="44.56704" lon="4.62508">
        <ele>366.60000610352</ele>
        <time>2019-08-04T09:14:14Z</time>
      </trkpt>
      <trkpt lat="44.56709" lon="4.62512">
        <ele>367</ele>
        <time>2019-08-04T09:14:16Z</time>
      </trkpt>
      <trkpt lat="44.56715" lon="4.62516">
        <ele>367.20001220703</ele>
        <time>2019-08-04T09:14:18Z</time>
      </trkpt>
      <trkpt lat="44.56721" lon="4.62519">
        <ele>367.39999389648</ele>
        <time>2019-08-04T09:14:20Z</time>
      </trkpt>
      <trkpt lat="44.56726" lon="4.62523">
        <ele>367.60000610352</ele>
        <time>2019-08-04T09:14:22Z</time>
      </trkpt>
      <trkpt lat="44.56731" lon="4.62528">
        <ele>367.79998779297</ele>
        <time>2019-08-04T09:14:24Z</time>
      </trkpt>
      <trkpt lat="44.56735" lon="4.62535">
        <ele>368</ele>
        <time>2019-08-04T09:14:26Z</time>
      </trkpt>
      <trkpt lat="44.56738" lon="4.6254">
        <ele>368.20001220703</ele>
        <time>2019-08-04T09:14:28Z</time>
      </trkpt>
      <trkpt lat="44.56741" lon="4.62545">
        <ele>368.20001220703</ele>
        <time>2019-08-04T09:14:30Z</time>
      </trkpt>
      <trkpt lat="44.56742" lon="4.62547">
        <ele>368.20001220703</ele>
        <time>2019-08-04T09:14:31Z</time>
      </trkpt>
      <trkpt lat="44.56745" lon="4.6255">
        <ele>368.20001220703</ele>
        <time>2019-08-04T09:14:32Z</time>
      </trkpt>
      <trkpt lat="44.5675" lon="4.62554">
        <ele>368.39999389648</ele>
        <time>2019-08-04T09:14:34Z</time>
      </trkpt>
      <trkpt lat="44.56755" lon="4.62558">
        <ele>368.60000610352</ele>
        <time>2019-08-04T09:14:36Z</time>
      </trkpt>
      <trkpt lat="44.5676" lon="4.62562">
        <ele>368.39999389648</ele>
        <time>2019-08-04T09:14:38Z</time>
      </trkpt>
      <trkpt lat="44.56763" lon="4.62565">
        <ele>368.39999389648</ele>
        <time>2019-08-04T09:14:39Z</time>
      </trkpt>
      <trkpt lat="44.56766" lon="4.62567">
        <ele>368.39999389648</ele>
        <time>2019-08-04T09:14:40Z</time>
      </trkpt>
      <trkpt lat="44.56772" lon="4.62573">
        <ele>368.39999389648</ele>
        <time>2019-08-04T09:14:42Z</time>
      </trkpt>
      <trkpt lat="44.56775" lon="4.62576">
        <ele>368.60000610352</ele>
        <time>2019-08-04T09:14:43Z</time>
      </trkpt>
      <trkpt lat="44.56778" lon="4.62579">
        <ele>368.60000610352</ele>
        <time>2019-08-04T09:14:44Z</time>
      </trkpt>
      <trkpt lat="44.56781" lon="4.62582">
        <ele>368.39999389648</ele>
        <time>2019-08-04T09:14:45Z</time>
      </trkpt>
      <trkpt lat="44.56784" lon="4.62585">
        <ele>368.39999389648</ele>
        <time>2019-08-04T09:14:46Z</time>
      </trkpt>
      <trkpt lat="44.56789" lon="4.62592">
        <ele>368.60000610352</ele>
        <time>2019-08-04T09:14:48Z</time>
      </trkpt>
      <trkpt lat="44.56795" lon="4.62599">
        <ele>368.39999389648</ele>
        <time>2019-08-04T09:14:50Z</time>
      </trkpt>
      <trkpt lat="44.568" lon="4.62604">
        <ele>368.39999389648</ele>
        <time>2019-08-04T09:14:52Z</time>
      </trkpt>
      <trkpt lat="44.56804" lon="4.62607">
        <ele>368.79998779297</ele>
        <time>2019-08-04T09:14:54Z</time>
      </trkpt>
      <trkpt lat="44.56809" lon="4.62612">
        <ele>368.79998779297</ele>
        <time>2019-08-04T09:14:56Z</time>
      </trkpt>
      <trkpt lat="44.56814" lon="4.62616">
        <ele>369</ele>
        <time>2019-08-04T09:14:58Z</time>
      </trkpt>
      <trkpt lat="44.56818" lon="4.62621">
        <ele>369.39999389648</ele>
        <time>2019-08-04T09:15:00Z</time>
      </trkpt>
      <trkpt lat="44.56822" lon="4.62625">
        <ele>369.79998779297</ele>
        <time>2019-08-04T09:15:02Z</time>
      </trkpt>
      <trkpt lat="44.56826" lon="4.62631">
        <ele>370.20001220703</ele>
        <time>2019-08-04T09:15:04Z</time>
      </trkpt>
      <trkpt lat="44.56828" lon="4.62633">
        <ele>370.39999389648</ele>
        <time>2019-08-04T09:15:05Z</time>
      </trkpt>
      <trkpt lat="44.5683" lon="4.62636">
        <ele>370.79998779297</ele>
        <time>2019-08-04T09:15:06Z</time>
      </trkpt>
      <trkpt lat="44.56831" lon="4.62639">
        <ele>371</ele>
        <time>2019-08-04T09:15:07Z</time>
      </trkpt>
      <trkpt lat="44.56833" lon="4.62643">
        <ele>371.60000610352</ele>
        <time>2019-08-04T09:15:08Z</time>
      </trkpt>
      <trkpt lat="44.56835" lon="4.6265">
        <ele>372</ele>
        <time>2019-08-04T09:15:10Z</time>
      </trkpt>
      <trkpt lat="44.56836" lon="4.62653">
        <ele>372.39999389648</ele>
        <time>2019-08-04T09:15:11Z</time>
      </trkpt>
      <trkpt lat="44.56838" lon="4.62657">
        <ele>372.39999389648</ele>
        <time>2019-08-04T09:15:12Z</time>
      </trkpt>
      <trkpt lat="44.56841" lon="4.62664">
        <ele>372.79998779297</ele>
        <time>2019-08-04T09:15:14Z</time>
      </trkpt>
      <trkpt lat="44.56843" lon="4.62672">
        <ele>372.79998779297</ele>
        <time>2019-08-04T09:15:16Z</time>
      </trkpt>
      <trkpt lat="44.56845" lon="4.62679">
        <ele>373</ele>
        <time>2019-08-04T09:15:18Z</time>
      </trkpt>
      <trkpt lat="44.56847" lon="4.62687">
        <ele>373.39999389648</ele>
        <time>2019-08-04T09:15:20Z</time>
      </trkpt>
      <trkpt lat="44.56847" lon="4.62694">
        <ele>373.79998779297</ele>
        <time>2019-08-04T09:15:22Z</time>
      </trkpt>
      <trkpt lat="44.56846" lon="4.62697">
        <ele>373.79998779297</ele>
        <time>2019-08-04T09:15:23Z</time>
      </trkpt>
      <trkpt lat="44.56846" lon="4.62701">
        <ele>374</ele>
        <time>2019-08-04T09:15:24Z</time>
      </trkpt>
      <trkpt lat="44.56845" lon="4.62708">
        <ele>374</ele>
        <time>2019-08-04T09:15:26Z</time>
      </trkpt>
      <trkpt lat="44.56843" lon="4.62714">
        <ele>374.20001220703</ele>
        <time>2019-08-04T09:15:28Z</time>
      </trkpt>
      <trkpt lat="44.56842" lon="4.62718">
        <ele>374.20001220703</ele>
        <time>2019-08-04T09:15:29Z</time>
      </trkpt>
      <trkpt lat="44.5684" lon="4.62722">
        <ele>374.20001220703</ele>
        <time>2019-08-04T09:15:30Z</time>
      </trkpt>
      <trkpt lat="44.56839" lon="4.62728">
        <ele>374.39999389648</ele>
        <time>2019-08-04T09:15:32Z</time>
      </trkpt>
      <trkpt lat="44.56837" lon="4.62732">
        <ele>374.39999389648</ele>
        <time>2019-08-04T09:15:33Z</time>
      </trkpt>
      <trkpt lat="44.56836" lon="4.62736">
        <ele>374.39999389648</ele>
        <time>2019-08-04T09:15:34Z</time>
      </trkpt>
      <trkpt lat="44.56834" lon="4.62742">
        <ele>374.60000610352</ele>
        <time>2019-08-04T09:15:36Z</time>
      </trkpt>
      <trkpt lat="44.56832" lon="4.62749">
        <ele>374.60000610352</ele>
        <time>2019-08-04T09:15:38Z</time>
      </trkpt>
      <trkpt lat="44.5683" lon="4.62755">
        <ele>375</ele>
        <time>2019-08-04T09:15:40Z</time>
      </trkpt>
      <trkpt lat="44.56829" lon="4.62758">
        <ele>375.39999389648</ele>
        <time>2019-08-04T09:15:41Z</time>
      </trkpt>
      <trkpt lat="44.56828" lon="4.6276">
        <ele>375.60000610352</ele>
        <time>2019-08-04T09:15:42Z</time>
      </trkpt>
      <trkpt lat="44.56827" lon="4.62765">
        <ele>376</ele>
        <time>2019-08-04T09:15:44Z</time>
      </trkpt>
      <trkpt lat="44.56826" lon="4.62768">
        <ele>376.20001220703</ele>
        <time>2019-08-04T09:15:45Z</time>
      </trkpt>
      <trkpt lat="44.56825" lon="4.62771">
        <ele>376.39999389648</ele>
        <time>2019-08-04T09:15:46Z</time>
      </trkpt>
      <trkpt lat="44.56822" lon="4.62777">
        <ele>376.79998779297</ele>
        <time>2019-08-04T09:15:48Z</time>
      </trkpt>
      <trkpt lat="44.56819" lon="4.62783">
        <ele>377</ele>
        <time>2019-08-04T09:15:50Z</time>
      </trkpt>
      <trkpt lat="44.56817" lon="4.62788">
        <ele>378</ele>
        <time>2019-08-04T09:15:52Z</time>
      </trkpt>
      <trkpt lat="44.56815" lon="4.62793">
        <ele>378.39999389648</ele>
        <time>2019-08-04T09:15:54Z</time>
      </trkpt>
      <trkpt lat="44.56812" lon="4.62799">
        <ele>378.79998779297</ele>
        <time>2019-08-04T09:15:56Z</time>
      </trkpt>
      <trkpt lat="44.56809" lon="4.62804">
        <ele>378.79998779297</ele>
        <time>2019-08-04T09:15:58Z</time>
      </trkpt>
      <trkpt lat="44.56807" lon="4.62809">
        <ele>379.20001220703</ele>
        <time>2019-08-04T09:16:00Z</time>
      </trkpt>
      <trkpt lat="44.56804" lon="4.62814">
        <ele>379</ele>
        <time>2019-08-04T09:16:02Z</time>
      </trkpt>
      <trkpt lat="44.56802" lon="4.62818">
        <ele>379.60000610352</ele>
        <time>2019-08-04T09:16:04Z</time>
      </trkpt>
      <trkpt lat="44.568" lon="4.62822">
        <ele>380.39999389648</ele>
        <time>2019-08-04T09:16:06Z</time>
      </trkpt>
      <trkpt lat="44.56799" lon="4.62824">
        <ele>380.39999389648</ele>
        <time>2019-08-04T09:16:07Z</time>
      </trkpt>
      <trkpt lat="44.56798" lon="4.62826">
        <ele>380.60000610352</ele>
        <time>2019-08-04T09:16:08Z</time>
      </trkpt>
      <trkpt lat="44.56797" lon="4.62828">
        <ele>380.79998779297</ele>
        <time>2019-08-04T09:16:09Z</time>
      </trkpt>
      <trkpt lat="44.56796" lon="4.6283">
        <ele>380.79998779297</ele>
        <time>2019-08-04T09:16:10Z</time>
      </trkpt>
      <trkpt lat="44.56793" lon="4.62835">
        <ele>381.60000610352</ele>
        <time>2019-08-04T09:16:12Z</time>
      </trkpt>
      <trkpt lat="44.5679" lon="4.62839">
        <ele>382.20001220703</ele>
        <time>2019-08-04T09:16:14Z</time>
      </trkpt>
      <trkpt lat="44.56786" lon="4.62843">
        <ele>382.39999389648</ele>
        <time>2019-08-04T09:16:16Z</time>
      </trkpt>
      <trkpt lat="44.56783" lon="4.62847">
        <ele>383</ele>
        <time>2019-08-04T09:16:18Z</time>
      </trkpt>
      <trkpt lat="44.5678" lon="4.6285">
        <ele>383.20001220703</ele>
        <time>2019-08-04T09:16:20Z</time>
      </trkpt>
      <trkpt lat="44.56776" lon="4.62854">
        <ele>383.79998779297</ele>
        <time>2019-08-04T09:16:22Z</time>
      </trkpt>
      <trkpt lat="44.56773" lon="4.62857">
        <ele>384</ele>
        <time>2019-08-04T09:16:24Z</time>
      </trkpt>
      <trkpt lat="44.56769" lon="4.6286">
        <ele>384.39999389648</ele>
        <time>2019-08-04T09:16:26Z</time>
      </trkpt>
      <trkpt lat="44.56766" lon="4.62864">
        <ele>385</ele>
        <time>2019-08-04T09:16:28Z</time>
      </trkpt>
      <trkpt lat="44.56762" lon="4.62867">
        <ele>385.39999389648</ele>
        <time>2019-08-04T09:16:30Z</time>
      </trkpt>
      <trkpt lat="44.56759" lon="4.6287">
        <ele>385.79998779297</ele>
        <time>2019-08-04T09:16:32Z</time>
      </trkpt>
      <trkpt lat="44.56757" lon="4.62873">
        <ele>385.79998779297</ele>
        <time>2019-08-04T09:16:34Z</time>
      </trkpt>
      <trkpt lat="44.56754" lon="4.62876">
        <ele>386</ele>
        <time>2019-08-04T09:16:36Z</time>
      </trkpt>
      <trkpt lat="44.5675" lon="4.62879">
        <ele>386.39999389648</ele>
        <time>2019-08-04T09:16:38Z</time>
      </trkpt>
      <trkpt lat="44.56746" lon="4.62882">
        <ele>386.79998779297</ele>
        <time>2019-08-04T09:16:40Z</time>
      </trkpt>
      <trkpt lat="44.56742" lon="4.62885">
        <ele>386.79998779297</ele>
        <time>2019-08-04T09:16:42Z</time>
      </trkpt>
      <trkpt lat="44.56739" lon="4.62886">
        <ele>387</ele>
        <time>2019-08-04T09:16:43Z</time>
      </trkpt>
      <trkpt lat="44.56737" lon="4.62888">
        <ele>387</ele>
        <time>2019-08-04T09:16:44Z</time>
      </trkpt>
      <trkpt lat="44.56735" lon="4.6289">
        <ele>387.20001220703</ele>
        <time>2019-08-04T09:16:45Z</time>
      </trkpt>
      <trkpt lat="44.56732" lon="4.62891">
        <ele>387.79998779297</ele>
        <time>2019-08-04T09:16:46Z</time>
      </trkpt>
      <trkpt lat="44.56726" lon="4.62894">
        <ele>388.20001220703</ele>
        <time>2019-08-04T09:16:48Z</time>
      </trkpt>
      <trkpt lat="44.56723" lon="4.62895">
        <ele>388.39999389648</ele>
        <time>2019-08-04T09:16:49Z</time>
      </trkpt>
      <trkpt lat="44.5672" lon="4.62897">
        <ele>388.60000610352</ele>
        <time>2019-08-04T09:16:50Z</time>
      </trkpt>
      <trkpt lat="44.56714" lon="4.62899">
        <ele>388.60000610352</ele>
        <time>2019-08-04T09:16:52Z</time>
      </trkpt>
      <trkpt lat="44.56708" lon="4.62902">
        <ele>389</ele>
        <time>2019-08-04T09:16:54Z</time>
      </trkpt>
      <trkpt lat="44.56703" lon="4.62904">
        <ele>389</ele>
        <time>2019-08-04T09:16:56Z</time>
      </trkpt>
      <trkpt lat="44.56698" lon="4.62907">
        <ele>389.20001220703</ele>
        <time>2019-08-04T09:16:58Z</time>
      </trkpt>
      <trkpt lat="44.56693" lon="4.6291">
        <ele>389.39999389648</ele>
        <time>2019-08-04T09:17:00Z</time>
      </trkpt>
      <trkpt lat="44.56689" lon="4.62914">
        <ele>389.60000610352</ele>
        <time>2019-08-04T09:17:02Z</time>
      </trkpt>
      <trkpt lat="44.56686" lon="4.62915">
        <ele>389.79998779297</ele>
        <time>2019-08-04T09:17:03Z</time>
      </trkpt>
      <trkpt lat="44.56683" lon="4.62917">
        <ele>389.79998779297</ele>
        <time>2019-08-04T09:17:04Z</time>
      </trkpt>
      <trkpt lat="44.56678" lon="4.62921">
        <ele>390</ele>
        <time>2019-08-04T09:17:06Z</time>
      </trkpt>
      <trkpt lat="44.56674" lon="4.62925">
        <ele>390.20001220703</ele>
        <time>2019-08-04T09:17:08Z</time>
      </trkpt>
      <trkpt lat="44.56669" lon="4.62929">
        <ele>390.20001220703</ele>
        <time>2019-08-04T09:17:10Z</time>
      </trkpt>
      <trkpt lat="44.56664" lon="4.62932">
        <ele>390.60000610352</ele>
        <time>2019-08-04T09:17:12Z</time>
      </trkpt>
      <trkpt lat="44.56659" lon="4.62937">
        <ele>390.79998779297</ele>
        <time>2019-08-04T09:17:14Z</time>
      </trkpt>
      <trkpt lat="44.56655" lon="4.62941">
        <ele>390.79998779297</ele>
        <time>2019-08-04T09:17:16Z</time>
      </trkpt>
      <trkpt lat="44.5665" lon="4.62944">
        <ele>391</ele>
        <time>2019-08-04T09:17:18Z</time>
      </trkpt>
      <trkpt lat="44.56644" lon="4.62949">
        <ele>391.20001220703</ele>
        <time>2019-08-04T09:17:20Z</time>
      </trkpt>
      <trkpt lat="44.56638" lon="4.62953">
        <ele>391.39999389648</ele>
        <time>2019-08-04T09:17:22Z</time>
      </trkpt>
      <trkpt lat="44.56633" lon="4.62956">
        <ele>391.60000610352</ele>
        <time>2019-08-04T09:17:24Z</time>
      </trkpt>
      <trkpt lat="44.56627" lon="4.62961">
        <ele>391.79998779297</ele>
        <time>2019-08-04T09:17:26Z</time>
      </trkpt>
      <trkpt lat="44.5662" lon="4.62965">
        <ele>392</ele>
        <time>2019-08-04T09:17:28Z</time>
      </trkpt>
      <trkpt lat="44.56613" lon="4.62967">
        <ele>392</ele>
        <time>2019-08-04T09:17:30Z</time>
      </trkpt>
      <trkpt lat="44.56606" lon="4.62969">
        <ele>392</ele>
        <time>2019-08-04T09:17:32Z</time>
      </trkpt>
      <trkpt lat="44.56599" lon="4.62972">
        <ele>392.20001220703</ele>
        <time>2019-08-04T09:17:34Z</time>
      </trkpt>
      <trkpt lat="44.56593" lon="4.62977">
        <ele>392.20001220703</ele>
        <time>2019-08-04T09:17:36Z</time>
      </trkpt>
      <trkpt lat="44.5659" lon="4.6298">
        <ele>392.39999389648</ele>
        <time>2019-08-04T09:17:37Z</time>
      </trkpt>
      <trkpt lat="44.56587" lon="4.62983">
        <ele>392.39999389648</ele>
        <time>2019-08-04T09:17:38Z</time>
      </trkpt>
      <trkpt lat="44.56583" lon="4.6299">
        <ele>392.39999389648</ele>
        <time>2019-08-04T09:17:40Z</time>
      </trkpt>
      <trkpt lat="44.56579" lon="4.62994">
        <ele>392.39999389648</ele>
        <time>2019-08-04T09:17:42Z</time>
      </trkpt>
      <trkpt lat="44.56577" lon="4.62997">
        <ele>392.39999389648</ele>
        <time>2019-08-04T09:17:43Z</time>
      </trkpt>
      <trkpt lat="44.56574" lon="4.62999">
        <ele>392.60000610352</ele>
        <time>2019-08-04T09:17:44Z</time>
      </trkpt>
      <trkpt lat="44.56569" lon="4.63003">
        <ele>392.60000610352</ele>
        <time>2019-08-04T09:17:46Z</time>
      </trkpt>
      <trkpt lat="44.56564" lon="4.63007">
        <ele>392.79998779297</ele>
        <time>2019-08-04T09:17:48Z</time>
      </trkpt>
      <trkpt lat="44.56562" lon="4.63008">
        <ele>392.79998779297</ele>
        <time>2019-08-04T09:17:49Z</time>
      </trkpt>
      <trkpt lat="44.56559" lon="4.63009">
        <ele>392.79998779297</ele>
        <time>2019-08-04T09:17:50Z</time>
      </trkpt>
      <trkpt lat="44.56555" lon="4.63012">
        <ele>393.39999389648</ele>
        <time>2019-08-04T09:17:52Z</time>
      </trkpt>
      <trkpt lat="44.56551" lon="4.63017">
        <ele>393.60000610352</ele>
        <time>2019-08-04T09:17:54Z</time>
      </trkpt>
      <trkpt lat="44.56548" lon="4.63019">
        <ele>393.60000610352</ele>
        <time>2019-08-04T09:17:55Z</time>
      </trkpt>
      <trkpt lat="44.56546" lon="4.63021">
        <ele>393.79998779297</ele>
        <time>2019-08-04T09:17:56Z</time>
      </trkpt>
      <trkpt lat="44.56542" lon="4.63026">
        <ele>394</ele>
        <time>2019-08-04T09:17:58Z</time>
      </trkpt>
      <trkpt lat="44.56538" lon="4.6303">
        <ele>394.39999389648</ele>
        <time>2019-08-04T09:18:00Z</time>
      </trkpt>
      <trkpt lat="44.56534" lon="4.63035">
        <ele>395</ele>
        <time>2019-08-04T09:18:02Z</time>
      </trkpt>
      <trkpt lat="44.56532" lon="4.63038">
        <ele>395</ele>
        <time>2019-08-04T09:18:03Z</time>
      </trkpt>
      <trkpt lat="44.5653" lon="4.6304">
        <ele>395</ele>
        <time>2019-08-04T09:18:04Z</time>
      </trkpt>
      <trkpt lat="44.56527" lon="4.63045">
        <ele>395</ele>
        <time>2019-08-04T09:18:06Z</time>
      </trkpt>
      <trkpt lat="44.56523" lon="4.63051">
        <ele>395.39999389648</ele>
        <time>2019-08-04T09:18:08Z</time>
      </trkpt>
      <trkpt lat="44.56522" lon="4.63053">
        <ele>396</ele>
        <time>2019-08-04T09:18:09Z</time>
      </trkpt>
      <trkpt lat="44.5652" lon="4.63056">
        <ele>396.39999389648</ele>
        <time>2019-08-04T09:18:10Z</time>
      </trkpt>
      <trkpt lat="44.56516" lon="4.63059">
        <ele>397.20001220703</ele>
        <time>2019-08-04T09:18:12Z</time>
      </trkpt>
      <trkpt lat="44.56512" lon="4.63062">
        <ele>397.79998779297</ele>
        <time>2019-08-04T09:18:14Z</time>
      </trkpt>
      <trkpt lat="44.5651" lon="4.63063">
        <ele>398.20001220703</ele>
        <time>2019-08-04T09:18:15Z</time>
      </trkpt>
      <trkpt lat="44.56507" lon="4.63065">
        <ele>398.39999389648</ele>
        <time>2019-08-04T09:18:16Z</time>
      </trkpt>
      <trkpt lat="44.56505" lon="4.63067">
        <ele>398.39999389648</ele>
        <time>2019-08-04T09:18:17Z</time>
      </trkpt>
      <trkpt lat="44.56503" lon="4.63068">
        <ele>398.79998779297</ele>
        <time>2019-08-04T09:18:18Z</time>
      </trkpt>
      <trkpt lat="44.565" lon="4.63071">
        <ele>399.60000610352</ele>
        <time>2019-08-04T09:18:20Z</time>
      </trkpt>
      <trkpt lat="44.56496" lon="4.63075">
        <ele>400.20001220703</ele>
        <time>2019-08-04T09:18:22Z</time>
      </trkpt>
      <trkpt lat="44.56494" lon="4.63077">
        <ele>400.79998779297</ele>
        <time>2019-08-04T09:18:23Z</time>
      </trkpt>
      <trkpt lat="44.56492" lon="4.63079">
        <ele>401.39999389648</ele>
        <time>2019-08-04T09:18:24Z</time>
      </trkpt>
      <trkpt lat="44.56488" lon="4.63082">
        <ele>401.79998779297</ele>
        <time>2019-08-04T09:18:26Z</time>
      </trkpt>
      <trkpt lat="44.56486" lon="4.63084">
        <ele>402.20001220703</ele>
        <time>2019-08-04T09:18:27Z</time>
      </trkpt>
      <trkpt lat="44.56484" lon="4.63085">
        <ele>402.20001220703</ele>
        <time>2019-08-04T09:18:28Z</time>
      </trkpt>
      <trkpt lat="44.56481" lon="4.63088">
        <ele>402.60000610352</ele>
        <time>2019-08-04T09:18:30Z</time>
      </trkpt>
      <trkpt lat="44.56476" lon="4.63091">
        <ele>403.39999389648</ele>
        <time>2019-08-04T09:18:32Z</time>
      </trkpt>
      <trkpt lat="44.56474" lon="4.63093">
        <ele>403.39999389648</ele>
        <time>2019-08-04T09:18:33Z</time>
      </trkpt>
      <trkpt lat="44.56472" lon="4.63094">
        <ele>403.60000610352</ele>
        <time>2019-08-04T09:18:34Z</time>
      </trkpt>
      <trkpt lat="44.5647" lon="4.63095">
        <ele>403.79998779297</ele>
        <time>2019-08-04T09:18:35Z</time>
      </trkpt>
      <trkpt lat="44.56467" lon="4.63096">
        <ele>404</ele>
        <time>2019-08-04T09:18:36Z</time>
      </trkpt>
      <trkpt lat="44.56465" lon="4.63097">
        <ele>404.39999389648</ele>
        <time>2019-08-04T09:18:37Z</time>
      </trkpt>
      <trkpt lat="44.56462" lon="4.63098">
        <ele>404.60000610352</ele>
        <time>2019-08-04T09:18:38Z</time>
      </trkpt>
      <trkpt lat="44.56456" lon="4.631">
        <ele>405</ele>
        <time>2019-08-04T09:18:40Z</time>
      </trkpt>
      <trkpt lat="44.56449" lon="4.63103">
        <ele>405.39999389648</ele>
        <time>2019-08-04T09:18:42Z</time>
      </trkpt>
      <trkpt lat="44.56446" lon="4.63104">
        <ele>405.60000610352</ele>
        <time>2019-08-04T09:18:43Z</time>
      </trkpt>
      <trkpt lat="44.56444" lon="4.63105">
        <ele>405.79998779297</ele>
        <time>2019-08-04T09:18:44Z</time>
      </trkpt>
      <trkpt lat="44.56439" lon="4.63107">
        <ele>405.79998779297</ele>
        <time>2019-08-04T09:18:46Z</time>
      </trkpt>
      <trkpt lat="44.56433" lon="4.63109">
        <ele>406</ele>
        <time>2019-08-04T09:18:48Z</time>
      </trkpt>
      <trkpt lat="44.56431" lon="4.63111">
        <ele>406</ele>
        <time>2019-08-04T09:18:49Z</time>
      </trkpt>
      <trkpt lat="44.56428" lon="4.63112">
        <ele>406</ele>
        <time>2019-08-04T09:18:50Z</time>
      </trkpt>
      <trkpt lat="44.56425" lon="4.63113">
        <ele>406</ele>
        <time>2019-08-04T09:18:51Z</time>
      </trkpt>
      <trkpt lat="44.56422" lon="4.63114">
        <ele>406.20001220703</ele>
        <time>2019-08-04T09:18:52Z</time>
      </trkpt>
      <trkpt lat="44.56415" lon="4.63115">
        <ele>406</ele>
        <time>2019-08-04T09:18:54Z</time>
      </trkpt>
      <trkpt lat="44.5641" lon="4.63118">
        <ele>406</ele>
        <time>2019-08-04T09:18:56Z</time>
      </trkpt>
      <trkpt lat="44.56404" lon="4.6312">
        <ele>405.60000610352</ele>
        <time>2019-08-04T09:18:58Z</time>
      </trkpt>
      <trkpt lat="44.56402" lon="4.63122">
        <ele>405.60000610352</ele>
        <time>2019-08-04T09:18:59Z</time>
      </trkpt>
      <trkpt lat="44.56399" lon="4.63125">
        <ele>405.39999389648</ele>
        <time>2019-08-04T09:19:00Z</time>
      </trkpt>
      <trkpt lat="44.56393" lon="4.63132">
        <ele>405</ele>
        <time>2019-08-04T09:19:02Z</time>
      </trkpt>
      <trkpt lat="44.5639" lon="4.63137">
        <ele>405</ele>
        <time>2019-08-04T09:19:03Z</time>
      </trkpt>
      <trkpt lat="44.56387" lon="4.63141">
        <ele>404.79998779297</ele>
        <time>2019-08-04T09:19:04Z</time>
      </trkpt>
      <trkpt lat="44.5638" lon="4.63153">
        <ele>404.39999389648</ele>
        <time>2019-08-04T09:19:06Z</time>
      </trkpt>
      <trkpt lat="44.56371" lon="4.63166">
        <ele>403.60000610352</ele>
        <time>2019-08-04T09:19:08Z</time>
      </trkpt>
      <trkpt lat="44.56362" lon="4.63181">
        <ele>403.20001220703</ele>
        <time>2019-08-04T09:19:10Z</time>
      </trkpt>
      <trkpt lat="44.56357" lon="4.6319">
        <ele>403</ele>
        <time>2019-08-04T09:19:11Z</time>
      </trkpt>
      <trkpt lat="44.56351" lon="4.63198">
        <ele>402.79998779297</ele>
        <time>2019-08-04T09:19:12Z</time>
      </trkpt>
      <trkpt lat="44.56346" lon="4.63206">
        <ele>402.39999389648</ele>
        <time>2019-08-04T09:19:13Z</time>
      </trkpt>
      <trkpt lat="44.56341" lon="4.63214">
        <ele>402.20001220703</ele>
        <time>2019-08-04T09:19:14Z</time>
      </trkpt>
      <trkpt lat="44.56336" lon="4.63222">
        <ele>400.79998779297</ele>
        <time>2019-08-04T09:19:15Z</time>
      </trkpt>
      <trkpt lat="44.56331" lon="4.6323">
        <ele>400.39999389648</ele>
        <time>2019-08-04T09:19:16Z</time>
      </trkpt>
      <trkpt lat="44.56322" lon="4.63243">
        <ele>399.79998779297</ele>
        <time>2019-08-04T09:19:18Z</time>
      </trkpt>
      <trkpt lat="44.56312" lon="4.63252">
        <ele>398.79998779297</ele>
        <time>2019-08-04T09:19:20Z</time>
      </trkpt>
      <trkpt lat="44.56307" lon="4.63255">
        <ele>398.39999389648</ele>
        <time>2019-08-04T09:19:21Z</time>
      </trkpt>
      <trkpt lat="44.56302" lon="4.63257">
        <ele>398.39999389648</ele>
        <time>2019-08-04T09:19:22Z</time>
      </trkpt>
      <trkpt lat="44.56293" lon="4.63262">
        <ele>398.20001220703</ele>
        <time>2019-08-04T09:19:24Z</time>
      </trkpt>
      <trkpt lat="44.56284" lon="4.63264">
        <ele>398.20001220703</ele>
        <time>2019-08-04T09:19:26Z</time>
      </trkpt>
      <trkpt lat="44.56273" lon="4.63265">
        <ele>398</ele>
        <time>2019-08-04T09:19:28Z</time>
      </trkpt>
      <trkpt lat="44.56263" lon="4.63269">
        <ele>397.60000610352</ele>
        <time>2019-08-04T09:19:30Z</time>
      </trkpt>
      <trkpt lat="44.56253" lon="4.63273">
        <ele>397.20001220703</ele>
        <time>2019-08-04T09:19:32Z</time>
      </trkpt>
      <trkpt lat="44.56248" lon="4.63276">
        <ele>397.39999389648</ele>
        <time>2019-08-04T09:19:33Z</time>
      </trkpt>
      <trkpt lat="44.56244" lon="4.63279">
        <ele>397.39999389648</ele>
        <time>2019-08-04T09:19:34Z</time>
      </trkpt>
      <trkpt lat="44.56239" lon="4.63282">
        <ele>397.39999389648</ele>
        <time>2019-08-04T09:19:35Z</time>
      </trkpt>
      <trkpt lat="44.56235" lon="4.63284">
        <ele>397.60000610352</ele>
        <time>2019-08-04T09:19:36Z</time>
      </trkpt>
      <trkpt lat="44.56227" lon="4.63291">
        <ele>397.60000610352</ele>
        <time>2019-08-04T09:19:38Z</time>
      </trkpt>
      <trkpt lat="44.56219" lon="4.63297">
        <ele>397.60000610352</ele>
        <time>2019-08-04T09:19:40Z</time>
      </trkpt>
      <trkpt lat="44.56215" lon="4.633">
        <ele>397.60000610352</ele>
        <time>2019-08-04T09:19:41Z</time>
      </trkpt>
      <trkpt lat="44.5621" lon="4.63304">
        <ele>397.39999389648</ele>
        <time>2019-08-04T09:19:42Z</time>
      </trkpt>
      <trkpt lat="44.56206" lon="4.63308">
        <ele>397.39999389648</ele>
        <time>2019-08-04T09:19:43Z</time>
      </trkpt>
      <trkpt lat="44.56201" lon="4.63312">
        <ele>397.39999389648</ele>
        <time>2019-08-04T09:19:44Z</time>
      </trkpt>
      <trkpt lat="44.56192" lon="4.6332">
        <ele>397.20001220703</ele>
        <time>2019-08-04T09:19:46Z</time>
      </trkpt>
      <trkpt lat="44.56182" lon="4.63328">
        <ele>396.79998779297</ele>
        <time>2019-08-04T09:19:48Z</time>
      </trkpt>
      <trkpt lat="44.56177" lon="4.63333">
        <ele>396.39999389648</ele>
        <time>2019-08-04T09:19:49Z</time>
      </trkpt>
      <trkpt lat="44.56173" lon="4.63338">
        <ele>396.39999389648</ele>
        <time>2019-08-04T09:19:50Z</time>
      </trkpt>
      <trkpt lat="44.56163" lon="4.63348">
        <ele>395.79998779297</ele>
        <time>2019-08-04T09:19:52Z</time>
      </trkpt>
      <trkpt lat="44.56154" lon="4.63358">
        <ele>395.39999389648</ele>
        <time>2019-08-04T09:19:54Z</time>
      </trkpt>
      <trkpt lat="44.5615" lon="4.63369">
        <ele>395</ele>
        <time>2019-08-04T09:19:56Z</time>
      </trkpt>
      <trkpt lat="44.56149" lon="4.63375">
        <ele>395</ele>
        <time>2019-08-04T09:19:58Z</time>
      </trkpt>
      <trkpt lat="44.56149" lon="4.63378">
        <ele>395</ele>
        <time>2019-08-04T09:20:00Z</time>
      </trkpt>
      <trkpt lat="44.56149" lon="4.63378">
        <ele>395</ele>
        <time>2019-08-04T09:20:02Z</time>
      </trkpt>
      <trkpt lat="44.56149" lon="4.63377">
        <ele>394.79998779297</ele>
        <time>2019-08-04T09:20:04Z</time>
      </trkpt>
      <trkpt lat="44.56149" lon="4.63377">
        <ele>394.79998779297</ele>
        <time>2019-08-04T09:20:06Z</time>
      </trkpt>
      <trkpt lat="44.56149" lon="4.63377">
        <ele>395.39999389648</ele>
        <time>2019-08-04T09:20:08Z</time>
      </trkpt>
      <trkpt lat="44.56149" lon="4.63377">
        <ele>395.39999389648</ele>
        <time>2019-08-04T09:20:09Z</time>
      </trkpt>
      <trkpt lat="44.56149" lon="4.63377">
        <ele>395.60000610352</ele>
        <time>2019-08-04T09:20:10Z</time>
      </trkpt>
      <trkpt lat="44.56149" lon="4.63377">
        <ele>395.79998779297</ele>
        <time>2019-08-04T09:20:12Z</time>
      </trkpt>
      <trkpt lat="44.56149" lon="4.63377">
        <ele>395.60000610352</ele>
        <time>2019-08-04T09:20:14Z</time>
      </trkpt>
      <trkpt lat="44.56149" lon="4.63377">
        <ele>395.60000610352</ele>
        <time>2019-08-04T09:20:16Z</time>
      </trkpt>
      <trkpt lat="44.56149" lon="4.63377">
        <ele>395.60000610352</ele>
        <time>2019-08-04T09:20:18Z</time>
      </trkpt>
      <trkpt lat="44.56149" lon="4.63377">
        <ele>395.79998779297</ele>
        <time>2019-08-04T09:20:20Z</time>
      </trkpt>
      <trkpt lat="44.56149" lon="4.63377">
        <ele>395.60000610352</ele>
        <time>2019-08-04T09:20:22Z</time>
      </trkpt>
      <trkpt lat="44.56149" lon="4.63377">
        <ele>395.60000610352</ele>
        <time>2019-08-04T09:20:24Z</time>
      </trkpt>
      <trkpt lat="44.56149" lon="4.63377">
        <ele>395.60000610352</ele>
        <time>2019-08-04T09:20:26Z</time>
      </trkpt>
      <trkpt lat="44.56149" lon="4.63377">
        <ele>395.60000610352</ele>
        <time>2019-08-04T09:20:28Z</time>
      </trkpt>
      <trkpt lat="44.56149" lon="4.63377">
        <ele>395.60000610352</ele>
        <time>2019-08-04T09:20:30Z</time>
      </trkpt>
      <trkpt lat="44.56149" lon="4.63377">
        <ele>395.79998779297</ele>
        <time>2019-08-04T09:20:31Z</time>
      </trkpt>
      <trkpt lat="44.56149" lon="4.63377">
        <ele>395.60000610352</ele>
        <time>2019-08-04T09:20:32Z</time>
      </trkpt>
      <trkpt lat="44.56149" lon="4.63377">
        <ele>395.79998779297</ele>
        <time>2019-08-04T09:20:34Z</time>
      </trkpt>
      <trkpt lat="44.56149" lon="4.63377">
        <ele>395.79998779297</ele>
        <time>2019-08-04T09:20:36Z</time>
      </trkpt>
      <trkpt lat="44.56149" lon="4.63377">
        <ele>395.79998779297</ele>
        <time>2019-08-04T09:20:38Z</time>
      </trkpt>
      <trkpt lat="44.56148" lon="4.63378">
        <ele>395.79998779297</ele>
        <time>2019-08-04T09:20:40Z</time>
      </trkpt>
      <trkpt lat="44.56148" lon="4.63378">
        <ele>395.79998779297</ele>
        <time>2019-08-04T09:20:42Z</time>
      </trkpt>
      <trkpt lat="44.56148" lon="4.63378">
        <ele>395.79998779297</ele>
        <time>2019-08-04T09:20:44Z</time>
      </trkpt>
      <trkpt lat="44.56148" lon="4.63379">
        <ele>395.79998779297</ele>
        <time>2019-08-04T09:20:46Z</time>
      </trkpt>
      <trkpt lat="44.56148" lon="4.63379">
        <ele>395.79998779297</ele>
        <time>2019-08-04T09:20:48Z</time>
      </trkpt>
      <trkpt lat="44.56148" lon="4.63379">
        <ele>395.79998779297</ele>
        <time>2019-08-04T09:20:50Z</time>
      </trkpt>
      <trkpt lat="44.56148" lon="4.63379">
        <ele>395.79998779297</ele>
        <time>2019-08-04T09:20:52Z</time>
      </trkpt>
      <trkpt lat="44.56148" lon="4.63379">
        <ele>395.79998779297</ele>
        <time>2019-08-04T09:20:53Z</time>
      </trkpt>
      <trkpt lat="44.56148" lon="4.63379">
        <ele>395.79998779297</ele>
        <time>2019-08-04T09:20:54Z</time>
      </trkpt>
      <trkpt lat="44.56148" lon="4.63379">
        <ele>395.79998779297</ele>
        <time>2019-08-04T09:20:56Z</time>
      </trkpt>
      <trkpt lat="44.56148" lon="4.63379">
        <ele>395.79998779297</ele>
        <time>2019-08-04T09:20:58Z</time>
      </trkpt>
      <trkpt lat="44.56148" lon="4.63379">
        <ele>395.79998779297</ele>
        <time>2019-08-04T09:21:00Z</time>
      </trkpt>
      <trkpt lat="44.56148" lon="4.63379">
        <ele>395.79998779297</ele>
        <time>2019-08-04T09:21:02Z</time>
      </trkpt>
      <trkpt lat="44.56148" lon="4.63379">
        <ele>396</ele>
        <time>2019-08-04T09:21:04Z</time>
      </trkpt>
      <trkpt lat="44.56148" lon="4.63379">
        <ele>395.79998779297</ele>
        <time>2019-08-04T09:21:06Z</time>
      </trkpt>
      <trkpt lat="44.56148" lon="4.63379">
        <ele>395.79998779297</ele>
        <time>2019-08-04T09:21:07Z</time>
      </trkpt>
      <trkpt lat="44.56148" lon="4.63379">
        <ele>396</ele>
        <time>2019-08-04T09:21:08Z</time>
      </trkpt>
      <trkpt lat="44.56148" lon="4.63379">
        <ele>395.79998779297</ele>
        <time>2019-08-04T09:21:10Z</time>
      </trkpt>
      <trkpt lat="44.56148" lon="4.63379">
        <ele>396</ele>
        <time>2019-08-04T09:21:12Z</time>
      </trkpt>
      <trkpt lat="44.56148" lon="4.6338">
        <ele>396</ele>
        <time>2019-08-04T09:21:14Z</time>
      </trkpt>
      <trkpt lat="44.56148" lon="4.6338">
        <ele>396</ele>
        <time>2019-08-04T09:21:16Z</time>
      </trkpt>
      <trkpt lat="44.56148" lon="4.6338">
        <ele>396</ele>
        <time>2019-08-04T09:21:18Z</time>
      </trkpt>
      <trkpt lat="44.56148" lon="4.6338">
        <ele>396</ele>
        <time>2019-08-04T09:21:20Z</time>
      </trkpt>
      <trkpt lat="44.56148" lon="4.6338">
        <ele>396</ele>
        <time>2019-08-04T09:21:22Z</time>
      </trkpt>
      <trkpt lat="44.56148" lon="4.6338">
        <ele>395.79998779297</ele>
        <time>2019-08-04T09:21:24Z</time>
      </trkpt>
      <trkpt lat="44.56148" lon="4.63379">
        <ele>395.79998779297</ele>
        <time>2019-08-04T09:21:26Z</time>
      </trkpt>
      <trkpt lat="44.56148" lon="4.63379">
        <ele>395.60000610352</ele>
        <time>2019-08-04T09:21:28Z</time>
      </trkpt>
      <trkpt lat="44.56148" lon="4.63379">
        <ele>395.60000610352</ele>
        <time>2019-08-04T09:21:30Z</time>
      </trkpt>
      <trkpt lat="44.56148" lon="4.63379">
        <ele>395.60000610352</ele>
        <time>2019-08-04T09:21:32Z</time>
      </trkpt>
      <trkpt lat="44.56148" lon="4.63379">
        <ele>395.60000610352</ele>
        <time>2019-08-04T09:21:34Z</time>
      </trkpt>
      <trkpt lat="44.56148" lon="4.63379">
        <ele>395.60000610352</ele>
        <time>2019-08-04T09:21:36Z</time>
      </trkpt>
      <trkpt lat="44.56148" lon="4.63379">
        <ele>395.60000610352</ele>
        <time>2019-08-04T09:21:38Z</time>
      </trkpt>
      <trkpt lat="44.56148" lon="4.63379">
        <ele>395.79998779297</ele>
        <time>2019-08-04T09:21:40Z</time>
      </trkpt>
      <trkpt lat="44.56148" lon="4.6338">
        <ele>395.79998779297</ele>
        <time>2019-08-04T09:21:42Z</time>
      </trkpt>
      <trkpt lat="44.56148" lon="4.6338">
        <ele>396</ele>
        <time>2019-08-04T09:21:44Z</time>
      </trkpt>
      <trkpt lat="44.56148" lon="4.6338">
        <ele>396</ele>
        <time>2019-08-04T09:21:46Z</time>
      </trkpt>
      <trkpt lat="44.56148" lon="4.6338">
        <ele>396</ele>
        <time>2019-08-04T09:21:48Z</time>
      </trkpt>
      <trkpt lat="44.56148" lon="4.63379">
        <ele>396</ele>
        <time>2019-08-04T09:21:50Z</time>
      </trkpt>
      <trkpt lat="44.56148" lon="4.63379">
        <ele>396</ele>
        <time>2019-08-04T09:21:51Z</time>
      </trkpt>
      <trkpt lat="44.56148" lon="4.63379">
        <ele>396</ele>
        <time>2019-08-04T09:21:52Z</time>
      </trkpt>
      <trkpt lat="44.56148" lon="4.63379">
        <ele>396</ele>
        <time>2019-08-04T09:21:54Z</time>
      </trkpt>
      <trkpt lat="44.56148" lon="4.63379">
        <ele>396</ele>
        <time>2019-08-04T09:21:56Z</time>
      </trkpt>
      <trkpt lat="44.56148" lon="4.63379">
        <ele>396</ele>
        <time>2019-08-04T09:21:58Z</time>
      </trkpt>
      <trkpt lat="44.56148" lon="4.63379">
        <ele>396</ele>
        <time>2019-08-04T09:22:00Z</time>
      </trkpt>
      <trkpt lat="44.56148" lon="4.63379">
        <ele>396</ele>
        <time>2019-08-04T09:22:02Z</time>
      </trkpt>
      <trkpt lat="44.56148" lon="4.63379">
        <ele>396</ele>
        <time>2019-08-04T09:22:04Z</time>
      </trkpt>
      <trkpt lat="44.56148" lon="4.63379">
        <ele>396</ele>
        <time>2019-08-04T09:22:06Z</time>
      </trkpt>
      <trkpt lat="44.56148" lon="4.63379">
        <ele>396</ele>
        <time>2019-08-04T09:22:08Z</time>
      </trkpt>
      <trkpt lat="44.56148" lon="4.63379">
        <ele>396</ele>
        <time>2019-08-04T09:22:10Z</time>
      </trkpt>
      <trkpt lat="44.56148" lon="4.63379">
        <ele>396</ele>
        <time>2019-08-04T09:22:12Z</time>
      </trkpt>
      <trkpt lat="44.56148" lon="4.63379">
        <ele>396</ele>
        <time>2019-08-04T09:22:14Z</time>
      </trkpt>
      <trkpt lat="44.56148" lon="4.63379">
        <ele>396</ele>
        <time>2019-08-04T09:22:16Z</time>
      </trkpt>
      <trkpt lat="44.56148" lon="4.63379">
        <ele>396</ele>
        <time>2019-08-04T09:22:18Z</time>
      </trkpt>
      <trkpt lat="44.56148" lon="4.63379">
        <ele>396.20001220703</ele>
        <time>2019-08-04T09:22:20Z</time>
      </trkpt>
      <trkpt lat="44.56148" lon="4.63379">
        <ele>396.20001220703</ele>
        <time>2019-08-04T09:22:21Z</time>
      </trkpt>
      <trkpt lat="44.56148" lon="4.63379">
        <ele>396</ele>
        <time>2019-08-04T09:22:22Z</time>
      </trkpt>
      <trkpt lat="44.56148" lon="4.63379">
        <ele>396.20001220703</ele>
        <time>2019-08-04T09:22:24Z</time>
      </trkpt>
      <trkpt lat="44.56148" lon="4.63379">
        <ele>396.20001220703</ele>
        <time>2019-08-04T09:22:26Z</time>
      </trkpt>
      <trkpt lat="44.56148" lon="4.63379">
        <ele>396.20001220703</ele>
        <time>2019-08-04T09:22:28Z</time>
      </trkpt>
      <trkpt lat="44.56148" lon="4.63379">
        <ele>396.20001220703</ele>
        <time>2019-08-04T09:22:30Z</time>
      </trkpt>
      <trkpt lat="44.56148" lon="4.63379">
        <ele>396.20001220703</ele>
        <time>2019-08-04T09:22:32Z</time>
      </trkpt>
      <trkpt lat="44.56148" lon="4.63379">
        <ele>396.39999389648</ele>
        <time>2019-08-04T09:22:34Z</time>
      </trkpt>
      <trkpt lat="44.56148" lon="4.63379">
        <ele>396.39999389648</ele>
        <time>2019-08-04T09:22:36Z</time>
      </trkpt>
      <trkpt lat="44.56148" lon="4.63379">
        <ele>396.20001220703</ele>
        <time>2019-08-04T09:22:38Z</time>
      </trkpt>
      <trkpt lat="44.56148" lon="4.63379">
        <ele>396.39999389648</ele>
        <time>2019-08-04T09:22:40Z</time>
      </trkpt>
      <trkpt lat="44.56148" lon="4.63379">
        <ele>396.39999389648</ele>
        <time>2019-08-04T09:22:42Z</time>
      </trkpt>
      <trkpt lat="44.56148" lon="4.63379">
        <ele>396.39999389648</ele>
        <time>2019-08-04T09:22:44Z</time>
      </trkpt>
      <trkpt lat="44.56148" lon="4.63379">
        <ele>396.39999389648</ele>
        <time>2019-08-04T09:22:46Z</time>
      </trkpt>
      <trkpt lat="44.56148" lon="4.63379">
        <ele>396.60000610352</ele>
        <time>2019-08-04T09:22:48Z</time>
      </trkpt>
      <trkpt lat="44.56147" lon="4.63378">
        <ele>396.39999389648</ele>
        <time>2019-08-04T09:22:49Z</time>
      </trkpt>
      <trkpt lat="44.56147" lon="4.63376">
        <ele>396.60000610352</ele>
        <time>2019-08-04T09:22:50Z</time>
      </trkpt>
      <trkpt lat="44.56146" lon="4.63374">
        <ele>396.60000610352</ele>
        <time>2019-08-04T09:22:51Z</time>
      </trkpt>
      <trkpt lat="44.56147" lon="4.63366">
        <ele>398.39999389648</ele>
        <time>2019-08-04T09:35:30Z</time>
      </trkpt>
      <trkpt lat="44.56148" lon="4.63368">
        <ele>399.20001220703</ele>
        <time>2019-08-04T09:35:29Z</time>
      </trkpt>
      <trkpt lat="44.56148" lon="4.63371">
        <ele>399.39999389648</ele>
        <time>2019-08-04T09:35:28Z</time>
      </trkpt>
      <trkpt lat="44.56149" lon="4.63379">
        <ele>400.20001220703</ele>
        <time>2019-08-04T09:35:26Z</time>
      </trkpt>
      <trkpt lat="44.56148" lon="4.63384">
        <ele>400.39999389648</ele>
        <time>2019-08-04T09:35:25Z</time>
      </trkpt>
      <trkpt lat="44.56146" lon="4.63388">
        <ele>400.39999389648</ele>
        <time>2019-08-04T09:35:24Z</time>
      </trkpt>
      <trkpt lat="44.56139" lon="4.63396">
        <ele>400.79998779297</ele>
        <time>2019-08-04T09:35:22Z</time>
      </trkpt>
      <trkpt lat="44.56134" lon="4.634">
        <ele>401</ele>
        <time>2019-08-04T09:35:21Z</time>
      </trkpt>
      <trkpt lat="44.56129" lon="4.63404">
        <ele>401.39999389648</ele>
        <time>2019-08-04T09:35:20Z</time>
      </trkpt>
      <trkpt lat="44.56125" lon="4.63408">
        <ele>402</ele>
        <time>2019-08-04T09:35:19Z</time>
      </trkpt>
      <trkpt lat="44.56121" lon="4.63411">
        <ele>402.39999389648</ele>
        <time>2019-08-04T09:35:18Z</time>
      </trkpt>
      <trkpt lat="44.56112" lon="4.63416">
        <ele>402.79998779297</ele>
        <time>2019-08-04T09:35:16Z</time>
      </trkpt>
      <trkpt lat="44.56103" lon="4.63421">
        <ele>403.20001220703</ele>
        <time>2019-08-04T09:35:14Z</time>
      </trkpt>
      <trkpt lat="44.56099" lon="4.63423">
        <ele>403.39999389648</ele>
        <time>2019-08-04T09:35:13Z</time>
      </trkpt>
      <trkpt lat="44.56094" lon="4.63425">
        <ele>403.79998779297</ele>
        <time>2019-08-04T09:35:12Z</time>
      </trkpt>
      <trkpt lat="44.5609" lon="4.63428">
        <ele>404.20001220703</ele>
        <time>2019-08-04T09:35:11Z</time>
      </trkpt>
      <trkpt lat="44.56086" lon="4.6343">
        <ele>404.20001220703</ele>
        <time>2019-08-04T09:35:10Z</time>
      </trkpt>
      <trkpt lat="44.56078" lon="4.63435">
        <ele>404.39999389648</ele>
        <time>2019-08-04T09:35:08Z</time>
      </trkpt>
      <trkpt lat="44.5607" lon="4.6344">
        <ele>404.79998779297</ele>
        <time>2019-08-04T09:35:06Z</time>
      </trkpt>
      <trkpt lat="44.56065" lon="4.63443">
        <ele>404.79998779297</ele>
        <time>2019-08-04T09:35:05Z</time>
      </trkpt>
      <trkpt lat="44.56061" lon="4.63445">
        <ele>405</ele>
        <time>2019-08-04T09:35:04Z</time>
      </trkpt>
      <trkpt lat="44.56054" lon="4.6345">
        <ele>405.39999389648</ele>
        <time>2019-08-04T09:35:02Z</time>
      </trkpt>
      <trkpt lat="44.56051" lon="4.63451">
        <ele>405.39999389648</ele>
        <time>2019-08-04T09:35:01Z</time>
      </trkpt>
      <trkpt lat="44.56047" lon="4.63453">
        <ele>405.60000610352</ele>
        <time>2019-08-04T09:35:00Z</time>
      </trkpt>
      <trkpt lat="44.56044" lon="4.63455">
        <ele>405.60000610352</ele>
        <time>2019-08-04T09:34:59Z</time>
      </trkpt>
      <trkpt lat="44.5604" lon="4.63457">
        <ele>405.79998779297</ele>
        <time>2019-08-04T09:34:58Z</time>
      </trkpt>
      <trkpt lat="44.56034" lon="4.6346">
        <ele>405.79998779297</ele>
        <time>2019-08-04T09:34:56Z</time>
      </trkpt>
      <trkpt lat="44.56028" lon="4.63462">
        <ele>405.79998779297</ele>
        <time>2019-08-04T09:34:54Z</time>
      </trkpt>
      <trkpt lat="44.56025" lon="4.63463">
        <ele>406</ele>
        <time>2019-08-04T09:34:53Z</time>
      </trkpt>
      <trkpt lat="44.56023" lon="4.63464">
        <ele>406</ele>
        <time>2019-08-04T09:34:52Z</time>
      </trkpt>
      <trkpt lat="44.5602" lon="4.63465">
        <ele>406.20001220703</ele>
        <time>2019-08-04T09:34:50Z</time>
      </trkpt>
      <trkpt lat="44.56018" lon="4.63465">
        <ele>406.20001220703</ele>
        <time>2019-08-04T09:34:49Z</time>
      </trkpt>
      <trkpt lat="44.56016" lon="4.63465">
        <ele>406.20001220703</ele>
        <time>2019-08-04T09:34:48Z</time>
      </trkpt>
      <trkpt lat="44.56015" lon="4.63465">
        <ele>406.60000610352</ele>
        <time>2019-08-04T09:34:46Z</time>
      </trkpt>
      <trkpt lat="44.56013" lon="4.63465">
        <ele>407</ele>
        <time>2019-08-04T09:34:44Z</time>
      </trkpt>
      <trkpt lat="44.56008" lon="4.63467">
        <ele>407.79998779297</ele>
        <time>2019-08-04T09:34:42Z</time>
      </trkpt>
      <trkpt lat="44.55999" lon="4.63471">
        <ele>408.60000610352</ele>
        <time>2019-08-04T09:34:40Z</time>
      </trkpt>
      <trkpt lat="44.55995" lon="4.63473">
        <ele>408.79998779297</ele>
        <time>2019-08-04T09:34:39Z</time>
      </trkpt>
      <trkpt lat="44.5599" lon="4.63476">
        <ele>409.20001220703</ele>
        <time>2019-08-04T09:34:38Z</time>
      </trkpt>
      <trkpt lat="44.55979" lon="4.63481">
        <ele>409.39999389648</ele>
        <time>2019-08-04T09:34:36Z</time>
      </trkpt>
      <trkpt lat="44.55969" lon="4.63484">
        <ele>409.79998779297</ele>
        <time>2019-08-04T09:34:34Z</time>
      </trkpt>
      <trkpt lat="44.55964" lon="4.63485">
        <ele>410.20001220703</ele>
        <time>2019-08-04T09:34:33Z</time>
      </trkpt>
      <trkpt lat="44.55959" lon="4.63486">
        <ele>410.20001220703</ele>
        <time>2019-08-04T09:34:32Z</time>
      </trkpt>
      <trkpt lat="44.55955" lon="4.63487">
        <ele>410.39999389648</ele>
        <time>2019-08-04T09:34:31Z</time>
      </trkpt>
      <trkpt lat="44.55951" lon="4.63489">
        <ele>410.20001220703</ele>
        <time>2019-08-04T09:34:30Z</time>
      </trkpt>
      <trkpt lat="44.55947" lon="4.63491">
        <ele>410.39999389648</ele>
        <time>2019-08-04T09:34:29Z</time>
      </trkpt>
      <trkpt lat="44.55944" lon="4.63494">
        <ele>410.39999389648</ele>
        <time>2019-08-04T09:34:28Z</time>
      </trkpt>
      <trkpt lat="44.55938" lon="4.63501">
        <ele>410.79998779297</ele>
        <time>2019-08-04T09:34:26Z</time>
      </trkpt>
      <trkpt lat="44.55933" lon="4.63509">
        <ele>411.60000610352</ele>
        <time>2019-08-04T09:34:24Z</time>
      </trkpt>
      <trkpt lat="44.5593" lon="4.63512">
        <ele>412</ele>
        <time>2019-08-04T09:34:23Z</time>
      </trkpt>
      <trkpt lat="44.55927" lon="4.63514">
        <ele>412.39999389648</ele>
        <time>2019-08-04T09:34:22Z</time>
      </trkpt>
      <trkpt lat="44.55923" lon="4.63516">
        <ele>412.79998779297</ele>
        <time>2019-08-04T09:34:21Z</time>
      </trkpt>
      <trkpt lat="44.5592" lon="4.63517">
        <ele>413.20001220703</ele>
        <time>2019-08-04T09:34:20Z</time>
      </trkpt>
      <trkpt lat="44.55914" lon="4.63523">
        <ele>414</ele>
        <time>2019-08-04T09:34:18Z</time>
      </trkpt>
      <trkpt lat="44.55908" lon="4.6353">
        <ele>416.20001220703</ele>
        <time>2019-08-04T09:34:16Z</time>
      </trkpt>
      <trkpt lat="44.55903" lon="4.63537">
        <ele>419</ele>
        <time>2019-08-04T09:34:14Z</time>
      </trkpt>
      <trkpt lat="44.55898" lon="4.63542">
        <ele>420</ele>
        <time>2019-08-04T09:34:12Z</time>
      </trkpt>
      <trkpt lat="44.55891" lon="4.63544">
        <ele>421.60000610352</ele>
        <time>2019-08-04T09:34:10Z</time>
      </trkpt>
      <trkpt lat="44.55888" lon="4.63545">
        <ele>422</ele>
        <time>2019-08-04T09:34:09Z</time>
      </trkpt>
      <trkpt lat="44.55883" lon="4.63546">
        <ele>422.39999389648</ele>
        <time>2019-08-04T09:34:08Z</time>
      </trkpt>
      <trkpt lat="44.55878" lon="4.63548">
        <ele>423</ele>
        <time>2019-08-04T09:34:07Z</time>
      </trkpt>
      <trkpt lat="44.55874" lon="4.63551">
        <ele>423.39999389648</ele>
        <time>2019-08-04T09:34:06Z</time>
      </trkpt>
      <trkpt lat="44.55869" lon="4.63554">
        <ele>424</ele>
        <time>2019-08-04T09:34:05Z</time>
      </trkpt>
      <trkpt lat="44.55865" lon="4.63558">
        <ele>424.60000610352</ele>
        <time>2019-08-04T09:34:04Z</time>
      </trkpt>
      <trkpt lat="44.55859" lon="4.63563">
        <ele>425.39999389648</ele>
        <time>2019-08-04T09:34:02Z</time>
      </trkpt>
      <trkpt lat="44.55853" lon="4.63568">
        <ele>427</ele>
        <time>2019-08-04T09:34:00Z</time>
      </trkpt>
      <trkpt lat="44.55851" lon="4.6357">
        <ele>428.60000610352</ele>
        <time>2019-08-04T09:33:59Z</time>
      </trkpt>
      <trkpt lat="44.55848" lon="4.63572">
        <ele>429.20001220703</ele>
        <time>2019-08-04T09:33:58Z</time>
      </trkpt>
      <trkpt lat="44.55843" lon="4.63578">
        <ele>430.79998779297</ele>
        <time>2019-08-04T09:33:56Z</time>
      </trkpt>
      <trkpt lat="44.55837" lon="4.63584">
        <ele>431.79998779297</ele>
        <time>2019-08-04T09:33:54Z</time>
      </trkpt>
      <trkpt lat="44.55833" lon="4.63588">
        <ele>432.20001220703</ele>
        <time>2019-08-04T09:33:53Z</time>
      </trkpt>
      <trkpt lat="44.55829" lon="4.63592">
        <ele>433</ele>
        <time>2019-08-04T09:33:52Z</time>
      </trkpt>
      <trkpt lat="44.55826" lon="4.63596">
        <ele>433.60000610352</ele>
        <time>2019-08-04T09:33:51Z</time>
      </trkpt>
      <trkpt lat="44.55822" lon="4.63601">
        <ele>434.20001220703</ele>
        <time>2019-08-04T09:33:50Z</time>
      </trkpt>
      <trkpt lat="44.55816" lon="4.63611">
        <ele>435.39999389648</ele>
        <time>2019-08-04T09:33:48Z</time>
      </trkpt>
      <trkpt lat="44.55813" lon="4.63615">
        <ele>435.79998779297</ele>
        <time>2019-08-04T09:33:47Z</time>
      </trkpt>
      <trkpt lat="44.5581" lon="4.6362">
        <ele>436.39999389648</ele>
        <time>2019-08-04T09:33:46Z</time>
      </trkpt>
      <trkpt lat="44.55806" lon="4.63624">
        <ele>437.20001220703</ele>
        <time>2019-08-04T09:33:45Z</time>
      </trkpt>
      <trkpt lat="44.55803" lon="4.63629">
        <ele>438.20001220703</ele>
        <time>2019-08-04T09:33:44Z</time>
      </trkpt>
      <trkpt lat="44.55799" lon="4.63633">
        <ele>439</ele>
        <time>2019-08-04T09:33:43Z</time>
      </trkpt>
      <trkpt lat="44.55796" lon="4.63638">
        <ele>439.79998779297</ele>
        <time>2019-08-04T09:33:42Z</time>
      </trkpt>
      <trkpt lat="44.55794" lon="4.63643">
        <ele>440.20001220703</ele>
        <time>2019-08-04T09:33:41Z</time>
      </trkpt>
      <trkpt lat="44.55791" lon="4.63649">
        <ele>440.39999389648</ele>
        <time>2019-08-04T09:33:40Z</time>
      </trkpt>
      <trkpt lat="44.55787" lon="4.63655">
        <ele>440.60000610352</ele>
        <time>2019-08-04T09:33:39Z</time>
      </trkpt>
      <trkpt lat="44.55783" lon="4.6366">
        <ele>440.79998779297</ele>
        <time>2019-08-04T09:33:38Z</time>
      </trkpt>
      <trkpt lat="44.5578" lon="4.63665">
        <ele>440.79998779297</ele>
        <time>2019-08-04T09:33:37Z</time>
      </trkpt>
      <trkpt lat="44.55776" lon="4.63671">
        <ele>440.79998779297</ele>
        <time>2019-08-04T09:33:36Z</time>
      </trkpt>
      <trkpt lat="44.55773" lon="4.63677">
        <ele>440.79998779297</ele>
        <time>2019-08-04T09:33:35Z</time>
      </trkpt>
      <trkpt lat="44.55771" lon="4.63683">
        <ele>441</ele>
        <time>2019-08-04T09:33:34Z</time>
      </trkpt>
      <trkpt lat="44.55768" lon="4.63694">
        <ele>440.79998779297</ele>
        <time>2019-08-04T09:33:32Z</time>
      </trkpt>
      <trkpt lat="44.55766" lon="4.63702">
        <ele>440.79998779297</ele>
        <time>2019-08-04T09:33:30Z</time>
      </trkpt>
      <trkpt lat="44.55764" lon="4.63708">
        <ele>440.20001220703</ele>
        <time>2019-08-04T09:33:28Z</time>
      </trkpt>
      <trkpt lat="44.55763" lon="4.6371">
        <ele>439.79998779297</ele>
        <time>2019-08-04T09:33:27Z</time>
      </trkpt>
      <trkpt lat="44.55762" lon="4.63712">
        <ele>439.60000610352</ele>
        <time>2019-08-04T09:33:26Z</time>
      </trkpt>
      <trkpt lat="44.55761" lon="4.63716">
        <ele>438.79998779297</ele>
        <time>2019-08-04T09:33:24Z</time>
      </trkpt>
      <trkpt lat="44.5576" lon="4.63718">
        <ele>438.60000610352</ele>
        <time>2019-08-04T09:33:23Z</time>
      </trkpt>
      <trkpt lat="44.5576" lon="4.63721">
        <ele>438.60000610352</ele>
        <time>2019-08-04T09:33:22Z</time>
      </trkpt>
      <trkpt lat="44.5576" lon="4.63724">
        <ele>438.20001220703</ele>
        <time>2019-08-04T09:33:21Z</time>
      </trkpt>
      <trkpt lat="44.5576" lon="4.63727">
        <ele>438.20001220703</ele>
        <time>2019-08-04T09:33:20Z</time>
      </trkpt>
      <trkpt lat="44.55759" lon="4.63733">
        <ele>437.79998779297</ele>
        <time>2019-08-04T09:33:18Z</time>
      </trkpt>
      <trkpt lat="44.55759" lon="4.6374">
        <ele>437.39999389648</ele>
        <time>2019-08-04T09:33:16Z</time>
      </trkpt>
      <trkpt lat="44.55759" lon="4.63743">
        <ele>437.20001220703</ele>
        <time>2019-08-04T09:33:15Z</time>
      </trkpt>
      <trkpt lat="44.55759" lon="4.63747">
        <ele>437</ele>
        <time>2019-08-04T09:33:14Z</time>
      </trkpt>
      <trkpt lat="44.5576" lon="4.63754">
        <ele>436.39999389648</ele>
        <time>2019-08-04T09:33:12Z</time>
      </trkpt>
      <trkpt lat="44.5576" lon="4.6376">
        <ele>435.79998779297</ele>
        <time>2019-08-04T09:33:10Z</time>
      </trkpt>
      <trkpt lat="44.5576" lon="4.63766">
        <ele>435.39999389648</ele>
        <time>2019-08-04T09:33:08Z</time>
      </trkpt>
      <trkpt lat="44.5576" lon="4.63773">
        <ele>435</ele>
        <time>2019-08-04T09:33:06Z</time>
      </trkpt>
      <trkpt lat="44.55761" lon="4.63779">
        <ele>435</ele>
        <time>2019-08-04T09:33:04Z</time>
      </trkpt>
      <trkpt lat="44.55761" lon="4.63785">
        <ele>435.20001220703</ele>
        <time>2019-08-04T09:33:02Z</time>
      </trkpt>
      <trkpt lat="44.5576" lon="4.63792">
        <ele>435.20001220703</ele>
        <time>2019-08-04T09:33:00Z</time>
      </trkpt>
      <trkpt lat="44.5576" lon="4.63798">
        <ele>435.20001220703</ele>
        <time>2019-08-04T09:32:58Z</time>
      </trkpt>
      <trkpt lat="44.5576" lon="4.63805">
        <ele>435</ele>
        <time>2019-08-04T09:32:56Z</time>
      </trkpt>
      <trkpt lat="44.5576" lon="4.63813">
        <ele>435.39999389648</ele>
        <time>2019-08-04T09:32:54Z</time>
      </trkpt>
      <trkpt lat="44.5576" lon="4.63817">
        <ele>435.39999389648</ele>
        <time>2019-08-04T09:32:53Z</time>
      </trkpt>
      <trkpt lat="44.5576" lon="4.63821">
        <ele>435.39999389648</ele>
        <time>2019-08-04T09:32:52Z</time>
      </trkpt>
      <trkpt lat="44.5576" lon="4.63829">
        <ele>435.60000610352</ele>
        <time>2019-08-04T09:32:50Z</time>
      </trkpt>
      <trkpt lat="44.55761" lon="4.63837">
        <ele>435.79998779297</ele>
        <time>2019-08-04T09:32:48Z</time>
      </trkpt>
      <trkpt lat="44.55762" lon="4.63846">
        <ele>435.79998779297</ele>
        <time>2019-08-04T09:32:46Z</time>
      </trkpt>
      <trkpt lat="44.55763" lon="4.63855">
        <ele>435.79998779297</ele>
        <time>2019-08-04T09:32:44Z</time>
      </trkpt>
      <trkpt lat="44.55764" lon="4.63859">
        <ele>436</ele>
        <time>2019-08-04T09:32:43Z</time>
      </trkpt>
      <trkpt lat="44.55764" lon="4.63862">
        <ele>436</ele>
        <time>2019-08-04T09:32:42Z</time>
      </trkpt>
      <trkpt lat="44.55763" lon="4.63869">
        <ele>436</ele>
        <time>2019-08-04T09:32:40Z</time>
      </trkpt>
      <trkpt lat="44.55763" lon="4.63874">
        <ele>436</ele>
        <time>2019-08-04T09:32:38Z</time>
      </trkpt>
      <trkpt lat="44.55762" lon="4.63876">
        <ele>436</ele>
        <time>2019-08-04T09:32:37Z</time>
      </trkpt>
      <trkpt lat="44.55762" lon="4.63878">
        <ele>435.79998779297</ele>
        <time>2019-08-04T09:32:36Z</time>
      </trkpt>
      <trkpt lat="44.55761" lon="4.63879">
        <ele>436</ele>
        <time>2019-08-04T09:32:34Z</time>
      </trkpt>
      <trkpt lat="44.55761" lon="4.63879">
        <ele>436</ele>
        <time>2019-08-04T09:32:32Z</time>
      </trkpt>
      <trkpt lat="44.55761" lon="4.63879">
        <ele>436</ele>
        <time>2019-08-04T09:32:30Z</time>
      </trkpt>
      <trkpt lat="44.55761" lon="4.63879">
        <ele>436</ele>
        <time>2019-08-04T09:32:28Z</time>
      </trkpt>
      <trkpt lat="44.55761" lon="4.63879">
        <ele>436</ele>
        <time>2019-08-04T09:32:26Z</time>
      </trkpt>
      <trkpt lat="44.55761" lon="4.63879">
        <ele>436.20001220703</ele>
        <time>2019-08-04T09:32:24Z</time>
      </trkpt>
      <trkpt lat="44.55761" lon="4.63879">
        <ele>436</ele>
        <time>2019-08-04T09:32:22Z</time>
      </trkpt>
      <trkpt lat="44.5576" lon="4.63879">
        <ele>436.20001220703</ele>
        <time>2019-08-04T09:32:20Z</time>
      </trkpt>
      <trkpt lat="44.5576" lon="4.63879">
        <ele>436</ele>
        <time>2019-08-04T09:32:18Z</time>
      </trkpt>
      <trkpt lat="44.5576" lon="4.63879">
        <ele>436</ele>
        <time>2019-08-04T09:32:16Z</time>
      </trkpt>
      <trkpt lat="44.5576" lon="4.63879">
        <ele>436</ele>
        <time>2019-08-04T09:32:14Z</time>
      </trkpt>
      <trkpt lat="44.5576" lon="4.63879">
        <ele>435.79998779297</ele>
        <time>2019-08-04T09:32:12Z</time>
      </trkpt>
      <trkpt lat="44.5576" lon="4.63879">
        <ele>435.79998779297</ele>
        <time>2019-08-04T09:32:10Z</time>
      </trkpt>
      <trkpt lat="44.55761" lon="4.63879">
        <ele>435.79998779297</ele>
        <time>2019-08-04T09:32:08Z</time>
      </trkpt>
      <trkpt lat="44.5576" lon="4.63879">
        <ele>436</ele>
        <time>2019-08-04T09:32:06Z</time>
      </trkpt>
      <trkpt lat="44.5576" lon="4.63879">
        <ele>436</ele>
        <time>2019-08-04T09:32:04Z</time>
      </trkpt>
      <trkpt lat="44.55761" lon="4.63879">
        <ele>435.79998779297</ele>
        <time>2019-08-04T09:32:02Z</time>
      </trkpt>
      <trkpt lat="44.55761" lon="4.63879">
        <ele>435.79998779297</ele>
        <time>2019-08-04T09:32:00Z</time>
      </trkpt>
      <trkpt lat="44.55761" lon="4.63879">
        <ele>435.79998779297</ele>
        <time>2019-08-04T09:31:58Z</time>
      </trkpt>
      <trkpt lat="44.5576" lon="4.63879">
        <ele>436</ele>
        <time>2019-08-04T09:31:56Z</time>
      </trkpt>
      <trkpt lat="44.5576" lon="4.63879">
        <ele>436</ele>
        <time>2019-08-04T09:31:54Z</time>
      </trkpt>
      <trkpt lat="44.5576" lon="4.63879">
        <ele>435.79998779297</ele>
        <time>2019-08-04T09:31:52Z</time>
      </trkpt>
      <trkpt lat="44.5576" lon="4.63879">
        <ele>435.79998779297</ele>
        <time>2019-08-04T09:31:50Z</time>
      </trkpt>
      <trkpt lat="44.5576" lon="4.63879">
        <ele>436</ele>
        <time>2019-08-04T09:31:48Z</time>
      </trkpt>
      <trkpt lat="44.5576" lon="4.63879">
        <ele>435.79998779297</ele>
        <time>2019-08-04T09:31:46Z</time>
      </trkpt>
      <trkpt lat="44.5576" lon="4.63879">
        <ele>435.79998779297</ele>
        <time>2019-08-04T09:31:44Z</time>
      </trkpt>
      <trkpt lat="44.5576" lon="4.63879">
        <ele>435.79998779297</ele>
        <time>2019-08-04T09:31:42Z</time>
      </trkpt>
      <trkpt lat="44.5576" lon="4.63879">
        <ele>435.79998779297</ele>
        <time>2019-08-04T09:31:40Z</time>
      </trkpt>
      <trkpt lat="44.5576" lon="4.63879">
        <ele>435.79998779297</ele>
        <time>2019-08-04T09:31:38Z</time>
      </trkpt>
      <trkpt lat="44.5576" lon="4.63879">
        <ele>435.79998779297</ele>
        <time>2019-08-04T09:31:36Z</time>
      </trkpt>
      <trkpt lat="44.5576" lon="4.63878">
        <ele>435.79998779297</ele>
        <time>2019-08-04T09:31:34Z</time>
      </trkpt>
      <trkpt lat="44.5576" lon="4.63879">
        <ele>435.79998779297</ele>
        <time>2019-08-04T09:31:32Z</time>
      </trkpt>
      <trkpt lat="44.55761" lon="4.63879">
        <ele>435.79998779297</ele>
        <time>2019-08-04T09:31:30Z</time>
      </trkpt>
      <trkpt lat="44.55761" lon="4.63879">
        <ele>435.79998779297</ele>
        <time>2019-08-04T09:31:28Z</time>
      </trkpt>
      <trkpt lat="44.55761" lon="4.63879">
        <ele>435.79998779297</ele>
        <time>2019-08-04T09:31:26Z</time>
      </trkpt>
      <trkpt lat="44.55761" lon="4.63879">
        <ele>435.79998779297</ele>
        <time>2019-08-04T09:31:24Z</time>
      </trkpt>
      <trkpt lat="44.55761" lon="4.63879">
        <ele>435.79998779297</ele>
        <time>2019-08-04T09:31:22Z</time>
      </trkpt>
      <trkpt lat="44.55761" lon="4.63879">
        <ele>435.79998779297</ele>
        <time>2019-08-04T09:31:20Z</time>
      </trkpt>
      <trkpt lat="44.55761" lon="4.63879">
        <ele>435.60000610352</ele>
        <time>2019-08-04T09:31:18Z</time>
      </trkpt>
      <trkpt lat="44.55761" lon="4.63879">
        <ele>435.79998779297</ele>
        <time>2019-08-04T09:31:16Z</time>
      </trkpt>
      <trkpt lat="44.55761" lon="4.63879">
        <ele>435.60000610352</ele>
        <time>2019-08-04T09:31:14Z</time>
      </trkpt>
      <trkpt lat="44.55761" lon="4.63879">
        <ele>435.20001220703</ele>
        <time>2019-08-04T09:31:12Z</time>
      </trkpt>
      <trkpt lat="44.55761" lon="4.63879">
        <ele>435.20001220703</ele>
        <time>2019-08-04T09:31:10Z</time>
      </trkpt>
      <trkpt lat="44.55761" lon="4.63879">
        <ele>435</ele>
        <time>2019-08-04T09:31:08Z</time>
      </trkpt>
      <trkpt lat="44.55761" lon="4.63879">
        <ele>434.60000610352</ele>
        <time>2019-08-04T09:31:06Z</time>
      </trkpt>
      <trkpt lat="44.55761" lon="4.63879">
        <ele>434.60000610352</ele>
        <time>2019-08-04T09:31:05Z</time>
      </trkpt>
      <trkpt lat="44.55761" lon="4.63879">
        <ele>434.39999389648</ele>
        <time>2019-08-04T09:31:04Z</time>
      </trkpt>
      <trkpt lat="44.55759" lon="4.6388">
        <ele>434.20001220703</ele>
        <time>2019-08-04T09:31:02Z</time>
      </trkpt>
      <trkpt lat="44.55756" lon="4.63883">
        <ele>434</ele>
        <time>2019-08-04T09:31:00Z</time>
      </trkpt>
      <trkpt lat="44.55754" lon="4.63886">
        <ele>433.60000610352</ele>
        <time>2019-08-04T09:30:58Z</time>
      </trkpt>
      <trkpt lat="44.55753" lon="4.63888">
        <ele>433.39999389648</ele>
        <time>2019-08-04T09:30:57Z</time>
      </trkpt>
      <trkpt lat="44.55752" lon="4.6389">
        <ele>433.20001220703</ele>
        <time>2019-08-04T09:30:56Z</time>
      </trkpt>
      <trkpt lat="44.55749" lon="4.63893">
        <ele>433</ele>
        <time>2019-08-04T09:30:54Z</time>
      </trkpt>
      <trkpt lat="44.55746" lon="4.63896">
        <ele>432.60000610352</ele>
        <time>2019-08-04T09:30:52Z</time>
      </trkpt>
      <trkpt lat="44.55745" lon="4.63898">
        <ele>432.39999389648</ele>
        <time>2019-08-04T09:30:51Z</time>
      </trkpt>
      <trkpt lat="44.55743" lon="4.639">
        <ele>432.20001220703</ele>
        <time>2019-08-04T09:30:50Z</time>
      </trkpt>
      <trkpt lat="44.55742" lon="4.63903">
        <ele>432</ele>
        <time>2019-08-04T09:30:49Z</time>
      </trkpt>
      <trkpt lat="44.55741" lon="4.63905">
        <ele>431.60000610352</ele>
        <time>2019-08-04T09:30:48Z</time>
      </trkpt>
      <trkpt lat="44.5574" lon="4.63909">
        <ele>431</ele>
        <time>2019-08-04T09:30:46Z</time>
      </trkpt>
      <trkpt lat="44.55738" lon="4.63915">
        <ele>430.39999389648</ele>
        <time>2019-08-04T09:30:44Z</time>
      </trkpt>
      <trkpt lat="44.55737" lon="4.63917">
        <ele>430.20001220703</ele>
        <time>2019-08-04T09:30:43Z</time>
      </trkpt>
      <trkpt lat="44.55736" lon="4.6392">
        <ele>430.20001220703</ele>
        <time>2019-08-04T09:30:42Z</time>
      </trkpt>
      <trkpt lat="44.55734" lon="4.63924">
        <ele>429.60000610352</ele>
        <time>2019-08-04T09:30:40Z</time>
      </trkpt>
      <trkpt lat="44.55733" lon="4.63925">
        <ele>429.39999389648</ele>
        <time>2019-08-04T09:30:39Z</time>
      </trkpt>
      <trkpt lat="44.55731" lon="4.63927">
        <ele>429.39999389648</ele>
        <time>2019-08-04T09:30:38Z</time>
      </trkpt>
      <trkpt lat="44.5573" lon="4.63929">
        <ele>429.39999389648</ele>
        <time>2019-08-04T09:30:37Z</time>
      </trkpt>
      <trkpt lat="44.55728" lon="4.6393">
        <ele>429.39999389648</ele>
        <time>2019-08-04T09:30:36Z</time>
      </trkpt>
      <trkpt lat="44.55725" lon="4.63932">
        <ele>429.20001220703</ele>
        <time>2019-08-04T09:30:34Z</time>
      </trkpt>
      <trkpt lat="44.55723" lon="4.63935">
        <ele>428.79998779297</ele>
        <time>2019-08-04T09:30:32Z</time>
      </trkpt>
      <trkpt lat="44.55722" lon="4.63936">
        <ele>428.60000610352</ele>
        <time>2019-08-04T09:30:31Z</time>
      </trkpt>
      <trkpt lat="44.55721" lon="4.63939">
        <ele>428.39999389648</ele>
        <time>2019-08-04T09:30:30Z</time>
      </trkpt>
      <trkpt lat="44.5572" lon="4.63943">
        <ele>428</ele>
        <time>2019-08-04T09:30:28Z</time>
      </trkpt>
      <trkpt lat="44.55719" lon="4.63947">
        <ele>427.20001220703</ele>
        <time>2019-08-04T09:30:26Z</time>
      </trkpt>
      <trkpt lat="44.55717" lon="4.63952">
        <ele>426.79998779297</ele>
        <time>2019-08-04T09:30:24Z</time>
      </trkpt>
      <trkpt lat="44.55716" lon="4.63957">
        <ele>426</ele>
        <time>2019-08-04T09:30:22Z</time>
      </trkpt>
      <trkpt lat="44.55716" lon="4.63961">
        <ele>425.20001220703</ele>
        <time>2019-08-04T09:30:20Z</time>
      </trkpt>
      <trkpt lat="44.55716" lon="4.63966">
        <ele>423.60000610352</ele>
        <time>2019-08-04T09:30:18Z</time>
      </trkpt>
      <trkpt lat="44.55717" lon="4.6397">
        <ele>422.79998779297</ele>
        <time>2019-08-04T09:30:16Z</time>
      </trkpt>
      <trkpt lat="44.55718" lon="4.63972">
        <ele>422.39999389648</ele>
        <time>2019-08-04T09:30:15Z</time>
      </trkpt>
      <trkpt lat="44.55719" lon="4.63974">
        <ele>422.20001220703</ele>
        <time>2019-08-04T09:30:14Z</time>
      </trkpt>
      <trkpt lat="44.5572" lon="4.63978">
        <ele>421.39999389648</ele>
        <time>2019-08-04T09:30:12Z</time>
      </trkpt>
      <trkpt lat="44.5572" lon="4.6398">
        <ele>421</ele>
        <time>2019-08-04T09:30:11Z</time>
      </trkpt>
      <trkpt lat="44.5572" lon="4.63982">
        <ele>420.60000610352</ele>
        <time>2019-08-04T09:30:10Z</time>
      </trkpt>
      <trkpt lat="44.55721" lon="4.63987">
        <ele>419.79998779297</ele>
        <time>2019-08-04T09:30:08Z</time>
      </trkpt>
      <trkpt lat="44.55721" lon="4.63989">
        <ele>419.60000610352</ele>
        <time>2019-08-04T09:30:07Z</time>
      </trkpt>
      <trkpt lat="44.55722" lon="4.63991">
        <ele>419.60000610352</ele>
        <time>2019-08-04T09:30:06Z</time>
      </trkpt>
      <trkpt lat="44.55723" lon="4.63993">
        <ele>419.60000610352</ele>
        <time>2019-08-04T09:30:04Z</time>
      </trkpt>
      <trkpt lat="44.55723" lon="4.63995">
        <ele>419.39999389648</ele>
        <time>2019-08-04T09:30:03Z</time>
      </trkpt>
      <trkpt lat="44.55723" lon="4.63997">
        <ele>419.60000610352</ele>
        <time>2019-08-04T09:30:02Z</time>
      </trkpt>
      <trkpt lat="44.55722" lon="4.64001">
        <ele>419.60000610352</ele>
        <time>2019-08-04T09:30:00Z</time>
      </trkpt>
      <trkpt lat="44.55721" lon="4.64004">
        <ele>419.60000610352</ele>
        <time>2019-08-04T09:29:58Z</time>
      </trkpt>
      <trkpt lat="44.5572" lon="4.64005">
        <ele>419.39999389648</ele>
        <time>2019-08-04T09:29:56Z</time>
      </trkpt>
      <trkpt lat="44.5572" lon="4.64005">
        <ele>419.39999389648</ele>
        <time>2019-08-04T09:29:55Z</time>
      </trkpt>
      <trkpt lat="44.5572" lon="4.64004">
        <ele>419.39999389648</ele>
        <time>2019-08-04T09:29:54Z</time>
      </trkpt>
      <trkpt lat="44.5572" lon="4.64005">
        <ele>419</ele>
        <time>2019-08-04T09:29:52Z</time>
      </trkpt>
      <trkpt lat="44.5572" lon="4.64005">
        <ele>418.79998779297</ele>
        <time>2019-08-04T09:29:50Z</time>
      </trkpt>
      <trkpt lat="44.5572" lon="4.64005">
        <ele>418</ele>
        <time>2019-08-04T09:29:48Z</time>
      </trkpt>
      <trkpt lat="44.5572" lon="4.64005">
        <ele>418</ele>
        <time>2019-08-04T09:29:46Z</time>
      </trkpt>
      <trkpt lat="44.5572" lon="4.64005">
        <ele>417.39999389648</ele>
        <time>2019-08-04T09:29:44Z</time>
      </trkpt>
      <trkpt lat="44.5572" lon="4.64005">
        <ele>417.39999389648</ele>
        <time>2019-08-04T09:29:43Z</time>
      </trkpt>
      <trkpt lat="44.5572" lon="4.64006">
        <ele>416.79998779297</ele>
        <time>2019-08-04T09:29:42Z</time>
      </trkpt>
      <trkpt lat="44.5572" lon="4.64007">
        <ele>416.39999389648</ele>
        <time>2019-08-04T09:29:40Z</time>
      </trkpt>
      <trkpt lat="44.5572" lon="4.64008">
        <ele>416.20001220703</ele>
        <time>2019-08-04T09:29:38Z</time>
      </trkpt>
      <trkpt lat="44.55719" lon="4.64009">
        <ele>416</ele>
        <time>2019-08-04T09:29:37Z</time>
      </trkpt>
      <trkpt lat="44.55719" lon="4.6401">
        <ele>415.60000610352</ele>
        <time>2019-08-04T09:29:36Z</time>
      </trkpt>
      <trkpt lat="44.55718" lon="4.64012">
        <ele>415.20001220703</ele>
        <time>2019-08-04T09:29:34Z</time>
      </trkpt>
      <trkpt lat="44.55718" lon="4.64014">
        <ele>414.60000610352</ele>
        <time>2019-08-04T09:29:32Z</time>
      </trkpt>
      <trkpt lat="44.55716" lon="4.64015">
        <ele>414.60000610352</ele>
        <time>2019-08-04T09:29:30Z</time>
      </trkpt>
      <trkpt lat="44.55715" lon="4.64017">
        <ele>414.39999389648</ele>
        <time>2019-08-04T09:29:28Z</time>
      </trkpt>
      <trkpt lat="44.55715" lon="4.64019">
        <ele>414.39999389648</ele>
        <time>2019-08-04T09:29:26Z</time>
      </trkpt>
      <trkpt lat="44.55714" lon="4.6402">
        <ele>414.39999389648</ele>
        <time>2019-08-04T09:29:25Z</time>
      </trkpt>
      <trkpt lat="44.55713" lon="4.64021">
        <ele>414.20001220703</ele>
        <time>2019-08-04T09:29:24Z</time>
      </trkpt>
      <trkpt lat="44.55712" lon="4.64022">
        <ele>414</ele>
        <time>2019-08-04T09:29:22Z</time>
      </trkpt>
      <trkpt lat="44.55711" lon="4.64024">
        <ele>413.39999389648</ele>
        <time>2019-08-04T09:29:20Z</time>
      </trkpt>
      <trkpt lat="44.55711" lon="4.64024">
        <ele>412.79998779297</ele>
        <time>2019-08-04T09:29:18Z</time>
      </trkpt>
      <trkpt lat="44.55711" lon="4.64025">
        <ele>412.60000610352</ele>
        <time>2019-08-04T09:29:16Z</time>
      </trkpt>
      <trkpt lat="44.55709" lon="4.64026">
        <ele>412</ele>
        <time>2019-08-04T09:29:14Z</time>
      </trkpt>
      <trkpt lat="44.55708" lon="4.64026">
        <ele>411.79998779297</ele>
        <time>2019-08-04T09:29:13Z</time>
      </trkpt>
      <trkpt lat="44.55708" lon="4.64027">
        <ele>411.39999389648</ele>
        <time>2019-08-04T09:29:12Z</time>
      </trkpt>
      <trkpt lat="44.55707" lon="4.64028">
        <ele>411.39999389648</ele>
        <time>2019-08-04T09:29:10Z</time>
      </trkpt>
      <trkpt lat="44.55707" lon="4.64029">
        <ele>411.20001220703</ele>
        <time>2019-08-04T09:29:09Z</time>
      </trkpt>
      <trkpt lat="44.55707" lon="4.6403">
        <ele>411.20001220703</ele>
        <time>2019-08-04T09:29:08Z</time>
      </trkpt>
      <trkpt lat="44.55707" lon="4.6403">
        <ele>410.79998779297</ele>
        <time>2019-08-04T09:29:06Z</time>
      </trkpt>
      <trkpt lat="44.55707" lon="4.64032">
        <ele>410.20001220703</ele>
        <time>2019-08-04T09:29:04Z</time>
      </trkpt>
      <trkpt lat="44.55706" lon="4.64034">
        <ele>409.39999389648</ele>
        <time>2019-08-04T09:29:02Z</time>
      </trkpt>
      <trkpt lat="44.55706" lon="4.64035">
        <ele>409.60000610352</ele>
        <time>2019-08-04T09:29:01Z</time>
      </trkpt>
      <trkpt lat="44.55706" lon="4.64036">
        <ele>409.39999389648</ele>
        <time>2019-08-04T09:29:00Z</time>
      </trkpt>
      <trkpt lat="44.55705" lon="4.64037">
        <ele>409</ele>
        <time>2019-08-04T09:28:58Z</time>
      </trkpt>
      <trkpt lat="44.55705" lon="4.64038">
        <ele>408.39999389648</ele>
        <time>2019-08-04T09:28:57Z</time>
      </trkpt>
      <trkpt lat="44.55705" lon="4.64039">
        <ele>408.20001220703</ele>
        <time>2019-08-04T09:28:56Z</time>
      </trkpt>
      <trkpt lat="44.55704" lon="4.64042">
        <ele>407.60000610352</ele>
        <time>2019-08-04T09:28:54Z</time>
      </trkpt>
      <trkpt lat="44.55705" lon="4.64046">
        <ele>407</ele>
        <time>2019-08-04T09:28:52Z</time>
      </trkpt>
      <trkpt lat="44.55707" lon="4.64048">
        <ele>406.39999389648</ele>
        <time>2019-08-04T09:28:50Z</time>
      </trkpt>
      <trkpt lat="44.55709" lon="4.6405">
        <ele>405.79998779297</ele>
        <time>2019-08-04T09:28:48Z</time>
      </trkpt>
      <trkpt lat="44.5571" lon="4.64052">
        <ele>405.60000610352</ele>
        <time>2019-08-04T09:28:46Z</time>
      </trkpt>
      <trkpt lat="44.5571" lon="4.64055">
        <ele>405.20001220703</ele>
        <time>2019-08-04T09:28:44Z</time>
      </trkpt>
      <trkpt lat="44.55708" lon="4.64059">
        <ele>404.60000610352</ele>
        <time>2019-08-04T09:28:42Z</time>
      </trkpt>
      <trkpt lat="44.55707" lon="4.64061">
        <ele>404.39999389648</ele>
        <time>2019-08-04T09:28:41Z</time>
      </trkpt>
      <trkpt lat="44.55706" lon="4.64063">
        <ele>404.39999389648</ele>
        <time>2019-08-04T09:28:40Z</time>
      </trkpt>
      <trkpt lat="44.55702" lon="4.64065">
        <ele>403.79998779297</ele>
        <time>2019-08-04T09:28:38Z</time>
      </trkpt>
      <trkpt lat="44.55698" lon="4.64066">
        <ele>403.60000610352</ele>
        <time>2019-08-04T09:28:36Z</time>
      </trkpt>
      <trkpt lat="44.55696" lon="4.64066">
        <ele>403.60000610352</ele>
        <time>2019-08-04T09:28:35Z</time>
      </trkpt>
      <trkpt lat="44.55697" lon="4.64068">
        <ele>411.39999389648</ele>
        <time>2020-05-24T08:18:47Z</time>
      </trkpt>
      <trkpt lat="44.55696" lon="4.64071">
        <ele>411.20001220703</ele>
        <time>2020-05-24T08:18:48Z</time>
      </trkpt>
      <trkpt lat="44.55695" lon="4.64073">
        <ele>410.79998779297</ele>
        <time>2020-05-24T08:18:49Z</time>
      </trkpt>
      <trkpt lat="44.55695" lon="4.64075">
        <ele>410.39999389648</ele>
        <time>2020-05-24T08:18:50Z</time>
      </trkpt>
      <trkpt lat="44.55693" lon="4.64077">
        <ele>408.39999389648</ele>
        <time>2020-05-24T08:18:54Z</time>
      </trkpt>
      <trkpt lat="44.55693" lon="4.64078">
        <ele>408.20001220703</ele>
        <time>2020-05-24T08:18:55Z</time>
      </trkpt>
      <trkpt lat="44.55692" lon="4.64078">
        <ele>407.60000610352</ele>
        <time>2020-05-24T08:18:56Z</time>
      </trkpt>
      <trkpt lat="44.55692" lon="4.64079">
        <ele>407.39999389648</ele>
        <time>2020-05-24T08:18:57Z</time>
      </trkpt>
      <trkpt lat="44.55693" lon="4.6408">
        <ele>407</ele>
        <time>2020-05-24T08:18:58Z</time>
      </trkpt>
      <trkpt lat="44.55694" lon="4.64082">
        <ele>406.79998779297</ele>
        <time>2020-05-24T08:18:59Z</time>
      </trkpt>
      <trkpt lat="44.55694" lon="4.64083">
        <ele>406.60000610352</ele>
        <time>2020-05-24T08:19:00Z</time>
      </trkpt>
      <trkpt lat="44.55695" lon="4.64084">
        <ele>406.39999389648</ele>
        <time>2020-05-24T08:19:01Z</time>
      </trkpt>
      <trkpt lat="44.55696" lon="4.64085">
        <ele>406.39999389648</ele>
        <time>2020-05-24T08:19:02Z</time>
      </trkpt>
      <trkpt lat="44.55697" lon="4.64085">
        <ele>406.20001220703</ele>
        <time>2020-05-24T08:19:03Z</time>
      </trkpt>
      <trkpt lat="44.55698" lon="4.64085">
        <ele>406.20001220703</ele>
        <time>2020-05-24T08:19:04Z</time>
      </trkpt>
      <trkpt lat="44.55699" lon="4.64085">
        <ele>406</ele>
        <time>2020-05-24T08:19:05Z</time>
      </trkpt>
      <trkpt lat="44.55699" lon="4.64085">
        <ele>405.79998779297</ele>
        <time>2020-05-24T08:19:07Z</time>
      </trkpt>
      <trkpt lat="44.55699" lon="4.64085">
        <ele>405.79998779297</ele>
        <time>2020-05-24T08:19:17Z</time>
      </trkpt>
      <trkpt lat="44.557" lon="4.64085">
        <ele>405.79998779297</ele>
        <time>2020-05-24T08:19:20Z</time>
      </trkpt>
      <trkpt lat="44.55701" lon="4.64085">
        <ele>405.79998779297</ele>
        <time>2020-05-24T08:19:21Z</time>
      </trkpt>
      <trkpt lat="44.55703" lon="4.64086">
        <ele>405.79998779297</ele>
        <time>2020-05-24T08:19:22Z</time>
      </trkpt>
      <trkpt lat="44.55704" lon="4.64088">
        <ele>406</ele>
        <time>2020-05-24T08:19:23Z</time>
      </trkpt>
      <trkpt lat="44.55706" lon="4.64089">
        <ele>406</ele>
        <time>2020-05-24T08:19:24Z</time>
      </trkpt>
      <trkpt lat="44.55707" lon="4.64093">
        <ele>405.79998779297</ele>
        <time>2020-05-24T08:19:25Z</time>
      </trkpt>
      <trkpt lat="44.55709" lon="4.64097">
        <ele>406</ele>
        <time>2020-05-24T08:19:26Z</time>
      </trkpt>
      <trkpt lat="44.5571" lon="4.64102">
        <ele>405.79998779297</ele>
        <time>2020-05-24T08:19:27Z</time>
      </trkpt>
      <trkpt lat="44.55712" lon="4.64106">
        <ele>405.79998779297</ele>
        <time>2020-05-24T08:19:28Z</time>
      </trkpt>
      <trkpt lat="44.55713" lon="4.6411">
        <ele>405.79998779297</ele>
        <time>2020-05-24T08:19:29Z</time>
      </trkpt>
      <trkpt lat="44.55716" lon="4.64113">
        <ele>405.79998779297</ele>
        <time>2020-05-24T08:19:30Z</time>
      </trkpt>
      <trkpt lat="44.55718" lon="4.64117">
        <ele>405.79998779297</ele>
        <time>2020-05-24T08:19:31Z</time>
      </trkpt>
      <trkpt lat="44.5572" lon="4.6412">
        <ele>405.60000610352</ele>
        <time>2020-05-24T08:19:32Z</time>
      </trkpt>
      <trkpt lat="44.55721" lon="4.64123">
        <ele>405.60000610352</ele>
        <time>2020-05-24T08:19:33Z</time>
      </trkpt>
      <trkpt lat="44.55722" lon="4.64126">
        <ele>405.60000610352</ele>
        <time>2020-05-24T08:19:34Z</time>
      </trkpt>
      <trkpt lat="44.55723" lon="4.64129">
        <ele>405.20001220703</ele>
        <time>2020-05-24T08:19:35Z</time>
      </trkpt>
      <trkpt lat="44.55723" lon="4.64134">
        <ele>404.79998779297</ele>
        <time>2020-05-24T08:19:36Z</time>
      </trkpt>
      <trkpt lat="44.55723" lon="4.64143">
        <ele>403.60000610352</ele>
        <time>2020-05-24T08:19:38Z</time>
      </trkpt>
      <trkpt lat="44.55723" lon="4.64149">
        <ele>402.60000610352</ele>
        <time>2020-05-24T08:19:39Z</time>
      </trkpt>
      <trkpt lat="44.55724" lon="4.64154">
        <ele>401.60000610352</ele>
        <time>2020-05-24T08:19:40Z</time>
      </trkpt>
      <trkpt lat="44.55725" lon="4.64159">
        <ele>400.79998779297</ele>
        <time>2020-05-24T08:19:41Z</time>
      </trkpt>
      <trkpt lat="44.55727" lon="4.64164">
        <ele>400.79998779297</ele>
        <time>2020-05-24T08:19:42Z</time>
      </trkpt>
      <trkpt lat="44.55727" lon="4.64169">
        <ele>400.60000610352</ele>
        <time>2020-05-24T08:19:43Z</time>
      </trkpt>
      <trkpt lat="44.55726" lon="4.64173">
        <ele>400.60000610352</ele>
        <time>2020-05-24T08:19:44Z</time>
      </trkpt>
      <trkpt lat="44.55725" lon="4.64177">
        <ele>400.20001220703</ele>
        <time>2020-05-24T08:19:45Z</time>
      </trkpt>
      <trkpt lat="44.55723" lon="4.64179">
        <ele>400</ele>
        <time>2020-05-24T08:19:46Z</time>
      </trkpt>
      <trkpt lat="44.55722" lon="4.64181">
        <ele>399.20001220703</ele>
        <time>2020-05-24T08:19:47Z</time>
      </trkpt>
      <trkpt lat="44.5572" lon="4.64183">
        <ele>398.60000610352</ele>
        <time>2020-05-24T08:19:48Z</time>
      </trkpt>
      <trkpt lat="44.55719" lon="4.64185">
        <ele>397.20001220703</ele>
        <time>2020-05-24T08:19:49Z</time>
      </trkpt>
      <trkpt lat="44.55717" lon="4.64187">
        <ele>396.60000610352</ele>
        <time>2020-05-24T08:19:50Z</time>
      </trkpt>
      <trkpt lat="44.55715" lon="4.6419">
        <ele>395.60000610352</ele>
        <time>2020-05-24T08:19:51Z</time>
      </trkpt>
      <trkpt lat="44.55711" lon="4.64197">
        <ele>395</ele>
        <time>2020-05-24T08:19:53Z</time>
      </trkpt>
      <trkpt lat="44.55709" lon="4.642">
        <ele>394.39999389648</ele>
        <time>2020-05-24T08:19:54Z</time>
      </trkpt>
      <trkpt lat="44.55707" lon="4.64202">
        <ele>394.20001220703</ele>
        <time>2020-05-24T08:19:55Z</time>
      </trkpt>
      <trkpt lat="44.55704" lon="4.64204">
        <ele>394</ele>
        <time>2020-05-24T08:19:56Z</time>
      </trkpt>
      <trkpt lat="44.55702" lon="4.64205">
        <ele>393.79998779297</ele>
        <time>2020-05-24T08:19:57Z</time>
      </trkpt>
      <trkpt lat="44.55699" lon="4.64207">
        <ele>393.79998779297</ele>
        <time>2020-05-24T08:19:58Z</time>
      </trkpt>
      <trkpt lat="44.55689" lon="4.64216">
        <ele>393</ele>
        <time>2020-05-24T08:20:02Z</time>
      </trkpt>
      <trkpt lat="44.55687" lon="4.6422">
        <ele>392.60000610352</ele>
        <time>2020-05-24T08:20:03Z</time>
      </trkpt>
      <trkpt lat="44.55685" lon="4.64223">
        <ele>392.39999389648</ele>
        <time>2020-05-24T08:20:04Z</time>
      </trkpt>
      <trkpt lat="44.55685" lon="4.64226">
        <ele>392.20001220703</ele>
        <time>2020-05-24T08:20:05Z</time>
      </trkpt>
      <trkpt lat="44.55686" lon="4.6423">
        <ele>392.20001220703</ele>
        <time>2020-05-24T08:20:06Z</time>
      </trkpt>
      <trkpt lat="44.55688" lon="4.64233">
        <ele>392.20001220703</ele>
        <time>2020-05-24T08:20:07Z</time>
      </trkpt>
      <trkpt lat="44.55691" lon="4.64237">
        <ele>392</ele>
        <time>2020-05-24T08:20:08Z</time>
      </trkpt>
      <trkpt lat="44.55695" lon="4.64241">
        <ele>391.79998779297</ele>
        <time>2020-05-24T08:20:09Z</time>
      </trkpt>
      <trkpt lat="44.55699" lon="4.64244">
        <ele>391.79998779297</ele>
        <time>2020-05-24T08:20:10Z</time>
      </trkpt>
      <trkpt lat="44.55697" lon="4.64248">
        <ele>388</ele>
        <time>2021-06-09T15:56:10Z</time>
      </trkpt>
      <trkpt lat="44.55696" lon="4.64256">
        <ele>387.20001220703</ele>
        <time>2021-06-09T15:56:13Z</time>
      </trkpt>
      <trkpt lat="44.55695" lon="4.64259">
        <ele>387</ele>
        <time>2021-06-09T15:56:14Z</time>
      </trkpt>
      <trkpt lat="44.55694" lon="4.64263">
        <ele>387</ele>
        <time>2021-06-09T15:56:15Z</time>
      </trkpt>
      <trkpt lat="44.55694" lon="4.64265">
        <ele>386.79998779297</ele>
        <time>2021-06-09T15:56:16Z</time>
      </trkpt>
      <trkpt lat="44.55693" lon="4.64267">
        <ele>386.79998779297</ele>
        <time>2021-06-09T15:56:17Z</time>
      </trkpt>
      <trkpt lat="44.55693" lon="4.64273">
        <ele>386.79998779297</ele>
        <time>2021-06-09T15:56:19Z</time>
      </trkpt>
      <trkpt lat="44.55693" lon="4.64276">
        <ele>386.60000610352</ele>
        <time>2021-06-09T15:56:20Z</time>
      </trkpt>
      <trkpt lat="44.55692" lon="4.64279">
        <ele>386.20001220703</ele>
        <time>2021-06-09T15:56:21Z</time>
      </trkpt>
      <trkpt lat="44.55691" lon="4.64282">
        <ele>386</ele>
        <time>2021-06-09T15:56:22Z</time>
      </trkpt>
      <trkpt lat="44.55689" lon="4.64284">
        <ele>385.39999389648</ele>
        <time>2021-06-09T15:56:23Z</time>
      </trkpt>
      <trkpt lat="44.55687" lon="4.64285">
        <ele>385</ele>
        <time>2021-06-09T15:56:24Z</time>
      </trkpt>
      <trkpt lat="44.55686" lon="4.64287">
        <ele>384.39999389648</ele>
        <time>2021-06-09T15:56:25Z</time>
      </trkpt>
      <trkpt lat="44.55681" lon="4.64294">
        <ele>383.39999389648</ele>
        <time>2021-06-09T15:56:28Z</time>
      </trkpt>
      <trkpt lat="44.55676" lon="4.64298">
        <ele>382</ele>
        <time>2021-06-09T15:56:30Z</time>
      </trkpt>
      <trkpt lat="44.55674" lon="4.643">
        <ele>381.60000610352</ele>
        <time>2021-06-09T15:56:31Z</time>
      </trkpt>
      <trkpt lat="44.55673" lon="4.64304">
        <ele>381</ele>
        <time>2021-06-09T15:56:32Z</time>
      </trkpt>
      <trkpt lat="44.55673" lon="4.64307">
        <ele>380.60000610352</ele>
        <time>2021-06-09T15:56:33Z</time>
      </trkpt>
      <trkpt lat="44.55672" lon="4.6431">
        <ele>380.20001220703</ele>
        <time>2021-06-09T15:56:34Z</time>
      </trkpt>
      <trkpt lat="44.5567" lon="4.64313">
        <ele>379.60000610352</ele>
        <time>2021-06-09T15:56:35Z</time>
      </trkpt>
      <trkpt lat="44.55669" lon="4.64316">
        <ele>379.39999389648</ele>
        <time>2021-06-09T15:56:36Z</time>
      </trkpt>
      <trkpt lat="44.55666" lon="4.64323">
        <ele>378.60000610352</ele>
        <time>2021-06-09T15:56:38Z</time>
      </trkpt>
      <trkpt lat="44.55666" lon="4.64327">
        <ele>378</ele>
        <time>2021-06-09T15:56:39Z</time>
      </trkpt>
      <trkpt lat="44.55667" lon="4.6433">
        <ele>377.20001220703</ele>
        <time>2021-06-09T15:56:40Z</time>
      </trkpt>
      <trkpt lat="44.55667" lon="4.64334">
        <ele>376.60000610352</ele>
        <time>2021-06-09T15:56:41Z</time>
      </trkpt>
      <trkpt lat="44.55668" lon="4.64338">
        <ele>376.60000610352</ele>
        <time>2021-06-09T15:56:42Z</time>
      </trkpt>
      <trkpt lat="44.55667" lon="4.64342">
        <ele>376</ele>
        <time>2021-06-09T15:56:43Z</time>
      </trkpt>
      <trkpt lat="44.55667" lon="4.64346">
        <ele>375.39999389648</ele>
        <time>2021-06-09T15:56:44Z</time>
      </trkpt>
      <trkpt lat="44.55667" lon="4.6435">
        <ele>374.60000610352</ele>
        <time>2021-06-09T15:56:45Z</time>
      </trkpt>
      <trkpt lat="44.55667" lon="4.64353">
        <ele>373.60000610352</ele>
        <time>2021-06-09T15:56:46Z</time>
      </trkpt>
      <trkpt lat="44.55669" lon="4.64361">
        <ele>372</ele>
        <time>2021-06-09T15:56:48Z</time>
      </trkpt>
      <trkpt lat="44.55669" lon="4.64365">
        <ele>371</ele>
        <time>2021-06-09T15:56:49Z</time>
      </trkpt>
      <trkpt lat="44.55669" lon="4.64369">
        <ele>370</ele>
        <time>2021-06-09T15:56:50Z</time>
      </trkpt>
      <trkpt lat="44.55668" lon="4.64372">
        <ele>369.39999389648</ele>
        <time>2021-06-09T15:56:51Z</time>
      </trkpt>
      <trkpt lat="44.55667" lon="4.64374">
        <ele>368.79998779297</ele>
        <time>2021-06-09T15:56:52Z</time>
      </trkpt>
      <trkpt lat="44.55667" lon="4.64376">
        <ele>368.20001220703</ele>
        <time>2021-06-09T15:56:53Z</time>
      </trkpt>
      <trkpt lat="44.55668" lon="4.64378">
        <ele>367.39999389648</ele>
        <time>2021-06-09T15:56:54Z</time>
      </trkpt>
      <trkpt lat="44.55668" lon="4.6438">
        <ele>366.79998779297</ele>
        <time>2021-06-09T15:56:55Z</time>
      </trkpt>
      <trkpt lat="44.55668" lon="4.64383">
        <ele>363.79998779297</ele>
        <time>2021-06-09T15:56:59Z</time>
      </trkpt>
      <trkpt lat="44.55668" lon="4.64385">
        <ele>361.20001220703</ele>
        <time>2021-06-09T15:57:07Z</time>
      </trkpt>
      <trkpt lat="44.55669" lon="4.64386">
        <ele>361.20001220703</ele>
        <time>2021-06-09T15:57:08Z</time>
      </trkpt>
      <trkpt lat="44.5567" lon="4.64387">
        <ele>361</ele>
        <time>2021-06-09T15:57:09Z</time>
      </trkpt>
      <trkpt lat="44.55671" lon="4.64388">
        <ele>361</ele>
        <time>2021-06-09T15:57:10Z</time>
      </trkpt>
      <trkpt lat="44.55672" lon="4.64392">
        <ele>361</ele>
        <time>2021-06-09T15:57:12Z</time>
      </trkpt>
      <trkpt lat="44.55672" lon="4.64398">
        <ele>361</ele>
        <time>2021-06-09T15:57:14Z</time>
      </trkpt>
      <trkpt lat="44.55672" lon="4.64401">
        <ele>361</ele>
        <time>2021-06-09T15:57:15Z</time>
      </trkpt>
      <trkpt lat="44.55671" lon="4.64405">
        <ele>360.79998779297</ele>
        <time>2021-06-09T15:57:16Z</time>
      </trkpt>
      <trkpt lat="44.55671" lon="4.64408">
        <ele>360.79998779297</ele>
        <time>2021-06-09T15:57:17Z</time>
      </trkpt>
      <trkpt lat="44.55671" lon="4.64411">
        <ele>360.60000610352</ele>
        <time>2021-06-09T15:57:18Z</time>
      </trkpt>
      <trkpt lat="44.55672" lon="4.64414">
        <ele>360.20001220703</ele>
        <time>2021-06-09T15:57:19Z</time>
      </trkpt>
      <trkpt lat="44.55673" lon="4.64417">
        <ele>359.79998779297</ele>
        <time>2021-06-09T15:57:20Z</time>
      </trkpt>
      <trkpt lat="44.55674" lon="4.64421">
        <ele>359.60000610352</ele>
        <time>2021-06-09T15:57:21Z</time>
      </trkpt>
      <trkpt lat="44.55676" lon="4.64428">
        <ele>358.79998779297</ele>
        <time>2021-06-09T15:57:23Z</time>
      </trkpt>
      <trkpt lat="44.55677" lon="4.6443">
        <ele>358</ele>
        <time>2021-06-09T15:57:24Z</time>
      </trkpt>
      <trkpt lat="44.55678" lon="4.64432">
        <ele>357.20001220703</ele>
        <time>2021-06-09T15:57:25Z</time>
      </trkpt>
      <trkpt lat="44.5568" lon="4.64433">
        <ele>357</ele>
        <time>2021-06-09T15:57:26Z</time>
      </trkpt>
      <trkpt lat="44.5568" lon="4.64434">
        <ele>356.20001220703</ele>
        <time>2021-06-09T15:57:27Z</time>
      </trkpt>
      <trkpt lat="44.55681" lon="4.64434">
        <ele>356.20001220703</ele>
        <time>2021-06-09T15:57:28Z</time>
      </trkpt>
      <trkpt lat="44.55682" lon="4.64434">
        <ele>355.20001220703</ele>
        <time>2021-06-09T15:57:29Z</time>
      </trkpt>
      <trkpt lat="44.55682" lon="4.64435">
        <ele>354.39999389648</ele>
        <time>2021-06-09T15:57:30Z</time>
      </trkpt>
      <trkpt lat="44.55683" lon="4.64436">
        <ele>354</ele>
        <time>2021-06-09T15:57:31Z</time>
      </trkpt>
      <trkpt lat="44.55684" lon="4.64438">
        <ele>352.79998779297</ele>
        <time>2021-06-09T15:57:33Z</time>
      </trkpt>
      <trkpt lat="44.55687" lon="4.6444">
        <ele>351.79998779297</ele>
        <time>2021-06-09T15:57:35Z</time>
      </trkpt>
      <trkpt lat="44.55689" lon="4.64441">
        <ele>351.60000610352</ele>
        <time>2021-06-09T15:57:36Z</time>
      </trkpt>
      <trkpt lat="44.55692" lon="4.64442">
        <ele>351.60000610352</ele>
        <time>2021-06-09T15:57:37Z</time>
      </trkpt>
      <trkpt lat="44.55695" lon="4.64442">
        <ele>351.60000610352</ele>
        <time>2021-06-09T15:57:38Z</time>
      </trkpt>
      <trkpt lat="44.55698" lon="4.64442">
        <ele>351.39999389648</ele>
        <time>2021-06-09T15:57:39Z</time>
      </trkpt>
      <trkpt lat="44.557" lon="4.64443">
        <ele>351.20001220703</ele>
        <time>2021-06-09T15:57:40Z</time>
      </trkpt>
      <trkpt lat="44.55702" lon="4.64444">
        <ele>351</ele>
        <time>2021-06-09T15:57:41Z</time>
      </trkpt>
      <trkpt lat="44.55703" lon="4.64444">
        <ele>350.60000610352</ele>
        <time>2021-06-09T15:57:42Z</time>
      </trkpt>
      <trkpt lat="44.55705" lon="4.64444">
        <ele>350.20001220703</ele>
        <time>2021-06-09T15:57:43Z</time>
      </trkpt>
      <trkpt lat="44.5571" lon="4.64443">
        <ele>349.39999389648</ele>
        <time>2021-06-09T15:57:45Z</time>
      </trkpt>
      <trkpt lat="44.55716" lon="4.64443">
        <ele>348.20001220703</ele>
        <time>2021-06-09T15:57:47Z</time>
      </trkpt>
      <trkpt lat="44.55718" lon="4.64443">
        <ele>347.79998779297</ele>
        <time>2021-06-09T15:57:48Z</time>
      </trkpt>
      <trkpt lat="44.55723" lon="4.64444">
        <ele>347.60000610352</ele>
        <time>2021-06-09T15:57:50Z</time>
      </trkpt>
      <trkpt lat="44.55725" lon="4.64445">
        <ele>347.60000610352</ele>
        <time>2021-06-09T15:57:51Z</time>
      </trkpt>
      <trkpt lat="44.55728" lon="4.64446">
        <ele>347.39999389648</ele>
        <time>2021-06-09T15:57:52Z</time>
      </trkpt>
      <trkpt lat="44.5573" lon="4.64446">
        <ele>347</ele>
        <time>2021-06-09T15:57:53Z</time>
      </trkpt>
      <trkpt lat="44.55733" lon="4.64447">
        <ele>347</ele>
        <time>2021-06-09T15:57:54Z</time>
      </trkpt>
      <trkpt lat="44.55737" lon="4.64448">
        <ele>346.60000610352</ele>
        <time>2021-06-09T15:57:56Z</time>
      </trkpt>
      <trkpt lat="44.5574" lon="4.64449">
        <ele>346.60000610352</ele>
        <time>2021-06-09T15:57:57Z</time>
      </trkpt>
      <trkpt lat="44.55742" lon="4.64448">
        <ele>346.39999389648</ele>
        <time>2021-06-09T15:57:58Z</time>
      </trkpt>
      <trkpt lat="44.55744" lon="4.64447">
        <ele>346</ele>
        <time>2021-06-09T15:57:59Z</time>
      </trkpt>
      <trkpt lat="44.55746" lon="4.64446">
        <ele>345.60000610352</ele>
        <time>2021-06-09T15:58:00Z</time>
      </trkpt>
      <trkpt lat="44.55748" lon="4.64446">
        <ele>345.20001220703</ele>
        <time>2021-06-09T15:58:01Z</time>
      </trkpt>
      <trkpt lat="44.55752" lon="4.64448">
        <ele>345</ele>
        <time>2021-06-09T15:58:03Z</time>
      </trkpt>
      <trkpt lat="44.55755" lon="4.64449">
        <ele>344.60000610352</ele>
        <time>2021-06-09T15:58:04Z</time>
      </trkpt>
      <trkpt lat="44.55757" lon="4.6445">
        <ele>344.39999389648</ele>
        <time>2021-06-09T15:58:05Z</time>
      </trkpt>
      <trkpt lat="44.55758" lon="4.64452">
        <ele>344.39999389648</ele>
        <time>2021-06-09T15:58:06Z</time>
      </trkpt>
      <trkpt lat="44.5576" lon="4.64453">
        <ele>344.39999389648</ele>
        <time>2021-06-09T15:58:07Z</time>
      </trkpt>
      <trkpt lat="44.55761" lon="4.64454">
        <ele>344.39999389648</ele>
        <time>2021-06-09T15:58:08Z</time>
      </trkpt>
      <trkpt lat="44.55767" lon="4.64459">
        <ele>344.39999389648</ele>
        <time>2021-06-09T15:58:11Z</time>
      </trkpt>
      <trkpt lat="44.55769" lon="4.6446">
        <ele>344.39999389648</ele>
        <time>2021-06-09T15:58:12Z</time>
      </trkpt>
      <trkpt lat="44.55771" lon="4.64462">
        <ele>344.39999389648</ele>
        <time>2021-06-09T15:58:13Z</time>
      </trkpt>
      <trkpt lat="44.55772" lon="4.64463">
        <ele>344.39999389648</ele>
        <time>2021-06-09T15:58:14Z</time>
      </trkpt>
      <trkpt lat="44.55774" lon="4.64464">
        <ele>344.39999389648</ele>
        <time>2021-06-09T15:58:15Z</time>
      </trkpt>
      <trkpt lat="44.55776" lon="4.64465">
        <ele>344.60000610352</ele>
        <time>2021-06-09T15:58:16Z</time>
      </trkpt>
      <trkpt lat="44.55777" lon="4.64466">
        <ele>344.60000610352</ele>
        <time>2021-06-09T15:58:17Z</time>
      </trkpt>
      <trkpt lat="44.55779" lon="4.64468">
        <ele>344.79998779297</ele>
        <time>2021-06-09T15:58:18Z</time>
      </trkpt>
      <trkpt lat="44.5578" lon="4.64471">
        <ele>344.79998779297</ele>
        <time>2021-06-09T15:58:19Z</time>
      </trkpt>
      <trkpt lat="44.55781" lon="4.64472">
        <ele>345</ele>
        <time>2021-06-09T15:58:20Z</time>
      </trkpt>
      <trkpt lat="44.55783" lon="4.64473">
        <ele>345.20001220703</ele>
        <time>2021-06-09T15:58:21Z</time>
      </trkpt>
      <trkpt lat="44.55785" lon="4.64473">
        <ele>345.60000610352</ele>
        <time>2021-06-09T15:58:22Z</time>
      </trkpt>
      <trkpt lat="44.55786" lon="4.64473">
        <ele>345.79998779297</ele>
        <time>2021-06-09T15:58:23Z</time>
      </trkpt>
      <trkpt lat="44.55788" lon="4.64473">
        <ele>346.20001220703</ele>
        <time>2021-06-09T15:58:24Z</time>
      </trkpt>
      <trkpt lat="44.5579" lon="4.64473">
        <ele>346.60000610352</ele>
        <time>2021-06-09T15:58:25Z</time>
      </trkpt>
      <trkpt lat="44.55791" lon="4.64473">
        <ele>346.60000610352</ele>
        <time>2021-06-09T15:58:26Z</time>
      </trkpt>
      <trkpt lat="44.55792" lon="4.64472">
        <ele>346.79998779297</ele>
        <time>2021-06-09T15:58:27Z</time>
      </trkpt>
      <trkpt lat="44.55793" lon="4.64472">
        <ele>346.79998779297</ele>
        <time>2021-06-09T15:58:28Z</time>
      </trkpt>
      <trkpt lat="44.55793" lon="4.64472">
        <ele>347</ele>
        <time>2021-06-09T15:58:29Z</time>
      </trkpt>
      <trkpt lat="44.55795" lon="4.64474">
        <ele>349</ele>
        <time>2021-06-09T15:58:37Z</time>
      </trkpt>
      <trkpt lat="44.55795" lon="4.64475">
        <ele>349.20001220703</ele>
        <time>2021-06-09T15:58:39Z</time>
      </trkpt>
      <trkpt lat="44.558" lon="4.64473">
        <ele>357</ele>
        <time>2020-05-24T08:21:27Z</time>
      </trkpt>
      <trkpt lat="44.55803" lon="4.64491">
        <ele>354.79998779297</ele>
        <time>2020-05-24T08:21:29Z</time>
      </trkpt>
      <trkpt lat="44.55804" lon="4.645">
        <ele>354</ele>
        <time>2020-05-24T08:21:30Z</time>
      </trkpt>
      <trkpt lat="44.55805" lon="4.64509">
        <ele>353.20001220703</ele>
        <time>2020-05-24T08:21:31Z</time>
      </trkpt>
      <trkpt lat="44.55805" lon="4.64518">
        <ele>352.60000610352</ele>
        <time>2020-05-24T08:21:32Z</time>
      </trkpt>
      <trkpt lat="44.55804" lon="4.64525">
        <ele>352</ele>
        <time>2020-05-24T08:21:33Z</time>
      </trkpt>
      <trkpt lat="44.55803" lon="4.64533">
        <ele>351.39999389648</ele>
        <time>2020-05-24T08:21:34Z</time>
      </trkpt>
      <trkpt lat="44.55801" lon="4.64539">
        <ele>351</ele>
        <time>2020-05-24T08:21:35Z</time>
      </trkpt>
      <trkpt lat="44.558" lon="4.64546">
        <ele>350</ele>
        <time>2020-05-24T08:21:36Z</time>
      </trkpt>
      <trkpt lat="44.55798" lon="4.64553">
        <ele>349.39999389648</ele>
        <time>2020-05-24T08:21:37Z</time>
      </trkpt>
      <trkpt lat="44.55796" lon="4.6456">
        <ele>348.79998779297</ele>
        <time>2020-05-24T08:21:38Z</time>
      </trkpt>
      <trkpt lat="44.55795" lon="4.64567">
        <ele>348.79998779297</ele>
        <time>2020-05-24T08:21:39Z</time>
      </trkpt>
      <trkpt lat="44.55793" lon="4.64575">
        <ele>348.39999389648</ele>
        <time>2020-05-24T08:21:40Z</time>
      </trkpt>
      <trkpt lat="44.55791" lon="4.64592">
        <ele>347.60000610352</ele>
        <time>2020-05-24T08:21:42Z</time>
      </trkpt>
      <trkpt lat="44.55788" lon="4.6461">
        <ele>347</ele>
        <time>2020-05-24T08:21:44Z</time>
      </trkpt>
      <trkpt lat="44.55787" lon="4.64618">
        <ele>346.20001220703</ele>
        <time>2020-05-24T08:21:45Z</time>
      </trkpt>
      <trkpt lat="44.55786" lon="4.64627">
        <ele>345.60000610352</ele>
        <time>2020-05-24T08:21:46Z</time>
      </trkpt>
      <trkpt lat="44.55785" lon="4.64635">
        <ele>344.60000610352</ele>
        <time>2020-05-24T08:21:47Z</time>
      </trkpt>
      <trkpt lat="44.55783" lon="4.64643">
        <ele>343.60000610352</ele>
        <time>2020-05-24T08:21:48Z</time>
      </trkpt>
      <trkpt lat="44.55781" lon="4.6465">
        <ele>343</ele>
        <time>2020-05-24T08:21:49Z</time>
      </trkpt>
      <trkpt lat="44.5578" lon="4.64658">
        <ele>342.60000610352</ele>
        <time>2020-05-24T08:21:50Z</time>
      </trkpt>
      <trkpt lat="44.55778" lon="4.64664">
        <ele>342.60000610352</ele>
        <time>2020-05-24T08:21:51Z</time>
      </trkpt>
      <trkpt lat="44.55776" lon="4.64669">
        <ele>341.79998779297</ele>
        <time>2020-05-24T08:21:52Z</time>
      </trkpt>
      <trkpt lat="44.55774" lon="4.64673">
        <ele>341.79998779297</ele>
        <time>2020-05-24T08:21:53Z</time>
      </trkpt>
      <trkpt lat="44.55772" lon="4.64676">
        <ele>341.20001220703</ele>
        <time>2020-05-24T08:21:54Z</time>
      </trkpt>
      <trkpt lat="44.5577" lon="4.64678">
        <ele>341.20001220703</ele>
        <time>2020-05-24T08:21:55Z</time>
      </trkpt>
      <trkpt lat="44.55767" lon="4.64681">
        <ele>341</ele>
        <time>2020-05-24T08:21:56Z</time>
      </trkpt>
      <trkpt lat="44.55765" lon="4.64685">
        <ele>341</ele>
        <time>2020-05-24T08:21:57Z</time>
      </trkpt>
      <trkpt lat="44.55763" lon="4.64688">
        <ele>340.79998779297</ele>
        <time>2020-05-24T08:21:58Z</time>
      </trkpt>
      <trkpt lat="44.5576" lon="4.64693">
        <ele>340.79998779297</ele>
        <time>2020-05-24T08:21:59Z</time>
      </trkpt>
      <trkpt lat="44.55757" lon="4.64697">
        <ele>340.60000610352</ele>
        <time>2020-05-24T08:22:00Z</time>
      </trkpt>
      <trkpt lat="44.55749" lon="4.64707">
        <ele>340.60000610352</ele>
        <time>2020-05-24T08:22:02Z</time>
      </trkpt>
      <trkpt lat="44.55745" lon="4.64712">
        <ele>340.60000610352</ele>
        <time>2020-05-24T08:22:03Z</time>
      </trkpt>
      <trkpt lat="44.55741" lon="4.64717">
        <ele>340.20001220703</ele>
        <time>2020-05-24T08:22:04Z</time>
      </trkpt>
      <trkpt lat="44.55737" lon="4.64723">
        <ele>340.20001220703</ele>
        <time>2020-05-24T08:22:05Z</time>
      </trkpt>
      <trkpt lat="44.55734" lon="4.64728">
        <ele>339</ele>
        <time>2020-05-24T08:22:06Z</time>
      </trkpt>
      <trkpt lat="44.5573" lon="4.64733">
        <ele>338.39999389648</ele>
        <time>2020-05-24T08:22:07Z</time>
      </trkpt>
      <trkpt lat="44.55727" lon="4.64736">
        <ele>338</ele>
        <time>2020-05-24T08:22:08Z</time>
      </trkpt>
      <trkpt lat="44.55724" lon="4.64739">
        <ele>337</ele>
        <time>2020-05-24T08:22:09Z</time>
      </trkpt>
      <trkpt lat="44.55722" lon="4.64742">
        <ele>336.60000610352</ele>
        <time>2020-05-24T08:22:10Z</time>
      </trkpt>
      <trkpt lat="44.55719" lon="4.64745">
        <ele>334.79998779297</ele>
        <time>2020-05-24T08:22:11Z</time>
      </trkpt>
      <trkpt lat="44.55717" lon="4.64748">
        <ele>334</ele>
        <time>2020-05-24T08:22:12Z</time>
      </trkpt>
      <trkpt lat="44.55716" lon="4.6475">
        <ele>332.79998779297</ele>
        <time>2020-05-24T08:22:13Z</time>
      </trkpt>
      <trkpt lat="44.55715" lon="4.6475">
        <ele>328.79998779297</ele>
        <time>2020-05-24T08:22:20Z</time>
      </trkpt>
      <trkpt lat="44.55715" lon="4.6475">
        <ele>328</ele>
        <time>2020-05-24T08:22:44Z</time>
      </trkpt>
      <trkpt lat="44.55713" lon="4.6475">
        <ele>327.60000610352</ele>
        <time>2020-05-24T08:23:00Z</time>
      </trkpt>
      <trkpt lat="44.55712" lon="4.6475">
        <ele>327.39999389648</ele>
        <time>2020-05-24T08:23:01Z</time>
      </trkpt>
      <trkpt lat="44.55712" lon="4.64746">
        <ele>327.60000610352</ele>
        <time>2020-05-24T08:23:03Z</time>
      </trkpt>
      <trkpt lat="44.55714" lon="4.64744">
        <ele>327.60000610352</ele>
        <time>2020-05-24T08:23:04Z</time>
      </trkpt>
      <trkpt lat="44.55715" lon="4.64742">
        <ele>327.60000610352</ele>
        <time>2020-05-24T08:23:05Z</time>
      </trkpt>
      <trkpt lat="44.55721" lon="4.64737">
        <ele>327.60000610352</ele>
        <time>2020-05-24T08:23:08Z</time>
      </trkpt>
      <trkpt lat="44.55722" lon="4.64735">
        <ele>327.60000610352</ele>
        <time>2020-05-24T08:23:09Z</time>
      </trkpt>
      <trkpt lat="44.55723" lon="4.64732">
        <ele>327.39999389648</ele>
        <time>2020-05-24T08:23:10Z</time>
      </trkpt>
      <trkpt lat="44.55724" lon="4.64728">
        <ele>327.60000610352</ele>
        <time>2020-05-24T08:23:11Z</time>
      </trkpt>
      <trkpt lat="44.55725" lon="4.64724">
        <ele>327.60000610352</ele>
        <time>2020-05-24T08:23:12Z</time>
      </trkpt>
      <trkpt lat="44.55726" lon="4.6472">
        <ele>327.60000610352</ele>
        <time>2020-05-24T08:23:13Z</time>
      </trkpt>
      <trkpt lat="44.55728" lon="4.64715">
        <ele>327.60000610352</ele>
        <time>2020-05-24T08:23:14Z</time>
      </trkpt>
      <trkpt lat="44.5573" lon="4.64711">
        <ele>327.79998779297</ele>
        <time>2020-05-24T08:23:15Z</time>
      </trkpt>
      <trkpt lat="44.55734" lon="4.64703">
        <ele>328.20001220703</ele>
        <time>2020-05-24T08:23:17Z</time>
      </trkpt>
      <trkpt lat="44.55736" lon="4.64699">
        <ele>328.20001220703</ele>
        <time>2020-05-24T08:23:18Z</time>
      </trkpt>
      <trkpt lat="44.55738" lon="4.64695">
        <ele>328.39999389648</ele>
        <time>2020-05-24T08:23:19Z</time>
      </trkpt>
      <trkpt lat="44.55739" lon="4.64691">
        <ele>328.39999389648</ele>
        <time>2020-05-24T08:23:20Z</time>
      </trkpt>
      <trkpt lat="44.5574" lon="4.64687">
        <ele>328.60000610352</ele>
        <time>2020-05-24T08:23:21Z</time>
      </trkpt>
      <trkpt lat="44.55741" lon="4.64682">
        <ele>328.79998779297</ele>
        <time>2020-05-24T08:23:22Z</time>
      </trkpt>
      <trkpt lat="44.55742" lon="4.64677">
        <ele>328.79998779297</ele>
        <time>2020-05-24T08:23:23Z</time>
      </trkpt>
      <trkpt lat="44.55743" lon="4.64673">
        <ele>328.79998779297</ele>
        <time>2020-05-24T08:23:24Z</time>
      </trkpt>
      <trkpt lat="44.55744" lon="4.64668">
        <ele>329</ele>
        <time>2020-05-24T08:23:25Z</time>
      </trkpt>
      <trkpt lat="44.55747" lon="4.64654">
        <ele>329.39999389648</ele>
        <time>2020-05-24T08:23:28Z</time>
      </trkpt>
      <trkpt lat="44.55749" lon="4.64644">
        <ele>329.60000610352</ele>
        <time>2020-05-24T08:23:30Z</time>
      </trkpt>
      <trkpt lat="44.5575" lon="4.64639">
        <ele>329.79998779297</ele>
        <time>2020-05-24T08:23:31Z</time>
      </trkpt>
      <trkpt lat="44.55752" lon="4.64635">
        <ele>330</ele>
        <time>2020-05-24T08:23:32Z</time>
      </trkpt>
      <trkpt lat="44.55755" lon="4.64625">
        <ele>330.20001220703</ele>
        <time>2020-05-24T08:23:34Z</time>
      </trkpt>
      <trkpt lat="44.55756" lon="4.6462">
        <ele>330.39999389648</ele>
        <time>2020-05-24T08:23:35Z</time>
      </trkpt>
      <trkpt lat="44.55756" lon="4.64615">
        <ele>330.39999389648</ele>
        <time>2020-05-24T08:23:36Z</time>
      </trkpt>
      <trkpt lat="44.55756" lon="4.6461">
        <ele>330.20001220703</ele>
        <time>2020-05-24T08:23:37Z</time>
      </trkpt>
      <trkpt lat="44.55756" lon="4.64606">
        <ele>330.39999389648</ele>
        <time>2020-05-24T08:23:38Z</time>
      </trkpt>
      <trkpt lat="44.55757" lon="4.64589">
        <ele>330.39999389648</ele>
        <time>2020-05-24T08:23:41Z</time>
      </trkpt>
      <trkpt lat="44.55757" lon="4.64583">
        <ele>330.39999389648</ele>
        <time>2020-05-24T08:23:42Z</time>
      </trkpt>
      <trkpt lat="44.55757" lon="4.64577">
        <ele>330.39999389648</ele>
        <time>2020-05-24T08:23:43Z</time>
      </trkpt>
      <trkpt lat="44.55758" lon="4.64573">
        <ele>330.39999389648</ele>
        <time>2020-05-24T08:23:44Z</time>
      </trkpt>
      <trkpt lat="44.55758" lon="4.64568">
        <ele>330.60000610352</ele>
        <time>2020-05-24T08:23:45Z</time>
      </trkpt>
      <trkpt lat="44.55758" lon="4.64564">
        <ele>330.60000610352</ele>
        <time>2020-05-24T08:23:46Z</time>
      </trkpt>
      <trkpt lat="44.55758" lon="4.64559">
        <ele>330.60000610352</ele>
        <time>2020-05-24T08:23:47Z</time>
      </trkpt>
      <trkpt lat="44.55758" lon="4.64555">
        <ele>330.60000610352</ele>
        <time>2020-05-24T08:23:48Z</time>
      </trkpt>
      <trkpt lat="44.55758" lon="4.64551">
        <ele>330.60000610352</ele>
        <time>2020-05-24T08:23:49Z</time>
      </trkpt>
      <trkpt lat="44.55758" lon="4.64547">
        <ele>330.79998779297</ele>
        <time>2020-05-24T08:23:50Z</time>
      </trkpt>
      <trkpt lat="44.55758" lon="4.64544">
        <ele>330.79998779297</ele>
        <time>2020-05-24T08:23:51Z</time>
      </trkpt>
      <trkpt lat="44.55758" lon="4.6454">
        <ele>331.20001220703</ele>
        <time>2020-05-24T08:23:52Z</time>
      </trkpt>
      <trkpt lat="44.55758" lon="4.64537">
        <ele>331.20001220703</ele>
        <time>2020-05-24T08:23:53Z</time>
      </trkpt>
      <trkpt lat="44.55758" lon="4.64534">
        <ele>331.20001220703</ele>
        <time>2020-05-24T08:23:54Z</time>
      </trkpt>
      <trkpt lat="44.55757" lon="4.64531">
        <ele>331.20001220703</ele>
        <time>2020-05-24T08:23:55Z</time>
      </trkpt>
      <trkpt lat="44.55757" lon="4.64529">
        <ele>331.39999389648</ele>
        <time>2020-05-24T08:23:56Z</time>
      </trkpt>
      <trkpt lat="44.55757" lon="4.64526">
        <ele>331.60000610352</ele>
        <time>2020-05-24T08:23:57Z</time>
      </trkpt>
      <trkpt lat="44.55756" lon="4.64523">
        <ele>331.60000610352</ele>
        <time>2020-05-24T08:23:58Z</time>
      </trkpt>
      <trkpt lat="44.55755" lon="4.64519">
        <ele>332.20001220703</ele>
        <time>2020-05-24T08:23:59Z</time>
      </trkpt>
      <trkpt lat="44.55754" lon="4.64516">
        <ele>332.20001220703</ele>
        <time>2020-05-24T08:24:00Z</time>
      </trkpt>
      <trkpt lat="44.55754" lon="4.64513">
        <ele>332.39999389648</ele>
        <time>2020-05-24T08:24:01Z</time>
      </trkpt>
      <trkpt lat="44.55753" lon="4.64509">
        <ele>332.60000610352</ele>
        <time>2020-05-24T08:24:02Z</time>
      </trkpt>
      <trkpt lat="44.55752" lon="4.64506">
        <ele>333</ele>
        <time>2020-05-24T08:24:03Z</time>
      </trkpt>
      <trkpt lat="44.5575" lon="4.64504">
        <ele>333.60000610352</ele>
        <time>2020-05-24T08:24:04Z</time>
      </trkpt>
      <trkpt lat="44.55748" lon="4.64502">
        <ele>334</ele>
        <time>2020-05-24T08:24:05Z</time>
      </trkpt>
      <trkpt lat="44.55746" lon="4.645">
        <ele>334.20001220703</ele>
        <time>2020-05-24T08:24:06Z</time>
      </trkpt>
      <trkpt lat="44.55744" lon="4.64499">
        <ele>334.39999389648</ele>
        <time>2020-05-24T08:24:07Z</time>
      </trkpt>
      <trkpt lat="44.55742" lon="4.64499">
        <ele>335</ele>
        <time>2020-05-24T08:24:08Z</time>
      </trkpt>
      <trkpt lat="44.5574" lon="4.64499">
        <ele>335.39999389648</ele>
        <time>2020-05-24T08:24:09Z</time>
      </trkpt>
      <trkpt lat="44.55737" lon="4.64499">
        <ele>335.39999389648</ele>
        <time>2020-05-24T08:24:10Z</time>
      </trkpt>
      <trkpt lat="44.55735" lon="4.64499">
        <ele>335.60000610352</ele>
        <time>2020-05-24T08:24:11Z</time>
      </trkpt>
      <trkpt lat="44.55733" lon="4.64499">
        <ele>335.60000610352</ele>
        <time>2020-05-24T08:24:12Z</time>
      </trkpt>
      <trkpt lat="44.55731" lon="4.645">
        <ele>336</ele>
        <time>2020-05-24T08:24:13Z</time>
      </trkpt>
      <trkpt lat="44.55728" lon="4.64503">
        <ele>336</ele>
        <time>2020-05-24T08:24:15Z</time>
      </trkpt>
      <trkpt lat="44.55726" lon="4.64505">
        <ele>336.20001220703</ele>
        <time>2020-05-24T08:24:16Z</time>
      </trkpt>
      <trkpt lat="44.55724" lon="4.64508">
        <ele>336</ele>
        <time>2020-05-24T08:24:17Z</time>
      </trkpt>
      <trkpt lat="44.5572" lon="4.64513">
        <ele>336</ele>
        <time>2020-05-24T08:24:19Z</time>
      </trkpt>
      <trkpt lat="44.55718" lon="4.64516">
        <ele>336</ele>
        <time>2020-05-24T08:24:20Z</time>
      </trkpt>
      <trkpt lat="44.55713" lon="4.64523">
        <ele>335.79998779297</ele>
        <time>2020-05-24T08:24:22Z</time>
      </trkpt>
      <trkpt lat="44.55708" lon="4.64529">
        <ele>334.79998779297</ele>
        <time>2020-05-24T08:24:24Z</time>
      </trkpt>
      <trkpt lat="44.55705" lon="4.64532">
        <ele>334</ele>
        <time>2020-05-24T08:24:25Z</time>
      </trkpt>
      <trkpt lat="44.55703" lon="4.64535">
        <ele>333.39999389648</ele>
        <time>2020-05-24T08:24:26Z</time>
      </trkpt>
      <trkpt lat="44.557" lon="4.64538">
        <ele>333</ele>
        <time>2020-05-24T08:24:27Z</time>
      </trkpt>
      <trkpt lat="44.55692" lon="4.64549">
        <ele>331.79998779297</ele>
        <time>2020-05-24T08:24:30Z</time>
      </trkpt>
      <trkpt lat="44.55688" lon="4.64552">
        <ele>330.79998779297</ele>
        <time>2020-05-24T08:24:31Z</time>
      </trkpt>
      <trkpt lat="44.55684" lon="4.64556">
        <ele>330.79998779297</ele>
        <time>2020-05-24T08:24:32Z</time>
      </trkpt>
      <trkpt lat="44.55676" lon="4.64563">
        <ele>329</ele>
        <time>2020-05-24T08:24:34Z</time>
      </trkpt>
      <trkpt lat="44.55673" lon="4.64566">
        <ele>328.39999389648</ele>
        <time>2020-05-24T08:24:35Z</time>
      </trkpt>
      <trkpt lat="44.5567" lon="4.64569">
        <ele>327.39999389648</ele>
        <time>2020-05-24T08:24:36Z</time>
      </trkpt>
      <trkpt lat="44.55667" lon="4.64571">
        <ele>326.60000610352</ele>
        <time>2020-05-24T08:24:37Z</time>
      </trkpt>
      <trkpt lat="44.55664" lon="4.64573">
        <ele>326</ele>
        <time>2020-05-24T08:24:38Z</time>
      </trkpt>
      <trkpt lat="44.55661" lon="4.64574">
        <ele>325.39999389648</ele>
        <time>2020-05-24T08:24:39Z</time>
      </trkpt>
      <trkpt lat="44.55658" lon="4.64576">
        <ele>324.60000610352</ele>
        <time>2020-05-24T08:24:40Z</time>
      </trkpt>
      <trkpt lat="44.55655" lon="4.64578">
        <ele>323.20001220703</ele>
        <time>2020-05-24T08:24:41Z</time>
      </trkpt>
      <trkpt lat="44.55652" lon="4.6458">
        <ele>322.20001220703</ele>
        <time>2020-05-24T08:24:42Z</time>
      </trkpt>
      <trkpt lat="44.5565" lon="4.6458">
        <ele>322</ele>
        <time>2020-05-24T08:24:43Z</time>
      </trkpt>
      <trkpt lat="44.55648" lon="4.64581">
        <ele>321.60000610352</ele>
        <time>2020-05-24T08:24:44Z</time>
      </trkpt>
      <trkpt lat="44.55646" lon="4.64582">
        <ele>321.39999389648</ele>
        <time>2020-05-24T08:24:45Z</time>
      </trkpt>
      <trkpt lat="44.55645" lon="4.64584">
        <ele>321.20001220703</ele>
        <time>2020-05-24T08:24:46Z</time>
      </trkpt>
      <trkpt lat="44.55643" lon="4.64585">
        <ele>321</ele>
        <time>2020-05-24T08:24:47Z</time>
      </trkpt>
      <trkpt lat="44.55641" lon="4.64587">
        <ele>320.39999389648</ele>
        <time>2020-05-24T08:24:48Z</time>
      </trkpt>
      <trkpt lat="44.55637" lon="4.64591">
        <ele>319.39999389648</ele>
        <time>2020-05-24T08:24:50Z</time>
      </trkpt>
      <trkpt lat="44.55633" lon="4.64593">
        <ele>319</ele>
        <time>2020-05-24T08:24:51Z</time>
      </trkpt>
      <trkpt lat="44.5563" lon="4.64595">
        <ele>318.79998779297</ele>
        <time>2020-05-24T08:24:52Z</time>
      </trkpt>
      <trkpt lat="44.55627" lon="4.64596">
        <ele>318.79998779297</ele>
        <time>2020-05-24T08:24:53Z</time>
      </trkpt>
      <trkpt lat="44.55624" lon="4.64598">
        <ele>318.39999389648</ele>
        <time>2020-05-24T08:24:54Z</time>
      </trkpt>
      <trkpt lat="44.55622" lon="4.64599">
        <ele>318</ele>
        <time>2020-05-24T08:24:55Z</time>
      </trkpt>
      <trkpt lat="44.55619" lon="4.64601">
        <ele>317.60000610352</ele>
        <time>2020-05-24T08:24:56Z</time>
      </trkpt>
      <trkpt lat="44.55616" lon="4.64603">
        <ele>317.39999389648</ele>
        <time>2020-05-24T08:24:57Z</time>
      </trkpt>
      <trkpt lat="44.55613" lon="4.64603">
        <ele>316.79998779297</ele>
        <time>2020-05-24T08:24:58Z</time>
      </trkpt>
      <trkpt lat="44.55609" lon="4.64602">
        <ele>315.79998779297</ele>
        <time>2020-05-24T08:24:59Z</time>
      </trkpt>
      <trkpt lat="44.55605" lon="4.64601">
        <ele>315.39999389648</ele>
        <time>2020-05-24T08:25:00Z</time>
      </trkpt>
      <trkpt lat="44.55602" lon="4.64599">
        <ele>315</ele>
        <time>2020-05-24T08:25:01Z</time>
      </trkpt>
      <trkpt lat="44.55598" lon="4.64596">
        <ele>314</ele>
        <time>2020-05-24T08:25:02Z</time>
      </trkpt>
      <trkpt lat="44.55595" lon="4.64593">
        <ele>313.20001220703</ele>
        <time>2020-05-24T08:25:03Z</time>
      </trkpt>
      <trkpt lat="44.55592" lon="4.64589">
        <ele>312.79998779297</ele>
        <time>2020-05-24T08:25:04Z</time>
      </trkpt>
      <trkpt lat="44.5559" lon="4.64585">
        <ele>312.20001220703</ele>
        <time>2020-05-24T08:25:05Z</time>
      </trkpt>
      <trkpt lat="44.55588" lon="4.64581">
        <ele>311.39999389648</ele>
        <time>2020-05-24T08:25:06Z</time>
      </trkpt>
      <trkpt lat="44.55586" lon="4.64576">
        <ele>310.60000610352</ele>
        <time>2020-05-24T08:25:07Z</time>
      </trkpt>
      <trkpt lat="44.55584" lon="4.64573">
        <ele>310.20001220703</ele>
        <time>2020-05-24T08:25:08Z</time>
      </trkpt>
      <trkpt lat="44.55581" lon="4.64571">
        <ele>309.60000610352</ele>
        <time>2020-05-24T08:25:09Z</time>
      </trkpt>
      <trkpt lat="44.55578" lon="4.6457">
        <ele>309</ele>
        <time>2020-05-24T08:25:10Z</time>
      </trkpt>
      <trkpt lat="44.55576" lon="4.64571">
        <ele>308.20001220703</ele>
        <time>2020-05-24T08:25:11Z</time>
      </trkpt>
      <trkpt lat="44.55573" lon="4.64572">
        <ele>307.39999389648</ele>
        <time>2020-05-24T08:25:12Z</time>
      </trkpt>
      <trkpt lat="44.55568" lon="4.64577">
        <ele>307</ele>
        <time>2020-05-24T08:25:14Z</time>
      </trkpt>
      <trkpt lat="44.55564" lon="4.64585">
        <ele>305.79998779297</ele>
        <time>2020-05-24T08:25:16Z</time>
      </trkpt>
      <trkpt lat="44.55562" lon="4.64589">
        <ele>305.20001220703</ele>
        <time>2020-05-24T08:25:17Z</time>
      </trkpt>
      <trkpt lat="44.55558" lon="4.64599">
        <ele>304.39999389648</ele>
        <time>2020-05-24T08:25:19Z</time>
      </trkpt>
      <trkpt lat="44.55554" lon="4.64604">
        <ele>304.20001220703</ele>
        <time>2020-05-24T08:25:20Z</time>
      </trkpt>
      <trkpt lat="44.55551" lon="4.64609">
        <ele>304</ele>
        <time>2020-05-24T08:25:21Z</time>
      </trkpt>
      <trkpt lat="44.55549" lon="4.64614">
        <ele>303.79998779297</ele>
        <time>2020-05-24T08:25:22Z</time>
      </trkpt>
      <trkpt lat="44.55547" lon="4.64619">
        <ele>303.60000610352</ele>
        <time>2020-05-24T08:25:23Z</time>
      </trkpt>
      <trkpt lat="44.55546" lon="4.64624">
        <ele>303.39999389648</ele>
        <time>2020-05-24T08:25:24Z</time>
      </trkpt>
      <trkpt lat="44.55544" lon="4.64628">
        <ele>303.20001220703</ele>
        <time>2020-05-24T08:25:25Z</time>
      </trkpt>
      <trkpt lat="44.55542" lon="4.64633">
        <ele>303.20001220703</ele>
        <time>2020-05-24T08:25:26Z</time>
      </trkpt>
      <trkpt lat="44.5554" lon="4.64638">
        <ele>302.79998779297</ele>
        <time>2020-05-24T08:25:27Z</time>
      </trkpt>
      <trkpt lat="44.55538" lon="4.64642">
        <ele>302.20001220703</ele>
        <time>2020-05-24T08:25:28Z</time>
      </trkpt>
      <trkpt lat="44.55536" lon="4.64647">
        <ele>301.60000610352</ele>
        <time>2020-05-24T08:25:29Z</time>
      </trkpt>
      <trkpt lat="44.55533" lon="4.64651">
        <ele>301</ele>
        <time>2020-05-24T08:25:30Z</time>
      </trkpt>
      <trkpt lat="44.55525" lon="4.64663">
        <ele>299.20001220703</ele>
        <time>2020-05-24T08:25:33Z</time>
      </trkpt>
      <trkpt lat="44.55523" lon="4.64667">
        <ele>298.60000610352</ele>
        <time>2020-05-24T08:25:34Z</time>
      </trkpt>
      <trkpt lat="44.55521" lon="4.64671">
        <ele>298.20001220703</ele>
        <time>2020-05-24T08:25:35Z</time>
      </trkpt>
      <trkpt lat="44.55518" lon="4.64675">
        <ele>298.20001220703</ele>
        <time>2020-05-24T08:25:36Z</time>
      </trkpt>
      <trkpt lat="44.55514" lon="4.64679">
        <ele>297.60000610352</ele>
        <time>2020-05-24T08:25:37Z</time>
      </trkpt>
      <trkpt lat="44.55511" lon="4.64683">
        <ele>297</ele>
        <time>2020-05-24T08:25:38Z</time>
      </trkpt>
      <trkpt lat="44.55508" lon="4.64686">
        <ele>296.60000610352</ele>
        <time>2020-05-24T08:25:39Z</time>
      </trkpt>
      <trkpt lat="44.55505" lon="4.64689">
        <ele>295.79998779297</ele>
        <time>2020-05-24T08:25:40Z</time>
      </trkpt>
      <trkpt lat="44.55502" lon="4.64691">
        <ele>295</ele>
        <time>2020-05-24T08:25:41Z</time>
      </trkpt>
      <trkpt lat="44.55499" lon="4.64694">
        <ele>294.79998779297</ele>
        <time>2020-05-24T08:25:42Z</time>
      </trkpt>
      <trkpt lat="44.55496" lon="4.64696">
        <ele>293.79998779297</ele>
        <time>2020-05-24T08:25:43Z</time>
      </trkpt>
      <trkpt lat="44.55493" lon="4.64698">
        <ele>293.20001220703</ele>
        <time>2020-05-24T08:25:44Z</time>
      </trkpt>
      <trkpt lat="44.5549" lon="4.647">
        <ele>292.79998779297</ele>
        <time>2020-05-24T08:25:45Z</time>
      </trkpt>
      <trkpt lat="44.55488" lon="4.64702">
        <ele>292.20001220703</ele>
        <time>2020-05-24T08:25:46Z</time>
      </trkpt>
      <trkpt lat="44.55486" lon="4.64704">
        <ele>291.39999389648</ele>
        <time>2020-05-24T08:25:47Z</time>
      </trkpt>
      <trkpt lat="44.55483" lon="4.64706">
        <ele>290.39999389648</ele>
        <time>2020-05-24T08:25:48Z</time>
      </trkpt>
      <trkpt lat="44.55481" lon="4.64709">
        <ele>290</ele>
        <time>2020-05-24T08:25:49Z</time>
      </trkpt>
      <trkpt lat="44.55478" lon="4.64711">
        <ele>289.60000610352</ele>
        <time>2020-05-24T08:25:50Z</time>
      </trkpt>
      <trkpt lat="44.55473" lon="4.64715">
        <ele>288.79998779297</ele>
        <time>2020-05-24T08:25:52Z</time>
      </trkpt>
      <trkpt lat="44.5547" lon="4.64716">
        <ele>288.39999389648</ele>
        <time>2020-05-24T08:25:53Z</time>
      </trkpt>
      <trkpt lat="44.55467" lon="4.64718">
        <ele>287.79998779297</ele>
        <time>2020-05-24T08:25:54Z</time>
      </trkpt>
      <trkpt lat="44.55464" lon="4.64719">
        <ele>287.39999389648</ele>
        <time>2020-05-24T08:25:55Z</time>
      </trkpt>
      <trkpt lat="44.55461" lon="4.64721">
        <ele>286.60000610352</ele>
        <time>2020-05-24T08:25:56Z</time>
      </trkpt>
      <trkpt lat="44.55458" lon="4.64723">
        <ele>285.79998779297</ele>
        <time>2020-05-24T08:25:57Z</time>
      </trkpt>
      <trkpt lat="44.55452" lon="4.64727">
        <ele>285.39999389648</ele>
        <time>2020-05-24T08:25:59Z</time>
      </trkpt>
      <trkpt lat="44.55446" lon="4.64731">
        <ele>284.20001220703</ele>
        <time>2020-05-24T08:26:01Z</time>
      </trkpt>
      <trkpt lat="44.55443" lon="4.64734">
        <ele>283.79998779297</ele>
        <time>2020-05-24T08:26:02Z</time>
      </trkpt>
      <trkpt lat="44.5544" lon="4.64736">
        <ele>282.79998779297</ele>
        <time>2020-05-24T08:26:03Z</time>
      </trkpt>
      <trkpt lat="44.55436" lon="4.64737">
        <ele>282.20001220703</ele>
        <time>2020-05-24T08:26:04Z</time>
      </trkpt>
      <trkpt lat="44.55433" lon="4.64739">
        <ele>281.79998779297</ele>
        <time>2020-05-24T08:26:05Z</time>
      </trkpt>
      <trkpt lat="44.55429" lon="4.64741">
        <ele>280.39999389648</ele>
        <time>2020-05-24T08:26:06Z</time>
      </trkpt>
      <trkpt lat="44.55425" lon="4.64742">
        <ele>279.79998779297</ele>
        <time>2020-05-24T08:26:07Z</time>
      </trkpt>
      <trkpt lat="44.55421" lon="4.64743">
        <ele>279.20001220703</ele>
        <time>2020-05-24T08:26:08Z</time>
      </trkpt>
      <trkpt lat="44.55418" lon="4.64744">
        <ele>278.39999389648</ele>
        <time>2020-05-24T08:26:09Z</time>
      </trkpt>
      <trkpt lat="44.55415" lon="4.64744">
        <ele>278</ele>
        <time>2020-05-24T08:26:10Z</time>
      </trkpt>
      <trkpt lat="44.55411" lon="4.64745">
        <ele>277.20001220703</ele>
        <time>2020-05-24T08:26:11Z</time>
      </trkpt>
      <trkpt lat="44.55408" lon="4.64745">
        <ele>276.79998779297</ele>
        <time>2020-05-24T08:26:12Z</time>
      </trkpt>
      <trkpt lat="44.55404" lon="4.64745">
        <ele>276.20001220703</ele>
        <time>2020-05-24T08:26:13Z</time>
      </trkpt>
      <trkpt lat="44.55398" lon="4.64746">
        <ele>275.20001220703</ele>
        <time>2020-05-24T08:26:15Z</time>
      </trkpt>
      <trkpt lat="44.55395" lon="4.64746">
        <ele>274.39999389648</ele>
        <time>2020-05-24T08:26:16Z</time>
      </trkpt>
      <trkpt lat="44.55393" lon="4.64747">
        <ele>274</ele>
        <time>2020-05-24T08:26:17Z</time>
      </trkpt>
      <trkpt lat="44.55391" lon="4.64748">
        <ele>273.79998779297</ele>
        <time>2020-05-24T08:26:18Z</time>
      </trkpt>
      <trkpt lat="44.55388" lon="4.64749">
        <ele>273.60000610352</ele>
        <time>2020-05-24T08:26:19Z</time>
      </trkpt>
      <trkpt lat="44.55385" lon="4.64749">
        <ele>273.60000610352</ele>
        <time>2020-05-24T08:26:20Z</time>
      </trkpt>
      <trkpt lat="44.55383" lon="4.64749">
        <ele>273.20001220703</ele>
        <time>2020-05-24T08:26:21Z</time>
      </trkpt>
      <trkpt lat="44.5538" lon="4.6475">
        <ele>273</ele>
        <time>2020-05-24T08:26:22Z</time>
      </trkpt>
      <trkpt lat="44.55377" lon="4.6475">
        <ele>272.79998779297</ele>
        <time>2020-05-24T08:26:23Z</time>
      </trkpt>
      <trkpt lat="44.55374" lon="4.6475">
        <ele>272.39999389648</ele>
        <time>2020-05-24T08:26:24Z</time>
      </trkpt>
      <trkpt lat="44.55371" lon="4.64749">
        <ele>272.20001220703</ele>
        <time>2020-05-24T08:26:25Z</time>
      </trkpt>
      <trkpt lat="44.55368" lon="4.64749">
        <ele>271.79998779297</ele>
        <time>2020-05-24T08:26:26Z</time>
      </trkpt>
      <trkpt lat="44.55364" lon="4.64748">
        <ele>271.60000610352</ele>
        <time>2020-05-24T08:26:27Z</time>
      </trkpt>
      <trkpt lat="44.55353" lon="4.64747">
        <ele>271.39999389648</ele>
        <time>2020-05-24T08:26:30Z</time>
      </trkpt>
      <trkpt lat="44.5535" lon="4.64747">
        <ele>271</ele>
        <time>2020-05-24T08:26:31Z</time>
      </trkpt>
      <trkpt lat="44.55346" lon="4.64746">
        <ele>270.60000610352</ele>
        <time>2020-05-24T08:26:32Z</time>
      </trkpt>
      <trkpt lat="44.55342" lon="4.64746">
        <ele>270.20001220703</ele>
        <time>2020-05-24T08:26:33Z</time>
      </trkpt>
      <trkpt lat="44.55338" lon="4.64745">
        <ele>270</ele>
        <time>2020-05-24T08:26:34Z</time>
      </trkpt>
      <trkpt lat="44.55335" lon="4.64743">
        <ele>269.60000610352</ele>
        <time>2020-05-24T08:26:35Z</time>
      </trkpt>
      <trkpt lat="44.55331" lon="4.64742">
        <ele>269.39999389648</ele>
        <time>2020-05-24T08:26:36Z</time>
      </trkpt>
      <trkpt lat="44.55327" lon="4.64741">
        <ele>269</ele>
        <time>2020-05-24T08:26:37Z</time>
      </trkpt>
      <trkpt lat="44.55323" lon="4.64741">
        <ele>268.79998779297</ele>
        <time>2020-05-24T08:26:38Z</time>
      </trkpt>
      <trkpt lat="44.5532" lon="4.6474">
        <ele>268.39999389648</ele>
        <time>2020-05-24T08:26:39Z</time>
      </trkpt>
      <trkpt lat="44.55316" lon="4.64739">
        <ele>268.39999389648</ele>
        <time>2020-05-24T08:26:40Z</time>
      </trkpt>
      <trkpt lat="44.55313" lon="4.64737">
        <ele>268</ele>
        <time>2020-05-24T08:26:41Z</time>
      </trkpt>
      <trkpt lat="44.55309" lon="4.64736">
        <ele>267.39999389648</ele>
        <time>2020-05-24T08:26:42Z</time>
      </trkpt>
      <trkpt lat="44.55304" lon="4.64734">
        <ele>267.39999389648</ele>
        <time>2020-05-24T08:26:43Z</time>
      </trkpt>
      <trkpt lat="44.55299" lon="4.64733">
        <ele>266.60000610352</ele>
        <time>2020-05-24T08:26:44Z</time>
      </trkpt>
      <trkpt lat="44.55295" lon="4.64731">
        <ele>266</ele>
        <time>2020-05-24T08:26:45Z</time>
      </trkpt>
      <trkpt lat="44.55291" lon="4.64731">
        <ele>265.39999389648</ele>
        <time>2020-05-24T08:26:46Z</time>
      </trkpt>
      <trkpt lat="44.55287" lon="4.64731">
        <ele>264.79998779297</ele>
        <time>2020-05-24T08:26:47Z</time>
      </trkpt>
      <trkpt lat="44.55284" lon="4.6473">
        <ele>264</ele>
        <time>2020-05-24T08:26:48Z</time>
      </trkpt>
      <trkpt lat="44.5528" lon="4.6473">
        <ele>263.20001220703</ele>
        <time>2020-05-24T08:26:49Z</time>
      </trkpt>
      <trkpt lat="44.55271" lon="4.64728">
        <ele>261.60000610352</ele>
        <time>2020-05-24T08:26:51Z</time>
      </trkpt>
      <trkpt lat="44.55267" lon="4.64727">
        <ele>261</ele>
        <time>2020-05-24T08:26:52Z</time>
      </trkpt>
      <trkpt lat="44.55264" lon="4.64726">
        <ele>260.60000610352</ele>
        <time>2020-05-24T08:26:53Z</time>
      </trkpt>
      <trkpt lat="44.55261" lon="4.64726">
        <ele>259.79998779297</ele>
        <time>2020-05-24T08:26:54Z</time>
      </trkpt>
      <trkpt lat="44.55258" lon="4.64726">
        <ele>259.20001220703</ele>
        <time>2020-05-24T08:26:55Z</time>
      </trkpt>
      <trkpt lat="44.55256" lon="4.64725">
        <ele>258.20001220703</ele>
        <time>2020-05-24T08:26:56Z</time>
      </trkpt>
      <trkpt lat="44.55253" lon="4.64725">
        <ele>257.20001220703</ele>
        <time>2020-05-24T08:26:57Z</time>
      </trkpt>
      <trkpt lat="44.5525" lon="4.64725">
        <ele>255.80000305176</ele>
        <time>2020-05-24T08:26:58Z</time>
      </trkpt>
      <trkpt lat="44.55248" lon="4.64725">
        <ele>255.19999694824</ele>
        <time>2020-05-24T08:26:59Z</time>
      </trkpt>
      <trkpt lat="44.55245" lon="4.64726">
        <ele>254</ele>
        <time>2020-05-24T08:27:00Z</time>
      </trkpt>
      <trkpt lat="44.55243" lon="4.64726">
        <ele>253.60000610352</ele>
        <time>2020-05-24T08:27:01Z</time>
      </trkpt>
      <trkpt lat="44.55242" lon="4.64725">
        <ele>253.60000610352</ele>
        <time>2020-05-24T08:27:02Z</time>
      </trkpt>
      <trkpt lat="44.55241" lon="4.64727">
        <ele>252</ele>
        <time>2020-05-24T08:27:04Z</time>
      </trkpt>
      <trkpt lat="44.55239" lon="4.64726">
        <ele>250.19999694824</ele>
        <time>2020-05-24T08:27:06Z</time>
      </trkpt>
      <trkpt lat="44.55235" lon="4.64728">
        <ele>248.80000305176</ele>
        <time>2020-05-24T08:27:08Z</time>
      </trkpt>
      <trkpt lat="44.5523" lon="4.6473">
        <ele>247.60000610352</ele>
        <time>2020-05-24T08:27:10Z</time>
      </trkpt>
      <trkpt lat="44.55228" lon="4.64733">
        <ele>247.19999694824</ele>
        <time>2020-05-24T08:27:11Z</time>
      </trkpt>
      <trkpt lat="44.55226" lon="4.64736">
        <ele>247</ele>
        <time>2020-05-24T08:27:12Z</time>
      </trkpt>
      <trkpt lat="44.55224" lon="4.64738">
        <ele>247</ele>
        <time>2020-05-24T08:27:13Z</time>
      </trkpt>
      <trkpt lat="44.55221" lon="4.64739">
        <ele>246.60000610352</ele>
        <time>2020-05-24T08:27:14Z</time>
      </trkpt>
      <trkpt lat="44.5521" lon="4.64745">
        <ele>245</ele>
        <time>2020-05-24T08:27:18Z</time>
      </trkpt>
      <trkpt lat="44.55207" lon="4.64746">
        <ele>244.80000305176</ele>
        <time>2020-05-24T08:27:19Z</time>
      </trkpt>
      <trkpt lat="44.55201" lon="4.64749">
        <ele>244.39999389648</ele>
        <time>2020-05-24T08:27:21Z</time>
      </trkpt>
      <trkpt lat="44.55195" lon="4.64752">
        <ele>244.19999694824</ele>
        <time>2020-05-24T08:27:23Z</time>
      </trkpt>
      <trkpt lat="44.55191" lon="4.64754">
        <ele>244.19999694824</ele>
        <time>2020-05-24T08:27:24Z</time>
      </trkpt>
      <trkpt lat="44.55188" lon="4.64755">
        <ele>244</ele>
        <time>2020-05-24T08:27:25Z</time>
      </trkpt>
      <trkpt lat="44.55184" lon="4.64756">
        <ele>244</ele>
        <time>2020-05-24T08:27:26Z</time>
      </trkpt>
      <trkpt lat="44.55181" lon="4.64757">
        <ele>243.80000305176</ele>
        <time>2020-05-24T08:27:27Z</time>
      </trkpt>
      <trkpt lat="44.55178" lon="4.64758">
        <ele>244</ele>
        <time>2020-05-24T08:27:28Z</time>
      </trkpt>
      <trkpt lat="44.55175" lon="4.6476">
        <ele>243.80000305176</ele>
        <time>2020-05-24T08:27:29Z</time>
      </trkpt>
      <trkpt lat="44.55172" lon="4.64762">
        <ele>244</ele>
        <time>2020-05-24T08:27:30Z</time>
      </trkpt>
      <trkpt lat="44.55169" lon="4.64762">
        <ele>243.80000305176</ele>
        <time>2020-05-24T08:27:31Z</time>
      </trkpt>
      <trkpt lat="44.55166" lon="4.64763">
        <ele>243.80000305176</ele>
        <time>2020-05-24T08:27:32Z</time>
      </trkpt>
      <trkpt lat="44.5516" lon="4.64766">
        <ele>243.39999389648</ele>
        <time>2020-05-24T08:27:34Z</time>
      </trkpt>
      <trkpt lat="44.55158" lon="4.64767">
        <ele>242.39999389648</ele>
        <time>2020-05-24T08:27:35Z</time>
      </trkpt>
      <trkpt lat="44.55155" lon="4.64768">
        <ele>241.60000610352</ele>
        <time>2020-05-24T08:27:36Z</time>
      </trkpt>
      <trkpt lat="44.55152" lon="4.64769">
        <ele>241.19999694824</ele>
        <time>2020-05-24T08:27:37Z</time>
      </trkpt>
      <trkpt lat="44.55149" lon="4.6477">
        <ele>240.60000610352</ele>
        <time>2020-05-24T08:27:38Z</time>
      </trkpt>
      <trkpt lat="44.55143" lon="4.64771">
        <ele>239.60000610352</ele>
        <time>2020-05-24T08:27:40Z</time>
      </trkpt>
      <trkpt lat="44.5514" lon="4.64773">
        <ele>239</ele>
        <time>2020-05-24T08:27:42Z</time>
      </trkpt>
      <trkpt lat="44.55132" lon="4.64777">
        <ele>238.19999694824</ele>
        <time>2020-05-24T08:27:44Z</time>
      </trkpt>
      <trkpt lat="44.55129" lon="4.64778">
        <ele>238</ele>
        <time>2020-05-24T08:27:45Z</time>
      </trkpt>
      <trkpt lat="44.55125" lon="4.6478">
        <ele>238</ele>
        <time>2020-05-24T08:27:46Z</time>
      </trkpt>
      <trkpt lat="44.55122" lon="4.64782">
        <ele>237.80000305176</ele>
        <time>2020-05-24T08:27:47Z</time>
      </trkpt>
      <trkpt lat="44.55115" lon="4.64787">
        <ele>236.39999389648</ele>
        <time>2020-05-24T08:27:49Z</time>
      </trkpt>
      <trkpt lat="44.55113" lon="4.64789">
        <ele>235.60000610352</ele>
        <time>2020-05-24T08:27:50Z</time>
      </trkpt>
      <trkpt lat="44.55111" lon="4.64792">
        <ele>235</ele>
        <time>2020-05-24T08:27:51Z</time>
      </trkpt>
      <trkpt lat="44.55108" lon="4.64795">
        <ele>234.39999389648</ele>
        <time>2020-05-24T08:27:52Z</time>
      </trkpt>
      <trkpt lat="44.55106" lon="4.64799">
        <ele>234.19999694824</ele>
        <time>2020-05-24T08:27:53Z</time>
      </trkpt>
      <trkpt lat="44.55104" lon="4.64801">
        <ele>234</ele>
        <time>2020-05-24T08:27:54Z</time>
      </trkpt>
      <trkpt lat="44.55101" lon="4.64804">
        <ele>233.60000610352</ele>
        <time>2020-05-24T08:27:55Z</time>
      </trkpt>
      <trkpt lat="44.551" lon="4.64807">
        <ele>233.19999694824</ele>
        <time>2020-05-24T08:27:56Z</time>
      </trkpt>
      <trkpt lat="44.55098" lon="4.6481">
        <ele>232.80000305176</ele>
        <time>2020-05-24T08:27:57Z</time>
      </trkpt>
      <trkpt lat="44.55096" lon="4.64813">
        <ele>232.80000305176</ele>
        <time>2020-05-24T08:27:58Z</time>
      </trkpt>
      <trkpt lat="44.55094" lon="4.64816">
        <ele>232.60000610352</ele>
        <time>2020-05-24T08:27:59Z</time>
      </trkpt>
      <trkpt lat="44.55092" lon="4.64819">
        <ele>232.60000610352</ele>
        <time>2020-05-24T08:28:00Z</time>
      </trkpt>
      <trkpt lat="44.5509" lon="4.64822">
        <ele>232.39999389648</ele>
        <time>2020-05-24T08:28:01Z</time>
      </trkpt>
      <trkpt lat="44.55088" lon="4.64825">
        <ele>232.60000610352</ele>
        <time>2020-05-24T08:28:02Z</time>
      </trkpt>
      <trkpt lat="44.55086" lon="4.64828">
        <ele>232.60000610352</ele>
        <time>2020-05-24T08:28:03Z</time>
      </trkpt>
      <trkpt lat="44.55083" lon="4.64831">
        <ele>232.60000610352</ele>
        <time>2020-05-24T08:28:04Z</time>
      </trkpt>
      <trkpt lat="44.55081" lon="4.64834">
        <ele>232.60000610352</ele>
        <time>2020-05-24T08:28:05Z</time>
      </trkpt>
      <trkpt lat="44.55078" lon="4.64837">
        <ele>232.39999389648</ele>
        <time>2020-05-24T08:28:06Z</time>
      </trkpt>
      <trkpt lat="44.55076" lon="4.64841">
        <ele>232.39999389648</ele>
        <time>2020-05-24T08:28:07Z</time>
      </trkpt>
      <trkpt lat="44.55072" lon="4.64848">
        <ele>232.80000305176</ele>
        <time>2020-05-24T08:28:09Z</time>
      </trkpt>
      <trkpt lat="44.5507" lon="4.64851">
        <ele>233.19999694824</ele>
        <time>2020-05-24T08:28:10Z</time>
      </trkpt>
      <trkpt lat="44.55068" lon="4.64854">
        <ele>233.19999694824</ele>
        <time>2020-05-24T08:28:11Z</time>
      </trkpt>
      <trkpt lat="44.55066" lon="4.64858">
        <ele>233.60000610352</ele>
        <time>2020-05-24T08:28:12Z</time>
      </trkpt>
      <trkpt lat="44.55063" lon="4.64861">
        <ele>233.60000610352</ele>
        <time>2020-05-24T08:28:13Z</time>
      </trkpt>
      <trkpt lat="44.55057" lon="4.64867">
        <ele>234</ele>
        <time>2020-05-24T08:28:15Z</time>
      </trkpt>
      <trkpt lat="44.55051" lon="4.64874">
        <ele>233.80000305176</ele>
        <time>2020-05-24T08:28:17Z</time>
      </trkpt>
      <trkpt lat="44.55047" lon="4.64877">
        <ele>233.80000305176</ele>
        <time>2020-05-24T08:28:18Z</time>
      </trkpt>
      <trkpt lat="44.55044" lon="4.64881">
        <ele>234</ele>
        <time>2020-05-24T08:28:19Z</time>
      </trkpt>
      <trkpt lat="44.5504" lon="4.64885">
        <ele>233.80000305176</ele>
        <time>2020-05-24T08:28:20Z</time>
      </trkpt>
      <trkpt lat="44.55036" lon="4.64889">
        <ele>233.80000305176</ele>
        <time>2020-05-24T08:28:21Z</time>
      </trkpt>
      <trkpt lat="44.55031" lon="4.64894">
        <ele>233.80000305176</ele>
        <time>2020-05-24T08:28:22Z</time>
      </trkpt>
      <trkpt lat="44.55027" lon="4.64899">
        <ele>233.60000610352</ele>
        <time>2020-05-24T08:28:23Z</time>
      </trkpt>
      <trkpt lat="44.55022" lon="4.64904">
        <ele>232.80000305176</ele>
        <time>2020-05-24T08:28:24Z</time>
      </trkpt>
      <trkpt lat="44.55018" lon="4.6491">
        <ele>232.19999694824</ele>
        <time>2020-05-24T08:28:25Z</time>
      </trkpt>
      <trkpt lat="44.55015" lon="4.64915">
        <ele>232</ele>
        <time>2020-05-24T08:28:26Z</time>
      </trkpt>
      <trkpt lat="44.55011" lon="4.64919">
        <ele>231.60000610352</ele>
        <time>2020-05-24T08:28:27Z</time>
      </trkpt>
      <trkpt lat="44.55007" lon="4.64922">
        <ele>231.19999694824</ele>
        <time>2020-05-24T08:28:28Z</time>
      </trkpt>
      <trkpt lat="44.55004" lon="4.64925">
        <ele>231.19999694824</ele>
        <time>2020-05-24T08:28:29Z</time>
      </trkpt>
      <trkpt lat="44.54996" lon="4.64932">
        <ele>230</ele>
        <time>2020-05-24T08:28:31Z</time>
      </trkpt>
      <trkpt lat="44.54988" lon="4.6494">
        <ele>228.60000610352</ele>
        <time>2020-05-24T08:28:33Z</time>
      </trkpt>
      <trkpt lat="44.54984" lon="4.64945">
        <ele>228.19999694824</ele>
        <time>2020-05-24T08:28:34Z</time>
      </trkpt>
      <trkpt lat="44.5498" lon="4.6495">
        <ele>227.80000305176</ele>
        <time>2020-05-24T08:28:35Z</time>
      </trkpt>
      <trkpt lat="44.54976" lon="4.64956">
        <ele>227.39999389648</ele>
        <time>2020-05-24T08:28:36Z</time>
      </trkpt>
      <trkpt lat="44.54969" lon="4.64967">
        <ele>226.80000305176</ele>
        <time>2020-05-24T08:28:38Z</time>
      </trkpt>
      <trkpt lat="44.54966" lon="4.64972">
        <ele>226.39999389648</ele>
        <time>2020-05-24T08:28:39Z</time>
      </trkpt>
      <trkpt lat="44.54964" lon="4.64977">
        <ele>226.19999694824</ele>
        <time>2020-05-24T08:28:40Z</time>
      </trkpt>
      <trkpt lat="44.54962" lon="4.64982">
        <ele>226</ele>
        <time>2020-05-24T08:28:41Z</time>
      </trkpt>
      <trkpt lat="44.5496" lon="4.64987">
        <ele>225.19999694824</ele>
        <time>2020-05-24T08:28:42Z</time>
      </trkpt>
      <trkpt lat="44.5496" lon="4.64992">
        <ele>224.39999389648</ele>
        <time>2020-05-24T08:28:43Z</time>
      </trkpt>
      <trkpt lat="44.54962" lon="4.64996">
        <ele>224</ele>
        <time>2020-05-24T08:28:44Z</time>
      </trkpt>
      <trkpt lat="44.54964" lon="4.65001">
        <ele>223.80000305176</ele>
        <time>2020-05-24T08:28:45Z</time>
      </trkpt>
      <trkpt lat="44.54966" lon="4.65005">
        <ele>223.39999389648</ele>
        <time>2020-05-24T08:28:46Z</time>
      </trkpt>
      <trkpt lat="44.54979" lon="4.65023">
        <ele>222.60000610352</ele>
        <time>2020-05-24T08:28:50Z</time>
      </trkpt>
      <trkpt lat="44.5498" lon="4.65027">
        <ele>222.60000610352</ele>
        <time>2020-05-24T08:28:51Z</time>
      </trkpt>
      <trkpt lat="44.5498" lon="4.65031">
        <ele>222.19999694824</ele>
        <time>2020-05-24T08:28:52Z</time>
      </trkpt>
      <trkpt lat="44.54977" lon="4.65034">
        <ele>221.80000305176</ele>
        <time>2020-05-24T08:28:53Z</time>
      </trkpt>
      <trkpt lat="44.54974" lon="4.65036">
        <ele>221.39999389648</ele>
        <time>2020-05-24T08:28:54Z</time>
      </trkpt>
      <trkpt lat="44.5497" lon="4.65037">
        <ele>220.39999389648</ele>
        <time>2020-05-24T08:28:55Z</time>
      </trkpt>
      <trkpt lat="44.54966" lon="4.65038">
        <ele>219.80000305176</ele>
        <time>2020-05-24T08:28:56Z</time>
      </trkpt>
      <trkpt lat="44.54962" lon="4.65039">
        <ele>219.39999389648</ele>
        <time>2020-05-24T08:28:57Z</time>
      </trkpt>
      <trkpt lat="44.54954" lon="4.65042">
        <ele>219.19999694824</ele>
        <time>2020-05-24T08:28:59Z</time>
      </trkpt>
      <trkpt lat="44.54951" lon="4.65043">
        <ele>219.19999694824</ele>
        <time>2020-05-24T08:29:00Z</time>
      </trkpt>
      <trkpt lat="44.54948" lon="4.65045">
        <ele>219</ele>
        <time>2020-05-24T08:29:01Z</time>
      </trkpt>
      <trkpt lat="44.54946" lon="4.65047">
        <ele>219</ele>
        <time>2020-05-24T08:29:02Z</time>
      </trkpt>
      <trkpt lat="44.54944" lon="4.65049">
        <ele>219</ele>
        <time>2020-05-24T08:29:03Z</time>
      </trkpt>
      <trkpt lat="44.54941" lon="4.65051">
        <ele>219</ele>
        <time>2020-05-24T08:29:04Z</time>
      </trkpt>
      <trkpt lat="44.54939" lon="4.65053">
        <ele>219</ele>
        <time>2020-05-24T08:29:05Z</time>
      </trkpt>
      <trkpt lat="44.54937" lon="4.65055">
        <ele>219.19999694824</ele>
        <time>2020-05-24T08:29:06Z</time>
      </trkpt>
      <trkpt lat="44.54935" lon="4.65057">
        <ele>219.39999389648</ele>
        <time>2020-05-24T08:29:07Z</time>
      </trkpt>
      <trkpt lat="44.54933" lon="4.65058">
        <ele>219.39999389648</ele>
        <time>2020-05-24T08:29:08Z</time>
      </trkpt>
      <trkpt lat="44.5493" lon="4.6506">
        <ele>219.60000610352</ele>
        <time>2020-05-24T08:29:09Z</time>
      </trkpt>
      <trkpt lat="44.54928" lon="4.65062">
        <ele>219.60000610352</ele>
        <time>2020-05-24T08:29:10Z</time>
      </trkpt>
      <trkpt lat="44.54926" lon="4.65063">
        <ele>219.60000610352</ele>
        <time>2020-05-24T08:29:11Z</time>
      </trkpt>
      <trkpt lat="44.54923" lon="4.65066">
        <ele>219.60000610352</ele>
        <time>2020-05-24T08:29:12Z</time>
      </trkpt>
      <trkpt lat="44.54921" lon="4.65068">
        <ele>219.80000305176</ele>
        <time>2020-05-24T08:29:13Z</time>
      </trkpt>
      <trkpt lat="44.54918" lon="4.65072">
        <ele>219.80000305176</ele>
        <time>2020-05-24T08:29:14Z</time>
      </trkpt>
      <trkpt lat="44.54908" lon="4.65081">
        <ele>220</ele>
        <time>2020-05-24T08:29:17Z</time>
      </trkpt>
      <trkpt lat="44.54904" lon="4.65084">
        <ele>220</ele>
        <time>2020-05-24T08:29:18Z</time>
      </trkpt>
      <trkpt lat="44.54899" lon="4.65086">
        <ele>220</ele>
        <time>2020-05-24T08:29:19Z</time>
      </trkpt>
      <trkpt lat="44.54894" lon="4.65089">
        <ele>220</ele>
        <time>2020-05-24T08:29:20Z</time>
      </trkpt>
      <trkpt lat="44.5488" lon="4.65098">
        <ele>220</ele>
        <time>2020-05-24T08:29:23Z</time>
      </trkpt>
      <trkpt lat="44.54876" lon="4.65102">
        <ele>219.80000305176</ele>
        <time>2020-05-24T08:29:24Z</time>
      </trkpt>
      <trkpt lat="44.54871" lon="4.65105">
        <ele>219.60000610352</ele>
        <time>2020-05-24T08:29:25Z</time>
      </trkpt>
      <trkpt lat="44.54867" lon="4.65108">
        <ele>219.39999389648</ele>
        <time>2020-05-24T08:29:26Z</time>
      </trkpt>
      <trkpt lat="44.54862" lon="4.65111">
        <ele>218.80000305176</ele>
        <time>2020-05-24T08:29:27Z</time>
      </trkpt>
      <trkpt lat="44.54858" lon="4.65113">
        <ele>218.39999389648</ele>
        <time>2020-05-24T08:29:28Z</time>
      </trkpt>
      <trkpt lat="44.54854" lon="4.65116">
        <ele>218</ele>
        <time>2020-05-24T08:29:29Z</time>
      </trkpt>
      <trkpt lat="44.5485" lon="4.65118">
        <ele>217.60000610352</ele>
        <time>2020-05-24T08:29:30Z</time>
      </trkpt>
      <trkpt lat="44.54846" lon="4.65121">
        <ele>217.60000610352</ele>
        <time>2020-05-24T08:29:31Z</time>
      </trkpt>
      <trkpt lat="44.54842" lon="4.65124">
        <ele>217.60000610352</ele>
        <time>2020-05-24T08:29:32Z</time>
      </trkpt>
      <trkpt lat="44.5483" lon="4.65132">
        <ele>216.60000610352</ele>
        <time>2020-05-24T08:29:35Z</time>
      </trkpt>
      <trkpt lat="44.54826" lon="4.65135">
        <ele>216.60000610352</ele>
        <time>2020-05-24T08:29:36Z</time>
      </trkpt>
      <trkpt lat="44.54822" lon="4.65137">
        <ele>216.19999694824</ele>
        <time>2020-05-24T08:29:37Z</time>
      </trkpt>
      <trkpt lat="44.54818" lon="4.6514">
        <ele>215.80000305176</ele>
        <time>2020-05-24T08:29:38Z</time>
      </trkpt>
      <trkpt lat="44.548" lon="4.6515">
        <ele>214.60000610352</ele>
        <time>2020-05-24T08:29:42Z</time>
      </trkpt>
      <trkpt lat="44.54789" lon="4.65157">
        <ele>214.39999389648</ele>
        <time>2020-05-24T08:29:44Z</time>
      </trkpt>
      <trkpt lat="44.54783" lon="4.6516">
        <ele>214.39999389648</ele>
        <time>2020-05-24T08:29:45Z</time>
      </trkpt>
      <trkpt lat="44.54765" lon="4.65169">
        <ele>214.19999694824</ele>
        <time>2020-05-24T08:29:48Z</time>
      </trkpt>
      <trkpt lat="44.5476" lon="4.65173">
        <ele>214</ele>
        <time>2020-05-24T08:29:49Z</time>
      </trkpt>
      <trkpt lat="44.54754" lon="4.65178">
        <ele>213.80000305176</ele>
        <time>2020-05-24T08:29:50Z</time>
      </trkpt>
      <trkpt lat="44.54749" lon="4.65184">
        <ele>213.19999694824</ele>
        <time>2020-05-24T08:29:51Z</time>
      </trkpt>
      <trkpt lat="44.54743" lon="4.65188">
        <ele>212.80000305176</ele>
        <time>2020-05-24T08:29:52Z</time>
      </trkpt>
      <trkpt lat="44.54725" lon="4.652">
        <ele>211</ele>
        <time>2020-05-24T08:29:55Z</time>
      </trkpt>
      <trkpt lat="44.54719" lon="4.65204">
        <ele>210.60000610352</ele>
        <time>2020-05-24T08:29:56Z</time>
      </trkpt>
      <trkpt lat="44.54714" lon="4.65207">
        <ele>210.19999694824</ele>
        <time>2020-05-24T08:29:57Z</time>
      </trkpt>
      <trkpt lat="44.54708" lon="4.65209">
        <ele>210</ele>
        <time>2020-05-24T08:29:58Z</time>
      </trkpt>
      <trkpt lat="44.54702" lon="4.65208">
        <ele>209.80000305176</ele>
        <time>2020-05-24T08:29:59Z</time>
      </trkpt>
      <trkpt lat="44.54697" lon="4.65206">
        <ele>209.39999389648</ele>
        <time>2020-05-24T08:30:00Z</time>
      </trkpt>
      <trkpt lat="44.54693" lon="4.65203">
        <ele>209.19999694824</ele>
        <time>2020-05-24T08:30:01Z</time>
      </trkpt>
      <trkpt lat="44.54684" lon="4.65195">
        <ele>208.80000305176</ele>
        <time>2020-05-24T08:30:03Z</time>
      </trkpt>
      <trkpt lat="44.54679" lon="4.65192">
        <ele>208.39999389648</ele>
        <time>2020-05-24T08:30:04Z</time>
      </trkpt>
      <trkpt lat="44.54675" lon="4.65189">
        <ele>208</ele>
        <time>2020-05-24T08:30:05Z</time>
      </trkpt>
      <trkpt lat="44.54671" lon="4.65188">
        <ele>207.39999389648</ele>
        <time>2020-05-24T08:30:06Z</time>
      </trkpt>
      <trkpt lat="44.54666" lon="4.65187">
        <ele>207</ele>
        <time>2020-05-24T08:30:07Z</time>
      </trkpt>
      <trkpt lat="44.54654" lon="4.65187">
        <ele>206.19999694824</ele>
        <time>2020-05-24T08:30:09Z</time>
      </trkpt>
      <trkpt lat="44.54647" lon="4.65188">
        <ele>206</ele>
        <time>2020-05-24T08:30:10Z</time>
      </trkpt>
      <trkpt lat="44.54634" lon="4.65189">
        <ele>205.19999694824</ele>
        <time>2020-05-24T08:30:12Z</time>
      </trkpt>
      <trkpt lat="44.54627" lon="4.6519">
        <ele>205.19999694824</ele>
        <time>2020-05-24T08:30:13Z</time>
      </trkpt>
      <trkpt lat="44.54614" lon="4.65193">
        <ele>204.19999694824</ele>
        <time>2020-05-24T08:30:15Z</time>
      </trkpt>
      <trkpt lat="44.54608" lon="4.65198">
        <ele>204</ele>
        <time>2020-05-24T08:30:16Z</time>
      </trkpt>
      <trkpt lat="44.54602" lon="4.65204">
        <ele>204</ele>
        <time>2020-05-24T08:30:17Z</time>
      </trkpt>
      <trkpt lat="44.54584" lon="4.65225">
        <ele>201.19999694824</ele>
        <time>2020-05-24T08:30:20Z</time>
      </trkpt>
      <trkpt lat="44.54578" lon="4.65232">
        <ele>200</ele>
        <time>2020-05-24T08:30:21Z</time>
      </trkpt>
      <trkpt lat="44.54573" lon="4.65238">
        <ele>199.60000610352</ele>
        <time>2020-05-24T08:30:22Z</time>
      </trkpt>
      <trkpt lat="44.54567" lon="4.65244">
        <ele>198.19999694824</ele>
        <time>2020-05-24T08:30:23Z</time>
      </trkpt>
      <trkpt lat="44.5456" lon="4.65249">
        <ele>197.19999694824</ele>
        <time>2020-05-24T08:30:24Z</time>
      </trkpt>
      <trkpt lat="44.54553" lon="4.65253">
        <ele>195.80000305176</ele>
        <time>2020-05-24T08:30:25Z</time>
      </trkpt>
      <trkpt lat="44.54539" lon="4.6526">
        <ele>194</ele>
        <time>2020-05-24T08:30:27Z</time>
      </trkpt>
      <trkpt lat="44.54534" lon="4.65262">
        <ele>193.60000610352</ele>
        <time>2020-05-24T08:30:28Z</time>
      </trkpt>
      <trkpt lat="44.54529" lon="4.65265">
        <ele>193.19999694824</ele>
        <time>2020-05-24T08:30:29Z</time>
      </trkpt>
      <trkpt lat="44.54525" lon="4.65269">
        <ele>192.80000305176</ele>
        <time>2020-05-24T08:30:30Z</time>
      </trkpt>
      <trkpt lat="44.54522" lon="4.65272">
        <ele>192.60000610352</ele>
        <time>2020-05-24T08:30:31Z</time>
      </trkpt>
      <trkpt lat="44.5452" lon="4.65276">
        <ele>192.39999389648</ele>
        <time>2020-05-24T08:30:32Z</time>
      </trkpt>
      <trkpt lat="44.54518" lon="4.65278">
        <ele>192.39999389648</ele>
        <time>2020-05-24T08:30:33Z</time>
      </trkpt>
      <trkpt lat="44.54516" lon="4.65281">
        <ele>191.19999694824</ele>
        <time>2020-05-24T08:30:34Z</time>
      </trkpt>
      <trkpt lat="44.54515" lon="4.65283">
        <ele>190.80000305176</ele>
        <time>2020-05-24T08:30:35Z</time>
      </trkpt>
      <trkpt lat="44.54509" lon="4.65291">
        <ele>190</ele>
        <time>2020-05-24T08:30:38Z</time>
      </trkpt>
      <trkpt lat="44.54507" lon="4.65294">
        <ele>189.80000305176</ele>
        <time>2020-05-24T08:30:39Z</time>
      </trkpt>
      <trkpt lat="44.54505" lon="4.65298">
        <ele>189.80000305176</ele>
        <time>2020-05-24T08:30:40Z</time>
      </trkpt>
      <trkpt lat="44.54504" lon="4.65301">
        <ele>190</ele>
        <time>2020-05-24T08:30:41Z</time>
      </trkpt>
      <trkpt lat="44.54502" lon="4.65303">
        <ele>189.80000305176</ele>
        <time>2020-05-24T08:30:42Z</time>
      </trkpt>
      <trkpt lat="44.54501" lon="4.65307">
        <ele>189.80000305176</ele>
        <time>2020-05-24T08:30:43Z</time>
      </trkpt>
      <trkpt lat="44.545" lon="4.65313">
        <ele>189.80000305176</ele>
        <time>2020-05-24T08:30:45Z</time>
      </trkpt>
      <trkpt lat="44.54499" lon="4.65315">
        <ele>189.80000305176</ele>
        <time>2020-05-24T08:30:46Z</time>
      </trkpt>
      <trkpt lat="44.54498" lon="4.65317">
        <ele>189.60000610352</ele>
        <time>2020-05-24T08:30:47Z</time>
      </trkpt>
      <trkpt lat="44.54496" lon="4.65321">
        <ele>189.19999694824</ele>
        <time>2020-05-24T08:30:49Z</time>
      </trkpt>
      <trkpt lat="44.54494" lon="4.65324">
        <ele>189</ele>
        <time>2020-05-24T08:30:50Z</time>
      </trkpt>
      <trkpt lat="44.54491" lon="4.65331">
        <ele>188.80000305176</ele>
        <time>2020-05-24T08:30:52Z</time>
      </trkpt>
      <trkpt lat="44.54488" lon="4.65339">
        <ele>188.60000610352</ele>
        <time>2020-05-24T08:30:54Z</time>
      </trkpt>
      <trkpt lat="44.54487" lon="4.65342">
        <ele>188.60000610352</ele>
        <time>2020-05-24T08:30:55Z</time>
      </trkpt>
      <trkpt lat="44.54486" lon="4.65345">
        <ele>188.60000610352</ele>
        <time>2020-05-24T08:30:56Z</time>
      </trkpt>
      <trkpt lat="44.54482" lon="4.65355">
        <ele>188.19999694824</ele>
        <time>2020-05-24T08:30:59Z</time>
      </trkpt>
      <trkpt lat="44.54481" lon="4.6536">
        <ele>188.19999694824</ele>
        <time>2020-05-24T08:31:00Z</time>
      </trkpt>
      <trkpt lat="44.5448" lon="4.65365">
        <ele>187.80000305176</ele>
        <time>2020-05-24T08:31:01Z</time>
      </trkpt>
      <trkpt lat="44.54478" lon="4.65376">
        <ele>187.39999389648</ele>
        <time>2020-05-24T08:31:03Z</time>
      </trkpt>
      <trkpt lat="44.54477" lon="4.65381">
        <ele>187.39999389648</ele>
        <time>2020-05-24T08:31:04Z</time>
      </trkpt>
      <trkpt lat="44.54476" lon="4.65386">
        <ele>187.19999694824</ele>
        <time>2020-05-24T08:31:05Z</time>
      </trkpt>
      <trkpt lat="44.54475" lon="4.6539">
        <ele>187.19999694824</ele>
        <time>2020-05-24T08:31:06Z</time>
      </trkpt>
      <trkpt lat="44.54472" lon="4.65399">
        <ele>187</ele>
        <time>2020-05-24T08:31:08Z</time>
      </trkpt>
      <trkpt lat="44.54471" lon="4.65404">
        <ele>187</ele>
        <time>2020-05-24T08:31:09Z</time>
      </trkpt>
      <trkpt lat="44.5447" lon="4.65408">
        <ele>186.39999389648</ele>
        <time>2020-05-24T08:31:10Z</time>
      </trkpt>
      <trkpt lat="44.54469" lon="4.65412">
        <ele>186</ele>
        <time>2020-05-24T08:31:11Z</time>
      </trkpt>
      <trkpt lat="44.54469" lon="4.65415">
        <ele>186</ele>
        <time>2020-05-24T08:31:12Z</time>
      </trkpt>
      <trkpt lat="44.54468" lon="4.65426">
        <ele>185.39999389648</ele>
        <time>2020-05-24T08:31:15Z</time>
      </trkpt>
      <trkpt lat="44.54468" lon="4.6543">
        <ele>185.39999389648</ele>
        <time>2020-05-24T08:31:16Z</time>
      </trkpt>
      <trkpt lat="44.54469" lon="4.65435">
        <ele>185.39999389648</ele>
        <time>2020-05-24T08:31:17Z</time>
      </trkpt>
      <trkpt lat="44.54471" lon="4.65444">
        <ele>185.39999389648</ele>
        <time>2020-05-24T08:31:19Z</time>
      </trkpt>
      <trkpt lat="44.54472" lon="4.65448">
        <ele>185.19999694824</ele>
        <time>2020-05-24T08:31:20Z</time>
      </trkpt>
      <trkpt lat="44.54474" lon="4.65452">
        <ele>185.19999694824</ele>
        <time>2020-05-24T08:31:21Z</time>
      </trkpt>
      <trkpt lat="44.54476" lon="4.65456">
        <ele>185.19999694824</ele>
        <time>2020-05-24T08:31:22Z</time>
      </trkpt>
      <trkpt lat="44.54479" lon="4.65459">
        <ele>185.19999694824</ele>
        <time>2020-05-24T08:31:23Z</time>
      </trkpt>
      <trkpt lat="44.54482" lon="4.65462">
        <ele>185.39999389648</ele>
        <time>2020-05-24T08:31:24Z</time>
      </trkpt>
      <trkpt lat="44.54484" lon="4.65465">
        <ele>185.39999389648</ele>
        <time>2020-05-24T08:31:25Z</time>
      </trkpt>
      <trkpt lat="44.54492" lon="4.65474">
        <ele>185.60000610352</ele>
        <time>2020-05-24T08:31:28Z</time>
      </trkpt>
      <trkpt lat="44.54494" lon="4.65477">
        <ele>185.60000610352</ele>
        <time>2020-05-24T08:31:29Z</time>
      </trkpt>
      <trkpt lat="44.54496" lon="4.6548">
        <ele>185.80000305176</ele>
        <time>2020-05-24T08:31:30Z</time>
      </trkpt>
      <trkpt lat="44.54499" lon="4.65484">
        <ele>186</ele>
        <time>2020-05-24T08:31:31Z</time>
      </trkpt>
      <trkpt lat="44.54501" lon="4.65487">
        <ele>186.19999694824</ele>
        <time>2020-05-24T08:31:32Z</time>
      </trkpt>
      <trkpt lat="44.54503" lon="4.65491">
        <ele>186</ele>
        <time>2020-05-24T08:31:33Z</time>
      </trkpt>
      <trkpt lat="44.54504" lon="4.65494">
        <ele>186.19999694824</ele>
        <time>2020-05-24T08:31:34Z</time>
      </trkpt>
      <trkpt lat="44.54507" lon="4.65497">
        <ele>186.19999694824</ele>
        <time>2020-05-24T08:31:35Z</time>
      </trkpt>
      <trkpt lat="44.54509" lon="4.65501">
        <ele>186.19999694824</ele>
        <time>2020-05-24T08:31:36Z</time>
      </trkpt>
      <trkpt lat="44.54511" lon="4.65504">
        <ele>186.19999694824</ele>
        <time>2020-05-24T08:31:37Z</time>
      </trkpt>
      <trkpt lat="44.54512" lon="4.65509">
        <ele>186.60000610352</ele>
        <time>2020-05-24T08:31:38Z</time>
      </trkpt>
      <trkpt lat="44.54514" lon="4.65513">
        <ele>186.60000610352</ele>
        <time>2020-05-24T08:31:39Z</time>
      </trkpt>
      <trkpt lat="44.54516" lon="4.65517">
        <ele>186.80000305176</ele>
        <time>2020-05-24T08:31:40Z</time>
      </trkpt>
      <trkpt lat="44.54517" lon="4.65521">
        <ele>187</ele>
        <time>2020-05-24T08:31:41Z</time>
      </trkpt>
      <trkpt lat="44.54518" lon="4.65525">
        <ele>187</ele>
        <time>2020-05-24T08:31:42Z</time>
      </trkpt>
      <trkpt lat="44.54519" lon="4.6553">
        <ele>187.39999389648</ele>
        <time>2020-05-24T08:31:43Z</time>
      </trkpt>
      <trkpt lat="44.54522" lon="4.65538">
        <ele>187.60000610352</ele>
        <time>2020-05-24T08:31:45Z</time>
      </trkpt>
      <trkpt lat="44.54524" lon="4.65543">
        <ele>187.60000610352</ele>
        <time>2020-05-24T08:31:46Z</time>
      </trkpt>
      <trkpt lat="44.54527" lon="4.65551">
        <ele>187.80000305176</ele>
        <time>2020-05-24T08:31:48Z</time>
      </trkpt>
      <trkpt lat="44.5453" lon="4.65559">
        <ele>187.80000305176</ele>
        <time>2020-05-24T08:31:50Z</time>
      </trkpt>
      <trkpt lat="44.54533" lon="4.65564">
        <ele>187.80000305176</ele>
        <time>2020-05-24T08:31:51Z</time>
      </trkpt>
      <trkpt lat="44.54536" lon="4.65573">
        <ele>187.80000305176</ele>
        <time>2020-05-24T08:31:53Z</time>
      </trkpt>
      <trkpt lat="44.54538" lon="4.65576">
        <ele>187.80000305176</ele>
        <time>2020-05-24T08:31:54Z</time>
      </trkpt>
      <trkpt lat="44.54539" lon="4.6558">
        <ele>187.80000305176</ele>
        <time>2020-05-24T08:31:55Z</time>
      </trkpt>
      <trkpt lat="44.5454" lon="4.65583">
        <ele>187.80000305176</ele>
        <time>2020-05-24T08:31:56Z</time>
      </trkpt>
      <trkpt lat="44.54541" lon="4.65584">
        <ele>187.80000305176</ele>
        <time>2020-05-24T08:31:57Z</time>
      </trkpt>
      <trkpt lat="44.54542" lon="4.65586">
        <ele>187.80000305176</ele>
        <time>2020-05-24T08:31:58Z</time>
      </trkpt>
      <trkpt lat="44.54542" lon="4.65587">
        <ele>187.80000305176</ele>
        <time>2020-05-24T08:31:59Z</time>
      </trkpt>
      <trkpt lat="44.54543" lon="4.65588">
        <ele>187.60000610352</ele>
        <time>2020-05-24T08:32:00Z</time>
      </trkpt>
      <trkpt lat="44.54545" lon="4.6559">
        <ele>187.60000610352</ele>
        <time>2020-05-24T08:32:01Z</time>
      </trkpt>
      <trkpt lat="44.54547" lon="4.65593">
        <ele>187.19999694824</ele>
        <time>2020-05-24T08:32:02Z</time>
      </trkpt>
      <trkpt lat="44.5455" lon="4.65597">
        <ele>187</ele>
        <time>2020-05-24T08:32:03Z</time>
      </trkpt>
      <trkpt lat="44.54552" lon="4.65602">
        <ele>187</ele>
        <time>2020-05-24T08:32:04Z</time>
      </trkpt>
      <trkpt lat="44.54555" lon="4.65607">
        <ele>187</ele>
        <time>2020-05-24T08:32:05Z</time>
      </trkpt>
      <trkpt lat="44.54557" lon="4.65612">
        <ele>187</ele>
        <time>2020-05-24T08:32:06Z</time>
      </trkpt>
      <trkpt lat="44.5456" lon="4.65622">
        <ele>186.60000610352</ele>
        <time>2020-05-24T08:32:08Z</time>
      </trkpt>
      <trkpt lat="44.54562" lon="4.65626">
        <ele>186.60000610352</ele>
        <time>2020-05-24T08:32:09Z</time>
      </trkpt>
      <trkpt lat="44.54564" lon="4.65627">
        <ele>186.19999694824</ele>
        <time>2020-05-24T08:32:10Z</time>
      </trkpt>
      <trkpt lat="44.54565" lon="4.65626">
        <ele>186</ele>
        <time>2020-05-24T08:32:11Z</time>
      </trkpt>
      <trkpt lat="44.54566" lon="4.65623">
        <ele>185.39999389648</ele>
        <time>2020-05-24T08:32:12Z</time>
      </trkpt>
      <trkpt lat="44.54567" lon="4.65619">
        <ele>184.60000610352</ele>
        <time>2020-05-24T08:32:13Z</time>
      </trkpt>
      <trkpt lat="44.54568" lon="4.65615">
        <ele>183.80000305176</ele>
        <time>2020-05-24T08:32:14Z</time>
      </trkpt>
      <trkpt lat="44.54569" lon="4.65604">
        <ele>182.80000305176</ele>
        <time>2020-05-24T08:32:16Z</time>
      </trkpt>
      <trkpt lat="44.5457" lon="4.65599">
        <ele>182.60000610352</ele>
        <time>2020-05-24T08:32:17Z</time>
      </trkpt>
      <trkpt lat="44.5457" lon="4.65595">
        <ele>182.39999389648</ele>
        <time>2020-05-24T08:32:18Z</time>
      </trkpt>
      <trkpt lat="44.54571" lon="4.65591">
        <ele>182.19999694824</ele>
        <time>2020-05-24T08:32:19Z</time>
      </trkpt>
      <trkpt lat="44.54572" lon="4.65589">
        <ele>181.80000305176</ele>
        <time>2020-05-24T08:32:20Z</time>
      </trkpt>
      <trkpt lat="44.54574" lon="4.6559">
        <ele>181.39999389648</ele>
        <time>2020-05-24T08:32:21Z</time>
      </trkpt>
      <trkpt lat="44.54576" lon="4.6559">
        <ele>181</ele>
        <time>2020-05-24T08:32:22Z</time>
      </trkpt>
      <trkpt lat="44.54586" lon="4.65594">
        <ele>180</ele>
        <time>2020-05-24T08:32:25Z</time>
      </trkpt>
      <trkpt lat="44.54589" lon="4.65595">
        <ele>180</ele>
        <time>2020-05-24T08:32:26Z</time>
      </trkpt>
      <trkpt lat="44.54592" lon="4.65596">
        <ele>179.60000610352</ele>
        <time>2020-05-24T08:32:27Z</time>
      </trkpt>
      <trkpt lat="44.54595" lon="4.65599">
        <ele>179.19999694824</ele>
        <time>2020-05-24T08:32:28Z</time>
      </trkpt>
      <trkpt lat="44.54598" lon="4.65602">
        <ele>179</ele>
        <time>2020-05-24T08:32:29Z</time>
      </trkpt>
      <trkpt lat="44.54601" lon="4.65605">
        <ele>178.60000610352</ele>
        <time>2020-05-24T08:32:30Z</time>
      </trkpt>
      <trkpt lat="44.54603" lon="4.65608">
        <ele>178.39999389648</ele>
        <time>2020-05-24T08:32:31Z</time>
      </trkpt>
      <trkpt lat="44.54606" lon="4.65611">
        <ele>177.80000305176</ele>
        <time>2020-05-24T08:32:32Z</time>
      </trkpt>
      <trkpt lat="44.54613" lon="4.65621">
        <ele>176.80000305176</ele>
        <time>2020-05-24T08:32:35Z</time>
      </trkpt>
      <trkpt lat="44.54616" lon="4.65624">
        <ele>175.80000305176</ele>
        <time>2020-05-24T08:32:36Z</time>
      </trkpt>
      <trkpt lat="44.54618" lon="4.65627">
        <ele>175.19999694824</ele>
        <time>2020-05-24T08:32:37Z</time>
      </trkpt>
      <trkpt lat="44.5462" lon="4.65629">
        <ele>175</ele>
        <time>2020-05-24T08:32:38Z</time>
      </trkpt>
      <trkpt lat="44.54623" lon="4.65631">
        <ele>174.60000610352</ele>
        <time>2020-05-24T08:32:39Z</time>
      </trkpt>
      <trkpt lat="44.54625" lon="4.65633">
        <ele>174.19999694824</ele>
        <time>2020-05-24T08:32:40Z</time>
      </trkpt>
      <trkpt lat="44.54627" lon="4.65636">
        <ele>173.80000305176</ele>
        <time>2020-05-24T08:32:41Z</time>
      </trkpt>
      <trkpt lat="44.5463" lon="4.65638">
        <ele>173.19999694824</ele>
        <time>2020-05-24T08:32:42Z</time>
      </trkpt>
      <trkpt lat="44.54633" lon="4.6564">
        <ele>172.60000610352</ele>
        <time>2020-05-24T08:32:43Z</time>
      </trkpt>
      <trkpt lat="44.54639" lon="4.65645">
        <ele>171.80000305176</ele>
        <time>2020-05-24T08:32:45Z</time>
      </trkpt>
      <trkpt lat="44.54644" lon="4.65651">
        <ele>171.60000610352</ele>
        <time>2020-05-24T08:32:47Z</time>
      </trkpt>
      <trkpt lat="44.54647" lon="4.65654">
        <ele>171.19999694824</ele>
        <time>2020-05-24T08:32:48Z</time>
      </trkpt>
      <trkpt lat="44.54652" lon="4.65661">
        <ele>170.19999694824</ele>
        <time>2020-05-24T08:32:50Z</time>
      </trkpt>
      <trkpt lat="44.54654" lon="4.65665">
        <ele>169.60000610352</ele>
        <time>2020-05-24T08:32:51Z</time>
      </trkpt>
      <trkpt lat="44.54657" lon="4.65668">
        <ele>169</ele>
        <time>2020-05-24T08:32:52Z</time>
      </trkpt>
      <trkpt lat="44.54659" lon="4.65671">
        <ele>168.60000610352</ele>
        <time>2020-05-24T08:32:53Z</time>
      </trkpt>
      <trkpt lat="44.54661" lon="4.65674">
        <ele>168</ele>
        <time>2020-05-24T08:32:54Z</time>
      </trkpt>
      <trkpt lat="44.54663" lon="4.65676">
        <ele>167.60000610352</ele>
        <time>2020-05-24T08:32:55Z</time>
      </trkpt>
      <trkpt lat="44.54665" lon="4.6568">
        <ele>167</ele>
        <time>2020-05-24T08:32:56Z</time>
      </trkpt>
      <trkpt lat="44.54668" lon="4.65683">
        <ele>166.60000610352</ele>
        <time>2020-05-24T08:32:57Z</time>
      </trkpt>
      <trkpt lat="44.5467" lon="4.65687">
        <ele>166.39999389648</ele>
        <time>2020-05-24T08:32:58Z</time>
      </trkpt>
      <trkpt lat="44.54673" lon="4.6569">
        <ele>165.80000305176</ele>
        <time>2020-05-24T08:32:59Z</time>
      </trkpt>
      <trkpt lat="44.54675" lon="4.65693">
        <ele>165.39999389648</ele>
        <time>2020-05-24T08:33:00Z</time>
      </trkpt>
      <trkpt lat="44.54678" lon="4.65697">
        <ele>164.39999389648</ele>
        <time>2020-05-24T08:33:01Z</time>
      </trkpt>
      <trkpt lat="44.54681" lon="4.657">
        <ele>163.60000610352</ele>
        <time>2020-05-24T08:33:02Z</time>
      </trkpt>
      <trkpt lat="44.54684" lon="4.65704">
        <ele>163</ele>
        <time>2020-05-24T08:33:03Z</time>
      </trkpt>
      <trkpt lat="44.54687" lon="4.65708">
        <ele>162.39999389648</ele>
        <time>2020-05-24T08:33:04Z</time>
      </trkpt>
      <trkpt lat="44.54689" lon="4.65712">
        <ele>162.39999389648</ele>
        <time>2020-05-24T08:33:05Z</time>
      </trkpt>
      <trkpt lat="44.54692" lon="4.65716">
        <ele>162</ele>
        <time>2020-05-24T08:33:06Z</time>
      </trkpt>
      <trkpt lat="44.54695" lon="4.65719">
        <ele>161.60000610352</ele>
        <time>2020-05-24T08:33:07Z</time>
      </trkpt>
      <trkpt lat="44.54697" lon="4.65723">
        <ele>161.19999694824</ele>
        <time>2020-05-24T08:33:08Z</time>
      </trkpt>
      <trkpt lat="44.54699" lon="4.65726">
        <ele>161.19999694824</ele>
        <time>2020-05-24T08:33:09Z</time>
      </trkpt>
      <trkpt lat="44.54701" lon="4.65729">
        <ele>160.80000305176</ele>
        <time>2020-05-24T08:33:10Z</time>
      </trkpt>
      <trkpt lat="44.54703" lon="4.65731">
        <ele>160.80000305176</ele>
        <time>2020-05-24T08:33:11Z</time>
      </trkpt>
      <trkpt lat="44.54705" lon="4.65734">
        <ele>160.39999389648</ele>
        <time>2020-05-24T08:33:12Z</time>
      </trkpt>
      <trkpt lat="44.54707" lon="4.65737">
        <ele>160.39999389648</ele>
        <time>2020-05-24T08:33:13Z</time>
      </trkpt>
      <trkpt lat="44.54709" lon="4.6574">
        <ele>159.80000305176</ele>
        <time>2020-05-24T08:33:14Z</time>
      </trkpt>
      <trkpt lat="44.54724" lon="4.6576">
        <ele>157.80000305176</ele>
        <time>2020-05-24T08:33:19Z</time>
      </trkpt>
      <trkpt lat="44.54726" lon="4.65764">
        <ele>157.60000610352</ele>
        <time>2020-05-24T08:33:20Z</time>
      </trkpt>
      <trkpt lat="44.54734" lon="4.6578">
        <ele>157.19999694824</ele>
        <time>2020-05-24T08:33:23Z</time>
      </trkpt>
      <trkpt lat="44.54736" lon="4.65786">
        <ele>157.19999694824</ele>
        <time>2020-05-24T08:33:24Z</time>
      </trkpt>
      <trkpt lat="44.54739" lon="4.65796">
        <ele>157</ele>
        <time>2020-05-24T08:33:26Z</time>
      </trkpt>
      <trkpt lat="44.54741" lon="4.65801">
        <ele>157</ele>
        <time>2020-05-24T08:33:27Z</time>
      </trkpt>
      <trkpt lat="44.54742" lon="4.65805">
        <ele>156.60000610352</ele>
        <time>2020-05-24T08:33:28Z</time>
      </trkpt>
      <trkpt lat="44.54744" lon="4.65809">
        <ele>156.19999694824</ele>
        <time>2020-05-24T08:33:29Z</time>
      </trkpt>
      <trkpt lat="44.54746" lon="4.65812">
        <ele>156.19999694824</ele>
        <time>2020-05-24T08:33:30Z</time>
      </trkpt>
      <trkpt lat="44.54748" lon="4.65816">
        <ele>156.19999694824</ele>
        <time>2020-05-24T08:33:31Z</time>
      </trkpt>
      <trkpt lat="44.54749" lon="4.65819">
        <ele>155.80000305176</ele>
        <time>2020-05-24T08:33:32Z</time>
      </trkpt>
      <trkpt lat="44.54751" lon="4.65822">
        <ele>155.80000305176</ele>
        <time>2020-05-24T08:33:33Z</time>
      </trkpt>
      <trkpt lat="44.54755" lon="4.65828">
        <ele>154.80000305176</ele>
        <time>2020-05-24T08:33:35Z</time>
      </trkpt>
      <trkpt lat="44.54757" lon="4.6583">
        <ele>154.60000610352</ele>
        <time>2020-05-24T08:33:36Z</time>
      </trkpt>
      <trkpt lat="44.5476" lon="4.65832">
        <ele>154.39999389648</ele>
        <time>2020-05-24T08:33:37Z</time>
      </trkpt>
      <trkpt lat="44.54762" lon="4.65832">
        <ele>153.80000305176</ele>
        <time>2020-05-24T08:33:38Z</time>
      </trkpt>
      <trkpt lat="44.54765" lon="4.65832">
        <ele>153.60000610352</ele>
        <time>2020-05-24T08:33:39Z</time>
      </trkpt>
      <trkpt lat="44.54766" lon="4.6583">
        <ele>153.39999389648</ele>
        <time>2020-05-24T08:33:40Z</time>
      </trkpt>
      <trkpt lat="44.54767" lon="4.65828">
        <ele>153.19999694824</ele>
        <time>2020-05-24T08:33:41Z</time>
      </trkpt>
      <trkpt lat="44.54767" lon="4.65828">
        <ele>153.19999694824</ele>
        <time>2020-05-24T08:33:41Z</time>
      </trkpt>
      <trkpt lat="44.54768" lon="4.65826">
        <ele>153</ele>
        <time>2020-05-24T08:33:42Z</time>
      </trkpt>
      <trkpt lat="44.54768" lon="4.65824">
        <ele>152.80000305176</ele>
        <time>2020-05-24T08:33:43Z</time>
      </trkpt>
      <trkpt lat="44.54768" lon="4.65821">
        <ele>152.60000610352</ele>
        <time>2020-05-24T08:33:44Z</time>
      </trkpt>
      <trkpt lat="44.54769" lon="4.65815">
        <ele>152.39999389648</ele>
        <time>2020-05-24T08:33:46Z</time>
      </trkpt>
      <trkpt lat="44.54769" lon="4.65811">
        <ele>152.19999694824</ele>
        <time>2020-05-24T08:33:47Z</time>
      </trkpt>
      <trkpt lat="44.54768" lon="4.65799">
        <ele>152</ele>
        <time>2020-05-24T08:33:50Z</time>
      </trkpt>
      <trkpt lat="44.54768" lon="4.65795">
        <ele>152</ele>
        <time>2020-05-24T08:33:51Z</time>
      </trkpt>
      <trkpt lat="44.54768" lon="4.6579">
        <ele>151.60000610352</ele>
        <time>2020-05-24T08:33:52Z</time>
      </trkpt>
      <trkpt lat="44.54768" lon="4.65786">
        <ele>151.39999389648</ele>
        <time>2020-05-24T08:33:53Z</time>
      </trkpt>
      <trkpt lat="44.54768" lon="4.65783">
        <ele>151</ele>
        <time>2020-05-24T08:33:54Z</time>
      </trkpt>
      <trkpt lat="44.54768" lon="4.65781">
        <ele>150.60000610352</ele>
        <time>2020-05-24T08:33:55Z</time>
      </trkpt>
      <trkpt lat="44.54768" lon="4.6578">
        <ele>150.19999694824</ele>
        <time>2020-05-24T08:33:56Z</time>
      </trkpt>
      <trkpt lat="44.54768" lon="4.65778">
        <ele>147.60000610352</ele>
        <time>2020-05-24T08:34:02Z</time>
      </trkpt>
      <trkpt lat="44.54768" lon="4.65778">
        <ele>147.19999694824</ele>
        <time>2020-05-24T08:34:03Z</time>
      </trkpt>
      <trkpt lat="44.54768" lon="4.65778">
        <ele>146.60000610352</ele>
        <time>2020-05-24T08:34:09Z</time>
      </trkpt>
      <trkpt lat="44.54768" lon="4.65778">
        <ele>145.19999694824</ele>
        <time>2020-05-24T08:34:20Z</time>
      </trkpt>
      <trkpt lat="44.54769" lon="4.65777">
        <ele>144.80000305176</ele>
        <time>2020-05-24T08:34:26Z</time>
      </trkpt>
      <trkpt lat="44.54769" lon="4.65776">
        <ele>144.80000305176</ele>
        <time>2020-05-24T08:34:27Z</time>
      </trkpt>
      <trkpt lat="44.54768" lon="4.65774">
        <ele>144.80000305176</ele>
        <time>2020-05-24T08:34:28Z</time>
      </trkpt>
      <trkpt lat="44.54767" lon="4.65769">
        <ele>144.60000610352</ele>
        <time>2020-05-24T08:34:30Z</time>
      </trkpt>
      <trkpt lat="44.54766" lon="4.65767">
        <ele>144.60000610352</ele>
        <time>2020-05-24T08:34:31Z</time>
      </trkpt>
      <trkpt lat="44.54764" lon="4.65763">
        <ele>144.60000610352</ele>
        <time>2020-05-24T08:34:33Z</time>
      </trkpt>
      <trkpt lat="44.54763" lon="4.6576">
        <ele>144.60000610352</ele>
        <time>2020-05-24T08:34:34Z</time>
      </trkpt>
      <trkpt lat="44.54762" lon="4.65758">
        <ele>144.39999389648</ele>
        <time>2020-05-24T08:34:35Z</time>
      </trkpt>
      <trkpt lat="44.5476" lon="4.65751">
        <ele>144.60000610352</ele>
        <time>2020-05-24T08:34:37Z</time>
      </trkpt>
      <trkpt lat="44.54759" lon="4.65748">
        <ele>144.60000610352</ele>
        <time>2020-05-24T08:34:38Z</time>
      </trkpt>
      <trkpt lat="44.54756" lon="4.65746">
        <ele>144.80000305176</ele>
        <time>2020-05-24T08:34:39Z</time>
      </trkpt>
      <trkpt lat="44.54754" lon="4.65743">
        <ele>145</ele>
        <time>2020-05-24T08:34:40Z</time>
      </trkpt>
      <trkpt lat="44.54751" lon="4.65741">
        <ele>145</ele>
        <time>2020-05-24T08:34:41Z</time>
      </trkpt>
      <trkpt lat="44.54749" lon="4.65738">
        <ele>145</ele>
        <time>2020-05-24T08:34:42Z</time>
      </trkpt>
      <trkpt lat="44.54748" lon="4.65735">
        <ele>145</ele>
        <time>2020-05-24T08:34:43Z</time>
      </trkpt>
      <trkpt lat="44.54746" lon="4.65732">
        <ele>145</ele>
        <time>2020-05-24T08:34:44Z</time>
      </trkpt>
      <trkpt lat="44.54744" lon="4.65729">
        <ele>145.19999694824</ele>
        <time>2020-05-24T08:34:45Z</time>
      </trkpt>
      <trkpt lat="44.54742" lon="4.65726">
        <ele>145.39999389648</ele>
        <time>2020-05-24T08:34:46Z</time>
      </trkpt>
      <trkpt lat="44.54741" lon="4.65722">
        <ele>145.80000305176</ele>
        <time>2020-05-24T08:34:47Z</time>
      </trkpt>
      <trkpt lat="44.54738" lon="4.65718">
        <ele>146.39999389648</ele>
        <time>2020-05-24T08:34:48Z</time>
      </trkpt>
      <trkpt lat="44.54737" lon="4.65714">
        <ele>147</ele>
        <time>2020-05-24T08:34:49Z</time>
      </trkpt>
      <trkpt lat="44.54735" lon="4.65711">
        <ele>148</ele>
        <time>2020-05-24T08:34:50Z</time>
      </trkpt>
      <trkpt lat="44.54733" lon="4.65707">
        <ele>148.39999389648</ele>
        <time>2020-05-24T08:34:51Z</time>
      </trkpt>
      <trkpt lat="44.54731" lon="4.65704">
        <ele>148.60000610352</ele>
        <time>2020-05-24T08:34:52Z</time>
      </trkpt>
      <trkpt lat="44.54729" lon="4.657">
        <ele>148.80000305176</ele>
        <time>2020-05-24T08:34:53Z</time>
      </trkpt>
      <trkpt lat="44.54727" lon="4.65696">
        <ele>149</ele>
        <time>2020-05-24T08:34:54Z</time>
      </trkpt>
      <trkpt lat="44.54724" lon="4.65691">
        <ele>149.19999694824</ele>
        <time>2020-05-24T08:34:55Z</time>
      </trkpt>
      <trkpt lat="44.54722" lon="4.65687">
        <ele>149.19999694824</ele>
        <time>2020-05-24T08:34:56Z</time>
      </trkpt>
      <trkpt lat="44.54721" lon="4.65683">
        <ele>149.39999389648</ele>
        <time>2020-05-24T08:34:57Z</time>
      </trkpt>
      <trkpt lat="44.54719" lon="4.65679">
        <ele>149.39999389648</ele>
        <time>2020-05-24T08:34:58Z</time>
      </trkpt>
      <trkpt lat="44.54717" lon="4.65675">
        <ele>149.80000305176</ele>
        <time>2020-05-24T08:34:59Z</time>
      </trkpt>
      <trkpt lat="44.54715" lon="4.65672">
        <ele>150.39999389648</ele>
        <time>2020-05-24T08:35:00Z</time>
      </trkpt>
      <trkpt lat="44.54714" lon="4.65669">
        <ele>150.60000610352</ele>
        <time>2020-05-24T08:35:01Z</time>
      </trkpt>
      <trkpt lat="44.54712" lon="4.65665">
        <ele>151</ele>
        <time>2020-05-24T08:35:02Z</time>
      </trkpt>
      <trkpt lat="44.54709" lon="4.65661">
        <ele>151</ele>
        <time>2020-05-24T08:35:03Z</time>
      </trkpt>
      <trkpt lat="44.54706" lon="4.65657">
        <ele>151.60000610352</ele>
        <time>2020-05-24T08:35:04Z</time>
      </trkpt>
      <trkpt lat="44.54703" lon="4.65655">
        <ele>151.60000610352</ele>
        <time>2020-05-24T08:35:05Z</time>
      </trkpt>
      <trkpt lat="44.547" lon="4.65653">
        <ele>152</ele>
        <time>2020-05-24T08:35:06Z</time>
      </trkpt>
      <trkpt lat="44.54696" lon="4.65652">
        <ele>152.19999694824</ele>
        <time>2020-05-24T08:35:07Z</time>
      </trkpt>
      <trkpt lat="44.54693" lon="4.6565">
        <ele>152.19999694824</ele>
        <time>2020-05-24T08:35:08Z</time>
      </trkpt>
      <trkpt lat="44.5469" lon="4.65648">
        <ele>152.39999389648</ele>
        <time>2020-05-24T08:35:09Z</time>
      </trkpt>
      <trkpt lat="44.54687" lon="4.65645">
        <ele>152.39999389648</ele>
        <time>2020-05-24T08:35:10Z</time>
      </trkpt>
      <trkpt lat="44.54684" lon="4.65643">
        <ele>152.39999389648</ele>
        <time>2020-05-24T08:35:11Z</time>
      </trkpt>
      <trkpt lat="44.54681" lon="4.6564">
        <ele>152.60000610352</ele>
        <time>2020-05-24T08:35:12Z</time>
      </trkpt>
      <trkpt lat="44.54679" lon="4.65637">
        <ele>152.60000610352</ele>
        <time>2020-05-24T08:35:13Z</time>
      </trkpt>
      <trkpt lat="44.54677" lon="4.65633">
        <ele>152.60000610352</ele>
        <time>2020-05-24T08:35:14Z</time>
      </trkpt>
      <trkpt lat="44.54675" lon="4.6563">
        <ele>152.60000610352</ele>
        <time>2020-05-24T08:35:15Z</time>
      </trkpt>
      <trkpt lat="44.54673" lon="4.65627">
        <ele>152.60000610352</ele>
        <time>2020-05-24T08:35:16Z</time>
      </trkpt>
      <trkpt lat="44.54672" lon="4.65625">
        <ele>152.60000610352</ele>
        <time>2020-05-24T08:35:17Z</time>
      </trkpt>
      <trkpt lat="44.5467" lon="4.65622">
        <ele>152.60000610352</ele>
        <time>2020-05-24T08:35:18Z</time>
      </trkpt>
      <trkpt lat="44.54668" lon="4.65618">
        <ele>152.39999389648</ele>
        <time>2020-05-24T08:35:19Z</time>
      </trkpt>
      <trkpt lat="44.54666" lon="4.65615">
        <ele>152.39999389648</ele>
        <time>2020-05-24T08:35:20Z</time>
      </trkpt>
      <trkpt lat="44.54664" lon="4.65613">
        <ele>152</ele>
        <time>2020-05-24T08:35:21Z</time>
      </trkpt>
      <trkpt lat="44.54662" lon="4.65611">
        <ele>151.60000610352</ele>
        <time>2020-05-24T08:35:22Z</time>
      </trkpt>
      <trkpt lat="44.5466" lon="4.65608">
        <ele>151.39999389648</ele>
        <time>2020-05-24T08:35:23Z</time>
      </trkpt>
      <trkpt lat="44.54658" lon="4.65606">
        <ele>151.39999389648</ele>
        <time>2020-05-24T08:35:24Z</time>
      </trkpt>
      <trkpt lat="44.54655" lon="4.65603">
        <ele>151.60000610352</ele>
        <time>2020-05-24T08:35:25Z</time>
      </trkpt>
      <trkpt lat="44.54653" lon="4.65602">
        <ele>151.39999389648</ele>
        <time>2020-05-24T08:35:26Z</time>
      </trkpt>
      <trkpt lat="44.54651" lon="4.65599">
        <ele>151.39999389648</ele>
        <time>2020-05-24T08:35:27Z</time>
      </trkpt>
      <trkpt lat="44.54649" lon="4.65597">
        <ele>151.39999389648</ele>
        <time>2020-05-24T08:35:28Z</time>
      </trkpt>
      <trkpt lat="44.54647" lon="4.65594">
        <ele>151.39999389648</ele>
        <time>2020-05-24T08:35:29Z</time>
      </trkpt>
      <trkpt lat="44.54645" lon="4.65592">
        <ele>151.39999389648</ele>
        <time>2020-05-24T08:35:30Z</time>
      </trkpt>
      <trkpt lat="44.54643" lon="4.65589">
        <ele>151.39999389648</ele>
        <time>2020-05-24T08:35:31Z</time>
      </trkpt>
      <trkpt lat="44.54642" lon="4.65586">
        <ele>151.60000610352</ele>
        <time>2020-05-24T08:35:32Z</time>
      </trkpt>
      <trkpt lat="44.5464" lon="4.65583">
        <ele>152</ele>
        <time>2020-05-24T08:35:33Z</time>
      </trkpt>
      <trkpt lat="44.54639" lon="4.6558">
        <ele>152.39999389648</ele>
        <time>2020-05-24T08:35:34Z</time>
      </trkpt>
      <trkpt lat="44.54638" lon="4.65578">
        <ele>153</ele>
        <time>2020-05-24T08:35:35Z</time>
      </trkpt>
      <trkpt lat="44.54635" lon="4.65576">
        <ele>153.60000610352</ele>
        <time>2020-05-24T08:35:36Z</time>
      </trkpt>
      <trkpt lat="44.54634" lon="4.65575">
        <ele>154</ele>
        <time>2020-05-24T08:35:37Z</time>
      </trkpt>
      <trkpt lat="44.54632" lon="4.65572">
        <ele>154.19999694824</ele>
        <time>2020-05-24T08:35:38Z</time>
      </trkpt>
      <trkpt lat="44.5463" lon="4.6557">
        <ele>154.39999389648</ele>
        <time>2020-05-24T08:35:39Z</time>
      </trkpt>
      <trkpt lat="44.54629" lon="4.65568">
        <ele>154.60000610352</ele>
        <time>2020-05-24T08:35:40Z</time>
      </trkpt>
      <trkpt lat="44.54627" lon="4.65565">
        <ele>154.60000610352</ele>
        <time>2020-05-24T08:35:41Z</time>
      </trkpt>
      <trkpt lat="44.54624" lon="4.65562">
        <ele>154.80000305176</ele>
        <time>2020-05-24T08:35:42Z</time>
      </trkpt>
      <trkpt lat="44.54621" lon="4.65559">
        <ele>155</ele>
        <time>2020-05-24T08:35:43Z</time>
      </trkpt>
      <trkpt lat="44.54618" lon="4.65556">
        <ele>155</ele>
        <time>2020-05-24T08:35:44Z</time>
      </trkpt>
      <trkpt lat="44.54613" lon="4.6555">
        <ele>155</ele>
        <time>2020-05-24T08:35:46Z</time>
      </trkpt>
      <trkpt lat="44.54611" lon="4.65547">
        <ele>155</ele>
        <time>2020-05-24T08:35:47Z</time>
      </trkpt>
      <trkpt lat="44.5461" lon="4.65545">
        <ele>155</ele>
        <time>2020-05-24T08:35:48Z</time>
      </trkpt>
      <trkpt lat="44.54609" lon="4.65543">
        <ele>155.19999694824</ele>
        <time>2020-05-24T08:35:49Z</time>
      </trkpt>
      <trkpt lat="44.54607" lon="4.65539">
        <ele>155</ele>
        <time>2020-05-24T08:35:52Z</time>
      </trkpt>
      <trkpt lat="44.54606" lon="4.65534">
        <ele>153.80000305176</ele>
        <time>2020-05-24T08:35:57Z</time>
      </trkpt>
      <trkpt lat="44.54605" lon="4.65533">
        <ele>153.80000305176</ele>
        <time>2020-05-24T08:35:58Z</time>
      </trkpt>
      <trkpt lat="44.54605" lon="4.6553">
        <ele>153.80000305176</ele>
        <time>2020-05-24T08:36:00Z</time>
      </trkpt>
      <trkpt lat="44.54604" lon="4.65529">
        <ele>153.80000305176</ele>
        <time>2020-05-24T08:36:01Z</time>
      </trkpt>
      <trkpt lat="44.54603" lon="4.65527">
        <ele>153.80000305176</ele>
        <time>2020-05-24T08:36:03Z</time>
      </trkpt>
      <trkpt lat="44.54602" lon="4.65526">
        <ele>153.80000305176</ele>
        <time>2020-05-24T08:36:04Z</time>
      </trkpt>
      <trkpt lat="44.54602" lon="4.65525">
        <ele>154</ele>
        <time>2020-05-24T08:36:05Z</time>
      </trkpt>
      <trkpt lat="44.54601" lon="4.65524">
        <ele>153.80000305176</ele>
        <time>2020-05-24T08:36:06Z</time>
      </trkpt>
      <trkpt lat="44.546" lon="4.65522">
        <ele>154</ele>
        <time>2020-05-24T08:36:07Z</time>
      </trkpt>
      <trkpt lat="44.546" lon="4.6552">
        <ele>154.19999694824</ele>
        <time>2020-05-24T08:36:08Z</time>
      </trkpt>
      <trkpt lat="44.54597" lon="4.65516">
        <ele>154.19999694824</ele>
        <time>2020-05-24T08:36:11Z</time>
      </trkpt>
      <trkpt lat="44.54596" lon="4.65513">
        <ele>154.80000305176</ele>
        <time>2020-05-24T08:36:13Z</time>
      </trkpt>
      <trkpt lat="44.54594" lon="4.65511">
        <ele>154.80000305176</ele>
        <time>2020-05-24T08:36:14Z</time>
      </trkpt>
      <trkpt lat="44.54593" lon="4.65508">
        <ele>155</ele>
        <time>2020-05-24T08:36:15Z</time>
      </trkpt>
      <trkpt lat="44.54591" lon="4.65506">
        <ele>155</ele>
        <time>2020-05-24T08:36:16Z</time>
      </trkpt>
      <trkpt lat="44.54589" lon="4.65503">
        <ele>155.19999694824</ele>
        <time>2020-05-24T08:36:17Z</time>
      </trkpt>
      <trkpt lat="44.54587" lon="4.65501">
        <ele>155.19999694824</ele>
        <time>2020-05-24T08:36:18Z</time>
      </trkpt>
      <trkpt lat="44.54585" lon="4.65499">
        <ele>155.19999694824</ele>
        <time>2020-05-24T08:36:19Z</time>
      </trkpt>
      <trkpt lat="44.54582" lon="4.65496">
        <ele>155.39999389648</ele>
        <time>2020-05-24T08:36:20Z</time>
      </trkpt>
      <trkpt lat="44.5458" lon="4.65493">
        <ele>155.39999389648</ele>
        <time>2020-05-24T08:36:21Z</time>
      </trkpt>
      <trkpt lat="44.54579" lon="4.65491">
        <ele>155.39999389648</ele>
        <time>2020-05-24T08:36:22Z</time>
      </trkpt>
      <trkpt lat="44.54577" lon="4.6549">
        <ele>155.39999389648</ele>
        <time>2020-05-24T08:36:23Z</time>
      </trkpt>
      <trkpt lat="44.54575" lon="4.65488">
        <ele>155.39999389648</ele>
        <time>2020-05-24T08:36:24Z</time>
      </trkpt>
      <trkpt lat="44.54574" lon="4.65486">
        <ele>155.80000305176</ele>
        <time>2020-05-24T08:36:25Z</time>
      </trkpt>
      <trkpt lat="44.54572" lon="4.65485">
        <ele>156</ele>
        <time>2020-05-24T08:36:26Z</time>
      </trkpt>
      <trkpt lat="44.5457" lon="4.65484">
        <ele>156.80000305176</ele>
        <time>2020-05-24T08:36:27Z</time>
      </trkpt>
      <trkpt lat="44.54568" lon="4.65483">
        <ele>157.39999389648</ele>
        <time>2020-05-24T08:36:28Z</time>
      </trkpt>
      <trkpt lat="44.54566" lon="4.65481">
        <ele>158</ele>
        <time>2020-05-24T08:36:29Z</time>
      </trkpt>
      <trkpt lat="44.54565" lon="4.6548">
        <ele>158.39999389648</ele>
        <time>2020-05-24T08:36:30Z</time>
      </trkpt>
      <trkpt lat="44.54564" lon="4.65478">
        <ele>159.39999389648</ele>
        <time>2020-05-24T08:36:31Z</time>
      </trkpt>
      <trkpt lat="44.54562" lon="4.65476">
        <ele>160</ele>
        <time>2020-05-24T08:36:32Z</time>
      </trkpt>
      <trkpt lat="44.54561" lon="4.65474">
        <ele>160.80000305176</ele>
        <time>2020-05-24T08:36:33Z</time>
      </trkpt>
      <trkpt lat="44.54559" lon="4.65473">
        <ele>161.19999694824</ele>
        <time>2020-05-24T08:36:34Z</time>
      </trkpt>
      <trkpt lat="44.54558" lon="4.65471">
        <ele>161.60000610352</ele>
        <time>2020-05-24T08:36:35Z</time>
      </trkpt>
      <trkpt lat="44.54556" lon="4.6547">
        <ele>161.80000305176</ele>
        <time>2020-05-24T08:36:36Z</time>
      </trkpt>
      <trkpt lat="44.54555" lon="4.65469">
        <ele>161.80000305176</ele>
        <time>2020-05-24T08:36:37Z</time>
      </trkpt>
      <trkpt lat="44.54554" lon="4.65469">
        <ele>162</ele>
        <time>2020-05-24T08:36:38Z</time>
      </trkpt>
      <trkpt lat="44.54553" lon="4.65468">
        <ele>162</ele>
        <time>2020-05-24T08:36:39Z</time>
      </trkpt>
      <trkpt lat="44.54552" lon="4.65466">
        <ele>162.60000610352</ele>
        <time>2020-05-24T08:36:42Z</time>
      </trkpt>
      <trkpt lat="44.54552" lon="4.65465">
        <ele>164.39999389648</ele>
        <time>2020-05-24T08:36:50Z</time>
      </trkpt>
      <trkpt lat="44.54552" lon="4.65465">
        <ele>164.39999389648</ele>
        <time>2020-05-24T08:36:58Z</time>
      </trkpt>
      <trkpt lat="44.54551" lon="4.65464">
        <ele>163.39999389648</ele>
        <time>2020-05-24T08:37:10Z</time>
      </trkpt>
      <trkpt lat="44.5455" lon="4.65463">
        <ele>163.60000610352</ele>
        <time>2020-05-24T08:37:11Z</time>
      </trkpt>
      <trkpt lat="44.54549" lon="4.65462">
        <ele>163.60000610352</ele>
        <time>2020-05-24T08:37:12Z</time>
      </trkpt>
      <trkpt lat="44.54548" lon="4.65461">
        <ele>163.60000610352</ele>
        <time>2020-05-24T08:37:13Z</time>
      </trkpt>
      <trkpt lat="44.54547" lon="4.65459">
        <ele>163.60000610352</ele>
        <time>2020-05-24T08:37:14Z</time>
      </trkpt>
      <trkpt lat="44.54546" lon="4.65458">
        <ele>163.60000610352</ele>
        <time>2020-05-24T08:37:15Z</time>
      </trkpt>
      <trkpt lat="44.54545" lon="4.65457">
        <ele>163.39999389648</ele>
        <time>2020-05-24T08:37:16Z</time>
      </trkpt>
      <trkpt lat="44.54544" lon="4.65456">
        <ele>163.60000610352</ele>
        <time>2020-05-24T08:37:17Z</time>
      </trkpt>
      <trkpt lat="44.54543" lon="4.65456">
        <ele>163.80000305176</ele>
        <time>2020-05-24T08:37:20Z</time>
      </trkpt>
      <trkpt lat="44.54542" lon="4.65455">
        <ele>163.80000305176</ele>
        <time>2020-05-24T08:37:21Z</time>
      </trkpt>
      <trkpt lat="44.54541" lon="4.65455">
        <ele>164.39999389648</ele>
        <time>2020-05-24T08:37:22Z</time>
      </trkpt>
      <trkpt lat="44.5454" lon="4.65455">
        <ele>164.80000305176</ele>
        <time>2020-05-24T08:37:23Z</time>
      </trkpt>
      <trkpt lat="44.54539" lon="4.65455">
        <ele>165.19999694824</ele>
        <time>2020-05-24T08:37:24Z</time>
      </trkpt>
      <trkpt lat="44.54538" lon="4.65454">
        <ele>166.19999694824</ele>
        <time>2020-05-24T08:37:25Z</time>
      </trkpt>
      <trkpt lat="44.54538" lon="4.65454">
        <ele>166.60000610352</ele>
        <time>2020-05-24T08:37:26Z</time>
      </trkpt>
      <trkpt lat="44.54537" lon="4.65454">
        <ele>167</ele>
        <time>2020-05-24T08:37:27Z</time>
      </trkpt>
      <trkpt lat="44.54537" lon="4.65453">
        <ele>167</ele>
        <time>2020-05-24T08:37:28Z</time>
      </trkpt>
      <trkpt lat="44.54537" lon="4.65453">
        <ele>167.19999694824</ele>
        <time>2020-05-24T08:37:29Z</time>
      </trkpt>
      <trkpt lat="44.54535" lon="4.6545">
        <ele>168.60000610352</ele>
        <time>2020-05-24T08:37:35Z</time>
      </trkpt>
      <trkpt lat="44.54534" lon="4.65449">
        <ele>168.80000305176</ele>
        <time>2020-05-24T08:37:36Z</time>
      </trkpt>
      <trkpt lat="44.54534" lon="4.65449">
        <ele>169</ele>
        <time>2020-05-24T08:37:37Z</time>
      </trkpt>
      <trkpt lat="44.54534" lon="4.65448">
        <ele>169</ele>
        <time>2020-05-24T08:37:38Z</time>
      </trkpt>
      <trkpt lat="44.54531" lon="4.65445">
        <ele>169.60000610352</ele>
        <time>2020-05-24T08:37:43Z</time>
      </trkpt>
      <trkpt lat="44.54529" lon="4.65444">
        <ele>170</ele>
        <time>2020-05-24T08:37:45Z</time>
      </trkpt>
      <trkpt lat="44.54528" lon="4.65442">
        <ele>171</ele>
        <time>2020-05-24T08:37:57Z</time>
      </trkpt>
      <trkpt lat="44.54527" lon="4.65441">
        <ele>171</ele>
        <time>2020-05-24T08:38:01Z</time>
      </trkpt>
      <trkpt lat="44.54527" lon="4.65441">
        <ele>171</ele>
        <time>2020-05-24T08:38:03Z</time>
      </trkpt>
      <trkpt lat="44.54527" lon="4.6544">
        <ele>171.19999694824</ele>
        <time>2020-05-24T08:38:04Z</time>
      </trkpt>
      <trkpt lat="44.54526" lon="4.6544">
        <ele>171</ele>
        <time>2020-05-24T08:38:05Z</time>
      </trkpt>
      <trkpt lat="44.54526" lon="4.65439">
        <ele>171</ele>
        <time>2020-05-24T08:38:06Z</time>
      </trkpt>
      <trkpt lat="44.54525" lon="4.65438">
        <ele>171.19999694824</ele>
        <time>2020-05-24T08:38:07Z</time>
      </trkpt>
      <trkpt lat="44.54525" lon="4.65438">
        <ele>171.19999694824</ele>
        <time>2020-05-24T08:38:08Z</time>
      </trkpt>
      <trkpt lat="44.54524" lon="4.65438">
        <ele>171.19999694824</ele>
        <time>2020-05-24T08:38:09Z</time>
      </trkpt>
      <trkpt lat="44.54523" lon="4.65437">
        <ele>171.39999389648</ele>
        <time>2020-05-24T08:38:10Z</time>
      </trkpt>
      <trkpt lat="44.54523" lon="4.65437">
        <ele>171.39999389648</ele>
        <time>2020-05-24T08:38:11Z</time>
      </trkpt>
      <trkpt lat="44.54522" lon="4.65437">
        <ele>171.80000305176</ele>
        <time>2020-05-24T08:38:12Z</time>
      </trkpt>
      <trkpt lat="44.54522" lon="4.65436">
        <ele>172.19999694824</ele>
        <time>2020-05-24T08:38:13Z</time>
      </trkpt>
      <trkpt lat="44.54521" lon="4.65436">
        <ele>172.60000610352</ele>
        <time>2020-05-24T08:38:14Z</time>
      </trkpt>
      <trkpt lat="44.54521" lon="4.65436">
        <ele>173.19999694824</ele>
        <time>2020-05-24T08:38:15Z</time>
      </trkpt>
      <trkpt lat="44.54521" lon="4.65435">
        <ele>175.60000610352</ele>
        <time>2020-05-24T08:38:23Z</time>
      </trkpt>
      <trkpt lat="44.54521" lon="4.65434">
        <ele>176</ele>
        <time>2020-05-24T08:38:33Z</time>
      </trkpt>
      <trkpt lat="44.54519" lon="4.65433">
        <ele>175.80000305176</ele>
        <time>2020-05-24T08:38:40Z</time>
      </trkpt>
      <trkpt lat="44.54518" lon="4.65432">
        <ele>175.80000305176</ele>
        <time>2020-05-24T08:38:42Z</time>
      </trkpt>
      <trkpt lat="44.54517" lon="4.65432">
        <ele>175.80000305176</ele>
        <time>2020-05-24T08:38:43Z</time>
      </trkpt>
      <trkpt lat="44.54517" lon="4.65432">
        <ele>175.80000305176</ele>
        <time>2020-05-24T08:38:44Z</time>
      </trkpt>
      <trkpt lat="44.54516" lon="4.65431">
        <ele>175.80000305176</ele>
        <time>2020-05-24T08:38:45Z</time>
      </trkpt>
      <trkpt lat="44.54516" lon="4.65431">
        <ele>175.80000305176</ele>
        <time>2020-05-24T08:38:46Z</time>
      </trkpt>
      <trkpt lat="44.54515" lon="4.65431">
        <ele>175.80000305176</ele>
        <time>2020-05-24T08:38:47Z</time>
      </trkpt>
      <trkpt lat="44.54515" lon="4.6543">
        <ele>176</ele>
        <time>2020-05-24T08:38:48Z</time>
      </trkpt>
      <trkpt lat="44.54514" lon="4.6543">
        <ele>176.39999389648</ele>
        <time>2020-05-24T08:38:49Z</time>
      </trkpt>
      <trkpt lat="44.54514" lon="4.65429">
        <ele>176.80000305176</ele>
        <time>2020-05-24T08:38:52Z</time>
      </trkpt>
      <trkpt lat="44.54513" lon="4.65428">
        <ele>177</ele>
        <time>2020-05-24T08:38:54Z</time>
      </trkpt>
      <trkpt lat="44.54512" lon="4.65428">
        <ele>177.19999694824</ele>
        <time>2020-05-24T08:38:55Z</time>
      </trkpt>
      <trkpt lat="44.54512" lon="4.65427">
        <ele>177.60000610352</ele>
        <time>2020-05-24T08:38:56Z</time>
      </trkpt>
      <trkpt lat="44.54511" lon="4.65427">
        <ele>177.80000305176</ele>
        <time>2020-05-24T08:38:57Z</time>
      </trkpt>
      <trkpt lat="44.5451" lon="4.65427">
        <ele>178</ele>
        <time>2020-05-24T08:38:58Z</time>
      </trkpt>
      <trkpt lat="44.5451" lon="4.65427">
        <ele>178.19999694824</ele>
        <time>2020-05-24T08:38:59Z</time>
      </trkpt>
      <trkpt lat="44.54509" lon="4.65427">
        <ele>178.19999694824</ele>
        <time>2020-05-24T08:39:00Z</time>
      </trkpt>
      <trkpt lat="44.54509" lon="4.65426">
        <ele>178.39999389648</ele>
        <time>2020-05-24T08:39:01Z</time>
      </trkpt>
      <trkpt lat="44.54509" lon="4.65426">
        <ele>178.39999389648</ele>
        <time>2020-05-24T08:39:02Z</time>
      </trkpt>
      <trkpt lat="44.54508" lon="4.65426">
        <ele>178.80000305176</ele>
        <time>2020-05-24T08:39:05Z</time>
      </trkpt>
      <trkpt lat="44.54508" lon="4.65426">
        <ele>179.19999694824</ele>
        <time>2020-05-24T08:39:07Z</time>
      </trkpt>
      <trkpt lat="44.54508" lon="4.65426">
        <ele>180.39999389648</ele>
        <time>2020-05-24T08:39:12Z</time>
      </trkpt>
      <trkpt lat="44.54505" lon="4.65425">
        <ele>180.80000305176</ele>
        <time>2020-05-24T08:39:19Z</time>
      </trkpt>
      <trkpt lat="44.54504" lon="4.65425">
        <ele>180.80000305176</ele>
        <time>2020-05-24T08:39:20Z</time>
      </trkpt>
      <trkpt lat="44.54504" lon="4.65425">
        <ele>180.80000305176</ele>
        <time>2020-05-24T08:39:21Z</time>
      </trkpt>
      <trkpt lat="44.54503" lon="4.65424">
        <ele>180.80000305176</ele>
        <time>2020-05-24T08:39:22Z</time>
      </trkpt>
      <trkpt lat="44.54502" lon="4.65424">
        <ele>181</ele>
        <time>2020-05-24T08:39:23Z</time>
      </trkpt>
      <trkpt lat="44.54502" lon="4.65423">
        <ele>180.80000305176</ele>
        <time>2020-05-24T08:39:24Z</time>
      </trkpt>
      <trkpt lat="44.54501" lon="4.65423">
        <ele>181</ele>
        <time>2020-05-24T08:39:26Z</time>
      </trkpt>
      <trkpt lat="44.545" lon="4.65423">
        <ele>181</ele>
        <time>2020-05-24T08:39:27Z</time>
      </trkpt>
      <trkpt lat="44.545" lon="4.65422">
        <ele>181</ele>
        <time>2020-05-24T08:39:28Z</time>
      </trkpt>
      <trkpt lat="44.54499" lon="4.65422">
        <ele>181.19999694824</ele>
        <time>2020-05-24T08:39:29Z</time>
      </trkpt>
      <trkpt lat="44.54498" lon="4.6542">
        <ele>182.19999694824</ele>
        <time>2020-05-24T08:39:36Z</time>
      </trkpt>
      <trkpt lat="44.54497" lon="4.65419">
        <ele>182.19999694824</ele>
        <time>2020-05-24T08:39:37Z</time>
      </trkpt>
      <trkpt lat="44.54497" lon="4.65418">
        <ele>182.39999389648</ele>
        <time>2020-05-24T08:39:42Z</time>
      </trkpt>
      <trkpt lat="44.54497" lon="4.65418">
        <ele>182.39999389648</ele>
        <time>2020-05-24T08:39:57Z</time>
      </trkpt>
      <trkpt lat="44.54497" lon="4.65418">
        <ele>182.19999694824</ele>
        <time>2020-05-24T08:40:09Z</time>
      </trkpt>
      <trkpt lat="44.54496" lon="4.65418">
        <ele>182.19999694824</ele>
        <time>2020-05-24T08:40:10Z</time>
      </trkpt>
      <trkpt lat="44.54495" lon="4.65415">
        <ele>182</ele>
        <time>2020-05-24T08:40:12Z</time>
      </trkpt>
      <trkpt lat="44.54493" lon="4.65414">
        <ele>182.19999694824</ele>
        <time>2020-05-24T08:40:13Z</time>
      </trkpt>
      <trkpt lat="44.54492" lon="4.65414">
        <ele>182</ele>
        <time>2020-05-24T08:40:14Z</time>
      </trkpt>
      <trkpt lat="44.54491" lon="4.65415">
        <ele>182</ele>
        <time>2020-05-24T08:40:15Z</time>
      </trkpt>
      <trkpt lat="44.54491" lon="4.65417">
        <ele>182</ele>
        <time>2020-05-24T08:40:16Z</time>
      </trkpt>
      <trkpt lat="44.5449" lon="4.6542">
        <ele>182</ele>
        <time>2020-05-24T08:40:17Z</time>
      </trkpt>
      <trkpt lat="44.5449" lon="4.65422">
        <ele>182</ele>
        <time>2020-05-24T08:40:18Z</time>
      </trkpt>
      <trkpt lat="44.54489" lon="4.65425">
        <ele>182</ele>
        <time>2020-05-24T08:40:19Z</time>
      </trkpt>
      <trkpt lat="44.54488" lon="4.65427">
        <ele>182</ele>
        <time>2020-05-24T08:40:20Z</time>
      </trkpt>
      <trkpt lat="44.54487" lon="4.65428">
        <ele>182</ele>
        <time>2020-05-24T08:40:21Z</time>
      </trkpt>
      <trkpt lat="44.54486" lon="4.6543">
        <ele>182.19999694824</ele>
        <time>2020-05-24T08:40:22Z</time>
      </trkpt>
      <trkpt lat="44.54485" lon="4.65432">
        <ele>182.19999694824</ele>
        <time>2020-05-24T08:40:23Z</time>
      </trkpt>
      <trkpt lat="44.54483" lon="4.65434">
        <ele>182.39999389648</ele>
        <time>2020-05-24T08:40:24Z</time>
      </trkpt>
      <trkpt lat="44.54482" lon="4.65436">
        <ele>182.60000610352</ele>
        <time>2020-05-24T08:40:25Z</time>
      </trkpt>
      <trkpt lat="44.54481" lon="4.65438">
        <ele>182.60000610352</ele>
        <time>2020-05-24T08:40:26Z</time>
      </trkpt>
      <trkpt lat="44.5448" lon="4.6544">
        <ele>182.80000305176</ele>
        <time>2020-05-24T08:40:27Z</time>
      </trkpt>
      <trkpt lat="44.54479" lon="4.65442">
        <ele>183</ele>
        <time>2020-05-24T08:40:28Z</time>
      </trkpt>
      <trkpt lat="44.54478" lon="4.65443">
        <ele>183.19999694824</ele>
        <time>2020-05-24T08:40:29Z</time>
      </trkpt>
      <trkpt lat="44.54477" lon="4.65445">
        <ele>183.39999389648</ele>
        <time>2020-05-24T08:40:30Z</time>
      </trkpt>
      <trkpt lat="44.54476" lon="4.65446">
        <ele>183.60000610352</ele>
        <time>2020-05-24T08:40:31Z</time>
      </trkpt>
      <trkpt lat="44.54476" lon="4.65447">
        <ele>183.80000305176</ele>
        <time>2020-05-24T08:40:32Z</time>
      </trkpt>
      <trkpt lat="44.54476" lon="4.65448">
        <ele>184.19999694824</ele>
        <time>2020-05-24T08:40:33Z</time>
      </trkpt>
      <trkpt lat="44.54475" lon="4.65449">
        <ele>184.19999694824</ele>
        <time>2020-05-24T08:40:34Z</time>
      </trkpt>
      <trkpt lat="44.54474" lon="4.6545">
        <ele>184.60000610352</ele>
        <time>2020-05-24T08:40:35Z</time>
      </trkpt>
      <trkpt lat="44.54473" lon="4.65449">
        <ele>184.80000305176</ele>
        <time>2020-05-24T08:40:36Z</time>
      </trkpt>
      <trkpt lat="44.54472" lon="4.65449">
        <ele>184.80000305176</ele>
        <time>2020-05-24T08:40:37Z</time>
      </trkpt>
      <trkpt lat="44.54471" lon="4.65448">
        <ele>185</ele>
        <time>2020-05-24T08:40:38Z</time>
      </trkpt>
      <trkpt lat="44.54471" lon="4.65447">
        <ele>185.19999694824</ele>
        <time>2020-05-24T08:40:39Z</time>
      </trkpt>
      <trkpt lat="44.5447" lon="4.65445">
        <ele>185.19999694824</ele>
        <time>2020-05-24T08:40:40Z</time>
      </trkpt>
      <trkpt lat="44.54469" lon="4.65438">
        <ele>185.39999389648</ele>
        <time>2020-05-24T08:40:43Z</time>
      </trkpt>
      <trkpt lat="44.54469" lon="4.6543">
        <ele>185.39999389648</ele>
        <time>2020-05-24T08:40:45Z</time>
      </trkpt>
      <trkpt lat="44.5447" lon="4.65416">
        <ele>185.19999694824</ele>
        <time>2020-05-24T08:40:48Z</time>
      </trkpt>
      <trkpt lat="44.54473" lon="4.65399">
        <ele>185.39999389648</ele>
        <time>2020-05-24T08:40:51Z</time>
      </trkpt>
      <trkpt lat="44.54474" lon="4.65394">
        <ele>185.19999694824</ele>
        <time>2020-05-24T08:40:52Z</time>
      </trkpt>
      <trkpt lat="44.54475" lon="4.65389">
        <ele>185</ele>
        <time>2020-05-24T08:40:53Z</time>
      </trkpt>
      <trkpt lat="44.54476" lon="4.65384">
        <ele>185</ele>
        <time>2020-05-24T08:40:54Z</time>
      </trkpt>
      <trkpt lat="44.54478" lon="4.65379">
        <ele>184.80000305176</ele>
        <time>2020-05-24T08:40:55Z</time>
      </trkpt>
      <trkpt lat="44.54479" lon="4.65373">
        <ele>184.80000305176</ele>
        <time>2020-05-24T08:40:56Z</time>
      </trkpt>
      <trkpt lat="44.54479" lon="4.65368">
        <ele>184.80000305176</ele>
        <time>2020-05-24T08:40:57Z</time>
      </trkpt>
      <trkpt lat="44.5448" lon="4.65364">
        <ele>184.80000305176</ele>
        <time>2020-05-24T08:40:58Z</time>
      </trkpt>
      <trkpt lat="44.54481" lon="4.65359">
        <ele>184.80000305176</ele>
        <time>2020-05-24T08:40:59Z</time>
      </trkpt>
      <trkpt lat="44.54481" lon="4.65355">
        <ele>184.80000305176</ele>
        <time>2020-05-24T08:41:00Z</time>
      </trkpt>
      <trkpt lat="44.54481" lon="4.6535">
        <ele>184.80000305176</ele>
        <time>2020-05-24T08:41:01Z</time>
      </trkpt>
      <trkpt lat="44.54481" lon="4.65346">
        <ele>184.80000305176</ele>
        <time>2020-05-24T08:41:02Z</time>
      </trkpt>
      <trkpt lat="44.5448" lon="4.65342">
        <ele>185</ele>
        <time>2020-05-24T08:41:03Z</time>
      </trkpt>
      <trkpt lat="44.54478" lon="4.65339">
        <ele>185</ele>
        <time>2020-05-24T08:41:04Z</time>
      </trkpt>
      <trkpt lat="44.54476" lon="4.65337">
        <ele>185</ele>
        <time>2020-05-24T08:41:05Z</time>
      </trkpt>
      <trkpt lat="44.54474" lon="4.65336">
        <ele>185.19999694824</ele>
        <time>2020-05-24T08:41:06Z</time>
      </trkpt>
      <trkpt lat="44.54471" lon="4.65335">
        <ele>185.19999694824</ele>
        <time>2020-05-24T08:41:07Z</time>
      </trkpt>
      <trkpt lat="44.54469" lon="4.65336">
        <ele>185.39999389648</ele>
        <time>2020-05-24T08:41:08Z</time>
      </trkpt>
      <trkpt lat="44.54466" lon="4.65338">
        <ele>185.60000610352</ele>
        <time>2020-05-24T08:41:09Z</time>
      </trkpt>
      <trkpt lat="44.54466" lon="4.65338">
        <ele>185.60000610352</ele>
        <time>2020-05-24T08:41:09Z</time>
      </trkpt>
      <trkpt lat="44.54463" lon="4.65341">
        <ele>186</ele>
        <time>2020-05-24T08:41:10Z</time>
      </trkpt>
      <trkpt lat="44.54458" lon="4.65348">
        <ele>186.39999389648</ele>
        <time>2020-05-24T08:41:12Z</time>
      </trkpt>
      <trkpt lat="44.54455" lon="4.65352">
        <ele>186.39999389648</ele>
        <time>2020-05-24T08:41:13Z</time>
      </trkpt>
      <trkpt lat="44.54449" lon="4.65361">
        <ele>186.60000610352</ele>
        <time>2020-05-24T08:41:15Z</time>
      </trkpt>
      <trkpt lat="44.54438" lon="4.65377">
        <ele>186.60000610352</ele>
        <time>2020-05-24T08:41:18Z</time>
      </trkpt>
      <trkpt lat="44.5443" lon="4.65388">
        <ele>186.60000610352</ele>
        <time>2020-05-24T08:41:20Z</time>
      </trkpt>
      <trkpt lat="44.54424" lon="4.65393">
        <ele>186.60000610352</ele>
        <time>2020-05-24T08:41:21Z</time>
      </trkpt>
      <trkpt lat="44.54419" lon="4.65397">
        <ele>186.60000610352</ele>
        <time>2020-05-24T08:41:22Z</time>
      </trkpt>
      <trkpt lat="44.54412" lon="4.65398">
        <ele>186.19999694824</ele>
        <time>2020-05-24T08:41:23Z</time>
      </trkpt>
      <trkpt lat="44.54406" lon="4.65399">
        <ele>185.60000610352</ele>
        <time>2020-05-24T08:41:24Z</time>
      </trkpt>
      <trkpt lat="44.54401" lon="4.654">
        <ele>185.19999694824</ele>
        <time>2020-05-24T08:41:25Z</time>
      </trkpt>
      <trkpt lat="44.54396" lon="4.65401">
        <ele>185.19999694824</ele>
        <time>2020-05-24T08:41:26Z</time>
      </trkpt>
      <trkpt lat="44.54392" lon="4.65402">
        <ele>185</ele>
        <time>2020-05-24T08:41:27Z</time>
      </trkpt>
      <trkpt lat="44.54388" lon="4.65402">
        <ele>184.39999389648</ele>
        <time>2020-05-24T08:41:28Z</time>
      </trkpt>
      <trkpt lat="44.54384" lon="4.65403">
        <ele>183.60000610352</ele>
        <time>2020-05-24T08:41:29Z</time>
      </trkpt>
      <trkpt lat="44.54375" lon="4.65406">
        <ele>182.80000305176</ele>
        <time>2020-05-24T08:41:31Z</time>
      </trkpt>
      <trkpt lat="44.54366" lon="4.65411">
        <ele>182.60000610352</ele>
        <time>2020-05-24T08:41:33Z</time>
      </trkpt>
      <trkpt lat="44.54361" lon="4.65414">
        <ele>182.39999389648</ele>
        <time>2020-05-24T08:41:34Z</time>
      </trkpt>
      <trkpt lat="44.54357" lon="4.65418">
        <ele>182.19999694824</ele>
        <time>2020-05-24T08:41:35Z</time>
      </trkpt>
      <trkpt lat="44.54354" lon="4.65423">
        <ele>182.19999694824</ele>
        <time>2020-05-24T08:41:36Z</time>
      </trkpt>
      <trkpt lat="44.54341" lon="4.65436">
        <ele>182</ele>
        <time>2020-05-24T08:41:39Z</time>
      </trkpt>
      <trkpt lat="44.54333" lon="4.65446">
        <ele>181.80000305176</ele>
        <time>2020-05-24T08:41:41Z</time>
      </trkpt>
      <trkpt lat="44.54329" lon="4.6545">
        <ele>181.80000305176</ele>
        <time>2020-05-24T08:41:42Z</time>
      </trkpt>
      <trkpt lat="44.54325" lon="4.65455">
        <ele>181.60000610352</ele>
        <time>2020-05-24T08:41:43Z</time>
      </trkpt>
      <trkpt lat="44.54322" lon="4.6546">
        <ele>181.39999389648</ele>
        <time>2020-05-24T08:41:44Z</time>
      </trkpt>
      <trkpt lat="44.54318" lon="4.65465">
        <ele>181.39999389648</ele>
        <time>2020-05-24T08:41:45Z</time>
      </trkpt>
      <trkpt lat="44.5431" lon="4.65476">
        <ele>181.19999694824</ele>
        <time>2020-05-24T08:41:47Z</time>
      </trkpt>
      <trkpt lat="44.54302" lon="4.65488">
        <ele>181.19999694824</ele>
        <time>2020-05-24T08:41:49Z</time>
      </trkpt>
      <trkpt lat="44.54293" lon="4.65503">
        <ele>180.80000305176</ele>
        <time>2020-05-24T08:41:51Z</time>
      </trkpt>
      <trkpt lat="44.54283" lon="4.65518">
        <ele>180.39999389648</ele>
        <time>2020-05-24T08:41:53Z</time>
      </trkpt>
      <trkpt lat="44.54279" lon="4.65526">
        <ele>180.60000610352</ele>
        <time>2020-05-24T08:41:54Z</time>
      </trkpt>
      <trkpt lat="44.54275" lon="4.65534">
        <ele>180.39999389648</ele>
        <time>2020-05-24T08:41:55Z</time>
      </trkpt>
      <trkpt lat="44.5427" lon="4.65541">
        <ele>180.19999694824</ele>
        <time>2020-05-24T08:41:56Z</time>
      </trkpt>
      <trkpt lat="44.54266" lon="4.65549">
        <ele>179.60000610352</ele>
        <time>2020-05-24T08:41:57Z</time>
      </trkpt>
      <trkpt lat="44.54262" lon="4.65556">
        <ele>179.19999694824</ele>
        <time>2020-05-24T08:41:58Z</time>
      </trkpt>
      <trkpt lat="44.54253" lon="4.65572">
        <ele>177.80000305176</ele>
        <time>2020-05-24T08:42:00Z</time>
      </trkpt>
      <trkpt lat="44.54248" lon="4.6558">
        <ele>177.39999389648</ele>
        <time>2020-05-24T08:42:01Z</time>
      </trkpt>
      <trkpt lat="44.54228" lon="4.65614">
        <ele>176.39999389648</ele>
        <time>2020-05-24T08:42:05Z</time>
      </trkpt>
      <trkpt lat="44.54214" lon="4.65641">
        <ele>176.19999694824</ele>
        <time>2020-05-24T08:42:08Z</time>
      </trkpt>
      <trkpt lat="44.5421" lon="4.65651">
        <ele>176</ele>
        <time>2020-05-24T08:42:09Z</time>
      </trkpt>
      <trkpt lat="44.54208" lon="4.6566">
        <ele>175.19999694824</ele>
        <time>2020-05-24T08:42:10Z</time>
      </trkpt>
      <trkpt lat="44.54208" lon="4.6567">
        <ele>174.80000305176</ele>
        <time>2020-05-24T08:42:11Z</time>
      </trkpt>
      <trkpt lat="44.5421" lon="4.65678">
        <ele>174.60000610352</ele>
        <time>2020-05-24T08:42:12Z</time>
      </trkpt>
      <trkpt lat="44.54212" lon="4.65686">
        <ele>174.60000610352</ele>
        <time>2020-05-24T08:42:13Z</time>
      </trkpt>
      <trkpt lat="44.54214" lon="4.65694">
        <ele>174.19999694824</ele>
        <time>2020-05-24T08:42:14Z</time>
      </trkpt>
      <trkpt lat="44.54215" lon="4.65702">
        <ele>174.19999694824</ele>
        <time>2020-05-24T08:42:15Z</time>
      </trkpt>
      <trkpt lat="44.54214" lon="4.6571">
        <ele>173.60000610352</ele>
        <time>2020-05-24T08:42:16Z</time>
      </trkpt>
      <trkpt lat="44.54212" lon="4.65717">
        <ele>173.19999694824</ele>
        <time>2020-05-24T08:42:17Z</time>
      </trkpt>
      <trkpt lat="44.54209" lon="4.65733">
        <ele>172.19999694824</ele>
        <time>2020-05-24T08:42:19Z</time>
      </trkpt>
      <trkpt lat="44.54207" lon="4.65742">
        <ele>171.80000305176</ele>
        <time>2020-05-24T08:42:20Z</time>
      </trkpt>
      <trkpt lat="44.54203" lon="4.65758">
        <ele>170.80000305176</ele>
        <time>2020-05-24T08:42:22Z</time>
      </trkpt>
      <trkpt lat="44.54201" lon="4.65766">
        <ele>170.39999389648</ele>
        <time>2020-05-24T08:42:23Z</time>
      </trkpt>
      <trkpt lat="44.54197" lon="4.65782">
        <ele>169.80000305176</ele>
        <time>2020-05-24T08:42:25Z</time>
      </trkpt>
      <trkpt lat="44.54195" lon="4.6579">
        <ele>169</ele>
        <time>2020-05-24T08:42:26Z</time>
      </trkpt>
      <trkpt lat="44.54193" lon="4.65797">
        <ele>168.80000305176</ele>
        <time>2020-05-24T08:42:27Z</time>
      </trkpt>
      <trkpt lat="44.5419" lon="4.65803">
        <ele>168.19999694824</ele>
        <time>2020-05-24T08:42:28Z</time>
      </trkpt>
      <trkpt lat="44.54187" lon="4.65809">
        <ele>167.60000610352</ele>
        <time>2020-05-24T08:42:29Z</time>
      </trkpt>
      <trkpt lat="44.54184" lon="4.65814">
        <ele>167.60000610352</ele>
        <time>2020-05-24T08:42:30Z</time>
      </trkpt>
      <trkpt lat="44.5418" lon="4.65818">
        <ele>167.39999389648</ele>
        <time>2020-05-24T08:42:31Z</time>
      </trkpt>
      <trkpt lat="44.54175" lon="4.6582">
        <ele>166.60000610352</ele>
        <time>2020-05-24T08:42:32Z</time>
      </trkpt>
      <trkpt lat="44.5417" lon="4.65821">
        <ele>166.19999694824</ele>
        <time>2020-05-24T08:42:33Z</time>
      </trkpt>
      <trkpt lat="44.54165" lon="4.65821">
        <ele>166</ele>
        <time>2020-05-24T08:42:34Z</time>
      </trkpt>
      <trkpt lat="44.54161" lon="4.6582">
        <ele>165.80000305176</ele>
        <time>2020-05-24T08:42:35Z</time>
      </trkpt>
      <trkpt lat="44.54156" lon="4.65819">
        <ele>165.80000305176</ele>
        <time>2020-05-24T08:42:36Z</time>
      </trkpt>
      <trkpt lat="44.54152" lon="4.65818">
        <ele>165.80000305176</ele>
        <time>2020-05-24T08:42:37Z</time>
      </trkpt>
      <trkpt lat="44.54148" lon="4.65817">
        <ele>165.80000305176</ele>
        <time>2020-05-24T08:42:38Z</time>
      </trkpt>
      <trkpt lat="44.54144" lon="4.65816">
        <ele>165.80000305176</ele>
        <time>2020-05-24T08:42:39Z</time>
      </trkpt>
      <trkpt lat="44.5414" lon="4.65816">
        <ele>165.80000305176</ele>
        <time>2020-05-24T08:42:40Z</time>
      </trkpt>
      <trkpt lat="44.54136" lon="4.65818">
        <ele>165.80000305176</ele>
        <time>2020-05-24T08:42:41Z</time>
      </trkpt>
      <trkpt lat="44.54132" lon="4.65821">
        <ele>165.60000610352</ele>
        <time>2020-05-24T08:42:42Z</time>
      </trkpt>
      <trkpt lat="44.54128" lon="4.65825">
        <ele>165.60000610352</ele>
        <time>2020-05-24T08:42:43Z</time>
      </trkpt>
      <trkpt lat="44.54125" lon="4.65831">
        <ele>165.60000610352</ele>
        <time>2020-05-24T08:42:44Z</time>
      </trkpt>
      <trkpt lat="44.54122" lon="4.65839">
        <ele>165.60000610352</ele>
        <time>2020-05-24T08:42:45Z</time>
      </trkpt>
      <trkpt lat="44.5412" lon="4.65848">
        <ele>165.60000610352</ele>
        <time>2020-05-24T08:42:46Z</time>
      </trkpt>
      <trkpt lat="44.54118" lon="4.65857">
        <ele>165.60000610352</ele>
        <time>2020-05-24T08:42:47Z</time>
      </trkpt>
      <trkpt lat="44.54112" lon="4.65875">
        <ele>165.60000610352</ele>
        <time>2020-05-24T08:42:49Z</time>
      </trkpt>
      <trkpt lat="44.54109" lon="4.65884">
        <ele>165.60000610352</ele>
        <time>2020-05-24T08:42:50Z</time>
      </trkpt>
      <trkpt lat="44.54106" lon="4.65892">
        <ele>165.39999389648</ele>
        <time>2020-05-24T08:42:51Z</time>
      </trkpt>
      <trkpt lat="44.54103" lon="4.659">
        <ele>165.39999389648</ele>
        <time>2020-05-24T08:42:52Z</time>
      </trkpt>
      <trkpt lat="44.541" lon="4.65908">
        <ele>165.19999694824</ele>
        <time>2020-05-24T08:42:53Z</time>
      </trkpt>
      <trkpt lat="44.54094" lon="4.65925">
        <ele>164.39999389648</ele>
        <time>2020-05-24T08:42:55Z</time>
      </trkpt>
      <trkpt lat="44.54091" lon="4.65934">
        <ele>162.80000305176</ele>
        <time>2020-05-24T08:42:56Z</time>
      </trkpt>
      <trkpt lat="44.54088" lon="4.65943">
        <ele>161.60000610352</ele>
        <time>2020-05-24T08:42:57Z</time>
      </trkpt>
      <trkpt lat="44.54086" lon="4.65951">
        <ele>161</ele>
        <time>2020-05-24T08:42:58Z</time>
      </trkpt>
      <trkpt lat="44.54083" lon="4.65959">
        <ele>160.39999389648</ele>
        <time>2020-05-24T08:42:59Z</time>
      </trkpt>
      <trkpt lat="44.5408" lon="4.65967">
        <ele>159.39999389648</ele>
        <time>2020-05-24T08:43:00Z</time>
      </trkpt>
      <trkpt lat="44.54078" lon="4.65975">
        <ele>158.19999694824</ele>
        <time>2020-05-24T08:43:01Z</time>
      </trkpt>
      <trkpt lat="44.54075" lon="4.65983">
        <ele>157</ele>
        <time>2020-05-24T08:43:02Z</time>
      </trkpt>
      <trkpt lat="44.54072" lon="4.65988">
        <ele>156.39999389648</ele>
        <time>2020-05-24T08:43:03Z</time>
      </trkpt>
      <trkpt lat="44.5407" lon="4.65993">
        <ele>155.39999389648</ele>
        <time>2020-05-24T08:43:04Z</time>
      </trkpt>
      <trkpt lat="44.54068" lon="4.65996">
        <ele>154.39999389648</ele>
        <time>2020-05-24T08:43:05Z</time>
      </trkpt>
      <trkpt lat="44.54066" lon="4.65999">
        <ele>153.19999694824</ele>
        <time>2020-05-24T08:43:06Z</time>
      </trkpt>
      <trkpt lat="44.54064" lon="4.66002">
        <ele>152</ele>
        <time>2020-05-24T08:43:07Z</time>
      </trkpt>
      <trkpt lat="44.54063" lon="4.66005">
        <ele>150.60000610352</ele>
        <time>2020-05-24T08:43:08Z</time>
      </trkpt>
      <trkpt lat="44.54063" lon="4.66007">
        <ele>149.39999389648</ele>
        <time>2020-05-24T08:43:09Z</time>
      </trkpt>
      <trkpt lat="44.54063" lon="4.6601">
        <ele>148</ele>
        <time>2020-05-24T08:43:10Z</time>
      </trkpt>
      <trkpt lat="44.54062" lon="4.66012">
        <ele>146.60000610352</ele>
        <time>2020-05-24T08:43:11Z</time>
      </trkpt>
      <trkpt lat="44.54062" lon="4.66014">
        <ele>146</ele>
        <time>2020-05-24T08:43:12Z</time>
      </trkpt>
      <trkpt lat="44.54061" lon="4.66015">
        <ele>146</ele>
        <time>2020-05-24T08:43:13Z</time>
      </trkpt>
      <trkpt lat="44.54061" lon="4.66016">
        <ele>145.39999389648</ele>
        <time>2020-05-24T08:43:14Z</time>
      </trkpt>
      <trkpt lat="44.5406" lon="4.66017">
        <ele>144.80000305176</ele>
        <time>2020-05-24T08:43:15Z</time>
      </trkpt>
      <trkpt lat="44.5406" lon="4.66018">
        <ele>144.60000610352</ele>
        <time>2020-05-24T08:43:16Z</time>
      </trkpt>
      <trkpt lat="44.5406" lon="4.6602">
        <ele>144.19999694824</ele>
        <time>2020-05-24T08:43:17Z</time>
      </trkpt>
      <trkpt lat="44.5406" lon="4.66021">
        <ele>144.19999694824</ele>
        <time>2020-05-24T08:43:18Z</time>
      </trkpt>
      <trkpt lat="44.5406" lon="4.66022">
        <ele>144</ele>
        <time>2020-05-24T08:43:19Z</time>
      </trkpt>
      <trkpt lat="44.54059" lon="4.66023">
        <ele>144</ele>
        <time>2020-05-24T08:43:20Z</time>
      </trkpt>
      <trkpt lat="44.54058" lon="4.66024">
        <ele>144</ele>
        <time>2020-05-24T08:43:21Z</time>
      </trkpt>
      <trkpt lat="44.54058" lon="4.66026">
        <ele>143.80000305176</ele>
        <time>2020-05-24T08:43:22Z</time>
      </trkpt>
      <trkpt lat="44.54058" lon="4.66027">
        <ele>143.80000305176</ele>
        <time>2020-05-24T08:43:23Z</time>
      </trkpt>
      <trkpt lat="44.5406" lon="4.66026">
        <ele>143.60000610352</ele>
        <time>2020-05-24T08:43:25Z</time>
      </trkpt>
      <trkpt lat="44.5406" lon="4.66024">
        <ele>143.19999694824</ele>
        <time>2020-05-24T08:43:26Z</time>
      </trkpt>
      <trkpt lat="44.54061" lon="4.66018">
        <ele>143</ele>
        <time>2020-05-24T08:43:28Z</time>
      </trkpt>
      <trkpt lat="44.54061" lon="4.66011">
        <ele>143</ele>
        <time>2020-05-24T08:43:30Z</time>
      </trkpt>
      <trkpt lat="44.54062" lon="4.66008">
        <ele>143</ele>
        <time>2020-05-24T08:43:31Z</time>
      </trkpt>
      <trkpt lat="44.54062" lon="4.66004">
        <ele>143</ele>
        <time>2020-05-24T08:43:32Z</time>
      </trkpt>
      <trkpt lat="44.54063" lon="4.66001">
        <ele>143</ele>
        <time>2020-05-24T08:43:33Z</time>
      </trkpt>
      <trkpt lat="44.54063" lon="4.65998">
        <ele>143</ele>
        <time>2020-05-24T08:43:34Z</time>
      </trkpt>
      <trkpt lat="44.54064" lon="4.65994">
        <ele>142.80000305176</ele>
        <time>2020-05-24T08:43:35Z</time>
      </trkpt>
      <trkpt lat="44.54064" lon="4.65991">
        <ele>143</ele>
        <time>2020-05-24T08:43:36Z</time>
      </trkpt>
      <trkpt lat="44.54065" lon="4.65988">
        <ele>142.80000305176</ele>
        <time>2020-05-24T08:43:37Z</time>
      </trkpt>
      <trkpt lat="44.54066" lon="4.65985">
        <ele>142.80000305176</ele>
        <time>2020-05-24T08:43:38Z</time>
      </trkpt>
      <trkpt lat="44.54066" lon="4.65981">
        <ele>143</ele>
        <time>2020-05-24T08:43:39Z</time>
      </trkpt>
      <trkpt lat="44.54067" lon="4.65978">
        <ele>143.39999389648</ele>
        <time>2020-05-24T08:43:40Z</time>
      </trkpt>
      <trkpt lat="44.54067" lon="4.65974">
        <ele>143.60000610352</ele>
        <time>2020-05-24T08:43:41Z</time>
      </trkpt>
      <trkpt lat="44.54067" lon="4.65969">
        <ele>143.60000610352</ele>
        <time>2020-05-24T08:43:42Z</time>
      </trkpt>
      <trkpt lat="44.54067" lon="4.65965">
        <ele>144</ele>
        <time>2020-05-24T08:43:43Z</time>
      </trkpt>
      <trkpt lat="44.54068" lon="4.6596">
        <ele>144.39999389648</ele>
        <time>2020-05-24T08:43:44Z</time>
      </trkpt>
      <trkpt lat="44.54069" lon="4.65956">
        <ele>144.80000305176</ele>
        <time>2020-05-24T08:43:45Z</time>
      </trkpt>
      <trkpt lat="44.54069" lon="4.65951">
        <ele>145.19999694824</ele>
        <time>2020-05-24T08:43:46Z</time>
      </trkpt>
      <trkpt lat="44.5407" lon="4.65946">
        <ele>145.60000610352</ele>
        <time>2020-05-24T08:43:47Z</time>
      </trkpt>
      <trkpt lat="44.5407" lon="4.65942">
        <ele>145.80000305176</ele>
        <time>2020-05-24T08:43:48Z</time>
      </trkpt>
      <trkpt lat="44.54071" lon="4.65937">
        <ele>146.19999694824</ele>
        <time>2020-05-24T08:43:49Z</time>
      </trkpt>
      <trkpt lat="44.54071" lon="4.65932">
        <ele>146.60000610352</ele>
        <time>2020-05-24T08:43:50Z</time>
      </trkpt>
      <trkpt lat="44.54072" lon="4.65927">
        <ele>146.60000610352</ele>
        <time>2020-05-24T08:43:51Z</time>
      </trkpt>
      <trkpt lat="44.54072" lon="4.65923">
        <ele>146.80000305176</ele>
        <time>2020-05-24T08:43:52Z</time>
      </trkpt>
      <trkpt lat="44.54073" lon="4.65918">
        <ele>147</ele>
        <time>2020-05-24T08:43:53Z</time>
      </trkpt>
      <trkpt lat="44.54073" lon="4.65913">
        <ele>147.19999694824</ele>
        <time>2020-05-24T08:43:54Z</time>
      </trkpt>
      <trkpt lat="44.54074" lon="4.65908">
        <ele>147.39999389648</ele>
        <time>2020-05-24T08:43:55Z</time>
      </trkpt>
      <trkpt lat="44.54075" lon="4.65898">
        <ele>147.39999389648</ele>
        <time>2020-05-24T08:43:57Z</time>
      </trkpt>
      <trkpt lat="44.54076" lon="4.65888">
        <ele>147.60000610352</ele>
        <time>2020-05-24T08:43:59Z</time>
      </trkpt>
      <trkpt lat="44.54077" lon="4.65882">
        <ele>147.60000610352</ele>
        <time>2020-05-24T08:44:00Z</time>
      </trkpt>
      <trkpt lat="44.54078" lon="4.65877">
        <ele>147.60000610352</ele>
        <time>2020-05-24T08:44:01Z</time>
      </trkpt>
      <trkpt lat="44.5408" lon="4.65859">
        <ele>147.60000610352</ele>
        <time>2020-05-24T08:44:04Z</time>
      </trkpt>
      <trkpt lat="44.54081" lon="4.65853">
        <ele>147.60000610352</ele>
        <time>2020-05-24T08:44:05Z</time>
      </trkpt>
      <trkpt lat="44.54082" lon="4.65847">
        <ele>147.39999389648</ele>
        <time>2020-05-24T08:44:06Z</time>
      </trkpt>
      <trkpt lat="44.54083" lon="4.65841">
        <ele>147.60000610352</ele>
        <time>2020-05-24T08:44:07Z</time>
      </trkpt>
      <trkpt lat="44.54084" lon="4.65817">
        <ele>147</ele>
        <time>2020-05-24T08:44:11Z</time>
      </trkpt>
      <trkpt lat="44.54084" lon="4.6581">
        <ele>147</ele>
        <time>2020-05-24T08:44:12Z</time>
      </trkpt>
      <trkpt lat="44.54084" lon="4.65804">
        <ele>147</ele>
        <time>2020-05-24T08:44:13Z</time>
      </trkpt>
      <trkpt lat="44.54084" lon="4.65798">
        <ele>147</ele>
        <time>2020-05-24T08:44:14Z</time>
      </trkpt>
      <trkpt lat="44.54083" lon="4.65792">
        <ele>146.80000305176</ele>
        <time>2020-05-24T08:44:15Z</time>
      </trkpt>
      <trkpt lat="44.54082" lon="4.65786">
        <ele>147</ele>
        <time>2020-05-24T08:44:16Z</time>
      </trkpt>
      <trkpt lat="44.54081" lon="4.6578">
        <ele>147</ele>
        <time>2020-05-24T08:44:17Z</time>
      </trkpt>
      <trkpt lat="44.5408" lon="4.65774">
        <ele>146.80000305176</ele>
        <time>2020-05-24T08:44:18Z</time>
      </trkpt>
      <trkpt lat="44.54079" lon="4.65769">
        <ele>146.80000305176</ele>
        <time>2020-05-24T08:44:19Z</time>
      </trkpt>
      <trkpt lat="44.54077" lon="4.65764">
        <ele>147</ele>
        <time>2020-05-24T08:44:20Z</time>
      </trkpt>
      <trkpt lat="44.54075" lon="4.65758">
        <ele>147.39999389648</ele>
        <time>2020-05-24T08:44:21Z</time>
      </trkpt>
      <trkpt lat="44.54074" lon="4.65753">
        <ele>147.60000610352</ele>
        <time>2020-05-24T08:44:22Z</time>
      </trkpt>
      <trkpt lat="44.54073" lon="4.65747">
        <ele>147.80000305176</ele>
        <time>2020-05-24T08:44:23Z</time>
      </trkpt>
      <trkpt lat="44.54071" lon="4.65742">
        <ele>147.80000305176</ele>
        <time>2020-05-24T08:44:24Z</time>
      </trkpt>
      <trkpt lat="44.5407" lon="4.65738">
        <ele>148</ele>
        <time>2020-05-24T08:44:25Z</time>
      </trkpt>
      <trkpt lat="44.5407" lon="4.65733">
        <ele>148.39999389648</ele>
        <time>2020-05-24T08:44:26Z</time>
      </trkpt>
      <trkpt lat="44.5407" lon="4.65728">
        <ele>148.60000610352</ele>
        <time>2020-05-24T08:44:27Z</time>
      </trkpt>
      <trkpt lat="44.5407" lon="4.65718">
        <ele>148.80000305176</ele>
        <time>2020-05-24T08:44:29Z</time>
      </trkpt>
      <trkpt lat="44.54071" lon="4.65712">
        <ele>148.80000305176</ele>
        <time>2020-05-24T08:44:30Z</time>
      </trkpt>
      <trkpt lat="44.54073" lon="4.65695">
        <ele>148.80000305176</ele>
        <time>2020-05-24T08:44:33Z</time>
      </trkpt>
      <trkpt lat="44.54075" lon="4.65671">
        <ele>148.60000610352</ele>
        <time>2020-05-24T08:44:37Z</time>
      </trkpt>
      <trkpt lat="44.54077" lon="4.65644">
        <ele>148.39999389648</ele>
        <time>2020-05-24T08:44:41Z</time>
      </trkpt>
      <trkpt lat="44.54079" lon="4.65624">
        <ele>147.60000610352</ele>
        <time>2020-05-24T08:44:44Z</time>
      </trkpt>
      <trkpt lat="44.54081" lon="4.65618">
        <ele>147.19999694824</ele>
        <time>2020-05-24T08:44:45Z</time>
      </trkpt>
      <trkpt lat="44.54083" lon="4.65612">
        <ele>147</ele>
        <time>2020-05-24T08:44:46Z</time>
      </trkpt>
      <trkpt lat="44.54086" lon="4.65606">
        <ele>146.80000305176</ele>
        <time>2020-05-24T08:44:47Z</time>
      </trkpt>
      <trkpt lat="44.54089" lon="4.65601">
        <ele>146.80000305176</ele>
        <time>2020-05-24T08:44:48Z</time>
      </trkpt>
      <trkpt lat="44.54096" lon="4.6559">
        <ele>146.80000305176</ele>
        <time>2020-05-24T08:44:50Z</time>
      </trkpt>
      <trkpt lat="44.54098" lon="4.65586">
        <ele>146.60000610352</ele>
        <time>2020-05-24T08:44:51Z</time>
      </trkpt>
      <trkpt lat="44.54101" lon="4.65581">
        <ele>146.60000610352</ele>
        <time>2020-05-24T08:44:52Z</time>
      </trkpt>
      <trkpt lat="44.54103" lon="4.65577">
        <ele>146.60000610352</ele>
        <time>2020-05-24T08:44:53Z</time>
      </trkpt>
      <trkpt lat="44.54105" lon="4.65572">
        <ele>146.60000610352</ele>
        <time>2020-05-24T08:44:54Z</time>
      </trkpt>
      <trkpt lat="44.54106" lon="4.65567">
        <ele>146.60000610352</ele>
        <time>2020-05-24T08:44:55Z</time>
      </trkpt>
      <trkpt lat="44.54107" lon="4.65562">
        <ele>146.80000305176</ele>
        <time>2020-05-24T08:44:56Z</time>
      </trkpt>
      <trkpt lat="44.54108" lon="4.65556">
        <ele>146.60000610352</ele>
        <time>2020-05-24T08:44:57Z</time>
      </trkpt>
      <trkpt lat="44.54107" lon="4.6555">
        <ele>146.60000610352</ele>
        <time>2020-05-24T08:44:58Z</time>
      </trkpt>
      <trkpt lat="44.54106" lon="4.65545">
        <ele>146.80000305176</ele>
        <time>2020-05-24T08:44:59Z</time>
      </trkpt>
      <trkpt lat="44.54105" lon="4.65539">
        <ele>147</ele>
        <time>2020-05-24T08:45:00Z</time>
      </trkpt>
      <trkpt lat="44.54104" lon="4.65534">
        <ele>147</ele>
        <time>2020-05-24T08:45:01Z</time>
      </trkpt>
      <trkpt lat="44.54102" lon="4.65523">
        <ele>146.80000305176</ele>
        <time>2020-05-24T08:45:03Z</time>
      </trkpt>
      <trkpt lat="44.54101" lon="4.65517">
        <ele>147</ele>
        <time>2020-05-24T08:45:04Z</time>
      </trkpt>
      <trkpt lat="44.54101" lon="4.65509">
        <ele>146.80000305176</ele>
        <time>2020-05-24T08:45:05Z</time>
      </trkpt>
      <trkpt lat="44.54101" lon="4.65481">
        <ele>147</ele>
        <time>2020-05-24T08:45:09Z</time>
      </trkpt>
      <trkpt lat="44.54102" lon="4.65474">
        <ele>146.80000305176</ele>
        <time>2020-05-24T08:45:10Z</time>
      </trkpt>
      <trkpt lat="44.54102" lon="4.65467">
        <ele>147</ele>
        <time>2020-05-24T08:45:11Z</time>
      </trkpt>
      <trkpt lat="44.541" lon="4.65425">
        <ele>146</ele>
        <time>2020-05-24T08:45:17Z</time>
      </trkpt>
      <trkpt lat="44.541" lon="4.65418">
        <ele>146</ele>
        <time>2020-05-24T08:45:18Z</time>
      </trkpt>
      <trkpt lat="44.54101" lon="4.6541">
        <ele>145.80000305176</ele>
        <time>2020-05-24T08:45:19Z</time>
      </trkpt>
      <trkpt lat="44.54101" lon="4.65403">
        <ele>145.80000305176</ele>
        <time>2020-05-24T08:45:20Z</time>
      </trkpt>
      <trkpt lat="44.54102" lon="4.65397">
        <ele>145.80000305176</ele>
        <time>2020-05-24T08:45:21Z</time>
      </trkpt>
      <trkpt lat="44.54102" lon="4.6539">
        <ele>145.80000305176</ele>
        <time>2020-05-24T08:45:22Z</time>
      </trkpt>
      <trkpt lat="44.54103" lon="4.65384">
        <ele>145.80000305176</ele>
        <time>2020-05-24T08:45:23Z</time>
      </trkpt>
      <trkpt lat="44.54105" lon="4.65378">
        <ele>146</ele>
        <time>2020-05-24T08:45:24Z</time>
      </trkpt>
      <trkpt lat="44.54106" lon="4.65373">
        <ele>146</ele>
        <time>2020-05-24T08:45:25Z</time>
      </trkpt>
      <trkpt lat="44.54108" lon="4.65367">
        <ele>146.39999389648</ele>
        <time>2020-05-24T08:45:26Z</time>
      </trkpt>
      <trkpt lat="44.54109" lon="4.65362">
        <ele>146.60000610352</ele>
        <time>2020-05-24T08:45:27Z</time>
      </trkpt>
      <trkpt lat="44.54111" lon="4.65356">
        <ele>146.60000610352</ele>
        <time>2020-05-24T08:45:28Z</time>
      </trkpt>
      <trkpt lat="44.54113" lon="4.6535">
        <ele>146.80000305176</ele>
        <time>2020-05-24T08:45:29Z</time>
      </trkpt>
      <trkpt lat="44.54114" lon="4.65344">
        <ele>147.19999694824</ele>
        <time>2020-05-24T08:45:30Z</time>
      </trkpt>
      <trkpt lat="44.54116" lon="4.65338">
        <ele>147.39999389648</ele>
        <time>2020-05-24T08:45:31Z</time>
      </trkpt>
      <trkpt lat="44.54118" lon="4.65333">
        <ele>147.80000305176</ele>
        <time>2020-05-24T08:45:32Z</time>
      </trkpt>
      <trkpt lat="44.54126" lon="4.65309">
        <ele>148.80000305176</ele>
        <time>2020-05-24T08:45:36Z</time>
      </trkpt>
      <trkpt lat="44.54127" lon="4.65303">
        <ele>148.60000610352</ele>
        <time>2020-05-24T08:45:37Z</time>
      </trkpt>
      <trkpt lat="44.54128" lon="4.65297">
        <ele>148.80000305176</ele>
        <time>2020-05-24T08:45:38Z</time>
      </trkpt>
      <trkpt lat="44.54129" lon="4.65291">
        <ele>148.60000610352</ele>
        <time>2020-05-24T08:45:39Z</time>
      </trkpt>
      <trkpt lat="44.54129" lon="4.65279">
        <ele>148.80000305176</ele>
        <time>2020-05-24T08:45:41Z</time>
      </trkpt>
      <trkpt lat="44.54129" lon="4.65273">
        <ele>148.80000305176</ele>
        <time>2020-05-24T08:45:42Z</time>
      </trkpt>
      <trkpt lat="44.54129" lon="4.65267">
        <ele>148.80000305176</ele>
        <time>2020-05-24T08:45:43Z</time>
      </trkpt>
      <trkpt lat="44.54129" lon="4.65262">
        <ele>148.80000305176</ele>
        <time>2020-05-24T08:45:44Z</time>
      </trkpt>
      <trkpt lat="44.54128" lon="4.65256">
        <ele>148.80000305176</ele>
        <time>2020-05-24T08:45:45Z</time>
      </trkpt>
      <trkpt lat="44.54127" lon="4.65252">
        <ele>148.80000305176</ele>
        <time>2020-05-24T08:45:46Z</time>
      </trkpt>
      <trkpt lat="44.54126" lon="4.65247">
        <ele>149</ele>
        <time>2020-05-24T08:45:47Z</time>
      </trkpt>
      <trkpt lat="44.54125" lon="4.65243">
        <ele>149</ele>
        <time>2020-05-24T08:45:48Z</time>
      </trkpt>
      <trkpt lat="44.54124" lon="4.65239">
        <ele>148.80000305176</ele>
        <time>2020-05-24T08:45:49Z</time>
      </trkpt>
      <trkpt lat="44.54123" lon="4.65235">
        <ele>149</ele>
        <time>2020-05-24T08:45:50Z</time>
      </trkpt>
      <trkpt lat="44.54121" lon="4.65232">
        <ele>149.19999694824</ele>
        <time>2020-05-24T08:45:51Z</time>
      </trkpt>
      <trkpt lat="44.5412" lon="4.65228">
        <ele>149</ele>
        <time>2020-05-24T08:45:52Z</time>
      </trkpt>
      <trkpt lat="44.54118" lon="4.65225">
        <ele>149.39999389648</ele>
        <time>2020-05-24T08:45:53Z</time>
      </trkpt>
      <trkpt lat="44.54117" lon="4.65222">
        <ele>149.60000610352</ele>
        <time>2020-05-24T08:45:54Z</time>
      </trkpt>
      <trkpt lat="44.54116" lon="4.6522">
        <ele>150</ele>
        <time>2020-05-24T08:45:55Z</time>
      </trkpt>
      <trkpt lat="44.54115" lon="4.65217">
        <ele>150.19999694824</ele>
        <time>2020-05-24T08:45:56Z</time>
      </trkpt>
      <trkpt lat="44.54114" lon="4.65214">
        <ele>150.60000610352</ele>
        <time>2020-05-24T08:45:57Z</time>
      </trkpt>
      <trkpt lat="44.54113" lon="4.65211">
        <ele>150.80000305176</ele>
        <time>2020-05-24T08:45:58Z</time>
      </trkpt>
      <trkpt lat="44.54112" lon="4.65208">
        <ele>151</ele>
        <time>2020-05-24T08:45:59Z</time>
      </trkpt>
      <trkpt lat="44.54112" lon="4.65206">
        <ele>151.39999389648</ele>
        <time>2020-05-24T08:46:00Z</time>
      </trkpt>
      <trkpt lat="44.54111" lon="4.65203">
        <ele>151.60000610352</ele>
        <time>2020-05-24T08:46:01Z</time>
      </trkpt>
      <trkpt lat="44.5411" lon="4.65201">
        <ele>151.80000305176</ele>
        <time>2020-05-24T08:46:02Z</time>
      </trkpt>
      <trkpt lat="44.54109" lon="4.65198">
        <ele>152.39999389648</ele>
        <time>2020-05-24T08:46:03Z</time>
      </trkpt>
      <trkpt lat="44.54108" lon="4.65195">
        <ele>152.80000305176</ele>
        <time>2020-05-24T08:46:04Z</time>
      </trkpt>
      <trkpt lat="44.54108" lon="4.65193">
        <ele>153.39999389648</ele>
        <time>2020-05-24T08:46:05Z</time>
      </trkpt>
      <trkpt lat="44.54107" lon="4.6519">
        <ele>153.39999389648</ele>
        <time>2020-05-24T08:46:06Z</time>
      </trkpt>
      <trkpt lat="44.54106" lon="4.65187">
        <ele>153.80000305176</ele>
        <time>2020-05-24T08:46:07Z</time>
      </trkpt>
      <trkpt lat="44.54105" lon="4.65185">
        <ele>154.19999694824</ele>
        <time>2020-05-24T08:46:08Z</time>
      </trkpt>
      <trkpt lat="44.54104" lon="4.65182">
        <ele>154.60000610352</ele>
        <time>2020-05-24T08:46:09Z</time>
      </trkpt>
      <trkpt lat="44.54103" lon="4.65179">
        <ele>155</ele>
        <time>2020-05-24T08:46:10Z</time>
      </trkpt>
      <trkpt lat="44.54102" lon="4.65177">
        <ele>155.19999694824</ele>
        <time>2020-05-24T08:46:11Z</time>
      </trkpt>
      <trkpt lat="44.54101" lon="4.65174">
        <ele>155.39999389648</ele>
        <time>2020-05-24T08:46:12Z</time>
      </trkpt>
      <trkpt lat="44.541" lon="4.65171">
        <ele>155.80000305176</ele>
        <time>2020-05-24T08:46:13Z</time>
      </trkpt>
      <trkpt lat="44.541" lon="4.65168">
        <ele>156.39999389648</ele>
        <time>2020-05-24T08:46:14Z</time>
      </trkpt>
      <trkpt lat="44.541" lon="4.65165">
        <ele>156.80000305176</ele>
        <time>2020-05-24T08:46:15Z</time>
      </trkpt>
      <trkpt lat="44.54099" lon="4.65162">
        <ele>157.19999694824</ele>
        <time>2020-05-24T08:46:16Z</time>
      </trkpt>
      <trkpt lat="44.54099" lon="4.65159">
        <ele>157.60000610352</ele>
        <time>2020-05-24T08:46:17Z</time>
      </trkpt>
      <trkpt lat="44.54098" lon="4.65156">
        <ele>158</ele>
        <time>2020-05-24T08:46:18Z</time>
      </trkpt>
      <trkpt lat="44.54098" lon="4.65153">
        <ele>158.19999694824</ele>
        <time>2020-05-24T08:46:19Z</time>
      </trkpt>
      <trkpt lat="44.54097" lon="4.6515">
        <ele>158.60000610352</ele>
        <time>2020-05-24T08:46:20Z</time>
      </trkpt>
      <trkpt lat="44.54097" lon="4.65147">
        <ele>159</ele>
        <time>2020-05-24T08:46:21Z</time>
      </trkpt>
      <trkpt lat="44.54096" lon="4.65143">
        <ele>159.60000610352</ele>
        <time>2020-05-24T08:46:22Z</time>
      </trkpt>
      <trkpt lat="44.54096" lon="4.6514">
        <ele>160</ele>
        <time>2020-05-24T08:46:23Z</time>
      </trkpt>
      <trkpt lat="44.54096" lon="4.65137">
        <ele>160.19999694824</ele>
        <time>2020-05-24T08:46:24Z</time>
      </trkpt>
      <trkpt lat="44.54096" lon="4.65133">
        <ele>160.60000610352</ele>
        <time>2020-05-24T08:46:25Z</time>
      </trkpt>
      <trkpt lat="44.54096" lon="4.6513">
        <ele>161</ele>
        <time>2020-05-24T08:46:26Z</time>
      </trkpt>
      <trkpt lat="44.54096" lon="4.65127">
        <ele>161</ele>
        <time>2020-05-24T08:46:27Z</time>
      </trkpt>
      <trkpt lat="44.54096" lon="4.65123">
        <ele>161.39999389648</ele>
        <time>2020-05-24T08:46:28Z</time>
      </trkpt>
      <trkpt lat="44.54097" lon="4.6512">
        <ele>161.60000610352</ele>
        <time>2020-05-24T08:46:29Z</time>
      </trkpt>
      <trkpt lat="44.54097" lon="4.65116">
        <ele>162</ele>
        <time>2020-05-24T08:46:30Z</time>
      </trkpt>
      <trkpt lat="44.54097" lon="4.65113">
        <ele>162.39999389648</ele>
        <time>2020-05-24T08:46:31Z</time>
      </trkpt>
      <trkpt lat="44.54098" lon="4.65109">
        <ele>162.60000610352</ele>
        <time>2020-05-24T08:46:32Z</time>
      </trkpt>
      <trkpt lat="44.54098" lon="4.65106">
        <ele>163</ele>
        <time>2020-05-24T08:46:33Z</time>
      </trkpt>
      <trkpt lat="44.54098" lon="4.65103">
        <ele>163.39999389648</ele>
        <time>2020-05-24T08:46:34Z</time>
      </trkpt>
      <trkpt lat="44.54099" lon="4.65099">
        <ele>163.60000610352</ele>
        <time>2020-05-24T08:46:35Z</time>
      </trkpt>
      <trkpt lat="44.54099" lon="4.65096">
        <ele>164.19999694824</ele>
        <time>2020-05-24T08:46:36Z</time>
      </trkpt>
      <trkpt lat="44.54099" lon="4.65093">
        <ele>164.39999389648</ele>
        <time>2020-05-24T08:46:37Z</time>
      </trkpt>
      <trkpt lat="44.541" lon="4.65089">
        <ele>164.80000305176</ele>
        <time>2020-05-24T08:46:38Z</time>
      </trkpt>
      <trkpt lat="44.541" lon="4.65086">
        <ele>165</ele>
        <time>2020-05-24T08:46:39Z</time>
      </trkpt>
      <trkpt lat="44.541" lon="4.65082">
        <ele>165.39999389648</ele>
        <time>2020-05-24T08:46:40Z</time>
      </trkpt>
      <trkpt lat="44.54101" lon="4.65079">
        <ele>166</ele>
        <time>2020-05-24T08:46:41Z</time>
      </trkpt>
      <trkpt lat="44.54101" lon="4.65076">
        <ele>166.19999694824</ele>
        <time>2020-05-24T08:46:42Z</time>
      </trkpt>
      <trkpt lat="44.54102" lon="4.65072">
        <ele>166.60000610352</ele>
        <time>2020-05-24T08:46:43Z</time>
      </trkpt>
      <trkpt lat="44.54102" lon="4.65069">
        <ele>166.80000305176</ele>
        <time>2020-05-24T08:46:44Z</time>
      </trkpt>
      <trkpt lat="44.54103" lon="4.65065">
        <ele>166.80000305176</ele>
        <time>2020-05-24T08:46:45Z</time>
      </trkpt>
      <trkpt lat="44.54103" lon="4.65062">
        <ele>167</ele>
        <time>2020-05-24T08:46:46Z</time>
      </trkpt>
      <trkpt lat="44.54104" lon="4.65058">
        <ele>167</ele>
        <time>2020-05-24T08:46:47Z</time>
      </trkpt>
      <trkpt lat="44.54104" lon="4.65055">
        <ele>167</ele>
        <time>2020-05-24T08:46:48Z</time>
      </trkpt>
      <trkpt lat="44.54105" lon="4.65052">
        <ele>167.39999389648</ele>
        <time>2020-05-24T08:46:49Z</time>
      </trkpt>
      <trkpt lat="44.54105" lon="4.65048">
        <ele>167.80000305176</ele>
        <time>2020-05-24T08:46:50Z</time>
      </trkpt>
      <trkpt lat="44.54106" lon="4.65045">
        <ele>168</ele>
        <time>2020-05-24T08:46:51Z</time>
      </trkpt>
      <trkpt lat="44.54106" lon="4.65041">
        <ele>168.39999389648</ele>
        <time>2020-05-24T08:46:52Z</time>
      </trkpt>
      <trkpt lat="44.54106" lon="4.65038">
        <ele>168.60000610352</ele>
        <time>2020-05-24T08:46:53Z</time>
      </trkpt>
      <trkpt lat="44.54107" lon="4.65035">
        <ele>169.19999694824</ele>
        <time>2020-05-24T08:46:54Z</time>
      </trkpt>
      <trkpt lat="44.54107" lon="4.65032">
        <ele>169.39999389648</ele>
        <time>2020-05-24T08:46:55Z</time>
      </trkpt>
      <trkpt lat="44.54108" lon="4.65028">
        <ele>170</ele>
        <time>2020-05-24T08:46:56Z</time>
      </trkpt>
      <trkpt lat="44.54108" lon="4.65025">
        <ele>170.19999694824</ele>
        <time>2020-05-24T08:46:57Z</time>
      </trkpt>
      <trkpt lat="44.54108" lon="4.65022">
        <ele>170.60000610352</ele>
        <time>2020-05-24T08:46:58Z</time>
      </trkpt>
      <trkpt lat="44.54109" lon="4.65019">
        <ele>170.80000305176</ele>
        <time>2020-05-24T08:46:59Z</time>
      </trkpt>
      <trkpt lat="44.54109" lon="4.65016">
        <ele>171</ele>
        <time>2020-05-24T08:47:00Z</time>
      </trkpt>
      <trkpt lat="44.5411" lon="4.65012">
        <ele>171.39999389648</ele>
        <time>2020-05-24T08:47:01Z</time>
      </trkpt>
      <trkpt lat="44.5411" lon="4.65009">
        <ele>171.60000610352</ele>
        <time>2020-05-24T08:47:02Z</time>
      </trkpt>
      <trkpt lat="44.54111" lon="4.65007">
        <ele>171.60000610352</ele>
        <time>2020-05-24T08:47:03Z</time>
      </trkpt>
      <trkpt lat="44.54111" lon="4.65004">
        <ele>171.80000305176</ele>
        <time>2020-05-24T08:47:04Z</time>
      </trkpt>
      <trkpt lat="44.54111" lon="4.65001">
        <ele>172.19999694824</ele>
        <time>2020-05-24T08:47:05Z</time>
      </trkpt>
      <trkpt lat="44.54111" lon="4.64998">
        <ele>172.39999389648</ele>
        <time>2020-05-24T08:47:06Z</time>
      </trkpt>
      <trkpt lat="44.54112" lon="4.64995">
        <ele>172.60000610352</ele>
        <time>2020-05-24T08:47:07Z</time>
      </trkpt>
      <trkpt lat="44.54112" lon="4.64992">
        <ele>173</ele>
        <time>2020-05-24T08:47:08Z</time>
      </trkpt>
      <trkpt lat="44.54112" lon="4.64989">
        <ele>173</ele>
        <time>2020-05-24T08:47:09Z</time>
      </trkpt>
      <trkpt lat="44.54112" lon="4.64986">
        <ele>173.19999694824</ele>
        <time>2020-05-24T08:47:10Z</time>
      </trkpt>
      <trkpt lat="44.54112" lon="4.64982">
        <ele>173.39999389648</ele>
        <time>2020-05-24T08:47:11Z</time>
      </trkpt>
      <trkpt lat="44.54113" lon="4.64979">
        <ele>173.80000305176</ele>
        <time>2020-05-24T08:47:12Z</time>
      </trkpt>
      <trkpt lat="44.54113" lon="4.64976">
        <ele>174.19999694824</ele>
        <time>2020-05-24T08:47:13Z</time>
      </trkpt>
      <trkpt lat="44.54113" lon="4.64972">
        <ele>174.60000610352</ele>
        <time>2020-05-24T08:47:14Z</time>
      </trkpt>
      <trkpt lat="44.54113" lon="4.64969">
        <ele>175</ele>
        <time>2020-05-24T08:47:15Z</time>
      </trkpt>
      <trkpt lat="44.54112" lon="4.64966">
        <ele>175.39999389648</ele>
        <time>2020-05-24T08:47:16Z</time>
      </trkpt>
      <trkpt lat="44.54112" lon="4.64963">
        <ele>175.60000610352</ele>
        <time>2020-05-24T08:47:17Z</time>
      </trkpt>
      <trkpt lat="44.54112" lon="4.6496">
        <ele>175.80000305176</ele>
        <time>2020-05-24T08:47:18Z</time>
      </trkpt>
      <trkpt lat="44.54112" lon="4.64957">
        <ele>176.19999694824</ele>
        <time>2020-05-24T08:47:19Z</time>
      </trkpt>
      <trkpt lat="44.54112" lon="4.64954">
        <ele>176.39999389648</ele>
        <time>2020-05-24T08:47:20Z</time>
      </trkpt>
      <trkpt lat="44.54112" lon="4.64951">
        <ele>176.60000610352</ele>
        <time>2020-05-24T08:47:21Z</time>
      </trkpt>
      <trkpt lat="44.54112" lon="4.64948">
        <ele>177</ele>
        <time>2020-05-24T08:47:22Z</time>
      </trkpt>
      <trkpt lat="44.54111" lon="4.64945">
        <ele>177</ele>
        <time>2020-05-24T08:47:23Z</time>
      </trkpt>
      <trkpt lat="44.54111" lon="4.64943">
        <ele>177.39999389648</ele>
        <time>2020-05-24T08:47:24Z</time>
      </trkpt>
      <trkpt lat="44.54111" lon="4.64939">
        <ele>177.60000610352</ele>
        <time>2020-05-24T08:47:25Z</time>
      </trkpt>
      <trkpt lat="44.54111" lon="4.64936">
        <ele>177.80000305176</ele>
        <time>2020-05-24T08:47:26Z</time>
      </trkpt>
      <trkpt lat="44.54111" lon="4.64933">
        <ele>178</ele>
        <time>2020-05-24T08:47:27Z</time>
      </trkpt>
      <trkpt lat="44.54112" lon="4.6493">
        <ele>178.39999389648</ele>
        <time>2020-05-24T08:47:28Z</time>
      </trkpt>
      <trkpt lat="44.54112" lon="4.64927">
        <ele>178.60000610352</ele>
        <time>2020-05-24T08:47:29Z</time>
      </trkpt>
      <trkpt lat="44.54112" lon="4.64924">
        <ele>178.60000610352</ele>
        <time>2020-05-24T08:47:30Z</time>
      </trkpt>
      <trkpt lat="44.54112" lon="4.64921">
        <ele>178.60000610352</ele>
        <time>2020-05-24T08:47:31Z</time>
      </trkpt>
      <trkpt lat="44.54113" lon="4.64918">
        <ele>179</ele>
        <time>2020-05-24T08:47:32Z</time>
      </trkpt>
      <trkpt lat="44.54113" lon="4.64915">
        <ele>179.19999694824</ele>
        <time>2020-05-24T08:47:33Z</time>
      </trkpt>
      <trkpt lat="44.54113" lon="4.64912">
        <ele>179.60000610352</ele>
        <time>2020-05-24T08:47:34Z</time>
      </trkpt>
      <trkpt lat="44.54114" lon="4.6491">
        <ele>179.80000305176</ele>
        <time>2020-05-24T08:47:35Z</time>
      </trkpt>
      <trkpt lat="44.54114" lon="4.64907">
        <ele>180</ele>
        <time>2020-05-24T08:47:36Z</time>
      </trkpt>
      <trkpt lat="44.54114" lon="4.64904">
        <ele>180.39999389648</ele>
        <time>2020-05-24T08:47:37Z</time>
      </trkpt>
      <trkpt lat="44.54114" lon="4.64901">
        <ele>180.60000610352</ele>
        <time>2020-05-24T08:47:38Z</time>
      </trkpt>
      <trkpt lat="44.54114" lon="4.64898">
        <ele>180.80000305176</ele>
        <time>2020-05-24T08:47:39Z</time>
      </trkpt>
      <trkpt lat="44.54114" lon="4.64895">
        <ele>181.19999694824</ele>
        <time>2020-05-24T08:47:40Z</time>
      </trkpt>
      <trkpt lat="44.54115" lon="4.64892">
        <ele>181.60000610352</ele>
        <time>2020-05-24T08:47:41Z</time>
      </trkpt>
      <trkpt lat="44.54115" lon="4.64889">
        <ele>181.80000305176</ele>
        <time>2020-05-24T08:47:42Z</time>
      </trkpt>
      <trkpt lat="44.54115" lon="4.64886">
        <ele>182.39999389648</ele>
        <time>2020-05-24T08:47:43Z</time>
      </trkpt>
      <trkpt lat="44.54115" lon="4.64884">
        <ele>182.60000610352</ele>
        <time>2020-05-24T08:47:44Z</time>
      </trkpt>
      <trkpt lat="44.54116" lon="4.64881">
        <ele>182.60000610352</ele>
        <time>2020-05-24T08:47:45Z</time>
      </trkpt>
      <trkpt lat="44.54116" lon="4.64878">
        <ele>183</ele>
        <time>2020-05-24T08:47:46Z</time>
      </trkpt>
      <trkpt lat="44.54116" lon="4.64875">
        <ele>183.19999694824</ele>
        <time>2020-05-24T08:47:47Z</time>
      </trkpt>
      <trkpt lat="44.54117" lon="4.64871">
        <ele>183.39999389648</ele>
        <time>2020-05-24T08:47:48Z</time>
      </trkpt>
      <trkpt lat="44.54118" lon="4.64868">
        <ele>183.80000305176</ele>
        <time>2020-05-24T08:47:49Z</time>
      </trkpt>
      <trkpt lat="44.5412" lon="4.64858">
        <ele>184.39999389648</ele>
        <time>2020-05-24T08:47:52Z</time>
      </trkpt>
      <trkpt lat="44.5412" lon="4.64855">
        <ele>184.39999389648</ele>
        <time>2020-05-24T08:47:53Z</time>
      </trkpt>
      <trkpt lat="44.54121" lon="4.64851">
        <ele>184.80000305176</ele>
        <time>2020-05-24T08:47:54Z</time>
      </trkpt>
      <trkpt lat="44.54122" lon="4.64848">
        <ele>184.80000305176</ele>
        <time>2020-05-24T08:47:55Z</time>
      </trkpt>
      <trkpt lat="44.54123" lon="4.64839">
        <ele>184.60000610352</ele>
        <time>2020-05-24T08:47:58Z</time>
      </trkpt>
      <trkpt lat="44.54124" lon="4.64836">
        <ele>184.80000305176</ele>
        <time>2020-05-24T08:47:59Z</time>
      </trkpt>
      <trkpt lat="44.54125" lon="4.64833">
        <ele>184.80000305176</ele>
        <time>2020-05-24T08:48:00Z</time>
      </trkpt>
      <trkpt lat="44.54128" lon="4.64823">
        <ele>185</ele>
        <time>2020-05-24T08:48:03Z</time>
      </trkpt>
      <trkpt lat="44.54129" lon="4.6482">
        <ele>185</ele>
        <time>2020-05-24T08:48:04Z</time>
      </trkpt>
      <trkpt lat="44.54132" lon="4.64814">
        <ele>185</ele>
        <time>2020-05-24T08:48:06Z</time>
      </trkpt>
      <trkpt lat="44.54134" lon="4.6481">
        <ele>185</ele>
        <time>2020-05-24T08:48:07Z</time>
      </trkpt>
      <trkpt lat="44.54145" lon="4.64794">
        <ele>184.80000305176</ele>
        <time>2020-05-24T08:48:11Z</time>
      </trkpt>
      <trkpt lat="44.54148" lon="4.6479">
        <ele>184.60000610352</ele>
        <time>2020-05-24T08:48:12Z</time>
      </trkpt>
      <trkpt lat="44.54155" lon="4.6478">
        <ele>184.60000610352</ele>
        <time>2020-05-24T08:48:14Z</time>
      </trkpt>
      <trkpt lat="44.5416" lon="4.64775">
        <ele>184.60000610352</ele>
        <time>2020-05-24T08:48:15Z</time>
      </trkpt>
      <trkpt lat="44.54164" lon="4.64768">
        <ele>184.39999389648</ele>
        <time>2020-05-24T08:48:16Z</time>
      </trkpt>
      <trkpt lat="44.54169" lon="4.64761">
        <ele>184</ele>
        <time>2020-05-24T08:48:17Z</time>
      </trkpt>
      <trkpt lat="44.54183" lon="4.64737">
        <ele>182.80000305176</ele>
        <time>2020-05-24T08:48:20Z</time>
      </trkpt>
      <trkpt lat="44.54188" lon="4.64729">
        <ele>182.60000610352</ele>
        <time>2020-05-24T08:48:21Z</time>
      </trkpt>
      <trkpt lat="44.54193" lon="4.64721">
        <ele>182.19999694824</ele>
        <time>2020-05-24T08:48:22Z</time>
      </trkpt>
      <trkpt lat="44.54198" lon="4.64714">
        <ele>181.80000305176</ele>
        <time>2020-05-24T08:48:23Z</time>
      </trkpt>
      <trkpt lat="44.54203" lon="4.64709">
        <ele>181.39999389648</ele>
        <time>2020-05-24T08:48:24Z</time>
      </trkpt>
      <trkpt lat="44.54209" lon="4.64705">
        <ele>180.80000305176</ele>
        <time>2020-05-24T08:48:25Z</time>
      </trkpt>
      <trkpt lat="44.54214" lon="4.64703">
        <ele>180</ele>
        <time>2020-05-24T08:48:26Z</time>
      </trkpt>
      <trkpt lat="44.54218" lon="4.64702">
        <ele>179.60000610352</ele>
        <time>2020-05-24T08:48:27Z</time>
      </trkpt>
      <trkpt lat="44.54221" lon="4.64701">
        <ele>179.39999389648</ele>
        <time>2020-05-24T08:48:28Z</time>
      </trkpt>
      <trkpt lat="44.54224" lon="4.647">
        <ele>179.19999694824</ele>
        <time>2020-05-24T08:48:29Z</time>
      </trkpt>
      <trkpt lat="44.54227" lon="4.647">
        <ele>179.19999694824</ele>
        <time>2020-05-24T08:48:30Z</time>
      </trkpt>
      <trkpt lat="44.5423" lon="4.64699">
        <ele>179.19999694824</ele>
        <time>2020-05-24T08:48:31Z</time>
      </trkpt>
      <trkpt lat="44.54233" lon="4.64698">
        <ele>179.19999694824</ele>
        <time>2020-05-24T08:48:32Z</time>
      </trkpt>
      <trkpt lat="44.54235" lon="4.64697">
        <ele>179.19999694824</ele>
        <time>2020-05-24T08:48:33Z</time>
      </trkpt>
      <trkpt lat="44.54238" lon="4.64696">
        <ele>179.19999694824</ele>
        <time>2020-05-24T08:48:34Z</time>
      </trkpt>
      <trkpt lat="44.5424" lon="4.64696">
        <ele>179.19999694824</ele>
        <time>2020-05-24T08:48:35Z</time>
      </trkpt>
      <trkpt lat="44.54243" lon="4.64694">
        <ele>179.19999694824</ele>
        <time>2020-05-24T08:48:36Z</time>
      </trkpt>
      <trkpt lat="44.54246" lon="4.64693">
        <ele>179.19999694824</ele>
        <time>2020-05-24T08:48:37Z</time>
      </trkpt>
      <trkpt lat="44.54248" lon="4.64692">
        <ele>179.39999389648</ele>
        <time>2020-05-24T08:48:38Z</time>
      </trkpt>
      <trkpt lat="44.54251" lon="4.64691">
        <ele>179.80000305176</ele>
        <time>2020-05-24T08:48:39Z</time>
      </trkpt>
      <trkpt lat="44.54253" lon="4.6469">
        <ele>180.19999694824</ele>
        <time>2020-05-24T08:48:40Z</time>
      </trkpt>
      <trkpt lat="44.54255" lon="4.64688">
        <ele>180.39999389648</ele>
        <time>2020-05-24T08:48:41Z</time>
      </trkpt>
      <trkpt lat="44.54257" lon="4.64686">
        <ele>180.60000610352</ele>
        <time>2020-05-24T08:48:42Z</time>
      </trkpt>
      <trkpt lat="44.5426" lon="4.64684">
        <ele>181</ele>
        <time>2020-05-24T08:48:43Z</time>
      </trkpt>
      <trkpt lat="44.54262" lon="4.64682">
        <ele>181.19999694824</ele>
        <time>2020-05-24T08:48:44Z</time>
      </trkpt>
      <trkpt lat="44.54264" lon="4.6468">
        <ele>181.60000610352</ele>
        <time>2020-05-24T08:48:45Z</time>
      </trkpt>
      <trkpt lat="44.54265" lon="4.64678">
        <ele>181.80000305176</ele>
        <time>2020-05-24T08:48:46Z</time>
      </trkpt>
      <trkpt lat="44.54267" lon="4.64675">
        <ele>182.19999694824</ele>
        <time>2020-05-24T08:48:47Z</time>
      </trkpt>
      <trkpt lat="44.54268" lon="4.64672">
        <ele>182.60000610352</ele>
        <time>2020-05-24T08:48:48Z</time>
      </trkpt>
      <trkpt lat="44.54269" lon="4.64669">
        <ele>183</ele>
        <time>2020-05-24T08:48:49Z</time>
      </trkpt>
      <trkpt lat="44.5427" lon="4.64665">
        <ele>183.39999389648</ele>
        <time>2020-05-24T08:48:50Z</time>
      </trkpt>
      <trkpt lat="44.54271" lon="4.64662">
        <ele>183.60000610352</ele>
        <time>2020-05-24T08:48:51Z</time>
      </trkpt>
      <trkpt lat="44.54272" lon="4.64659">
        <ele>184</ele>
        <time>2020-05-24T08:48:52Z</time>
      </trkpt>
      <trkpt lat="44.54273" lon="4.64655">
        <ele>184.60000610352</ele>
        <time>2020-05-24T08:48:53Z</time>
      </trkpt>
      <trkpt lat="44.54273" lon="4.64652">
        <ele>184.80000305176</ele>
        <time>2020-05-24T08:48:54Z</time>
      </trkpt>
      <trkpt lat="44.54275" lon="4.64649">
        <ele>185</ele>
        <time>2020-05-24T08:48:55Z</time>
      </trkpt>
      <trkpt lat="44.54276" lon="4.64645">
        <ele>185</ele>
        <time>2020-05-24T08:48:56Z</time>
      </trkpt>
      <trkpt lat="44.54278" lon="4.64642">
        <ele>185.39999389648</ele>
        <time>2020-05-24T08:48:57Z</time>
      </trkpt>
      <trkpt lat="44.5428" lon="4.6464">
        <ele>185.60000610352</ele>
        <time>2020-05-24T08:48:58Z</time>
      </trkpt>
      <trkpt lat="44.54282" lon="4.64638">
        <ele>185.80000305176</ele>
        <time>2020-05-24T08:48:59Z</time>
      </trkpt>
      <trkpt lat="44.54284" lon="4.64637">
        <ele>186.19999694824</ele>
        <time>2020-05-24T08:49:00Z</time>
      </trkpt>
      <trkpt lat="44.54286" lon="4.64635">
        <ele>186.60000610352</ele>
        <time>2020-05-24T08:49:01Z</time>
      </trkpt>
      <trkpt lat="44.54288" lon="4.64634">
        <ele>186.80000305176</ele>
        <time>2020-05-24T08:49:02Z</time>
      </trkpt>
      <trkpt lat="44.54291" lon="4.64633">
        <ele>187</ele>
        <time>2020-05-24T08:49:03Z</time>
      </trkpt>
      <trkpt lat="44.54293" lon="4.64631">
        <ele>187.19999694824</ele>
        <time>2020-05-24T08:49:04Z</time>
      </trkpt>
      <trkpt lat="44.54295" lon="4.6463">
        <ele>187.60000610352</ele>
        <time>2020-05-24T08:49:05Z</time>
      </trkpt>
      <trkpt lat="44.54298" lon="4.64628">
        <ele>187.80000305176</ele>
        <time>2020-05-24T08:49:06Z</time>
      </trkpt>
      <trkpt lat="44.543" lon="4.64627">
        <ele>188.19999694824</ele>
        <time>2020-05-24T08:49:07Z</time>
      </trkpt>
      <trkpt lat="44.54302" lon="4.64625">
        <ele>188.60000610352</ele>
        <time>2020-05-24T08:49:08Z</time>
      </trkpt>
      <trkpt lat="44.54305" lon="4.64624">
        <ele>189</ele>
        <time>2020-05-24T08:49:09Z</time>
      </trkpt>
      <trkpt lat="44.54307" lon="4.64622">
        <ele>189.60000610352</ele>
        <time>2020-05-24T08:49:10Z</time>
      </trkpt>
      <trkpt lat="44.5431" lon="4.64621">
        <ele>190</ele>
        <time>2020-05-24T08:49:11Z</time>
      </trkpt>
      <trkpt lat="44.54312" lon="4.64619">
        <ele>190.39999389648</ele>
        <time>2020-05-24T08:49:12Z</time>
      </trkpt>
      <trkpt lat="44.54315" lon="4.64618">
        <ele>190.80000305176</ele>
        <time>2020-05-24T08:49:13Z</time>
      </trkpt>
      <trkpt lat="44.54317" lon="4.64616">
        <ele>191.39999389648</ele>
        <time>2020-05-24T08:49:14Z</time>
      </trkpt>
      <trkpt lat="44.5432" lon="4.64614">
        <ele>191.60000610352</ele>
        <time>2020-05-24T08:49:15Z</time>
      </trkpt>
      <trkpt lat="44.54322" lon="4.64613">
        <ele>192</ele>
        <time>2020-05-24T08:49:16Z</time>
      </trkpt>
      <trkpt lat="44.54324" lon="4.64611">
        <ele>192</ele>
        <time>2020-05-24T08:49:17Z</time>
      </trkpt>
      <trkpt lat="44.54327" lon="4.64609">
        <ele>192</ele>
        <time>2020-05-24T08:49:18Z</time>
      </trkpt>
      <trkpt lat="44.54329" lon="4.64607">
        <ele>192.19999694824</ele>
        <time>2020-05-24T08:49:19Z</time>
      </trkpt>
      <trkpt lat="44.54331" lon="4.64605">
        <ele>192.39999389648</ele>
        <time>2020-05-24T08:49:20Z</time>
      </trkpt>
      <trkpt lat="44.54334" lon="4.64604">
        <ele>192.80000305176</ele>
        <time>2020-05-24T08:49:21Z</time>
      </trkpt>
      <trkpt lat="44.54336" lon="4.64602">
        <ele>193.19999694824</ele>
        <time>2020-05-24T08:49:22Z</time>
      </trkpt>
      <trkpt lat="44.54339" lon="4.646">
        <ele>193.60000610352</ele>
        <time>2020-05-24T08:49:23Z</time>
      </trkpt>
      <trkpt lat="44.54341" lon="4.64598">
        <ele>194</ele>
        <time>2020-05-24T08:49:24Z</time>
      </trkpt>
      <trkpt lat="44.54343" lon="4.64596">
        <ele>194.39999389648</ele>
        <time>2020-05-24T08:49:25Z</time>
      </trkpt>
      <trkpt lat="44.54345" lon="4.64594">
        <ele>194.60000610352</ele>
        <time>2020-05-24T08:49:26Z</time>
      </trkpt>
      <trkpt lat="44.54347" lon="4.64592">
        <ele>194.80000305176</ele>
        <time>2020-05-24T08:49:27Z</time>
      </trkpt>
      <trkpt lat="44.5435" lon="4.6459">
        <ele>195.19999694824</ele>
        <time>2020-05-24T08:49:28Z</time>
      </trkpt>
      <trkpt lat="44.54352" lon="4.64588">
        <ele>195.39999389648</ele>
        <time>2020-05-24T08:49:29Z</time>
      </trkpt>
      <trkpt lat="44.54354" lon="4.64586">
        <ele>195.60000610352</ele>
        <time>2020-05-24T08:49:30Z</time>
      </trkpt>
      <trkpt lat="44.54356" lon="4.64584">
        <ele>195.80000305176</ele>
        <time>2020-05-24T08:49:31Z</time>
      </trkpt>
      <trkpt lat="44.54359" lon="4.64582">
        <ele>196.19999694824</ele>
        <time>2020-05-24T08:49:32Z</time>
      </trkpt>
      <trkpt lat="44.54361" lon="4.6458">
        <ele>196.60000610352</ele>
        <time>2020-05-24T08:49:33Z</time>
      </trkpt>
      <trkpt lat="44.54363" lon="4.64579">
        <ele>197</ele>
        <time>2020-05-24T08:49:34Z</time>
      </trkpt>
      <trkpt lat="44.54365" lon="4.64577">
        <ele>197.19999694824</ele>
        <time>2020-05-24T08:49:35Z</time>
      </trkpt>
      <trkpt lat="44.54367" lon="4.64575">
        <ele>197.39999389648</ele>
        <time>2020-05-24T08:49:36Z</time>
      </trkpt>
      <trkpt lat="44.54369" lon="4.64574">
        <ele>197.60000610352</ele>
        <time>2020-05-24T08:49:37Z</time>
      </trkpt>
      <trkpt lat="44.54371" lon="4.64572">
        <ele>197.60000610352</ele>
        <time>2020-05-24T08:49:38Z</time>
      </trkpt>
      <trkpt lat="44.54373" lon="4.6457">
        <ele>198</ele>
        <time>2020-05-24T08:49:39Z</time>
      </trkpt>
      <trkpt lat="44.54376" lon="4.64569">
        <ele>198</ele>
        <time>2020-05-24T08:49:40Z</time>
      </trkpt>
      <trkpt lat="44.54378" lon="4.64567">
        <ele>198.19999694824</ele>
        <time>2020-05-24T08:49:41Z</time>
      </trkpt>
      <trkpt lat="44.5438" lon="4.64566">
        <ele>198.60000610352</ele>
        <time>2020-05-24T08:49:42Z</time>
      </trkpt>
      <trkpt lat="44.54382" lon="4.64565">
        <ele>198.80000305176</ele>
        <time>2020-05-24T08:49:43Z</time>
      </trkpt>
      <trkpt lat="44.54384" lon="4.64563">
        <ele>199.19999694824</ele>
        <time>2020-05-24T08:49:44Z</time>
      </trkpt>
      <trkpt lat="44.54386" lon="4.64562">
        <ele>199.39999389648</ele>
        <time>2020-05-24T08:49:45Z</time>
      </trkpt>
      <trkpt lat="44.54389" lon="4.6456">
        <ele>199.60000610352</ele>
        <time>2020-05-24T08:49:46Z</time>
      </trkpt>
      <trkpt lat="44.54391" lon="4.64559">
        <ele>200</ele>
        <time>2020-05-24T08:49:47Z</time>
      </trkpt>
      <trkpt lat="44.54393" lon="4.64557">
        <ele>200.19999694824</ele>
        <time>2020-05-24T08:49:48Z</time>
      </trkpt>
      <trkpt lat="44.54396" lon="4.64556">
        <ele>200.19999694824</ele>
        <time>2020-05-24T08:49:49Z</time>
      </trkpt>
      <trkpt lat="44.54398" lon="4.64555">
        <ele>200.60000610352</ele>
        <time>2020-05-24T08:49:50Z</time>
      </trkpt>
      <trkpt lat="44.54401" lon="4.64553">
        <ele>200.80000305176</ele>
        <time>2020-05-24T08:49:51Z</time>
      </trkpt>
      <trkpt lat="44.54403" lon="4.64552">
        <ele>201.19999694824</ele>
        <time>2020-05-24T08:49:52Z</time>
      </trkpt>
      <trkpt lat="44.54406" lon="4.64551">
        <ele>201.19999694824</ele>
        <time>2020-05-24T08:49:53Z</time>
      </trkpt>
      <trkpt lat="44.54408" lon="4.64549">
        <ele>201.39999389648</ele>
        <time>2020-05-24T08:49:54Z</time>
      </trkpt>
      <trkpt lat="44.54411" lon="4.64548">
        <ele>201.39999389648</ele>
        <time>2020-05-24T08:49:55Z</time>
      </trkpt>
      <trkpt lat="44.54413" lon="4.64546">
        <ele>201.80000305176</ele>
        <time>2020-05-24T08:49:56Z</time>
      </trkpt>
      <trkpt lat="44.54415" lon="4.64545">
        <ele>202.19999694824</ele>
        <time>2020-05-24T08:49:57Z</time>
      </trkpt>
      <trkpt lat="44.54417" lon="4.64543">
        <ele>202.39999389648</ele>
        <time>2020-05-24T08:49:58Z</time>
      </trkpt>
      <trkpt lat="44.54419" lon="4.64541">
        <ele>202.39999389648</ele>
        <time>2020-05-24T08:49:59Z</time>
      </trkpt>
      <trkpt lat="44.54421" lon="4.64539">
        <ele>202.80000305176</ele>
        <time>2020-05-24T08:50:00Z</time>
      </trkpt>
      <trkpt lat="44.54424" lon="4.64538">
        <ele>202.80000305176</ele>
        <time>2020-05-24T08:50:01Z</time>
      </trkpt>
      <trkpt lat="44.54426" lon="4.64536">
        <ele>202.80000305176</ele>
        <time>2020-05-24T08:50:02Z</time>
      </trkpt>
      <trkpt lat="44.54427" lon="4.64534">
        <ele>203</ele>
        <time>2020-05-24T08:50:03Z</time>
      </trkpt>
      <trkpt lat="44.54429" lon="4.64532">
        <ele>203.19999694824</ele>
        <time>2020-05-24T08:50:04Z</time>
      </trkpt>
      <trkpt lat="44.54431" lon="4.6453">
        <ele>203.60000610352</ele>
        <time>2020-05-24T08:50:05Z</time>
      </trkpt>
      <trkpt lat="44.54433" lon="4.64528">
        <ele>203.80000305176</ele>
        <time>2020-05-24T08:50:06Z</time>
      </trkpt>
      <trkpt lat="44.54435" lon="4.64526">
        <ele>203.80000305176</ele>
        <time>2020-05-24T08:50:07Z</time>
      </trkpt>
      <trkpt lat="44.54438" lon="4.64524">
        <ele>204.19999694824</ele>
        <time>2020-05-24T08:50:08Z</time>
      </trkpt>
      <trkpt lat="44.5444" lon="4.64522">
        <ele>204.39999389648</ele>
        <time>2020-05-24T08:50:09Z</time>
      </trkpt>
      <trkpt lat="44.54442" lon="4.6452">
        <ele>204.60000610352</ele>
        <time>2020-05-24T08:50:10Z</time>
      </trkpt>
      <trkpt lat="44.54444" lon="4.64519">
        <ele>204.80000305176</ele>
        <time>2020-05-24T08:50:11Z</time>
      </trkpt>
      <trkpt lat="44.54446" lon="4.64517">
        <ele>205.19999694824</ele>
        <time>2020-05-24T08:50:12Z</time>
      </trkpt>
      <trkpt lat="44.54448" lon="4.64515">
        <ele>205.80000305176</ele>
        <time>2020-05-24T08:50:13Z</time>
      </trkpt>
      <trkpt lat="44.5445" lon="4.64513">
        <ele>206.19999694824</ele>
        <time>2020-05-24T08:50:14Z</time>
      </trkpt>
      <trkpt lat="44.54452" lon="4.64511">
        <ele>206.60000610352</ele>
        <time>2020-05-24T08:50:15Z</time>
      </trkpt>
      <trkpt lat="44.54454" lon="4.64509">
        <ele>206.80000305176</ele>
        <time>2020-05-24T08:50:16Z</time>
      </trkpt>
      <trkpt lat="44.54456" lon="4.64507">
        <ele>207</ele>
        <time>2020-05-24T08:50:17Z</time>
      </trkpt>
      <trkpt lat="44.54459" lon="4.64505">
        <ele>207.39999389648</ele>
        <time>2020-05-24T08:50:18Z</time>
      </trkpt>
      <trkpt lat="44.54461" lon="4.64504">
        <ele>207.60000610352</ele>
        <time>2020-05-24T08:50:19Z</time>
      </trkpt>
      <trkpt lat="44.54464" lon="4.64502">
        <ele>207.80000305176</ele>
        <time>2020-05-24T08:50:20Z</time>
      </trkpt>
      <trkpt lat="44.54466" lon="4.645">
        <ele>208</ele>
        <time>2020-05-24T08:50:21Z</time>
      </trkpt>
      <trkpt lat="44.54468" lon="4.64499">
        <ele>208.19999694824</ele>
        <time>2020-05-24T08:50:22Z</time>
      </trkpt>
      <trkpt lat="44.5447" lon="4.64497">
        <ele>208.19999694824</ele>
        <time>2020-05-24T08:50:23Z</time>
      </trkpt>
      <trkpt lat="44.54472" lon="4.64496">
        <ele>208.60000610352</ele>
        <time>2020-05-24T08:50:24Z</time>
      </trkpt>
      <trkpt lat="44.54474" lon="4.64494">
        <ele>208.80000305176</ele>
        <time>2020-05-24T08:50:25Z</time>
      </trkpt>
      <trkpt lat="44.54476" lon="4.64492">
        <ele>209</ele>
        <time>2020-05-24T08:50:26Z</time>
      </trkpt>
      <trkpt lat="44.54478" lon="4.6449">
        <ele>209.19999694824</ele>
        <time>2020-05-24T08:50:27Z</time>
      </trkpt>
      <trkpt lat="44.5448" lon="4.64488">
        <ele>209.60000610352</ele>
        <time>2020-05-24T08:50:28Z</time>
      </trkpt>
      <trkpt lat="44.54482" lon="4.64486">
        <ele>210</ele>
        <time>2020-05-24T08:50:29Z</time>
      </trkpt>
      <trkpt lat="44.54483" lon="4.64484">
        <ele>210.19999694824</ele>
        <time>2020-05-24T08:50:30Z</time>
      </trkpt>
      <trkpt lat="44.54485" lon="4.64482">
        <ele>210.60000610352</ele>
        <time>2020-05-24T08:50:31Z</time>
      </trkpt>
      <trkpt lat="44.54486" lon="4.64479">
        <ele>211</ele>
        <time>2020-05-24T08:50:32Z</time>
      </trkpt>
      <trkpt lat="44.54487" lon="4.64477">
        <ele>211.39999389648</ele>
        <time>2020-05-24T08:50:33Z</time>
      </trkpt>
      <trkpt lat="44.54489" lon="4.64475">
        <ele>211.80000305176</ele>
        <time>2020-05-24T08:50:34Z</time>
      </trkpt>
      <trkpt lat="44.5449" lon="4.64473">
        <ele>212.19999694824</ele>
        <time>2020-05-24T08:50:35Z</time>
      </trkpt>
      <trkpt lat="44.54492" lon="4.64471">
        <ele>212.80000305176</ele>
        <time>2020-05-24T08:50:36Z</time>
      </trkpt>
      <trkpt lat="44.54493" lon="4.64469">
        <ele>212.80000305176</ele>
        <time>2020-05-24T08:50:37Z</time>
      </trkpt>
      <trkpt lat="44.54495" lon="4.64467">
        <ele>213.19999694824</ele>
        <time>2020-05-24T08:50:38Z</time>
      </trkpt>
      <trkpt lat="44.54496" lon="4.64466">
        <ele>213.39999389648</ele>
        <time>2020-05-24T08:50:39Z</time>
      </trkpt>
      <trkpt lat="44.54497" lon="4.64464">
        <ele>213.80000305176</ele>
        <time>2020-05-24T08:50:40Z</time>
      </trkpt>
      <trkpt lat="44.54499" lon="4.64463">
        <ele>214</ele>
        <time>2020-05-24T08:50:41Z</time>
      </trkpt>
      <trkpt lat="44.545" lon="4.64462">
        <ele>214.19999694824</ele>
        <time>2020-05-24T08:50:42Z</time>
      </trkpt>
      <trkpt lat="44.54501" lon="4.64461">
        <ele>214.39999389648</ele>
        <time>2020-05-24T08:50:43Z</time>
      </trkpt>
      <trkpt lat="44.54502" lon="4.64459">
        <ele>215</ele>
        <time>2020-05-24T08:50:44Z</time>
      </trkpt>
      <trkpt lat="44.54504" lon="4.64458">
        <ele>215</ele>
        <time>2020-05-24T08:50:45Z</time>
      </trkpt>
      <trkpt lat="44.54505" lon="4.64457">
        <ele>215.19999694824</ele>
        <time>2020-05-24T08:50:46Z</time>
      </trkpt>
      <trkpt lat="44.54507" lon="4.64455">
        <ele>215.39999389648</ele>
        <time>2020-05-24T08:50:47Z</time>
      </trkpt>
      <trkpt lat="44.54508" lon="4.64454">
        <ele>215.60000610352</ele>
        <time>2020-05-24T08:50:48Z</time>
      </trkpt>
      <trkpt lat="44.54509" lon="4.64453">
        <ele>215.80000305176</ele>
        <time>2020-05-24T08:50:49Z</time>
      </trkpt>
      <trkpt lat="44.54511" lon="4.64451">
        <ele>216</ele>
        <time>2020-05-24T08:50:50Z</time>
      </trkpt>
      <trkpt lat="44.54512" lon="4.6445">
        <ele>216.19999694824</ele>
        <time>2020-05-24T08:50:51Z</time>
      </trkpt>
      <trkpt lat="44.54514" lon="4.64449">
        <ele>216.39999389648</ele>
        <time>2020-05-24T08:50:52Z</time>
      </trkpt>
      <trkpt lat="44.54517" lon="4.64447">
        <ele>216.39999389648</ele>
        <time>2020-05-24T08:50:53Z</time>
      </trkpt>
      <trkpt lat="44.54519" lon="4.64446">
        <ele>216.80000305176</ele>
        <time>2020-05-24T08:50:54Z</time>
      </trkpt>
      <trkpt lat="44.5452" lon="4.64445">
        <ele>216.80000305176</ele>
        <time>2020-05-24T08:50:55Z</time>
      </trkpt>
      <trkpt lat="44.54522" lon="4.64443">
        <ele>217.19999694824</ele>
        <time>2020-05-24T08:50:56Z</time>
      </trkpt>
      <trkpt lat="44.54524" lon="4.64442">
        <ele>217.39999389648</ele>
        <time>2020-05-24T08:50:57Z</time>
      </trkpt>
      <trkpt lat="44.54526" lon="4.6444">
        <ele>217.60000610352</ele>
        <time>2020-05-24T08:50:58Z</time>
      </trkpt>
      <trkpt lat="44.54528" lon="4.64439">
        <ele>218</ele>
        <time>2020-05-24T08:50:59Z</time>
      </trkpt>
      <trkpt lat="44.5453" lon="4.64437">
        <ele>218.39999389648</ele>
        <time>2020-05-24T08:51:00Z</time>
      </trkpt>
      <trkpt lat="44.54532" lon="4.64436">
        <ele>218.60000610352</ele>
        <time>2020-05-24T08:51:01Z</time>
      </trkpt>
      <trkpt lat="44.54533" lon="4.64434">
        <ele>219.19999694824</ele>
        <time>2020-05-24T08:51:02Z</time>
      </trkpt>
      <trkpt lat="44.54535" lon="4.64433">
        <ele>219.19999694824</ele>
        <time>2020-05-24T08:51:03Z</time>
      </trkpt>
      <trkpt lat="44.54537" lon="4.64432">
        <ele>219.60000610352</ele>
        <time>2020-05-24T08:51:04Z</time>
      </trkpt>
      <trkpt lat="44.54539" lon="4.64431">
        <ele>219.80000305176</ele>
        <time>2020-05-24T08:51:05Z</time>
      </trkpt>
      <trkpt lat="44.5454" lon="4.6443">
        <ele>219.80000305176</ele>
        <time>2020-05-24T08:51:06Z</time>
      </trkpt>
      <trkpt lat="44.54542" lon="4.64428">
        <ele>220</ele>
        <time>2020-05-24T08:51:07Z</time>
      </trkpt>
      <trkpt lat="44.54544" lon="4.64427">
        <ele>220.19999694824</ele>
        <time>2020-05-24T08:51:08Z</time>
      </trkpt>
      <trkpt lat="44.54546" lon="4.64426">
        <ele>220.39999389648</ele>
        <time>2020-05-24T08:51:09Z</time>
      </trkpt>
      <trkpt lat="44.54547" lon="4.64425">
        <ele>220.80000305176</ele>
        <time>2020-05-24T08:51:10Z</time>
      </trkpt>
      <trkpt lat="44.54549" lon="4.64424">
        <ele>221</ele>
        <time>2020-05-24T08:51:11Z</time>
      </trkpt>
      <trkpt lat="44.54551" lon="4.64423">
        <ele>221.39999389648</ele>
        <time>2020-05-24T08:51:12Z</time>
      </trkpt>
      <trkpt lat="44.54553" lon="4.64423">
        <ele>221.39999389648</ele>
        <time>2020-05-24T08:51:13Z</time>
      </trkpt>
      <trkpt lat="44.54554" lon="4.64421">
        <ele>221.80000305176</ele>
        <time>2020-05-24T08:51:14Z</time>
      </trkpt>
      <trkpt lat="44.54556" lon="4.6442">
        <ele>222</ele>
        <time>2020-05-24T08:51:15Z</time>
      </trkpt>
      <trkpt lat="44.54557" lon="4.64419">
        <ele>222.19999694824</ele>
        <time>2020-05-24T08:51:16Z</time>
      </trkpt>
      <trkpt lat="44.54559" lon="4.64417">
        <ele>222.39999389648</ele>
        <time>2020-05-24T08:51:17Z</time>
      </trkpt>
      <trkpt lat="44.5456" lon="4.64416">
        <ele>222.39999389648</ele>
        <time>2020-05-24T08:51:18Z</time>
      </trkpt>
      <trkpt lat="44.54562" lon="4.64415">
        <ele>222.60000610352</ele>
        <time>2020-05-24T08:51:19Z</time>
      </trkpt>
      <trkpt lat="44.54563" lon="4.64414">
        <ele>222.60000610352</ele>
        <time>2020-05-24T08:51:20Z</time>
      </trkpt>
      <trkpt lat="44.54565" lon="4.64412">
        <ele>222.60000610352</ele>
        <time>2020-05-24T08:51:21Z</time>
      </trkpt>
      <trkpt lat="44.54567" lon="4.6441">
        <ele>222.80000305176</ele>
        <time>2020-05-24T08:51:22Z</time>
      </trkpt>
      <trkpt lat="44.54569" lon="4.64408">
        <ele>223</ele>
        <time>2020-05-24T08:51:23Z</time>
      </trkpt>
      <trkpt lat="44.54571" lon="4.64407">
        <ele>223</ele>
        <time>2020-05-24T08:51:24Z</time>
      </trkpt>
      <trkpt lat="44.54573" lon="4.64405">
        <ele>223.39999389648</ele>
        <time>2020-05-24T08:51:25Z</time>
      </trkpt>
      <trkpt lat="44.54574" lon="4.64403">
        <ele>223.60000610352</ele>
        <time>2020-05-24T08:51:26Z</time>
      </trkpt>
      <trkpt lat="44.54576" lon="4.64401">
        <ele>224</ele>
        <time>2020-05-24T08:51:27Z</time>
      </trkpt>
      <trkpt lat="44.54578" lon="4.64398">
        <ele>224</ele>
        <time>2020-05-24T08:51:28Z</time>
      </trkpt>
      <trkpt lat="44.54579" lon="4.64396">
        <ele>223.80000305176</ele>
        <time>2020-05-24T08:51:29Z</time>
      </trkpt>
      <trkpt lat="44.54581" lon="4.64394">
        <ele>224.19999694824</ele>
        <time>2020-05-24T08:51:30Z</time>
      </trkpt>
      <trkpt lat="44.54582" lon="4.64392">
        <ele>224.19999694824</ele>
        <time>2020-05-24T08:51:31Z</time>
      </trkpt>
      <trkpt lat="44.54584" lon="4.6439">
        <ele>224.19999694824</ele>
        <time>2020-05-24T08:51:32Z</time>
      </trkpt>
      <trkpt lat="44.54586" lon="4.64388">
        <ele>224.19999694824</ele>
        <time>2020-05-24T08:51:33Z</time>
      </trkpt>
      <trkpt lat="44.54587" lon="4.64385">
        <ele>224.39999389648</ele>
        <time>2020-05-24T08:51:34Z</time>
      </trkpt>
      <trkpt lat="44.54589" lon="4.64383">
        <ele>224.60000610352</ele>
        <time>2020-05-24T08:51:35Z</time>
      </trkpt>
      <trkpt lat="44.54591" lon="4.64381">
        <ele>224.80000305176</ele>
        <time>2020-05-24T08:51:36Z</time>
      </trkpt>
      <trkpt lat="44.54593" lon="4.64378">
        <ele>225</ele>
        <time>2020-05-24T08:51:37Z</time>
      </trkpt>
      <trkpt lat="44.54594" lon="4.64376">
        <ele>225.39999389648</ele>
        <time>2020-05-24T08:51:38Z</time>
      </trkpt>
      <trkpt lat="44.54596" lon="4.64374">
        <ele>225.60000610352</ele>
        <time>2020-05-24T08:51:39Z</time>
      </trkpt>
      <trkpt lat="44.54597" lon="4.64372">
        <ele>225.80000305176</ele>
        <time>2020-05-24T08:51:40Z</time>
      </trkpt>
      <trkpt lat="44.54599" lon="4.6437">
        <ele>226</ele>
        <time>2020-05-24T08:51:41Z</time>
      </trkpt>
      <trkpt lat="44.546" lon="4.64368">
        <ele>226.39999389648</ele>
        <time>2020-05-24T08:51:42Z</time>
      </trkpt>
      <trkpt lat="44.54602" lon="4.64367">
        <ele>226.80000305176</ele>
        <time>2020-05-24T08:51:43Z</time>
      </trkpt>
      <trkpt lat="44.54603" lon="4.64365">
        <ele>227</ele>
        <time>2020-05-24T08:51:44Z</time>
      </trkpt>
      <trkpt lat="44.54605" lon="4.64363">
        <ele>227.19999694824</ele>
        <time>2020-05-24T08:51:45Z</time>
      </trkpt>
      <trkpt lat="44.54607" lon="4.64361">
        <ele>227.60000610352</ele>
        <time>2020-05-24T08:51:46Z</time>
      </trkpt>
      <trkpt lat="44.54609" lon="4.64359">
        <ele>228.19999694824</ele>
        <time>2020-05-24T08:51:47Z</time>
      </trkpt>
      <trkpt lat="44.5461" lon="4.64358">
        <ele>228.19999694824</ele>
        <time>2020-05-24T08:51:48Z</time>
      </trkpt>
      <trkpt lat="44.54612" lon="4.64356">
        <ele>228.19999694824</ele>
        <time>2020-05-24T08:51:49Z</time>
      </trkpt>
      <trkpt lat="44.54615" lon="4.64354">
        <ele>228.60000610352</ele>
        <time>2020-05-24T08:51:50Z</time>
      </trkpt>
      <trkpt lat="44.54616" lon="4.64352">
        <ele>228.60000610352</ele>
        <time>2020-05-24T08:51:51Z</time>
      </trkpt>
      <trkpt lat="44.54618" lon="4.64351">
        <ele>228.80000305176</ele>
        <time>2020-05-24T08:51:52Z</time>
      </trkpt>
      <trkpt lat="44.5462" lon="4.64349">
        <ele>228.80000305176</ele>
        <time>2020-05-24T08:51:53Z</time>
      </trkpt>
      <trkpt lat="44.54625" lon="4.64342">
        <ele>229.39999389648</ele>
        <time>2020-05-24T08:51:56Z</time>
      </trkpt>
      <trkpt lat="44.54627" lon="4.6434">
        <ele>229.39999389648</ele>
        <time>2020-05-24T08:51:57Z</time>
      </trkpt>
      <trkpt lat="44.54633" lon="4.64333">
        <ele>229.60000610352</ele>
        <time>2020-05-24T08:52:00Z</time>
      </trkpt>
      <trkpt lat="44.54635" lon="4.6433">
        <ele>229.60000610352</ele>
        <time>2020-05-24T08:52:01Z</time>
      </trkpt>
      <trkpt lat="44.54637" lon="4.64328">
        <ele>229.80000305176</ele>
        <time>2020-05-24T08:52:02Z</time>
      </trkpt>
      <trkpt lat="44.54638" lon="4.64326">
        <ele>229.80000305176</ele>
        <time>2020-05-24T08:52:03Z</time>
      </trkpt>
      <trkpt lat="44.5464" lon="4.64323">
        <ele>229.80000305176</ele>
        <time>2020-05-24T08:52:04Z</time>
      </trkpt>
      <trkpt lat="44.54647" lon="4.64316">
        <ele>230</ele>
        <time>2020-05-24T08:52:07Z</time>
      </trkpt>
      <trkpt lat="44.5465" lon="4.64313">
        <ele>229.80000305176</ele>
        <time>2020-05-24T08:52:08Z</time>
      </trkpt>
      <trkpt lat="44.54654" lon="4.64308">
        <ele>229.80000305176</ele>
        <time>2020-05-24T08:52:10Z</time>
      </trkpt>
      <trkpt lat="44.54661" lon="4.64295">
        <ele>230</ele>
        <time>2020-05-24T08:52:14Z</time>
      </trkpt>
      <trkpt lat="44.54663" lon="4.64292">
        <ele>230</ele>
        <time>2020-05-24T08:52:15Z</time>
      </trkpt>
      <trkpt lat="44.54665" lon="4.64289">
        <ele>230.19999694824</ele>
        <time>2020-05-24T08:52:16Z</time>
      </trkpt>
      <trkpt lat="44.54666" lon="4.64286">
        <ele>230.19999694824</ele>
        <time>2020-05-24T08:52:17Z</time>
      </trkpt>
      <trkpt lat="44.54668" lon="4.64283">
        <ele>230.39999389648</ele>
        <time>2020-05-24T08:52:18Z</time>
      </trkpt>
      <trkpt lat="44.54669" lon="4.6428">
        <ele>230.39999389648</ele>
        <time>2020-05-24T08:52:19Z</time>
      </trkpt>
      <trkpt lat="44.54671" lon="4.64277">
        <ele>230.39999389648</ele>
        <time>2020-05-24T08:52:20Z</time>
      </trkpt>
      <trkpt lat="44.54672" lon="4.64274">
        <ele>230.60000610352</ele>
        <time>2020-05-24T08:52:21Z</time>
      </trkpt>
      <trkpt lat="44.54673" lon="4.64271">
        <ele>230.39999389648</ele>
        <time>2020-05-24T08:52:22Z</time>
      </trkpt>
      <trkpt lat="44.54681" lon="4.64258">
        <ele>230.60000610352</ele>
        <time>2020-05-24T08:52:26Z</time>
      </trkpt>
      <trkpt lat="44.54685" lon="4.64251">
        <ele>230.60000610352</ele>
        <time>2020-05-24T08:52:28Z</time>
      </trkpt>
      <trkpt lat="44.54687" lon="4.64247">
        <ele>230.80000305176</ele>
        <time>2020-05-24T08:52:29Z</time>
      </trkpt>
      <trkpt lat="44.5469" lon="4.64244">
        <ele>230.60000610352</ele>
        <time>2020-05-24T08:52:30Z</time>
      </trkpt>
      <trkpt lat="44.54693" lon="4.6424">
        <ele>230.60000610352</ele>
        <time>2020-05-24T08:52:31Z</time>
      </trkpt>
      <trkpt lat="44.54696" lon="4.64237">
        <ele>230.60000610352</ele>
        <time>2020-05-24T08:52:32Z</time>
      </trkpt>
      <trkpt lat="44.54698" lon="4.64234">
        <ele>230.60000610352</ele>
        <time>2020-05-24T08:52:33Z</time>
      </trkpt>
      <trkpt lat="44.54701" lon="4.6423">
        <ele>230.60000610352</ele>
        <time>2020-05-24T08:52:34Z</time>
      </trkpt>
      <trkpt lat="44.54703" lon="4.64227">
        <ele>230.80000305176</ele>
        <time>2020-05-24T08:52:35Z</time>
      </trkpt>
      <trkpt lat="44.54706" lon="4.64223">
        <ele>230.80000305176</ele>
        <time>2020-05-24T08:52:36Z</time>
      </trkpt>
      <trkpt lat="44.54719" lon="4.64207">
        <ele>231</ele>
        <time>2020-05-24T08:52:41Z</time>
      </trkpt>
      <trkpt lat="44.54722" lon="4.64204">
        <ele>231.19999694824</ele>
        <time>2020-05-24T08:52:42Z</time>
      </trkpt>
      <trkpt lat="44.54724" lon="4.64201">
        <ele>231.19999694824</ele>
        <time>2020-05-24T08:52:43Z</time>
      </trkpt>
      <trkpt lat="44.54726" lon="4.64197">
        <ele>231.39999389648</ele>
        <time>2020-05-24T08:52:44Z</time>
      </trkpt>
      <trkpt lat="44.54728" lon="4.64194">
        <ele>231.19999694824</ele>
        <time>2020-05-24T08:52:45Z</time>
      </trkpt>
      <trkpt lat="44.5473" lon="4.64191">
        <ele>231.39999389648</ele>
        <time>2020-05-24T08:52:46Z</time>
      </trkpt>
      <trkpt lat="44.54731" lon="4.64189">
        <ele>231.60000610352</ele>
        <time>2020-05-24T08:52:47Z</time>
      </trkpt>
      <trkpt lat="44.54733" lon="4.64186">
        <ele>231.60000610352</ele>
        <time>2020-05-24T08:52:48Z</time>
      </trkpt>
      <trkpt lat="44.54734" lon="4.64183">
        <ele>231.60000610352</ele>
        <time>2020-05-24T08:52:49Z</time>
      </trkpt>
      <trkpt lat="44.54736" lon="4.64181">
        <ele>231.80000305176</ele>
        <time>2020-05-24T08:52:50Z</time>
      </trkpt>
      <trkpt lat="44.54738" lon="4.64178">
        <ele>231.80000305176</ele>
        <time>2020-05-24T08:52:51Z</time>
      </trkpt>
      <trkpt lat="44.54739" lon="4.64175">
        <ele>231.80000305176</ele>
        <time>2020-05-24T08:52:52Z</time>
      </trkpt>
      <trkpt lat="44.54741" lon="4.64172">
        <ele>231.80000305176</ele>
        <time>2020-05-24T08:52:53Z</time>
      </trkpt>
      <trkpt lat="44.54742" lon="4.64169">
        <ele>231.80000305176</ele>
        <time>2020-05-24T08:52:54Z</time>
      </trkpt>
      <trkpt lat="44.54743" lon="4.64166">
        <ele>232</ele>
        <time>2020-05-24T08:52:55Z</time>
      </trkpt>
      <trkpt lat="44.54744" lon="4.64163">
        <ele>232</ele>
        <time>2020-05-24T08:52:56Z</time>
      </trkpt>
      <trkpt lat="44.54744" lon="4.6416">
        <ele>232</ele>
        <time>2020-05-24T08:52:57Z</time>
      </trkpt>
      <trkpt lat="44.54745" lon="4.64156">
        <ele>232.19999694824</ele>
        <time>2020-05-24T08:52:58Z</time>
      </trkpt>
      <trkpt lat="44.54745" lon="4.64153">
        <ele>232.19999694824</ele>
        <time>2020-05-24T08:52:59Z</time>
      </trkpt>
      <trkpt lat="44.54745" lon="4.64149">
        <ele>232.19999694824</ele>
        <time>2020-05-24T08:53:00Z</time>
      </trkpt>
      <trkpt lat="44.54747" lon="4.64146">
        <ele>232.19999694824</ele>
        <time>2020-05-24T08:53:01Z</time>
      </trkpt>
      <trkpt lat="44.54749" lon="4.64144">
        <ele>232.39999389648</ele>
        <time>2020-05-24T08:53:02Z</time>
      </trkpt>
      <trkpt lat="44.5475" lon="4.64143">
        <ele>232.39999389648</ele>
        <time>2020-05-24T08:53:03Z</time>
      </trkpt>
      <trkpt lat="44.54753" lon="4.64141">
        <ele>232.39999389648</ele>
        <time>2020-05-24T08:53:04Z</time>
      </trkpt>
      <trkpt lat="44.54755" lon="4.64139">
        <ele>232.60000610352</ele>
        <time>2020-05-24T08:53:05Z</time>
      </trkpt>
      <trkpt lat="44.54757" lon="4.64137">
        <ele>232.60000610352</ele>
        <time>2020-05-24T08:53:06Z</time>
      </trkpt>
      <trkpt lat="44.5476" lon="4.64135">
        <ele>232.80000305176</ele>
        <time>2020-05-24T08:53:07Z</time>
      </trkpt>
      <trkpt lat="44.54762" lon="4.64132">
        <ele>233</ele>
        <time>2020-05-24T08:53:08Z</time>
      </trkpt>
      <trkpt lat="44.54763" lon="4.64129">
        <ele>233</ele>
        <time>2020-05-24T08:53:09Z</time>
      </trkpt>
      <trkpt lat="44.54765" lon="4.64126">
        <ele>233</ele>
        <time>2020-05-24T08:53:10Z</time>
      </trkpt>
      <trkpt lat="44.54767" lon="4.64122">
        <ele>233.19999694824</ele>
        <time>2020-05-24T08:53:11Z</time>
      </trkpt>
      <trkpt lat="44.54768" lon="4.64118">
        <ele>233.39999389648</ele>
        <time>2020-05-24T08:53:12Z</time>
      </trkpt>
      <trkpt lat="44.54769" lon="4.64115">
        <ele>233.39999389648</ele>
        <time>2020-05-24T08:53:13Z</time>
      </trkpt>
      <trkpt lat="44.5477" lon="4.64112">
        <ele>233.39999389648</ele>
        <time>2020-05-24T08:53:14Z</time>
      </trkpt>
      <trkpt lat="44.54771" lon="4.6411">
        <ele>233.39999389648</ele>
        <time>2020-05-24T08:53:15Z</time>
      </trkpt>
      <trkpt lat="44.54772" lon="4.64107">
        <ele>233.39999389648</ele>
        <time>2020-05-24T08:53:16Z</time>
      </trkpt>
      <trkpt lat="44.54773" lon="4.64104">
        <ele>233.60000610352</ele>
        <time>2020-05-24T08:53:17Z</time>
      </trkpt>
      <trkpt lat="44.54774" lon="4.64101">
        <ele>233.60000610352</ele>
        <time>2020-05-24T08:53:18Z</time>
      </trkpt>
      <trkpt lat="44.54775" lon="4.64098">
        <ele>233.60000610352</ele>
        <time>2020-05-24T08:53:19Z</time>
      </trkpt>
      <trkpt lat="44.54777" lon="4.64096">
        <ele>233.80000305176</ele>
        <time>2020-05-24T08:53:20Z</time>
      </trkpt>
      <trkpt lat="44.54778" lon="4.64093">
        <ele>234.19999694824</ele>
        <time>2020-05-24T08:53:21Z</time>
      </trkpt>
      <trkpt lat="44.5478" lon="4.6409">
        <ele>234.39999389648</ele>
        <time>2020-05-24T08:53:22Z</time>
      </trkpt>
      <trkpt lat="44.54781" lon="4.64086">
        <ele>234.60000610352</ele>
        <time>2020-05-24T08:53:23Z</time>
      </trkpt>
      <trkpt lat="44.54782" lon="4.64083">
        <ele>234.80000305176</ele>
        <time>2020-05-24T08:53:24Z</time>
      </trkpt>
      <trkpt lat="44.54783" lon="4.6408">
        <ele>235</ele>
        <time>2020-05-24T08:53:25Z</time>
      </trkpt>
      <trkpt lat="44.54785" lon="4.64077">
        <ele>235.19999694824</ele>
        <time>2020-05-24T08:53:26Z</time>
      </trkpt>
      <trkpt lat="44.54786" lon="4.64075">
        <ele>235.19999694824</ele>
        <time>2020-05-24T08:53:27Z</time>
      </trkpt>
      <trkpt lat="44.54787" lon="4.64073">
        <ele>235.39999389648</ele>
        <time>2020-05-24T08:53:28Z</time>
      </trkpt>
      <trkpt lat="44.54788" lon="4.6407">
        <ele>235.60000610352</ele>
        <time>2020-05-24T08:53:29Z</time>
      </trkpt>
      <trkpt lat="44.54791" lon="4.64066">
        <ele>235.60000610352</ele>
        <time>2020-05-24T08:53:31Z</time>
      </trkpt>
      <trkpt lat="44.54792" lon="4.64064">
        <ele>235.60000610352</ele>
        <time>2020-05-24T08:53:32Z</time>
      </trkpt>
      <trkpt lat="44.54793" lon="4.64061">
        <ele>235.60000610352</ele>
        <time>2020-05-24T08:53:33Z</time>
      </trkpt>
      <trkpt lat="44.54795" lon="4.64059">
        <ele>235.60000610352</ele>
        <time>2020-05-24T08:53:34Z</time>
      </trkpt>
      <trkpt lat="44.54796" lon="4.64057">
        <ele>235.60000610352</ele>
        <time>2020-05-24T08:53:35Z</time>
      </trkpt>
      <trkpt lat="44.54798" lon="4.64055">
        <ele>235.60000610352</ele>
        <time>2020-05-24T08:53:36Z</time>
      </trkpt>
      <trkpt lat="44.548" lon="4.64053">
        <ele>236</ele>
        <time>2020-05-24T08:53:37Z</time>
      </trkpt>
      <trkpt lat="44.54802" lon="4.64051">
        <ele>235.80000305176</ele>
        <time>2020-05-24T08:53:38Z</time>
      </trkpt>
      <trkpt lat="44.54803" lon="4.64049">
        <ele>236</ele>
        <time>2020-05-24T08:53:39Z</time>
      </trkpt>
      <trkpt lat="44.54804" lon="4.64047">
        <ele>236.19999694824</ele>
        <time>2020-05-24T08:53:40Z</time>
      </trkpt>
      <trkpt lat="44.54804" lon="4.64045">
        <ele>236.39999389648</ele>
        <time>2020-05-24T08:53:41Z</time>
      </trkpt>
      <trkpt lat="44.54805" lon="4.64043">
        <ele>236.39999389648</ele>
        <time>2020-05-24T08:53:42Z</time>
      </trkpt>
      <trkpt lat="44.54806" lon="4.64041">
        <ele>236.39999389648</ele>
        <time>2020-05-24T08:53:43Z</time>
      </trkpt>
      <trkpt lat="44.54806" lon="4.64039">
        <ele>236.60000610352</ele>
        <time>2020-05-24T08:53:44Z</time>
      </trkpt>
      <trkpt lat="44.54807" lon="4.64038">
        <ele>236.60000610352</ele>
        <time>2020-05-24T08:53:45Z</time>
      </trkpt>
      <trkpt lat="44.54807" lon="4.64036">
        <ele>236.80000305176</ele>
        <time>2020-05-24T08:53:46Z</time>
      </trkpt>
      <trkpt lat="44.54807" lon="4.64034">
        <ele>236.80000305176</ele>
        <time>2020-05-24T08:53:47Z</time>
      </trkpt>
      <trkpt lat="44.54808" lon="4.64032">
        <ele>236.80000305176</ele>
        <time>2020-05-24T08:53:48Z</time>
      </trkpt>
      <trkpt lat="44.54809" lon="4.64031">
        <ele>237</ele>
        <time>2020-05-24T08:53:49Z</time>
      </trkpt>
      <trkpt lat="44.5481" lon="4.6403">
        <ele>237</ele>
        <time>2020-05-24T08:53:50Z</time>
      </trkpt>
      <trkpt lat="44.54812" lon="4.64029">
        <ele>237.19999694824</ele>
        <time>2020-05-24T08:53:51Z</time>
      </trkpt>
      <trkpt lat="44.54814" lon="4.64028">
        <ele>237.39999389648</ele>
        <time>2020-05-24T08:53:52Z</time>
      </trkpt>
      <trkpt lat="44.54816" lon="4.64027">
        <ele>237.80000305176</ele>
        <time>2020-05-24T08:53:53Z</time>
      </trkpt>
      <trkpt lat="44.54817" lon="4.64026">
        <ele>238</ele>
        <time>2020-05-24T08:53:54Z</time>
      </trkpt>
      <trkpt lat="44.54819" lon="4.64025">
        <ele>238</ele>
        <time>2020-05-24T08:53:55Z</time>
      </trkpt>
      <trkpt lat="44.54821" lon="4.64024">
        <ele>238.39999389648</ele>
        <time>2020-05-24T08:53:56Z</time>
      </trkpt>
      <trkpt lat="44.54822" lon="4.64023">
        <ele>238.60000610352</ele>
        <time>2020-05-24T08:53:57Z</time>
      </trkpt>
      <trkpt lat="44.54824" lon="4.64022">
        <ele>238.60000610352</ele>
        <time>2020-05-24T08:53:58Z</time>
      </trkpt>
      <trkpt lat="44.54825" lon="4.6402">
        <ele>239</ele>
        <time>2020-05-24T08:53:59Z</time>
      </trkpt>
      <trkpt lat="44.54827" lon="4.64019">
        <ele>239.39999389648</ele>
        <time>2020-05-24T08:54:00Z</time>
      </trkpt>
      <trkpt lat="44.54828" lon="4.64018">
        <ele>239.80000305176</ele>
        <time>2020-05-24T08:54:01Z</time>
      </trkpt>
      <trkpt lat="44.54829" lon="4.64016">
        <ele>240</ele>
        <time>2020-05-24T08:54:02Z</time>
      </trkpt>
      <trkpt lat="44.54831" lon="4.64015">
        <ele>240.19999694824</ele>
        <time>2020-05-24T08:54:03Z</time>
      </trkpt>
      <trkpt lat="44.54832" lon="4.64014">
        <ele>240.60000610352</ele>
        <time>2020-05-24T08:54:04Z</time>
      </trkpt>
      <trkpt lat="44.54833" lon="4.64013">
        <ele>241.19999694824</ele>
        <time>2020-05-24T08:54:05Z</time>
      </trkpt>
      <trkpt lat="44.54834" lon="4.64012">
        <ele>241.80000305176</ele>
        <time>2020-05-24T08:54:06Z</time>
      </trkpt>
      <trkpt lat="44.54836" lon="4.64011">
        <ele>242.39999389648</ele>
        <time>2020-05-24T08:54:07Z</time>
      </trkpt>
      <trkpt lat="44.54837" lon="4.6401">
        <ele>242.60000610352</ele>
        <time>2020-05-24T08:54:08Z</time>
      </trkpt>
      <trkpt lat="44.54838" lon="4.64008">
        <ele>243</ele>
        <time>2020-05-24T08:54:09Z</time>
      </trkpt>
      <trkpt lat="44.54839" lon="4.64007">
        <ele>243.39999389648</ele>
        <time>2020-05-24T08:54:10Z</time>
      </trkpt>
      <trkpt lat="44.54839" lon="4.64006">
        <ele>243.80000305176</ele>
        <time>2020-05-24T08:54:11Z</time>
      </trkpt>
      <trkpt lat="44.5484" lon="4.64004">
        <ele>244</ele>
        <time>2020-05-24T08:54:12Z</time>
      </trkpt>
      <trkpt lat="44.54841" lon="4.64003">
        <ele>244.39999389648</ele>
        <time>2020-05-24T08:54:13Z</time>
      </trkpt>
      <trkpt lat="44.54842" lon="4.64001">
        <ele>244.60000610352</ele>
        <time>2020-05-24T08:54:14Z</time>
      </trkpt>
      <trkpt lat="44.54843" lon="4.64">
        <ele>244.60000610352</ele>
        <time>2020-05-24T08:54:15Z</time>
      </trkpt>
      <trkpt lat="44.54843" lon="4.63998">
        <ele>244.80000305176</ele>
        <time>2020-05-24T08:54:16Z</time>
      </trkpt>
      <trkpt lat="44.54844" lon="4.63997">
        <ele>245.19999694824</ele>
        <time>2020-05-24T08:54:17Z</time>
      </trkpt>
      <trkpt lat="44.54845" lon="4.63996">
        <ele>245.39999389648</ele>
        <time>2020-05-24T08:54:18Z</time>
      </trkpt>
      <trkpt lat="44.54846" lon="4.63994">
        <ele>245.39999389648</ele>
        <time>2020-05-24T08:54:19Z</time>
      </trkpt>
      <trkpt lat="44.54846" lon="4.63993">
        <ele>245.39999389648</ele>
        <time>2020-05-24T08:54:20Z</time>
      </trkpt>
      <trkpt lat="44.54847" lon="4.63992">
        <ele>245.80000305176</ele>
        <time>2020-05-24T08:54:21Z</time>
      </trkpt>
      <trkpt lat="44.54848" lon="4.63991">
        <ele>246</ele>
        <time>2020-05-24T08:54:22Z</time>
      </trkpt>
      <trkpt lat="44.54849" lon="4.6399">
        <ele>246.19999694824</ele>
        <time>2020-05-24T08:54:23Z</time>
      </trkpt>
      <trkpt lat="44.5485" lon="4.63989">
        <ele>246.60000610352</ele>
        <time>2020-05-24T08:54:24Z</time>
      </trkpt>
      <trkpt lat="44.54851" lon="4.63987">
        <ele>247</ele>
        <time>2020-05-24T08:54:25Z</time>
      </trkpt>
      <trkpt lat="44.54853" lon="4.63986">
        <ele>247.19999694824</ele>
        <time>2020-05-24T08:54:26Z</time>
      </trkpt>
      <trkpt lat="44.54854" lon="4.63985">
        <ele>247.60000610352</ele>
        <time>2020-05-24T08:54:27Z</time>
      </trkpt>
      <trkpt lat="44.54855" lon="4.63984">
        <ele>248</ele>
        <time>2020-05-24T08:54:28Z</time>
      </trkpt>
      <trkpt lat="44.54857" lon="4.63982">
        <ele>248.19999694824</ele>
        <time>2020-05-24T08:54:29Z</time>
      </trkpt>
      <trkpt lat="44.54858" lon="4.63981">
        <ele>248.19999694824</ele>
        <time>2020-05-24T08:54:30Z</time>
      </trkpt>
      <trkpt lat="44.5486" lon="4.6398">
        <ele>248.60000610352</ele>
        <time>2020-05-24T08:54:31Z</time>
      </trkpt>
      <trkpt lat="44.54861" lon="4.63978">
        <ele>248.60000610352</ele>
        <time>2020-05-24T08:54:32Z</time>
      </trkpt>
      <trkpt lat="44.54862" lon="4.63977">
        <ele>248.80000305176</ele>
        <time>2020-05-24T08:54:33Z</time>
      </trkpt>
      <trkpt lat="44.54864" lon="4.63976">
        <ele>249</ele>
        <time>2020-05-24T08:54:34Z</time>
      </trkpt>
      <trkpt lat="44.54865" lon="4.63974">
        <ele>249.19999694824</ele>
        <time>2020-05-24T08:54:35Z</time>
      </trkpt>
      <trkpt lat="44.54866" lon="4.63973">
        <ele>249.39999389648</ele>
        <time>2020-05-24T08:54:36Z</time>
      </trkpt>
      <trkpt lat="44.54867" lon="4.63972">
        <ele>249.60000610352</ele>
        <time>2020-05-24T08:54:37Z</time>
      </trkpt>
      <trkpt lat="44.54869" lon="4.63971">
        <ele>249.80000305176</ele>
        <time>2020-05-24T08:54:38Z</time>
      </trkpt>
      <trkpt lat="44.54871" lon="4.63971">
        <ele>250</ele>
        <time>2020-05-24T08:54:39Z</time>
      </trkpt>
      <trkpt lat="44.54873" lon="4.6397">
        <ele>250</ele>
        <time>2020-05-24T08:54:40Z</time>
      </trkpt>
      <trkpt lat="44.54874" lon="4.6397">
        <ele>250</ele>
        <time>2020-05-24T08:54:41Z</time>
      </trkpt>
      <trkpt lat="44.54876" lon="4.63969">
        <ele>250.19999694824</ele>
        <time>2020-05-24T08:54:42Z</time>
      </trkpt>
      <trkpt lat="44.54877" lon="4.63968">
        <ele>250.39999389648</ele>
        <time>2020-05-24T08:54:43Z</time>
      </trkpt>
      <trkpt lat="44.54878" lon="4.63967">
        <ele>250.39999389648</ele>
        <time>2020-05-24T08:54:44Z</time>
      </trkpt>
      <trkpt lat="44.5488" lon="4.63967">
        <ele>250.39999389648</ele>
        <time>2020-05-24T08:54:45Z</time>
      </trkpt>
      <trkpt lat="44.54881" lon="4.63966">
        <ele>250.39999389648</ele>
        <time>2020-05-24T08:54:46Z</time>
      </trkpt>
      <trkpt lat="44.54882" lon="4.63965">
        <ele>250.60000610352</ele>
        <time>2020-05-24T08:54:47Z</time>
      </trkpt>
      <trkpt lat="44.54883" lon="4.63964">
        <ele>250.60000610352</ele>
        <time>2020-05-24T08:54:48Z</time>
      </trkpt>
      <trkpt lat="44.54884" lon="4.63963">
        <ele>250.80000305176</ele>
        <time>2020-05-24T08:54:49Z</time>
      </trkpt>
      <trkpt lat="44.54885" lon="4.63962">
        <ele>250.80000305176</ele>
        <time>2020-05-24T08:54:50Z</time>
      </trkpt>
      <trkpt lat="44.54886" lon="4.63961">
        <ele>250.80000305176</ele>
        <time>2020-05-24T08:54:51Z</time>
      </trkpt>
      <trkpt lat="44.54888" lon="4.6396">
        <ele>250.80000305176</ele>
        <time>2020-05-24T08:54:52Z</time>
      </trkpt>
      <trkpt lat="44.54889" lon="4.63959">
        <ele>251</ele>
        <time>2020-05-24T08:54:53Z</time>
      </trkpt>
      <trkpt lat="44.5489" lon="4.63958">
        <ele>251</ele>
        <time>2020-05-24T08:54:54Z</time>
      </trkpt>
      <trkpt lat="44.54891" lon="4.63957">
        <ele>251.19999694824</ele>
        <time>2020-05-24T08:54:55Z</time>
      </trkpt>
      <trkpt lat="44.54892" lon="4.63956">
        <ele>251.19999694824</ele>
        <time>2020-05-24T08:54:56Z</time>
      </trkpt>
      <trkpt lat="44.54893" lon="4.63954">
        <ele>251.39999389648</ele>
        <time>2020-05-24T08:54:57Z</time>
      </trkpt>
      <trkpt lat="44.54894" lon="4.63953">
        <ele>251.60000610352</ele>
        <time>2020-05-24T08:54:58Z</time>
      </trkpt>
      <trkpt lat="44.54896" lon="4.63952">
        <ele>252</ele>
        <time>2020-05-24T08:54:59Z</time>
      </trkpt>
      <trkpt lat="44.54897" lon="4.63951">
        <ele>252.19999694824</ele>
        <time>2020-05-24T08:55:00Z</time>
      </trkpt>
      <trkpt lat="44.54898" lon="4.6395">
        <ele>252.19999694824</ele>
        <time>2020-05-24T08:55:01Z</time>
      </trkpt>
      <trkpt lat="44.549" lon="4.63948">
        <ele>252.19999694824</ele>
        <time>2020-05-24T08:55:02Z</time>
      </trkpt>
      <trkpt lat="44.54901" lon="4.63947">
        <ele>252.60000610352</ele>
        <time>2020-05-24T08:55:03Z</time>
      </trkpt>
      <trkpt lat="44.54902" lon="4.63945">
        <ele>252.80000305176</ele>
        <time>2020-05-24T08:55:04Z</time>
      </trkpt>
      <trkpt lat="44.54903" lon="4.63943">
        <ele>253.19999694824</ele>
        <time>2020-05-24T08:55:05Z</time>
      </trkpt>
      <trkpt lat="44.54904" lon="4.63942">
        <ele>253.60000610352</ele>
        <time>2020-05-24T08:55:06Z</time>
      </trkpt>
      <trkpt lat="44.54905" lon="4.63942">
        <ele>253.60000610352</ele>
        <time>2020-05-24T08:55:07Z</time>
      </trkpt>
      <trkpt lat="44.54906" lon="4.63941">
        <ele>253.80000305176</ele>
        <time>2020-05-24T08:55:08Z</time>
      </trkpt>
      <trkpt lat="44.54907" lon="4.6394">
        <ele>254</ele>
        <time>2020-05-24T08:55:09Z</time>
      </trkpt>
      <trkpt lat="44.54909" lon="4.6394">
        <ele>254</ele>
        <time>2020-05-24T08:55:10Z</time>
      </trkpt>
      <trkpt lat="44.5491" lon="4.6394">
        <ele>254.19999694824</ele>
        <time>2020-05-24T08:55:11Z</time>
      </trkpt>
      <trkpt lat="44.54912" lon="4.6394">
        <ele>254.39999389648</ele>
        <time>2020-05-24T08:55:12Z</time>
      </trkpt>
      <trkpt lat="44.54913" lon="4.6394">
        <ele>254.60000610352</ele>
        <time>2020-05-24T08:55:13Z</time>
      </trkpt>
      <trkpt lat="44.54915" lon="4.6394">
        <ele>254.60000610352</ele>
        <time>2020-05-24T08:55:14Z</time>
      </trkpt>
      <trkpt lat="44.54916" lon="4.6394">
        <ele>254.80000305176</ele>
        <time>2020-05-24T08:55:15Z</time>
      </trkpt>
      <trkpt lat="44.54917" lon="4.63939">
        <ele>254.80000305176</ele>
        <time>2020-05-24T08:55:16Z</time>
      </trkpt>
      <trkpt lat="44.54918" lon="4.63938">
        <ele>254.80000305176</ele>
        <time>2020-05-24T08:55:17Z</time>
      </trkpt>
      <trkpt lat="44.54919" lon="4.63937">
        <ele>254.80000305176</ele>
        <time>2020-05-24T08:55:18Z</time>
      </trkpt>
      <trkpt lat="44.5492" lon="4.63935">
        <ele>255</ele>
        <time>2020-05-24T08:55:19Z</time>
      </trkpt>
      <trkpt lat="44.54921" lon="4.63934">
        <ele>255.19999694824</ele>
        <time>2020-05-24T08:55:20Z</time>
      </trkpt>
      <trkpt lat="44.54923" lon="4.63933">
        <ele>255.19999694824</ele>
        <time>2020-05-24T08:55:21Z</time>
      </trkpt>
      <trkpt lat="44.54924" lon="4.63932">
        <ele>255.39999389648</ele>
        <time>2020-05-24T08:55:22Z</time>
      </trkpt>
      <trkpt lat="44.54925" lon="4.63931">
        <ele>255.39999389648</ele>
        <time>2020-05-24T08:55:23Z</time>
      </trkpt>
      <trkpt lat="44.54926" lon="4.6393">
        <ele>255.80000305176</ele>
        <time>2020-05-24T08:55:24Z</time>
      </trkpt>
      <trkpt lat="44.54928" lon="4.63929">
        <ele>255.80000305176</ele>
        <time>2020-05-24T08:55:25Z</time>
      </trkpt>
      <trkpt lat="44.54929" lon="4.63927">
        <ele>256</ele>
        <time>2020-05-24T08:55:26Z</time>
      </trkpt>
      <trkpt lat="44.5493" lon="4.63926">
        <ele>256.20001220703</ele>
        <time>2020-05-24T08:55:27Z</time>
      </trkpt>
      <trkpt lat="44.54931" lon="4.63925">
        <ele>256.60000610352</ele>
        <time>2020-05-24T08:55:28Z</time>
      </trkpt>
      <trkpt lat="44.54932" lon="4.63924">
        <ele>256.60000610352</ele>
        <time>2020-05-24T08:55:29Z</time>
      </trkpt>
      <trkpt lat="44.54933" lon="4.63923">
        <ele>256.79998779297</ele>
        <time>2020-05-24T08:55:30Z</time>
      </trkpt>
      <trkpt lat="44.54935" lon="4.63922">
        <ele>257</ele>
        <time>2020-05-24T08:55:31Z</time>
      </trkpt>
      <trkpt lat="44.54936" lon="4.6392">
        <ele>257.39999389648</ele>
        <time>2020-05-24T08:55:32Z</time>
      </trkpt>
      <trkpt lat="44.54937" lon="4.63919">
        <ele>257.60000610352</ele>
        <time>2020-05-24T08:55:33Z</time>
      </trkpt>
      <trkpt lat="44.54938" lon="4.63918">
        <ele>258</ele>
        <time>2020-05-24T08:55:34Z</time>
      </trkpt>
      <trkpt lat="44.54939" lon="4.63917">
        <ele>258</ele>
        <time>2020-05-24T08:55:35Z</time>
      </trkpt>
      <trkpt lat="44.5494" lon="4.63916">
        <ele>258.20001220703</ele>
        <time>2020-05-24T08:55:36Z</time>
      </trkpt>
      <trkpt lat="44.54941" lon="4.63915">
        <ele>258.39999389648</ele>
        <time>2020-05-24T08:55:37Z</time>
      </trkpt>
      <trkpt lat="44.54942" lon="4.63914">
        <ele>258.79998779297</ele>
        <time>2020-05-24T08:55:38Z</time>
      </trkpt>
      <trkpt lat="44.54943" lon="4.63913">
        <ele>259</ele>
        <time>2020-05-24T08:55:39Z</time>
      </trkpt>
      <trkpt lat="44.54944" lon="4.63912">
        <ele>259.20001220703</ele>
        <time>2020-05-24T08:55:40Z</time>
      </trkpt>
      <trkpt lat="44.54946" lon="4.6391">
        <ele>259.60000610352</ele>
        <time>2020-05-24T08:55:41Z</time>
      </trkpt>
      <trkpt lat="44.54947" lon="4.63909">
        <ele>259.79998779297</ele>
        <time>2020-05-24T08:55:42Z</time>
      </trkpt>
      <trkpt lat="44.54948" lon="4.63908">
        <ele>260</ele>
        <time>2020-05-24T08:55:43Z</time>
      </trkpt>
      <trkpt lat="44.54949" lon="4.63907">
        <ele>260.39999389648</ele>
        <time>2020-05-24T08:55:44Z</time>
      </trkpt>
      <trkpt lat="44.5495" lon="4.63906">
        <ele>260.39999389648</ele>
        <time>2020-05-24T08:55:45Z</time>
      </trkpt>
      <trkpt lat="44.54951" lon="4.63905">
        <ele>260.60000610352</ele>
        <time>2020-05-24T08:55:46Z</time>
      </trkpt>
      <trkpt lat="44.54952" lon="4.63904">
        <ele>260.79998779297</ele>
        <time>2020-05-24T08:55:47Z</time>
      </trkpt>
      <trkpt lat="44.54953" lon="4.63903">
        <ele>261.20001220703</ele>
        <time>2020-05-24T08:55:48Z</time>
      </trkpt>
      <trkpt lat="44.54954" lon="4.63902">
        <ele>261.20001220703</ele>
        <time>2020-05-24T08:55:49Z</time>
      </trkpt>
      <trkpt lat="44.54955" lon="4.63901">
        <ele>261.60000610352</ele>
        <time>2020-05-24T08:55:50Z</time>
      </trkpt>
      <trkpt lat="44.54956" lon="4.639">
        <ele>262</ele>
        <time>2020-05-24T08:55:51Z</time>
      </trkpt>
      <trkpt lat="44.54957" lon="4.63899">
        <ele>262.20001220703</ele>
        <time>2020-05-24T08:55:52Z</time>
      </trkpt>
      <trkpt lat="44.54958" lon="4.63897">
        <ele>262.60000610352</ele>
        <time>2020-05-24T08:55:53Z</time>
      </trkpt>
      <trkpt lat="44.54959" lon="4.63896">
        <ele>262.79998779297</ele>
        <time>2020-05-24T08:55:54Z</time>
      </trkpt>
      <trkpt lat="44.5496" lon="4.63895">
        <ele>263</ele>
        <time>2020-05-24T08:55:55Z</time>
      </trkpt>
      <trkpt lat="44.54961" lon="4.63894">
        <ele>263.39999389648</ele>
        <time>2020-05-24T08:55:57Z</time>
      </trkpt>
      <trkpt lat="44.54961" lon="4.63894">
        <ele>267.20001220703</ele>
        <time>2020-05-24T08:56:11Z</time>
      </trkpt>
      <trkpt lat="44.5496" lon="4.63894">
        <ele>267.20001220703</ele>
        <time>2020-05-24T08:56:15Z</time>
      </trkpt>
      <trkpt lat="44.54961" lon="4.63894">
        <ele>267</ele>
        <time>2020-05-24T08:56:16Z</time>
      </trkpt>
      <trkpt lat="44.54961" lon="4.63893">
        <ele>267</ele>
        <time>2020-05-24T08:56:17Z</time>
      </trkpt>
      <trkpt lat="44.54962" lon="4.63893">
        <ele>267.20001220703</ele>
        <time>2020-05-24T08:56:18Z</time>
      </trkpt>
      <trkpt lat="44.54962" lon="4.63893">
        <ele>267.20001220703</ele>
        <time>2020-05-24T08:56:19Z</time>
      </trkpt>
      <trkpt lat="44.54963" lon="4.63892">
        <ele>267.20001220703</ele>
        <time>2020-05-24T08:56:20Z</time>
      </trkpt>
      <trkpt lat="44.54963" lon="4.63892">
        <ele>267.60000610352</ele>
        <time>2020-05-24T08:56:27Z</time>
      </trkpt>
      <trkpt lat="44.54963" lon="4.63891">
        <ele>268</ele>
        <time>2020-05-24T08:56:33Z</time>
      </trkpt>
      <trkpt lat="44.54964" lon="4.6389">
        <ele>268.20001220703</ele>
        <time>2020-05-24T08:56:34Z</time>
      </trkpt>
      <trkpt lat="44.54964" lon="4.6389">
        <ele>268.20001220703</ele>
        <time>2020-05-24T08:56:37Z</time>
      </trkpt>
      <trkpt lat="44.54964" lon="4.63889">
        <ele>268.20001220703</ele>
        <time>2020-05-24T08:56:44Z</time>
      </trkpt>
      <trkpt lat="44.54965" lon="4.63888">
        <ele>268.20001220703</ele>
        <time>2020-05-24T08:56:45Z</time>
      </trkpt>
      <trkpt lat="44.54966" lon="4.63886">
        <ele>268.20001220703</ele>
        <time>2020-05-24T08:56:46Z</time>
      </trkpt>
      <trkpt lat="44.54968" lon="4.63885">
        <ele>268.39999389648</ele>
        <time>2020-05-24T08:56:47Z</time>
      </trkpt>
      <trkpt lat="44.54969" lon="4.63882">
        <ele>268.39999389648</ele>
        <time>2020-05-24T08:56:48Z</time>
      </trkpt>
      <trkpt lat="44.5497" lon="4.6388">
        <ele>268.39999389648</ele>
        <time>2020-05-24T08:56:49Z</time>
      </trkpt>
      <trkpt lat="44.54971" lon="4.63877">
        <ele>268.39999389648</ele>
        <time>2020-05-24T08:56:50Z</time>
      </trkpt>
      <trkpt lat="44.54972" lon="4.63875">
        <ele>268.39999389648</ele>
        <time>2020-05-24T08:56:51Z</time>
      </trkpt>
      <trkpt lat="44.54973" lon="4.63873">
        <ele>268.39999389648</ele>
        <time>2020-05-24T08:56:52Z</time>
      </trkpt>
      <trkpt lat="44.54975" lon="4.63871">
        <ele>268.60000610352</ele>
        <time>2020-05-24T08:56:53Z</time>
      </trkpt>
      <trkpt lat="44.54977" lon="4.63868">
        <ele>268.60000610352</ele>
        <time>2020-05-24T08:56:54Z</time>
      </trkpt>
      <trkpt lat="44.54978" lon="4.63866">
        <ele>268.79998779297</ele>
        <time>2020-05-24T08:56:55Z</time>
      </trkpt>
      <trkpt lat="44.54979" lon="4.63864">
        <ele>269.20001220703</ele>
        <time>2020-05-24T08:56:56Z</time>
      </trkpt>
      <trkpt lat="44.5498" lon="4.63862">
        <ele>269.79998779297</ele>
        <time>2020-05-24T08:56:57Z</time>
      </trkpt>
      <trkpt lat="44.54981" lon="4.6386">
        <ele>270.20001220703</ele>
        <time>2020-05-24T08:56:58Z</time>
      </trkpt>
      <trkpt lat="44.54981" lon="4.63859">
        <ele>270.60000610352</ele>
        <time>2020-05-24T08:56:59Z</time>
      </trkpt>
      <trkpt lat="44.54982" lon="4.63857">
        <ele>274.60000610352</ele>
        <time>2020-05-24T08:57:06Z</time>
      </trkpt>
      <trkpt lat="44.54982" lon="4.63857">
        <ele>275.20001220703</ele>
        <time>2020-05-24T08:57:08Z</time>
      </trkpt>
      <trkpt lat="44.54983" lon="4.63857">
        <ele>275.39999389648</ele>
        <time>2020-05-24T08:57:09Z</time>
      </trkpt>
      <trkpt lat="44.54983" lon="4.63856">
        <ele>275.39999389648</ele>
        <time>2020-05-24T08:57:10Z</time>
      </trkpt>
      <trkpt lat="44.54983" lon="4.63856">
        <ele>275.39999389648</ele>
        <time>2020-05-24T08:57:11Z</time>
      </trkpt>
      <trkpt lat="44.54983" lon="4.63856">
        <ele>275.60000610352</ele>
        <time>2020-05-24T08:57:22Z</time>
      </trkpt>
      <trkpt lat="44.54984" lon="4.63855">
        <ele>275.20001220703</ele>
        <time>2020-05-24T08:57:48Z</time>
      </trkpt>
      <trkpt lat="44.54984" lon="4.63855">
        <ele>275.60000610352</ele>
        <time>2020-05-24T08:57:51Z</time>
      </trkpt>
      <trkpt lat="44.54982" lon="4.63856">
        <ele>275.60000610352</ele>
        <time>2020-05-24T08:57:52Z</time>
      </trkpt>
      <trkpt lat="44.54978" lon="4.63856">
        <ele>275.60000610352</ele>
        <time>2020-05-24T08:57:54Z</time>
      </trkpt>
      <trkpt lat="44.54976" lon="4.63856">
        <ele>275.60000610352</ele>
        <time>2020-05-24T08:57:55Z</time>
      </trkpt>
      <trkpt lat="44.54975" lon="4.63855">
        <ele>275.79998779297</ele>
        <time>2020-05-24T08:57:56Z</time>
      </trkpt>
      <trkpt lat="44.54973" lon="4.63855">
        <ele>275.79998779297</ele>
        <time>2020-05-24T08:57:57Z</time>
      </trkpt>
      <trkpt lat="44.54972" lon="4.63854">
        <ele>275.79998779297</ele>
        <time>2020-05-24T08:57:58Z</time>
      </trkpt>
      <trkpt lat="44.54972" lon="4.63853">
        <ele>275.79998779297</ele>
        <time>2020-05-24T08:57:59Z</time>
      </trkpt>
      <trkpt lat="44.54971" lon="4.63853">
        <ele>275.79998779297</ele>
        <time>2020-05-24T08:58:00Z</time>
      </trkpt>
      <trkpt lat="44.5497" lon="4.63853">
        <ele>276</ele>
        <time>2020-05-24T08:58:01Z</time>
      </trkpt>
      <trkpt lat="44.54969" lon="4.63853">
        <ele>276</ele>
        <time>2020-05-24T08:58:02Z</time>
      </trkpt>
      <trkpt lat="44.54968" lon="4.63853">
        <ele>276.20001220703</ele>
        <time>2020-05-24T08:58:03Z</time>
      </trkpt>
      <trkpt lat="44.54967" lon="4.63853">
        <ele>276.60000610352</ele>
        <time>2020-05-24T08:58:04Z</time>
      </trkpt>
      <trkpt lat="44.54967" lon="4.63853">
        <ele>276.79998779297</ele>
        <time>2020-05-24T08:58:05Z</time>
      </trkpt>
      <trkpt lat="44.54966" lon="4.63852">
        <ele>277</ele>
        <time>2020-05-24T08:58:06Z</time>
      </trkpt>
      <trkpt lat="44.54965" lon="4.63852">
        <ele>277.39999389648</ele>
        <time>2020-05-24T08:58:07Z</time>
      </trkpt>
      <trkpt lat="44.54965" lon="4.63853">
        <ele>278.39999389648</ele>
        <time>2020-05-24T08:58:10Z</time>
      </trkpt>
      <trkpt lat="44.54965" lon="4.63853">
        <ele>279.60000610352</ele>
        <time>2020-05-24T08:58:15Z</time>
      </trkpt>
      <trkpt lat="44.54964" lon="4.63853">
        <ele>280</ele>
        <time>2020-05-24T08:58:18Z</time>
      </trkpt>
      <trkpt lat="44.54964" lon="4.63853">
        <ele>280</ele>
        <time>2020-05-24T08:58:19Z</time>
      </trkpt>
      <trkpt lat="44.54963" lon="4.63851">
        <ele>280.20001220703</ele>
        <time>2020-05-24T08:58:22Z</time>
      </trkpt>
      <trkpt lat="44.54962" lon="4.63851">
        <ele>280.39999389648</ele>
        <time>2020-05-24T08:58:23Z</time>
      </trkpt>
      <trkpt lat="44.54961" lon="4.63851">
        <ele>280.60000610352</ele>
        <time>2020-05-24T08:58:25Z</time>
      </trkpt>
      <trkpt lat="44.5496" lon="4.63851">
        <ele>281</ele>
        <time>2020-05-24T08:58:28Z</time>
      </trkpt>
      <trkpt lat="44.54959" lon="4.63851">
        <ele>281.20001220703</ele>
        <time>2020-05-24T08:58:29Z</time>
      </trkpt>
      <trkpt lat="44.54957" lon="4.6385">
        <ele>281.20001220703</ele>
        <time>2020-05-24T08:58:30Z</time>
      </trkpt>
      <trkpt lat="44.54955" lon="4.6385">
        <ele>281.20001220703</ele>
        <time>2020-05-24T08:58:31Z</time>
      </trkpt>
      <trkpt lat="44.54953" lon="4.6385">
        <ele>281.60000610352</ele>
        <time>2020-05-24T08:58:32Z</time>
      </trkpt>
      <trkpt lat="44.54951" lon="4.6385">
        <ele>281.79998779297</ele>
        <time>2020-05-24T08:58:33Z</time>
      </trkpt>
      <trkpt lat="44.54949" lon="4.63849">
        <ele>281.79998779297</ele>
        <time>2020-05-24T08:58:34Z</time>
      </trkpt>
      <trkpt lat="44.54947" lon="4.63849">
        <ele>281.79998779297</ele>
        <time>2020-05-24T08:58:35Z</time>
      </trkpt>
      <trkpt lat="44.54945" lon="4.63848">
        <ele>281.79998779297</ele>
        <time>2020-05-24T08:58:36Z</time>
      </trkpt>
      <trkpt lat="44.54943" lon="4.63848">
        <ele>282</ele>
        <time>2020-05-24T08:58:37Z</time>
      </trkpt>
      <trkpt lat="44.54941" lon="4.63848">
        <ele>282</ele>
        <time>2020-05-24T08:58:38Z</time>
      </trkpt>
      <trkpt lat="44.54939" lon="4.63847">
        <ele>282.20001220703</ele>
        <time>2020-05-24T08:58:39Z</time>
      </trkpt>
      <trkpt lat="44.54937" lon="4.63847">
        <ele>282.20001220703</ele>
        <time>2020-05-24T08:58:40Z</time>
      </trkpt>
      <trkpt lat="44.54935" lon="4.63847">
        <ele>282.39999389648</ele>
        <time>2020-05-24T08:58:41Z</time>
      </trkpt>
      <trkpt lat="44.54933" lon="4.63847">
        <ele>283</ele>
        <time>2020-05-24T08:58:42Z</time>
      </trkpt>
      <trkpt lat="44.54931" lon="4.63847">
        <ele>283.79998779297</ele>
        <time>2020-05-24T08:58:43Z</time>
      </trkpt>
      <trkpt lat="44.54929" lon="4.63847">
        <ele>284</ele>
        <time>2020-05-24T08:58:44Z</time>
      </trkpt>
      <trkpt lat="44.54927" lon="4.63847">
        <ele>284.39999389648</ele>
        <time>2020-05-24T08:58:45Z</time>
      </trkpt>
      <trkpt lat="44.54924" lon="4.63846">
        <ele>285</ele>
        <time>2020-05-24T08:58:46Z</time>
      </trkpt>
      <trkpt lat="44.54922" lon="4.63846">
        <ele>285.20001220703</ele>
        <time>2020-05-24T08:58:47Z</time>
      </trkpt>
      <trkpt lat="44.5492" lon="4.63845">
        <ele>285.79998779297</ele>
        <time>2020-05-24T08:58:48Z</time>
      </trkpt>
      <trkpt lat="44.54918" lon="4.63845">
        <ele>286.20001220703</ele>
        <time>2020-05-24T08:58:49Z</time>
      </trkpt>
      <trkpt lat="44.54916" lon="4.63845">
        <ele>286.39999389648</ele>
        <time>2020-05-24T08:58:50Z</time>
      </trkpt>
      <trkpt lat="44.54914" lon="4.63846">
        <ele>286.60000610352</ele>
        <time>2020-05-24T08:58:51Z</time>
      </trkpt>
      <trkpt lat="44.54912" lon="4.63846">
        <ele>286.79998779297</ele>
        <time>2020-05-24T08:58:52Z</time>
      </trkpt>
      <trkpt lat="44.5491" lon="4.63845">
        <ele>287</ele>
        <time>2020-05-24T08:58:53Z</time>
      </trkpt>
      <trkpt lat="44.54908" lon="4.63845">
        <ele>287.20001220703</ele>
        <time>2020-05-24T08:58:54Z</time>
      </trkpt>
      <trkpt lat="44.54906" lon="4.63845">
        <ele>287.39999389648</ele>
        <time>2020-05-24T08:58:55Z</time>
      </trkpt>
      <trkpt lat="44.54904" lon="4.63845">
        <ele>287.60000610352</ele>
        <time>2020-05-24T08:58:56Z</time>
      </trkpt>
      <trkpt lat="44.54901" lon="4.63845">
        <ele>288.20001220703</ele>
        <time>2020-05-24T08:58:57Z</time>
      </trkpt>
      <trkpt lat="44.54899" lon="4.63844">
        <ele>288.79998779297</ele>
        <time>2020-05-24T08:58:58Z</time>
      </trkpt>
      <trkpt lat="44.54897" lon="4.63844">
        <ele>288.79998779297</ele>
        <time>2020-05-24T08:58:59Z</time>
      </trkpt>
      <trkpt lat="44.54895" lon="4.63844">
        <ele>289.20001220703</ele>
        <time>2020-05-24T08:59:00Z</time>
      </trkpt>
      <trkpt lat="44.54893" lon="4.63844">
        <ele>289.39999389648</ele>
        <time>2020-05-24T08:59:01Z</time>
      </trkpt>
      <trkpt lat="44.54891" lon="4.63844">
        <ele>289.79998779297</ele>
        <time>2020-05-24T08:59:02Z</time>
      </trkpt>
      <trkpt lat="44.54889" lon="4.63844">
        <ele>290.20001220703</ele>
        <time>2020-05-24T08:59:03Z</time>
      </trkpt>
      <trkpt lat="44.54887" lon="4.63845">
        <ele>290.20001220703</ele>
        <time>2020-05-24T08:59:04Z</time>
      </trkpt>
      <trkpt lat="44.54885" lon="4.63845">
        <ele>290.39999389648</ele>
        <time>2020-05-24T08:59:05Z</time>
      </trkpt>
      <trkpt lat="44.54883" lon="4.63845">
        <ele>291</ele>
        <time>2020-05-24T08:59:06Z</time>
      </trkpt>
      <trkpt lat="44.54881" lon="4.63845">
        <ele>291.20001220703</ele>
        <time>2020-05-24T08:59:07Z</time>
      </trkpt>
      <trkpt lat="44.54879" lon="4.63845">
        <ele>291.20001220703</ele>
        <time>2020-05-24T08:59:08Z</time>
      </trkpt>
      <trkpt lat="44.54877" lon="4.63845">
        <ele>291.60000610352</ele>
        <time>2020-05-24T08:59:09Z</time>
      </trkpt>
      <trkpt lat="44.54875" lon="4.63845">
        <ele>292</ele>
        <time>2020-05-24T08:59:10Z</time>
      </trkpt>
      <trkpt lat="44.54873" lon="4.63845">
        <ele>292.20001220703</ele>
        <time>2020-05-24T08:59:11Z</time>
      </trkpt>
      <trkpt lat="44.54871" lon="4.63846">
        <ele>292.79998779297</ele>
        <time>2020-05-24T08:59:12Z</time>
      </trkpt>
      <trkpt lat="44.54868" lon="4.63846">
        <ele>293.20001220703</ele>
        <time>2020-05-24T08:59:13Z</time>
      </trkpt>
      <trkpt lat="44.54866" lon="4.63847">
        <ele>293.39999389648</ele>
        <time>2020-05-24T08:59:14Z</time>
      </trkpt>
      <trkpt lat="44.54864" lon="4.63848">
        <ele>293.60000610352</ele>
        <time>2020-05-24T08:59:15Z</time>
      </trkpt>
      <trkpt lat="44.54862" lon="4.63848">
        <ele>294.20001220703</ele>
        <time>2020-05-24T08:59:16Z</time>
      </trkpt>
      <trkpt lat="44.54859" lon="4.63849">
        <ele>294.60000610352</ele>
        <time>2020-05-24T08:59:17Z</time>
      </trkpt>
      <trkpt lat="44.54857" lon="4.63849">
        <ele>295</ele>
        <time>2020-05-24T08:59:18Z</time>
      </trkpt>
      <trkpt lat="44.54855" lon="4.6385">
        <ele>295.39999389648</ele>
        <time>2020-05-24T08:59:19Z</time>
      </trkpt>
      <trkpt lat="44.54852" lon="4.63851">
        <ele>295.39999389648</ele>
        <time>2020-05-24T08:59:20Z</time>
      </trkpt>
      <trkpt lat="44.5485" lon="4.63852">
        <ele>296</ele>
        <time>2020-05-24T08:59:21Z</time>
      </trkpt>
      <trkpt lat="44.54848" lon="4.63852">
        <ele>296.39999389648</ele>
        <time>2020-05-24T08:59:22Z</time>
      </trkpt>
      <trkpt lat="44.54846" lon="4.63853">
        <ele>296.79998779297</ele>
        <time>2020-05-24T08:59:23Z</time>
      </trkpt>
      <trkpt lat="44.54843" lon="4.63854">
        <ele>297.20001220703</ele>
        <time>2020-05-24T08:59:24Z</time>
      </trkpt>
      <trkpt lat="44.54841" lon="4.63855">
        <ele>298</ele>
        <time>2020-05-24T08:59:25Z</time>
      </trkpt>
      <trkpt lat="44.54839" lon="4.63855">
        <ele>298.39999389648</ele>
        <time>2020-05-24T08:59:26Z</time>
      </trkpt>
      <trkpt lat="44.54837" lon="4.63857">
        <ele>299</ele>
        <time>2020-05-24T08:59:27Z</time>
      </trkpt>
      <trkpt lat="44.54834" lon="4.63858">
        <ele>299.39999389648</ele>
        <time>2020-05-24T08:59:28Z</time>
      </trkpt>
      <trkpt lat="44.54832" lon="4.63859">
        <ele>299.79998779297</ele>
        <time>2020-05-24T08:59:29Z</time>
      </trkpt>
      <trkpt lat="44.5483" lon="4.63861">
        <ele>300.20001220703</ele>
        <time>2020-05-24T08:59:30Z</time>
      </trkpt>
      <trkpt lat="44.54827" lon="4.63862">
        <ele>300.39999389648</ele>
        <time>2020-05-24T08:59:31Z</time>
      </trkpt>
      <trkpt lat="44.54825" lon="4.63863">
        <ele>300.60000610352</ele>
        <time>2020-05-24T08:59:32Z</time>
      </trkpt>
      <trkpt lat="44.54823" lon="4.63864">
        <ele>300.60000610352</ele>
        <time>2020-05-24T08:59:33Z</time>
      </trkpt>
      <trkpt lat="44.54821" lon="4.63865">
        <ele>300.79998779297</ele>
        <time>2020-05-24T08:59:34Z</time>
      </trkpt>
      <trkpt lat="44.54819" lon="4.63865">
        <ele>301</ele>
        <time>2020-05-24T08:59:35Z</time>
      </trkpt>
      <trkpt lat="44.54816" lon="4.63866">
        <ele>301</ele>
        <time>2020-05-24T08:59:36Z</time>
      </trkpt>
      <trkpt lat="44.54814" lon="4.63866">
        <ele>301.20001220703</ele>
        <time>2020-05-24T08:59:37Z</time>
      </trkpt>
      <trkpt lat="44.54812" lon="4.63867">
        <ele>301.39999389648</ele>
        <time>2020-05-24T08:59:38Z</time>
      </trkpt>
      <trkpt lat="44.54809" lon="4.63868">
        <ele>301.60000610352</ele>
        <time>2020-05-24T08:59:39Z</time>
      </trkpt>
      <trkpt lat="44.54807" lon="4.63869">
        <ele>302</ele>
        <time>2020-05-24T08:59:40Z</time>
      </trkpt>
      <trkpt lat="44.54805" lon="4.6387">
        <ele>302</ele>
        <time>2020-05-24T08:59:41Z</time>
      </trkpt>
      <trkpt lat="44.54802" lon="4.63871">
        <ele>302</ele>
        <time>2020-05-24T08:59:42Z</time>
      </trkpt>
      <trkpt lat="44.54796" lon="4.63871">
        <ele>302.60000610352</ele>
        <time>2020-05-24T08:59:44Z</time>
      </trkpt>
      <trkpt lat="44.54794" lon="4.63872">
        <ele>302.79998779297</ele>
        <time>2020-05-24T08:59:45Z</time>
      </trkpt>
      <trkpt lat="44.54789" lon="4.63872">
        <ele>303.39999389648</ele>
        <time>2020-05-24T08:59:47Z</time>
      </trkpt>
      <trkpt lat="44.54786" lon="4.63872">
        <ele>303.39999389648</ele>
        <time>2020-05-24T08:59:48Z</time>
      </trkpt>
      <trkpt lat="44.54781" lon="4.63872">
        <ele>303.39999389648</ele>
        <time>2020-05-24T08:59:50Z</time>
      </trkpt>
      <trkpt lat="44.54778" lon="4.63871">
        <ele>303.39999389648</ele>
        <time>2020-05-24T08:59:51Z</time>
      </trkpt>
      <trkpt lat="44.54776" lon="4.6387">
        <ele>303.39999389648</ele>
        <time>2020-05-24T08:59:52Z</time>
      </trkpt>
      <trkpt lat="44.54775" lon="4.63869">
        <ele>303.39999389648</ele>
        <time>2020-05-24T08:59:53Z</time>
      </trkpt>
      <trkpt lat="44.54773" lon="4.63869">
        <ele>303.39999389648</ele>
        <time>2020-05-24T08:59:54Z</time>
      </trkpt>
      <trkpt lat="44.54771" lon="4.63869">
        <ele>303.20001220703</ele>
        <time>2020-05-24T08:59:55Z</time>
      </trkpt>
      <trkpt lat="44.54764" lon="4.6387">
        <ele>303.39999389648</ele>
        <time>2020-05-24T08:59:57Z</time>
      </trkpt>
      <trkpt lat="44.54759" lon="4.6387">
        <ele>303</ele>
        <time>2020-05-24T08:59:59Z</time>
      </trkpt>
      <trkpt lat="44.54756" lon="4.63869">
        <ele>302.79998779297</ele>
        <time>2020-05-24T09:00:00Z</time>
      </trkpt>
      <trkpt lat="44.54754" lon="4.63868">
        <ele>302.79998779297</ele>
        <time>2020-05-24T09:00:01Z</time>
      </trkpt>
      <trkpt lat="44.54752" lon="4.63867">
        <ele>302.79998779297</ele>
        <time>2020-05-24T09:00:02Z</time>
      </trkpt>
      <trkpt lat="44.54749" lon="4.63866">
        <ele>302.79998779297</ele>
        <time>2020-05-24T09:00:03Z</time>
      </trkpt>
      <trkpt lat="44.54748" lon="4.63865">
        <ele>302.79998779297</ele>
        <time>2020-05-24T09:00:04Z</time>
      </trkpt>
      <trkpt lat="44.54746" lon="4.63863">
        <ele>302.60000610352</ele>
        <time>2020-05-24T09:00:05Z</time>
      </trkpt>
      <trkpt lat="44.54743" lon="4.63862">
        <ele>302.79998779297</ele>
        <time>2020-05-24T09:00:06Z</time>
      </trkpt>
      <trkpt lat="44.54741" lon="4.63861">
        <ele>302.79998779297</ele>
        <time>2020-05-24T09:00:07Z</time>
      </trkpt>
      <trkpt lat="44.54739" lon="4.6386">
        <ele>302.79998779297</ele>
        <time>2020-05-24T09:00:08Z</time>
      </trkpt>
      <trkpt lat="44.54737" lon="4.63859">
        <ele>302.60000610352</ele>
        <time>2020-05-24T09:00:09Z</time>
      </trkpt>
      <trkpt lat="44.54734" lon="4.63859">
        <ele>302.79998779297</ele>
        <time>2020-05-24T09:00:10Z</time>
      </trkpt>
      <trkpt lat="44.54731" lon="4.63859">
        <ele>302.79998779297</ele>
        <time>2020-05-24T09:00:11Z</time>
      </trkpt>
      <trkpt lat="44.54729" lon="4.63859">
        <ele>302.79998779297</ele>
        <time>2020-05-24T09:00:12Z</time>
      </trkpt>
      <trkpt lat="44.54726" lon="4.6386">
        <ele>303</ele>
        <time>2020-05-24T09:00:13Z</time>
      </trkpt>
      <trkpt lat="44.54723" lon="4.6386">
        <ele>303.39999389648</ele>
        <time>2020-05-24T09:00:14Z</time>
      </trkpt>
      <trkpt lat="44.54721" lon="4.6386">
        <ele>303.79998779297</ele>
        <time>2020-05-24T09:00:15Z</time>
      </trkpt>
      <trkpt lat="44.54718" lon="4.6386">
        <ele>304.39999389648</ele>
        <time>2020-05-24T09:00:16Z</time>
      </trkpt>
      <trkpt lat="44.54715" lon="4.6386">
        <ele>304.79998779297</ele>
        <time>2020-05-24T09:00:17Z</time>
      </trkpt>
      <trkpt lat="44.54713" lon="4.63861">
        <ele>305</ele>
        <time>2020-05-24T09:00:18Z</time>
      </trkpt>
      <trkpt lat="44.5471" lon="4.63861">
        <ele>305.20001220703</ele>
        <time>2020-05-24T09:00:19Z</time>
      </trkpt>
      <trkpt lat="44.54708" lon="4.63861">
        <ele>305.39999389648</ele>
        <time>2020-05-24T09:00:20Z</time>
      </trkpt>
      <trkpt lat="44.54706" lon="4.63861">
        <ele>305.39999389648</ele>
        <time>2020-05-24T09:00:21Z</time>
      </trkpt>
      <trkpt lat="44.54703" lon="4.63861">
        <ele>305.60000610352</ele>
        <time>2020-05-24T09:00:22Z</time>
      </trkpt>
      <trkpt lat="44.54701" lon="4.63861">
        <ele>305.79998779297</ele>
        <time>2020-05-24T09:00:23Z</time>
      </trkpt>
      <trkpt lat="44.54699" lon="4.63861">
        <ele>306</ele>
        <time>2020-05-24T09:00:24Z</time>
      </trkpt>
      <trkpt lat="44.54696" lon="4.63861">
        <ele>306</ele>
        <time>2020-05-24T09:00:25Z</time>
      </trkpt>
      <trkpt lat="44.54694" lon="4.63861">
        <ele>306</ele>
        <time>2020-05-24T09:00:26Z</time>
      </trkpt>
      <trkpt lat="44.54692" lon="4.6386">
        <ele>306.20001220703</ele>
        <time>2020-05-24T09:00:27Z</time>
      </trkpt>
      <trkpt lat="44.5469" lon="4.6386">
        <ele>306.79998779297</ele>
        <time>2020-05-24T09:00:28Z</time>
      </trkpt>
      <trkpt lat="44.54688" lon="4.6386">
        <ele>307</ele>
        <time>2020-05-24T09:00:29Z</time>
      </trkpt>
      <trkpt lat="44.54685" lon="4.6386">
        <ele>307.20001220703</ele>
        <time>2020-05-24T09:00:30Z</time>
      </trkpt>
      <trkpt lat="44.54683" lon="4.6386">
        <ele>307.39999389648</ele>
        <time>2020-05-24T09:00:31Z</time>
      </trkpt>
      <trkpt lat="44.54681" lon="4.63859">
        <ele>307.39999389648</ele>
        <time>2020-05-24T09:00:32Z</time>
      </trkpt>
      <trkpt lat="44.54679" lon="4.63859">
        <ele>307.79998779297</ele>
        <time>2020-05-24T09:00:33Z</time>
      </trkpt>
      <trkpt lat="44.54677" lon="4.63858">
        <ele>308.20001220703</ele>
        <time>2020-05-24T09:00:34Z</time>
      </trkpt>
      <trkpt lat="44.54674" lon="4.63857">
        <ele>308.39999389648</ele>
        <time>2020-05-24T09:00:35Z</time>
      </trkpt>
      <trkpt lat="44.54672" lon="4.63857">
        <ele>308.60000610352</ele>
        <time>2020-05-24T09:00:36Z</time>
      </trkpt>
      <trkpt lat="44.5467" lon="4.63858">
        <ele>308.79998779297</ele>
        <time>2020-05-24T09:00:37Z</time>
      </trkpt>
      <trkpt lat="44.54668" lon="4.63858">
        <ele>309</ele>
        <time>2020-05-24T09:00:38Z</time>
      </trkpt>
      <trkpt lat="44.54666" lon="4.63858">
        <ele>309</ele>
        <time>2020-05-24T09:00:39Z</time>
      </trkpt>
      <trkpt lat="44.54663" lon="4.63858">
        <ele>309.39999389648</ele>
        <time>2020-05-24T09:00:40Z</time>
      </trkpt>
      <trkpt lat="44.54661" lon="4.63858">
        <ele>310.20001220703</ele>
        <time>2020-05-24T09:00:41Z</time>
      </trkpt>
      <trkpt lat="44.54659" lon="4.63859">
        <ele>310.79998779297</ele>
        <time>2020-05-24T09:00:42Z</time>
      </trkpt>
      <trkpt lat="44.54656" lon="4.63859">
        <ele>311.39999389648</ele>
        <time>2020-05-24T09:00:43Z</time>
      </trkpt>
      <trkpt lat="44.54654" lon="4.6386">
        <ele>311.60000610352</ele>
        <time>2020-05-24T09:00:44Z</time>
      </trkpt>
      <trkpt lat="44.54651" lon="4.6386">
        <ele>312</ele>
        <time>2020-05-24T09:00:45Z</time>
      </trkpt>
      <trkpt lat="44.54648" lon="4.63861">
        <ele>312</ele>
        <time>2020-05-24T09:00:46Z</time>
      </trkpt>
      <trkpt lat="44.54646" lon="4.63862">
        <ele>312.20001220703</ele>
        <time>2020-05-24T09:00:47Z</time>
      </trkpt>
      <trkpt lat="44.54644" lon="4.63863">
        <ele>312.39999389648</ele>
        <time>2020-05-24T09:00:48Z</time>
      </trkpt>
      <trkpt lat="44.54641" lon="4.63865">
        <ele>312.60000610352</ele>
        <time>2020-05-24T09:00:49Z</time>
      </trkpt>
      <trkpt lat="44.54638" lon="4.63865">
        <ele>312.79998779297</ele>
        <time>2020-05-24T09:00:50Z</time>
      </trkpt>
      <trkpt lat="44.54635" lon="4.63865">
        <ele>313.20001220703</ele>
        <time>2020-05-24T09:00:51Z</time>
      </trkpt>
      <trkpt lat="44.54633" lon="4.63864">
        <ele>313.39999389648</ele>
        <time>2020-05-24T09:00:52Z</time>
      </trkpt>
      <trkpt lat="44.54631" lon="4.63864">
        <ele>313.79998779297</ele>
        <time>2020-05-24T09:00:53Z</time>
      </trkpt>
      <trkpt lat="44.54629" lon="4.63864">
        <ele>314</ele>
        <time>2020-05-24T09:00:54Z</time>
      </trkpt>
      <trkpt lat="44.54627" lon="4.63864">
        <ele>314.20001220703</ele>
        <time>2020-05-24T09:00:55Z</time>
      </trkpt>
      <trkpt lat="44.54626" lon="4.63864">
        <ele>314.39999389648</ele>
        <time>2020-05-24T09:00:56Z</time>
      </trkpt>
      <trkpt lat="44.54626" lon="4.63864">
        <ele>314.39999389648</ele>
        <time>2020-05-24T09:00:57Z</time>
      </trkpt>
      <trkpt lat="44.54626" lon="4.63864">
        <ele>316.20001220703</ele>
        <time>2020-05-24T09:01:08Z</time>
      </trkpt>
      <trkpt lat="44.54625" lon="4.63864">
        <ele>316.39999389648</ele>
        <time>2020-05-24T09:01:11Z</time>
      </trkpt>
      <trkpt lat="44.54624" lon="4.63865">
        <ele>316.60000610352</ele>
        <time>2020-05-24T09:01:12Z</time>
      </trkpt>
      <trkpt lat="44.54624" lon="4.63865">
        <ele>316.39999389648</ele>
        <time>2020-05-24T09:01:13Z</time>
      </trkpt>
      <trkpt lat="44.54624" lon="4.63865">
        <ele>316.39999389648</ele>
        <time>2020-05-24T09:01:14Z</time>
      </trkpt>
      <trkpt lat="44.54624" lon="4.63865">
        <ele>316.39999389648</ele>
        <time>2020-05-24T09:01:17Z</time>
      </trkpt>
      <trkpt lat="44.54623" lon="4.63865">
        <ele>316.20001220703</ele>
        <time>2020-05-24T09:01:21Z</time>
      </trkpt>
      <trkpt lat="44.54621" lon="4.63865">
        <ele>316.39999389648</ele>
        <time>2020-05-24T09:01:22Z</time>
      </trkpt>
      <trkpt lat="44.54619" lon="4.63866">
        <ele>316.39999389648</ele>
        <time>2020-05-24T09:01:23Z</time>
      </trkpt>
      <trkpt lat="44.54617" lon="4.63865">
        <ele>316.20001220703</ele>
        <time>2020-05-24T09:01:24Z</time>
      </trkpt>
      <trkpt lat="44.54615" lon="4.63864">
        <ele>316.20001220703</ele>
        <time>2020-05-24T09:01:25Z</time>
      </trkpt>
      <trkpt lat="44.54612" lon="4.63864">
        <ele>316.20001220703</ele>
        <time>2020-05-24T09:01:26Z</time>
      </trkpt>
      <trkpt lat="44.54611" lon="4.63862">
        <ele>316.39999389648</ele>
        <time>2020-05-24T09:01:27Z</time>
      </trkpt>
      <trkpt lat="44.54609" lon="4.63861">
        <ele>316.39999389648</ele>
        <time>2020-05-24T09:01:28Z</time>
      </trkpt>
      <trkpt lat="44.54608" lon="4.6386">
        <ele>316.20001220703</ele>
        <time>2020-05-24T09:01:29Z</time>
      </trkpt>
      <trkpt lat="44.54606" lon="4.63859">
        <ele>316.39999389648</ele>
        <time>2020-05-24T09:01:32Z</time>
      </trkpt>
      <trkpt lat="44.54605" lon="4.63859">
        <ele>316.39999389648</ele>
        <time>2020-05-24T09:01:33Z</time>
      </trkpt>
      <trkpt lat="44.54605" lon="4.63858">
        <ele>316.60000610352</ele>
        <time>2020-05-24T09:01:34Z</time>
      </trkpt>
      <trkpt lat="44.54604" lon="4.63857">
        <ele>317</ele>
        <time>2020-05-24T09:01:35Z</time>
      </trkpt>
      <trkpt lat="44.54603" lon="4.63856">
        <ele>317.39999389648</ele>
        <time>2020-05-24T09:01:36Z</time>
      </trkpt>
      <trkpt lat="44.54602" lon="4.63856">
        <ele>317.60000610352</ele>
        <time>2020-05-24T09:01:37Z</time>
      </trkpt>
      <trkpt lat="44.54602" lon="4.63855">
        <ele>317.79998779297</ele>
        <time>2020-05-24T09:01:38Z</time>
      </trkpt>
      <trkpt lat="44.54601" lon="4.63856">
        <ele>318.20001220703</ele>
        <time>2020-05-24T09:01:39Z</time>
      </trkpt>
      <trkpt lat="44.546" lon="4.63857">
        <ele>318.60000610352</ele>
        <time>2020-05-24T09:01:40Z</time>
      </trkpt>
      <trkpt lat="44.54599" lon="4.63858">
        <ele>318.60000610352</ele>
        <time>2020-05-24T09:01:41Z</time>
      </trkpt>
      <trkpt lat="44.54598" lon="4.63859">
        <ele>318.79998779297</ele>
        <time>2020-05-24T09:01:42Z</time>
      </trkpt>
      <trkpt lat="44.54596" lon="4.63861">
        <ele>319.20001220703</ele>
        <time>2020-05-24T09:01:43Z</time>
      </trkpt>
      <trkpt lat="44.54594" lon="4.63862">
        <ele>319.39999389648</ele>
        <time>2020-05-24T09:01:44Z</time>
      </trkpt>
      <trkpt lat="44.54592" lon="4.63863">
        <ele>319.39999389648</ele>
        <time>2020-05-24T09:01:45Z</time>
      </trkpt>
      <trkpt lat="44.5459" lon="4.63864">
        <ele>319.60000610352</ele>
        <time>2020-05-24T09:01:46Z</time>
      </trkpt>
      <trkpt lat="44.54589" lon="4.63865">
        <ele>319.79998779297</ele>
        <time>2020-05-24T09:01:47Z</time>
      </trkpt>
      <trkpt lat="44.54588" lon="4.63866">
        <ele>319.79998779297</ele>
        <time>2020-05-24T09:01:48Z</time>
      </trkpt>
      <trkpt lat="44.54586" lon="4.63868">
        <ele>320</ele>
        <time>2020-05-24T09:01:49Z</time>
      </trkpt>
      <trkpt lat="44.54585" lon="4.63869">
        <ele>320.20001220703</ele>
        <time>2020-05-24T09:01:50Z</time>
      </trkpt>
      <trkpt lat="44.54583" lon="4.63869">
        <ele>320.20001220703</ele>
        <time>2020-05-24T09:01:51Z</time>
      </trkpt>
      <trkpt lat="44.54582" lon="4.63869">
        <ele>320.20001220703</ele>
        <time>2020-05-24T09:01:52Z</time>
      </trkpt>
      <trkpt lat="44.54582" lon="4.63869">
        <ele>320.20001220703</ele>
        <time>2020-05-24T09:01:52Z</time>
      </trkpt>
      <trkpt lat="44.5458" lon="4.63868">
        <ele>320.20001220703</ele>
        <time>2020-05-24T09:01:53Z</time>
      </trkpt>
      <trkpt lat="44.54577" lon="4.63866">
        <ele>320.39999389648</ele>
        <time>2020-05-24T09:01:55Z</time>
      </trkpt>
      <trkpt lat="44.54576" lon="4.63866">
        <ele>320.39999389648</ele>
        <time>2020-05-24T09:01:56Z</time>
      </trkpt>
      <trkpt lat="44.54576" lon="4.63865">
        <ele>321</ele>
        <time>2020-05-24T09:01:59Z</time>
      </trkpt>
      <trkpt lat="44.54575" lon="4.63865">
        <ele>321.79998779297</ele>
        <time>2020-05-24T09:02:18Z</time>
      </trkpt>
      <trkpt lat="44.54575" lon="4.63865">
        <ele>321.79998779297</ele>
        <time>2020-05-24T09:02:36Z</time>
      </trkpt>
      <trkpt lat="44.54575" lon="4.63865">
        <ele>321.60000610352</ele>
        <time>2020-05-24T09:02:58Z</time>
      </trkpt>
      <trkpt lat="44.54575" lon="4.63865">
        <ele>322</ele>
        <time>2020-05-24T09:03:04Z</time>
      </trkpt>
      <trkpt lat="44.54575" lon="4.63865">
        <ele>322.20001220703</ele>
        <time>2020-05-24T09:03:28Z</time>
      </trkpt>
      <trkpt lat="44.54575" lon="4.63865">
        <ele>322</ele>
        <time>2020-05-24T09:03:57Z</time>
      </trkpt>
      <trkpt lat="44.54575" lon="4.63865">
        <ele>322.20001220703</ele>
        <time>2020-05-24T09:04:08Z</time>
      </trkpt>
      <trkpt lat="44.54575" lon="4.63865">
        <ele>322</ele>
        <time>2020-05-24T09:04:20Z</time>
      </trkpt>
      <trkpt lat="44.54575" lon="4.63864">
        <ele>322.20001220703</ele>
        <time>2020-05-24T09:04:47Z</time>
      </trkpt>
      <trkpt lat="44.54574" lon="4.63864">
        <ele>322.20001220703</ele>
        <time>2020-05-24T09:04:48Z</time>
      </trkpt>
      <trkpt lat="44.54573" lon="4.63863">
        <ele>322.20001220703</ele>
        <time>2020-05-24T09:04:49Z</time>
      </trkpt>
      <trkpt lat="44.54571" lon="4.63859">
        <ele>322</ele>
        <time>2020-05-24T09:04:51Z</time>
      </trkpt>
      <trkpt lat="44.5457" lon="4.63857">
        <ele>322.20001220703</ele>
        <time>2020-05-24T09:04:52Z</time>
      </trkpt>
      <trkpt lat="44.54567" lon="4.63852">
        <ele>322.20001220703</ele>
        <time>2020-05-24T09:04:54Z</time>
      </trkpt>
      <trkpt lat="44.54565" lon="4.63846">
        <ele>322.20001220703</ele>
        <time>2020-05-24T09:04:56Z</time>
      </trkpt>
      <trkpt lat="44.54564" lon="4.63842">
        <ele>322.20001220703</ele>
        <time>2020-05-24T09:04:57Z</time>
      </trkpt>
      <trkpt lat="44.54563" lon="4.63839">
        <ele>322.20001220703</ele>
        <time>2020-05-24T09:04:58Z</time>
      </trkpt>
      <trkpt lat="44.54563" lon="4.63835">
        <ele>322.20001220703</ele>
        <time>2020-05-24T09:04:59Z</time>
      </trkpt>
      <trkpt lat="44.54563" lon="4.63831">
        <ele>322.39999389648</ele>
        <time>2020-05-24T09:05:00Z</time>
      </trkpt>
      <trkpt lat="44.54563" lon="4.63827">
        <ele>322.20001220703</ele>
        <time>2020-05-24T09:05:01Z</time>
      </trkpt>
      <trkpt lat="44.54563" lon="4.63823">
        <ele>322.39999389648</ele>
        <time>2020-05-24T09:05:02Z</time>
      </trkpt>
      <trkpt lat="44.54563" lon="4.63819">
        <ele>322.39999389648</ele>
        <time>2020-05-24T09:05:03Z</time>
      </trkpt>
      <trkpt lat="44.54563" lon="4.63814">
        <ele>322.79998779297</ele>
        <time>2020-05-24T09:05:04Z</time>
      </trkpt>
      <trkpt lat="44.54563" lon="4.6381">
        <ele>323</ele>
        <time>2020-05-24T09:05:05Z</time>
      </trkpt>
      <trkpt lat="44.54562" lon="4.63806">
        <ele>323.20001220703</ele>
        <time>2020-05-24T09:05:06Z</time>
      </trkpt>
      <trkpt lat="44.54562" lon="4.63802">
        <ele>323.20001220703</ele>
        <time>2020-05-24T09:05:07Z</time>
      </trkpt>
      <trkpt lat="44.54561" lon="4.63798">
        <ele>323.20001220703</ele>
        <time>2020-05-24T09:05:08Z</time>
      </trkpt>
      <trkpt lat="44.54561" lon="4.63794">
        <ele>323</ele>
        <time>2020-05-24T09:05:09Z</time>
      </trkpt>
      <trkpt lat="44.5456" lon="4.6379">
        <ele>323.20001220703</ele>
        <time>2020-05-24T09:05:10Z</time>
      </trkpt>
      <trkpt lat="44.5456" lon="4.63785">
        <ele>323.60000610352</ele>
        <time>2020-05-24T09:05:11Z</time>
      </trkpt>
      <trkpt lat="44.54561" lon="4.63781">
        <ele>323.79998779297</ele>
        <time>2020-05-24T09:05:12Z</time>
      </trkpt>
      <trkpt lat="44.54562" lon="4.63778">
        <ele>324</ele>
        <time>2020-05-24T09:05:13Z</time>
      </trkpt>
      <trkpt lat="44.54563" lon="4.63775">
        <ele>324.20001220703</ele>
        <time>2020-05-24T09:05:14Z</time>
      </trkpt>
      <trkpt lat="44.54565" lon="4.63773">
        <ele>324.20001220703</ele>
        <time>2020-05-24T09:05:15Z</time>
      </trkpt>
      <trkpt lat="44.54567" lon="4.63772">
        <ele>324.79998779297</ele>
        <time>2020-05-24T09:05:16Z</time>
      </trkpt>
      <trkpt lat="44.5457" lon="4.63772">
        <ele>325</ele>
        <time>2020-05-24T09:05:17Z</time>
      </trkpt>
      <trkpt lat="44.54572" lon="4.63772">
        <ele>325.20001220703</ele>
        <time>2020-05-24T09:05:18Z</time>
      </trkpt>
      <trkpt lat="44.54574" lon="4.63773">
        <ele>325.20001220703</ele>
        <time>2020-05-24T09:05:19Z</time>
      </trkpt>
      <trkpt lat="44.54576" lon="4.63774">
        <ele>325.39999389648</ele>
        <time>2020-05-24T09:05:20Z</time>
      </trkpt>
      <trkpt lat="44.54579" lon="4.63774">
        <ele>325.60000610352</ele>
        <time>2020-05-24T09:05:21Z</time>
      </trkpt>
      <trkpt lat="44.54581" lon="4.63775">
        <ele>326</ele>
        <time>2020-05-24T09:05:22Z</time>
      </trkpt>
      <trkpt lat="44.54583" lon="4.63776">
        <ele>326.39999389648</ele>
        <time>2020-05-24T09:05:23Z</time>
      </trkpt>
      <trkpt lat="44.54585" lon="4.63777">
        <ele>327</ele>
        <time>2020-05-24T09:05:24Z</time>
      </trkpt>
      <trkpt lat="44.54588" lon="4.63777">
        <ele>327.60000610352</ele>
        <time>2020-05-24T09:05:25Z</time>
      </trkpt>
      <trkpt lat="44.5459" lon="4.63777">
        <ele>327.79998779297</ele>
        <time>2020-05-24T09:05:26Z</time>
      </trkpt>
      <trkpt lat="44.54592" lon="4.63778">
        <ele>328.20001220703</ele>
        <time>2020-05-24T09:05:27Z</time>
      </trkpt>
      <trkpt lat="44.54594" lon="4.63778">
        <ele>328.20001220703</ele>
        <time>2020-05-24T09:05:28Z</time>
      </trkpt>
      <trkpt lat="44.54596" lon="4.63778">
        <ele>328.39999389648</ele>
        <time>2020-05-24T09:05:29Z</time>
      </trkpt>
      <trkpt lat="44.54598" lon="4.63778">
        <ele>328.79998779297</ele>
        <time>2020-05-24T09:05:30Z</time>
      </trkpt>
      <trkpt lat="44.546" lon="4.63778">
        <ele>329.20001220703</ele>
        <time>2020-05-24T09:05:31Z</time>
      </trkpt>
      <trkpt lat="44.54602" lon="4.63778">
        <ele>329.39999389648</ele>
        <time>2020-05-24T09:05:32Z</time>
      </trkpt>
      <trkpt lat="44.54605" lon="4.63778">
        <ele>329.60000610352</ele>
        <time>2020-05-24T09:05:33Z</time>
      </trkpt>
      <trkpt lat="44.54607" lon="4.63778">
        <ele>329.79998779297</ele>
        <time>2020-05-24T09:05:34Z</time>
      </trkpt>
      <trkpt lat="44.54609" lon="4.63777">
        <ele>330</ele>
        <time>2020-05-24T09:05:35Z</time>
      </trkpt>
      <trkpt lat="44.54611" lon="4.63777">
        <ele>330.39999389648</ele>
        <time>2020-05-24T09:05:36Z</time>
      </trkpt>
      <trkpt lat="44.54613" lon="4.63776">
        <ele>330.39999389648</ele>
        <time>2020-05-24T09:05:37Z</time>
      </trkpt>
      <trkpt lat="44.54615" lon="4.63776">
        <ele>330.79998779297</ele>
        <time>2020-05-24T09:05:38Z</time>
      </trkpt>
      <trkpt lat="44.54617" lon="4.63775">
        <ele>331</ele>
        <time>2020-05-24T09:05:39Z</time>
      </trkpt>
      <trkpt lat="44.54619" lon="4.63774">
        <ele>331</ele>
        <time>2020-05-24T09:05:40Z</time>
      </trkpt>
      <trkpt lat="44.54621" lon="4.63774">
        <ele>331.39999389648</ele>
        <time>2020-05-24T09:05:41Z</time>
      </trkpt>
      <trkpt lat="44.54623" lon="4.63773">
        <ele>331.39999389648</ele>
        <time>2020-05-24T09:05:42Z</time>
      </trkpt>
      <trkpt lat="44.54625" lon="4.63773">
        <ele>331.60000610352</ele>
        <time>2020-05-24T09:05:43Z</time>
      </trkpt>
      <trkpt lat="44.54627" lon="4.63772">
        <ele>331.79998779297</ele>
        <time>2020-05-24T09:05:44Z</time>
      </trkpt>
      <trkpt lat="44.54629" lon="4.63772">
        <ele>332</ele>
        <time>2020-05-24T09:05:45Z</time>
      </trkpt>
      <trkpt lat="44.54631" lon="4.63772">
        <ele>332.20001220703</ele>
        <time>2020-05-24T09:05:46Z</time>
      </trkpt>
      <trkpt lat="44.54633" lon="4.63771">
        <ele>332.20001220703</ele>
        <time>2020-05-24T09:05:47Z</time>
      </trkpt>
      <trkpt lat="44.54636" lon="4.6377">
        <ele>332.39999389648</ele>
        <time>2020-05-24T09:05:48Z</time>
      </trkpt>
      <trkpt lat="44.54638" lon="4.63769">
        <ele>332.39999389648</ele>
        <time>2020-05-24T09:05:49Z</time>
      </trkpt>
      <trkpt lat="44.5464" lon="4.63769">
        <ele>332.60000610352</ele>
        <time>2020-05-24T09:05:50Z</time>
      </trkpt>
      <trkpt lat="44.54642" lon="4.63769">
        <ele>333</ele>
        <time>2020-05-24T09:05:51Z</time>
      </trkpt>
      <trkpt lat="44.54644" lon="4.63768">
        <ele>333</ele>
        <time>2020-05-24T09:05:52Z</time>
      </trkpt>
      <trkpt lat="44.54646" lon="4.63768">
        <ele>333.20001220703</ele>
        <time>2020-05-24T09:05:53Z</time>
      </trkpt>
      <trkpt lat="44.54649" lon="4.63767">
        <ele>333.39999389648</ele>
        <time>2020-05-24T09:05:54Z</time>
      </trkpt>
      <trkpt lat="44.54651" lon="4.63767">
        <ele>333.60000610352</ele>
        <time>2020-05-24T09:05:55Z</time>
      </trkpt>
      <trkpt lat="44.54653" lon="4.63766">
        <ele>333.79998779297</ele>
        <time>2020-05-24T09:05:56Z</time>
      </trkpt>
      <trkpt lat="44.54656" lon="4.63766">
        <ele>334.20001220703</ele>
        <time>2020-05-24T09:05:57Z</time>
      </trkpt>
      <trkpt lat="44.54658" lon="4.63765">
        <ele>334.39999389648</ele>
        <time>2020-05-24T09:05:58Z</time>
      </trkpt>
      <trkpt lat="44.5466" lon="4.63765">
        <ele>334.60000610352</ele>
        <time>2020-05-24T09:05:59Z</time>
      </trkpt>
      <trkpt lat="44.54662" lon="4.63764">
        <ele>334.79998779297</ele>
        <time>2020-05-24T09:06:00Z</time>
      </trkpt>
      <trkpt lat="44.54664" lon="4.63763">
        <ele>335</ele>
        <time>2020-05-24T09:06:01Z</time>
      </trkpt>
      <trkpt lat="44.54666" lon="4.63763">
        <ele>335.20001220703</ele>
        <time>2020-05-24T09:06:02Z</time>
      </trkpt>
      <trkpt lat="44.54669" lon="4.63762">
        <ele>335.39999389648</ele>
        <time>2020-05-24T09:06:03Z</time>
      </trkpt>
      <trkpt lat="44.54671" lon="4.63762">
        <ele>335.60000610352</ele>
        <time>2020-05-24T09:06:04Z</time>
      </trkpt>
      <trkpt lat="44.54673" lon="4.63761">
        <ele>335.79998779297</ele>
        <time>2020-05-24T09:06:05Z</time>
      </trkpt>
      <trkpt lat="44.54675" lon="4.63761">
        <ele>336</ele>
        <time>2020-05-24T09:06:06Z</time>
      </trkpt>
      <trkpt lat="44.54677" lon="4.6376">
        <ele>336.39999389648</ele>
        <time>2020-05-24T09:06:07Z</time>
      </trkpt>
      <trkpt lat="44.54679" lon="4.6376">
        <ele>336.60000610352</ele>
        <time>2020-05-24T09:06:08Z</time>
      </trkpt>
      <trkpt lat="44.54682" lon="4.6376">
        <ele>336.60000610352</ele>
        <time>2020-05-24T09:06:09Z</time>
      </trkpt>
      <trkpt lat="44.54684" lon="4.6376">
        <ele>336.60000610352</ele>
        <time>2020-05-24T09:06:10Z</time>
      </trkpt>
      <trkpt lat="44.54687" lon="4.63759">
        <ele>336.60000610352</ele>
        <time>2020-05-24T09:06:11Z</time>
      </trkpt>
      <trkpt lat="44.54689" lon="4.63759">
        <ele>336.79998779297</ele>
        <time>2020-05-24T09:06:12Z</time>
      </trkpt>
      <trkpt lat="44.54691" lon="4.63758">
        <ele>337</ele>
        <time>2020-05-24T09:06:13Z</time>
      </trkpt>
      <trkpt lat="44.54693" lon="4.63757">
        <ele>337</ele>
        <time>2020-05-24T09:06:14Z</time>
      </trkpt>
      <trkpt lat="44.54695" lon="4.63756">
        <ele>337</ele>
        <time>2020-05-24T09:06:15Z</time>
      </trkpt>
      <trkpt lat="44.54697" lon="4.63755">
        <ele>337.39999389648</ele>
        <time>2020-05-24T09:06:16Z</time>
      </trkpt>
      <trkpt lat="44.54698" lon="4.63753">
        <ele>337.39999389648</ele>
        <time>2020-05-24T09:06:17Z</time>
      </trkpt>
      <trkpt lat="44.547" lon="4.63752">
        <ele>337.60000610352</ele>
        <time>2020-05-24T09:06:18Z</time>
      </trkpt>
      <trkpt lat="44.54701" lon="4.6375">
        <ele>338</ele>
        <time>2020-05-24T09:06:19Z</time>
      </trkpt>
      <trkpt lat="44.54702" lon="4.63749">
        <ele>338.20001220703</ele>
        <time>2020-05-24T09:06:20Z</time>
      </trkpt>
      <trkpt lat="44.54703" lon="4.63747">
        <ele>338.39999389648</ele>
        <time>2020-05-24T09:06:21Z</time>
      </trkpt>
      <trkpt lat="44.54704" lon="4.63746">
        <ele>338.60000610352</ele>
        <time>2020-05-24T09:06:22Z</time>
      </trkpt>
      <trkpt lat="44.54706" lon="4.63745">
        <ele>338.79998779297</ele>
        <time>2020-05-24T09:06:23Z</time>
      </trkpt>
      <trkpt lat="44.54707" lon="4.63744">
        <ele>339.20001220703</ele>
        <time>2020-05-24T09:06:24Z</time>
      </trkpt>
      <trkpt lat="44.54709" lon="4.63744">
        <ele>339.20001220703</ele>
        <time>2020-05-24T09:06:25Z</time>
      </trkpt>
      <trkpt lat="44.5471" lon="4.63744">
        <ele>339.79998779297</ele>
        <time>2020-05-24T09:06:26Z</time>
      </trkpt>
      <trkpt lat="44.54711" lon="4.63744">
        <ele>339.79998779297</ele>
        <time>2020-05-24T09:06:27Z</time>
      </trkpt>
      <trkpt lat="44.54713" lon="4.63744">
        <ele>340.20001220703</ele>
        <time>2020-05-24T09:06:28Z</time>
      </trkpt>
      <trkpt lat="44.54715" lon="4.63744">
        <ele>340.20001220703</ele>
        <time>2020-05-24T09:06:29Z</time>
      </trkpt>
      <trkpt lat="44.54718" lon="4.63744">
        <ele>340.39999389648</ele>
        <time>2020-05-24T09:06:30Z</time>
      </trkpt>
      <trkpt lat="44.5472" lon="4.63744">
        <ele>340.79998779297</ele>
        <time>2020-05-24T09:06:31Z</time>
      </trkpt>
      <trkpt lat="44.54723" lon="4.63743">
        <ele>341</ele>
        <time>2020-05-24T09:06:32Z</time>
      </trkpt>
      <trkpt lat="44.54725" lon="4.63742">
        <ele>341</ele>
        <time>2020-05-24T09:06:33Z</time>
      </trkpt>
      <trkpt lat="44.54727" lon="4.6374">
        <ele>341.20001220703</ele>
        <time>2020-05-24T09:06:34Z</time>
      </trkpt>
      <trkpt lat="44.54729" lon="4.63739">
        <ele>341</ele>
        <time>2020-05-24T09:06:35Z</time>
      </trkpt>
      <trkpt lat="44.54731" lon="4.63738">
        <ele>341.20001220703</ele>
        <time>2020-05-24T09:06:36Z</time>
      </trkpt>
      <trkpt lat="44.54733" lon="4.63736">
        <ele>341.20001220703</ele>
        <time>2020-05-24T09:06:37Z</time>
      </trkpt>
      <trkpt lat="44.54735" lon="4.63735">
        <ele>341.39999389648</ele>
        <time>2020-05-24T09:06:38Z</time>
      </trkpt>
      <trkpt lat="44.54737" lon="4.63734">
        <ele>341.39999389648</ele>
        <time>2020-05-24T09:06:39Z</time>
      </trkpt>
      <trkpt lat="44.54739" lon="4.63733">
        <ele>341.60000610352</ele>
        <time>2020-05-24T09:06:40Z</time>
      </trkpt>
      <trkpt lat="44.54741" lon="4.63733">
        <ele>341.60000610352</ele>
        <time>2020-05-24T09:06:41Z</time>
      </trkpt>
      <trkpt lat="44.54744" lon="4.63732">
        <ele>342</ele>
        <time>2020-05-24T09:06:42Z</time>
      </trkpt>
      <trkpt lat="44.54747" lon="4.63732">
        <ele>342.20001220703</ele>
        <time>2020-05-24T09:06:43Z</time>
      </trkpt>
      <trkpt lat="44.54749" lon="4.63731">
        <ele>342.39999389648</ele>
        <time>2020-05-24T09:06:44Z</time>
      </trkpt>
      <trkpt lat="44.54751" lon="4.6373">
        <ele>342.39999389648</ele>
        <time>2020-05-24T09:06:45Z</time>
      </trkpt>
      <trkpt lat="44.54754" lon="4.6373">
        <ele>342.79998779297</ele>
        <time>2020-05-24T09:06:46Z</time>
      </trkpt>
      <trkpt lat="44.54756" lon="4.6373">
        <ele>343.20001220703</ele>
        <time>2020-05-24T09:06:47Z</time>
      </trkpt>
      <trkpt lat="44.54759" lon="4.63731">
        <ele>343.20001220703</ele>
        <time>2020-05-24T09:06:48Z</time>
      </trkpt>
      <trkpt lat="44.54762" lon="4.63732">
        <ele>343.60000610352</ele>
        <time>2020-05-24T09:06:49Z</time>
      </trkpt>
      <trkpt lat="44.54765" lon="4.63732">
        <ele>343.79998779297</ele>
        <time>2020-05-24T09:06:50Z</time>
      </trkpt>
      <trkpt lat="44.54768" lon="4.63731">
        <ele>343.79998779297</ele>
        <time>2020-05-24T09:06:51Z</time>
      </trkpt>
      <trkpt lat="44.5477" lon="4.6373">
        <ele>344</ele>
        <time>2020-05-24T09:06:52Z</time>
      </trkpt>
      <trkpt lat="44.54773" lon="4.63728">
        <ele>344.20001220703</ele>
        <time>2020-05-24T09:06:53Z</time>
      </trkpt>
      <trkpt lat="44.54775" lon="4.63726">
        <ele>344.20001220703</ele>
        <time>2020-05-24T09:06:54Z</time>
      </trkpt>
      <trkpt lat="44.54777" lon="4.63725">
        <ele>344.20001220703</ele>
        <time>2020-05-24T09:06:55Z</time>
      </trkpt>
      <trkpt lat="44.54779" lon="4.63725">
        <ele>344.39999389648</ele>
        <time>2020-05-24T09:06:56Z</time>
      </trkpt>
      <trkpt lat="44.54781" lon="4.63725">
        <ele>344.39999389648</ele>
        <time>2020-05-24T09:06:57Z</time>
      </trkpt>
      <trkpt lat="44.54784" lon="4.63725">
        <ele>344.60000610352</ele>
        <time>2020-05-24T09:06:58Z</time>
      </trkpt>
      <trkpt lat="44.54786" lon="4.63725">
        <ele>344.60000610352</ele>
        <time>2020-05-24T09:06:59Z</time>
      </trkpt>
      <trkpt lat="44.54788" lon="4.63724">
        <ele>344.79998779297</ele>
        <time>2020-05-24T09:07:00Z</time>
      </trkpt>
      <trkpt lat="44.54791" lon="4.63724">
        <ele>345</ele>
        <time>2020-05-24T09:07:01Z</time>
      </trkpt>
      <trkpt lat="44.54794" lon="4.63724">
        <ele>345.20001220703</ele>
        <time>2020-05-24T09:07:02Z</time>
      </trkpt>
      <trkpt lat="44.54797" lon="4.63723">
        <ele>345.39999389648</ele>
        <time>2020-05-24T09:07:03Z</time>
      </trkpt>
      <trkpt lat="44.54799" lon="4.63722">
        <ele>345.60000610352</ele>
        <time>2020-05-24T09:07:04Z</time>
      </trkpt>
      <trkpt lat="44.54802" lon="4.63721">
        <ele>345.60000610352</ele>
        <time>2020-05-24T09:07:05Z</time>
      </trkpt>
      <trkpt lat="44.54805" lon="4.63719">
        <ele>346</ele>
        <time>2020-05-24T09:07:06Z</time>
      </trkpt>
      <trkpt lat="44.54808" lon="4.63718">
        <ele>346</ele>
        <time>2020-05-24T09:07:07Z</time>
      </trkpt>
      <trkpt lat="44.54811" lon="4.63718">
        <ele>346</ele>
        <time>2020-05-24T09:07:08Z</time>
      </trkpt>
      <trkpt lat="44.54813" lon="4.63716">
        <ele>346</ele>
        <time>2020-05-24T09:07:09Z</time>
      </trkpt>
      <trkpt lat="44.54815" lon="4.63714">
        <ele>346.20001220703</ele>
        <time>2020-05-24T09:07:10Z</time>
      </trkpt>
      <trkpt lat="44.54817" lon="4.63713">
        <ele>346.39999389648</ele>
        <time>2020-05-24T09:07:11Z</time>
      </trkpt>
      <trkpt lat="44.54819" lon="4.63712">
        <ele>346.60000610352</ele>
        <time>2020-05-24T09:07:12Z</time>
      </trkpt>
      <trkpt lat="44.54821" lon="4.63712">
        <ele>346.79998779297</ele>
        <time>2020-05-24T09:07:13Z</time>
      </trkpt>
      <trkpt lat="44.54822" lon="4.63712">
        <ele>346.79998779297</ele>
        <time>2020-05-24T09:07:14Z</time>
      </trkpt>
      <trkpt lat="44.54824" lon="4.63711">
        <ele>347</ele>
        <time>2020-05-24T09:07:15Z</time>
      </trkpt>
      <trkpt lat="44.54828" lon="4.6371">
        <ele>347</ele>
        <time>2020-05-24T09:07:17Z</time>
      </trkpt>
      <trkpt lat="44.54833" lon="4.63706">
        <ele>347</ele>
        <time>2020-05-24T09:07:19Z</time>
      </trkpt>
      <trkpt lat="44.54838" lon="4.63703">
        <ele>347.20001220703</ele>
        <time>2020-05-24T09:07:21Z</time>
      </trkpt>
      <trkpt lat="44.54841" lon="4.63701">
        <ele>347.20001220703</ele>
        <time>2020-05-24T09:07:22Z</time>
      </trkpt>
      <trkpt lat="44.54844" lon="4.637">
        <ele>347.20001220703</ele>
        <time>2020-05-24T09:07:23Z</time>
      </trkpt>
      <trkpt lat="44.54851" lon="4.63699">
        <ele>347</ele>
        <time>2020-05-24T09:07:25Z</time>
      </trkpt>
      <trkpt lat="44.54854" lon="4.63698">
        <ele>347.20001220703</ele>
        <time>2020-05-24T09:07:26Z</time>
      </trkpt>
      <trkpt lat="44.54856" lon="4.63697">
        <ele>347.39999389648</ele>
        <time>2020-05-24T09:07:27Z</time>
      </trkpt>
      <trkpt lat="44.54859" lon="4.63696">
        <ele>347.39999389648</ele>
        <time>2020-05-24T09:07:28Z</time>
      </trkpt>
      <trkpt lat="44.54864" lon="4.63695">
        <ele>347.39999389648</ele>
        <time>2020-05-24T09:07:30Z</time>
      </trkpt>
      <trkpt lat="44.5487" lon="4.63693">
        <ele>347.39999389648</ele>
        <time>2020-05-24T09:07:32Z</time>
      </trkpt>
      <trkpt lat="44.54873" lon="4.63691">
        <ele>347.60000610352</ele>
        <time>2020-05-24T09:07:33Z</time>
      </trkpt>
      <trkpt lat="44.54875" lon="4.6369">
        <ele>347.60000610352</ele>
        <time>2020-05-24T09:07:34Z</time>
      </trkpt>
      <trkpt lat="44.54878" lon="4.63688">
        <ele>347.79998779297</ele>
        <time>2020-05-24T09:07:35Z</time>
      </trkpt>
      <trkpt lat="44.5488" lon="4.63687">
        <ele>347.79998779297</ele>
        <time>2020-05-24T09:07:36Z</time>
      </trkpt>
      <trkpt lat="44.54883" lon="4.63685">
        <ele>348</ele>
        <time>2020-05-24T09:07:37Z</time>
      </trkpt>
      <trkpt lat="44.54885" lon="4.63684">
        <ele>348</ele>
        <time>2020-05-24T09:07:38Z</time>
      </trkpt>
      <trkpt lat="44.54887" lon="4.63683">
        <ele>347.79998779297</ele>
        <time>2020-05-24T09:07:39Z</time>
      </trkpt>
      <trkpt lat="44.54888" lon="4.63682">
        <ele>347.79998779297</ele>
        <time>2020-05-24T09:07:40Z</time>
      </trkpt>
      <trkpt lat="44.54889" lon="4.63681">
        <ele>348</ele>
        <time>2020-05-24T09:07:42Z</time>
      </trkpt>
      <trkpt lat="44.54889" lon="4.63679">
        <ele>349</ele>
        <time>2020-05-24T09:07:47Z</time>
      </trkpt>
      <trkpt lat="44.54889" lon="4.63679">
        <ele>349</ele>
        <time>2020-05-24T09:07:48Z</time>
      </trkpt>
      <trkpt lat="44.5489" lon="4.63678">
        <ele>349</ele>
        <time>2020-05-24T09:07:55Z</time>
      </trkpt>
      <trkpt lat="44.54889" lon="4.63677">
        <ele>349</ele>
        <time>2020-05-24T09:07:56Z</time>
      </trkpt>
      <trkpt lat="44.54888" lon="4.63676">
        <ele>349</ele>
        <time>2020-05-24T09:07:57Z</time>
      </trkpt>
      <trkpt lat="44.54888" lon="4.63675">
        <ele>349</ele>
        <time>2020-05-24T09:07:58Z</time>
      </trkpt>
      <trkpt lat="44.54887" lon="4.63674">
        <ele>349</ele>
        <time>2020-05-24T09:07:59Z</time>
      </trkpt>
      <trkpt lat="44.54887" lon="4.63673">
        <ele>349</ele>
        <time>2020-05-24T09:08:00Z</time>
      </trkpt>
      <trkpt lat="44.54887" lon="4.63672">
        <ele>349</ele>
        <time>2020-05-24T09:08:01Z</time>
      </trkpt>
      <trkpt lat="44.54887" lon="4.6367">
        <ele>349</ele>
        <time>2020-05-24T09:08:02Z</time>
      </trkpt>
      <trkpt lat="44.54887" lon="4.63669">
        <ele>349</ele>
        <time>2020-05-24T09:08:03Z</time>
      </trkpt>
      <trkpt lat="44.54887" lon="4.63668">
        <ele>349</ele>
        <time>2020-05-24T09:08:04Z</time>
      </trkpt>
      <trkpt lat="44.54887" lon="4.63666">
        <ele>349.20001220703</ele>
        <time>2020-05-24T09:08:05Z</time>
      </trkpt>
      <trkpt lat="44.54888" lon="4.63666">
        <ele>349.20001220703</ele>
        <time>2020-05-24T09:08:06Z</time>
      </trkpt>
      <trkpt lat="44.54889" lon="4.63665">
        <ele>349.20001220703</ele>
        <time>2020-05-24T09:08:07Z</time>
      </trkpt>
      <trkpt lat="44.54889" lon="4.63665">
        <ele>349.20001220703</ele>
        <time>2020-05-24T09:08:08Z</time>
      </trkpt>
      <trkpt lat="44.54889" lon="4.63665">
        <ele>349.39999389648</ele>
        <time>2020-05-24T09:08:10Z</time>
      </trkpt>
      <trkpt lat="44.5489" lon="4.63665">
        <ele>349.79998779297</ele>
        <time>2020-05-24T09:08:13Z</time>
      </trkpt>
      <trkpt lat="44.54891" lon="4.63664">
        <ele>349.79998779297</ele>
        <time>2020-05-24T09:08:14Z</time>
      </trkpt>
      <trkpt lat="44.54892" lon="4.63662">
        <ele>349.79998779297</ele>
        <time>2020-05-24T09:08:15Z</time>
      </trkpt>
      <trkpt lat="44.54894" lon="4.63659">
        <ele>350.20001220703</ele>
        <time>2020-05-24T09:08:16Z</time>
      </trkpt>
      <trkpt lat="44.54895" lon="4.63657">
        <ele>350.20001220703</ele>
        <time>2020-05-24T09:08:17Z</time>
      </trkpt>
      <trkpt lat="44.54896" lon="4.63655">
        <ele>350.20001220703</ele>
        <time>2020-05-24T09:08:18Z</time>
      </trkpt>
      <trkpt lat="44.54897" lon="4.63653">
        <ele>350.60000610352</ele>
        <time>2020-05-24T09:08:19Z</time>
      </trkpt>
      <trkpt lat="44.54899" lon="4.63652">
        <ele>351</ele>
        <time>2020-05-24T09:08:20Z</time>
      </trkpt>
      <trkpt lat="44.549" lon="4.6365">
        <ele>351.20001220703</ele>
        <time>2020-05-24T09:08:21Z</time>
      </trkpt>
      <trkpt lat="44.54902" lon="4.63648">
        <ele>351.20001220703</ele>
        <time>2020-05-24T09:08:22Z</time>
      </trkpt>
      <trkpt lat="44.54905" lon="4.63647">
        <ele>351.39999389648</ele>
        <time>2020-05-24T09:08:23Z</time>
      </trkpt>
      <trkpt lat="44.54907" lon="4.63646">
        <ele>351.60000610352</ele>
        <time>2020-05-24T09:08:24Z</time>
      </trkpt>
      <trkpt lat="44.54909" lon="4.63645">
        <ele>351.60000610352</ele>
        <time>2020-05-24T09:08:25Z</time>
      </trkpt>
      <trkpt lat="44.54911" lon="4.63643">
        <ele>351.79998779297</ele>
        <time>2020-05-24T09:08:26Z</time>
      </trkpt>
      <trkpt lat="44.54914" lon="4.63642">
        <ele>352.20001220703</ele>
        <time>2020-05-24T09:08:27Z</time>
      </trkpt>
      <trkpt lat="44.54916" lon="4.63641">
        <ele>352.60000610352</ele>
        <time>2020-05-24T09:08:28Z</time>
      </trkpt>
      <trkpt lat="44.54919" lon="4.6364">
        <ele>353</ele>
        <time>2020-05-24T09:08:29Z</time>
      </trkpt>
      <trkpt lat="44.54922" lon="4.63638">
        <ele>353</ele>
        <time>2020-05-24T09:08:30Z</time>
      </trkpt>
      <trkpt lat="44.54925" lon="4.63636">
        <ele>353.39999389648</ele>
        <time>2020-05-24T09:08:31Z</time>
      </trkpt>
      <trkpt lat="44.54935" lon="4.63628">
        <ele>353.39999389648</ele>
        <time>2020-05-24T09:08:34Z</time>
      </trkpt>
      <trkpt lat="44.54938" lon="4.63625">
        <ele>353.60000610352</ele>
        <time>2020-05-24T09:08:35Z</time>
      </trkpt>
      <trkpt lat="44.54942" lon="4.63622">
        <ele>353.60000610352</ele>
        <time>2020-05-24T09:08:36Z</time>
      </trkpt>
      <trkpt lat="44.54945" lon="4.6362">
        <ele>353.60000610352</ele>
        <time>2020-05-24T09:08:37Z</time>
      </trkpt>
      <trkpt lat="44.54949" lon="4.63619">
        <ele>353.60000610352</ele>
        <time>2020-05-24T09:08:38Z</time>
      </trkpt>
      <trkpt lat="44.54952" lon="4.63618">
        <ele>353.60000610352</ele>
        <time>2020-05-24T09:08:39Z</time>
      </trkpt>
      <trkpt lat="44.54955" lon="4.63616">
        <ele>353.79998779297</ele>
        <time>2020-05-24T09:08:40Z</time>
      </trkpt>
      <trkpt lat="44.54958" lon="4.63614">
        <ele>353.79998779297</ele>
        <time>2020-05-24T09:08:41Z</time>
      </trkpt>
      <trkpt lat="44.54961" lon="4.63613">
        <ele>353.79998779297</ele>
        <time>2020-05-24T09:08:42Z</time>
      </trkpt>
      <trkpt lat="44.54964" lon="4.63611">
        <ele>354.20001220703</ele>
        <time>2020-05-24T09:08:43Z</time>
      </trkpt>
      <trkpt lat="44.54967" lon="4.6361">
        <ele>354.20001220703</ele>
        <time>2020-05-24T09:08:44Z</time>
      </trkpt>
      <trkpt lat="44.54969" lon="4.63608">
        <ele>354.20001220703</ele>
        <time>2020-05-24T09:08:45Z</time>
      </trkpt>
      <trkpt lat="44.54973" lon="4.63603">
        <ele>354.60000610352</ele>
        <time>2020-05-24T09:08:47Z</time>
      </trkpt>
      <trkpt lat="44.54975" lon="4.63602">
        <ele>354.79998779297</ele>
        <time>2020-05-24T09:08:48Z</time>
      </trkpt>
      <trkpt lat="44.54977" lon="4.636">
        <ele>354.79998779297</ele>
        <time>2020-05-24T09:08:49Z</time>
      </trkpt>
      <trkpt lat="44.54979" lon="4.63598">
        <ele>354.79998779297</ele>
        <time>2020-05-24T09:08:50Z</time>
      </trkpt>
      <trkpt lat="44.54981" lon="4.63595">
        <ele>355</ele>
        <time>2020-05-24T09:08:51Z</time>
      </trkpt>
      <trkpt lat="44.54983" lon="4.63592">
        <ele>355.20001220703</ele>
        <time>2020-05-24T09:08:52Z</time>
      </trkpt>
      <trkpt lat="44.54985" lon="4.63588">
        <ele>355.20001220703</ele>
        <time>2020-05-24T09:08:53Z</time>
      </trkpt>
      <trkpt lat="44.54988" lon="4.63586">
        <ele>355.20001220703</ele>
        <time>2020-05-24T09:08:54Z</time>
      </trkpt>
      <trkpt lat="44.54991" lon="4.63586">
        <ele>355.20001220703</ele>
        <time>2020-05-24T09:08:55Z</time>
      </trkpt>
      <trkpt lat="44.54997" lon="4.63585">
        <ele>355.60000610352</ele>
        <time>2020-05-24T09:08:57Z</time>
      </trkpt>
      <trkpt lat="44.55" lon="4.63584">
        <ele>355.79998779297</ele>
        <time>2020-05-24T09:08:58Z</time>
      </trkpt>
      <trkpt lat="44.55003" lon="4.63583">
        <ele>355.79998779297</ele>
        <time>2020-05-24T09:08:59Z</time>
      </trkpt>
      <trkpt lat="44.55006" lon="4.63582">
        <ele>356</ele>
        <time>2020-05-24T09:09:00Z</time>
      </trkpt>
      <trkpt lat="44.55008" lon="4.63581">
        <ele>356</ele>
        <time>2020-05-24T09:09:01Z</time>
      </trkpt>
      <trkpt lat="44.55009" lon="4.6358">
        <ele>356</ele>
        <time>2020-05-24T09:09:02Z</time>
      </trkpt>
      <trkpt lat="44.5501" lon="4.63579">
        <ele>356.20001220703</ele>
        <time>2020-05-24T09:09:03Z</time>
      </trkpt>
      <trkpt lat="44.55011" lon="4.63578">
        <ele>356.20001220703</ele>
        <time>2020-05-24T09:09:04Z</time>
      </trkpt>
      <trkpt lat="44.55011" lon="4.63578">
        <ele>356.20001220703</ele>
        <time>2020-05-24T09:09:05Z</time>
      </trkpt>
      <trkpt lat="44.55012" lon="4.63577">
        <ele>356.20001220703</ele>
        <time>2020-05-24T09:09:06Z</time>
      </trkpt>
      <trkpt lat="44.55014" lon="4.63576">
        <ele>356.20001220703</ele>
        <time>2020-05-24T09:09:07Z</time>
      </trkpt>
      <trkpt lat="44.55015" lon="4.63575">
        <ele>356.20001220703</ele>
        <time>2020-05-24T09:09:08Z</time>
      </trkpt>
      <trkpt lat="44.55019" lon="4.63568">
        <ele>356.39999389648</ele>
        <time>2020-05-24T09:09:11Z</time>
      </trkpt>
      <trkpt lat="44.55021" lon="4.63566">
        <ele>356.60000610352</ele>
        <time>2020-05-24T09:09:12Z</time>
      </trkpt>
      <trkpt lat="44.55022" lon="4.63564">
        <ele>356.60000610352</ele>
        <time>2020-05-24T09:09:13Z</time>
      </trkpt>
      <trkpt lat="44.55024" lon="4.63563">
        <ele>356.60000610352</ele>
        <time>2020-05-24T09:09:14Z</time>
      </trkpt>
      <trkpt lat="44.55026" lon="4.63562">
        <ele>356.79998779297</ele>
        <time>2020-05-24T09:09:15Z</time>
      </trkpt>
      <trkpt lat="44.55028" lon="4.63562">
        <ele>356.60000610352</ele>
        <time>2020-05-24T09:09:16Z</time>
      </trkpt>
      <trkpt lat="44.55031" lon="4.63561">
        <ele>356.79998779297</ele>
        <time>2020-05-24T09:09:17Z</time>
      </trkpt>
      <trkpt lat="44.55033" lon="4.63561">
        <ele>356.79998779297</ele>
        <time>2020-05-24T09:09:18Z</time>
      </trkpt>
      <trkpt lat="44.55034" lon="4.6356">
        <ele>356.79998779297</ele>
        <time>2020-05-24T09:09:19Z</time>
      </trkpt>
      <trkpt lat="44.55036" lon="4.63559">
        <ele>356.79998779297</ele>
        <time>2020-05-24T09:09:20Z</time>
      </trkpt>
      <trkpt lat="44.55037" lon="4.63557">
        <ele>357</ele>
        <time>2020-05-24T09:09:21Z</time>
      </trkpt>
      <trkpt lat="44.55038" lon="4.63555">
        <ele>356.79998779297</ele>
        <time>2020-05-24T09:09:22Z</time>
      </trkpt>
      <trkpt lat="44.55039" lon="4.63553">
        <ele>357.20001220703</ele>
        <time>2020-05-24T09:09:23Z</time>
      </trkpt>
      <trkpt lat="44.5504" lon="4.63552">
        <ele>357</ele>
        <time>2020-05-24T09:09:24Z</time>
      </trkpt>
      <trkpt lat="44.55041" lon="4.6355">
        <ele>357.20001220703</ele>
        <time>2020-05-24T09:09:25Z</time>
      </trkpt>
      <trkpt lat="44.55042" lon="4.63547">
        <ele>357.20001220703</ele>
        <time>2020-05-24T09:09:26Z</time>
      </trkpt>
      <trkpt lat="44.55043" lon="4.63546">
        <ele>357.20001220703</ele>
        <time>2020-05-24T09:09:27Z</time>
      </trkpt>
      <trkpt lat="44.55044" lon="4.63544">
        <ele>357.39999389648</ele>
        <time>2020-05-24T09:09:28Z</time>
      </trkpt>
      <trkpt lat="44.55045" lon="4.63543">
        <ele>357.39999389648</ele>
        <time>2020-05-24T09:09:29Z</time>
      </trkpt>
      <trkpt lat="44.55047" lon="4.63541">
        <ele>357.39999389648</ele>
        <time>2020-05-24T09:09:30Z</time>
      </trkpt>
      <trkpt lat="44.55048" lon="4.6354">
        <ele>357.79998779297</ele>
        <time>2020-05-24T09:09:31Z</time>
      </trkpt>
      <trkpt lat="44.5505" lon="4.63538">
        <ele>357.79998779297</ele>
        <time>2020-05-24T09:09:32Z</time>
      </trkpt>
      <trkpt lat="44.55051" lon="4.63537">
        <ele>357.79998779297</ele>
        <time>2020-05-24T09:09:33Z</time>
      </trkpt>
      <trkpt lat="44.55052" lon="4.63535">
        <ele>357.79998779297</ele>
        <time>2020-05-24T09:09:34Z</time>
      </trkpt>
      <trkpt lat="44.55053" lon="4.63533">
        <ele>358</ele>
        <time>2020-05-24T09:09:35Z</time>
      </trkpt>
      <trkpt lat="44.55054" lon="4.6353">
        <ele>358.20001220703</ele>
        <time>2020-05-24T09:09:36Z</time>
      </trkpt>
      <trkpt lat="44.55055" lon="4.63528">
        <ele>358.60000610352</ele>
        <time>2020-05-24T09:09:37Z</time>
      </trkpt>
      <trkpt lat="44.55056" lon="4.63526">
        <ele>358.79998779297</ele>
        <time>2020-05-24T09:09:38Z</time>
      </trkpt>
      <trkpt lat="44.55057" lon="4.63524">
        <ele>359</ele>
        <time>2020-05-24T09:09:39Z</time>
      </trkpt>
      <trkpt lat="44.55058" lon="4.63522">
        <ele>359.39999389648</ele>
        <time>2020-05-24T09:09:40Z</time>
      </trkpt>
      <trkpt lat="44.55058" lon="4.6352">
        <ele>359.39999389648</ele>
        <time>2020-05-24T09:09:41Z</time>
      </trkpt>
      <trkpt lat="44.55059" lon="4.63517">
        <ele>359.79998779297</ele>
        <time>2020-05-24T09:09:42Z</time>
      </trkpt>
      <trkpt lat="44.55059" lon="4.63516">
        <ele>360.20001220703</ele>
        <time>2020-05-24T09:09:43Z</time>
      </trkpt>
      <trkpt lat="44.5506" lon="4.63516">
        <ele>360.60000610352</ele>
        <time>2020-05-24T09:09:44Z</time>
      </trkpt>
      <trkpt lat="44.5506" lon="4.63516">
        <ele>361.20001220703</ele>
        <time>2020-05-24T09:09:46Z</time>
      </trkpt>
      <trkpt lat="44.55061" lon="4.63516">
        <ele>363.20001220703</ele>
        <time>2020-05-24T09:09:56Z</time>
      </trkpt>
      <trkpt lat="44.55062" lon="4.63514">
        <ele>363.20001220703</ele>
        <time>2020-05-24T09:09:57Z</time>
      </trkpt>
      <trkpt lat="44.55062" lon="4.63512">
        <ele>363.39999389648</ele>
        <time>2020-05-24T09:09:58Z</time>
      </trkpt>
      <trkpt lat="44.55062" lon="4.6351">
        <ele>363.39999389648</ele>
        <time>2020-05-24T09:09:59Z</time>
      </trkpt>
      <trkpt lat="44.55062" lon="4.63508">
        <ele>363.39999389648</ele>
        <time>2020-05-24T09:10:00Z</time>
      </trkpt>
      <trkpt lat="44.55063" lon="4.63506">
        <ele>363.20001220703</ele>
        <time>2020-05-24T09:10:01Z</time>
      </trkpt>
      <trkpt lat="44.55063" lon="4.63504">
        <ele>363.39999389648</ele>
        <time>2020-05-24T09:10:02Z</time>
      </trkpt>
      <trkpt lat="44.55064" lon="4.63501">
        <ele>363.39999389648</ele>
        <time>2020-05-24T09:10:03Z</time>
      </trkpt>
      <trkpt lat="44.55064" lon="4.63498">
        <ele>363.39999389648</ele>
        <time>2020-05-24T09:10:04Z</time>
      </trkpt>
      <trkpt lat="44.55065" lon="4.63495">
        <ele>363.39999389648</ele>
        <time>2020-05-24T09:10:05Z</time>
      </trkpt>
      <trkpt lat="44.55066" lon="4.63493">
        <ele>363.60000610352</ele>
        <time>2020-05-24T09:10:06Z</time>
      </trkpt>
      <trkpt lat="44.55066" lon="4.63492">
        <ele>364</ele>
        <time>2020-05-24T09:10:07Z</time>
      </trkpt>
      <trkpt lat="44.55067" lon="4.63491">
        <ele>364.20001220703</ele>
        <time>2020-05-24T09:10:08Z</time>
      </trkpt>
      <trkpt lat="44.55067" lon="4.63491">
        <ele>364.39999389648</ele>
        <time>2020-05-24T09:10:09Z</time>
      </trkpt>
      <trkpt lat="44.55068" lon="4.6349">
        <ele>364.79998779297</ele>
        <time>2020-05-24T09:10:10Z</time>
      </trkpt>
      <trkpt lat="44.55069" lon="4.63489">
        <ele>364.79998779297</ele>
        <time>2020-05-24T09:10:11Z</time>
      </trkpt>
      <trkpt lat="44.5507" lon="4.63488">
        <ele>365.20001220703</ele>
        <time>2020-05-24T09:10:12Z</time>
      </trkpt>
      <trkpt lat="44.55072" lon="4.63487">
        <ele>365.20001220703</ele>
        <time>2020-05-24T09:10:13Z</time>
      </trkpt>
      <trkpt lat="44.55073" lon="4.63487">
        <ele>365.39999389648</ele>
        <time>2020-05-24T09:10:14Z</time>
      </trkpt>
      <trkpt lat="44.55075" lon="4.63486">
        <ele>366</ele>
        <time>2020-05-24T09:10:15Z</time>
      </trkpt>
      <trkpt lat="44.55077" lon="4.63484">
        <ele>366</ele>
        <time>2020-05-24T09:10:16Z</time>
      </trkpt>
      <trkpt lat="44.55079" lon="4.63482">
        <ele>366.20001220703</ele>
        <time>2020-05-24T09:10:17Z</time>
      </trkpt>
      <trkpt lat="44.5508" lon="4.63481">
        <ele>366.39999389648</ele>
        <time>2020-05-24T09:10:18Z</time>
      </trkpt>
      <trkpt lat="44.55082" lon="4.63479">
        <ele>366.60000610352</ele>
        <time>2020-05-24T09:10:19Z</time>
      </trkpt>
      <trkpt lat="44.55083" lon="4.63476">
        <ele>366.60000610352</ele>
        <time>2020-05-24T09:10:20Z</time>
      </trkpt>
      <trkpt lat="44.55085" lon="4.63474">
        <ele>366.79998779297</ele>
        <time>2020-05-24T09:10:21Z</time>
      </trkpt>
      <trkpt lat="44.55086" lon="4.63471">
        <ele>367</ele>
        <time>2020-05-24T09:10:22Z</time>
      </trkpt>
      <trkpt lat="44.55087" lon="4.63468">
        <ele>367</ele>
        <time>2020-05-24T09:10:23Z</time>
      </trkpt>
      <trkpt lat="44.55088" lon="4.63466">
        <ele>367.20001220703</ele>
        <time>2020-05-24T09:10:24Z</time>
      </trkpt>
      <trkpt lat="44.5509" lon="4.63465">
        <ele>367.39999389648</ele>
        <time>2020-05-24T09:10:25Z</time>
      </trkpt>
      <trkpt lat="44.55091" lon="4.63464">
        <ele>367.79998779297</ele>
        <time>2020-05-24T09:10:26Z</time>
      </trkpt>
      <trkpt lat="44.55093" lon="4.63463">
        <ele>368.20001220703</ele>
        <time>2020-05-24T09:10:27Z</time>
      </trkpt>
      <trkpt lat="44.55095" lon="4.63462">
        <ele>368.20001220703</ele>
        <time>2020-05-24T09:10:28Z</time>
      </trkpt>
      <trkpt lat="44.55096" lon="4.63461">
        <ele>368.39999389648</ele>
        <time>2020-05-24T09:10:29Z</time>
      </trkpt>
      <trkpt lat="44.55098" lon="4.63461">
        <ele>368.60000610352</ele>
        <time>2020-05-24T09:10:30Z</time>
      </trkpt>
      <trkpt lat="44.55099" lon="4.6346">
        <ele>369</ele>
        <time>2020-05-24T09:10:31Z</time>
      </trkpt>
      <trkpt lat="44.55101" lon="4.6346">
        <ele>369.20001220703</ele>
        <time>2020-05-24T09:10:32Z</time>
      </trkpt>
      <trkpt lat="44.55103" lon="4.63459">
        <ele>369.20001220703</ele>
        <time>2020-05-24T09:10:33Z</time>
      </trkpt>
      <trkpt lat="44.55104" lon="4.63459">
        <ele>369.79998779297</ele>
        <time>2020-05-24T09:10:34Z</time>
      </trkpt>
      <trkpt lat="44.55106" lon="4.63458">
        <ele>370.20001220703</ele>
        <time>2020-05-24T09:10:35Z</time>
      </trkpt>
      <trkpt lat="44.55108" lon="4.63457">
        <ele>370.39999389648</ele>
        <time>2020-05-24T09:10:36Z</time>
      </trkpt>
      <trkpt lat="44.5511" lon="4.63456">
        <ele>370.79998779297</ele>
        <time>2020-05-24T09:10:37Z</time>
      </trkpt>
      <trkpt lat="44.55112" lon="4.63456">
        <ele>371</ele>
        <time>2020-05-24T09:10:38Z</time>
      </trkpt>
      <trkpt lat="44.55114" lon="4.63455">
        <ele>371.20001220703</ele>
        <time>2020-05-24T09:10:39Z</time>
      </trkpt>
      <trkpt lat="44.55116" lon="4.63454">
        <ele>371.60000610352</ele>
        <time>2020-05-24T09:10:40Z</time>
      </trkpt>
      <trkpt lat="44.55118" lon="4.63453">
        <ele>371.60000610352</ele>
        <time>2020-05-24T09:10:41Z</time>
      </trkpt>
      <trkpt lat="44.55119" lon="4.63452">
        <ele>372.39999389648</ele>
        <time>2020-05-24T09:10:42Z</time>
      </trkpt>
      <trkpt lat="44.55121" lon="4.63452">
        <ele>372.60000610352</ele>
        <time>2020-05-24T09:10:43Z</time>
      </trkpt>
      <trkpt lat="44.55123" lon="4.63452">
        <ele>372.79998779297</ele>
        <time>2020-05-24T09:10:44Z</time>
      </trkpt>
      <trkpt lat="44.55125" lon="4.63451">
        <ele>372.79998779297</ele>
        <time>2020-05-24T09:10:45Z</time>
      </trkpt>
      <trkpt lat="44.55127" lon="4.6345">
        <ele>373.20001220703</ele>
        <time>2020-05-24T09:10:46Z</time>
      </trkpt>
      <trkpt lat="44.55129" lon="4.63449">
        <ele>373.39999389648</ele>
        <time>2020-05-24T09:10:47Z</time>
      </trkpt>
      <trkpt lat="44.55131" lon="4.63448">
        <ele>373.60000610352</ele>
        <time>2020-05-24T09:10:48Z</time>
      </trkpt>
      <trkpt lat="44.55133" lon="4.63446">
        <ele>373.79998779297</ele>
        <time>2020-05-24T09:10:49Z</time>
      </trkpt>
      <trkpt lat="44.55135" lon="4.63444">
        <ele>374.20001220703</ele>
        <time>2020-05-24T09:10:50Z</time>
      </trkpt>
      <trkpt lat="44.55136" lon="4.63442">
        <ele>374.60000610352</ele>
        <time>2020-05-24T09:10:51Z</time>
      </trkpt>
      <trkpt lat="44.55138" lon="4.63441">
        <ele>375</ele>
        <time>2020-05-24T09:10:52Z</time>
      </trkpt>
      <trkpt lat="44.5514" lon="4.63439">
        <ele>375</ele>
        <time>2020-05-24T09:10:53Z</time>
      </trkpt>
      <trkpt lat="44.55142" lon="4.63438">
        <ele>375.20001220703</ele>
        <time>2020-05-24T09:10:54Z</time>
      </trkpt>
      <trkpt lat="44.55143" lon="4.63436">
        <ele>375.20001220703</ele>
        <time>2020-05-24T09:10:55Z</time>
      </trkpt>
      <trkpt lat="44.55145" lon="4.63434">
        <ele>375.39999389648</ele>
        <time>2020-05-24T09:10:56Z</time>
      </trkpt>
      <trkpt lat="44.55147" lon="4.63433">
        <ele>375.39999389648</ele>
        <time>2020-05-24T09:10:57Z</time>
      </trkpt>
      <trkpt lat="44.55149" lon="4.63433">
        <ele>375.60000610352</ele>
        <time>2020-05-24T09:10:58Z</time>
      </trkpt>
      <trkpt lat="44.55151" lon="4.63433">
        <ele>375.60000610352</ele>
        <time>2020-05-24T09:10:59Z</time>
      </trkpt>
      <trkpt lat="44.55152" lon="4.63432">
        <ele>375.79998779297</ele>
        <time>2020-05-24T09:11:00Z</time>
      </trkpt>
      <trkpt lat="44.55154" lon="4.63431">
        <ele>376.20001220703</ele>
        <time>2020-05-24T09:11:01Z</time>
      </trkpt>
      <trkpt lat="44.55156" lon="4.6343">
        <ele>376.20001220703</ele>
        <time>2020-05-24T09:11:02Z</time>
      </trkpt>
      <trkpt lat="44.55158" lon="4.63429">
        <ele>376.39999389648</ele>
        <time>2020-05-24T09:11:03Z</time>
      </trkpt>
      <trkpt lat="44.5516" lon="4.63429">
        <ele>376.60000610352</ele>
        <time>2020-05-24T09:11:04Z</time>
      </trkpt>
      <trkpt lat="44.55162" lon="4.63428">
        <ele>376.79998779297</ele>
        <time>2020-05-24T09:11:05Z</time>
      </trkpt>
      <trkpt lat="44.55164" lon="4.63427">
        <ele>377</ele>
        <time>2020-05-24T09:11:06Z</time>
      </trkpt>
      <trkpt lat="44.55166" lon="4.63427">
        <ele>377</ele>
        <time>2020-05-24T09:11:07Z</time>
      </trkpt>
      <trkpt lat="44.55168" lon="4.63427">
        <ele>377.39999389648</ele>
        <time>2020-05-24T09:11:08Z</time>
      </trkpt>
      <trkpt lat="44.55171" lon="4.63426">
        <ele>377.60000610352</ele>
        <time>2020-05-24T09:11:09Z</time>
      </trkpt>
      <trkpt lat="44.55173" lon="4.63426">
        <ele>378</ele>
        <time>2020-05-24T09:11:10Z</time>
      </trkpt>
      <trkpt lat="44.55175" lon="4.63426">
        <ele>378.20001220703</ele>
        <time>2020-05-24T09:11:11Z</time>
      </trkpt>
      <trkpt lat="44.55177" lon="4.63426">
        <ele>378.39999389648</ele>
        <time>2020-05-24T09:11:12Z</time>
      </trkpt>
      <trkpt lat="44.55179" lon="4.63426">
        <ele>378.79998779297</ele>
        <time>2020-05-24T09:11:13Z</time>
      </trkpt>
      <trkpt lat="44.55181" lon="4.63426">
        <ele>379</ele>
        <time>2020-05-24T09:11:14Z</time>
      </trkpt>
      <trkpt lat="44.55183" lon="4.63426">
        <ele>379.20001220703</ele>
        <time>2020-05-24T09:11:15Z</time>
      </trkpt>
      <trkpt lat="44.55185" lon="4.63425">
        <ele>379.20001220703</ele>
        <time>2020-05-24T09:11:16Z</time>
      </trkpt>
      <trkpt lat="44.55188" lon="4.63424">
        <ele>379.39999389648</ele>
        <time>2020-05-24T09:11:17Z</time>
      </trkpt>
      <trkpt lat="44.5519" lon="4.63424">
        <ele>379.60000610352</ele>
        <time>2020-05-24T09:11:18Z</time>
      </trkpt>
      <trkpt lat="44.55192" lon="4.63425">
        <ele>379.79998779297</ele>
        <time>2020-05-24T09:11:19Z</time>
      </trkpt>
      <trkpt lat="44.55193" lon="4.63425">
        <ele>379.79998779297</ele>
        <time>2020-05-24T09:11:20Z</time>
      </trkpt>
      <trkpt lat="44.55195" lon="4.63425">
        <ele>380</ele>
        <time>2020-05-24T09:11:21Z</time>
      </trkpt>
      <trkpt lat="44.55198" lon="4.63425">
        <ele>380</ele>
        <time>2020-05-24T09:11:22Z</time>
      </trkpt>
      <trkpt lat="44.55199" lon="4.63424">
        <ele>380.20001220703</ele>
        <time>2020-05-24T09:11:23Z</time>
      </trkpt>
      <trkpt lat="44.55201" lon="4.63424">
        <ele>380.60000610352</ele>
        <time>2020-05-24T09:11:24Z</time>
      </trkpt>
      <trkpt lat="44.55203" lon="4.63424">
        <ele>380.79998779297</ele>
        <time>2020-05-24T09:11:25Z</time>
      </trkpt>
      <trkpt lat="44.55205" lon="4.63425">
        <ele>380.79998779297</ele>
        <time>2020-05-24T09:11:26Z</time>
      </trkpt>
      <trkpt lat="44.55207" lon="4.63426">
        <ele>381.20001220703</ele>
        <time>2020-05-24T09:11:27Z</time>
      </trkpt>
      <trkpt lat="44.55208" lon="4.63426">
        <ele>381.60000610352</ele>
        <time>2020-05-24T09:11:28Z</time>
      </trkpt>
      <trkpt lat="44.55211" lon="4.63426">
        <ele>381.39999389648</ele>
        <time>2020-05-24T09:11:29Z</time>
      </trkpt>
      <trkpt lat="44.55213" lon="4.63425">
        <ele>381.60000610352</ele>
        <time>2020-05-24T09:11:30Z</time>
      </trkpt>
      <trkpt lat="44.55214" lon="4.63424">
        <ele>381.60000610352</ele>
        <time>2020-05-24T09:11:31Z</time>
      </trkpt>
      <trkpt lat="44.55216" lon="4.63423">
        <ele>381.79998779297</ele>
        <time>2020-05-24T09:11:32Z</time>
      </trkpt>
      <trkpt lat="44.55218" lon="4.63423">
        <ele>381.60000610352</ele>
        <time>2020-05-24T09:11:33Z</time>
      </trkpt>
      <trkpt lat="44.5522" lon="4.63423">
        <ele>381.79998779297</ele>
        <time>2020-05-24T09:11:34Z</time>
      </trkpt>
      <trkpt lat="44.55223" lon="4.63423">
        <ele>381.79998779297</ele>
        <time>2020-05-24T09:11:35Z</time>
      </trkpt>
      <trkpt lat="44.55225" lon="4.63423">
        <ele>381.79998779297</ele>
        <time>2020-05-24T09:11:36Z</time>
      </trkpt>
      <trkpt lat="44.55228" lon="4.63423">
        <ele>382</ele>
        <time>2020-05-24T09:11:37Z</time>
      </trkpt>
      <trkpt lat="44.5523" lon="4.63422">
        <ele>382</ele>
        <time>2020-05-24T09:11:38Z</time>
      </trkpt>
      <trkpt lat="44.55233" lon="4.63422">
        <ele>382</ele>
        <time>2020-05-24T09:11:39Z</time>
      </trkpt>
      <trkpt lat="44.55236" lon="4.63421">
        <ele>382.20001220703</ele>
        <time>2020-05-24T09:11:40Z</time>
      </trkpt>
      <trkpt lat="44.55238" lon="4.63421">
        <ele>382.20001220703</ele>
        <time>2020-05-24T09:11:41Z</time>
      </trkpt>
      <trkpt lat="44.55244" lon="4.63422">
        <ele>382.39999389648</ele>
        <time>2020-05-24T09:11:43Z</time>
      </trkpt>
      <trkpt lat="44.55246" lon="4.63421">
        <ele>382.39999389648</ele>
        <time>2020-05-24T09:11:44Z</time>
      </trkpt>
      <trkpt lat="44.55248" lon="4.6342">
        <ele>382.39999389648</ele>
        <time>2020-05-24T09:11:45Z</time>
      </trkpt>
      <trkpt lat="44.55253" lon="4.63417">
        <ele>382.39999389648</ele>
        <time>2020-05-24T09:11:47Z</time>
      </trkpt>
      <trkpt lat="44.55254" lon="4.63415">
        <ele>382.39999389648</ele>
        <time>2020-05-24T09:11:48Z</time>
      </trkpt>
      <trkpt lat="44.55256" lon="4.63413">
        <ele>382.60000610352</ele>
        <time>2020-05-24T09:11:49Z</time>
      </trkpt>
      <trkpt lat="44.55257" lon="4.63412">
        <ele>382.60000610352</ele>
        <time>2020-05-24T09:11:50Z</time>
      </trkpt>
      <trkpt lat="44.55259" lon="4.6341">
        <ele>382.60000610352</ele>
        <time>2020-05-24T09:11:51Z</time>
      </trkpt>
      <trkpt lat="44.55261" lon="4.63409">
        <ele>382.60000610352</ele>
        <time>2020-05-24T09:11:52Z</time>
      </trkpt>
      <trkpt lat="44.55263" lon="4.63408">
        <ele>382.60000610352</ele>
        <time>2020-05-24T09:11:53Z</time>
      </trkpt>
      <trkpt lat="44.55265" lon="4.63407">
        <ele>382.60000610352</ele>
        <time>2020-05-24T09:11:54Z</time>
      </trkpt>
      <trkpt lat="44.55267" lon="4.63407">
        <ele>382.79998779297</ele>
        <time>2020-05-24T09:11:55Z</time>
      </trkpt>
      <trkpt lat="44.55269" lon="4.63408">
        <ele>383</ele>
        <time>2020-05-24T09:11:56Z</time>
      </trkpt>
      <trkpt lat="44.55274" lon="4.63409">
        <ele>383.20001220703</ele>
        <time>2020-05-24T09:11:58Z</time>
      </trkpt>
      <trkpt lat="44.55276" lon="4.63409">
        <ele>383.20001220703</ele>
        <time>2020-05-24T09:11:59Z</time>
      </trkpt>
      <trkpt lat="44.55277" lon="4.63408">
        <ele>383.60000610352</ele>
        <time>2020-05-24T09:12:00Z</time>
      </trkpt>
      <trkpt lat="44.55279" lon="4.63408">
        <ele>383.60000610352</ele>
        <time>2020-05-24T09:12:01Z</time>
      </trkpt>
      <trkpt lat="44.55281" lon="4.63409">
        <ele>383.79998779297</ele>
        <time>2020-05-24T09:12:02Z</time>
      </trkpt>
      <trkpt lat="44.55289" lon="4.6341">
        <ele>384.20001220703</ele>
        <time>2020-05-24T09:12:05Z</time>
      </trkpt>
      <trkpt lat="44.55292" lon="4.6341">
        <ele>384.20001220703</ele>
        <time>2020-05-24T09:12:06Z</time>
      </trkpt>
      <trkpt lat="44.55294" lon="4.6341">
        <ele>384.20001220703</ele>
        <time>2020-05-24T09:12:07Z</time>
      </trkpt>
      <trkpt lat="44.55296" lon="4.6341">
        <ele>384.20001220703</ele>
        <time>2020-05-24T09:12:08Z</time>
      </trkpt>
      <trkpt lat="44.55299" lon="4.63412">
        <ele>384.20001220703</ele>
        <time>2020-05-24T09:12:09Z</time>
      </trkpt>
      <trkpt lat="44.55301" lon="4.63414">
        <ele>384.20001220703</ele>
        <time>2020-05-24T09:12:10Z</time>
      </trkpt>
      <trkpt lat="44.55306" lon="4.63419">
        <ele>384.39999389648</ele>
        <time>2020-05-24T09:12:12Z</time>
      </trkpt>
      <trkpt lat="44.55308" lon="4.63421">
        <ele>384.39999389648</ele>
        <time>2020-05-24T09:12:13Z</time>
      </trkpt>
      <trkpt lat="44.55311" lon="4.63423">
        <ele>384.60000610352</ele>
        <time>2020-05-24T09:12:14Z</time>
      </trkpt>
      <trkpt lat="44.55314" lon="4.63424">
        <ele>384.39999389648</ele>
        <time>2020-05-24T09:12:15Z</time>
      </trkpt>
      <trkpt lat="44.55317" lon="4.63424">
        <ele>384.60000610352</ele>
        <time>2020-05-24T09:12:16Z</time>
      </trkpt>
      <trkpt lat="44.55319" lon="4.63424">
        <ele>384.60000610352</ele>
        <time>2020-05-24T09:12:17Z</time>
      </trkpt>
      <trkpt lat="44.55325" lon="4.63423">
        <ele>384.39999389648</ele>
        <time>2020-05-24T09:12:19Z</time>
      </trkpt>
      <trkpt lat="44.55328" lon="4.63422">
        <ele>384.39999389648</ele>
        <time>2020-05-24T09:12:20Z</time>
      </trkpt>
      <trkpt lat="44.55333" lon="4.63419">
        <ele>384.39999389648</ele>
        <time>2020-05-24T09:12:22Z</time>
      </trkpt>
      <trkpt lat="44.55335" lon="4.63417">
        <ele>384.39999389648</ele>
        <time>2020-05-24T09:12:23Z</time>
      </trkpt>
      <trkpt lat="44.55337" lon="4.63415">
        <ele>384.60000610352</ele>
        <time>2020-05-24T09:12:24Z</time>
      </trkpt>
      <trkpt lat="44.55339" lon="4.63416">
        <ele>384.39999389648</ele>
        <time>2020-05-24T09:12:25Z</time>
      </trkpt>
      <trkpt lat="44.55341" lon="4.63417">
        <ele>384.60000610352</ele>
        <time>2020-05-24T09:12:26Z</time>
      </trkpt>
      <trkpt lat="44.55343" lon="4.63419">
        <ele>384.60000610352</ele>
        <time>2020-05-24T09:12:27Z</time>
      </trkpt>
      <trkpt lat="44.55346" lon="4.63421">
        <ele>384.79998779297</ele>
        <time>2020-05-24T09:12:28Z</time>
      </trkpt>
      <trkpt lat="44.55349" lon="4.63422">
        <ele>384.60000610352</ele>
        <time>2020-05-24T09:12:29Z</time>
      </trkpt>
      <trkpt lat="44.55354" lon="4.63423">
        <ele>384.79998779297</ele>
        <time>2020-05-24T09:12:31Z</time>
      </trkpt>
      <trkpt lat="44.55356" lon="4.63422">
        <ele>384.79998779297</ele>
        <time>2020-05-24T09:12:32Z</time>
      </trkpt>
      <trkpt lat="44.55358" lon="4.63421">
        <ele>384.79998779297</ele>
        <time>2020-05-24T09:12:33Z</time>
      </trkpt>
      <trkpt lat="44.5536" lon="4.63421">
        <ele>385</ele>
        <time>2020-05-24T09:12:34Z</time>
      </trkpt>
      <trkpt lat="44.55363" lon="4.63421">
        <ele>385</ele>
        <time>2020-05-24T09:12:35Z</time>
      </trkpt>
      <trkpt lat="44.55365" lon="4.63421">
        <ele>385</ele>
        <time>2020-05-24T09:12:36Z</time>
      </trkpt>
      <trkpt lat="44.55367" lon="4.6342">
        <ele>385</ele>
        <time>2020-05-24T09:12:37Z</time>
      </trkpt>
      <trkpt lat="44.5537" lon="4.63419">
        <ele>385.20001220703</ele>
        <time>2020-05-24T09:12:38Z</time>
      </trkpt>
      <trkpt lat="44.55372" lon="4.63417">
        <ele>385.20001220703</ele>
        <time>2020-05-24T09:12:39Z</time>
      </trkpt>
      <trkpt lat="44.55373" lon="4.63416">
        <ele>385.20001220703</ele>
        <time>2020-05-24T09:12:40Z</time>
      </trkpt>
      <trkpt lat="44.55375" lon="4.63415">
        <ele>385.20001220703</ele>
        <time>2020-05-24T09:12:41Z</time>
      </trkpt>
      <trkpt lat="44.55377" lon="4.63415">
        <ele>385.20001220703</ele>
        <time>2020-05-24T09:12:42Z</time>
      </trkpt>
      <trkpt lat="44.55378" lon="4.63415">
        <ele>385.20001220703</ele>
        <time>2020-05-24T09:12:43Z</time>
      </trkpt>
      <trkpt lat="44.5538" lon="4.63416">
        <ele>385.39999389648</ele>
        <time>2020-05-24T09:12:44Z</time>
      </trkpt>
      <trkpt lat="44.55381" lon="4.63416">
        <ele>385.39999389648</ele>
        <time>2020-05-24T09:12:45Z</time>
      </trkpt>
      <trkpt lat="44.55384" lon="4.63417">
        <ele>385.39999389648</ele>
        <time>2020-05-24T09:12:46Z</time>
      </trkpt>
      <trkpt lat="44.55394" lon="4.63421">
        <ele>385.79998779297</ele>
        <time>2020-05-24T09:12:50Z</time>
      </trkpt>
      <trkpt lat="44.55397" lon="4.63422">
        <ele>385.79998779297</ele>
        <time>2020-05-24T09:12:51Z</time>
      </trkpt>
      <trkpt lat="44.55402" lon="4.63424">
        <ele>385.79998779297</ele>
        <time>2020-05-24T09:12:53Z</time>
      </trkpt>
      <trkpt lat="44.55405" lon="4.63424">
        <ele>386</ele>
        <time>2020-05-24T09:12:54Z</time>
      </trkpt>
      <trkpt lat="44.55407" lon="4.63424">
        <ele>386</ele>
        <time>2020-05-24T09:12:55Z</time>
      </trkpt>
      <trkpt lat="44.5541" lon="4.63423">
        <ele>386</ele>
        <time>2020-05-24T09:12:56Z</time>
      </trkpt>
      <trkpt lat="44.55412" lon="4.63423">
        <ele>386</ele>
        <time>2020-05-24T09:12:57Z</time>
      </trkpt>
      <trkpt lat="44.55415" lon="4.63423">
        <ele>386.20001220703</ele>
        <time>2020-05-24T09:12:58Z</time>
      </trkpt>
      <trkpt lat="44.55417" lon="4.63424">
        <ele>386</ele>
        <time>2020-05-24T09:12:59Z</time>
      </trkpt>
      <trkpt lat="44.5542" lon="4.63426">
        <ele>386.20001220703</ele>
        <time>2020-05-24T09:13:00Z</time>
      </trkpt>
      <trkpt lat="44.55422" lon="4.63427">
        <ele>386.60000610352</ele>
        <time>2020-05-24T09:13:01Z</time>
      </trkpt>
      <trkpt lat="44.55424" lon="4.63427">
        <ele>386.79998779297</ele>
        <time>2020-05-24T09:13:02Z</time>
      </trkpt>
      <trkpt lat="44.55427" lon="4.63426">
        <ele>387.20001220703</ele>
        <time>2020-05-24T09:13:03Z</time>
      </trkpt>
      <trkpt lat="44.55429" lon="4.63426">
        <ele>387.20001220703</ele>
        <time>2020-05-24T09:13:04Z</time>
      </trkpt>
      <trkpt lat="44.55431" lon="4.63425">
        <ele>387.39999389648</ele>
        <time>2020-05-24T09:13:05Z</time>
      </trkpt>
      <trkpt lat="44.55432" lon="4.63424">
        <ele>387.39999389648</ele>
        <time>2020-05-24T09:13:06Z</time>
      </trkpt>
      <trkpt lat="44.55433" lon="4.63422">
        <ele>387.60000610352</ele>
        <time>2020-05-24T09:13:07Z</time>
      </trkpt>
      <trkpt lat="44.55435" lon="4.63419">
        <ele>387.60000610352</ele>
        <time>2020-05-24T09:13:08Z</time>
      </trkpt>
      <trkpt lat="44.55437" lon="4.63418">
        <ele>387.79998779297</ele>
        <time>2020-05-24T09:13:09Z</time>
      </trkpt>
      <trkpt lat="44.55439" lon="4.63418">
        <ele>387.79998779297</ele>
        <time>2020-05-24T09:13:10Z</time>
      </trkpt>
      <trkpt lat="44.5544" lon="4.6342">
        <ele>387.79998779297</ele>
        <time>2020-05-24T09:13:11Z</time>
      </trkpt>
      <trkpt lat="44.55441" lon="4.63421">
        <ele>388</ele>
        <time>2020-05-24T09:13:12Z</time>
      </trkpt>
      <trkpt lat="44.55443" lon="4.63423">
        <ele>388</ele>
        <time>2020-05-24T09:13:13Z</time>
      </trkpt>
      <trkpt lat="44.55445" lon="4.63425">
        <ele>388</ele>
        <time>2020-05-24T09:13:14Z</time>
      </trkpt>
      <trkpt lat="44.55446" lon="4.63427">
        <ele>388.20001220703</ele>
        <time>2020-05-24T09:13:15Z</time>
      </trkpt>
      <trkpt lat="44.55449" lon="4.63429">
        <ele>388.20001220703</ele>
        <time>2020-05-24T09:13:16Z</time>
      </trkpt>
      <trkpt lat="44.55454" lon="4.63433">
        <ele>388.60000610352</ele>
        <time>2020-05-24T09:13:18Z</time>
      </trkpt>
      <trkpt lat="44.55457" lon="4.63434">
        <ele>388.60000610352</ele>
        <time>2020-05-24T09:13:19Z</time>
      </trkpt>
      <trkpt lat="44.55459" lon="4.63435">
        <ele>388.39999389648</ele>
        <time>2020-05-24T09:13:20Z</time>
      </trkpt>
      <trkpt lat="44.55462" lon="4.63435">
        <ele>388.60000610352</ele>
        <time>2020-05-24T09:13:21Z</time>
      </trkpt>
      <trkpt lat="44.55465" lon="4.63436">
        <ele>388.60000610352</ele>
        <time>2020-05-24T09:13:22Z</time>
      </trkpt>
      <trkpt lat="44.55467" lon="4.63436">
        <ele>388.60000610352</ele>
        <time>2020-05-24T09:13:23Z</time>
      </trkpt>
      <trkpt lat="44.5547" lon="4.63437">
        <ele>388.79998779297</ele>
        <time>2020-05-24T09:13:24Z</time>
      </trkpt>
      <trkpt lat="44.55472" lon="4.63439">
        <ele>388.79998779297</ele>
        <time>2020-05-24T09:13:25Z</time>
      </trkpt>
      <trkpt lat="44.55475" lon="4.6344">
        <ele>388.79998779297</ele>
        <time>2020-05-24T09:13:26Z</time>
      </trkpt>
      <trkpt lat="44.55477" lon="4.63441">
        <ele>388.79998779297</ele>
        <time>2020-05-24T09:13:27Z</time>
      </trkpt>
      <trkpt lat="44.55479" lon="4.63443">
        <ele>389</ele>
        <time>2020-05-24T09:13:28Z</time>
      </trkpt>
      <trkpt lat="44.55484" lon="4.63446">
        <ele>389</ele>
        <time>2020-05-24T09:13:30Z</time>
      </trkpt>
      <trkpt lat="44.55486" lon="4.63448">
        <ele>389.39999389648</ele>
        <time>2020-05-24T09:13:31Z</time>
      </trkpt>
      <trkpt lat="44.55488" lon="4.6345">
        <ele>389.60000610352</ele>
        <time>2020-05-24T09:13:32Z</time>
      </trkpt>
      <trkpt lat="44.5549" lon="4.63452">
        <ele>389.79998779297</ele>
        <time>2020-05-24T09:13:33Z</time>
      </trkpt>
      <trkpt lat="44.55493" lon="4.63453">
        <ele>389.79998779297</ele>
        <time>2020-05-24T09:13:34Z</time>
      </trkpt>
      <trkpt lat="44.55495" lon="4.63454">
        <ele>389.79998779297</ele>
        <time>2020-05-24T09:13:35Z</time>
      </trkpt>
      <trkpt lat="44.55498" lon="4.63455">
        <ele>389.79998779297</ele>
        <time>2020-05-24T09:13:36Z</time>
      </trkpt>
      <trkpt lat="44.55508" lon="4.63454">
        <ele>390.20001220703</ele>
        <time>2020-05-24T09:13:40Z</time>
      </trkpt>
      <trkpt lat="44.55514" lon="4.63453">
        <ele>390.39999389648</ele>
        <time>2020-05-24T09:13:42Z</time>
      </trkpt>
      <trkpt lat="44.55516" lon="4.63453">
        <ele>390.60000610352</ele>
        <time>2020-05-24T09:13:43Z</time>
      </trkpt>
      <trkpt lat="44.55519" lon="4.63454">
        <ele>390.60000610352</ele>
        <time>2020-05-24T09:13:44Z</time>
      </trkpt>
      <trkpt lat="44.55521" lon="4.63456">
        <ele>390.79998779297</ele>
        <time>2020-05-24T09:13:45Z</time>
      </trkpt>
      <trkpt lat="44.55523" lon="4.63458">
        <ele>390.79998779297</ele>
        <time>2020-05-24T09:13:46Z</time>
      </trkpt>
      <trkpt lat="44.55525" lon="4.6346">
        <ele>390.79998779297</ele>
        <time>2020-05-24T09:13:47Z</time>
      </trkpt>
      <trkpt lat="44.55527" lon="4.63462">
        <ele>390.79998779297</ele>
        <time>2020-05-24T09:13:48Z</time>
      </trkpt>
      <trkpt lat="44.55528" lon="4.63464">
        <ele>391</ele>
        <time>2020-05-24T09:13:49Z</time>
      </trkpt>
      <trkpt lat="44.55529" lon="4.63466">
        <ele>391.20001220703</ele>
        <time>2020-05-24T09:13:50Z</time>
      </trkpt>
      <trkpt lat="44.55531" lon="4.63469">
        <ele>391.20001220703</ele>
        <time>2020-05-24T09:13:51Z</time>
      </trkpt>
      <trkpt lat="44.55532" lon="4.63472">
        <ele>391.20001220703</ele>
        <time>2020-05-24T09:13:52Z</time>
      </trkpt>
      <trkpt lat="44.55534" lon="4.63474">
        <ele>391.39999389648</ele>
        <time>2020-05-24T09:13:53Z</time>
      </trkpt>
      <trkpt lat="44.55536" lon="4.63476">
        <ele>391.60000610352</ele>
        <time>2020-05-24T09:13:54Z</time>
      </trkpt>
      <trkpt lat="44.55538" lon="4.63478">
        <ele>391.60000610352</ele>
        <time>2020-05-24T09:13:55Z</time>
      </trkpt>
      <trkpt lat="44.5554" lon="4.6348">
        <ele>392</ele>
        <time>2020-05-24T09:13:56Z</time>
      </trkpt>
      <trkpt lat="44.55541" lon="4.63482">
        <ele>392.20001220703</ele>
        <time>2020-05-24T09:13:57Z</time>
      </trkpt>
      <trkpt lat="44.55543" lon="4.63483">
        <ele>392.39999389648</ele>
        <time>2020-05-24T09:13:58Z</time>
      </trkpt>
      <trkpt lat="44.55545" lon="4.63484">
        <ele>392.60000610352</ele>
        <time>2020-05-24T09:13:59Z</time>
      </trkpt>
      <trkpt lat="44.55547" lon="4.63485">
        <ele>392.60000610352</ele>
        <time>2020-05-24T09:14:00Z</time>
      </trkpt>
      <trkpt lat="44.55549" lon="4.63485">
        <ele>392.79998779297</ele>
        <time>2020-05-24T09:14:01Z</time>
      </trkpt>
      <trkpt lat="44.55551" lon="4.63486">
        <ele>393</ele>
        <time>2020-05-24T09:14:02Z</time>
      </trkpt>
      <trkpt lat="44.55553" lon="4.63487">
        <ele>393.39999389648</ele>
        <time>2020-05-24T09:14:03Z</time>
      </trkpt>
      <trkpt lat="44.55554" lon="4.63489">
        <ele>394</ele>
        <time>2020-05-24T09:14:04Z</time>
      </trkpt>
      <trkpt lat="44.55556" lon="4.63491">
        <ele>394.39999389648</ele>
        <time>2020-05-24T09:14:05Z</time>
      </trkpt>
      <trkpt lat="44.55557" lon="4.63493">
        <ele>394.60000610352</ele>
        <time>2020-05-24T09:14:06Z</time>
      </trkpt>
      <trkpt lat="44.55558" lon="4.63496">
        <ele>394.60000610352</ele>
        <time>2020-05-24T09:14:07Z</time>
      </trkpt>
      <trkpt lat="44.5556" lon="4.63498">
        <ele>394.79998779297</ele>
        <time>2020-05-24T09:14:08Z</time>
      </trkpt>
      <trkpt lat="44.55561" lon="4.635">
        <ele>394.79998779297</ele>
        <time>2020-05-24T09:14:09Z</time>
      </trkpt>
      <trkpt lat="44.55563" lon="4.63502">
        <ele>395</ele>
        <time>2020-05-24T09:14:10Z</time>
      </trkpt>
      <trkpt lat="44.55564" lon="4.63504">
        <ele>395.20001220703</ele>
        <time>2020-05-24T09:14:11Z</time>
      </trkpt>
      <trkpt lat="44.55566" lon="4.63505">
        <ele>395.79998779297</ele>
        <time>2020-05-24T09:14:12Z</time>
      </trkpt>
      <trkpt lat="44.55568" lon="4.63506">
        <ele>396</ele>
        <time>2020-05-24T09:14:13Z</time>
      </trkpt>
      <trkpt lat="44.5557" lon="4.63506">
        <ele>396.39999389648</ele>
        <time>2020-05-24T09:14:14Z</time>
      </trkpt>
      <trkpt lat="44.55571" lon="4.63507">
        <ele>396.60000610352</ele>
        <time>2020-05-24T09:14:15Z</time>
      </trkpt>
      <trkpt lat="44.55573" lon="4.63507">
        <ele>396.79998779297</ele>
        <time>2020-05-24T09:14:16Z</time>
      </trkpt>
      <trkpt lat="44.55574" lon="4.63507">
        <ele>397.20001220703</ele>
        <time>2020-05-24T09:14:17Z</time>
      </trkpt>
      <trkpt lat="44.55576" lon="4.63507">
        <ele>397.20001220703</ele>
        <time>2020-05-24T09:14:18Z</time>
      </trkpt>
      <trkpt lat="44.55577" lon="4.63508">
        <ele>397.20001220703</ele>
        <time>2020-05-24T09:14:19Z</time>
      </trkpt>
      <trkpt lat="44.55579" lon="4.63509">
        <ele>397.39999389648</ele>
        <time>2020-05-24T09:14:20Z</time>
      </trkpt>
      <trkpt lat="44.5558" lon="4.63511">
        <ele>397.79998779297</ele>
        <time>2020-05-24T09:14:21Z</time>
      </trkpt>
      <trkpt lat="44.55582" lon="4.63513">
        <ele>398</ele>
        <time>2020-05-24T09:14:22Z</time>
      </trkpt>
      <trkpt lat="44.55584" lon="4.63514">
        <ele>398.39999389648</ele>
        <time>2020-05-24T09:14:23Z</time>
      </trkpt>
      <trkpt lat="44.55585" lon="4.63515">
        <ele>398.60000610352</ele>
        <time>2020-05-24T09:14:24Z</time>
      </trkpt>
      <trkpt lat="44.55587" lon="4.63514">
        <ele>399</ele>
        <time>2020-05-24T09:14:25Z</time>
      </trkpt>
      <trkpt lat="44.55588" lon="4.63514">
        <ele>399.20001220703</ele>
        <time>2020-05-24T09:14:26Z</time>
      </trkpt>
      <trkpt lat="44.5559" lon="4.63514">
        <ele>399.60000610352</ele>
        <time>2020-05-24T09:14:27Z</time>
      </trkpt>
      <trkpt lat="44.55592" lon="4.63514">
        <ele>399.79998779297</ele>
        <time>2020-05-24T09:14:28Z</time>
      </trkpt>
      <trkpt lat="44.55594" lon="4.63515">
        <ele>400</ele>
        <time>2020-05-24T09:14:29Z</time>
      </trkpt>
      <trkpt lat="44.55596" lon="4.63515">
        <ele>400</ele>
        <time>2020-05-24T09:14:30Z</time>
      </trkpt>
      <trkpt lat="44.55598" lon="4.63515">
        <ele>400.39999389648</ele>
        <time>2020-05-24T09:14:31Z</time>
      </trkpt>
      <trkpt lat="44.556" lon="4.63515">
        <ele>400.39999389648</ele>
        <time>2020-05-24T09:14:32Z</time>
      </trkpt>
      <trkpt lat="44.55603" lon="4.63516">
        <ele>400.60000610352</ele>
        <time>2020-05-24T09:14:33Z</time>
      </trkpt>
      <trkpt lat="44.55605" lon="4.63517">
        <ele>400.79998779297</ele>
        <time>2020-05-24T09:14:34Z</time>
      </trkpt>
      <trkpt lat="44.55606" lon="4.63517">
        <ele>401.20001220703</ele>
        <time>2020-05-24T09:14:35Z</time>
      </trkpt>
      <trkpt lat="44.55608" lon="4.63517">
        <ele>401.39999389648</ele>
        <time>2020-05-24T09:14:36Z</time>
      </trkpt>
      <trkpt lat="44.55609" lon="4.63517">
        <ele>401.79998779297</ele>
        <time>2020-05-24T09:14:37Z</time>
      </trkpt>
      <trkpt lat="44.5561" lon="4.63517">
        <ele>402</ele>
        <time>2020-05-24T09:14:38Z</time>
      </trkpt>
      <trkpt lat="44.55612" lon="4.63516">
        <ele>402</ele>
        <time>2020-05-24T09:14:39Z</time>
      </trkpt>
      <trkpt lat="44.55615" lon="4.63515">
        <ele>402.60000610352</ele>
        <time>2020-05-24T09:14:41Z</time>
      </trkpt>
      <trkpt lat="44.55617" lon="4.63514">
        <ele>402.79998779297</ele>
        <time>2020-05-24T09:14:42Z</time>
      </trkpt>
      <trkpt lat="44.5562" lon="4.63514">
        <ele>403</ele>
        <time>2020-05-24T09:14:44Z</time>
      </trkpt>
      <trkpt lat="44.55623" lon="4.63514">
        <ele>403</ele>
        <time>2020-05-24T09:14:45Z</time>
      </trkpt>
      <trkpt lat="44.55624" lon="4.63515">
        <ele>403.20001220703</ele>
        <time>2020-05-24T09:14:46Z</time>
      </trkpt>
      <trkpt lat="44.55626" lon="4.63517">
        <ele>403.20001220703</ele>
        <time>2020-05-24T09:14:47Z</time>
      </trkpt>
      <trkpt lat="44.55627" lon="4.63518">
        <ele>403.39999389648</ele>
        <time>2020-05-24T09:14:48Z</time>
      </trkpt>
      <trkpt lat="44.55629" lon="4.6352">
        <ele>403.39999389648</ele>
        <time>2020-05-24T09:14:49Z</time>
      </trkpt>
      <trkpt lat="44.55631" lon="4.63521">
        <ele>403.39999389648</ele>
        <time>2020-05-24T09:14:50Z</time>
      </trkpt>
      <trkpt lat="44.55633" lon="4.63522">
        <ele>403.39999389648</ele>
        <time>2020-05-24T09:14:51Z</time>
      </trkpt>
      <trkpt lat="44.55635" lon="4.63522">
        <ele>403.39999389648</ele>
        <time>2020-05-24T09:14:52Z</time>
      </trkpt>
      <trkpt lat="44.55637" lon="4.63522">
        <ele>403.39999389648</ele>
        <time>2020-05-24T09:14:53Z</time>
      </trkpt>
      <trkpt lat="44.55639" lon="4.63521">
        <ele>404</ele>
        <time>2020-05-24T09:14:54Z</time>
      </trkpt>
      <trkpt lat="44.5564" lon="4.63521">
        <ele>404.20001220703</ele>
        <time>2020-05-24T09:14:55Z</time>
      </trkpt>
      <trkpt lat="44.55642" lon="4.6352">
        <ele>404.79998779297</ele>
        <time>2020-05-24T09:14:56Z</time>
      </trkpt>
      <trkpt lat="44.55643" lon="4.6352">
        <ele>405</ele>
        <time>2020-05-24T09:14:57Z</time>
      </trkpt>
      <trkpt lat="44.55645" lon="4.63519">
        <ele>405</ele>
        <time>2020-05-24T09:14:58Z</time>
      </trkpt>
      <trkpt lat="44.55646" lon="4.63518">
        <ele>405.39999389648</ele>
        <time>2020-05-24T09:14:59Z</time>
      </trkpt>
      <trkpt lat="44.55647" lon="4.63516">
        <ele>406</ele>
        <time>2020-05-24T09:15:00Z</time>
      </trkpt>
      <trkpt lat="44.55648" lon="4.63515">
        <ele>406.60000610352</ele>
        <time>2020-05-24T09:15:01Z</time>
      </trkpt>
      <trkpt lat="44.55649" lon="4.63523">
        <ele>401.79998779297</ele>
        <time>2021-06-11T15:51:17Z</time>
      </trkpt>
      <trkpt lat="44.55651" lon="4.63523">
        <ele>402.20001220703</ele>
        <time>2021-06-11T15:51:18Z</time>
      </trkpt>
      <trkpt lat="44.55652" lon="4.63521">
        <ele>402.60000610352</ele>
        <time>2021-06-11T15:51:19Z</time>
      </trkpt>
      <trkpt lat="44.55654" lon="4.63518">
        <ele>403.39999389648</ele>
        <time>2021-06-11T15:51:20Z</time>
      </trkpt>
      <trkpt lat="44.55655" lon="4.63514">
        <ele>403.60000610352</ele>
        <time>2021-06-11T15:51:21Z</time>
      </trkpt>
      <trkpt lat="44.55657" lon="4.63511">
        <ele>404</ele>
        <time>2021-06-11T15:51:22Z</time>
      </trkpt>
      <trkpt lat="44.55659" lon="4.63508">
        <ele>404.39999389648</ele>
        <time>2021-06-11T15:51:23Z</time>
      </trkpt>
      <trkpt lat="44.55662" lon="4.63504">
        <ele>404.60000610352</ele>
        <time>2021-06-11T15:51:24Z</time>
      </trkpt>
      <trkpt lat="44.55664" lon="4.63501">
        <ele>405</ele>
        <time>2021-06-11T15:51:25Z</time>
      </trkpt>
      <trkpt lat="44.55667" lon="4.63497">
        <ele>405.20001220703</ele>
        <time>2021-06-11T15:51:26Z</time>
      </trkpt>
      <trkpt lat="44.5567" lon="4.63494">
        <ele>405.39999389648</ele>
        <time>2021-06-11T15:51:27Z</time>
      </trkpt>
      <trkpt lat="44.55672" lon="4.6349">
        <ele>405.39999389648</ele>
        <time>2021-06-11T15:51:28Z</time>
      </trkpt>
      <trkpt lat="44.55675" lon="4.63487">
        <ele>405.39999389648</ele>
        <time>2021-06-11T15:51:29Z</time>
      </trkpt>
      <trkpt lat="44.55677" lon="4.63484">
        <ele>405.39999389648</ele>
        <time>2021-06-11T15:51:30Z</time>
      </trkpt>
      <trkpt lat="44.5568" lon="4.63482">
        <ele>405.39999389648</ele>
        <time>2021-06-11T15:51:31Z</time>
      </trkpt>
      <trkpt lat="44.55683" lon="4.63481">
        <ele>405.39999389648</ele>
        <time>2021-06-11T15:51:32Z</time>
      </trkpt>
      <trkpt lat="44.55686" lon="4.6348">
        <ele>405.60000610352</ele>
        <time>2021-06-11T15:51:33Z</time>
      </trkpt>
      <trkpt lat="44.55688" lon="4.63478">
        <ele>405.60000610352</ele>
        <time>2021-06-11T15:51:34Z</time>
      </trkpt>
      <trkpt lat="44.55691" lon="4.63476">
        <ele>405.60000610352</ele>
        <time>2021-06-11T15:51:35Z</time>
      </trkpt>
      <trkpt lat="44.55702" lon="4.6347">
        <ele>405.20001220703</ele>
        <time>2021-06-11T15:51:38Z</time>
      </trkpt>
      <trkpt lat="44.55706" lon="4.63467">
        <ele>404.79998779297</ele>
        <time>2021-06-11T15:51:39Z</time>
      </trkpt>
      <trkpt lat="44.5571" lon="4.63465">
        <ele>404.60000610352</ele>
        <time>2021-06-11T15:51:40Z</time>
      </trkpt>
      <trkpt lat="44.55714" lon="4.63466">
        <ele>404.39999389648</ele>
        <time>2021-06-11T15:51:41Z</time>
      </trkpt>
      <trkpt lat="44.55717" lon="4.63467">
        <ele>404.39999389648</ele>
        <time>2021-06-11T15:51:42Z</time>
      </trkpt>
      <trkpt lat="44.5572" lon="4.63469">
        <ele>404</ele>
        <time>2021-06-11T15:51:43Z</time>
      </trkpt>
      <trkpt lat="44.55722" lon="4.63472">
        <ele>404</ele>
        <time>2021-06-11T15:51:44Z</time>
      </trkpt>
      <trkpt lat="44.55724" lon="4.63476">
        <ele>403.79998779297</ele>
        <time>2021-06-11T15:51:45Z</time>
      </trkpt>
      <trkpt lat="44.55726" lon="4.63479">
        <ele>403.79998779297</ele>
        <time>2021-06-11T15:51:46Z</time>
      </trkpt>
      <trkpt lat="44.55728" lon="4.63482">
        <ele>403.79998779297</ele>
        <time>2021-06-11T15:51:47Z</time>
      </trkpt>
      <trkpt lat="44.55733" lon="4.63488">
        <ele>403.60000610352</ele>
        <time>2021-06-11T15:51:49Z</time>
      </trkpt>
      <trkpt lat="44.55735" lon="4.63489">
        <ele>403.60000610352</ele>
        <time>2021-06-11T15:51:50Z</time>
      </trkpt>
      <trkpt lat="44.55738" lon="4.6349">
        <ele>403.60000610352</ele>
        <time>2021-06-11T15:51:51Z</time>
      </trkpt>
      <trkpt lat="44.55742" lon="4.63491">
        <ele>403.79998779297</ele>
        <time>2021-06-11T15:51:52Z</time>
      </trkpt>
      <trkpt lat="44.55745" lon="4.63492">
        <ele>403.79998779297</ele>
        <time>2021-06-11T15:51:53Z</time>
      </trkpt>
      <trkpt lat="44.55749" lon="4.63494">
        <ele>403.79998779297</ele>
        <time>2021-06-11T15:51:54Z</time>
      </trkpt>
      <trkpt lat="44.55751" lon="4.63495">
        <ele>404</ele>
        <time>2021-06-11T15:51:55Z</time>
      </trkpt>
      <trkpt lat="44.55754" lon="4.63495">
        <ele>404.39999389648</ele>
        <time>2021-06-11T15:51:56Z</time>
      </trkpt>
      <trkpt lat="44.55757" lon="4.63495">
        <ele>404.39999389648</ele>
        <time>2021-06-11T15:51:57Z</time>
      </trkpt>
      <trkpt lat="44.55761" lon="4.63494">
        <ele>404.79998779297</ele>
        <time>2021-06-11T15:51:58Z</time>
      </trkpt>
      <trkpt lat="44.55764" lon="4.63494">
        <ele>405.20001220703</ele>
        <time>2021-06-11T15:51:59Z</time>
      </trkpt>
      <trkpt lat="44.55768" lon="4.63494">
        <ele>405.60000610352</ele>
        <time>2021-06-11T15:52:00Z</time>
      </trkpt>
      <trkpt lat="44.55771" lon="4.63493">
        <ele>405.79998779297</ele>
        <time>2021-06-11T15:52:01Z</time>
      </trkpt>
      <trkpt lat="44.55774" lon="4.63493">
        <ele>405.79998779297</ele>
        <time>2021-06-11T15:52:02Z</time>
      </trkpt>
      <trkpt lat="44.55777" lon="4.63492">
        <ele>406.20001220703</ele>
        <time>2021-06-11T15:52:03Z</time>
      </trkpt>
      <trkpt lat="44.5578" lon="4.63491">
        <ele>406.60000610352</ele>
        <time>2021-06-11T15:52:04Z</time>
      </trkpt>
      <trkpt lat="44.55782" lon="4.6349">
        <ele>406.79998779297</ele>
        <time>2021-06-11T15:52:05Z</time>
      </trkpt>
      <trkpt lat="44.55785" lon="4.63491">
        <ele>407.39999389648</ele>
        <time>2021-06-11T15:52:06Z</time>
      </trkpt>
      <trkpt lat="44.55788" lon="4.63492">
        <ele>407.60000610352</ele>
        <time>2021-06-11T15:52:07Z</time>
      </trkpt>
      <trkpt lat="44.5579" lon="4.63494">
        <ele>408</ele>
        <time>2021-06-11T15:52:08Z</time>
      </trkpt>
      <trkpt lat="44.55792" lon="4.63495">
        <ele>408</ele>
        <time>2021-06-11T15:52:09Z</time>
      </trkpt>
      <trkpt lat="44.55794" lon="4.63495">
        <ele>408</ele>
        <time>2021-06-11T15:52:10Z</time>
      </trkpt>
      <trkpt lat="44.55797" lon="4.63495">
        <ele>408</ele>
        <time>2021-06-11T15:52:11Z</time>
      </trkpt>
      <trkpt lat="44.558" lon="4.63494">
        <ele>408.20001220703</ele>
        <time>2021-06-11T15:52:12Z</time>
      </trkpt>
      <trkpt lat="44.55802" lon="4.63493">
        <ele>408.39999389648</ele>
        <time>2021-06-11T15:52:13Z</time>
      </trkpt>
      <trkpt lat="44.55805" lon="4.63491">
        <ele>408.60000610352</ele>
        <time>2021-06-11T15:52:14Z</time>
      </trkpt>
      <trkpt lat="44.55807" lon="4.6349">
        <ele>408.60000610352</ele>
        <time>2021-06-11T15:52:15Z</time>
      </trkpt>
      <trkpt lat="44.5581" lon="4.63489">
        <ele>408.79998779297</ele>
        <time>2021-06-11T15:52:16Z</time>
      </trkpt>
      <trkpt lat="44.55813" lon="4.63489">
        <ele>409.39999389648</ele>
        <time>2021-06-11T15:52:17Z</time>
      </trkpt>
      <trkpt lat="44.55815" lon="4.6349">
        <ele>409.39999389648</ele>
        <time>2021-06-11T15:52:18Z</time>
      </trkpt>
      <trkpt lat="44.55817" lon="4.63491">
        <ele>409.79998779297</ele>
        <time>2021-06-11T15:52:19Z</time>
      </trkpt>
      <trkpt lat="44.5582" lon="4.63492">
        <ele>409.79998779297</ele>
        <time>2021-06-11T15:52:20Z</time>
      </trkpt>
      <trkpt lat="44.55822" lon="4.63493">
        <ele>410</ele>
        <time>2021-06-11T15:52:21Z</time>
      </trkpt>
      <trkpt lat="44.55824" lon="4.63494">
        <ele>410</ele>
        <time>2021-06-11T15:52:22Z</time>
      </trkpt>
      <trkpt lat="44.55827" lon="4.63494">
        <ele>410.20001220703</ele>
        <time>2021-06-11T15:52:23Z</time>
      </trkpt>
      <trkpt lat="44.5583" lon="4.63495">
        <ele>410.39999389648</ele>
        <time>2021-06-11T15:52:24Z</time>
      </trkpt>
      <trkpt lat="44.55833" lon="4.63495">
        <ele>410.60000610352</ele>
        <time>2021-06-11T15:52:25Z</time>
      </trkpt>
      <trkpt lat="44.55836" lon="4.63496">
        <ele>410.60000610352</ele>
        <time>2021-06-11T15:52:26Z</time>
      </trkpt>
      <trkpt lat="44.55839" lon="4.63497">
        <ele>410.60000610352</ele>
        <time>2021-06-11T15:52:27Z</time>
      </trkpt>
      <trkpt lat="44.55842" lon="4.63497">
        <ele>410.60000610352</ele>
        <time>2021-06-11T15:52:28Z</time>
      </trkpt>
      <trkpt lat="44.55845" lon="4.63497">
        <ele>410.79998779297</ele>
        <time>2021-06-11T15:52:29Z</time>
      </trkpt>
      <trkpt lat="44.55846" lon="4.63497">
        <ele>410.79998779297</ele>
        <time>2021-06-11T15:52:30Z</time>
      </trkpt>
      <trkpt lat="44.55847" lon="4.63496">
        <ele>411</ele>
        <time>2021-06-11T15:52:31Z</time>
      </trkpt>
      <trkpt lat="44.55847" lon="4.63494">
        <ele>411.20001220703</ele>
        <time>2021-06-11T15:52:32Z</time>
      </trkpt>
      <trkpt lat="44.55846" lon="4.63492">
        <ele>411.39999389648</ele>
        <time>2021-06-11T15:52:33Z</time>
      </trkpt>
      <trkpt lat="44.55845" lon="4.63489">
        <ele>411.60000610352</ele>
        <time>2021-06-11T15:52:34Z</time>
      </trkpt>
      <trkpt lat="44.55844" lon="4.63486">
        <ele>411.39999389648</ele>
        <time>2021-06-11T15:52:35Z</time>
      </trkpt>
      <trkpt lat="44.55842" lon="4.63482">
        <ele>411.39999389648</ele>
        <time>2021-06-11T15:52:36Z</time>
      </trkpt>
      <trkpt lat="44.5584" lon="4.63478">
        <ele>411.39999389648</ele>
        <time>2021-06-11T15:52:37Z</time>
      </trkpt>
      <trkpt lat="44.55838" lon="4.63473">
        <ele>411.60000610352</ele>
        <time>2021-06-11T15:52:38Z</time>
      </trkpt>
      <trkpt lat="44.55836" lon="4.63469">
        <ele>411.39999389648</ele>
        <time>2021-06-11T15:52:39Z</time>
      </trkpt>
      <trkpt lat="44.55832" lon="4.63461">
        <ele>411.60000610352</ele>
        <time>2021-06-11T15:52:41Z</time>
      </trkpt>
      <trkpt lat="44.5583" lon="4.63456">
        <ele>411.39999389648</ele>
        <time>2021-06-11T15:52:42Z</time>
      </trkpt>
      <trkpt lat="44.55826" lon="4.63449">
        <ele>411.39999389648</ele>
        <time>2021-06-11T15:52:44Z</time>
      </trkpt>
      <trkpt lat="44.55824" lon="4.63446">
        <ele>411.20001220703</ele>
        <time>2021-06-11T15:52:45Z</time>
      </trkpt>
      <trkpt lat="44.55823" lon="4.63442">
        <ele>410.39999389648</ele>
        <time>2021-06-11T15:52:46Z</time>
      </trkpt>
      <trkpt lat="44.55821" lon="4.63439">
        <ele>410</ele>
        <time>2021-06-11T15:52:47Z</time>
      </trkpt>
      <trkpt lat="44.55819" lon="4.63436">
        <ele>409</ele>
        <time>2021-06-11T15:52:48Z</time>
      </trkpt>
      <trkpt lat="44.55817" lon="4.63434">
        <ele>407.79998779297</ele>
        <time>2021-06-11T15:52:49Z</time>
      </trkpt>
      <trkpt lat="44.55816" lon="4.63432">
        <ele>407.20001220703</ele>
        <time>2021-06-11T15:52:50Z</time>
      </trkpt>
      <trkpt lat="44.55814" lon="4.63429">
        <ele>406.79998779297</ele>
        <time>2021-06-11T15:52:51Z</time>
      </trkpt>
      <trkpt lat="44.55808" lon="4.6342">
        <ele>404.20001220703</ele>
        <time>2021-06-11T15:52:54Z</time>
      </trkpt>
      <trkpt lat="44.55806" lon="4.63416">
        <ele>403.20001220703</ele>
        <time>2021-06-11T15:52:55Z</time>
      </trkpt>
      <trkpt lat="44.55804" lon="4.63413">
        <ele>402.39999389648</ele>
        <time>2021-06-11T15:52:56Z</time>
      </trkpt>
      <trkpt lat="44.55802" lon="4.6341">
        <ele>401.79998779297</ele>
        <time>2021-06-11T15:52:57Z</time>
      </trkpt>
      <trkpt lat="44.55802" lon="4.63408">
        <ele>401.20001220703</ele>
        <time>2021-06-11T15:52:58Z</time>
      </trkpt>
      <trkpt lat="44.55802" lon="4.63405">
        <ele>400.79998779297</ele>
        <time>2021-06-11T15:52:59Z</time>
      </trkpt>
      <trkpt lat="44.55801" lon="4.63401">
        <ele>398.18359375</ele>
      </trkpt>
      <trkpt lat="44.55821" lon="4.63388">
        <ele>397.33984375</ele>
      </trkpt>
      <trkpt lat="44.55856" lon="4.63367">
        <ele>396.640625</ele>
      </trkpt>
      <trkpt lat="44.55882" lon="4.63353">
        <ele>396.5078125</ele>
      </trkpt>
      <trkpt lat="44.55906" lon="4.6334">
        <ele>396.30859375</ele>
      </trkpt>
      <trkpt lat="44.55913" lon="4.63337">
        <ele>396.1171875</ele>
      </trkpt>
      <trkpt lat="44.55934" lon="4.63326">
        <ele>395.75</ele>
      </trkpt>
      <trkpt lat="44.55951" lon="4.63319">
        <ele>395.296875</ele>
      </trkpt>
      <trkpt lat="44.55961" lon="4.63314">
        <ele>394.7265625</ele>
      </trkpt>
      <trkpt lat="44.55977" lon="4.63308">
        <ele>393.87890625</ele>
      </trkpt>
      <trkpt lat="44.56001" lon="4.63296">
        <ele>392.02734375</ele>
      </trkpt>
      <trkpt lat="44.56027" lon="4.63284">
        <ele>389.6953125</ele>
      </trkpt>
      <trkpt lat="44.56063" lon="4.63271">
        <ele>387.828125</ele>
      </trkpt>
      <trkpt lat="44.56074" lon="4.63267">
        <ele>387.30859375</ele>
      </trkpt>
      <trkpt lat="44.56082" lon="4.63263">
        <ele>386.8515625</ele>
      </trkpt>
      <trkpt lat="44.56086" lon="4.63258">
        <ele>386.3515625</ele>
      </trkpt>
      <trkpt lat="44.56088" lon="4.63252">
        <ele>385.67578125</ele>
      </trkpt>
      <trkpt lat="44.56089" lon="4.63246">
        <ele>384.94140625</ele>
      </trkpt>
      <trkpt lat="44.56088" lon="4.63233">
        <ele>383.1953125</ele>
      </trkpt>
      <trkpt lat="44.56084" lon="4.63193">
        <ele>377.63671875</ele>
      </trkpt>
      <trkpt lat="44.56077" lon="4.63149">
        <ele>372.41015625</ele>
      </trkpt>
      <trkpt lat="44.56069" lon="4.63109">
        <ele>368.92578125</ele>
      </trkpt>
      <trkpt lat="44.56065" lon="4.6309">
        <ele>367.52734375</ele>
      </trkpt>
      <trkpt lat="44.56064" lon="4.63078">
        <ele>366.87109375</ele>
      </trkpt>
      <trkpt lat="44.56063" lon="4.63072">
        <ele>366.4921875</ele>
      </trkpt>
      <trkpt lat="44.56062" lon="4.63062">
        <ele>366.05078125</ele>
      </trkpt>
      <trkpt lat="44.56062" lon="4.6305">
        <ele>365.46484375</ele>
      </trkpt>
      <trkpt lat="44.56062" lon="4.63033">
        <ele>364.6171875</ele>
      </trkpt>
      <trkpt lat="44.56063" lon="4.63029">
        <ele>364.47265625</ele>
      </trkpt>
      <trkpt lat="44.56064" lon="4.63023">
        <ele>364.296875</ele>
      </trkpt>
      <trkpt lat="44.56065" lon="4.63018">
        <ele>364.14453125</ele>
      </trkpt>
      <trkpt lat="44.56074" lon="4.62995">
        <ele>363.87890625</ele>
      </trkpt>
      <trkpt lat="44.56077" lon="4.62985">
        <ele>363.8359375</ele>
      </trkpt>
      <trkpt lat="44.5608" lon="4.62976">
        <ele>363.80078125</ele>
      </trkpt>
      <trkpt lat="44.56082" lon="4.6297">
        <ele>363.72265625</ele>
      </trkpt>
      <trkpt lat="44.5608" lon="4.62966">
        <ele>363.5</ele>
      </trkpt>
      <trkpt lat="44.56078" lon="4.62961">
        <ele>363.07421875</ele>
      </trkpt>
      <trkpt lat="44.56075" lon="4.62955">
        <ele>362.6015625</ele>
      </trkpt>
      <trkpt lat="44.56065" lon="4.62942">
        <ele>361.37109375</ele>
      </trkpt>
      <trkpt lat="44.56057" lon="4.62932">
        <ele>360.32421875</ele>
      </trkpt>
      <trkpt lat="44.56051" lon="4.62924">
        <ele>359.4921875</ele>
      </trkpt>
      <trkpt lat="44.56047" lon="4.62912">
        <ele>358.72265625</ele>
      </trkpt>
      <trkpt lat="44.56043" lon="4.62903">
        <ele>357.97265625</ele>
      </trkpt>
      <trkpt lat="44.56041" lon="4.62894">
        <ele>357.3671875</ele>
      </trkpt>
      <trkpt lat="44.56039" lon="4.62887">
        <ele>356.91015625</ele>
      </trkpt>
      <trkpt lat="44.56039" lon="4.62882">
        <ele>356.66796875</ele>
      </trkpt>
      <trkpt lat="44.56039" lon="4.6287">
        <ele>356.27734375</ele>
      </trkpt>
      <trkpt lat="44.5604" lon="4.62859">
        <ele>355.64453125</ele>
      </trkpt>
      <trkpt lat="44.5604" lon="4.62849">
        <ele>355.01953125</ele>
      </trkpt>
      <trkpt lat="44.5604" lon="4.6284">
        <ele>354.359375</ele>
      </trkpt>
      <trkpt lat="44.56043" lon="4.62826">
        <ele>353.6875</ele>
      </trkpt>
      <trkpt lat="44.56047" lon="4.62813">
        <ele>352.75390625</ele>
      </trkpt>
      <trkpt lat="44.56053" lon="4.62804">
        <ele>352.15625</ele>
      </trkpt>
      <trkpt lat="44.56058" lon="4.62797">
        <ele>351.7265625</ele>
      </trkpt>
      <trkpt lat="44.56066" lon="4.62791">
        <ele>351.53515625</ele>
      </trkpt>
      <trkpt lat="44.56077" lon="4.62784">
        <ele>351.48046875</ele>
      </trkpt>
      <trkpt lat="44.56098" lon="4.62775">
        <ele>352.46484375</ele>
      </trkpt>
      <trkpt lat="44.56101" lon="4.62772">
        <ele>352.84765625</ele>
      </trkpt>
      <trkpt lat="44.56104" lon="4.62768">
        <ele>353.33984375</ele>
      </trkpt>
      <trkpt lat="44.56105" lon="4.62764">
        <ele>353.66015625</ele>
      </trkpt>
      <trkpt lat="44.56105" lon="4.62756">
        <ele>354.06640625</ele>
      </trkpt>
      <trkpt lat="44.56103" lon="4.62751">
        <ele>354.0234375</ele>
      </trkpt>
      <trkpt lat="44.56099" lon="4.62744">
        <ele>353.7578125</ele>
      </trkpt>
      <trkpt lat="44.56094" lon="4.62737">
        <ele>353.20703125</ele>
      </trkpt>
      <trkpt lat="44.56091" lon="4.62733">
        <ele>352.6953125</ele>
      </trkpt>
      <trkpt lat="44.56086" lon="4.62728">
        <ele>352.0546875</ele>
      </trkpt>
      <trkpt lat="44.56073" lon="4.62713">
        <ele>351.703125</ele>
      </trkpt>
      <trkpt lat="44.56068" lon="4.62706">
        <ele>351.62890625</ele>
      </trkpt>
      <trkpt lat="44.56063" lon="4.62692">
        <ele>352.19140625</ele>
      </trkpt>
      <trkpt lat="44.5606" lon="4.62682">
        <ele>352.5</ele>
      </trkpt>
      <trkpt lat="44.56057" lon="4.62672">
        <ele>353.16015625</ele>
      </trkpt>
      <trkpt lat="44.56048" lon="4.62653">
        <ele>354.1875</ele>
      </trkpt>
      <trkpt lat="44.56046" lon="4.62645">
        <ele>354.73046875</ele>
      </trkpt>
      <trkpt lat="44.56039" lon="4.62631">
        <ele>355.4609375</ele>
      </trkpt>
      <trkpt lat="44.56036" lon="4.62622">
        <ele>356.08203125</ele>
      </trkpt>
      <trkpt lat="44.56034" lon="4.62614">
        <ele>356.703125</ele>
      </trkpt>
      <trkpt lat="44.56032" lon="4.62596">
        <ele>358.5</ele>
      </trkpt>
      <trkpt lat="44.56029" lon="4.62581">
        <ele>359.25</ele>
      </trkpt>
      <trkpt lat="44.56028" lon="4.62574">
        <ele>359.359375</ele>
      </trkpt>
      <trkpt lat="44.56027" lon="4.62568">
        <ele>359.4765625</ele>
      </trkpt>
      <trkpt lat="44.56027" lon="4.62563">
        <ele>359.64453125</ele>
      </trkpt>
      <trkpt lat="44.56027" lon="4.62563">
        <ele>359.64453125</ele>
      </trkpt>
      <trkpt lat="44.56019" lon="4.62558">
        <ele>362.60000610352</ele>
        <time>2019-05-31T08:43:50Z</time>
      </trkpt>
      <trkpt lat="44.56012" lon="4.62558">
        <ele>362.60000610352</ele>
        <time>2019-05-31T08:43:52Z</time>
      </trkpt>
      <trkpt lat="44.56007" lon="4.62557">
        <ele>362.60000610352</ele>
        <time>2019-05-31T08:43:53Z</time>
      </trkpt>
      <trkpt lat="44.56004" lon="4.62556">
        <ele>362.60000610352</ele>
        <time>2019-05-31T08:43:54Z</time>
      </trkpt>
      <trkpt lat="44.55996" lon="4.62555">
        <ele>362.39999389648</ele>
        <time>2019-05-31T08:43:57Z</time>
      </trkpt>
      <trkpt lat="44.55992" lon="4.62552">
        <ele>361.79998779297</ele>
        <time>2019-05-31T08:43:59Z</time>
      </trkpt>
      <trkpt lat="44.55988" lon="4.62549">
        <ele>361.39999389648</ele>
        <time>2019-05-31T08:44:01Z</time>
      </trkpt>
      <trkpt lat="44.55972" lon="4.62539">
        <ele>360.60000610352</ele>
        <time>2019-05-31T08:44:07Z</time>
      </trkpt>
      <trkpt lat="44.55962" lon="4.6253">
        <ele>360.39999389648</ele>
        <time>2019-05-31T08:44:14Z</time>
      </trkpt>
      <trkpt lat="44.5596" lon="4.62526">
        <ele>360.39999389648</ele>
        <time>2019-05-31T08:44:16Z</time>
      </trkpt>
      <trkpt lat="44.55959" lon="4.62521">
        <ele>360.39999389648</ele>
        <time>2019-05-31T08:44:18Z</time>
      </trkpt>
      <trkpt lat="44.55959" lon="4.62519">
        <ele>360.39999389648</ele>
        <time>2019-05-31T08:44:19Z</time>
      </trkpt>
      <trkpt lat="44.55953" lon="4.62514">
        <ele>360.60000610352</ele>
        <time>2019-05-31T08:44:24Z</time>
      </trkpt>
      <trkpt lat="44.55952" lon="4.62513">
        <ele>361</ele>
        <time>2019-05-31T08:44:28Z</time>
      </trkpt>
      <trkpt lat="44.55951" lon="4.62511">
        <ele>361.20001220703</ele>
        <time>2019-05-31T08:44:29Z</time>
      </trkpt>
      <trkpt lat="44.5595" lon="4.62509">
        <ele>361.20001220703</ele>
        <time>2019-05-31T08:44:30Z</time>
      </trkpt>
      <trkpt lat="44.55948" lon="4.62503">
        <ele>361.20001220703</ele>
        <time>2019-05-31T08:44:33Z</time>
      </trkpt>
      <trkpt lat="44.55944" lon="4.62503">
        <ele>361.20001220703</ele>
        <time>2019-05-31T08:44:35Z</time>
      </trkpt>
      <trkpt lat="44.55932" lon="4.62504">
        <ele>361.20001220703</ele>
        <time>2019-05-31T08:44:39Z</time>
      </trkpt>
      <trkpt lat="44.55927" lon="4.62502">
        <ele>361.20001220703</ele>
        <time>2019-05-31T08:44:41Z</time>
      </trkpt>
      <trkpt lat="44.5592" lon="4.62502">
        <ele>361.20001220703</ele>
        <time>2019-05-31T08:44:45Z</time>
      </trkpt>
      <trkpt lat="44.55915" lon="4.62506">
        <ele>361</ele>
        <time>2019-05-31T08:44:50Z</time>
      </trkpt>
      <trkpt lat="44.55913" lon="4.62507">
        <ele>361</ele>
        <time>2019-05-31T08:44:51Z</time>
      </trkpt>
      <trkpt lat="44.5591" lon="4.62514">
        <ele>361</ele>
        <time>2019-05-31T08:44:56Z</time>
      </trkpt>
      <trkpt lat="44.5591" lon="4.62516">
        <ele>360.79998779297</ele>
        <time>2019-05-31T08:44:57Z</time>
      </trkpt>
      <trkpt lat="44.5591" lon="4.62519">
        <ele>360.60000610352</ele>
        <time>2019-05-31T08:44:58Z</time>
      </trkpt>
      <trkpt lat="44.55908" lon="4.62525">
        <ele>360</ele>
        <time>2019-05-31T08:45:03Z</time>
      </trkpt>
      <trkpt lat="44.55907" lon="4.62527">
        <ele>357.20001220703</ele>
        <time>2019-05-31T08:45:12Z</time>
      </trkpt>
      <trkpt lat="44.55907" lon="4.62527">
        <ele>356.79998779297</ele>
        <time>2019-05-31T08:45:16Z</time>
      </trkpt>
      <trkpt lat="44.55906" lon="4.6253">
        <ele>356.39999389648</ele>
        <time>2019-05-31T08:45:26Z</time>
      </trkpt>
      <trkpt lat="44.55904" lon="4.62532">
        <ele>356</ele>
        <time>2019-05-31T08:45:35Z</time>
      </trkpt>
      <trkpt lat="44.55901" lon="4.62533">
        <ele>355.39999389648</ele>
        <time>2019-05-31T08:45:42Z</time>
      </trkpt>
      <trkpt lat="44.55899" lon="4.62534">
        <ele>355.20001220703</ele>
        <time>2019-05-31T08:45:46Z</time>
      </trkpt>
      <trkpt lat="44.55898" lon="4.62536">
        <ele>355.20001220703</ele>
        <time>2019-05-31T08:45:49Z</time>
      </trkpt>
      <trkpt lat="44.55895" lon="4.62537">
        <ele>354</ele>
        <time>2019-05-31T08:45:56Z</time>
      </trkpt>
      <trkpt lat="44.55893" lon="4.62542">
        <ele>353.20001220703</ele>
        <time>2019-05-31T08:46:02Z</time>
      </trkpt>
      <trkpt lat="44.5589" lon="4.62544">
        <ele>353.20001220703</ele>
        <time>2019-05-31T08:46:04Z</time>
      </trkpt>
      <trkpt lat="44.55885" lon="4.62546">
        <ele>353.20001220703</ele>
        <time>2019-05-31T08:46:06Z</time>
      </trkpt>
      <trkpt lat="44.55884" lon="4.62546">
        <ele>353.20001220703</ele>
        <time>2019-05-31T08:46:07Z</time>
      </trkpt>
      <trkpt lat="44.5588" lon="4.62548">
        <ele>352.79998779297</ele>
        <time>2019-05-31T08:46:09Z</time>
      </trkpt>
      <trkpt lat="44.55877" lon="4.62549">
        <ele>351.79998779297</ele>
        <time>2019-05-31T08:46:11Z</time>
      </trkpt>
      <trkpt lat="44.55874" lon="4.62549">
        <ele>350.60000610352</ele>
        <time>2019-05-31T08:46:13Z</time>
      </trkpt>
      <trkpt lat="44.55869" lon="4.6255">
        <ele>349.39999389648</ele>
        <time>2019-05-31T08:46:15Z</time>
      </trkpt>
      <trkpt lat="44.55867" lon="4.62551">
        <ele>349.20001220703</ele>
        <time>2019-05-31T08:46:16Z</time>
      </trkpt>
      <trkpt lat="44.55861" lon="4.62552">
        <ele>347</ele>
        <time>2019-05-31T08:46:22Z</time>
      </trkpt>
      <trkpt lat="44.5586" lon="4.62552">
        <ele>344.79998779297</ele>
        <time>2019-05-31T08:46:34Z</time>
      </trkpt>
      <trkpt lat="44.55858" lon="4.62552">
        <ele>344.79998779297</ele>
        <time>2019-05-31T08:46:47Z</time>
      </trkpt>
      <trkpt lat="44.55857" lon="4.62552">
        <ele>344.79998779297</ele>
        <time>2019-05-31T08:46:48Z</time>
      </trkpt>
      <trkpt lat="44.55853" lon="4.62552">
        <ele>344.79998779297</ele>
        <time>2019-05-31T08:46:52Z</time>
      </trkpt>
      <trkpt lat="44.55849" lon="4.62554">
        <ele>344.79998779297</ele>
        <time>2019-05-31T08:46:55Z</time>
      </trkpt>
      <trkpt lat="44.55848" lon="4.62554">
        <ele>344.79998779297</ele>
        <time>2019-05-31T08:46:56Z</time>
      </trkpt>
      <trkpt lat="44.55845" lon="4.62554">
        <ele>344.60000610352</ele>
        <time>2019-05-31T08:47:00Z</time>
      </trkpt>
      <trkpt lat="44.55841" lon="4.62556">
        <ele>342.79998779297</ele>
        <time>2019-05-31T08:47:09Z</time>
      </trkpt>
      <trkpt lat="44.55839" lon="4.62557">
        <ele>342.60000610352</ele>
        <time>2019-05-31T08:47:12Z</time>
      </trkpt>
      <trkpt lat="44.55834" lon="4.6256">
        <ele>342.60000610352</ele>
        <time>2019-05-31T08:47:18Z</time>
      </trkpt>
      <trkpt lat="44.55832" lon="4.6256">
        <ele>342.39999389648</ele>
        <time>2019-05-31T08:47:21Z</time>
      </trkpt>
      <trkpt lat="44.55832" lon="4.6256">
        <ele>342.20001220703</ele>
        <time>2019-05-31T08:47:22Z</time>
      </trkpt>
      <trkpt lat="44.5583" lon="4.62561">
        <ele>341.20001220703</ele>
        <time>2019-05-31T08:47:29Z</time>
      </trkpt>
      <trkpt lat="44.5583" lon="4.62562">
        <ele>341</ele>
        <time>2019-05-31T08:47:30Z</time>
      </trkpt>
      <trkpt lat="44.55829" lon="4.62562">
        <ele>341</ele>
        <time>2019-05-31T08:47:31Z</time>
      </trkpt>
      <trkpt lat="44.55823" lon="4.62566">
        <ele>340.79998779297</ele>
        <time>2019-05-31T08:47:37Z</time>
      </trkpt>
      <trkpt lat="44.55817" lon="4.62568">
        <ele>340</ele>
        <time>2019-05-31T08:47:42Z</time>
      </trkpt>
      <trkpt lat="44.55815" lon="4.62571">
        <ele>338.39999389648</ele>
        <time>2019-05-31T08:47:47Z</time>
      </trkpt>
      <trkpt lat="44.55814" lon="4.62571">
        <ele>338</ele>
        <time>2019-05-31T08:47:48Z</time>
      </trkpt>
      <trkpt lat="44.55812" lon="4.62573">
        <ele>337.39999389648</ele>
        <time>2019-05-31T08:47:52Z</time>
      </trkpt>
      <trkpt lat="44.55809" lon="4.62574">
        <ele>336</ele>
        <time>2019-05-31T08:48:00Z</time>
      </trkpt>
      <trkpt lat="44.55797" lon="4.62577">
        <ele>335.79998779297</ele>
        <time>2019-05-31T08:48:04Z</time>
      </trkpt>
      <trkpt lat="44.55795" lon="4.62578">
        <ele>335.79998779297</ele>
        <time>2019-05-31T08:48:05Z</time>
      </trkpt>
      <trkpt lat="44.55787" lon="4.62581">
        <ele>335.60000610352</ele>
        <time>2019-05-31T08:48:08Z</time>
      </trkpt>
      <trkpt lat="44.55785" lon="4.62582">
        <ele>335.60000610352</ele>
        <time>2019-05-31T08:48:09Z</time>
      </trkpt>
      <trkpt lat="44.55783" lon="4.62583">
        <ele>335.20001220703</ele>
        <time>2019-05-31T08:48:12Z</time>
      </trkpt>
      <trkpt lat="44.55779" lon="4.62585">
        <ele>331.60000610352</ele>
        <time>2019-05-31T08:48:18Z</time>
      </trkpt>
      <trkpt lat="44.55778" lon="4.62585">
        <ele>331.39999389648</ele>
        <time>2019-05-31T08:48:19Z</time>
      </trkpt>
      <trkpt lat="44.55777" lon="4.62585">
        <ele>331.20001220703</ele>
        <time>2019-05-31T08:48:20Z</time>
      </trkpt>
      <trkpt lat="44.55776" lon="4.62585">
        <ele>331</ele>
        <time>2019-05-31T08:48:23Z</time>
      </trkpt>
      <trkpt lat="44.55773" lon="4.62587">
        <ele>330.20001220703</ele>
        <time>2019-05-31T08:48:28Z</time>
      </trkpt>
      <trkpt lat="44.55771" lon="4.62587">
        <ele>329.60000610352</ele>
        <time>2019-05-31T08:48:33Z</time>
      </trkpt>
      <trkpt lat="44.5577" lon="4.62587">
        <ele>329.39999389648</ele>
        <time>2019-05-31T08:48:35Z</time>
      </trkpt>
      <trkpt lat="44.55769" lon="4.62587">
        <ele>329</ele>
        <time>2019-05-31T08:48:37Z</time>
      </trkpt>
      <trkpt lat="44.55768" lon="4.62587">
        <ele>328.79998779297</ele>
        <time>2019-05-31T08:48:38Z</time>
      </trkpt>
      <trkpt lat="44.55764" lon="4.62588">
        <ele>328.39999389648</ele>
        <time>2019-05-31T08:48:44Z</time>
      </trkpt>
      <trkpt lat="44.55762" lon="4.6259">
        <ele>328.20001220703</ele>
        <time>2019-05-31T08:48:47Z</time>
      </trkpt>
      <trkpt lat="44.55758" lon="4.6259">
        <ele>327.79998779297</ele>
        <time>2019-05-31T08:48:50Z</time>
      </trkpt>
      <trkpt lat="44.55754" lon="4.62588">
        <ele>327</ele>
        <time>2019-05-31T08:48:56Z</time>
      </trkpt>
      <trkpt lat="44.55752" lon="4.62589">
        <ele>326.79998779297</ele>
        <time>2019-05-31T08:48:58Z</time>
      </trkpt>
      <trkpt lat="44.55749" lon="4.6259">
        <ele>326.20001220703</ele>
        <time>2019-05-31T08:49:02Z</time>
      </trkpt>
      <trkpt lat="44.55745" lon="4.62589">
        <ele>325</ele>
        <time>2019-05-31T08:49:09Z</time>
      </trkpt>
      <trkpt lat="44.55744" lon="4.62589">
        <ele>325</ele>
        <time>2019-05-31T08:49:10Z</time>
      </trkpt>
      <trkpt lat="44.55742" lon="4.62588">
        <ele>324.60000610352</ele>
        <time>2019-05-31T08:49:14Z</time>
      </trkpt>
      <trkpt lat="44.55741" lon="4.62588">
        <ele>324.60000610352</ele>
        <time>2019-05-31T08:49:15Z</time>
      </trkpt>
      <trkpt lat="44.5574" lon="4.62591">
        <ele>323.79998779297</ele>
        <time>2019-05-31T08:49:22Z</time>
      </trkpt>
      <trkpt lat="44.5574" lon="4.62593">
        <ele>323.39999389648</ele>
        <time>2019-05-31T08:49:28Z</time>
      </trkpt>
      <trkpt lat="44.5574" lon="4.62593">
        <ele>323.39999389648</ele>
        <time>2019-05-31T08:49:29Z</time>
      </trkpt>
      <trkpt lat="44.55737" lon="4.62594">
        <ele>323</ele>
        <time>2019-05-31T08:49:34Z</time>
      </trkpt>
      <trkpt lat="44.55736" lon="4.62594">
        <ele>322.79998779297</ele>
        <time>2019-05-31T08:49:37Z</time>
      </trkpt>
      <trkpt lat="44.55734" lon="4.62592">
        <ele>321.60000610352</ele>
        <time>2019-05-31T08:49:43Z</time>
      </trkpt>
      <trkpt lat="44.55733" lon="4.62592">
        <ele>321.39999389648</ele>
        <time>2019-05-31T08:49:44Z</time>
      </trkpt>
      <trkpt lat="44.55733" lon="4.62591">
        <ele>321.20001220703</ele>
        <time>2019-05-31T08:49:45Z</time>
      </trkpt>
      <trkpt lat="44.5573" lon="4.6259">
        <ele>320.79998779297</ele>
        <time>2019-05-31T08:49:50Z</time>
      </trkpt>
      <trkpt lat="44.55729" lon="4.62589">
        <ele>320.79998779297</ele>
        <time>2019-05-31T08:49:51Z</time>
      </trkpt>
      <trkpt lat="44.55726" lon="4.62587">
        <ele>320.60000610352</ele>
        <time>2019-05-31T08:49:57Z</time>
      </trkpt>
      <trkpt lat="44.55719" lon="4.62583">
        <ele>320</ele>
        <time>2019-05-31T08:50:06Z</time>
      </trkpt>
      <trkpt lat="44.55715" lon="4.6258">
        <ele>319.60000610352</ele>
        <time>2019-05-31T08:50:13Z</time>
      </trkpt>
      <trkpt lat="44.55712" lon="4.62579">
        <ele>319.39999389648</ele>
        <time>2019-05-31T08:50:20Z</time>
      </trkpt>
      <trkpt lat="44.55711" lon="4.62579">
        <ele>319.20001220703</ele>
        <time>2019-05-31T08:50:21Z</time>
      </trkpt>
      <trkpt lat="44.55706" lon="4.62577">
        <ele>319</ele>
        <time>2019-05-31T08:50:28Z</time>
      </trkpt>
      <trkpt lat="44.55703" lon="4.62577">
        <ele>318.79998779297</ele>
        <time>2019-05-31T08:50:31Z</time>
      </trkpt>
      <trkpt lat="44.557" lon="4.62576">
        <ele>318.60000610352</ele>
        <time>2019-05-31T08:50:35Z</time>
      </trkpt>
      <trkpt lat="44.55693" lon="4.62574">
        <ele>317.60000610352</ele>
        <time>2019-05-31T08:50:43Z</time>
      </trkpt>
      <trkpt lat="44.55692" lon="4.62574">
        <ele>317.39999389648</ele>
        <time>2019-05-31T08:50:44Z</time>
      </trkpt>
      <trkpt lat="44.55689" lon="4.62575">
        <ele>317.20001220703</ele>
        <time>2019-05-31T08:50:47Z</time>
      </trkpt>
      <trkpt lat="44.55684" lon="4.62574">
        <ele>316.39999389648</ele>
        <time>2019-05-31T08:50:52Z</time>
      </trkpt>
      <trkpt lat="44.5568" lon="4.62575">
        <ele>315</ele>
        <time>2019-05-31T08:50:58Z</time>
      </trkpt>
      <trkpt lat="44.55674" lon="4.62575">
        <ele>314.39999389648</ele>
        <time>2019-05-31T08:51:04Z</time>
      </trkpt>
      <trkpt lat="44.5567" lon="4.62572">
        <ele>313.20001220703</ele>
        <time>2019-05-31T08:51:11Z</time>
      </trkpt>
      <trkpt lat="44.55668" lon="4.6257">
        <ele>312.60000610352</ele>
        <time>2019-05-31T08:51:15Z</time>
      </trkpt>
      <trkpt lat="44.55667" lon="4.62569">
        <ele>312.39999389648</ele>
        <time>2019-05-31T08:51:17Z</time>
      </trkpt>
      <trkpt lat="44.55663" lon="4.62565">
        <ele>312.39999389648</ele>
        <time>2019-05-31T08:51:23Z</time>
      </trkpt>
      <trkpt lat="44.5566" lon="4.62565">
        <ele>312.60000610352</ele>
        <time>2019-05-31T08:51:31Z</time>
      </trkpt>
      <trkpt lat="44.55659" lon="4.62565">
        <ele>312.79998779297</ele>
        <time>2019-05-31T08:51:33Z</time>
      </trkpt>
      <trkpt lat="44.55657" lon="4.62565">
        <ele>313</ele>
        <time>2019-05-31T08:51:38Z</time>
      </trkpt>
      <trkpt lat="44.55653" lon="4.62564">
        <ele>313</ele>
        <time>2019-05-31T08:51:44Z</time>
      </trkpt>
      <trkpt lat="44.55645" lon="4.62563">
        <ele>313</ele>
        <time>2019-05-31T08:51:51Z</time>
      </trkpt>
      <trkpt lat="44.55642" lon="4.62563">
        <ele>312.79998779297</ele>
        <time>2019-05-31T08:51:54Z</time>
      </trkpt>
      <trkpt lat="44.55641" lon="4.62563">
        <ele>312.39999389648</ele>
        <time>2019-05-31T08:51:57Z</time>
      </trkpt>
      <trkpt lat="44.55635" lon="4.62562">
        <ele>311.79998779297</ele>
        <time>2019-05-31T08:52:03Z</time>
      </trkpt>
      <trkpt lat="44.5563" lon="4.62561">
        <ele>311.39999389648</ele>
        <time>2019-05-31T08:52:05Z</time>
      </trkpt>
      <trkpt lat="44.55626" lon="4.62559">
        <ele>311.39999389648</ele>
        <time>2019-05-31T08:52:07Z</time>
      </trkpt>
      <trkpt lat="44.55622" lon="4.62557">
        <ele>311.20001220703</ele>
        <time>2019-05-31T08:52:09Z</time>
      </trkpt>
      <trkpt lat="44.55618" lon="4.62556">
        <ele>311</ele>
        <time>2019-05-31T08:52:11Z</time>
      </trkpt>
      <trkpt lat="44.55605" lon="4.62553">
        <ele>310.20001220703</ele>
        <time>2019-05-31T08:52:16Z</time>
      </trkpt>
      <trkpt lat="44.55592" lon="4.62551">
        <ele>309.60000610352</ele>
        <time>2019-05-31T08:52:22Z</time>
      </trkpt>
      <trkpt lat="44.55591" lon="4.62551">
        <ele>309.39999389648</ele>
        <time>2019-05-31T08:52:23Z</time>
      </trkpt>
      <trkpt lat="44.5559" lon="4.62552">
        <ele>309.20001220703</ele>
        <time>2019-05-31T08:52:26Z</time>
      </trkpt>
      <trkpt lat="44.55585" lon="4.62553">
        <ele>308</ele>
        <time>2019-05-31T08:52:32Z</time>
      </trkpt>
      <trkpt lat="44.55582" lon="4.62553">
        <ele>307.60000610352</ele>
        <time>2019-05-31T08:52:37Z</time>
      </trkpt>
      <trkpt lat="44.5558" lon="4.62553">
        <ele>307.60000610352</ele>
        <time>2019-05-31T08:52:39Z</time>
      </trkpt>
      <trkpt lat="44.55579" lon="4.62553">
        <ele>307.60000610352</ele>
        <time>2019-05-31T08:52:40Z</time>
      </trkpt>
      <trkpt lat="44.55578" lon="4.62553">
        <ele>307.39999389648</ele>
        <time>2019-05-31T08:52:41Z</time>
      </trkpt>
      <trkpt lat="44.55576" lon="4.62553">
        <ele>307.39999389648</ele>
        <time>2019-05-31T08:52:44Z</time>
      </trkpt>
      <trkpt lat="44.55569" lon="4.62554">
        <ele>307.79998779297</ele>
        <time>2019-05-31T08:52:50Z</time>
      </trkpt>
      <trkpt lat="44.55564" lon="4.62555">
        <ele>307.79998779297</ele>
        <time>2019-05-31T08:52:52Z</time>
      </trkpt>
      <trkpt lat="44.55558" lon="4.62556">
        <ele>308</ele>
        <time>2019-05-31T08:52:54Z</time>
      </trkpt>
      <trkpt lat="44.55555" lon="4.62555">
        <ele>307.79998779297</ele>
        <time>2019-05-31T08:52:55Z</time>
      </trkpt>
      <trkpt lat="44.55548" lon="4.62554">
        <ele>307.79998779297</ele>
        <time>2019-05-31T08:52:57Z</time>
      </trkpt>
      <trkpt lat="44.55543" lon="4.62553">
        <ele>307.79998779297</ele>
        <time>2019-05-31T08:52:59Z</time>
      </trkpt>
      <trkpt lat="44.55537" lon="4.62553">
        <ele>307.39999389648</ele>
        <time>2019-05-31T08:53:01Z</time>
      </trkpt>
      <trkpt lat="44.5553" lon="4.62554">
        <ele>307.20001220703</ele>
        <time>2019-05-31T08:53:04Z</time>
      </trkpt>
      <trkpt lat="44.55528" lon="4.62554">
        <ele>306.79998779297</ele>
        <time>2019-05-31T08:53:05Z</time>
      </trkpt>
      <trkpt lat="44.55524" lon="4.62555">
        <ele>306.60000610352</ele>
        <time>2019-05-31T08:53:07Z</time>
      </trkpt>
      <trkpt lat="44.55519" lon="4.62554">
        <ele>306.39999389648</ele>
        <time>2019-05-31T08:53:09Z</time>
      </trkpt>
      <trkpt lat="44.55503" lon="4.62547">
        <ele>304.60000610352</ele>
        <time>2019-05-31T08:53:16Z</time>
      </trkpt>
      <trkpt lat="44.55487" lon="4.62543">
        <ele>303.79998779297</ele>
        <time>2019-05-31T08:53:23Z</time>
      </trkpt>
      <trkpt lat="44.55479" lon="4.62542">
        <ele>303.79998779297</ele>
        <time>2019-05-31T08:53:26Z</time>
      </trkpt>
      <trkpt lat="44.55473" lon="4.62543">
        <ele>303.60000610352</ele>
        <time>2019-05-31T08:53:28Z</time>
      </trkpt>
      <trkpt lat="44.55463" lon="4.62544">
        <ele>303.20001220703</ele>
        <time>2019-05-31T08:53:32Z</time>
      </trkpt>
      <trkpt lat="44.55461" lon="4.62545">
        <ele>303</ele>
        <time>2019-05-31T08:53:33Z</time>
      </trkpt>
      <trkpt lat="44.55451" lon="4.62548">
        <ele>301.79998779297</ele>
        <time>2019-05-31T08:53:37Z</time>
      </trkpt>
      <trkpt lat="44.55448" lon="4.62548">
        <ele>301.60000610352</ele>
        <time>2019-05-31T08:53:38Z</time>
      </trkpt>
      <trkpt lat="44.55437" lon="4.62545">
        <ele>300.60000610352</ele>
        <time>2019-05-31T08:53:44Z</time>
      </trkpt>
      <trkpt lat="44.55428" lon="4.62543">
        <ele>299.60000610352</ele>
        <time>2019-05-31T08:53:48Z</time>
      </trkpt>
      <trkpt lat="44.55418" lon="4.62542">
        <ele>299.20001220703</ele>
        <time>2019-05-31T08:53:51Z</time>
      </trkpt>
      <trkpt lat="44.55413" lon="4.62542">
        <ele>299.20001220703</ele>
        <time>2019-05-31T08:53:53Z</time>
      </trkpt>
      <trkpt lat="44.55399" lon="4.62545">
        <ele>298.79998779297</ele>
        <time>2019-05-31T08:54:00Z</time>
      </trkpt>
      <trkpt lat="44.55388" lon="4.62549">
        <ele>298.20001220703</ele>
        <time>2019-05-31T08:54:05Z</time>
      </trkpt>
      <trkpt lat="44.55374" lon="4.62552">
        <ele>297.20001220703</ele>
        <time>2019-05-31T08:54:10Z</time>
      </trkpt>
      <trkpt lat="44.55371" lon="4.62553">
        <ele>297.20001220703</ele>
        <time>2019-05-31T08:54:11Z</time>
      </trkpt>
      <trkpt lat="44.55358" lon="4.62558">
        <ele>296.60000610352</ele>
        <time>2019-05-31T08:54:15Z</time>
      </trkpt>
      <trkpt lat="44.55355" lon="4.62559">
        <ele>296.39999389648</ele>
        <time>2019-05-31T08:54:16Z</time>
      </trkpt>
      <trkpt lat="44.5535" lon="4.6256">
        <ele>296.20001220703</ele>
        <time>2019-05-31T08:54:18Z</time>
      </trkpt>
      <trkpt lat="44.55341" lon="4.62562">
        <ele>295.60000610352</ele>
        <time>2019-05-31T08:54:21Z</time>
      </trkpt>
      <trkpt lat="44.55334" lon="4.62565">
        <ele>295.20001220703</ele>
        <time>2019-05-31T08:54:23Z</time>
      </trkpt>
      <trkpt lat="44.5532" lon="4.62566">
        <ele>293.20001220703</ele>
        <time>2019-05-31T08:54:27Z</time>
      </trkpt>
      <trkpt lat="44.55317" lon="4.62566">
        <ele>293</ele>
        <time>2019-05-31T08:54:28Z</time>
      </trkpt>
      <trkpt lat="44.55301" lon="4.62565">
        <ele>291.39999389648</ele>
        <time>2019-05-31T08:54:32Z</time>
      </trkpt>
      <trkpt lat="44.55292" lon="4.62565">
        <ele>291</ele>
        <time>2019-05-31T08:54:34Z</time>
      </trkpt>
      <trkpt lat="44.55283" lon="4.62564">
        <ele>290.60000610352</ele>
        <time>2019-05-31T08:54:36Z</time>
      </trkpt>
      <trkpt lat="44.55274" lon="4.62562">
        <ele>290.20001220703</ele>
        <time>2019-05-31T08:54:38Z</time>
      </trkpt>
      <trkpt lat="44.55266" lon="4.62564">
        <ele>290</ele>
        <time>2019-05-31T08:54:40Z</time>
      </trkpt>
      <trkpt lat="44.55247" lon="4.62569">
        <ele>287.20001220703</ele>
        <time>2019-05-31T08:54:45Z</time>
      </trkpt>
      <trkpt lat="44.5524" lon="4.62572">
        <ele>286.79998779297</ele>
        <time>2019-05-31T08:54:47Z</time>
      </trkpt>
      <trkpt lat="44.55229" lon="4.62577">
        <ele>286.39999389648</ele>
        <time>2019-05-31T08:54:50Z</time>
      </trkpt>
      <trkpt lat="44.55217" lon="4.62581">
        <ele>285.20001220703</ele>
        <time>2019-05-31T08:54:55Z</time>
      </trkpt>
      <trkpt lat="44.55213" lon="4.62588">
        <ele>277</ele>
        <time>2020-05-24T09:33:10Z</time>
      </trkpt>
      <trkpt lat="44.55212" lon="4.62589">
        <ele>276.79998779297</ele>
        <time>2020-05-24T09:33:12Z</time>
      </trkpt>
      <trkpt lat="44.55212" lon="4.62589">
        <ele>276.79998779297</ele>
        <time>2020-05-24T09:33:22Z</time>
      </trkpt>
      <trkpt lat="44.55212" lon="4.62589">
        <ele>276.79998779297</ele>
        <time>2020-05-24T09:33:25Z</time>
      </trkpt>
      <trkpt lat="44.55212" lon="4.62589">
        <ele>277</ele>
        <time>2020-05-24T09:33:26Z</time>
      </trkpt>
      <trkpt lat="44.55212" lon="4.62589">
        <ele>277</ele>
        <time>2020-05-24T09:33:27Z</time>
      </trkpt>
      <trkpt lat="44.55212" lon="4.62589">
        <ele>277</ele>
        <time>2020-05-24T09:33:28Z</time>
      </trkpt>
      <trkpt lat="44.55212" lon="4.62589">
        <ele>277</ele>
        <time>2020-05-24T09:33:31Z</time>
      </trkpt>
      <trkpt lat="44.55212" lon="4.62589">
        <ele>277</ele>
        <time>2020-05-24T09:33:37Z</time>
      </trkpt>
      <trkpt lat="44.55213" lon="4.62589">
        <ele>277</ele>
        <time>2020-05-24T09:33:41Z</time>
      </trkpt>
      <trkpt lat="44.55212" lon="4.62589">
        <ele>277.20001220703</ele>
        <time>2020-05-24T09:33:51Z</time>
      </trkpt>
      <trkpt lat="44.55211" lon="4.62589">
        <ele>277</ele>
        <time>2020-05-24T09:33:52Z</time>
      </trkpt>
      <trkpt lat="44.55209" lon="4.62589">
        <ele>277</ele>
        <time>2020-05-24T09:33:53Z</time>
      </trkpt>
      <trkpt lat="44.55199" lon="4.62587">
        <ele>277</ele>
        <time>2020-05-24T09:33:57Z</time>
      </trkpt>
      <trkpt lat="44.55193" lon="4.62584">
        <ele>277</ele>
        <time>2020-05-24T09:33:59Z</time>
      </trkpt>
      <trkpt lat="44.5519" lon="4.62582">
        <ele>277</ele>
        <time>2020-05-24T09:34:00Z</time>
      </trkpt>
      <trkpt lat="44.55184" lon="4.62578">
        <ele>277</ele>
        <time>2020-05-24T09:34:02Z</time>
      </trkpt>
      <trkpt lat="44.5518" lon="4.62578">
        <ele>277</ele>
        <time>2020-05-24T09:34:03Z</time>
      </trkpt>
      <trkpt lat="44.55173" lon="4.62577">
        <ele>276.39999389648</ele>
        <time>2020-05-24T09:34:05Z</time>
      </trkpt>
      <trkpt lat="44.55165" lon="4.62575">
        <ele>276.39999389648</ele>
        <time>2020-05-24T09:34:07Z</time>
      </trkpt>
      <trkpt lat="44.55161" lon="4.62573">
        <ele>276.20001220703</ele>
        <time>2020-05-24T09:34:08Z</time>
      </trkpt>
      <trkpt lat="44.55155" lon="4.6257">
        <ele>276</ele>
        <time>2020-05-24T09:34:10Z</time>
      </trkpt>
      <trkpt lat="44.55152" lon="4.62568">
        <ele>275.79998779297</ele>
        <time>2020-05-24T09:34:11Z</time>
      </trkpt>
      <trkpt lat="44.55149" lon="4.62567">
        <ele>275.79998779297</ele>
        <time>2020-05-24T09:34:12Z</time>
      </trkpt>
      <trkpt lat="44.55145" lon="4.62566">
        <ele>275.60000610352</ele>
        <time>2020-05-24T09:34:13Z</time>
      </trkpt>
      <trkpt lat="44.55138" lon="4.62566">
        <ele>275.20001220703</ele>
        <time>2020-05-24T09:34:15Z</time>
      </trkpt>
      <trkpt lat="44.55134" lon="4.62567">
        <ele>275</ele>
        <time>2020-05-24T09:34:16Z</time>
      </trkpt>
      <trkpt lat="44.55122" lon="4.62569">
        <ele>274.79998779297</ele>
        <time>2020-05-24T09:34:19Z</time>
      </trkpt>
      <trkpt lat="44.55119" lon="4.62569">
        <ele>274.79998779297</ele>
        <time>2020-05-24T09:34:20Z</time>
      </trkpt>
      <trkpt lat="44.55115" lon="4.62568">
        <ele>274.79998779297</ele>
        <time>2020-05-24T09:34:21Z</time>
      </trkpt>
      <trkpt lat="44.55112" lon="4.62567">
        <ele>274.79998779297</ele>
        <time>2020-05-24T09:34:22Z</time>
      </trkpt>
      <trkpt lat="44.55108" lon="4.62565">
        <ele>274.79998779297</ele>
        <time>2020-05-24T09:34:23Z</time>
      </trkpt>
      <trkpt lat="44.55101" lon="4.62562">
        <ele>274.20001220703</ele>
        <time>2020-05-24T09:34:25Z</time>
      </trkpt>
      <trkpt lat="44.55098" lon="4.6256">
        <ele>273.60000610352</ele>
        <time>2020-05-24T09:34:26Z</time>
      </trkpt>
      <trkpt lat="44.55095" lon="4.62558">
        <ele>273.20001220703</ele>
        <time>2020-05-24T09:34:27Z</time>
      </trkpt>
      <trkpt lat="44.55092" lon="4.62558">
        <ele>273.20001220703</ele>
        <time>2020-05-24T09:34:28Z</time>
      </trkpt>
      <trkpt lat="44.5509" lon="4.62558">
        <ele>272.39999389648</ele>
        <time>2020-05-24T09:34:29Z</time>
      </trkpt>
      <trkpt lat="44.55087" lon="4.62558">
        <ele>271.79998779297</ele>
        <time>2020-05-24T09:34:30Z</time>
      </trkpt>
      <trkpt lat="44.55084" lon="4.6256">
        <ele>271.60000610352</ele>
        <time>2020-05-24T09:34:31Z</time>
      </trkpt>
      <trkpt lat="44.55082" lon="4.62561">
        <ele>271</ele>
        <time>2020-05-24T09:34:32Z</time>
      </trkpt>
      <trkpt lat="44.55079" lon="4.62562">
        <ele>270.79998779297</ele>
        <time>2020-05-24T09:34:33Z</time>
      </trkpt>
      <trkpt lat="44.55078" lon="4.62562">
        <ele>270</ele>
        <time>2020-05-24T09:34:36Z</time>
      </trkpt>
      <trkpt lat="44.55077" lon="4.62562">
        <ele>269.79998779297</ele>
        <time>2020-05-24T09:34:37Z</time>
      </trkpt>
      <trkpt lat="44.55076" lon="4.62562">
        <ele>269.79998779297</ele>
        <time>2020-05-24T09:34:38Z</time>
      </trkpt>
      <trkpt lat="44.55072" lon="4.62563">
        <ele>269.60000610352</ele>
        <time>2020-05-24T09:34:40Z</time>
      </trkpt>
      <trkpt lat="44.55066" lon="4.62562">
        <ele>269.60000610352</ele>
        <time>2020-05-24T09:34:42Z</time>
      </trkpt>
      <trkpt lat="44.55056" lon="4.62558">
        <ele>269.39999389648</ele>
        <time>2020-05-24T09:34:45Z</time>
      </trkpt>
      <trkpt lat="44.5505" lon="4.62556">
        <ele>269.39999389648</ele>
        <time>2020-05-24T09:34:47Z</time>
      </trkpt>
      <trkpt lat="44.55046" lon="4.62555">
        <ele>269.39999389648</ele>
        <time>2020-05-24T09:34:48Z</time>
      </trkpt>
      <trkpt lat="44.55043" lon="4.62555">
        <ele>269.39999389648</ele>
        <time>2020-05-24T09:34:49Z</time>
      </trkpt>
      <trkpt lat="44.5504" lon="4.62555">
        <ele>269.20001220703</ele>
        <time>2020-05-24T09:34:50Z</time>
      </trkpt>
      <trkpt lat="44.55037" lon="4.62555">
        <ele>269.20001220703</ele>
        <time>2020-05-24T09:34:51Z</time>
      </trkpt>
      <trkpt lat="44.55033" lon="4.62555">
        <ele>269</ele>
        <time>2020-05-24T09:34:52Z</time>
      </trkpt>
      <trkpt lat="44.55017" lon="4.62559">
        <ele>268.60000610352</ele>
        <time>2020-05-24T09:34:56Z</time>
      </trkpt>
      <trkpt lat="44.55014" lon="4.6256">
        <ele>268.60000610352</ele>
        <time>2020-05-24T09:34:57Z</time>
      </trkpt>
      <trkpt lat="44.55012" lon="4.62561">
        <ele>268.60000610352</ele>
        <time>2020-05-24T09:34:58Z</time>
      </trkpt>
      <trkpt lat="44.55011" lon="4.62561">
        <ele>268.39999389648</ele>
        <time>2020-05-24T09:34:59Z</time>
      </trkpt>
      <trkpt lat="44.55009" lon="4.62561">
        <ele>266.39999389648</ele>
        <time>2020-05-24T09:35:05Z</time>
      </trkpt>
      <trkpt lat="44.55006" lon="4.6256">
        <ele>265.79998779297</ele>
        <time>2020-05-24T09:35:07Z</time>
      </trkpt>
      <trkpt lat="44.55005" lon="4.62561">
        <ele>265.79998779297</ele>
        <time>2020-05-24T09:35:08Z</time>
      </trkpt>
      <trkpt lat="44.55004" lon="4.62563">
        <ele>265.79998779297</ele>
        <time>2020-05-24T09:35:09Z</time>
      </trkpt>
      <trkpt lat="44.55004" lon="4.62564">
        <ele>265.60000610352</ele>
        <time>2020-05-24T09:35:10Z</time>
      </trkpt>
      <trkpt lat="44.55003" lon="4.62566">
        <ele>265.60000610352</ele>
        <time>2020-05-24T09:35:11Z</time>
      </trkpt>
      <trkpt lat="44.55003" lon="4.62566">
        <ele>265.60000610352</ele>
        <time>2020-05-24T09:35:12Z</time>
      </trkpt>
      <trkpt lat="44.55002" lon="4.62567">
        <ele>264.79998779297</ele>
        <time>2020-05-24T09:35:17Z</time>
      </trkpt>
      <trkpt lat="44.55003" lon="4.62568">
        <ele>264.39999389648</ele>
        <time>2020-05-24T09:35:18Z</time>
      </trkpt>
      <trkpt lat="44.55002" lon="4.62569">
        <ele>264.39999389648</ele>
        <time>2020-05-24T09:35:19Z</time>
      </trkpt>
      <trkpt lat="44.55002" lon="4.6257">
        <ele>264.20001220703</ele>
        <time>2020-05-24T09:35:20Z</time>
      </trkpt>
      <trkpt lat="44.55001" lon="4.62571">
        <ele>263.60000610352</ele>
        <time>2020-05-24T09:35:22Z</time>
      </trkpt>
      <trkpt lat="44.55001" lon="4.62571">
        <ele>263.39999389648</ele>
        <time>2020-05-24T09:35:23Z</time>
      </trkpt>
      <trkpt lat="44.55" lon="4.62572">
        <ele>263.60000610352</ele>
        <time>2020-05-24T09:35:24Z</time>
      </trkpt>
      <trkpt lat="44.55" lon="4.62573">
        <ele>263.60000610352</ele>
        <time>2020-05-24T09:35:25Z</time>
      </trkpt>
      <trkpt lat="44.54999" lon="4.62573">
        <ele>263.60000610352</ele>
        <time>2020-05-24T09:35:26Z</time>
      </trkpt>
      <trkpt lat="44.54999" lon="4.62573">
        <ele>263.39999389648</ele>
        <time>2020-05-24T09:35:27Z</time>
      </trkpt>
      <trkpt lat="44.54996" lon="4.62575">
        <ele>263.39999389648</ele>
        <time>2020-05-24T09:35:30Z</time>
      </trkpt>
      <trkpt lat="44.54995" lon="4.62576">
        <ele>263.39999389648</ele>
        <time>2020-05-24T09:35:31Z</time>
      </trkpt>
      <trkpt lat="44.54994" lon="4.62577">
        <ele>263.39999389648</ele>
        <time>2020-05-24T09:35:32Z</time>
      </trkpt>
      <trkpt lat="44.54993" lon="4.62577">
        <ele>263.39999389648</ele>
        <time>2020-05-24T09:35:33Z</time>
      </trkpt>
      <trkpt lat="44.54993" lon="4.62577">
        <ele>263.39999389648</ele>
        <time>2020-05-24T09:35:36Z</time>
      </trkpt>
      <trkpt lat="44.54992" lon="4.62578">
        <ele>263.79998779297</ele>
        <time>2020-05-24T09:35:39Z</time>
      </trkpt>
      <trkpt lat="44.54992" lon="4.62578">
        <ele>264</ele>
        <time>2020-05-24T09:35:40Z</time>
      </trkpt>
      <trkpt lat="44.54991" lon="4.62578">
        <ele>264</ele>
        <time>2020-05-24T09:35:41Z</time>
      </trkpt>
      <trkpt lat="44.5499" lon="4.62578">
        <ele>264</ele>
        <time>2020-05-24T09:35:42Z</time>
      </trkpt>
      <trkpt lat="44.5499" lon="4.62577">
        <ele>264.20001220703</ele>
        <time>2020-05-24T09:35:43Z</time>
      </trkpt>
      <trkpt lat="44.54989" lon="4.62577">
        <ele>264.20001220703</ele>
        <time>2020-05-24T09:35:44Z</time>
      </trkpt>
      <trkpt lat="44.54988" lon="4.62575">
        <ele>264.20001220703</ele>
        <time>2020-05-24T09:35:45Z</time>
      </trkpt>
      <trkpt lat="44.54986" lon="4.62574">
        <ele>264.20001220703</ele>
        <time>2020-05-24T09:35:46Z</time>
      </trkpt>
      <trkpt lat="44.54984" lon="4.62573">
        <ele>264.39999389648</ele>
        <time>2020-05-24T09:35:47Z</time>
      </trkpt>
      <trkpt lat="44.54973" lon="4.62568">
        <ele>264.39999389648</ele>
        <time>2020-05-24T09:35:51Z</time>
      </trkpt>
      <trkpt lat="44.54971" lon="4.62568">
        <ele>264.39999389648</ele>
        <time>2020-05-24T09:35:52Z</time>
      </trkpt>
      <trkpt lat="44.54969" lon="4.62568">
        <ele>264.39999389648</ele>
        <time>2020-05-24T09:35:53Z</time>
      </trkpt>
      <trkpt lat="44.54967" lon="4.62568">
        <ele>264.39999389648</ele>
        <time>2020-05-24T09:35:54Z</time>
      </trkpt>
      <trkpt lat="44.54965" lon="4.62568">
        <ele>264.39999389648</ele>
        <time>2020-05-24T09:35:55Z</time>
      </trkpt>
      <trkpt lat="44.54963" lon="4.62568">
        <ele>264.20001220703</ele>
        <time>2020-05-24T09:35:56Z</time>
      </trkpt>
      <trkpt lat="44.54962" lon="4.62567">
        <ele>264.39999389648</ele>
        <time>2020-05-24T09:35:57Z</time>
      </trkpt>
      <trkpt lat="44.5496" lon="4.62567">
        <ele>264.20001220703</ele>
        <time>2020-05-24T09:35:58Z</time>
      </trkpt>
      <trkpt lat="44.54956" lon="4.62567">
        <ele>264.20001220703</ele>
        <time>2020-05-24T09:36:00Z</time>
      </trkpt>
      <trkpt lat="44.54954" lon="4.62567">
        <ele>264.20001220703</ele>
        <time>2020-05-24T09:36:01Z</time>
      </trkpt>
      <trkpt lat="44.54953" lon="4.62567">
        <ele>264.20001220703</ele>
        <time>2020-05-24T09:36:02Z</time>
      </trkpt>
      <trkpt lat="44.54947" lon="4.62569">
        <ele>264.20001220703</ele>
        <time>2020-05-24T09:36:05Z</time>
      </trkpt>
      <trkpt lat="44.54945" lon="4.6257">
        <ele>264</ele>
        <time>2020-05-24T09:36:06Z</time>
      </trkpt>
      <trkpt lat="44.54935" lon="4.62572">
        <ele>264.20001220703</ele>
        <time>2020-05-24T09:36:09Z</time>
      </trkpt>
      <trkpt lat="44.54929" lon="4.62573">
        <ele>264</ele>
        <time>2020-05-24T09:36:11Z</time>
      </trkpt>
      <trkpt lat="44.54915" lon="4.62578">
        <ele>264</ele>
        <time>2020-05-24T09:36:15Z</time>
      </trkpt>
      <trkpt lat="44.54907" lon="4.62579">
        <ele>264</ele>
        <time>2020-05-24T09:36:17Z</time>
      </trkpt>
      <trkpt lat="44.54903" lon="4.62579">
        <ele>264</ele>
        <time>2020-05-24T09:36:18Z</time>
      </trkpt>
      <trkpt lat="44.549" lon="4.6258">
        <ele>264</ele>
        <time>2020-05-24T09:36:19Z</time>
      </trkpt>
      <trkpt lat="44.54897" lon="4.62581">
        <ele>264</ele>
        <time>2020-05-24T09:36:20Z</time>
      </trkpt>
      <trkpt lat="44.54893" lon="4.62582">
        <ele>264</ele>
        <time>2020-05-24T09:36:21Z</time>
      </trkpt>
      <trkpt lat="44.5489" lon="4.62583">
        <ele>264.20001220703</ele>
        <time>2020-05-24T09:36:22Z</time>
      </trkpt>
      <trkpt lat="44.54886" lon="4.62584">
        <ele>264</ele>
        <time>2020-05-24T09:36:23Z</time>
      </trkpt>
      <trkpt lat="44.54883" lon="4.62584">
        <ele>264</ele>
        <time>2020-05-24T09:36:24Z</time>
      </trkpt>
      <trkpt lat="44.5488" lon="4.62584">
        <ele>264.20001220703</ele>
        <time>2020-05-24T09:36:25Z</time>
      </trkpt>
      <trkpt lat="44.54877" lon="4.62585">
        <ele>264.20001220703</ele>
        <time>2020-05-24T09:36:26Z</time>
      </trkpt>
      <trkpt lat="44.54874" lon="4.62585">
        <ele>264.20001220703</ele>
        <time>2020-05-24T09:36:27Z</time>
      </trkpt>
      <trkpt lat="44.54871" lon="4.62586">
        <ele>264.39999389648</ele>
        <time>2020-05-24T09:36:28Z</time>
      </trkpt>
      <trkpt lat="44.54869" lon="4.62586">
        <ele>264.20001220703</ele>
        <time>2020-05-24T09:36:29Z</time>
      </trkpt>
      <trkpt lat="44.54863" lon="4.62587">
        <ele>264.39999389648</ele>
        <time>2020-05-24T09:36:31Z</time>
      </trkpt>
      <trkpt lat="44.54861" lon="4.62587">
        <ele>264.60000610352</ele>
        <time>2020-05-24T09:36:32Z</time>
      </trkpt>
      <trkpt lat="44.54858" lon="4.62588">
        <ele>264.79998779297</ele>
        <time>2020-05-24T09:36:33Z</time>
      </trkpt>
      <trkpt lat="44.54855" lon="4.62589">
        <ele>264.79998779297</ele>
        <time>2020-05-24T09:36:34Z</time>
      </trkpt>
      <trkpt lat="44.54853" lon="4.6259">
        <ele>264.79998779297</ele>
        <time>2020-05-24T09:36:35Z</time>
      </trkpt>
      <trkpt lat="44.5485" lon="4.62591">
        <ele>265</ele>
        <time>2020-05-24T09:36:36Z</time>
      </trkpt>
      <trkpt lat="44.54847" lon="4.62592">
        <ele>265</ele>
        <time>2020-05-24T09:36:37Z</time>
      </trkpt>
      <trkpt lat="44.54845" lon="4.62592">
        <ele>265.20001220703</ele>
        <time>2020-05-24T09:36:38Z</time>
      </trkpt>
      <trkpt lat="44.54842" lon="4.62592">
        <ele>265</ele>
        <time>2020-05-24T09:36:39Z</time>
      </trkpt>
      <trkpt lat="44.5484" lon="4.62592">
        <ele>265.20001220703</ele>
        <time>2020-05-24T09:36:40Z</time>
      </trkpt>
      <trkpt lat="44.54837" lon="4.62592">
        <ele>265.39999389648</ele>
        <time>2020-05-24T09:36:41Z</time>
      </trkpt>
      <trkpt lat="44.54834" lon="4.62592">
        <ele>265.60000610352</ele>
        <time>2020-05-24T09:36:42Z</time>
      </trkpt>
      <trkpt lat="44.54832" lon="4.62592">
        <ele>265.79998779297</ele>
        <time>2020-05-24T09:36:43Z</time>
      </trkpt>
      <trkpt lat="44.54829" lon="4.62593">
        <ele>266.20001220703</ele>
        <time>2020-05-24T09:36:44Z</time>
      </trkpt>
      <trkpt lat="44.54826" lon="4.62593">
        <ele>266.20001220703</ele>
        <time>2020-05-24T09:36:45Z</time>
      </trkpt>
      <trkpt lat="44.54824" lon="4.62593">
        <ele>266.39999389648</ele>
        <time>2020-05-24T09:36:46Z</time>
      </trkpt>
      <trkpt lat="44.54821" lon="4.62593">
        <ele>266.60000610352</ele>
        <time>2020-05-24T09:36:47Z</time>
      </trkpt>
      <trkpt lat="44.54819" lon="4.62594">
        <ele>266.79998779297</ele>
        <time>2020-05-24T09:36:48Z</time>
      </trkpt>
      <trkpt lat="44.54817" lon="4.62594">
        <ele>267.20001220703</ele>
        <time>2020-05-24T09:36:49Z</time>
      </trkpt>
      <trkpt lat="44.54816" lon="4.62594">
        <ele>267.39999389648</ele>
        <time>2020-05-24T09:36:50Z</time>
      </trkpt>
      <trkpt lat="44.54815" lon="4.62594">
        <ele>268</ele>
        <time>2020-05-24T09:36:51Z</time>
      </trkpt>
      <trkpt lat="44.54814" lon="4.62594">
        <ele>268.60000610352</ele>
        <time>2020-05-24T09:36:52Z</time>
      </trkpt>
      <trkpt lat="44.54813" lon="4.62594">
        <ele>269</ele>
        <time>2020-05-24T09:36:55Z</time>
      </trkpt>
      <trkpt lat="44.54812" lon="4.62594">
        <ele>269.20001220703</ele>
        <time>2020-05-24T09:36:56Z</time>
      </trkpt>
      <trkpt lat="44.54811" lon="4.62593">
        <ele>269.60000610352</ele>
        <time>2020-05-24T09:36:57Z</time>
      </trkpt>
      <trkpt lat="44.54806" lon="4.62592">
        <ele>269.79998779297</ele>
        <time>2020-05-24T09:36:59Z</time>
      </trkpt>
      <trkpt lat="44.54804" lon="4.62592">
        <ele>269.60000610352</ele>
        <time>2020-05-24T09:37:00Z</time>
      </trkpt>
      <trkpt lat="44.54802" lon="4.62591">
        <ele>269.79998779297</ele>
        <time>2020-05-24T09:37:01Z</time>
      </trkpt>
      <trkpt lat="44.54801" lon="4.62589">
        <ele>269.79998779297</ele>
        <time>2020-05-24T09:37:02Z</time>
      </trkpt>
      <trkpt lat="44.548" lon="4.62588">
        <ele>269.79998779297</ele>
        <time>2020-05-24T09:37:03Z</time>
      </trkpt>
      <trkpt lat="44.54798" lon="4.62587">
        <ele>269.79998779297</ele>
        <time>2020-05-24T09:37:04Z</time>
      </trkpt>
      <trkpt lat="44.54794" lon="4.62586">
        <ele>269.79998779297</ele>
        <time>2020-05-24T09:37:06Z</time>
      </trkpt>
      <trkpt lat="44.54794" lon="4.62586">
        <ele>269.79998779297</ele>
        <time>2020-05-24T09:37:07Z</time>
      </trkpt>
      <trkpt lat="44.54792" lon="4.62585">
        <ele>269.60000610352</ele>
        <time>2020-05-24T09:37:09Z</time>
      </trkpt>
      <trkpt lat="44.54791" lon="4.62585">
        <ele>269</ele>
        <time>2020-05-24T09:37:10Z</time>
      </trkpt>
      <trkpt lat="44.54789" lon="4.62584">
        <ele>268.60000610352</ele>
        <time>2020-05-24T09:37:11Z</time>
      </trkpt>
      <trkpt lat="44.54788" lon="4.62583">
        <ele>268.20001220703</ele>
        <time>2020-05-24T09:37:12Z</time>
      </trkpt>
      <trkpt lat="44.54785" lon="4.62582">
        <ele>267</ele>
        <time>2020-05-24T09:37:14Z</time>
      </trkpt>
      <trkpt lat="44.5478" lon="4.6258">
        <ele>266.39999389648</ele>
        <time>2020-05-24T09:37:16Z</time>
      </trkpt>
      <trkpt lat="44.54779" lon="4.62579">
        <ele>266.20001220703</ele>
        <time>2020-05-24T09:37:17Z</time>
      </trkpt>
      <trkpt lat="44.54777" lon="4.62578">
        <ele>266.20001220703</ele>
        <time>2020-05-24T09:37:18Z</time>
      </trkpt>
      <trkpt lat="44.54775" lon="4.62577">
        <ele>265.79998779297</ele>
        <time>2020-05-24T09:37:19Z</time>
      </trkpt>
      <trkpt lat="44.54768" lon="4.62574">
        <ele>265</ele>
        <time>2020-05-24T09:37:22Z</time>
      </trkpt>
      <trkpt lat="44.54765" lon="4.62573">
        <ele>264.39999389648</ele>
        <time>2020-05-24T09:37:23Z</time>
      </trkpt>
      <trkpt lat="44.54762" lon="4.62571">
        <ele>263.79998779297</ele>
        <time>2020-05-24T09:37:24Z</time>
      </trkpt>
      <trkpt lat="44.54759" lon="4.62569">
        <ele>263.39999389648</ele>
        <time>2020-05-24T09:37:25Z</time>
      </trkpt>
      <trkpt lat="44.54756" lon="4.62568">
        <ele>263</ele>
        <time>2020-05-24T09:37:26Z</time>
      </trkpt>
      <trkpt lat="44.54753" lon="4.62566">
        <ele>262.79998779297</ele>
        <time>2020-05-24T09:37:27Z</time>
      </trkpt>
      <trkpt lat="44.54746" lon="4.62563">
        <ele>262.39999389648</ele>
        <time>2020-05-24T09:37:29Z</time>
      </trkpt>
      <trkpt lat="44.54743" lon="4.62563">
        <ele>261.79998779297</ele>
        <time>2020-05-24T09:37:30Z</time>
      </trkpt>
      <trkpt lat="44.5474" lon="4.62562">
        <ele>261.20001220703</ele>
        <time>2020-05-24T09:37:31Z</time>
      </trkpt>
      <trkpt lat="44.54733" lon="4.6256">
        <ele>260.39999389648</ele>
        <time>2020-05-24T09:37:33Z</time>
      </trkpt>
      <trkpt lat="44.54729" lon="4.62559">
        <ele>259.60000610352</ele>
        <time>2020-05-24T09:37:34Z</time>
      </trkpt>
      <trkpt lat="44.54726" lon="4.62559">
        <ele>259.20001220703</ele>
        <time>2020-05-24T09:37:35Z</time>
      </trkpt>
      <trkpt lat="44.54724" lon="4.62561">
        <ele>258.20001220703</ele>
        <time>2020-05-24T09:37:36Z</time>
      </trkpt>
      <trkpt lat="44.54721" lon="4.62562">
        <ele>257.79998779297</ele>
        <time>2020-05-24T09:37:37Z</time>
      </trkpt>
      <trkpt lat="44.54719" lon="4.62564">
        <ele>257.39999389648</ele>
        <time>2020-05-24T09:37:38Z</time>
      </trkpt>
      <trkpt lat="44.54714" lon="4.62565">
        <ele>256.39999389648</ele>
        <time>2020-05-24T09:37:40Z</time>
      </trkpt>
      <trkpt lat="44.54712" lon="4.62565">
        <ele>256</ele>
        <time>2020-05-24T09:37:41Z</time>
      </trkpt>
      <trkpt lat="44.54709" lon="4.62565">
        <ele>255.80000305176</ele>
        <time>2020-05-24T09:37:42Z</time>
      </trkpt>
      <trkpt lat="44.54706" lon="4.62564">
        <ele>255.60000610352</ele>
        <time>2020-05-24T09:37:43Z</time>
      </trkpt>
      <trkpt lat="44.547" lon="4.62565">
        <ele>255.39999389648</ele>
        <time>2020-05-24T09:37:45Z</time>
      </trkpt>
      <trkpt lat="44.54697" lon="4.62566">
        <ele>255.19999694824</ele>
        <time>2020-05-24T09:37:46Z</time>
      </trkpt>
      <trkpt lat="44.54694" lon="4.62566">
        <ele>255.19999694824</ele>
        <time>2020-05-24T09:37:47Z</time>
      </trkpt>
      <trkpt lat="44.5469" lon="4.62566">
        <ele>255.19999694824</ele>
        <time>2020-05-24T09:37:48Z</time>
      </trkpt>
      <trkpt lat="44.54687" lon="4.62566">
        <ele>255.39999389648</ele>
        <time>2020-05-24T09:37:49Z</time>
      </trkpt>
      <trkpt lat="44.54684" lon="4.62566">
        <ele>255.39999389648</ele>
        <time>2020-05-24T09:37:50Z</time>
      </trkpt>
      <trkpt lat="44.54681" lon="4.62565">
        <ele>255.19999694824</ele>
        <time>2020-05-24T09:37:51Z</time>
      </trkpt>
      <trkpt lat="44.54679" lon="4.62564">
        <ele>255.19999694824</ele>
        <time>2020-05-24T09:37:52Z</time>
      </trkpt>
      <trkpt lat="44.54676" lon="4.62563">
        <ele>255.39999389648</ele>
        <time>2020-05-24T09:37:53Z</time>
      </trkpt>
      <trkpt lat="44.54673" lon="4.62561">
        <ele>255.39999389648</ele>
        <time>2020-05-24T09:37:54Z</time>
      </trkpt>
      <trkpt lat="44.54666" lon="4.62558">
        <ele>255.60000610352</ele>
        <time>2020-05-24T09:37:56Z</time>
      </trkpt>
      <trkpt lat="44.54655" lon="4.62557">
        <ele>255.60000610352</ele>
        <time>2020-05-24T09:37:59Z</time>
      </trkpt>
      <trkpt lat="44.54651" lon="4.62557">
        <ele>255.60000610352</ele>
        <time>2020-05-24T09:38:00Z</time>
      </trkpt>
      <trkpt lat="44.54648" lon="4.62557">
        <ele>255.60000610352</ele>
        <time>2020-05-24T09:38:01Z</time>
      </trkpt>
      <trkpt lat="44.54645" lon="4.62556">
        <ele>255.60000610352</ele>
        <time>2020-05-24T09:38:02Z</time>
      </trkpt>
      <trkpt lat="44.54635" lon="4.62554">
        <ele>254.80000305176</ele>
        <time>2020-05-24T09:38:05Z</time>
      </trkpt>
      <trkpt lat="44.54631" lon="4.62553">
        <ele>254.60000610352</ele>
        <time>2020-05-24T09:38:06Z</time>
      </trkpt>
      <trkpt lat="44.54627" lon="4.62553">
        <ele>254.19999694824</ele>
        <time>2020-05-24T09:38:07Z</time>
      </trkpt>
      <trkpt lat="44.54623" lon="4.62553">
        <ele>254.19999694824</ele>
        <time>2020-05-24T09:38:08Z</time>
      </trkpt>
      <trkpt lat="44.54618" lon="4.62554">
        <ele>254</ele>
        <time>2020-05-24T09:38:09Z</time>
      </trkpt>
      <trkpt lat="44.54615" lon="4.62554">
        <ele>253.60000610352</ele>
        <time>2020-05-24T09:38:10Z</time>
      </trkpt>
      <trkpt lat="44.54611" lon="4.62553">
        <ele>252.80000305176</ele>
        <time>2020-05-24T09:38:11Z</time>
      </trkpt>
      <trkpt lat="44.54608" lon="4.62552">
        <ele>252.80000305176</ele>
        <time>2020-05-24T09:38:12Z</time>
      </trkpt>
      <trkpt lat="44.54604" lon="4.62553">
        <ele>252.39999389648</ele>
        <time>2020-05-24T09:38:13Z</time>
      </trkpt>
      <trkpt lat="44.54602" lon="4.62554">
        <ele>252.19999694824</ele>
        <time>2020-05-24T09:38:14Z</time>
      </trkpt>
      <trkpt lat="44.54598" lon="4.62555">
        <ele>251.39999389648</ele>
        <time>2020-05-24T09:38:15Z</time>
      </trkpt>
      <trkpt lat="44.54595" lon="4.62557">
        <ele>251</ele>
        <time>2020-05-24T09:38:16Z</time>
      </trkpt>
      <trkpt lat="44.54592" lon="4.62559">
        <ele>250.60000610352</ele>
        <time>2020-05-24T09:38:17Z</time>
      </trkpt>
      <trkpt lat="44.54589" lon="4.6256">
        <ele>249.60000610352</ele>
        <time>2020-05-24T09:38:18Z</time>
      </trkpt>
      <trkpt lat="44.54585" lon="4.62562">
        <ele>249</ele>
        <time>2020-05-24T09:38:19Z</time>
      </trkpt>
      <trkpt lat="44.54582" lon="4.62563">
        <ele>248.60000610352</ele>
        <time>2020-05-24T09:38:20Z</time>
      </trkpt>
      <trkpt lat="44.54578" lon="4.62565">
        <ele>248.39999389648</ele>
        <time>2020-05-24T09:38:21Z</time>
      </trkpt>
      <trkpt lat="44.54575" lon="4.62566">
        <ele>248.39999389648</ele>
        <time>2020-05-24T09:38:22Z</time>
      </trkpt>
      <trkpt lat="44.54572" lon="4.62566">
        <ele>248.19999694824</ele>
        <time>2020-05-24T09:38:23Z</time>
      </trkpt>
      <trkpt lat="44.54568" lon="4.62567">
        <ele>248</ele>
        <time>2020-05-24T09:38:24Z</time>
      </trkpt>
      <trkpt lat="44.54564" lon="4.62567">
        <ele>248</ele>
        <time>2020-05-24T09:38:25Z</time>
      </trkpt>
      <trkpt lat="44.5456" lon="4.62567">
        <ele>247.80000305176</ele>
        <time>2020-05-24T09:38:26Z</time>
      </trkpt>
      <trkpt lat="44.54552" lon="4.62571">
        <ele>247.80000305176</ele>
        <time>2020-05-24T09:38:28Z</time>
      </trkpt>
      <trkpt lat="44.54548" lon="4.62572">
        <ele>247.80000305176</ele>
        <time>2020-05-24T09:38:29Z</time>
      </trkpt>
      <trkpt lat="44.54544" lon="4.62574">
        <ele>247.60000610352</ele>
        <time>2020-05-24T09:38:30Z</time>
      </trkpt>
      <trkpt lat="44.5454" lon="4.62575">
        <ele>247.60000610352</ele>
        <time>2020-05-24T09:38:31Z</time>
      </trkpt>
      <trkpt lat="44.54537" lon="4.62575">
        <ele>247.39999389648</ele>
        <time>2020-05-24T09:38:32Z</time>
      </trkpt>
      <trkpt lat="44.54534" lon="4.62575">
        <ele>247.39999389648</ele>
        <time>2020-05-24T09:38:33Z</time>
      </trkpt>
      <trkpt lat="44.54531" lon="4.62575">
        <ele>247.39999389648</ele>
        <time>2020-05-24T09:38:34Z</time>
      </trkpt>
      <trkpt lat="44.54529" lon="4.62575">
        <ele>247.19999694824</ele>
        <time>2020-05-24T09:38:35Z</time>
      </trkpt>
      <trkpt lat="44.54527" lon="4.62575">
        <ele>247</ele>
        <time>2020-05-24T09:38:36Z</time>
      </trkpt>
      <trkpt lat="44.54526" lon="4.62575">
        <ele>246.80000305176</ele>
        <time>2020-05-24T09:38:38Z</time>
      </trkpt>
      <trkpt lat="44.54522" lon="4.62575">
        <ele>245.60000610352</ele>
        <time>2020-05-24T09:38:47Z</time>
      </trkpt>
      <trkpt lat="44.54517" lon="4.62575">
        <ele>245.19999694824</ele>
        <time>2020-05-24T09:38:49Z</time>
      </trkpt>
      <trkpt lat="44.54514" lon="4.62574">
        <ele>245.39999389648</ele>
        <time>2020-05-24T09:38:50Z</time>
      </trkpt>
      <trkpt lat="44.54511" lon="4.62574">
        <ele>245.19999694824</ele>
        <time>2020-05-24T09:38:51Z</time>
      </trkpt>
      <trkpt lat="44.54508" lon="4.62574">
        <ele>245.19999694824</ele>
        <time>2020-05-24T09:38:52Z</time>
      </trkpt>
      <trkpt lat="44.54505" lon="4.62574">
        <ele>245.19999694824</ele>
        <time>2020-05-24T09:38:53Z</time>
      </trkpt>
      <trkpt lat="44.54501" lon="4.62574">
        <ele>245</ele>
        <time>2020-05-24T09:38:54Z</time>
      </trkpt>
      <trkpt lat="44.54498" lon="4.62575">
        <ele>245</ele>
        <time>2020-05-24T09:38:55Z</time>
      </trkpt>
      <trkpt lat="44.54495" lon="4.62576">
        <ele>245.19999694824</ele>
        <time>2020-05-24T09:38:56Z</time>
      </trkpt>
      <trkpt lat="44.54489" lon="4.62579">
        <ele>244.80000305176</ele>
        <time>2020-05-24T09:38:58Z</time>
      </trkpt>
      <trkpt lat="44.54483" lon="4.62581">
        <ele>243.60000610352</ele>
        <time>2020-05-24T09:39:00Z</time>
      </trkpt>
      <trkpt lat="44.54479" lon="4.62582">
        <ele>242.60000610352</ele>
        <time>2020-05-24T09:39:01Z</time>
      </trkpt>
      <trkpt lat="44.54475" lon="4.62581">
        <ele>242.19999694824</ele>
        <time>2020-05-24T09:39:02Z</time>
      </trkpt>
      <trkpt lat="44.54471" lon="4.62579">
        <ele>241.80000305176</ele>
        <time>2020-05-24T09:39:03Z</time>
      </trkpt>
      <trkpt lat="44.54467" lon="4.62577">
        <ele>241.60000610352</ele>
        <time>2020-05-24T09:39:04Z</time>
      </trkpt>
      <trkpt lat="44.54464" lon="4.62575">
        <ele>241.60000610352</ele>
        <time>2020-05-24T09:39:05Z</time>
      </trkpt>
      <trkpt lat="44.54462" lon="4.62574">
        <ele>241.19999694824</ele>
        <time>2020-05-24T09:39:06Z</time>
      </trkpt>
      <trkpt lat="44.54459" lon="4.62573">
        <ele>241.39999389648</ele>
        <time>2020-05-24T09:39:07Z</time>
      </trkpt>
      <trkpt lat="44.54458" lon="4.62572">
        <ele>241.39999389648</ele>
        <time>2020-05-24T09:39:08Z</time>
      </trkpt>
      <trkpt lat="44.54457" lon="4.62571">
        <ele>241.39999389648</ele>
        <time>2020-05-24T09:39:09Z</time>
      </trkpt>
      <trkpt lat="44.54456" lon="4.62569">
        <ele>241.19999694824</ele>
        <time>2020-05-24T09:39:10Z</time>
      </trkpt>
      <trkpt lat="44.54455" lon="4.62568">
        <ele>241</ele>
        <time>2020-05-24T09:39:11Z</time>
      </trkpt>
      <trkpt lat="44.54454" lon="4.62567">
        <ele>240.80000305176</ele>
        <time>2020-05-24T09:39:12Z</time>
      </trkpt>
      <trkpt lat="44.54452" lon="4.62565">
        <ele>239.19999694824</ele>
        <time>2020-05-24T09:39:18Z</time>
      </trkpt>
      <trkpt lat="44.54451" lon="4.62563">
        <ele>239.19999694824</ele>
        <time>2020-05-24T09:39:19Z</time>
      </trkpt>
      <trkpt lat="44.5445" lon="4.62563">
        <ele>239</ele>
        <time>2020-05-24T09:39:20Z</time>
      </trkpt>
      <trkpt lat="44.5445" lon="4.62562">
        <ele>239</ele>
        <time>2020-05-24T09:39:22Z</time>
      </trkpt>
      <trkpt lat="44.54449" lon="4.62561">
        <ele>238.80000305176</ele>
        <time>2020-05-24T09:39:25Z</time>
      </trkpt>
      <trkpt lat="44.54448" lon="4.62561">
        <ele>238.80000305176</ele>
        <time>2020-05-24T09:39:26Z</time>
      </trkpt>
      <trkpt lat="44.54448" lon="4.6256">
        <ele>238.19999694824</ele>
        <time>2020-05-24T09:39:29Z</time>
      </trkpt>
      <trkpt lat="44.54449" lon="4.6256">
        <ele>237.39999389648</ele>
        <time>2020-05-24T09:39:41Z</time>
      </trkpt>
      <trkpt lat="44.54448" lon="4.6256">
        <ele>237.39999389648</ele>
        <time>2020-05-24T09:39:52Z</time>
      </trkpt>
      <trkpt lat="44.54448" lon="4.6256">
        <ele>237.39999389648</ele>
        <time>2020-05-24T09:39:53Z</time>
      </trkpt>
      <trkpt lat="44.54447" lon="4.62559">
        <ele>237.60000610352</ele>
        <time>2020-05-24T09:39:54Z</time>
      </trkpt>
      <trkpt lat="44.54446" lon="4.62559">
        <ele>237.39999389648</ele>
        <time>2020-05-24T09:40:00Z</time>
      </trkpt>
      <trkpt lat="44.54446" lon="4.6256">
        <ele>237.39999389648</ele>
        <time>2020-05-24T09:40:02Z</time>
      </trkpt>
      <trkpt lat="44.54445" lon="4.6256">
        <ele>237.39999389648</ele>
        <time>2020-05-24T09:40:03Z</time>
      </trkpt>
      <trkpt lat="44.54443" lon="4.6256">
        <ele>237.39999389648</ele>
        <time>2020-05-24T09:40:04Z</time>
      </trkpt>
      <trkpt lat="44.54442" lon="4.62561">
        <ele>237.39999389648</ele>
        <time>2020-05-24T09:40:05Z</time>
      </trkpt>
      <trkpt lat="44.5444" lon="4.62561">
        <ele>237.39999389648</ele>
        <time>2020-05-24T09:40:06Z</time>
      </trkpt>
      <trkpt lat="44.54439" lon="4.62562">
        <ele>237.39999389648</ele>
        <time>2020-05-24T09:40:07Z</time>
      </trkpt>
      <trkpt lat="44.54437" lon="4.62562">
        <ele>237.60000610352</ele>
        <time>2020-05-24T09:40:08Z</time>
      </trkpt>
      <trkpt lat="44.54435" lon="4.62563">
        <ele>237.39999389648</ele>
        <time>2020-05-24T09:40:09Z</time>
      </trkpt>
      <trkpt lat="44.54433" lon="4.62563">
        <ele>237.60000610352</ele>
        <time>2020-05-24T09:40:10Z</time>
      </trkpt>
      <trkpt lat="44.54431" lon="4.62564">
        <ele>237.60000610352</ele>
        <time>2020-05-24T09:40:11Z</time>
      </trkpt>
      <trkpt lat="44.54429" lon="4.62564">
        <ele>237.80000305176</ele>
        <time>2020-05-24T09:40:12Z</time>
      </trkpt>
      <trkpt lat="44.54427" lon="4.62565">
        <ele>237.60000610352</ele>
        <time>2020-05-24T09:40:13Z</time>
      </trkpt>
      <trkpt lat="44.54424" lon="4.62566">
        <ele>237.80000305176</ele>
        <time>2020-05-24T09:40:14Z</time>
      </trkpt>
      <trkpt lat="44.54422" lon="4.62567">
        <ele>238</ele>
        <time>2020-05-24T09:40:15Z</time>
      </trkpt>
      <trkpt lat="44.54419" lon="4.62569">
        <ele>238.60000610352</ele>
        <time>2020-05-24T09:40:16Z</time>
      </trkpt>
      <trkpt lat="44.54417" lon="4.6257">
        <ele>239.19999694824</ele>
        <time>2020-05-24T09:40:17Z</time>
      </trkpt>
      <trkpt lat="44.54415" lon="4.62571">
        <ele>239.39999389648</ele>
        <time>2020-05-24T09:40:18Z</time>
      </trkpt>
      <trkpt lat="44.54412" lon="4.62571">
        <ele>240</ele>
        <time>2020-05-24T09:40:19Z</time>
      </trkpt>
      <trkpt lat="44.544" lon="4.62576">
        <ele>240.60000610352</ele>
        <time>2020-05-24T09:40:23Z</time>
      </trkpt>
      <trkpt lat="44.54397" lon="4.62576">
        <ele>240.80000305176</ele>
        <time>2020-05-24T09:40:24Z</time>
      </trkpt>
      <trkpt lat="44.54394" lon="4.62577">
        <ele>241</ele>
        <time>2020-05-24T09:40:25Z</time>
      </trkpt>
      <trkpt lat="44.54391" lon="4.62578">
        <ele>241</ele>
        <time>2020-05-24T09:40:26Z</time>
      </trkpt>
      <trkpt lat="44.54388" lon="4.62579">
        <ele>241</ele>
        <time>2020-05-24T09:40:27Z</time>
      </trkpt>
      <trkpt lat="44.54382" lon="4.62579">
        <ele>241.19999694824</ele>
        <time>2020-05-24T09:40:29Z</time>
      </trkpt>
      <trkpt lat="44.5438" lon="4.62579">
        <ele>241.19999694824</ele>
        <time>2020-05-24T09:40:30Z</time>
      </trkpt>
      <trkpt lat="44.54377" lon="4.62579">
        <ele>241.19999694824</ele>
        <time>2020-05-24T09:40:31Z</time>
      </trkpt>
      <trkpt lat="44.54374" lon="4.62579">
        <ele>241.19999694824</ele>
        <time>2020-05-24T09:40:32Z</time>
      </trkpt>
      <trkpt lat="44.54372" lon="4.62579">
        <ele>241.39999389648</ele>
        <time>2020-05-24T09:40:33Z</time>
      </trkpt>
      <trkpt lat="44.5437" lon="4.62579">
        <ele>241.19999694824</ele>
        <time>2020-05-24T09:40:34Z</time>
      </trkpt>
      <trkpt lat="44.54368" lon="4.62579">
        <ele>241.39999389648</ele>
        <time>2020-05-24T09:40:35Z</time>
      </trkpt>
      <trkpt lat="44.54365" lon="4.6258">
        <ele>241.39999389648</ele>
        <time>2020-05-24T09:40:36Z</time>
      </trkpt>
      <trkpt lat="44.54363" lon="4.6258">
        <ele>241.39999389648</ele>
        <time>2020-05-24T09:40:37Z</time>
      </trkpt>
      <trkpt lat="44.54361" lon="4.6258">
        <ele>241.60000610352</ele>
        <time>2020-05-24T09:40:38Z</time>
      </trkpt>
      <trkpt lat="44.54358" lon="4.6258">
        <ele>241.60000610352</ele>
        <time>2020-05-24T09:40:39Z</time>
      </trkpt>
      <trkpt lat="44.54355" lon="4.62579">
        <ele>241.60000610352</ele>
        <time>2020-05-24T09:40:40Z</time>
      </trkpt>
      <trkpt lat="44.54352" lon="4.62578">
        <ele>241.60000610352</ele>
        <time>2020-05-24T09:40:41Z</time>
      </trkpt>
      <trkpt lat="44.54349" lon="4.62578">
        <ele>241.60000610352</ele>
        <time>2020-05-24T09:40:42Z</time>
      </trkpt>
      <trkpt lat="44.54346" lon="4.62578">
        <ele>241.60000610352</ele>
        <time>2020-05-24T09:40:43Z</time>
      </trkpt>
      <trkpt lat="44.54343" lon="4.62578">
        <ele>241.80000305176</ele>
        <time>2020-05-24T09:40:44Z</time>
      </trkpt>
      <trkpt lat="44.5434" lon="4.62578">
        <ele>241.80000305176</ele>
        <time>2020-05-24T09:40:45Z</time>
      </trkpt>
      <trkpt lat="44.54336" lon="4.62578">
        <ele>241.80000305176</ele>
        <time>2020-05-24T09:40:46Z</time>
      </trkpt>
      <trkpt lat="44.54334" lon="4.62579">
        <ele>241.80000305176</ele>
        <time>2020-05-24T09:40:47Z</time>
      </trkpt>
      <trkpt lat="44.54331" lon="4.62579">
        <ele>242</ele>
        <time>2020-05-24T09:40:48Z</time>
      </trkpt>
      <trkpt lat="44.54328" lon="4.62579">
        <ele>242</ele>
        <time>2020-05-24T09:40:49Z</time>
      </trkpt>
      <trkpt lat="44.54325" lon="4.62579">
        <ele>242.39999389648</ele>
        <time>2020-05-24T09:40:50Z</time>
      </trkpt>
      <trkpt lat="44.54322" lon="4.62579">
        <ele>242.60000610352</ele>
        <time>2020-05-24T09:40:51Z</time>
      </trkpt>
      <trkpt lat="44.54319" lon="4.62579">
        <ele>242.80000305176</ele>
        <time>2020-05-24T09:40:52Z</time>
      </trkpt>
      <trkpt lat="44.54316" lon="4.62578">
        <ele>242.80000305176</ele>
        <time>2020-05-24T09:40:53Z</time>
      </trkpt>
      <trkpt lat="44.54313" lon="4.62578">
        <ele>243</ele>
        <time>2020-05-24T09:40:54Z</time>
      </trkpt>
      <trkpt lat="44.54311" lon="4.62579">
        <ele>243</ele>
        <time>2020-05-24T09:40:55Z</time>
      </trkpt>
      <trkpt lat="44.54309" lon="4.62579">
        <ele>243</ele>
        <time>2020-05-24T09:40:56Z</time>
      </trkpt>
      <trkpt lat="44.54306" lon="4.6258">
        <ele>243.19999694824</ele>
        <time>2020-05-24T09:40:57Z</time>
      </trkpt>
      <trkpt lat="44.54303" lon="4.6258">
        <ele>243.19999694824</ele>
        <time>2020-05-24T09:40:58Z</time>
      </trkpt>
      <trkpt lat="44.54301" lon="4.62581">
        <ele>243.19999694824</ele>
        <time>2020-05-24T09:40:59Z</time>
      </trkpt>
      <trkpt lat="44.54298" lon="4.62582">
        <ele>243.39999389648</ele>
        <time>2020-05-24T09:41:00Z</time>
      </trkpt>
      <trkpt lat="44.54295" lon="4.62582">
        <ele>243.19999694824</ele>
        <time>2020-05-24T09:41:01Z</time>
      </trkpt>
      <trkpt lat="44.54293" lon="4.62582">
        <ele>243.39999389648</ele>
        <time>2020-05-24T09:41:02Z</time>
      </trkpt>
      <trkpt lat="44.54291" lon="4.62583">
        <ele>243.39999389648</ele>
        <time>2020-05-24T09:41:03Z</time>
      </trkpt>
      <trkpt lat="44.54288" lon="4.62584">
        <ele>243.60000610352</ele>
        <time>2020-05-24T09:41:04Z</time>
      </trkpt>
      <trkpt lat="44.54286" lon="4.62584">
        <ele>243.80000305176</ele>
        <time>2020-05-24T09:41:05Z</time>
      </trkpt>
      <trkpt lat="44.5428" lon="4.62585">
        <ele>244</ele>
        <time>2020-05-24T09:41:07Z</time>
      </trkpt>
      <trkpt lat="44.54277" lon="4.62585">
        <ele>244.19999694824</ele>
        <time>2020-05-24T09:41:08Z</time>
      </trkpt>
      <trkpt lat="44.54275" lon="4.62585">
        <ele>244</ele>
        <time>2020-05-24T09:41:09Z</time>
      </trkpt>
      <trkpt lat="44.54272" lon="4.62585">
        <ele>244.19999694824</ele>
        <time>2020-05-24T09:41:10Z</time>
      </trkpt>
      <trkpt lat="44.54266" lon="4.62586">
        <ele>244.39999389648</ele>
        <time>2020-05-24T09:41:12Z</time>
      </trkpt>
      <trkpt lat="44.54264" lon="4.62586">
        <ele>244.39999389648</ele>
        <time>2020-05-24T09:41:13Z</time>
      </trkpt>
      <trkpt lat="44.54261" lon="4.62586">
        <ele>244.39999389648</ele>
        <time>2020-05-24T09:41:14Z</time>
      </trkpt>
      <trkpt lat="44.54254" lon="4.62587">
        <ele>244.39999389648</ele>
        <time>2020-05-24T09:41:16Z</time>
      </trkpt>
      <trkpt lat="44.54248" lon="4.62587">
        <ele>244.19999694824</ele>
        <time>2020-05-24T09:41:18Z</time>
      </trkpt>
      <trkpt lat="44.54245" lon="4.62587">
        <ele>244.39999389648</ele>
        <time>2020-05-24T09:41:19Z</time>
      </trkpt>
      <trkpt lat="44.54242" lon="4.62586">
        <ele>244.39999389648</ele>
        <time>2020-05-24T09:41:20Z</time>
      </trkpt>
      <trkpt lat="44.54238" lon="4.62586">
        <ele>244.39999389648</ele>
        <time>2020-05-24T09:41:21Z</time>
      </trkpt>
      <trkpt lat="44.54235" lon="4.62586">
        <ele>244.60000610352</ele>
        <time>2020-05-24T09:41:22Z</time>
      </trkpt>
      <trkpt lat="44.54232" lon="4.62586">
        <ele>244.60000610352</ele>
        <time>2020-05-24T09:41:23Z</time>
      </trkpt>
      <trkpt lat="44.54229" lon="4.62586">
        <ele>244.60000610352</ele>
        <time>2020-05-24T09:41:24Z</time>
      </trkpt>
      <trkpt lat="44.54225" lon="4.62586">
        <ele>244.60000610352</ele>
        <time>2020-05-24T09:41:25Z</time>
      </trkpt>
      <trkpt lat="44.54222" lon="4.62585">
        <ele>244.80000305176</ele>
        <time>2020-05-24T09:41:26Z</time>
      </trkpt>
      <trkpt lat="44.54219" lon="4.62585">
        <ele>245</ele>
        <time>2020-05-24T09:41:27Z</time>
      </trkpt>
      <trkpt lat="44.54216" lon="4.62584">
        <ele>245.19999694824</ele>
        <time>2020-05-24T09:41:28Z</time>
      </trkpt>
      <trkpt lat="44.54213" lon="4.62584">
        <ele>245.39999389648</ele>
        <time>2020-05-24T09:41:29Z</time>
      </trkpt>
      <trkpt lat="44.5421" lon="4.62584">
        <ele>245.60000610352</ele>
        <time>2020-05-24T09:41:30Z</time>
      </trkpt>
      <trkpt lat="44.54207" lon="4.62585">
        <ele>245.80000305176</ele>
        <time>2020-05-24T09:41:31Z</time>
      </trkpt>
      <trkpt lat="44.54204" lon="4.62584">
        <ele>246</ele>
        <time>2020-05-24T09:41:32Z</time>
      </trkpt>
      <trkpt lat="44.54201" lon="4.62584">
        <ele>246</ele>
        <time>2020-05-24T09:41:33Z</time>
      </trkpt>
      <trkpt lat="44.54198" lon="4.62583">
        <ele>246.19999694824</ele>
        <time>2020-05-24T09:41:34Z</time>
      </trkpt>
      <trkpt lat="44.54192" lon="4.62582">
        <ele>246.60000610352</ele>
        <time>2020-05-24T09:41:36Z</time>
      </trkpt>
      <trkpt lat="44.5419" lon="4.62581">
        <ele>246.80000305176</ele>
        <time>2020-05-24T09:41:37Z</time>
      </trkpt>
      <trkpt lat="44.54187" lon="4.6258">
        <ele>246.80000305176</ele>
        <time>2020-05-24T09:41:38Z</time>
      </trkpt>
      <trkpt lat="44.54184" lon="4.6258">
        <ele>246.80000305176</ele>
        <time>2020-05-24T09:41:39Z</time>
      </trkpt>
      <trkpt lat="44.54181" lon="4.6258">
        <ele>247</ele>
        <time>2020-05-24T09:41:40Z</time>
      </trkpt>
      <trkpt lat="44.54178" lon="4.62579">
        <ele>247</ele>
        <time>2020-05-24T09:41:41Z</time>
      </trkpt>
      <trkpt lat="44.54176" lon="4.62578">
        <ele>247</ele>
        <time>2020-05-24T09:41:42Z</time>
      </trkpt>
      <trkpt lat="44.54173" lon="4.62577">
        <ele>247.19999694824</ele>
        <time>2020-05-24T09:41:43Z</time>
      </trkpt>
      <trkpt lat="44.5417" lon="4.62576">
        <ele>247.39999389648</ele>
        <time>2020-05-24T09:41:44Z</time>
      </trkpt>
      <trkpt lat="44.54167" lon="4.62576">
        <ele>247.60000610352</ele>
        <time>2020-05-24T09:41:45Z</time>
      </trkpt>
      <trkpt lat="44.54157" lon="4.62575">
        <ele>247.60000610352</ele>
        <time>2020-05-24T09:41:48Z</time>
      </trkpt>
      <trkpt lat="44.54155" lon="4.62575">
        <ele>247.80000305176</ele>
        <time>2020-05-24T09:41:49Z</time>
      </trkpt>
      <trkpt lat="44.54152" lon="4.62574">
        <ele>247.80000305176</ele>
        <time>2020-05-24T09:41:50Z</time>
      </trkpt>
      <trkpt lat="44.5415" lon="4.62573">
        <ele>247.80000305176</ele>
        <time>2020-05-24T09:41:51Z</time>
      </trkpt>
      <trkpt lat="44.54147" lon="4.62572">
        <ele>247.80000305176</ele>
        <time>2020-05-24T09:41:52Z</time>
      </trkpt>
      <trkpt lat="44.54144" lon="4.6257">
        <ele>247.80000305176</ele>
        <time>2020-05-24T09:41:53Z</time>
      </trkpt>
      <trkpt lat="44.54141" lon="4.62568">
        <ele>247.80000305176</ele>
        <time>2020-05-24T09:41:54Z</time>
      </trkpt>
      <trkpt lat="44.54139" lon="4.62567">
        <ele>248</ele>
        <time>2020-05-24T09:41:55Z</time>
      </trkpt>
      <trkpt lat="44.54136" lon="4.62565">
        <ele>248</ele>
        <time>2020-05-24T09:41:56Z</time>
      </trkpt>
      <trkpt lat="44.54134" lon="4.62564">
        <ele>248.19999694824</ele>
        <time>2020-05-24T09:41:57Z</time>
      </trkpt>
      <trkpt lat="44.54131" lon="4.62563">
        <ele>248</ele>
        <time>2020-05-24T09:41:58Z</time>
      </trkpt>
      <trkpt lat="44.54128" lon="4.62562">
        <ele>248.19999694824</ele>
        <time>2020-05-24T09:41:59Z</time>
      </trkpt>
      <trkpt lat="44.54125" lon="4.62561">
        <ele>248.19999694824</ele>
        <time>2020-05-24T09:42:00Z</time>
      </trkpt>
      <trkpt lat="44.54122" lon="4.6256">
        <ele>248.19999694824</ele>
        <time>2020-05-24T09:42:01Z</time>
      </trkpt>
      <trkpt lat="44.5412" lon="4.62559">
        <ele>248.19999694824</ele>
        <time>2020-05-24T09:42:02Z</time>
      </trkpt>
      <trkpt lat="44.54117" lon="4.62558">
        <ele>248.39999389648</ele>
        <time>2020-05-24T09:42:03Z</time>
      </trkpt>
      <trkpt lat="44.54115" lon="4.62557">
        <ele>248.60000610352</ele>
        <time>2020-05-24T09:42:04Z</time>
      </trkpt>
      <trkpt lat="44.54112" lon="4.62556">
        <ele>249</ele>
        <time>2020-05-24T09:42:05Z</time>
      </trkpt>
      <trkpt lat="44.5411" lon="4.62556">
        <ele>249.19999694824</ele>
        <time>2020-05-24T09:42:06Z</time>
      </trkpt>
      <trkpt lat="44.54107" lon="4.62555">
        <ele>249.19999694824</ele>
        <time>2020-05-24T09:42:07Z</time>
      </trkpt>
      <trkpt lat="44.54105" lon="4.62555">
        <ele>249.60000610352</ele>
        <time>2020-05-24T09:42:08Z</time>
      </trkpt>
      <trkpt lat="44.54102" lon="4.62555">
        <ele>249.80000305176</ele>
        <time>2020-05-24T09:42:09Z</time>
      </trkpt>
      <trkpt lat="44.54099" lon="4.62554">
        <ele>250.39999389648</ele>
        <time>2020-05-24T09:42:10Z</time>
      </trkpt>
      <trkpt lat="44.54097" lon="4.62554">
        <ele>250.80000305176</ele>
        <time>2020-05-24T09:42:11Z</time>
      </trkpt>
      <trkpt lat="44.54094" lon="4.62553">
        <ele>251</ele>
        <time>2020-05-24T09:42:12Z</time>
      </trkpt>
      <trkpt lat="44.54091" lon="4.62553">
        <ele>251.19999694824</ele>
        <time>2020-05-24T09:42:13Z</time>
      </trkpt>
      <trkpt lat="44.54089" lon="4.62553">
        <ele>251.60000610352</ele>
        <time>2020-05-24T09:42:14Z</time>
      </trkpt>
      <trkpt lat="44.54086" lon="4.62552">
        <ele>252</ele>
        <time>2020-05-24T09:42:15Z</time>
      </trkpt>
      <trkpt lat="44.54084" lon="4.6255">
        <ele>252</ele>
        <time>2020-05-24T09:42:16Z</time>
      </trkpt>
      <trkpt lat="44.54081" lon="4.62548">
        <ele>252</ele>
        <time>2020-05-24T09:42:17Z</time>
      </trkpt>
      <trkpt lat="44.54079" lon="4.62547">
        <ele>252.19999694824</ele>
        <time>2020-05-24T09:42:18Z</time>
      </trkpt>
      <trkpt lat="44.54077" lon="4.62545">
        <ele>252.60000610352</ele>
        <time>2020-05-24T09:42:19Z</time>
      </trkpt>
      <trkpt lat="44.54075" lon="4.62544">
        <ele>252.60000610352</ele>
        <time>2020-05-24T09:42:20Z</time>
      </trkpt>
      <trkpt lat="44.54072" lon="4.62543">
        <ele>252.80000305176</ele>
        <time>2020-05-24T09:42:21Z</time>
      </trkpt>
      <trkpt lat="44.5407" lon="4.62542">
        <ele>252.80000305176</ele>
        <time>2020-05-24T09:42:22Z</time>
      </trkpt>
      <trkpt lat="44.54067" lon="4.62542">
        <ele>253</ele>
        <time>2020-05-24T09:42:23Z</time>
      </trkpt>
      <trkpt lat="44.54065" lon="4.62542">
        <ele>253.39999389648</ele>
        <time>2020-05-24T09:42:24Z</time>
      </trkpt>
      <trkpt lat="44.54063" lon="4.62542">
        <ele>253.80000305176</ele>
        <time>2020-05-24T09:42:25Z</time>
      </trkpt>
      <trkpt lat="44.5406" lon="4.62542">
        <ele>254</ele>
        <time>2020-05-24T09:42:26Z</time>
      </trkpt>
      <trkpt lat="44.54058" lon="4.62541">
        <ele>254.60000610352</ele>
        <time>2020-05-24T09:42:27Z</time>
      </trkpt>
      <trkpt lat="44.54056" lon="4.6254">
        <ele>255</ele>
        <time>2020-05-24T09:42:28Z</time>
      </trkpt>
      <trkpt lat="44.54053" lon="4.62539">
        <ele>255</ele>
        <time>2020-05-24T09:42:29Z</time>
      </trkpt>
      <trkpt lat="44.54051" lon="4.62539">
        <ele>255.39999389648</ele>
        <time>2020-05-24T09:42:30Z</time>
      </trkpt>
      <trkpt lat="44.54049" lon="4.62538">
        <ele>255.60000610352</ele>
        <time>2020-05-24T09:42:31Z</time>
      </trkpt>
      <trkpt lat="44.54047" lon="4.62537">
        <ele>255.80000305176</ele>
        <time>2020-05-24T09:42:32Z</time>
      </trkpt>
      <trkpt lat="44.54044" lon="4.62537">
        <ele>256.20001220703</ele>
        <time>2020-05-24T09:42:33Z</time>
      </trkpt>
      <trkpt lat="44.54042" lon="4.62536">
        <ele>256.39999389648</ele>
        <time>2020-05-24T09:42:34Z</time>
      </trkpt>
      <trkpt lat="44.5404" lon="4.62536">
        <ele>256.79998779297</ele>
        <time>2020-05-24T09:42:35Z</time>
      </trkpt>
      <trkpt lat="44.54037" lon="4.62535">
        <ele>257</ele>
        <time>2020-05-24T09:42:36Z</time>
      </trkpt>
      <trkpt lat="44.54035" lon="4.62535">
        <ele>257.39999389648</ele>
        <time>2020-05-24T09:42:37Z</time>
      </trkpt>
      <trkpt lat="44.54033" lon="4.62534">
        <ele>257.79998779297</ele>
        <time>2020-05-24T09:42:38Z</time>
      </trkpt>
      <trkpt lat="44.54031" lon="4.62533">
        <ele>258.20001220703</ele>
        <time>2020-05-24T09:42:39Z</time>
      </trkpt>
      <trkpt lat="44.54028" lon="4.62533">
        <ele>259.20001220703</ele>
        <time>2020-05-24T09:42:40Z</time>
      </trkpt>
      <trkpt lat="44.54026" lon="4.62532">
        <ele>259.60000610352</ele>
        <time>2020-05-24T09:42:41Z</time>
      </trkpt>
      <trkpt lat="44.54024" lon="4.62532">
        <ele>260</ele>
        <time>2020-05-24T09:42:42Z</time>
      </trkpt>
      <trkpt lat="44.54022" lon="4.62532">
        <ele>260.20001220703</ele>
        <time>2020-05-24T09:42:43Z</time>
      </trkpt>
      <trkpt lat="44.5402" lon="4.62531">
        <ele>260.60000610352</ele>
        <time>2020-05-24T09:42:44Z</time>
      </trkpt>
      <trkpt lat="44.54018" lon="4.62531">
        <ele>260.79998779297</ele>
        <time>2020-05-24T09:42:45Z</time>
      </trkpt>
      <trkpt lat="44.54016" lon="4.62531">
        <ele>261</ele>
        <time>2020-05-24T09:42:46Z</time>
      </trkpt>
      <trkpt lat="44.54014" lon="4.62531">
        <ele>261</ele>
        <time>2020-05-24T09:42:47Z</time>
      </trkpt>
      <trkpt lat="44.54011" lon="4.6253">
        <ele>261.20001220703</ele>
        <time>2020-05-24T09:42:48Z</time>
      </trkpt>
      <trkpt lat="44.54009" lon="4.6253">
        <ele>261.20001220703</ele>
        <time>2020-05-24T09:42:49Z</time>
      </trkpt>
      <trkpt lat="44.54007" lon="4.6253">
        <ele>261.20001220703</ele>
        <time>2020-05-24T09:42:50Z</time>
      </trkpt>
      <trkpt lat="44.54005" lon="4.6253">
        <ele>261.39999389648</ele>
        <time>2020-05-24T09:42:51Z</time>
      </trkpt>
      <trkpt lat="44.54003" lon="4.6253">
        <ele>261.60000610352</ele>
        <time>2020-05-24T09:42:52Z</time>
      </trkpt>
      <trkpt lat="44.54001" lon="4.6253">
        <ele>262.20001220703</ele>
        <time>2020-05-24T09:42:53Z</time>
      </trkpt>
      <trkpt lat="44.53998" lon="4.6253">
        <ele>262.39999389648</ele>
        <time>2020-05-24T09:42:54Z</time>
      </trkpt>
      <trkpt lat="44.53996" lon="4.6253">
        <ele>262.60000610352</ele>
        <time>2020-05-24T09:42:55Z</time>
      </trkpt>
      <trkpt lat="44.53994" lon="4.6253">
        <ele>262.60000610352</ele>
        <time>2020-05-24T09:42:56Z</time>
      </trkpt>
      <trkpt lat="44.53991" lon="4.62529">
        <ele>262.79998779297</ele>
        <time>2020-05-24T09:42:57Z</time>
      </trkpt>
      <trkpt lat="44.53989" lon="4.62529">
        <ele>263.20001220703</ele>
        <time>2020-05-24T09:42:58Z</time>
      </trkpt>
      <trkpt lat="44.53987" lon="4.62529">
        <ele>263.39999389648</ele>
        <time>2020-05-24T09:42:59Z</time>
      </trkpt>
      <trkpt lat="44.53984" lon="4.62529">
        <ele>263.60000610352</ele>
        <time>2020-05-24T09:43:00Z</time>
      </trkpt>
      <trkpt lat="44.53982" lon="4.62529">
        <ele>264</ele>
        <time>2020-05-24T09:43:01Z</time>
      </trkpt>
      <trkpt lat="44.5398" lon="4.62528">
        <ele>264.20001220703</ele>
        <time>2020-05-24T09:43:02Z</time>
      </trkpt>
      <trkpt lat="44.53977" lon="4.62528">
        <ele>264.60000610352</ele>
        <time>2020-05-24T09:43:03Z</time>
      </trkpt>
      <trkpt lat="44.53975" lon="4.62528">
        <ele>264.60000610352</ele>
        <time>2020-05-24T09:43:04Z</time>
      </trkpt>
      <trkpt lat="44.53973" lon="4.62528">
        <ele>264.79998779297</ele>
        <time>2020-05-24T09:43:05Z</time>
      </trkpt>
      <trkpt lat="44.53971" lon="4.62528">
        <ele>265</ele>
        <time>2020-05-24T09:43:06Z</time>
      </trkpt>
      <trkpt lat="44.53969" lon="4.62528">
        <ele>265</ele>
        <time>2020-05-24T09:43:07Z</time>
      </trkpt>
      <trkpt lat="44.53966" lon="4.62528">
        <ele>265.20001220703</ele>
        <time>2020-05-24T09:43:08Z</time>
      </trkpt>
      <trkpt lat="44.53964" lon="4.62528">
        <ele>265.20001220703</ele>
        <time>2020-05-24T09:43:09Z</time>
      </trkpt>
      <trkpt lat="44.53959" lon="4.62528">
        <ele>265.79998779297</ele>
        <time>2020-05-24T09:43:11Z</time>
      </trkpt>
      <trkpt lat="44.53957" lon="4.62528">
        <ele>265.79998779297</ele>
        <time>2020-05-24T09:43:12Z</time>
      </trkpt>
      <trkpt lat="44.53955" lon="4.62528">
        <ele>266</ele>
        <time>2020-05-24T09:43:13Z</time>
      </trkpt>
      <trkpt lat="44.53953" lon="4.62528">
        <ele>266.20001220703</ele>
        <time>2020-05-24T09:43:14Z</time>
      </trkpt>
      <trkpt lat="44.53951" lon="4.62528">
        <ele>266.39999389648</ele>
        <time>2020-05-24T09:43:15Z</time>
      </trkpt>
      <trkpt lat="44.53949" lon="4.62528">
        <ele>266.20001220703</ele>
        <time>2020-05-24T09:43:16Z</time>
      </trkpt>
      <trkpt lat="44.53946" lon="4.62528">
        <ele>266.39999389648</ele>
        <time>2020-05-24T09:43:17Z</time>
      </trkpt>
      <trkpt lat="44.53944" lon="4.62528">
        <ele>266.60000610352</ele>
        <time>2020-05-24T09:43:18Z</time>
      </trkpt>
      <trkpt lat="44.53942" lon="4.62528">
        <ele>266.79998779297</ele>
        <time>2020-05-24T09:43:19Z</time>
      </trkpt>
      <trkpt lat="44.53939" lon="4.62528">
        <ele>267</ele>
        <time>2020-05-24T09:43:20Z</time>
      </trkpt>
      <trkpt lat="44.53937" lon="4.62529">
        <ele>267.39999389648</ele>
        <time>2020-05-24T09:43:21Z</time>
      </trkpt>
      <trkpt lat="44.53935" lon="4.62529">
        <ele>267.79998779297</ele>
        <time>2020-05-24T09:43:22Z</time>
      </trkpt>
      <trkpt lat="44.53932" lon="4.6253">
        <ele>268.39999389648</ele>
        <time>2020-05-24T09:43:23Z</time>
      </trkpt>
      <trkpt lat="44.53929" lon="4.6253">
        <ele>268.60000610352</ele>
        <time>2020-05-24T09:43:24Z</time>
      </trkpt>
      <trkpt lat="44.53927" lon="4.6253">
        <ele>269</ele>
        <time>2020-05-24T09:43:25Z</time>
      </trkpt>
      <trkpt lat="44.53921" lon="4.62531">
        <ele>269.60000610352</ele>
        <time>2020-05-24T09:43:27Z</time>
      </trkpt>
      <trkpt lat="44.53919" lon="4.62532">
        <ele>269.60000610352</ele>
        <time>2020-05-24T09:43:28Z</time>
      </trkpt>
      <trkpt lat="44.53916" lon="4.62532">
        <ele>269.79998779297</ele>
        <time>2020-05-24T09:43:29Z</time>
      </trkpt>
      <trkpt lat="44.53913" lon="4.62532">
        <ele>269.60000610352</ele>
        <time>2020-05-24T09:43:30Z</time>
      </trkpt>
      <trkpt lat="44.5391" lon="4.62532">
        <ele>269.60000610352</ele>
        <time>2020-05-24T09:43:31Z</time>
      </trkpt>
      <trkpt lat="44.53908" lon="4.62532">
        <ele>269.79998779297</ele>
        <time>2020-05-24T09:43:32Z</time>
      </trkpt>
      <trkpt lat="44.53905" lon="4.62532">
        <ele>269.60000610352</ele>
        <time>2020-05-24T09:43:33Z</time>
      </trkpt>
      <trkpt lat="44.53903" lon="4.62532">
        <ele>269.60000610352</ele>
        <time>2020-05-24T09:43:34Z</time>
      </trkpt>
      <trkpt lat="44.53898" lon="4.62533">
        <ele>269.79998779297</ele>
        <time>2020-05-24T09:43:36Z</time>
      </trkpt>
      <trkpt lat="44.53896" lon="4.62533">
        <ele>269.79998779297</ele>
        <time>2020-05-24T09:43:37Z</time>
      </trkpt>
      <trkpt lat="44.53893" lon="4.62533">
        <ele>269.79998779297</ele>
        <time>2020-05-24T09:43:38Z</time>
      </trkpt>
      <trkpt lat="44.53891" lon="4.62533">
        <ele>270</ele>
        <time>2020-05-24T09:43:39Z</time>
      </trkpt>
      <trkpt lat="44.53888" lon="4.62533">
        <ele>270</ele>
        <time>2020-05-24T09:43:40Z</time>
      </trkpt>
      <trkpt lat="44.53886" lon="4.62534">
        <ele>270</ele>
        <time>2020-05-24T09:43:41Z</time>
      </trkpt>
      <trkpt lat="44.53884" lon="4.62535">
        <ele>270</ele>
        <time>2020-05-24T09:43:42Z</time>
      </trkpt>
      <trkpt lat="44.53881" lon="4.62535">
        <ele>270</ele>
        <time>2020-05-24T09:43:43Z</time>
      </trkpt>
      <trkpt lat="44.53879" lon="4.62536">
        <ele>270</ele>
        <time>2020-05-24T09:43:44Z</time>
      </trkpt>
      <trkpt lat="44.53876" lon="4.62536">
        <ele>270</ele>
        <time>2020-05-24T09:43:45Z</time>
      </trkpt>
      <trkpt lat="44.53874" lon="4.62536">
        <ele>270</ele>
        <time>2020-05-24T09:43:46Z</time>
      </trkpt>
      <trkpt lat="44.53871" lon="4.62536">
        <ele>270.20001220703</ele>
        <time>2020-05-24T09:43:47Z</time>
      </trkpt>
      <trkpt lat="44.53869" lon="4.62537">
        <ele>270.60000610352</ele>
        <time>2020-05-24T09:43:48Z</time>
      </trkpt>
      <trkpt lat="44.53866" lon="4.62538">
        <ele>271.20001220703</ele>
        <time>2020-05-24T09:43:49Z</time>
      </trkpt>
      <trkpt lat="44.53864" lon="4.62538">
        <ele>271.39999389648</ele>
        <time>2020-05-24T09:43:50Z</time>
      </trkpt>
      <trkpt lat="44.53861" lon="4.62539">
        <ele>271.60000610352</ele>
        <time>2020-05-24T09:43:51Z</time>
      </trkpt>
      <trkpt lat="44.53859" lon="4.62538">
        <ele>272</ele>
        <time>2020-05-24T09:43:52Z</time>
      </trkpt>
      <trkpt lat="44.53857" lon="4.62538">
        <ele>272.20001220703</ele>
        <time>2020-05-24T09:43:53Z</time>
      </trkpt>
      <trkpt lat="44.53855" lon="4.62537">
        <ele>272.39999389648</ele>
        <time>2020-05-24T09:43:54Z</time>
      </trkpt>
      <trkpt lat="44.53853" lon="4.62537">
        <ele>272.39999389648</ele>
        <time>2020-05-24T09:43:55Z</time>
      </trkpt>
      <trkpt lat="44.53851" lon="4.62537">
        <ele>272.39999389648</ele>
        <time>2020-05-24T09:43:56Z</time>
      </trkpt>
      <trkpt lat="44.53848" lon="4.62536">
        <ele>272.60000610352</ele>
        <time>2020-05-24T09:43:57Z</time>
      </trkpt>
      <trkpt lat="44.53846" lon="4.62536">
        <ele>272.60000610352</ele>
        <time>2020-05-24T09:43:58Z</time>
      </trkpt>
      <trkpt lat="44.53844" lon="4.62536">
        <ele>273</ele>
        <time>2020-05-24T09:43:59Z</time>
      </trkpt>
      <trkpt lat="44.53842" lon="4.62535">
        <ele>273</ele>
        <time>2020-05-24T09:44:00Z</time>
      </trkpt>
      <trkpt lat="44.5384" lon="4.62534">
        <ele>273.20001220703</ele>
        <time>2020-05-24T09:44:01Z</time>
      </trkpt>
      <trkpt lat="44.53837" lon="4.62533">
        <ele>273.20001220703</ele>
        <time>2020-05-24T09:44:02Z</time>
      </trkpt>
      <trkpt lat="44.53835" lon="4.62532">
        <ele>273.79998779297</ele>
        <time>2020-05-24T09:44:03Z</time>
      </trkpt>
      <trkpt lat="44.53833" lon="4.62531">
        <ele>274.20001220703</ele>
        <time>2020-05-24T09:44:04Z</time>
      </trkpt>
      <trkpt lat="44.53831" lon="4.62531">
        <ele>274.79998779297</ele>
        <time>2020-05-24T09:44:05Z</time>
      </trkpt>
      <trkpt lat="44.53828" lon="4.62529">
        <ele>275.20001220703</ele>
        <time>2020-05-24T09:44:06Z</time>
      </trkpt>
      <trkpt lat="44.53826" lon="4.62528">
        <ele>275.60000610352</ele>
        <time>2020-05-24T09:44:07Z</time>
      </trkpt>
      <trkpt lat="44.53824" lon="4.62527">
        <ele>275.79998779297</ele>
        <time>2020-05-24T09:44:08Z</time>
      </trkpt>
      <trkpt lat="44.53822" lon="4.62525">
        <ele>276</ele>
        <time>2020-05-24T09:44:09Z</time>
      </trkpt>
      <trkpt lat="44.5382" lon="4.62523">
        <ele>276</ele>
        <time>2020-05-24T09:44:10Z</time>
      </trkpt>
      <trkpt lat="44.53818" lon="4.62521">
        <ele>276.20001220703</ele>
        <time>2020-05-24T09:44:11Z</time>
      </trkpt>
      <trkpt lat="44.53816" lon="4.62519">
        <ele>276.39999389648</ele>
        <time>2020-05-24T09:44:12Z</time>
      </trkpt>
      <trkpt lat="44.53814" lon="4.62517">
        <ele>277</ele>
        <time>2020-05-24T09:44:13Z</time>
      </trkpt>
      <trkpt lat="44.53812" lon="4.62516">
        <ele>277.20001220703</ele>
        <time>2020-05-24T09:44:14Z</time>
      </trkpt>
      <trkpt lat="44.53811" lon="4.62514">
        <ele>277.39999389648</ele>
        <time>2020-05-24T09:44:15Z</time>
      </trkpt>
      <trkpt lat="44.53809" lon="4.62513">
        <ele>277.79998779297</ele>
        <time>2020-05-24T09:44:16Z</time>
      </trkpt>
      <trkpt lat="44.53807" lon="4.62511">
        <ele>277.79998779297</ele>
        <time>2020-05-24T09:44:17Z</time>
      </trkpt>
      <trkpt lat="44.53805" lon="4.62509">
        <ele>278.20001220703</ele>
        <time>2020-05-24T09:44:18Z</time>
      </trkpt>
      <trkpt lat="44.53804" lon="4.62507">
        <ele>278.60000610352</ele>
        <time>2020-05-24T09:44:19Z</time>
      </trkpt>
      <trkpt lat="44.53802" lon="4.62506">
        <ele>279</ele>
        <time>2020-05-24T09:44:20Z</time>
      </trkpt>
      <trkpt lat="44.538" lon="4.62505">
        <ele>279.39999389648</ele>
        <time>2020-05-24T09:44:21Z</time>
      </trkpt>
      <trkpt lat="44.53798" lon="4.62503">
        <ele>279.79998779297</ele>
        <time>2020-05-24T09:44:22Z</time>
      </trkpt>
      <trkpt lat="44.53797" lon="4.62501">
        <ele>280.20001220703</ele>
        <time>2020-05-24T09:44:23Z</time>
      </trkpt>
      <trkpt lat="44.53795" lon="4.625">
        <ele>280.39999389648</ele>
        <time>2020-05-24T09:44:24Z</time>
      </trkpt>
      <trkpt lat="44.53792" lon="4.62499">
        <ele>280.60000610352</ele>
        <time>2020-05-24T09:44:25Z</time>
      </trkpt>
      <trkpt lat="44.5379" lon="4.62498">
        <ele>280.60000610352</ele>
        <time>2020-05-24T09:44:26Z</time>
      </trkpt>
      <trkpt lat="44.53788" lon="4.62497">
        <ele>281</ele>
        <time>2020-05-24T09:44:27Z</time>
      </trkpt>
      <trkpt lat="44.53785" lon="4.62497">
        <ele>281.60000610352</ele>
        <time>2020-05-24T09:44:28Z</time>
      </trkpt>
      <trkpt lat="44.53783" lon="4.62497">
        <ele>281.79998779297</ele>
        <time>2020-05-24T09:44:29Z</time>
      </trkpt>
      <trkpt lat="44.53781" lon="4.62497">
        <ele>282</ele>
        <time>2020-05-24T09:44:30Z</time>
      </trkpt>
      <trkpt lat="44.53779" lon="4.62497">
        <ele>282.39999389648</ele>
        <time>2020-05-24T09:44:31Z</time>
      </trkpt>
      <trkpt lat="44.53776" lon="4.62497">
        <ele>282.79998779297</ele>
        <time>2020-05-24T09:44:32Z</time>
      </trkpt>
      <trkpt lat="44.53774" lon="4.62497">
        <ele>282.79998779297</ele>
        <time>2020-05-24T09:44:33Z</time>
      </trkpt>
      <trkpt lat="44.53771" lon="4.62498">
        <ele>282.79998779297</ele>
        <time>2020-05-24T09:44:34Z</time>
      </trkpt>
      <trkpt lat="44.53767" lon="4.625">
        <ele>283.79998779297</ele>
        <time>2020-05-24T09:44:36Z</time>
      </trkpt>
      <trkpt lat="44.53764" lon="4.62502">
        <ele>284</ele>
        <time>2020-05-24T09:44:37Z</time>
      </trkpt>
      <trkpt lat="44.53762" lon="4.62503">
        <ele>284</ele>
        <time>2020-05-24T09:44:38Z</time>
      </trkpt>
      <trkpt lat="44.5376" lon="4.62505">
        <ele>284</ele>
        <time>2020-05-24T09:44:39Z</time>
      </trkpt>
      <trkpt lat="44.53757" lon="4.62507">
        <ele>284.39999389648</ele>
        <time>2020-05-24T09:44:40Z</time>
      </trkpt>
      <trkpt lat="44.53755" lon="4.62508">
        <ele>284.20001220703</ele>
        <time>2020-05-24T09:44:41Z</time>
      </trkpt>
      <trkpt lat="44.53753" lon="4.62509">
        <ele>284.39999389648</ele>
        <time>2020-05-24T09:44:42Z</time>
      </trkpt>
      <trkpt lat="44.53751" lon="4.62511">
        <ele>284.39999389648</ele>
        <time>2020-05-24T09:44:43Z</time>
      </trkpt>
      <trkpt lat="44.53748" lon="4.62512">
        <ele>284.60000610352</ele>
        <time>2020-05-24T09:44:44Z</time>
      </trkpt>
      <trkpt lat="44.53746" lon="4.62514">
        <ele>284.60000610352</ele>
        <time>2020-05-24T09:44:45Z</time>
      </trkpt>
      <trkpt lat="44.53744" lon="4.62515">
        <ele>284.60000610352</ele>
        <time>2020-05-24T09:44:46Z</time>
      </trkpt>
      <trkpt lat="44.53742" lon="4.62517">
        <ele>284.60000610352</ele>
        <time>2020-05-24T09:44:47Z</time>
      </trkpt>
      <trkpt lat="44.5374" lon="4.62518">
        <ele>284.79998779297</ele>
        <time>2020-05-24T09:44:48Z</time>
      </trkpt>
      <trkpt lat="44.53738" lon="4.6252">
        <ele>285.20001220703</ele>
        <time>2020-05-24T09:44:49Z</time>
      </trkpt>
      <trkpt lat="44.53736" lon="4.62521">
        <ele>285.20001220703</ele>
        <time>2020-05-24T09:44:50Z</time>
      </trkpt>
      <trkpt lat="44.53734" lon="4.62523">
        <ele>285.39999389648</ele>
        <time>2020-05-24T09:44:51Z</time>
      </trkpt>
      <trkpt lat="44.53732" lon="4.62525">
        <ele>285.79998779297</ele>
        <time>2020-05-24T09:44:52Z</time>
      </trkpt>
      <trkpt lat="44.5373" lon="4.62527">
        <ele>286.20001220703</ele>
        <time>2020-05-24T09:44:53Z</time>
      </trkpt>
      <trkpt lat="44.53728" lon="4.62529">
        <ele>286.60000610352</ele>
        <time>2020-05-24T09:44:54Z</time>
      </trkpt>
      <trkpt lat="44.53726" lon="4.62531">
        <ele>287.20001220703</ele>
        <time>2020-05-24T09:44:55Z</time>
      </trkpt>
      <trkpt lat="44.53724" lon="4.62533">
        <ele>287.79998779297</ele>
        <time>2020-05-24T09:44:56Z</time>
      </trkpt>
      <trkpt lat="44.53722" lon="4.62535">
        <ele>288</ele>
        <time>2020-05-24T09:44:57Z</time>
      </trkpt>
      <trkpt lat="44.53721" lon="4.62537">
        <ele>288.20001220703</ele>
        <time>2020-05-24T09:44:58Z</time>
      </trkpt>
      <trkpt lat="44.53719" lon="4.62539">
        <ele>288.39999389648</ele>
        <time>2020-05-24T09:44:59Z</time>
      </trkpt>
      <trkpt lat="44.53718" lon="4.62541">
        <ele>288.39999389648</ele>
        <time>2020-05-24T09:45:00Z</time>
      </trkpt>
      <trkpt lat="44.53716" lon="4.62543">
        <ele>289</ele>
        <time>2020-05-24T09:45:01Z</time>
      </trkpt>
      <trkpt lat="44.53714" lon="4.62546">
        <ele>289.20001220703</ele>
        <time>2020-05-24T09:45:02Z</time>
      </trkpt>
      <trkpt lat="44.53713" lon="4.62548">
        <ele>289.39999389648</ele>
        <time>2020-05-24T09:45:03Z</time>
      </trkpt>
      <trkpt lat="44.53711" lon="4.6255">
        <ele>290</ele>
        <time>2020-05-24T09:45:04Z</time>
      </trkpt>
      <trkpt lat="44.5371" lon="4.62552">
        <ele>290.20001220703</ele>
        <time>2020-05-24T09:45:05Z</time>
      </trkpt>
      <trkpt lat="44.53708" lon="4.62554">
        <ele>290.60000610352</ele>
        <time>2020-05-24T09:45:06Z</time>
      </trkpt>
      <trkpt lat="44.53707" lon="4.62556">
        <ele>290.79998779297</ele>
        <time>2020-05-24T09:45:07Z</time>
      </trkpt>
      <trkpt lat="44.53705" lon="4.62557">
        <ele>291.20001220703</ele>
        <time>2020-05-24T09:45:08Z</time>
      </trkpt>
      <trkpt lat="44.53704" lon="4.62559">
        <ele>291.39999389648</ele>
        <time>2020-05-24T09:45:09Z</time>
      </trkpt>
      <trkpt lat="44.53702" lon="4.62561">
        <ele>291.60000610352</ele>
        <time>2020-05-24T09:45:10Z</time>
      </trkpt>
      <trkpt lat="44.53699" lon="4.62561">
        <ele>291.79998779297</ele>
        <time>2020-05-24T09:45:11Z</time>
      </trkpt>
      <trkpt lat="44.53697" lon="4.62561">
        <ele>291.79998779297</ele>
        <time>2020-05-24T09:45:12Z</time>
      </trkpt>
      <trkpt lat="44.53695" lon="4.62561">
        <ele>292.20001220703</ele>
        <time>2020-05-24T09:45:13Z</time>
      </trkpt>
      <trkpt lat="44.53693" lon="4.62561">
        <ele>292.39999389648</ele>
        <time>2020-05-24T09:45:14Z</time>
      </trkpt>
      <trkpt lat="44.53691" lon="4.62562">
        <ele>293</ele>
        <time>2020-05-24T09:45:15Z</time>
      </trkpt>
      <trkpt lat="44.53689" lon="4.62563">
        <ele>293.39999389648</ele>
        <time>2020-05-24T09:45:16Z</time>
      </trkpt>
      <trkpt lat="44.53687" lon="4.62564">
        <ele>293.60000610352</ele>
        <time>2020-05-24T09:45:17Z</time>
      </trkpt>
      <trkpt lat="44.53686" lon="4.62566">
        <ele>294</ele>
        <time>2020-05-24T09:45:18Z</time>
      </trkpt>
      <trkpt lat="44.53685" lon="4.62568">
        <ele>294.39999389648</ele>
        <time>2020-05-24T09:45:19Z</time>
      </trkpt>
      <trkpt lat="44.53684" lon="4.6257">
        <ele>294.60000610352</ele>
        <time>2020-05-24T09:45:20Z</time>
      </trkpt>
      <trkpt lat="44.53683" lon="4.62572">
        <ele>295.20001220703</ele>
        <time>2020-05-24T09:45:21Z</time>
      </trkpt>
      <trkpt lat="44.53682" lon="4.62573">
        <ele>295.20001220703</ele>
        <time>2020-05-24T09:45:22Z</time>
      </trkpt>
      <trkpt lat="44.53681" lon="4.62575">
        <ele>295.39999389648</ele>
        <time>2020-05-24T09:45:23Z</time>
      </trkpt>
      <trkpt lat="44.53681" lon="4.62577">
        <ele>295.60000610352</ele>
        <time>2020-05-24T09:45:24Z</time>
      </trkpt>
      <trkpt lat="44.5368" lon="4.62579">
        <ele>295.60000610352</ele>
        <time>2020-05-24T09:45:25Z</time>
      </trkpt>
      <trkpt lat="44.5368" lon="4.6258">
        <ele>296</ele>
        <time>2020-05-24T09:45:26Z</time>
      </trkpt>
      <trkpt lat="44.53679" lon="4.62582">
        <ele>296</ele>
        <time>2020-05-24T09:45:27Z</time>
      </trkpt>
      <trkpt lat="44.53678" lon="4.62583">
        <ele>296.20001220703</ele>
        <time>2020-05-24T09:45:28Z</time>
      </trkpt>
      <trkpt lat="44.53677" lon="4.62584">
        <ele>296.20001220703</ele>
        <time>2020-05-24T09:45:29Z</time>
      </trkpt>
      <trkpt lat="44.53676" lon="4.62586">
        <ele>296.39999389648</ele>
        <time>2020-05-24T09:45:30Z</time>
      </trkpt>
      <trkpt lat="44.53675" lon="4.62587">
        <ele>296.39999389648</ele>
        <time>2020-05-24T09:45:31Z</time>
      </trkpt>
      <trkpt lat="44.53674" lon="4.62589">
        <ele>296.39999389648</ele>
        <time>2020-05-24T09:45:32Z</time>
      </trkpt>
      <trkpt lat="44.53674" lon="4.6259">
        <ele>296.60000610352</ele>
        <time>2020-05-24T09:45:33Z</time>
      </trkpt>
      <trkpt lat="44.53673" lon="4.62591">
        <ele>296.79998779297</ele>
        <time>2020-05-24T09:45:38Z</time>
      </trkpt>
      <trkpt lat="44.53673" lon="4.62591">
        <ele>297.39999389648</ele>
        <time>2020-05-24T09:45:53Z</time>
      </trkpt>
      <trkpt lat="44.53673" lon="4.62591">
        <ele>297.39999389648</ele>
        <time>2020-05-24T09:46:09Z</time>
      </trkpt>
      <trkpt lat="44.53673" lon="4.6259">
        <ele>297.39999389648</ele>
        <time>2020-05-24T09:46:26Z</time>
      </trkpt>
      <trkpt lat="44.53673" lon="4.6259">
        <ele>297</ele>
        <time>2020-05-24T09:46:50Z</time>
      </trkpt>
      <trkpt lat="44.53673" lon="4.62592">
        <ele>297</ele>
        <time>2020-05-24T09:46:56Z</time>
      </trkpt>
      <trkpt lat="44.53673" lon="4.62594">
        <ele>297</ele>
        <time>2020-05-24T09:46:58Z</time>
      </trkpt>
      <trkpt lat="44.53672" lon="4.62596">
        <ele>297.20001220703</ele>
        <time>2020-05-24T09:46:59Z</time>
      </trkpt>
      <trkpt lat="44.53672" lon="4.62598">
        <ele>297.20001220703</ele>
        <time>2020-05-24T09:47:00Z</time>
      </trkpt>
      <trkpt lat="44.53671" lon="4.62601">
        <ele>297.39999389648</ele>
        <time>2020-05-24T09:47:01Z</time>
      </trkpt>
      <trkpt lat="44.5367" lon="4.62603">
        <ele>297.39999389648</ele>
        <time>2020-05-24T09:47:02Z</time>
      </trkpt>
      <trkpt lat="44.5367" lon="4.62606">
        <ele>297.39999389648</ele>
        <time>2020-05-24T09:47:03Z</time>
      </trkpt>
      <trkpt lat="44.53669" lon="4.62609">
        <ele>297.39999389648</ele>
        <time>2020-05-24T09:47:04Z</time>
      </trkpt>
      <trkpt lat="44.53668" lon="4.62611">
        <ele>297.20001220703</ele>
        <time>2020-05-24T09:47:05Z</time>
      </trkpt>
      <trkpt lat="44.53667" lon="4.62614">
        <ele>297.39999389648</ele>
        <time>2020-05-24T09:47:06Z</time>
      </trkpt>
      <trkpt lat="44.53666" lon="4.62616">
        <ele>297.39999389648</ele>
        <time>2020-05-24T09:47:07Z</time>
      </trkpt>
      <trkpt lat="44.53665" lon="4.62619">
        <ele>297.39999389648</ele>
        <time>2020-05-24T09:47:08Z</time>
      </trkpt>
      <trkpt lat="44.53664" lon="4.62622">
        <ele>297.39999389648</ele>
        <time>2020-05-24T09:47:09Z</time>
      </trkpt>
      <trkpt lat="44.53662" lon="4.62625">
        <ele>297.39999389648</ele>
        <time>2020-05-24T09:47:10Z</time>
      </trkpt>
      <trkpt lat="44.5366" lon="4.62629">
        <ele>297.39999389648</ele>
        <time>2020-05-24T09:47:11Z</time>
      </trkpt>
      <trkpt lat="44.53657" lon="4.62637">
        <ele>297.39999389648</ele>
        <time>2020-05-24T09:47:13Z</time>
      </trkpt>
      <trkpt lat="44.53655" lon="4.6264">
        <ele>297.20001220703</ele>
        <time>2020-05-24T09:47:14Z</time>
      </trkpt>
      <trkpt lat="44.53653" lon="4.62644">
        <ele>297.39999389648</ele>
        <time>2020-05-24T09:47:15Z</time>
      </trkpt>
      <trkpt lat="44.53652" lon="4.62649">
        <ele>297.20001220703</ele>
        <time>2020-05-24T09:47:16Z</time>
      </trkpt>
      <trkpt lat="44.5365" lon="4.62654">
        <ele>297.39999389648</ele>
        <time>2020-05-24T09:47:17Z</time>
      </trkpt>
      <trkpt lat="44.53649" lon="4.62659">
        <ele>297.20001220703</ele>
        <time>2020-05-24T09:47:18Z</time>
      </trkpt>
      <trkpt lat="44.53647" lon="4.62664">
        <ele>297.20001220703</ele>
        <time>2020-05-24T09:47:19Z</time>
      </trkpt>
      <trkpt lat="44.53646" lon="4.62668">
        <ele>297</ele>
        <time>2020-05-24T09:47:20Z</time>
      </trkpt>
      <trkpt lat="44.53644" lon="4.62673">
        <ele>297</ele>
        <time>2020-05-24T09:47:21Z</time>
      </trkpt>
      <trkpt lat="44.53642" lon="4.62677">
        <ele>296.79998779297</ele>
        <time>2020-05-24T09:47:22Z</time>
      </trkpt>
      <trkpt lat="44.53641" lon="4.6268">
        <ele>296.60000610352</ele>
        <time>2020-05-24T09:47:23Z</time>
      </trkpt>
      <trkpt lat="44.53639" lon="4.62683">
        <ele>296.39999389648</ele>
        <time>2020-05-24T09:47:24Z</time>
      </trkpt>
      <trkpt lat="44.53638" lon="4.62686">
        <ele>296.39999389648</ele>
        <time>2020-05-24T09:47:25Z</time>
      </trkpt>
      <trkpt lat="44.53636" lon="4.62688">
        <ele>295.79998779297</ele>
        <time>2020-05-24T09:47:26Z</time>
      </trkpt>
      <trkpt lat="44.53634" lon="4.62691">
        <ele>295.20001220703</ele>
        <time>2020-05-24T09:47:27Z</time>
      </trkpt>
      <trkpt lat="44.53632" lon="4.62693">
        <ele>294.60000610352</ele>
        <time>2020-05-24T09:47:28Z</time>
      </trkpt>
      <trkpt lat="44.53627" lon="4.627">
        <ele>293.79998779297</ele>
        <time>2020-05-24T09:47:30Z</time>
      </trkpt>
      <trkpt lat="44.53625" lon="4.62703">
        <ele>293.20001220703</ele>
        <time>2020-05-24T09:47:31Z</time>
      </trkpt>
      <trkpt lat="44.53623" lon="4.62706">
        <ele>293.20001220703</ele>
        <time>2020-05-24T09:47:32Z</time>
      </trkpt>
      <trkpt lat="44.53621" lon="4.62707">
        <ele>293</ele>
        <time>2020-05-24T09:47:33Z</time>
      </trkpt>
      <trkpt lat="44.5362" lon="4.62708">
        <ele>292.60000610352</ele>
        <time>2020-05-24T09:47:34Z</time>
      </trkpt>
      <trkpt lat="44.53619" lon="4.62711">
        <ele>291.20001220703</ele>
        <time>2020-05-24T09:47:37Z</time>
      </trkpt>
      <trkpt lat="44.53618" lon="4.62714">
        <ele>290.60000610352</ele>
        <time>2020-05-24T09:47:38Z</time>
      </trkpt>
      <trkpt lat="44.53616" lon="4.62716">
        <ele>290.20001220703</ele>
        <time>2020-05-24T09:47:39Z</time>
      </trkpt>
      <trkpt lat="44.53611" lon="4.6272">
        <ele>289.39999389648</ele>
        <time>2020-05-24T09:47:41Z</time>
      </trkpt>
      <trkpt lat="44.53608" lon="4.62723">
        <ele>289.20001220703</ele>
        <time>2020-05-24T09:47:42Z</time>
      </trkpt>
      <trkpt lat="44.53605" lon="4.62726">
        <ele>289</ele>
        <time>2020-05-24T09:47:43Z</time>
      </trkpt>
      <trkpt lat="44.53603" lon="4.62728">
        <ele>288.79998779297</ele>
        <time>2020-05-24T09:47:44Z</time>
      </trkpt>
      <trkpt lat="44.53601" lon="4.62731">
        <ele>288.79998779297</ele>
        <time>2020-05-24T09:47:45Z</time>
      </trkpt>
      <trkpt lat="44.53595" lon="4.62742">
        <ele>288.20001220703</ele>
        <time>2020-05-24T09:47:48Z</time>
      </trkpt>
      <trkpt lat="44.53593" lon="4.62746">
        <ele>288.20001220703</ele>
        <time>2020-05-24T09:47:49Z</time>
      </trkpt>
      <trkpt lat="44.53589" lon="4.62752">
        <ele>287.39999389648</ele>
        <time>2020-05-24T09:47:51Z</time>
      </trkpt>
      <trkpt lat="44.53587" lon="4.62756">
        <ele>287.20001220703</ele>
        <time>2020-05-24T09:47:52Z</time>
      </trkpt>
      <trkpt lat="44.53583" lon="4.62764">
        <ele>286.60000610352</ele>
        <time>2020-05-24T09:47:54Z</time>
      </trkpt>
      <trkpt lat="44.53582" lon="4.62767">
        <ele>285.60000610352</ele>
        <time>2020-05-24T09:47:55Z</time>
      </trkpt>
      <trkpt lat="44.53577" lon="4.62774">
        <ele>284.20001220703</ele>
        <time>2020-05-24T09:47:57Z</time>
      </trkpt>
      <trkpt lat="44.53575" lon="4.62777">
        <ele>283.39999389648</ele>
        <time>2020-05-24T09:47:58Z</time>
      </trkpt>
      <trkpt lat="44.53572" lon="4.62779">
        <ele>282.79998779297</ele>
        <time>2020-05-24T09:47:59Z</time>
      </trkpt>
      <trkpt lat="44.5357" lon="4.62782">
        <ele>282.39999389648</ele>
        <time>2020-05-24T09:48:00Z</time>
      </trkpt>
      <trkpt lat="44.53567" lon="4.62783">
        <ele>281.60000610352</ele>
        <time>2020-05-24T09:48:01Z</time>
      </trkpt>
      <trkpt lat="44.5356" lon="4.62784">
        <ele>280.79998779297</ele>
        <time>2020-05-24T09:48:03Z</time>
      </trkpt>
      <trkpt lat="44.53557" lon="4.62784">
        <ele>280.39999389648</ele>
        <time>2020-05-24T09:48:04Z</time>
      </trkpt>
      <trkpt lat="44.53555" lon="4.62783">
        <ele>279.60000610352</ele>
        <time>2020-05-24T09:48:05Z</time>
      </trkpt>
      <trkpt lat="44.53553" lon="4.62782">
        <ele>279</ele>
        <time>2020-05-24T09:48:06Z</time>
      </trkpt>
      <trkpt lat="44.5355" lon="4.6278">
        <ele>278.60000610352</ele>
        <time>2020-05-24T09:48:07Z</time>
      </trkpt>
      <trkpt lat="44.53544" lon="4.62777">
        <ele>278</ele>
        <time>2020-05-24T09:48:09Z</time>
      </trkpt>
      <trkpt lat="44.53539" lon="4.62775">
        <ele>277.60000610352</ele>
        <time>2020-05-24T09:48:10Z</time>
      </trkpt>
      <trkpt lat="44.53531" lon="4.6277">
        <ele>277.20001220703</ele>
        <time>2020-05-24T09:48:12Z</time>
      </trkpt>
      <trkpt lat="44.53527" lon="4.62768">
        <ele>277</ele>
        <time>2020-05-24T09:48:13Z</time>
      </trkpt>
      <trkpt lat="44.53523" lon="4.62765">
        <ele>277</ele>
        <time>2020-05-24T09:48:14Z</time>
      </trkpt>
      <trkpt lat="44.53519" lon="4.62762">
        <ele>277</ele>
        <time>2020-05-24T09:48:15Z</time>
      </trkpt>
      <trkpt lat="44.53515" lon="4.6276">
        <ele>276.79998779297</ele>
        <time>2020-05-24T09:48:16Z</time>
      </trkpt>
      <trkpt lat="44.53512" lon="4.62758">
        <ele>276.60000610352</ele>
        <time>2020-05-24T09:48:17Z</time>
      </trkpt>
      <trkpt lat="44.53509" lon="4.62757">
        <ele>276.39999389648</ele>
        <time>2020-05-24T09:48:18Z</time>
      </trkpt>
      <trkpt lat="44.53507" lon="4.62755">
        <ele>276</ele>
        <time>2020-05-24T09:48:19Z</time>
      </trkpt>
      <trkpt lat="44.53505" lon="4.62753">
        <ele>275.60000610352</ele>
        <time>2020-05-24T09:48:20Z</time>
      </trkpt>
      <trkpt lat="44.53499" lon="4.6275">
        <ele>274.60000610352</ele>
        <time>2020-05-24T09:48:22Z</time>
      </trkpt>
      <trkpt lat="44.53496" lon="4.62749">
        <ele>274.60000610352</ele>
        <time>2020-05-24T09:48:23Z</time>
      </trkpt>
      <trkpt lat="44.53493" lon="4.62748">
        <ele>274</ele>
        <time>2020-05-24T09:48:24Z</time>
      </trkpt>
      <trkpt lat="44.5349" lon="4.62748">
        <ele>273.60000610352</ele>
        <time>2020-05-24T09:48:25Z</time>
      </trkpt>
      <trkpt lat="44.53487" lon="4.62747">
        <ele>273.79998779297</ele>
        <time>2020-05-24T09:48:26Z</time>
      </trkpt>
      <trkpt lat="44.53484" lon="4.62747">
        <ele>273.60000610352</ele>
        <time>2020-05-24T09:48:27Z</time>
      </trkpt>
      <trkpt lat="44.53481" lon="4.62746">
        <ele>273.60000610352</ele>
        <time>2020-05-24T09:48:28Z</time>
      </trkpt>
      <trkpt lat="44.53477" lon="4.62745">
        <ele>273.60000610352</ele>
        <time>2020-05-24T09:48:29Z</time>
      </trkpt>
      <trkpt lat="44.53474" lon="4.62744">
        <ele>273.60000610352</ele>
        <time>2020-05-24T09:48:30Z</time>
      </trkpt>
      <trkpt lat="44.53471" lon="4.62743">
        <ele>273.60000610352</ele>
        <time>2020-05-24T09:48:31Z</time>
      </trkpt>
      <trkpt lat="44.53468" lon="4.62742">
        <ele>273.60000610352</ele>
        <time>2020-05-24T09:48:32Z</time>
      </trkpt>
      <trkpt lat="44.53465" lon="4.62742">
        <ele>273.39999389648</ele>
        <time>2020-05-24T09:48:33Z</time>
      </trkpt>
      <trkpt lat="44.53463" lon="4.62742">
        <ele>273.79998779297</ele>
        <time>2020-05-24T09:48:34Z</time>
      </trkpt>
      <trkpt lat="44.53459" lon="4.62742">
        <ele>274</ele>
        <time>2020-05-24T09:48:35Z</time>
      </trkpt>
      <trkpt lat="44.53456" lon="4.62742">
        <ele>274</ele>
        <time>2020-05-24T09:48:36Z</time>
      </trkpt>
      <trkpt lat="44.53454" lon="4.62742">
        <ele>274.20001220703</ele>
        <time>2020-05-24T09:48:37Z</time>
      </trkpt>
      <trkpt lat="44.53451" lon="4.62742">
        <ele>274.20001220703</ele>
        <time>2020-05-24T09:48:38Z</time>
      </trkpt>
      <trkpt lat="44.53448" lon="4.62742">
        <ele>274.20001220703</ele>
        <time>2020-05-24T09:48:39Z</time>
      </trkpt>
      <trkpt lat="44.53446" lon="4.62741">
        <ele>274.39999389648</ele>
        <time>2020-05-24T09:48:40Z</time>
      </trkpt>
      <trkpt lat="44.53443" lon="4.62741">
        <ele>274.39999389648</ele>
        <time>2020-05-24T09:48:41Z</time>
      </trkpt>
      <trkpt lat="44.53441" lon="4.62741">
        <ele>274.79998779297</ele>
        <time>2020-05-24T09:48:42Z</time>
      </trkpt>
      <trkpt lat="44.53438" lon="4.62742">
        <ele>275</ele>
        <time>2020-05-24T09:48:43Z</time>
      </trkpt>
      <trkpt lat="44.53437" lon="4.62744">
        <ele>275</ele>
        <time>2020-05-24T09:48:44Z</time>
      </trkpt>
      <trkpt lat="44.53436" lon="4.62746">
        <ele>275</ele>
        <time>2020-05-24T09:48:45Z</time>
      </trkpt>
      <trkpt lat="44.53436" lon="4.62749">
        <ele>275.20001220703</ele>
        <time>2020-05-24T09:48:46Z</time>
      </trkpt>
      <trkpt lat="44.53436" lon="4.62751">
        <ele>275.20001220703</ele>
        <time>2020-05-24T09:48:47Z</time>
      </trkpt>
      <trkpt lat="44.53437" lon="4.62754">
        <ele>275.39999389648</ele>
        <time>2020-05-24T09:48:48Z</time>
      </trkpt>
      <trkpt lat="44.53437" lon="4.62757">
        <ele>275.60000610352</ele>
        <time>2020-05-24T09:48:49Z</time>
      </trkpt>
      <trkpt lat="44.53437" lon="4.62758">
        <ele>275.79998779297</ele>
        <time>2020-05-24T09:48:50Z</time>
      </trkpt>
      <trkpt lat="44.53437" lon="4.62761">
        <ele>276</ele>
        <time>2020-05-24T09:48:51Z</time>
      </trkpt>
      <trkpt lat="44.53437" lon="4.62764">
        <ele>276.20001220703</ele>
        <time>2020-05-24T09:48:52Z</time>
      </trkpt>
      <trkpt lat="44.53437" lon="4.62768">
        <ele>276.20001220703</ele>
        <time>2020-05-24T09:48:53Z</time>
      </trkpt>
      <trkpt lat="44.53438" lon="4.62772">
        <ele>276.20001220703</ele>
        <time>2020-05-24T09:48:54Z</time>
      </trkpt>
      <trkpt lat="44.53438" lon="4.62776">
        <ele>276</ele>
        <time>2020-05-24T09:48:55Z</time>
      </trkpt>
      <trkpt lat="44.53439" lon="4.62781">
        <ele>276</ele>
        <time>2020-05-24T09:48:56Z</time>
      </trkpt>
      <trkpt lat="44.53442" lon="4.62796">
        <ele>276</ele>
        <time>2020-05-24T09:48:59Z</time>
      </trkpt>
      <trkpt lat="44.53442" lon="4.62802">
        <ele>276</ele>
        <time>2020-05-24T09:49:00Z</time>
      </trkpt>
      <trkpt lat="44.53443" lon="4.62806">
        <ele>276</ele>
        <time>2020-05-24T09:49:01Z</time>
      </trkpt>
      <trkpt lat="44.53444" lon="4.6281">
        <ele>275.79998779297</ele>
        <time>2020-05-24T09:49:02Z</time>
      </trkpt>
      <trkpt lat="44.53444" lon="4.62814">
        <ele>275.79998779297</ele>
        <time>2020-05-24T09:49:03Z</time>
      </trkpt>
      <trkpt lat="44.53445" lon="4.62819">
        <ele>275.60000610352</ele>
        <time>2020-05-24T09:49:04Z</time>
      </trkpt>
      <trkpt lat="44.53445" lon="4.62824">
        <ele>275.60000610352</ele>
        <time>2020-05-24T09:49:05Z</time>
      </trkpt>
      <trkpt lat="44.53446" lon="4.62833">
        <ele>275</ele>
        <time>2020-05-24T09:49:07Z</time>
      </trkpt>
      <trkpt lat="44.53445" lon="4.62837">
        <ele>274.60000610352</ele>
        <time>2020-05-24T09:49:08Z</time>
      </trkpt>
      <trkpt lat="44.53443" lon="4.62841">
        <ele>274.39999389648</ele>
        <time>2020-05-24T09:49:09Z</time>
      </trkpt>
      <trkpt lat="44.53442" lon="4.62845">
        <ele>274</ele>
        <time>2020-05-24T09:49:10Z</time>
      </trkpt>
      <trkpt lat="44.5344" lon="4.62848">
        <ele>273.60000610352</ele>
        <time>2020-05-24T09:49:11Z</time>
      </trkpt>
      <trkpt lat="44.53438" lon="4.6285">
        <ele>273</ele>
        <time>2020-05-24T09:49:12Z</time>
      </trkpt>
      <trkpt lat="44.53436" lon="4.62853">
        <ele>272.79998779297</ele>
        <time>2020-05-24T09:49:13Z</time>
      </trkpt>
      <trkpt lat="44.53434" lon="4.62855">
        <ele>272.39999389648</ele>
        <time>2020-05-24T09:49:14Z</time>
      </trkpt>
      <trkpt lat="44.53429" lon="4.62859">
        <ele>272.20001220703</ele>
        <time>2020-05-24T09:49:16Z</time>
      </trkpt>
      <trkpt lat="44.53426" lon="4.62861">
        <ele>272</ele>
        <time>2020-05-24T09:49:17Z</time>
      </trkpt>
      <trkpt lat="44.53421" lon="4.62865">
        <ele>271.60000610352</ele>
        <time>2020-05-24T09:49:19Z</time>
      </trkpt>
      <trkpt lat="44.53419" lon="4.62866">
        <ele>271.60000610352</ele>
        <time>2020-05-24T09:49:20Z</time>
      </trkpt>
      <trkpt lat="44.53417" lon="4.62868">
        <ele>271.60000610352</ele>
        <time>2020-05-24T09:49:21Z</time>
      </trkpt>
      <trkpt lat="44.53414" lon="4.6287">
        <ele>271.60000610352</ele>
        <time>2020-05-24T09:49:22Z</time>
      </trkpt>
      <trkpt lat="44.53413" lon="4.62872">
        <ele>271.60000610352</ele>
        <time>2020-05-24T09:49:23Z</time>
      </trkpt>
      <trkpt lat="44.53411" lon="4.62874">
        <ele>271.60000610352</ele>
        <time>2020-05-24T09:49:24Z</time>
      </trkpt>
      <trkpt lat="44.53411" lon="4.62878">
        <ele>271.39999389648</ele>
        <time>2020-05-24T09:49:25Z</time>
      </trkpt>
      <trkpt lat="44.53411" lon="4.62882">
        <ele>271.39999389648</ele>
        <time>2020-05-24T09:49:26Z</time>
      </trkpt>
      <trkpt lat="44.5341" lon="4.6289">
        <ele>271.39999389648</ele>
        <time>2020-05-24T09:49:28Z</time>
      </trkpt>
      <trkpt lat="44.5341" lon="4.62894">
        <ele>271.20001220703</ele>
        <time>2020-05-24T09:49:29Z</time>
      </trkpt>
      <trkpt lat="44.5341" lon="4.62899">
        <ele>271.39999389648</ele>
        <time>2020-05-24T09:49:30Z</time>
      </trkpt>
      <trkpt lat="44.53411" lon="4.62904">
        <ele>271.20001220703</ele>
        <time>2020-05-24T09:49:31Z</time>
      </trkpt>
      <trkpt lat="44.53411" lon="4.62909">
        <ele>271.20001220703</ele>
        <time>2020-05-24T09:49:32Z</time>
      </trkpt>
      <trkpt lat="44.53412" lon="4.62914">
        <ele>271.20001220703</ele>
        <time>2020-05-24T09:49:33Z</time>
      </trkpt>
      <trkpt lat="44.53413" lon="4.6292">
        <ele>271</ele>
        <time>2020-05-24T09:49:34Z</time>
      </trkpt>
      <trkpt lat="44.53413" lon="4.62931">
        <ele>271.20001220703</ele>
        <time>2020-05-24T09:49:36Z</time>
      </trkpt>
      <trkpt lat="44.53413" lon="4.62937">
        <ele>271</ele>
        <time>2020-05-24T09:49:37Z</time>
      </trkpt>
      <trkpt lat="44.53414" lon="4.62942">
        <ele>271</ele>
        <time>2020-05-24T09:49:38Z</time>
      </trkpt>
      <trkpt lat="44.53414" lon="4.62948">
        <ele>270.39999389648</ele>
        <time>2020-05-24T09:49:39Z</time>
      </trkpt>
      <trkpt lat="44.53414" lon="4.62954">
        <ele>270</ele>
        <time>2020-05-24T09:49:40Z</time>
      </trkpt>
      <trkpt lat="44.53414" lon="4.62959">
        <ele>269.79998779297</ele>
        <time>2020-05-24T09:49:41Z</time>
      </trkpt>
      <trkpt lat="44.53414" lon="4.62965">
        <ele>269.39999389648</ele>
        <time>2020-05-24T09:49:42Z</time>
      </trkpt>
      <trkpt lat="44.53414" lon="4.6297">
        <ele>269.20001220703</ele>
        <time>2020-05-24T09:49:43Z</time>
      </trkpt>
      <trkpt lat="44.53415" lon="4.62974">
        <ele>268.39999389648</ele>
        <time>2020-05-24T09:49:44Z</time>
      </trkpt>
      <trkpt lat="44.53415" lon="4.62978">
        <ele>268.20001220703</ele>
        <time>2020-05-24T09:49:45Z</time>
      </trkpt>
      <trkpt lat="44.53416" lon="4.62982">
        <ele>267.79998779297</ele>
        <time>2020-05-24T09:49:46Z</time>
      </trkpt>
      <trkpt lat="44.53418" lon="4.62987">
        <ele>267.60000610352</ele>
        <time>2020-05-24T09:49:47Z</time>
      </trkpt>
      <trkpt lat="44.5342" lon="4.62991">
        <ele>267</ele>
        <time>2020-05-24T09:49:48Z</time>
      </trkpt>
      <trkpt lat="44.53424" lon="4.63001">
        <ele>265.60000610352</ele>
        <time>2020-05-24T09:49:50Z</time>
      </trkpt>
      <trkpt lat="44.53429" lon="4.63011">
        <ele>264.79998779297</ele>
        <time>2020-05-24T09:49:52Z</time>
      </trkpt>
      <trkpt lat="44.53432" lon="4.63015">
        <ele>264.60000610352</ele>
        <time>2020-05-24T09:49:53Z</time>
      </trkpt>
      <trkpt lat="44.53432" lon="4.63019">
        <ele>264.60000610352</ele>
        <time>2020-05-24T09:49:54Z</time>
      </trkpt>
      <trkpt lat="44.53432" lon="4.63024">
        <ele>264</ele>
        <time>2020-05-24T09:49:55Z</time>
      </trkpt>
      <trkpt lat="44.53431" lon="4.63028">
        <ele>263.60000610352</ele>
        <time>2020-05-24T09:49:56Z</time>
      </trkpt>
      <trkpt lat="44.53429" lon="4.63031">
        <ele>263.20001220703</ele>
        <time>2020-05-24T09:49:57Z</time>
      </trkpt>
      <trkpt lat="44.53427" lon="4.63034">
        <ele>262.79998779297</ele>
        <time>2020-05-24T09:49:58Z</time>
      </trkpt>
      <trkpt lat="44.53424" lon="4.63037">
        <ele>262.79998779297</ele>
        <time>2020-05-24T09:49:59Z</time>
      </trkpt>
      <trkpt lat="44.53421" lon="4.63039">
        <ele>262.60000610352</ele>
        <time>2020-05-24T09:50:00Z</time>
      </trkpt>
      <trkpt lat="44.53418" lon="4.6304">
        <ele>262.39999389648</ele>
        <time>2020-05-24T09:50:01Z</time>
      </trkpt>
      <trkpt lat="44.53413" lon="4.63044">
        <ele>262</ele>
        <time>2020-05-24T09:50:03Z</time>
      </trkpt>
      <trkpt lat="44.5341" lon="4.63046">
        <ele>262</ele>
        <time>2020-05-24T09:50:04Z</time>
      </trkpt>
      <trkpt lat="44.53408" lon="4.63048">
        <ele>261.79998779297</ele>
        <time>2020-05-24T09:50:05Z</time>
      </trkpt>
      <trkpt lat="44.53405" lon="4.6305">
        <ele>261.79998779297</ele>
        <time>2020-05-24T09:50:06Z</time>
      </trkpt>
      <trkpt lat="44.53403" lon="4.63051">
        <ele>261.79998779297</ele>
        <time>2020-05-24T09:50:07Z</time>
      </trkpt>
      <trkpt lat="44.53401" lon="4.63052">
        <ele>261.60000610352</ele>
        <time>2020-05-24T09:50:08Z</time>
      </trkpt>
      <trkpt lat="44.53399" lon="4.63054">
        <ele>261.60000610352</ele>
        <time>2020-05-24T09:50:09Z</time>
      </trkpt>
      <trkpt lat="44.53394" lon="4.63057">
        <ele>261.60000610352</ele>
        <time>2020-05-24T09:50:11Z</time>
      </trkpt>
      <trkpt lat="44.53389" lon="4.63059">
        <ele>261.20001220703</ele>
        <time>2020-05-24T09:50:13Z</time>
      </trkpt>
      <trkpt lat="44.5338" lon="4.63063">
        <ele>260.79998779297</ele>
        <time>2020-05-24T09:50:16Z</time>
      </trkpt>
      <trkpt lat="44.53377" lon="4.63065">
        <ele>261</ele>
        <time>2020-05-24T09:50:17Z</time>
      </trkpt>
      <trkpt lat="44.53371" lon="4.63068">
        <ele>260.60000610352</ele>
        <time>2020-05-24T09:50:19Z</time>
      </trkpt>
      <trkpt lat="44.53367" lon="4.6307">
        <ele>260.60000610352</ele>
        <time>2020-05-24T09:50:20Z</time>
      </trkpt>
      <trkpt lat="44.53364" lon="4.63071">
        <ele>260.60000610352</ele>
        <time>2020-05-24T09:50:21Z</time>
      </trkpt>
      <trkpt lat="44.53361" lon="4.63072">
        <ele>260.39999389648</ele>
        <time>2020-05-24T09:50:22Z</time>
      </trkpt>
      <trkpt lat="44.53358" lon="4.63073">
        <ele>260.20001220703</ele>
        <time>2020-05-24T09:50:23Z</time>
      </trkpt>
      <trkpt lat="44.53356" lon="4.63074">
        <ele>260.39999389648</ele>
        <time>2020-05-24T09:50:24Z</time>
      </trkpt>
      <trkpt lat="44.53354" lon="4.63074">
        <ele>260.20001220703</ele>
        <time>2020-05-24T09:50:25Z</time>
      </trkpt>
      <trkpt lat="44.53352" lon="4.63075">
        <ele>260</ele>
        <time>2020-05-24T09:50:26Z</time>
      </trkpt>
      <trkpt lat="44.5335" lon="4.63076">
        <ele>260</ele>
        <time>2020-05-24T09:50:27Z</time>
      </trkpt>
      <trkpt lat="44.53347" lon="4.63077">
        <ele>259.79998779297</ele>
        <time>2020-05-24T09:50:28Z</time>
      </trkpt>
      <trkpt lat="44.53342" lon="4.6308">
        <ele>259.60000610352</ele>
        <time>2020-05-24T09:50:30Z</time>
      </trkpt>
      <trkpt lat="44.5334" lon="4.63081">
        <ele>259.39999389648</ele>
        <time>2020-05-24T09:50:31Z</time>
      </trkpt>
      <trkpt lat="44.53337" lon="4.63082">
        <ele>259.39999389648</ele>
        <time>2020-05-24T09:50:32Z</time>
      </trkpt>
      <trkpt lat="44.53334" lon="4.63083">
        <ele>259.20001220703</ele>
        <time>2020-05-24T09:50:33Z</time>
      </trkpt>
      <trkpt lat="44.53328" lon="4.63086">
        <ele>258.79998779297</ele>
        <time>2020-05-24T09:50:35Z</time>
      </trkpt>
      <trkpt lat="44.53325" lon="4.63087">
        <ele>258.79998779297</ele>
        <time>2020-05-24T09:50:36Z</time>
      </trkpt>
      <trkpt lat="44.53322" lon="4.63088">
        <ele>258.60000610352</ele>
        <time>2020-05-24T09:50:37Z</time>
      </trkpt>
      <trkpt lat="44.53319" lon="4.63088">
        <ele>258.39999389648</ele>
        <time>2020-05-24T09:50:38Z</time>
      </trkpt>
      <trkpt lat="44.53316" lon="4.63089">
        <ele>258.20001220703</ele>
        <time>2020-05-24T09:50:39Z</time>
      </trkpt>
      <trkpt lat="44.53313" lon="4.6309">
        <ele>258</ele>
        <time>2020-05-24T09:50:40Z</time>
      </trkpt>
      <trkpt lat="44.53311" lon="4.63091">
        <ele>258</ele>
        <time>2020-05-24T09:50:41Z</time>
      </trkpt>
      <trkpt lat="44.53309" lon="4.63092">
        <ele>258</ele>
        <time>2020-05-24T09:50:42Z</time>
      </trkpt>
      <trkpt lat="44.53306" lon="4.63092">
        <ele>257.60000610352</ele>
        <time>2020-05-24T09:50:43Z</time>
      </trkpt>
      <trkpt lat="44.53304" lon="4.63093">
        <ele>257.39999389648</ele>
        <time>2020-05-24T09:50:44Z</time>
      </trkpt>
      <trkpt lat="44.53302" lon="4.63094">
        <ele>257.20001220703</ele>
        <time>2020-05-24T09:50:45Z</time>
      </trkpt>
      <trkpt lat="44.53293" lon="4.63096">
        <ele>256.79998779297</ele>
        <time>2020-05-24T09:50:48Z</time>
      </trkpt>
      <trkpt lat="44.53287" lon="4.63098">
        <ele>256.60000610352</ele>
        <time>2020-05-24T09:50:50Z</time>
      </trkpt>
      <trkpt lat="44.5328" lon="4.63099">
        <ele>256</ele>
        <time>2020-05-24T09:50:52Z</time>
      </trkpt>
      <trkpt lat="44.53277" lon="4.63099">
        <ele>255.60000610352</ele>
        <time>2020-05-24T09:50:53Z</time>
      </trkpt>
      <trkpt lat="44.53273" lon="4.631">
        <ele>255.60000610352</ele>
        <time>2020-05-24T09:50:54Z</time>
      </trkpt>
      <trkpt lat="44.5327" lon="4.63099">
        <ele>255.39999389648</ele>
        <time>2020-05-24T09:50:55Z</time>
      </trkpt>
      <trkpt lat="44.53268" lon="4.63099">
        <ele>255.19999694824</ele>
        <time>2020-05-24T09:50:56Z</time>
      </trkpt>
      <trkpt lat="44.53265" lon="4.63098">
        <ele>255</ele>
        <time>2020-05-24T09:50:57Z</time>
      </trkpt>
      <trkpt lat="44.53263" lon="4.63099">
        <ele>255</ele>
        <time>2020-05-24T09:50:58Z</time>
      </trkpt>
      <trkpt lat="44.5326" lon="4.631">
        <ele>254.80000305176</ele>
        <time>2020-05-24T09:50:59Z</time>
      </trkpt>
      <trkpt lat="44.53257" lon="4.63102">
        <ele>254.39999389648</ele>
        <time>2020-05-24T09:51:00Z</time>
      </trkpt>
      <trkpt lat="44.53254" lon="4.63103">
        <ele>254.19999694824</ele>
        <time>2020-05-24T09:51:01Z</time>
      </trkpt>
      <trkpt lat="44.5325" lon="4.63103">
        <ele>254.19999694824</ele>
        <time>2020-05-24T09:51:02Z</time>
      </trkpt>
      <trkpt lat="44.53247" lon="4.63103">
        <ele>254</ele>
        <time>2020-05-24T09:51:03Z</time>
      </trkpt>
      <trkpt lat="44.53244" lon="4.63102">
        <ele>254</ele>
        <time>2020-05-24T09:51:04Z</time>
      </trkpt>
      <trkpt lat="44.53241" lon="4.63102">
        <ele>254</ele>
        <time>2020-05-24T09:51:05Z</time>
      </trkpt>
      <trkpt lat="44.53234" lon="4.63103">
        <ele>253.60000610352</ele>
        <time>2020-05-24T09:51:07Z</time>
      </trkpt>
      <trkpt lat="44.53231" lon="4.63104">
        <ele>253.60000610352</ele>
        <time>2020-05-24T09:51:08Z</time>
      </trkpt>
      <trkpt lat="44.53227" lon="4.63106">
        <ele>253.60000610352</ele>
        <time>2020-05-24T09:51:09Z</time>
      </trkpt>
      <trkpt lat="44.53224" lon="4.63107">
        <ele>253.60000610352</ele>
        <time>2020-05-24T09:51:10Z</time>
      </trkpt>
      <trkpt lat="44.53221" lon="4.63108">
        <ele>253.39999389648</ele>
        <time>2020-05-24T09:51:11Z</time>
      </trkpt>
      <trkpt lat="44.53219" lon="4.6311">
        <ele>253.39999389648</ele>
        <time>2020-05-24T09:51:12Z</time>
      </trkpt>
      <trkpt lat="44.53217" lon="4.63112">
        <ele>253.19999694824</ele>
        <time>2020-05-24T09:51:13Z</time>
      </trkpt>
      <trkpt lat="44.53214" lon="4.63114">
        <ele>253</ele>
        <time>2020-05-24T09:51:14Z</time>
      </trkpt>
      <trkpt lat="44.53212" lon="4.63115">
        <ele>253</ele>
        <time>2020-05-24T09:51:15Z</time>
      </trkpt>
      <trkpt lat="44.53208" lon="4.63116">
        <ele>252.80000305176</ele>
        <time>2020-05-24T09:51:16Z</time>
      </trkpt>
      <trkpt lat="44.53205" lon="4.63117">
        <ele>252.60000610352</ele>
        <time>2020-05-24T09:51:17Z</time>
      </trkpt>
      <trkpt lat="44.53202" lon="4.63117">
        <ele>251.80000305176</ele>
        <time>2020-05-24T09:51:18Z</time>
      </trkpt>
      <trkpt lat="44.53199" lon="4.63118">
        <ele>251.39999389648</ele>
        <time>2020-05-24T09:51:19Z</time>
      </trkpt>
      <trkpt lat="44.53197" lon="4.6312">
        <ele>251.19999694824</ele>
        <time>2020-05-24T09:51:20Z</time>
      </trkpt>
      <trkpt lat="44.53194" lon="4.63122">
        <ele>251</ele>
        <time>2020-05-24T09:51:21Z</time>
      </trkpt>
      <trkpt lat="44.53192" lon="4.63123">
        <ele>250.19999694824</ele>
        <time>2020-05-24T09:51:22Z</time>
      </trkpt>
      <trkpt lat="44.53189" lon="4.63125">
        <ele>249.60000610352</ele>
        <time>2020-05-24T09:51:23Z</time>
      </trkpt>
      <trkpt lat="44.53182" lon="4.63128">
        <ele>248.60000610352</ele>
        <time>2020-05-24T09:51:25Z</time>
      </trkpt>
      <trkpt lat="44.53178" lon="4.6313">
        <ele>248.60000610352</ele>
        <time>2020-05-24T09:51:26Z</time>
      </trkpt>
      <trkpt lat="44.53175" lon="4.63131">
        <ele>248.39999389648</ele>
        <time>2020-05-24T09:51:27Z</time>
      </trkpt>
      <trkpt lat="44.53174" lon="4.63131">
        <ele>248.19999694824</ele>
        <time>2020-05-24T09:51:28Z</time>
      </trkpt>
      <trkpt lat="44.53173" lon="4.63131">
        <ele>248</ele>
        <time>2020-05-24T09:51:29Z</time>
      </trkpt>
      <trkpt lat="44.53173" lon="4.63131">
        <ele>247.19999694824</ele>
        <time>2020-05-24T09:51:32Z</time>
      </trkpt>
      <trkpt lat="44.53173" lon="4.63131">
        <ele>246.19999694824</ele>
        <time>2020-05-24T09:51:41Z</time>
      </trkpt>
      <trkpt lat="44.53173" lon="4.63131">
        <ele>246.19999694824</ele>
        <time>2020-05-24T09:51:43Z</time>
      </trkpt>
      <trkpt lat="44.53173" lon="4.63131">
        <ele>246.19999694824</ele>
        <time>2020-05-24T09:51:45Z</time>
      </trkpt>
      <trkpt lat="44.53173" lon="4.63131">
        <ele>246.80000305176</ele>
        <time>2020-05-24T09:51:55Z</time>
      </trkpt>
      <trkpt lat="44.53173" lon="4.63131">
        <ele>246.39999389648</ele>
        <time>2020-05-24T09:52:02Z</time>
      </trkpt>
      <trkpt lat="44.53173" lon="4.63131">
        <ele>246.39999389648</ele>
        <time>2020-05-24T09:52:07Z</time>
      </trkpt>
      <trkpt lat="44.53172" lon="4.63131">
        <ele>246.39999389648</ele>
        <time>2020-05-24T09:52:08Z</time>
      </trkpt>
      <trkpt lat="44.53172" lon="4.6313">
        <ele>246</ele>
        <time>2020-05-24T09:52:09Z</time>
      </trkpt>
      <trkpt lat="44.53172" lon="4.6313">
        <ele>246</ele>
        <time>2020-05-24T09:52:10Z</time>
      </trkpt>
      <trkpt lat="44.53172" lon="4.63129">
        <ele>243.39999389648</ele>
        <time>2020-05-24T09:52:28Z</time>
      </trkpt>
      <trkpt lat="44.53172" lon="4.63127">
        <ele>243.60000610352</ele>
        <time>2020-05-24T09:52:29Z</time>
      </trkpt>
      <trkpt lat="44.53172" lon="4.63124">
        <ele>243.60000610352</ele>
        <time>2020-05-24T09:52:30Z</time>
      </trkpt>
      <trkpt lat="44.53171" lon="4.63121">
        <ele>243.60000610352</ele>
        <time>2020-05-24T09:52:31Z</time>
      </trkpt>
      <trkpt lat="44.53172" lon="4.63117">
        <ele>243.60000610352</ele>
        <time>2020-05-24T09:52:32Z</time>
      </trkpt>
      <trkpt lat="44.53173" lon="4.63113">
        <ele>243.60000610352</ele>
        <time>2020-05-24T09:52:33Z</time>
      </trkpt>
      <trkpt lat="44.53175" lon="4.6311">
        <ele>243.60000610352</ele>
        <time>2020-05-24T09:52:34Z</time>
      </trkpt>
      <trkpt lat="44.5318" lon="4.63103">
        <ele>243.60000610352</ele>
        <time>2020-05-24T09:52:36Z</time>
      </trkpt>
      <trkpt lat="44.53183" lon="4.63099">
        <ele>243.60000610352</ele>
        <time>2020-05-24T09:52:37Z</time>
      </trkpt>
      <trkpt lat="44.53195" lon="4.63087">
        <ele>243.60000610352</ele>
        <time>2020-05-24T09:52:40Z</time>
      </trkpt>
      <trkpt lat="44.53199" lon="4.63083">
        <ele>243.39999389648</ele>
        <time>2020-05-24T09:52:41Z</time>
      </trkpt>
      <trkpt lat="44.53202" lon="4.63079">
        <ele>243.60000610352</ele>
        <time>2020-05-24T09:52:42Z</time>
      </trkpt>
      <trkpt lat="44.53206" lon="4.63075">
        <ele>243.60000610352</ele>
        <time>2020-05-24T09:52:43Z</time>
      </trkpt>
      <trkpt lat="44.53209" lon="4.63071">
        <ele>243.60000610352</ele>
        <time>2020-05-24T09:52:44Z</time>
      </trkpt>
      <trkpt lat="44.53212" lon="4.63067">
        <ele>243.39999389648</ele>
        <time>2020-05-24T09:52:45Z</time>
      </trkpt>
      <trkpt lat="44.53215" lon="4.63061">
        <ele>243</ele>
        <time>2020-05-24T09:52:46Z</time>
      </trkpt>
      <trkpt lat="44.53216" lon="4.63055">
        <ele>242.60000610352</ele>
        <time>2020-05-24T09:52:47Z</time>
      </trkpt>
      <trkpt lat="44.53218" lon="4.63048">
        <ele>242.60000610352</ele>
        <time>2020-05-24T09:52:48Z</time>
      </trkpt>
      <trkpt lat="44.53218" lon="4.63041">
        <ele>242</ele>
        <time>2020-05-24T09:52:49Z</time>
      </trkpt>
      <trkpt lat="44.53218" lon="4.63034">
        <ele>241.80000305176</ele>
        <time>2020-05-24T09:52:50Z</time>
      </trkpt>
      <trkpt lat="44.53218" lon="4.63026">
        <ele>241.19999694824</ele>
        <time>2020-05-24T09:52:51Z</time>
      </trkpt>
      <trkpt lat="44.53219" lon="4.63019">
        <ele>241.19999694824</ele>
        <time>2020-05-24T09:52:52Z</time>
      </trkpt>
      <trkpt lat="44.53219" lon="4.63013">
        <ele>241</ele>
        <time>2020-05-24T09:52:53Z</time>
      </trkpt>
      <trkpt lat="44.5322" lon="4.63006">
        <ele>240.80000305176</ele>
        <time>2020-05-24T09:52:54Z</time>
      </trkpt>
      <trkpt lat="44.53221" lon="4.63">
        <ele>240.80000305176</ele>
        <time>2020-05-24T09:52:55Z</time>
      </trkpt>
      <trkpt lat="44.53222" lon="4.62994">
        <ele>240.80000305176</ele>
        <time>2020-05-24T09:52:56Z</time>
      </trkpt>
      <trkpt lat="44.53222" lon="4.62988">
        <ele>240.39999389648</ele>
        <time>2020-05-24T09:52:57Z</time>
      </trkpt>
      <trkpt lat="44.53221" lon="4.62984">
        <ele>240.19999694824</ele>
        <time>2020-05-24T09:52:58Z</time>
      </trkpt>
      <trkpt lat="44.5322" lon="4.6298">
        <ele>240.19999694824</ele>
        <time>2020-05-24T09:52:59Z</time>
      </trkpt>
      <trkpt lat="44.53217" lon="4.62977">
        <ele>239.80000305176</ele>
        <time>2020-05-24T09:53:00Z</time>
      </trkpt>
      <trkpt lat="44.53214" lon="4.62975">
        <ele>239.80000305176</ele>
        <time>2020-05-24T09:53:01Z</time>
      </trkpt>
      <trkpt lat="44.53211" lon="4.62974">
        <ele>239.60000610352</ele>
        <time>2020-05-24T09:53:02Z</time>
      </trkpt>
      <trkpt lat="44.53205" lon="4.62973">
        <ele>239.60000610352</ele>
        <time>2020-05-24T09:53:04Z</time>
      </trkpt>
      <trkpt lat="44.53199" lon="4.62973">
        <ele>239.39999389648</ele>
        <time>2020-05-24T09:53:06Z</time>
      </trkpt>
      <trkpt lat="44.53196" lon="4.62972">
        <ele>239.19999694824</ele>
        <time>2020-05-24T09:53:07Z</time>
      </trkpt>
      <trkpt lat="44.53193" lon="4.62971">
        <ele>239.39999389648</ele>
        <time>2020-05-24T09:53:08Z</time>
      </trkpt>
      <trkpt lat="44.5319" lon="4.6297">
        <ele>239.19999694824</ele>
        <time>2020-05-24T09:53:09Z</time>
      </trkpt>
      <trkpt lat="44.53187" lon="4.62968">
        <ele>239</ele>
        <time>2020-05-24T09:53:10Z</time>
      </trkpt>
      <trkpt lat="44.53185" lon="4.62965">
        <ele>239</ele>
        <time>2020-05-24T09:53:11Z</time>
      </trkpt>
      <trkpt lat="44.53182" lon="4.62963">
        <ele>239</ele>
        <time>2020-05-24T09:53:12Z</time>
      </trkpt>
      <trkpt lat="44.5318" lon="4.62961">
        <ele>238.80000305176</ele>
        <time>2020-05-24T09:53:13Z</time>
      </trkpt>
      <trkpt lat="44.5318" lon="4.62961">
        <ele>238.80000305176</ele>
        <time>2020-05-24T09:53:13Z</time>
      </trkpt>
      <trkpt lat="44.53167" lon="4.62949">
        <ele>238.60000610352</ele>
        <time>2020-05-24T09:53:18Z</time>
      </trkpt>
      <trkpt lat="44.53164" lon="4.62947">
        <ele>238.60000610352</ele>
        <time>2020-05-24T09:53:19Z</time>
      </trkpt>
      <trkpt lat="44.53162" lon="4.62944">
        <ele>238.60000610352</ele>
        <time>2020-05-24T09:53:20Z</time>
      </trkpt>
      <trkpt lat="44.5316" lon="4.62941">
        <ele>238.60000610352</ele>
        <time>2020-05-24T09:53:21Z</time>
      </trkpt>
      <trkpt lat="44.53157" lon="4.62938">
        <ele>238.60000610352</ele>
        <time>2020-05-24T09:53:22Z</time>
      </trkpt>
      <trkpt lat="44.53152" lon="4.62932">
        <ele>238.60000610352</ele>
        <time>2020-05-24T09:53:24Z</time>
      </trkpt>
      <trkpt lat="44.53148" lon="4.62926">
        <ele>238.60000610352</ele>
        <time>2020-05-24T09:53:26Z</time>
      </trkpt>
      <trkpt lat="44.53145" lon="4.62923">
        <ele>238.60000610352</ele>
        <time>2020-05-24T09:53:27Z</time>
      </trkpt>
      <trkpt lat="44.53142" lon="4.6292">
        <ele>238.60000610352</ele>
        <time>2020-05-24T09:53:28Z</time>
      </trkpt>
      <trkpt lat="44.5314" lon="4.62917">
        <ele>238.80000305176</ele>
        <time>2020-05-24T09:53:29Z</time>
      </trkpt>
      <trkpt lat="44.53137" lon="4.62914">
        <ele>238.80000305176</ele>
        <time>2020-05-24T09:53:30Z</time>
      </trkpt>
      <trkpt lat="44.53135" lon="4.6291">
        <ele>238.80000305176</ele>
        <time>2020-05-24T09:53:31Z</time>
      </trkpt>
      <trkpt lat="44.53133" lon="4.62907">
        <ele>238.80000305176</ele>
        <time>2020-05-24T09:53:32Z</time>
      </trkpt>
      <trkpt lat="44.53131" lon="4.62903">
        <ele>239</ele>
        <time>2020-05-24T09:53:33Z</time>
      </trkpt>
      <trkpt lat="44.5313" lon="4.62899">
        <ele>239</ele>
        <time>2020-05-24T09:53:34Z</time>
      </trkpt>
      <trkpt lat="44.53129" lon="4.62895">
        <ele>239.19999694824</ele>
        <time>2020-05-24T09:53:35Z</time>
      </trkpt>
      <trkpt lat="44.53128" lon="4.62892">
        <ele>239.39999389648</ele>
        <time>2020-05-24T09:53:36Z</time>
      </trkpt>
      <trkpt lat="44.53127" lon="4.62887">
        <ele>239.60000610352</ele>
        <time>2020-05-24T09:53:37Z</time>
      </trkpt>
      <trkpt lat="44.53126" lon="4.62883">
        <ele>240.19999694824</ele>
        <time>2020-05-24T09:53:38Z</time>
      </trkpt>
      <trkpt lat="44.53126" lon="4.62878">
        <ele>241</ele>
        <time>2020-05-24T09:53:39Z</time>
      </trkpt>
      <trkpt lat="44.53126" lon="4.62872">
        <ele>241</ele>
        <time>2020-05-24T09:53:40Z</time>
      </trkpt>
      <trkpt lat="44.53126" lon="4.62866">
        <ele>241.39999389648</ele>
        <time>2020-05-24T09:53:41Z</time>
      </trkpt>
      <trkpt lat="44.53126" lon="4.62851">
        <ele>241.80000305176</ele>
        <time>2020-05-24T09:53:43Z</time>
      </trkpt>
      <trkpt lat="44.53126" lon="4.62844">
        <ele>241.80000305176</ele>
        <time>2020-05-24T09:53:44Z</time>
      </trkpt>
      <trkpt lat="44.53125" lon="4.62837">
        <ele>242</ele>
        <time>2020-05-24T09:53:45Z</time>
      </trkpt>
      <trkpt lat="44.53124" lon="4.6283">
        <ele>242</ele>
        <time>2020-05-24T09:53:46Z</time>
      </trkpt>
      <trkpt lat="44.53123" lon="4.62824">
        <ele>242</ele>
        <time>2020-05-24T09:53:47Z</time>
      </trkpt>
      <trkpt lat="44.53121" lon="4.6282">
        <ele>242</ele>
        <time>2020-05-24T09:53:48Z</time>
      </trkpt>
      <trkpt lat="44.53118" lon="4.62817">
        <ele>242</ele>
        <time>2020-05-24T09:53:49Z</time>
      </trkpt>
      <trkpt lat="44.53115" lon="4.62815">
        <ele>242</ele>
        <time>2020-05-24T09:53:50Z</time>
      </trkpt>
      <trkpt lat="44.53112" lon="4.62814">
        <ele>241.80000305176</ele>
        <time>2020-05-24T09:53:51Z</time>
      </trkpt>
      <trkpt lat="44.53108" lon="4.62813">
        <ele>241.80000305176</ele>
        <time>2020-05-24T09:53:52Z</time>
      </trkpt>
      <trkpt lat="44.53105" lon="4.62814">
        <ele>241.80000305176</ele>
        <time>2020-05-24T09:53:53Z</time>
      </trkpt>
      <trkpt lat="44.53102" lon="4.62814">
        <ele>241.60000610352</ele>
        <time>2020-05-24T09:53:54Z</time>
      </trkpt>
      <trkpt lat="44.53099" lon="4.62814">
        <ele>241.39999389648</ele>
        <time>2020-05-24T09:53:55Z</time>
      </trkpt>
      <trkpt lat="44.53096" lon="4.62813">
        <ele>241.39999389648</ele>
        <time>2020-05-24T09:53:56Z</time>
      </trkpt>
      <trkpt lat="44.53093" lon="4.62812">
        <ele>241.19999694824</ele>
        <time>2020-05-24T09:53:57Z</time>
      </trkpt>
      <trkpt lat="44.53089" lon="4.62808">
        <ele>240.80000305176</ele>
        <time>2020-05-24T09:53:59Z</time>
      </trkpt>
      <trkpt lat="44.53087" lon="4.62805">
        <ele>240.80000305176</ele>
        <time>2020-05-24T09:54:00Z</time>
      </trkpt>
      <trkpt lat="44.53085" lon="4.62803">
        <ele>240.80000305176</ele>
        <time>2020-05-24T09:54:01Z</time>
      </trkpt>
      <trkpt lat="44.53083" lon="4.62801">
        <ele>240.80000305176</ele>
        <time>2020-05-24T09:54:02Z</time>
      </trkpt>
      <trkpt lat="44.53081" lon="4.62799">
        <ele>240.80000305176</ele>
        <time>2020-05-24T09:54:03Z</time>
      </trkpt>
      <trkpt lat="44.53078" lon="4.62797">
        <ele>240.60000610352</ele>
        <time>2020-05-24T09:54:04Z</time>
      </trkpt>
      <trkpt lat="44.53076" lon="4.62794">
        <ele>240.60000610352</ele>
        <time>2020-05-24T09:54:05Z</time>
      </trkpt>
      <trkpt lat="44.53074" lon="4.62793">
        <ele>240.60000610352</ele>
        <time>2020-05-24T09:54:06Z</time>
      </trkpt>
      <trkpt lat="44.53071" lon="4.62793">
        <ele>240.60000610352</ele>
        <time>2020-05-24T09:54:07Z</time>
      </trkpt>
      <trkpt lat="44.53069" lon="4.62794">
        <ele>240.80000305176</ele>
        <time>2020-05-24T09:54:08Z</time>
      </trkpt>
      <trkpt lat="44.53067" lon="4.62795">
        <ele>241</ele>
        <time>2020-05-24T09:54:09Z</time>
      </trkpt>
      <trkpt lat="44.53065" lon="4.62796">
        <ele>241</ele>
        <time>2020-05-24T09:54:10Z</time>
      </trkpt>
      <trkpt lat="44.53063" lon="4.62796">
        <ele>241</ele>
        <time>2020-05-24T09:54:11Z</time>
      </trkpt>
      <trkpt lat="44.53061" lon="4.62797">
        <ele>241.19999694824</ele>
        <time>2020-05-24T09:54:12Z</time>
      </trkpt>
      <trkpt lat="44.53059" lon="4.62798">
        <ele>241</ele>
        <time>2020-05-24T09:54:13Z</time>
      </trkpt>
      <trkpt lat="44.53057" lon="4.62798">
        <ele>241.39999389648</ele>
        <time>2020-05-24T09:54:14Z</time>
      </trkpt>
      <trkpt lat="44.53055" lon="4.62799">
        <ele>241.80000305176</ele>
        <time>2020-05-24T09:54:15Z</time>
      </trkpt>
      <trkpt lat="44.53052" lon="4.628">
        <ele>242</ele>
        <time>2020-05-24T09:54:16Z</time>
      </trkpt>
      <trkpt lat="44.5305" lon="4.628">
        <ele>242</ele>
        <time>2020-05-24T09:54:17Z</time>
      </trkpt>
      <trkpt lat="44.53047" lon="4.628">
        <ele>242</ele>
        <time>2020-05-24T09:54:18Z</time>
      </trkpt>
      <trkpt lat="44.53044" lon="4.628">
        <ele>242.19999694824</ele>
        <time>2020-05-24T09:54:19Z</time>
      </trkpt>
      <trkpt lat="44.53042" lon="4.62799">
        <ele>242.19999694824</ele>
        <time>2020-05-24T09:54:20Z</time>
      </trkpt>
      <trkpt lat="44.53039" lon="4.62798">
        <ele>242.39999389648</ele>
        <time>2020-05-24T09:54:21Z</time>
      </trkpt>
      <trkpt lat="44.53036" lon="4.62796">
        <ele>242.39999389648</ele>
        <time>2020-05-24T09:54:22Z</time>
      </trkpt>
      <trkpt lat="44.53033" lon="4.62795">
        <ele>242.39999389648</ele>
        <time>2020-05-24T09:54:23Z</time>
      </trkpt>
      <trkpt lat="44.5303" lon="4.62794">
        <ele>242.80000305176</ele>
        <time>2020-05-24T09:54:24Z</time>
      </trkpt>
      <trkpt lat="44.53028" lon="4.62792">
        <ele>243</ele>
        <time>2020-05-24T09:54:25Z</time>
      </trkpt>
      <trkpt lat="44.53025" lon="4.62791">
        <ele>243</ele>
        <time>2020-05-24T09:54:26Z</time>
      </trkpt>
      <trkpt lat="44.53022" lon="4.6279">
        <ele>243.19999694824</ele>
        <time>2020-05-24T09:54:27Z</time>
      </trkpt>
      <trkpt lat="44.53019" lon="4.62788">
        <ele>243.19999694824</ele>
        <time>2020-05-24T09:54:28Z</time>
      </trkpt>
      <trkpt lat="44.53016" lon="4.62787">
        <ele>243.39999389648</ele>
        <time>2020-05-24T09:54:29Z</time>
      </trkpt>
      <trkpt lat="44.53014" lon="4.62785">
        <ele>243.60000610352</ele>
        <time>2020-05-24T09:54:30Z</time>
      </trkpt>
      <trkpt lat="44.53011" lon="4.62783">
        <ele>243.80000305176</ele>
        <time>2020-05-24T09:54:31Z</time>
      </trkpt>
      <trkpt lat="44.53008" lon="4.62782">
        <ele>244</ele>
        <time>2020-05-24T09:54:32Z</time>
      </trkpt>
      <trkpt lat="44.53005" lon="4.6278">
        <ele>244</ele>
        <time>2020-05-24T09:54:33Z</time>
      </trkpt>
      <trkpt lat="44.53002" lon="4.62779">
        <ele>244.19999694824</ele>
        <time>2020-05-24T09:54:34Z</time>
      </trkpt>
      <trkpt lat="44.52999" lon="4.62777">
        <ele>244.19999694824</ele>
        <time>2020-05-24T09:54:35Z</time>
      </trkpt>
      <trkpt lat="44.52996" lon="4.62776">
        <ele>244.39999389648</ele>
        <time>2020-05-24T09:54:36Z</time>
      </trkpt>
      <trkpt lat="44.52993" lon="4.62774">
        <ele>244.39999389648</ele>
        <time>2020-05-24T09:54:37Z</time>
      </trkpt>
      <trkpt lat="44.5299" lon="4.62773">
        <ele>244.60000610352</ele>
        <time>2020-05-24T09:54:38Z</time>
      </trkpt>
      <trkpt lat="44.52987" lon="4.62771">
        <ele>244.60000610352</ele>
        <time>2020-05-24T09:54:39Z</time>
      </trkpt>
      <trkpt lat="44.52984" lon="4.6277">
        <ele>244.60000610352</ele>
        <time>2020-05-24T09:54:40Z</time>
      </trkpt>
      <trkpt lat="44.52981" lon="4.62768">
        <ele>244.80000305176</ele>
        <time>2020-05-24T09:54:41Z</time>
      </trkpt>
      <trkpt lat="44.52978" lon="4.62767">
        <ele>245</ele>
        <time>2020-05-24T09:54:42Z</time>
      </trkpt>
      <trkpt lat="44.52975" lon="4.62766">
        <ele>245.39999389648</ele>
        <time>2020-05-24T09:54:43Z</time>
      </trkpt>
      <trkpt lat="44.52972" lon="4.62764">
        <ele>245.39999389648</ele>
        <time>2020-05-24T09:54:44Z</time>
      </trkpt>
      <trkpt lat="44.52969" lon="4.62763">
        <ele>245.80000305176</ele>
        <time>2020-05-24T09:54:45Z</time>
      </trkpt>
      <trkpt lat="44.52966" lon="4.62761">
        <ele>245.80000305176</ele>
        <time>2020-05-24T09:54:46Z</time>
      </trkpt>
      <trkpt lat="44.52963" lon="4.62761">
        <ele>246.19999694824</ele>
        <time>2020-05-24T09:54:47Z</time>
      </trkpt>
      <trkpt lat="44.5296" lon="4.6276">
        <ele>246.39999389648</ele>
        <time>2020-05-24T09:54:48Z</time>
      </trkpt>
      <trkpt lat="44.52957" lon="4.62759">
        <ele>246.60000610352</ele>
        <time>2020-05-24T09:54:49Z</time>
      </trkpt>
      <trkpt lat="44.52954" lon="4.62758">
        <ele>246.80000305176</ele>
        <time>2020-05-24T09:54:50Z</time>
      </trkpt>
      <trkpt lat="44.52952" lon="4.62756">
        <ele>246.80000305176</ele>
        <time>2020-05-24T09:54:51Z</time>
      </trkpt>
      <trkpt lat="44.52949" lon="4.62755">
        <ele>247</ele>
        <time>2020-05-24T09:54:52Z</time>
      </trkpt>
      <trkpt lat="44.52946" lon="4.62754">
        <ele>247</ele>
        <time>2020-05-24T09:54:53Z</time>
      </trkpt>
      <trkpt lat="44.52944" lon="4.62752">
        <ele>247.19999694824</ele>
        <time>2020-05-24T09:54:54Z</time>
      </trkpt>
      <trkpt lat="44.52941" lon="4.62751">
        <ele>247.19999694824</ele>
        <time>2020-05-24T09:54:55Z</time>
      </trkpt>
      <trkpt lat="44.52938" lon="4.62749">
        <ele>247.80000305176</ele>
        <time>2020-05-24T09:54:56Z</time>
      </trkpt>
      <trkpt lat="44.52936" lon="4.62747">
        <ele>248</ele>
        <time>2020-05-24T09:54:57Z</time>
      </trkpt>
      <trkpt lat="44.52933" lon="4.62745">
        <ele>248.19999694824</ele>
        <time>2020-05-24T09:54:58Z</time>
      </trkpt>
      <trkpt lat="44.52931" lon="4.62743">
        <ele>248.39999389648</ele>
        <time>2020-05-24T09:54:59Z</time>
      </trkpt>
      <trkpt lat="44.52929" lon="4.62741">
        <ele>248.60000610352</ele>
        <time>2020-05-24T09:55:00Z</time>
      </trkpt>
      <trkpt lat="44.52926" lon="4.62739">
        <ele>248.80000305176</ele>
        <time>2020-05-24T09:55:01Z</time>
      </trkpt>
      <trkpt lat="44.52924" lon="4.62737">
        <ele>248.80000305176</ele>
        <time>2020-05-24T09:55:02Z</time>
      </trkpt>
      <trkpt lat="44.52922" lon="4.62736">
        <ele>249</ele>
        <time>2020-05-24T09:55:03Z</time>
      </trkpt>
      <trkpt lat="44.52919" lon="4.6273">
        <ele>250.79296875</ele>
      </trkpt>
      <trkpt lat="44.52915" lon="4.62729">
        <ele>250.87109375</ele>
      </trkpt>
      <trkpt lat="44.5291" lon="4.62735">
        <ele>250.73046875</ele>
      </trkpt>
      <trkpt lat="44.529" lon="4.62739">
        <ele>250.9375</ele>
      </trkpt>
      <trkpt lat="44.52895" lon="4.62742">
        <ele>251.15234375</ele>
      </trkpt>
      <trkpt lat="44.52888" lon="4.62747">
        <ele>251.82421875</ele>
      </trkpt>
      <trkpt lat="44.52883" lon="4.62751">
        <ele>252.94140625</ele>
      </trkpt>
      <trkpt lat="44.52881" lon="4.62753">
        <ele>253.6875</ele>
      </trkpt>
      <trkpt lat="44.52878" lon="4.62757">
        <ele>254.3515625</ele>
      </trkpt>
      <trkpt lat="44.52877" lon="4.62762">
        <ele>254.98046875</ele>
      </trkpt>
      <trkpt lat="44.52876" lon="4.62772">
        <ele>255.74609375</ele>
      </trkpt>
      <trkpt lat="44.52876" lon="4.62776">
        <ele>255.9921875</ele>
      </trkpt>
      <trkpt lat="44.52876" lon="4.62781">
        <ele>256.1328125</ele>
      </trkpt>
      <trkpt lat="44.52878" lon="4.62787">
        <ele>255.859375</ele>
      </trkpt>
      <trkpt lat="44.52881" lon="4.62797">
        <ele>255.53515625</ele>
      </trkpt>
      <trkpt lat="44.52884" lon="4.62808">
        <ele>255</ele>
      </trkpt>
      <trkpt lat="44.5289" lon="4.62827">
        <ele>254.13671875</ele>
      </trkpt>
      <trkpt lat="44.52898" lon="4.62862">
        <ele>254.34375</ele>
      </trkpt>
      <trkpt lat="44.52907" lon="4.62899">
        <ele>253.6953125</ele>
      </trkpt>
      <trkpt lat="44.52916" lon="4.62944">
        <ele>252.3046875</ele>
      </trkpt>
      <trkpt lat="44.52918" lon="4.62962">
        <ele>252.296875</ele>
      </trkpt>
      <trkpt lat="44.52919" lon="4.62981">
        <ele>251.9140625</ele>
      </trkpt>
      <trkpt lat="44.52918" lon="4.62993">
        <ele>252.14453125</ele>
      </trkpt>
      <trkpt lat="44.52918" lon="4.63002">
        <ele>252.35546875</ele>
      </trkpt>
      <trkpt lat="44.52917" lon="4.63011">
        <ele>252.2265625</ele>
      </trkpt>
      <trkpt lat="44.52914" lon="4.63022">
        <ele>252.21484375</ele>
      </trkpt>
      <trkpt lat="44.52908" lon="4.63037">
        <ele>252.609375</ele>
      </trkpt>
      <trkpt lat="44.52904" lon="4.63048">
        <ele>253.046875</ele>
      </trkpt>
      <trkpt lat="44.52899" lon="4.63057">
        <ele>252.80078125</ele>
      </trkpt>
      <trkpt lat="44.52894" lon="4.63062">
        <ele>252.98828125</ele>
      </trkpt>
      <trkpt lat="44.5289" lon="4.63067">
        <ele>253.109375</ele>
      </trkpt>
      <trkpt lat="44.52882" lon="4.63073">
        <ele>253.8984375</ele>
      </trkpt>
      <trkpt lat="44.52868" lon="4.6308">
        <ele>255.5703125</ele>
      </trkpt>
      <trkpt lat="44.52858" lon="4.63084">
        <ele>256.66796875</ele>
      </trkpt>
      <trkpt lat="44.52847" lon="4.63088">
        <ele>258.3828125</ele>
      </trkpt>
      <trkpt lat="44.5283" lon="4.63091">
        <ele>262.59765625</ele>
      </trkpt>
      <trkpt lat="44.52797" lon="4.63097">
        <ele>270.921875</ele>
      </trkpt>
      <trkpt lat="44.52791" lon="4.63099">
        <ele>272.3046875</ele>
      </trkpt>
      <trkpt lat="44.52786" lon="4.63102">
        <ele>273.265625</ele>
      </trkpt>
      <trkpt lat="44.52779" lon="4.63107">
        <ele>274.11328125</ele>
      </trkpt>
      <trkpt lat="44.52774" lon="4.63111">
        <ele>274.66796875</ele>
      </trkpt>
      <trkpt lat="44.5277" lon="4.63116">
        <ele>274.99609375</ele>
      </trkpt>
      <trkpt lat="44.52766" lon="4.6312">
        <ele>275.6015625</ele>
      </trkpt>
      <trkpt lat="44.5276" lon="4.63131">
        <ele>275.15625</ele>
      </trkpt>
      <trkpt lat="44.52758" lon="4.63138">
        <ele>274.55859375</ele>
      </trkpt>
      <trkpt lat="44.52757" lon="4.63146">
        <ele>273.5390625</ele>
      </trkpt>
      <trkpt lat="44.52755" lon="4.63164">
        <ele>271.05859375</ele>
      </trkpt>
      <trkpt lat="44.52752" lon="4.63216">
        <ele>262.68359375</ele>
      </trkpt>
      <trkpt lat="44.52749" lon="4.63223">
        <ele>261.9921875</ele>
      </trkpt>
      <trkpt lat="44.52746" lon="4.6323">
        <ele>261.171875</ele>
      </trkpt>
      <trkpt lat="44.52743" lon="4.63236">
        <ele>260.66015625</ele>
      </trkpt>
      <trkpt lat="44.52739" lon="4.63241">
        <ele>260.19921875</ele>
      </trkpt>
      <trkpt lat="44.52728" lon="4.6325">
        <ele>260.0546875</ele>
      </trkpt>
      <trkpt lat="44.527" lon="4.63265">
        <ele>260.70703125</ele>
      </trkpt>
      <trkpt lat="44.52687" lon="4.63273">
        <ele>260.015625</ele>
      </trkpt>
      <trkpt lat="44.52674" lon="4.63277">
        <ele>260.21484375</ele>
      </trkpt>
      <trkpt lat="44.52666" lon="4.63279">
        <ele>260.5078125</ele>
      </trkpt>
      <trkpt lat="44.52653" lon="4.63281">
        <ele>260.92578125</ele>
      </trkpt>
      <trkpt lat="44.52645" lon="4.63281">
        <ele>260.63671875</ele>
      </trkpt>
      <trkpt lat="44.52637" lon="4.63281">
        <ele>260.59765625</ele>
      </trkpt>
      <trkpt lat="44.52631" lon="4.63279">
        <ele>260.8359375</ele>
      </trkpt>
      <trkpt lat="44.5261" lon="4.63272">
        <ele>261.86328125</ele>
      </trkpt>
      <trkpt lat="44.52575" lon="4.63256">
        <ele>259.2734375</ele>
      </trkpt>
      <trkpt lat="44.52557" lon="4.63244">
        <ele>257.1171875</ele>
      </trkpt>
      <trkpt lat="44.52551" lon="4.63239">
        <ele>256.0859375</ele>
      </trkpt>
      <trkpt lat="44.52546" lon="4.63233">
        <ele>255.62109375</ele>
      </trkpt>
      <trkpt lat="44.52544" lon="4.63228">
        <ele>255.66015625</ele>
      </trkpt>
      <trkpt lat="44.52541" lon="4.63222">
        <ele>255.89453125</ele>
      </trkpt>
      <trkpt lat="44.52538" lon="4.63216">
        <ele>256.1171875</ele>
      </trkpt>
      <trkpt lat="44.5253" lon="4.63189">
        <ele>258.5546875</ele>
      </trkpt>
      <trkpt lat="44.52514" lon="4.63136">
        <ele>264.953125</ele>
      </trkpt>
      <trkpt lat="44.52502" lon="4.63094">
        <ele>271.64453125</ele>
      </trkpt>
      <trkpt lat="44.52497" lon="4.63077">
        <ele>274.0546875</ele>
      </trkpt>
      <trkpt lat="44.52492" lon="4.63065">
        <ele>275.72265625</ele>
      </trkpt>
      <trkpt lat="44.52487" lon="4.63059">
        <ele>276.24609375</ele>
      </trkpt>
      <trkpt lat="44.52481" lon="4.63056">
        <ele>275.9453125</ele>
      </trkpt>
      <trkpt lat="44.52476" lon="4.63055">
        <ele>275.38671875</ele>
      </trkpt>
      <trkpt lat="44.52469" lon="4.63058">
        <ele>274.234375</ele>
      </trkpt>
      <trkpt lat="44.52463" lon="4.63061">
        <ele>273.31640625</ele>
      </trkpt>
      <trkpt lat="44.52458" lon="4.63066">
        <ele>272.2734375</ele>
      </trkpt>
      <trkpt lat="44.52453" lon="4.63071">
        <ele>270.98046875</ele>
      </trkpt>
      <trkpt lat="44.52442" lon="4.63084">
        <ele>267.93359375</ele>
      </trkpt>
      <trkpt lat="44.52422" lon="4.63111">
        <ele>262.09375</ele>
      </trkpt>
      <trkpt lat="44.52388" lon="4.63165">
        <ele>256.5078125</ele>
      </trkpt>
      <trkpt lat="44.52371" lon="4.63189">
        <ele>254.73828125</ele>
      </trkpt>
      <trkpt lat="44.52362" lon="4.63197">
        <ele>253.87109375</ele>
      </trkpt>
      <trkpt lat="44.52356" lon="4.63201">
        <ele>253.453125</ele>
      </trkpt>
      <trkpt lat="44.52351" lon="4.63205">
        <ele>253.23828125</ele>
      </trkpt>
      <trkpt lat="44.52345" lon="4.63207">
        <ele>253.328125</ele>
      </trkpt>
      <trkpt lat="44.52329" lon="4.63209">
        <ele>253.421875</ele>
      </trkpt>
      <trkpt lat="44.52322" lon="4.63209">
        <ele>253.1171875</ele>
      </trkpt>
      <trkpt lat="44.52302" lon="4.63207">
        <ele>252.59375</ele>
      </trkpt>
      <trkpt lat="44.52252" lon="4.63197">
        <ele>248.30078125</ele>
      </trkpt>
      <trkpt lat="44.52231" lon="4.63191">
        <ele>244.9765625</ele>
      </trkpt>
      <trkpt lat="44.52225" lon="4.63189">
        <ele>243.44921875</ele>
      </trkpt>
      <trkpt lat="44.52197" lon="4.63172">
        <ele>239.59375</ele>
      </trkpt>
      <trkpt lat="44.52159" lon="4.63148">
        <ele>235.58203125</ele>
      </trkpt>
      <trkpt lat="44.52131" lon="4.6313">
        <ele>228.7109375</ele>
      </trkpt>
      <trkpt lat="44.52121" lon="4.63121">
        <ele>225.2578125</ele>
      </trkpt>
      <trkpt lat="44.52115" lon="4.63113">
        <ele>223.58984375</ele>
      </trkpt>
      <trkpt lat="44.52113" lon="4.63108">
        <ele>223.50390625</ele>
      </trkpt>
      <trkpt lat="44.52112" lon="4.63103">
        <ele>223.6796875</ele>
      </trkpt>
      <trkpt lat="44.52111" lon="4.63097">
        <ele>224.4453125</ele>
      </trkpt>
      <trkpt lat="44.5211" lon="4.6308">
        <ele>225.453125</ele>
      </trkpt>
      <trkpt lat="44.5211" lon="4.63072">
        <ele>225.9296875</ele>
      </trkpt>
      <trkpt lat="44.52109" lon="4.63064">
        <ele>226.3984375</ele>
      </trkpt>
      <trkpt lat="44.52108" lon="4.63058">
        <ele>226.4140625</ele>
      </trkpt>
      <trkpt lat="44.52103" lon="4.63034">
        <ele>226.38671875</ele>
      </trkpt>
      <trkpt lat="44.521" lon="4.63025">
        <ele>226.08203125</ele>
      </trkpt>
      <trkpt lat="44.5208" lon="4.62951">
        <ele>230.51953125</ele>
      </trkpt>
      <trkpt lat="44.52076" lon="4.62934">
        <ele>232.765625</ele>
      </trkpt>
      <trkpt lat="44.52075" lon="4.62929">
        <ele>233.56640625</ele>
      </trkpt>
      <trkpt lat="44.52075" lon="4.62923">
        <ele>234.59375</ele>
      </trkpt>
      <trkpt lat="44.52075" lon="4.62911">
        <ele>236.94140625</ele>
      </trkpt>
      <trkpt lat="44.52075" lon="4.62906">
        <ele>237.7421875</ele>
      </trkpt>
      <trkpt lat="44.52071" lon="4.629">
        <ele>238.36328125</ele>
      </trkpt>
      <trkpt lat="44.52068" lon="4.62899">
        <ele>238.25</ele>
      </trkpt>
      <trkpt lat="44.52065" lon="4.629">
        <ele>237.58203125</ele>
      </trkpt>
      <trkpt lat="44.52059" lon="4.6291">
        <ele>234.91015625</ele>
      </trkpt>
      <trkpt lat="44.52052" lon="4.62924">
        <ele>230.9140625</ele>
      </trkpt>
      <trkpt lat="44.52047" lon="4.62932">
        <ele>228.8515625</ele>
      </trkpt>
      <trkpt lat="44.52039" lon="4.62939">
        <ele>226.9453125</ele>
      </trkpt>
      <trkpt lat="44.52035" lon="4.62949">
        <ele>224.40234375</ele>
      </trkpt>
      <trkpt lat="44.52021" lon="4.62981">
        <ele>216.10546875</ele>
      </trkpt>
      <trkpt lat="44.52012" lon="4.63">
        <ele>211.546875</ele>
      </trkpt>
      <trkpt lat="44.52004" lon="4.63016">
        <ele>207.88671875</ele>
      </trkpt>
      <trkpt lat="44.51996" lon="4.63029">
        <ele>205.1796875</ele>
      </trkpt>
      <trkpt lat="44.51988" lon="4.63038">
        <ele>203.453125</ele>
      </trkpt>
      <trkpt lat="44.5198" lon="4.63044">
        <ele>202.41015625</ele>
      </trkpt>
      <trkpt lat="44.51972" lon="4.63046">
        <ele>202.31640625</ele>
      </trkpt>
      <trkpt lat="44.51966" lon="4.63046">
        <ele>202.74609375</ele>
      </trkpt>
      <trkpt lat="44.51957" lon="4.63043">
        <ele>202.359375</ele>
      </trkpt>
      <trkpt lat="44.51947" lon="4.63036">
        <ele>201.77734375</ele>
      </trkpt>
      <trkpt lat="44.51932" lon="4.63024">
        <ele>201.0390625</ele>
      </trkpt>
      <trkpt lat="44.51909" lon="4.63001">
        <ele>199.38671875</ele>
      </trkpt>
      <trkpt lat="44.51868" lon="4.62959">
        <ele>192.98046875</ele>
      </trkpt>
      <trkpt lat="44.51859" lon="4.62949">
        <ele>190.65625</ele>
      </trkpt>
      <trkpt lat="44.51855" lon="4.62942">
        <ele>190.18359375</ele>
      </trkpt>
      <trkpt lat="44.51853" lon="4.62932">
        <ele>190.6640625</ele>
      </trkpt>
      <trkpt lat="44.51854" lon="4.62918">
        <ele>192.73046875</ele>
      </trkpt>
      <trkpt lat="44.51859" lon="4.62887">
        <ele>197.96875</ele>
      </trkpt>
      <trkpt lat="44.51859" lon="4.6288">
        <ele>198.7421875</ele>
      </trkpt>
      <trkpt lat="44.51855" lon="4.62874">
        <ele>198.41796875</ele>
      </trkpt>
      <trkpt lat="44.51852" lon="4.62869">
        <ele>197.84375</ele>
      </trkpt>
      <trkpt lat="44.5184" lon="4.62863">
        <ele>195.1875</ele>
      </trkpt>
      <trkpt lat="44.51829" lon="4.62861">
        <ele>192.375</ele>
      </trkpt>
      <trkpt lat="44.51819" lon="4.62861">
        <ele>189.80859375</ele>
      </trkpt>
      <trkpt lat="44.51809" lon="4.6286">
        <ele>187.30078125</ele>
      </trkpt>
      <trkpt lat="44.51801" lon="4.6286">
        <ele>185.24609375</ele>
      </trkpt>
      <trkpt lat="44.51795" lon="4.6286">
        <ele>183.69921875</ele>
      </trkpt>
      <trkpt lat="44.51792" lon="4.62857">
        <ele>183.36328125</ele>
      </trkpt>
      <trkpt lat="44.51787" lon="4.62853">
        <ele>182.91796875</ele>
      </trkpt>
      <trkpt lat="44.51782" lon="4.62841">
        <ele>183.89453125</ele>
      </trkpt>
      <trkpt lat="44.5177" lon="4.62824">
        <ele>183.58203125</ele>
      </trkpt>
      <trkpt lat="44.5176" lon="4.62819">
        <ele>181.2109375</ele>
      </trkpt>
      <trkpt lat="44.51749" lon="4.62818">
        <ele>177.890625</ele>
      </trkpt>
      <trkpt lat="44.51737" lon="4.62818">
        <ele>174.41015625</ele>
      </trkpt>
      <trkpt lat="44.5173" lon="4.62817">
        <ele>172.26171875</ele>
      </trkpt>
      <trkpt lat="44.5172" lon="4.62812">
        <ele>169.671875</ele>
      </trkpt>
      <trkpt lat="44.51708" lon="4.62804">
        <ele>166.6796875</ele>
      </trkpt>
      <trkpt lat="44.51692" lon="4.62793">
        <ele>163.390625</ele>
      </trkpt>
      <trkpt lat="44.51679" lon="4.62778">
        <ele>161.29296875</ele>
      </trkpt>
      <trkpt lat="44.51672" lon="4.6277">
        <ele>159</ele>
      </trkpt>
      <trkpt lat="44.51664" lon="4.6276">
        <ele>155.421875</ele>
      </trkpt>
      <trkpt lat="44.51659" lon="4.62753">
        <ele>152.99609375</ele>
      </trkpt>
      <trkpt lat="44.51655" lon="4.62746">
        <ele>151.2265625</ele>
      </trkpt>
      <trkpt lat="44.51653" lon="4.6274">
        <ele>150.40234375</ele>
      </trkpt>
      <trkpt lat="44.51654" lon="4.62735">
        <ele>150.51171875</ele>
      </trkpt>
      <trkpt lat="44.51654" lon="4.62731">
        <ele>150.6640625</ele>
      </trkpt>
      <trkpt lat="44.51656" lon="4.62725">
        <ele>151.08203125</ele>
      </trkpt>
      <trkpt lat="44.5166" lon="4.62717">
        <ele>150.84375</ele>
      </trkpt>
      <trkpt lat="44.51667" lon="4.62703">
        <ele>150.5</ele>
      </trkpt>
      <trkpt lat="44.51677" lon="4.62688">
        <ele>150.35546875</ele>
      </trkpt>
      <trkpt lat="44.51691" lon="4.6267">
        <ele>149.15625</ele>
      </trkpt>
      <trkpt lat="44.51714" lon="4.62638">
        <ele>145.9765625</ele>
      </trkpt>
      <trkpt lat="44.51737" lon="4.62599">
        <ele>142.21875</ele>
      </trkpt>
      <trkpt lat="44.51752" lon="4.62576">
        <ele>141.71484375</ele>
      </trkpt>
      <trkpt lat="44.51764" lon="4.6256">
        <ele>141.35546875</ele>
      </trkpt>
      <trkpt lat="44.51767" lon="4.6255">
        <ele>139.3046875</ele>
      </trkpt>
      <trkpt lat="44.51767" lon="4.62539">
        <ele>136.828125</ele>
      </trkpt>
      <trkpt lat="44.51766" lon="4.62531">
        <ele>135.6328125</ele>
      </trkpt>
      <trkpt lat="44.51766" lon="4.62531">
        <ele>135.6328125</ele>
      </trkpt>
      <trkpt lat="44.51766" lon="4.62531">
        <ele>135.6328125</ele>
      </trkpt>
      <trkpt lat="44.51757" lon="4.62545">
        <ele>135.89453125</ele>
      </trkpt>
      <trkpt lat="44.51751" lon="4.62552">
        <ele>136.19921875</ele>
      </trkpt>
      <trkpt lat="44.51744" lon="4.62559">
        <ele>136.03515625</ele>
      </trkpt>
      <trkpt lat="44.51737" lon="4.62567">
        <ele>135.71484375</ele>
      </trkpt>
      <trkpt lat="44.51729" lon="4.62576">
        <ele>135.03515625</ele>
      </trkpt>
      <trkpt lat="44.51718" lon="4.62589">
        <ele>135.33984375</ele>
      </trkpt>
      <trkpt lat="44.51706" lon="4.62602">
        <ele>136.00390625</ele>
      </trkpt>
      <trkpt lat="44.51694" lon="4.62612">
        <ele>135.3125</ele>
      </trkpt>
      <trkpt lat="44.51686" lon="4.6262">
        <ele>134.4453125</ele>
      </trkpt>
      <trkpt lat="44.51678" lon="4.62627">
        <ele>134.30859375</ele>
      </trkpt>
      <trkpt lat="44.51669" lon="4.62633">
        <ele>133.9140625</ele>
      </trkpt>
      <trkpt lat="44.51661" lon="4.62637">
        <ele>133.7265625</ele>
      </trkpt>
      <trkpt lat="44.51651" lon="4.62642">
        <ele>133.390625</ele>
      </trkpt>
      <trkpt lat="44.51635" lon="4.62647">
        <ele>132.4453125</ele>
      </trkpt>
      <trkpt lat="44.51624" lon="4.62652">
        <ele>132.26171875</ele>
      </trkpt>
      <trkpt lat="44.51603" lon="4.6266">
        <ele>131.21484375</ele>
      </trkpt>
      <trkpt lat="44.51591" lon="4.62667">
        <ele>130.671875</ele>
      </trkpt>
      <trkpt lat="44.51585" lon="4.6267">
        <ele>130.66796875</ele>
      </trkpt>
      <trkpt lat="44.51575" lon="4.62676">
        <ele>130.671875</ele>
      </trkpt>
      <trkpt lat="44.51547" lon="4.62691">
        <ele>129.78125</ele>
      </trkpt>
      <trkpt lat="44.51536" lon="4.62697">
        <ele>129.71875</ele>
      </trkpt>
      <trkpt lat="44.51539" lon="4.62706">
        <ele>129.7890625</ele>
      </trkpt>
      <trkpt lat="44.51533" lon="4.62706">
        <ele>129.19999694824</ele>
        <time>2019-08-19T15:50:40Z</time>
      </trkpt>
      <trkpt lat="44.51531" lon="4.62707">
        <ele>129.39999389648</ele>
        <time>2019-08-19T15:50:41Z</time>
      </trkpt>
      <trkpt lat="44.51528" lon="4.62709">
        <ele>129.39999389648</ele>
        <time>2019-08-19T15:50:42Z</time>
      </trkpt>
      <trkpt lat="44.51526" lon="4.62712">
        <ele>129.39999389648</ele>
        <time>2019-08-19T15:50:43Z</time>
      </trkpt>
      <trkpt lat="44.51526" lon="4.62717">
        <ele>129.19999694824</ele>
        <time>2019-08-19T15:50:44Z</time>
      </trkpt>
      <trkpt lat="44.51527" lon="4.62726">
        <ele>129.39999389648</ele>
        <time>2019-08-19T15:50:46Z</time>
      </trkpt>
      <trkpt lat="44.51528" lon="4.62736">
        <ele>129.39999389648</ele>
        <time>2019-08-19T15:50:48Z</time>
      </trkpt>
      <trkpt lat="44.51529" lon="4.62747">
        <ele>129.39999389648</ele>
        <time>2019-08-19T15:50:50Z</time>
      </trkpt>
      <trkpt lat="44.5153" lon="4.62752">
        <ele>129.39999389648</ele>
        <time>2019-08-19T15:50:51Z</time>
      </trkpt>
      <trkpt lat="44.5153" lon="4.62756">
        <ele>129.39999389648</ele>
        <time>2019-08-19T15:50:52Z</time>
      </trkpt>
      <trkpt lat="44.51531" lon="4.62761">
        <ele>129.60000610352</ele>
        <time>2019-08-19T15:50:53Z</time>
      </trkpt>
      <trkpt lat="44.51531" lon="4.62765">
        <ele>129.80000305176</ele>
        <time>2019-08-19T15:50:54Z</time>
      </trkpt>
      <trkpt lat="44.51532" lon="4.6277">
        <ele>130</ele>
        <time>2019-08-19T15:50:55Z</time>
      </trkpt>
      <trkpt lat="44.51534" lon="4.62774">
        <ele>130</ele>
        <time>2019-08-19T15:50:56Z</time>
      </trkpt>
      <trkpt lat="44.51537" lon="4.62782">
        <ele>130</ele>
        <time>2019-08-19T15:50:58Z</time>
      </trkpt>
      <trkpt lat="44.5154" lon="4.62789">
        <ele>130.60000610352</ele>
        <time>2019-08-19T15:51:00Z</time>
      </trkpt>
      <trkpt lat="44.51542" lon="4.62793">
        <ele>130.80000305176</ele>
        <time>2019-08-19T15:51:01Z</time>
      </trkpt>
      <trkpt lat="44.51544" lon="4.62796">
        <ele>131.60000610352</ele>
        <time>2019-08-19T15:51:02Z</time>
      </trkpt>
      <trkpt lat="44.51548" lon="4.62803">
        <ele>132.19999694824</ele>
        <time>2019-08-19T15:51:04Z</time>
      </trkpt>
      <trkpt lat="44.51551" lon="4.62806">
        <ele>132.39999389648</ele>
        <time>2019-08-19T15:51:05Z</time>
      </trkpt>
      <trkpt lat="44.51553" lon="4.62809">
        <ele>132.60000610352</ele>
        <time>2019-08-19T15:51:06Z</time>
      </trkpt>
      <trkpt lat="44.51557" lon="4.62816">
        <ele>133</ele>
        <time>2019-08-19T15:51:08Z</time>
      </trkpt>
      <trkpt lat="44.51562" lon="4.62824">
        <ele>133.60000610352</ele>
        <time>2019-08-19T15:51:10Z</time>
      </trkpt>
      <trkpt lat="44.51565" lon="4.62827">
        <ele>133.80000305176</ele>
        <time>2019-08-19T15:51:11Z</time>
      </trkpt>
      <trkpt lat="44.51568" lon="4.62831">
        <ele>134</ele>
        <time>2019-08-19T15:51:12Z</time>
      </trkpt>
      <trkpt lat="44.51574" lon="4.62837">
        <ele>134.19999694824</ele>
        <time>2019-08-19T15:51:14Z</time>
      </trkpt>
      <trkpt lat="44.51579" lon="4.62842">
        <ele>134.39999389648</ele>
        <time>2019-08-19T15:51:16Z</time>
      </trkpt>
      <trkpt lat="44.51582" lon="4.62845">
        <ele>134.39999389648</ele>
        <time>2019-08-19T15:51:17Z</time>
      </trkpt>
      <trkpt lat="44.51585" lon="4.62848">
        <ele>134.60000610352</ele>
        <time>2019-08-19T15:51:18Z</time>
      </trkpt>
      <trkpt lat="44.51592" lon="4.62853">
        <ele>134.39999389648</ele>
        <time>2019-08-19T15:51:20Z</time>
      </trkpt>
      <trkpt lat="44.51599" lon="4.62859">
        <ele>134.60000610352</ele>
        <time>2019-08-19T15:51:22Z</time>
      </trkpt>
      <trkpt lat="44.51602" lon="4.62862">
        <ele>134.39999389648</ele>
        <time>2019-08-19T15:51:23Z</time>
      </trkpt>
      <trkpt lat="44.51606" lon="4.62865">
        <ele>134.60000610352</ele>
        <time>2019-08-19T15:51:24Z</time>
      </trkpt>
      <trkpt lat="44.51612" lon="4.62871">
        <ele>134.39999389648</ele>
        <time>2019-08-19T15:51:26Z</time>
      </trkpt>
      <trkpt lat="44.51618" lon="4.62877">
        <ele>134.39999389648</ele>
        <time>2019-08-19T15:51:28Z</time>
      </trkpt>
      <trkpt lat="44.51625" lon="4.62883">
        <ele>134.39999389648</ele>
        <time>2019-08-19T15:51:30Z</time>
      </trkpt>
      <trkpt lat="44.51629" lon="4.62886">
        <ele>134.39999389648</ele>
        <time>2019-08-19T15:51:31Z</time>
      </trkpt>
      <trkpt lat="44.51632" lon="4.62889">
        <ele>134.60000610352</ele>
        <time>2019-08-19T15:51:32Z</time>
      </trkpt>
      <trkpt lat="44.51639" lon="4.62895">
        <ele>134.39999389648</ele>
        <time>2019-08-19T15:51:34Z</time>
      </trkpt>
      <trkpt lat="44.51646" lon="4.62902">
        <ele>134.60000610352</ele>
        <time>2019-08-19T15:51:36Z</time>
      </trkpt>
      <trkpt lat="44.51653" lon="4.62909">
        <ele>134.60000610352</ele>
        <time>2019-08-19T15:51:38Z</time>
      </trkpt>
      <trkpt lat="44.51661" lon="4.62916">
        <ele>134.39999389648</ele>
        <time>2019-08-19T15:51:40Z</time>
      </trkpt>
      <trkpt lat="44.51667" lon="4.62923">
        <ele>134.60000610352</ele>
        <time>2019-08-19T15:51:42Z</time>
      </trkpt>
      <trkpt lat="44.5167" lon="4.62926">
        <ele>134.39999389648</ele>
        <time>2019-08-19T15:51:43Z</time>
      </trkpt>
      <trkpt lat="44.51673" lon="4.6293">
        <ele>134.39999389648</ele>
        <time>2019-08-19T15:51:44Z</time>
      </trkpt>
      <trkpt lat="44.51675" lon="4.62935">
        <ele>134.39999389648</ele>
        <time>2019-08-19T15:51:45Z</time>
      </trkpt>
      <trkpt lat="44.51677" lon="4.62939">
        <ele>134.39999389648</ele>
        <time>2019-08-19T15:51:46Z</time>
      </trkpt>
      <trkpt lat="44.51682" lon="4.62948">
        <ele>134.19999694824</ele>
        <time>2019-08-19T15:51:48Z</time>
      </trkpt>
      <trkpt lat="44.51687" lon="4.62957">
        <ele>134.19999694824</ele>
        <time>2019-08-19T15:51:50Z</time>
      </trkpt>
      <trkpt lat="44.51691" lon="4.62965">
        <ele>134.19999694824</ele>
        <time>2019-08-19T15:51:52Z</time>
      </trkpt>
      <trkpt lat="44.51695" lon="4.62972">
        <ele>134.19999694824</ele>
        <time>2019-08-19T15:51:54Z</time>
      </trkpt>
      <trkpt lat="44.51699" lon="4.6298">
        <ele>134.19999694824</ele>
        <time>2019-08-19T15:51:56Z</time>
      </trkpt>
      <trkpt lat="44.51703" lon="4.62988">
        <ele>134.19999694824</ele>
        <time>2019-08-19T15:51:58Z</time>
      </trkpt>
      <trkpt lat="44.51704" lon="4.62991">
        <ele>134.39999389648</ele>
        <time>2019-08-19T15:51:59Z</time>
      </trkpt>
      <trkpt lat="44.51706" lon="4.62995">
        <ele>134.60000610352</ele>
        <time>2019-08-19T15:52:00Z</time>
      </trkpt>
      <trkpt lat="44.5171" lon="4.63002">
        <ele>135</ele>
        <time>2019-08-19T15:52:02Z</time>
      </trkpt>
      <trkpt lat="44.51714" lon="4.63008">
        <ele>135.39999389648</ele>
        <time>2019-08-19T15:52:04Z</time>
      </trkpt>
      <trkpt lat="44.51717" lon="4.6301">
        <ele>135.39999389648</ele>
        <time>2019-08-19T15:52:05Z</time>
      </trkpt>
      <trkpt lat="44.51719" lon="4.63013">
        <ele>135.39999389648</ele>
        <time>2019-08-19T15:52:06Z</time>
      </trkpt>
      <trkpt lat="44.51724" lon="4.63018">
        <ele>135.60000610352</ele>
        <time>2019-08-19T15:52:08Z</time>
      </trkpt>
      <trkpt lat="44.5173" lon="4.63023">
        <ele>135.80000305176</ele>
        <time>2019-08-19T15:52:10Z</time>
      </trkpt>
      <trkpt lat="44.51736" lon="4.63027">
        <ele>136</ele>
        <time>2019-08-19T15:52:12Z</time>
      </trkpt>
      <trkpt lat="44.51739" lon="4.63029">
        <ele>136</ele>
        <time>2019-08-19T15:52:13Z</time>
      </trkpt>
      <trkpt lat="44.51742" lon="4.63031">
        <ele>136.19999694824</ele>
        <time>2019-08-19T15:52:14Z</time>
      </trkpt>
      <trkpt lat="44.51745" lon="4.63033">
        <ele>136.19999694824</ele>
        <time>2019-08-19T15:52:15Z</time>
      </trkpt>
      <trkpt lat="44.51748" lon="4.63036">
        <ele>136.39999389648</ele>
        <time>2019-08-19T15:52:16Z</time>
      </trkpt>
      <trkpt lat="44.51753" lon="4.63041">
        <ele>136.60000610352</ele>
        <time>2019-08-19T15:52:18Z</time>
      </trkpt>
      <trkpt lat="44.51756" lon="4.63044">
        <ele>136.80000305176</ele>
        <time>2019-08-19T15:52:19Z</time>
      </trkpt>
      <trkpt lat="44.51758" lon="4.63047">
        <ele>136.80000305176</ele>
        <time>2019-08-19T15:52:20Z</time>
      </trkpt>
      <trkpt lat="44.51761" lon="4.6305">
        <ele>136.80000305176</ele>
        <time>2019-08-19T15:52:21Z</time>
      </trkpt>
      <trkpt lat="44.51763" lon="4.63054">
        <ele>137</ele>
        <time>2019-08-19T15:52:22Z</time>
      </trkpt>
      <trkpt lat="44.51768" lon="4.63061">
        <ele>136.80000305176</ele>
        <time>2019-08-19T15:52:24Z</time>
      </trkpt>
      <trkpt lat="44.51772" lon="4.63068">
        <ele>137</ele>
        <time>2019-08-19T15:52:26Z</time>
      </trkpt>
      <trkpt lat="44.51777" lon="4.63075">
        <ele>137</ele>
        <time>2019-08-19T15:52:28Z</time>
      </trkpt>
      <trkpt lat="44.51779" lon="4.63079">
        <ele>137.19999694824</ele>
        <time>2019-08-19T15:52:29Z</time>
      </trkpt>
      <trkpt lat="44.51781" lon="4.63083">
        <ele>137.19999694824</ele>
        <time>2019-08-19T15:52:30Z</time>
      </trkpt>
      <trkpt lat="44.51785" lon="4.63089">
        <ele>137.39999389648</ele>
        <time>2019-08-19T15:52:32Z</time>
      </trkpt>
      <trkpt lat="44.51789" lon="4.63096">
        <ele>137.39999389648</ele>
        <time>2019-08-19T15:52:34Z</time>
      </trkpt>
      <trkpt lat="44.51793" lon="4.63102">
        <ele>137.39999389648</ele>
        <time>2019-08-19T15:52:36Z</time>
      </trkpt>
      <trkpt lat="44.51797" lon="4.63108">
        <ele>137.39999389648</ele>
        <time>2019-08-19T15:52:38Z</time>
      </trkpt>
      <trkpt lat="44.51802" lon="4.63113">
        <ele>137.60000610352</ele>
        <time>2019-08-19T15:52:40Z</time>
      </trkpt>
      <trkpt lat="44.51805" lon="4.63115">
        <ele>137.60000610352</ele>
        <time>2019-08-19T15:52:41Z</time>
      </trkpt>
      <trkpt lat="44.51808" lon="4.63117">
        <ele>137.60000610352</ele>
        <time>2019-08-19T15:52:42Z</time>
      </trkpt>
      <trkpt lat="44.51812" lon="4.63123">
        <ele>137.60000610352</ele>
        <time>2019-08-19T15:52:44Z</time>
      </trkpt>
      <trkpt lat="44.51817" lon="4.6313">
        <ele>138</ele>
        <time>2019-08-19T15:52:46Z</time>
      </trkpt>
      <trkpt lat="44.51821" lon="4.63138">
        <ele>138</ele>
        <time>2019-08-19T15:52:48Z</time>
      </trkpt>
      <trkpt lat="44.51826" lon="4.63146">
        <ele>138.19999694824</ele>
        <time>2019-08-19T15:52:50Z</time>
      </trkpt>
      <trkpt lat="44.51832" lon="4.63154">
        <ele>138.19999694824</ele>
        <time>2019-08-19T15:52:52Z</time>
      </trkpt>
      <trkpt lat="44.51835" lon="4.63158">
        <ele>138</ele>
        <time>2019-08-19T15:52:53Z</time>
      </trkpt>
      <trkpt lat="44.51837" lon="4.63161">
        <ele>138.19999694824</ele>
        <time>2019-08-19T15:52:54Z</time>
      </trkpt>
      <trkpt lat="44.5184" lon="4.63165">
        <ele>138.19999694824</ele>
        <time>2019-08-19T15:52:55Z</time>
      </trkpt>
      <trkpt lat="44.51843" lon="4.63168">
        <ele>138.19999694824</ele>
        <time>2019-08-19T15:52:56Z</time>
      </trkpt>
      <trkpt lat="44.51847" lon="4.63176">
        <ele>138</ele>
        <time>2019-08-19T15:52:58Z</time>
      </trkpt>
      <trkpt lat="44.51852" lon="4.63182">
        <ele>138.19999694824</ele>
        <time>2019-08-19T15:53:00Z</time>
      </trkpt>
      <trkpt lat="44.51856" lon="4.63189">
        <ele>138.19999694824</ele>
        <time>2019-08-19T15:53:02Z</time>
      </trkpt>
      <trkpt lat="44.51859" lon="4.63193">
        <ele>138.19999694824</ele>
        <time>2019-08-19T15:53:03Z</time>
      </trkpt>
      <trkpt lat="44.51861" lon="4.63196">
        <ele>138.39999389648</ele>
        <time>2019-08-19T15:53:04Z</time>
      </trkpt>
      <trkpt lat="44.51865" lon="4.63202">
        <ele>138.60000610352</ele>
        <time>2019-08-19T15:53:06Z</time>
      </trkpt>
      <trkpt lat="44.5187" lon="4.63208">
        <ele>138.80000305176</ele>
        <time>2019-08-19T15:53:08Z</time>
      </trkpt>
      <trkpt lat="44.51875" lon="4.63213">
        <ele>139.39999389648</ele>
        <time>2019-08-19T15:53:10Z</time>
      </trkpt>
      <trkpt lat="44.51877" lon="4.63216">
        <ele>139.60000610352</ele>
        <time>2019-08-19T15:53:11Z</time>
      </trkpt>
      <trkpt lat="44.5188" lon="4.63218">
        <ele>139.60000610352</ele>
        <time>2019-08-19T15:53:12Z</time>
      </trkpt>
      <trkpt lat="44.51885" lon="4.63224">
        <ele>140</ele>
        <time>2019-08-19T15:53:14Z</time>
      </trkpt>
      <trkpt lat="44.51891" lon="4.63229">
        <ele>140.39999389648</ele>
        <time>2019-08-19T15:53:16Z</time>
      </trkpt>
      <trkpt lat="44.51897" lon="4.63234">
        <ele>140.80000305176</ele>
        <time>2019-08-19T15:53:18Z</time>
      </trkpt>
      <trkpt lat="44.51903" lon="4.63241">
        <ele>141</ele>
        <time>2019-08-19T15:53:20Z</time>
      </trkpt>
      <trkpt lat="44.51909" lon="4.63246">
        <ele>141.19999694824</ele>
        <time>2019-08-19T15:53:22Z</time>
      </trkpt>
      <trkpt lat="44.51915" lon="4.63251">
        <ele>141.39999389648</ele>
        <time>2019-08-19T15:53:24Z</time>
      </trkpt>
      <trkpt lat="44.51922" lon="4.63256">
        <ele>141.60000610352</ele>
        <time>2019-08-19T15:53:26Z</time>
      </trkpt>
      <trkpt lat="44.51925" lon="4.63257">
        <ele>141.80000305176</ele>
        <time>2019-08-19T15:53:27Z</time>
      </trkpt>
      <trkpt lat="44.51928" lon="4.63259">
        <ele>142</ele>
        <time>2019-08-19T15:53:28Z</time>
      </trkpt>
      <trkpt lat="44.51935" lon="4.63263">
        <ele>141.80000305176</ele>
        <time>2019-08-19T15:53:30Z</time>
      </trkpt>
      <trkpt lat="44.51939" lon="4.63264">
        <ele>141.80000305176</ele>
        <time>2019-08-19T15:53:31Z</time>
      </trkpt>
      <trkpt lat="44.51943" lon="4.63266">
        <ele>141.80000305176</ele>
        <time>2019-08-19T15:53:32Z</time>
      </trkpt>
      <trkpt lat="44.51947" lon="4.63268">
        <ele>142</ele>
        <time>2019-08-19T15:53:33Z</time>
      </trkpt>
      <trkpt lat="44.51951" lon="4.6327">
        <ele>142</ele>
        <time>2019-08-19T15:53:34Z</time>
      </trkpt>
      <trkpt lat="44.5196" lon="4.63273">
        <ele>142</ele>
        <time>2019-08-19T15:53:36Z</time>
      </trkpt>
      <trkpt lat="44.5197" lon="4.63277">
        <ele>142.19999694824</ele>
        <time>2019-08-19T15:53:38Z</time>
      </trkpt>
      <trkpt lat="44.51979" lon="4.63281">
        <ele>142</ele>
        <time>2019-08-19T15:53:40Z</time>
      </trkpt>
      <trkpt lat="44.51984" lon="4.63284">
        <ele>142</ele>
        <time>2019-08-19T15:53:41Z</time>
      </trkpt>
      <trkpt lat="44.51988" lon="4.63287">
        <ele>141.60000610352</ele>
        <time>2019-08-19T15:53:42Z</time>
      </trkpt>
      <trkpt lat="44.51997" lon="4.63293">
        <ele>141.60000610352</ele>
        <time>2019-08-19T15:53:44Z</time>
      </trkpt>
      <trkpt lat="44.52004" lon="4.63301">
        <ele>141.19999694824</ele>
        <time>2019-08-19T15:53:46Z</time>
      </trkpt>
      <trkpt lat="44.52008" lon="4.63304">
        <ele>141.19999694824</ele>
        <time>2019-08-19T15:53:47Z</time>
      </trkpt>
      <trkpt lat="44.52012" lon="4.63308">
        <ele>141.19999694824</ele>
        <time>2019-08-19T15:53:48Z</time>
      </trkpt>
      <trkpt lat="44.52019" lon="4.63314">
        <ele>141</ele>
        <time>2019-08-19T15:53:50Z</time>
      </trkpt>
      <trkpt lat="44.52027" lon="4.6332">
        <ele>140.80000305176</ele>
        <time>2019-08-19T15:53:52Z</time>
      </trkpt>
      <trkpt lat="44.52035" lon="4.63325">
        <ele>141</ele>
        <time>2019-08-19T15:53:54Z</time>
      </trkpt>
      <trkpt lat="44.52039" lon="4.63327">
        <ele>141</ele>
        <time>2019-08-19T15:53:55Z</time>
      </trkpt>
      <trkpt lat="44.52043" lon="4.6333">
        <ele>141</ele>
        <time>2019-08-19T15:53:56Z</time>
      </trkpt>
      <trkpt lat="44.5205" lon="4.63333">
        <ele>141.39999389648</ele>
        <time>2019-08-19T15:53:58Z</time>
      </trkpt>
      <trkpt lat="44.52052" lon="4.63334">
        <ele>141.60000610352</ele>
        <time>2019-08-19T15:53:59Z</time>
      </trkpt>
      <trkpt lat="44.52053" lon="4.63335">
        <ele>141.80000305176</ele>
        <time>2019-08-19T15:54:00Z</time>
      </trkpt>
      <trkpt lat="44.52055" lon="4.63335">
        <ele>142.19999694824</ele>
        <time>2019-08-19T15:54:02Z</time>
      </trkpt>
      <trkpt lat="44.52055" lon="4.63336">
        <ele>142.19999694824</ele>
        <time>2019-08-19T15:54:03Z</time>
      </trkpt>
      <trkpt lat="44.52056" lon="4.63337">
        <ele>142.39999389648</ele>
        <time>2019-08-19T15:54:04Z</time>
      </trkpt>
      <trkpt lat="44.52057" lon="4.6334">
        <ele>143</ele>
        <time>2019-08-19T15:54:06Z</time>
      </trkpt>
      <trkpt lat="44.52059" lon="4.63344">
        <ele>143.19999694824</ele>
        <time>2019-08-19T15:54:08Z</time>
      </trkpt>
      <trkpt lat="44.5206" lon="4.63346">
        <ele>143.39999389648</ele>
        <time>2019-08-19T15:54:09Z</time>
      </trkpt>
      <trkpt lat="44.52062" lon="4.63348">
        <ele>143.39999389648</ele>
        <time>2019-08-19T15:54:10Z</time>
      </trkpt>
      <trkpt lat="44.52066" lon="4.63351">
        <ele>143.60000610352</ele>
        <time>2019-08-19T15:54:12Z</time>
      </trkpt>
      <trkpt lat="44.52069" lon="4.63354">
        <ele>143.60000610352</ele>
        <time>2019-08-19T15:54:14Z</time>
      </trkpt>
      <trkpt lat="44.5207" lon="4.63355">
        <ele>143.80000305176</ele>
        <time>2019-08-19T15:54:15Z</time>
      </trkpt>
      <trkpt lat="44.52072" lon="4.63357">
        <ele>144.19999694824</ele>
        <time>2019-08-19T15:54:16Z</time>
      </trkpt>
      <trkpt lat="44.52075" lon="4.63362">
        <ele>144.60000610352</ele>
        <time>2019-08-19T15:54:18Z</time>
      </trkpt>
      <trkpt lat="44.52076" lon="4.63364">
        <ele>144.60000610352</ele>
        <time>2019-08-19T15:54:19Z</time>
      </trkpt>
      <trkpt lat="44.52078" lon="4.63366">
        <ele>144.80000305176</ele>
        <time>2019-08-19T15:54:20Z</time>
      </trkpt>
      <trkpt lat="44.52081" lon="4.63369">
        <ele>145.19999694824</ele>
        <time>2019-08-19T15:54:22Z</time>
      </trkpt>
      <trkpt lat="44.52083" lon="4.63371">
        <ele>145.19999694824</ele>
        <time>2019-08-19T15:54:23Z</time>
      </trkpt>
      <trkpt lat="44.52084" lon="4.63373">
        <ele>145.60000610352</ele>
        <time>2019-08-19T15:54:24Z</time>
      </trkpt>
      <trkpt lat="44.52087" lon="4.63377">
        <ele>146.19999694824</ele>
        <time>2019-08-19T15:54:26Z</time>
      </trkpt>
      <trkpt lat="44.52091" lon="4.63381">
        <ele>146.60000610352</ele>
        <time>2019-08-19T15:54:28Z</time>
      </trkpt>
      <trkpt lat="44.52094" lon="4.63385">
        <ele>147</ele>
        <time>2019-08-19T15:54:30Z</time>
      </trkpt>
      <trkpt lat="44.52097" lon="4.63388">
        <ele>147.80000305176</ele>
        <time>2019-08-19T15:54:32Z</time>
      </trkpt>
      <trkpt lat="44.52098" lon="4.6339">
        <ele>148</ele>
        <time>2019-08-19T15:54:33Z</time>
      </trkpt>
      <trkpt lat="44.521" lon="4.63392">
        <ele>148</ele>
        <time>2019-08-19T15:54:34Z</time>
      </trkpt>
      <trkpt lat="44.52102" lon="4.63393">
        <ele>148.19999694824</ele>
        <time>2019-08-19T15:54:35Z</time>
      </trkpt>
      <trkpt lat="44.52103" lon="4.63395">
        <ele>148.19999694824</ele>
        <time>2019-08-19T15:54:36Z</time>
      </trkpt>
      <trkpt lat="44.52105" lon="4.63397">
        <ele>148.39999389648</ele>
        <time>2019-08-19T15:54:37Z</time>
      </trkpt>
      <trkpt lat="44.52106" lon="4.63398">
        <ele>148.80000305176</ele>
        <time>2019-08-19T15:54:38Z</time>
      </trkpt>
      <trkpt lat="44.5211" lon="4.63401">
        <ele>149.39999389648</ele>
        <time>2019-08-19T15:54:40Z</time>
      </trkpt>
      <trkpt lat="44.52112" lon="4.63403">
        <ele>150</ele>
        <time>2019-08-19T15:54:42Z</time>
      </trkpt>
      <trkpt lat="44.52114" lon="4.63405">
        <ele>150.19999694824</ele>
        <time>2019-08-19T15:54:43Z</time>
      </trkpt>
      <trkpt lat="44.52115" lon="4.63406">
        <ele>150.19999694824</ele>
        <time>2019-08-19T15:54:44Z</time>
      </trkpt>
      <trkpt lat="44.52118" lon="4.63409">
        <ele>150.80000305176</ele>
        <time>2019-08-19T15:54:46Z</time>
      </trkpt>
      <trkpt lat="44.52121" lon="4.63411">
        <ele>151.39999389648</ele>
        <time>2019-08-19T15:54:48Z</time>
      </trkpt>
      <trkpt lat="44.52122" lon="4.63413">
        <ele>151.60000610352</ele>
        <time>2019-08-19T15:54:49Z</time>
      </trkpt>
      <trkpt lat="44.52123" lon="4.63414">
        <ele>151.80000305176</ele>
        <time>2019-08-19T15:54:50Z</time>
      </trkpt>
      <trkpt lat="44.52125" lon="4.63416">
        <ele>152</ele>
        <time>2019-08-19T15:54:51Z</time>
      </trkpt>
      <trkpt lat="44.52126" lon="4.63417">
        <ele>152.39999389648</ele>
        <time>2019-08-19T15:54:52Z</time>
      </trkpt>
      <trkpt lat="44.52128" lon="4.6342">
        <ele>152.80000305176</ele>
        <time>2019-08-19T15:54:54Z</time>
      </trkpt>
      <trkpt lat="44.52129" lon="4.63424">
        <ele>153.19999694824</ele>
        <time>2019-08-19T15:54:56Z</time>
      </trkpt>
      <trkpt lat="44.5213" lon="4.63426">
        <ele>153.19999694824</ele>
        <time>2019-08-19T15:54:57Z</time>
      </trkpt>
      <trkpt lat="44.52132" lon="4.63428">
        <ele>153.39999389648</ele>
        <time>2019-08-19T15:54:58Z</time>
      </trkpt>
      <trkpt lat="44.52134" lon="4.63432">
        <ele>153.80000305176</ele>
        <time>2019-08-19T15:55:00Z</time>
      </trkpt>
      <trkpt lat="44.52137" lon="4.63436">
        <ele>154.19999694824</ele>
        <time>2019-08-19T15:55:02Z</time>
      </trkpt>
      <trkpt lat="44.5214" lon="4.63439">
        <ele>154.60000610352</ele>
        <time>2019-08-19T15:55:04Z</time>
      </trkpt>
      <trkpt lat="44.52141" lon="4.63441">
        <ele>155</ele>
        <time>2019-08-19T15:55:05Z</time>
      </trkpt>
      <trkpt lat="44.52143" lon="4.63443">
        <ele>155.19999694824</ele>
        <time>2019-08-19T15:55:06Z</time>
      </trkpt>
      <trkpt lat="44.52144" lon="4.63445">
        <ele>155.19999694824</ele>
        <time>2019-08-19T15:55:07Z</time>
      </trkpt>
      <trkpt lat="44.52146" lon="4.63447">
        <ele>155.39999389648</ele>
        <time>2019-08-19T15:55:08Z</time>
      </trkpt>
      <trkpt lat="44.52149" lon="4.6345">
        <ele>155.80000305176</ele>
        <time>2019-08-19T15:55:10Z</time>
      </trkpt>
      <trkpt lat="44.5215" lon="4.63452">
        <ele>155.80000305176</ele>
        <time>2019-08-19T15:55:11Z</time>
      </trkpt>
      <trkpt lat="44.52152" lon="4.63454">
        <ele>155.80000305176</ele>
        <time>2019-08-19T15:55:12Z</time>
      </trkpt>
      <trkpt lat="44.52154" lon="4.63457">
        <ele>156.39999389648</ele>
        <time>2019-08-19T15:55:14Z</time>
      </trkpt>
      <trkpt lat="44.52157" lon="4.63461">
        <ele>157.19999694824</ele>
        <time>2019-08-19T15:55:16Z</time>
      </trkpt>
      <trkpt lat="44.5216" lon="4.63464">
        <ele>158</ele>
        <time>2019-08-19T15:55:18Z</time>
      </trkpt>
      <trkpt lat="44.52164" lon="4.63467">
        <ele>158.39999389648</ele>
        <time>2019-08-19T15:55:20Z</time>
      </trkpt>
      <trkpt lat="44.52167" lon="4.63471">
        <ele>159</ele>
        <time>2019-08-19T15:55:22Z</time>
      </trkpt>
      <trkpt lat="44.52171" lon="4.63474">
        <ele>159.19999694824</ele>
        <time>2019-08-19T15:55:24Z</time>
      </trkpt>
      <trkpt lat="44.52174" lon="4.63477">
        <ele>159.39999389648</ele>
        <time>2019-08-19T15:55:26Z</time>
      </trkpt>
      <trkpt lat="44.52178" lon="4.6348">
        <ele>159.80000305176</ele>
        <time>2019-08-19T15:55:28Z</time>
      </trkpt>
      <trkpt lat="44.52181" lon="4.63483">
        <ele>160.39999389648</ele>
        <time>2019-08-19T15:55:30Z</time>
      </trkpt>
      <trkpt lat="44.52184" lon="4.63486">
        <ele>161.19999694824</ele>
        <time>2019-08-19T15:55:32Z</time>
      </trkpt>
      <trkpt lat="44.52187" lon="4.63489">
        <ele>161.60000610352</ele>
        <time>2019-08-19T15:55:34Z</time>
      </trkpt>
      <trkpt lat="44.5219" lon="4.63493">
        <ele>162</ele>
        <time>2019-08-19T15:55:36Z</time>
      </trkpt>
      <trkpt lat="44.52193" lon="4.63496">
        <ele>162.60000610352</ele>
        <time>2019-08-19T15:55:38Z</time>
      </trkpt>
      <trkpt lat="44.52196" lon="4.635">
        <ele>162.80000305176</ele>
        <time>2019-08-19T15:55:40Z</time>
      </trkpt>
      <trkpt lat="44.52198" lon="4.63501">
        <ele>163.19999694824</ele>
        <time>2019-08-19T15:55:41Z</time>
      </trkpt>
      <trkpt lat="44.52199" lon="4.63503">
        <ele>163.39999389648</ele>
        <time>2019-08-19T15:55:42Z</time>
      </trkpt>
      <trkpt lat="44.522" lon="4.63505">
        <ele>163.80000305176</ele>
        <time>2019-08-19T15:55:43Z</time>
      </trkpt>
      <trkpt lat="44.52202" lon="4.63506">
        <ele>163.80000305176</ele>
        <time>2019-08-19T15:55:44Z</time>
      </trkpt>
      <trkpt lat="44.52205" lon="4.6351">
        <ele>164.19999694824</ele>
        <time>2019-08-19T15:55:46Z</time>
      </trkpt>
      <trkpt lat="44.52207" lon="4.63511">
        <ele>164.19999694824</ele>
        <time>2019-08-19T15:55:47Z</time>
      </trkpt>
      <trkpt lat="44.52208" lon="4.63513">
        <ele>164.39999389648</ele>
        <time>2019-08-19T15:55:48Z</time>
      </trkpt>
      <trkpt lat="44.52212" lon="4.63517">
        <ele>164.80000305176</ele>
        <time>2019-08-19T15:55:50Z</time>
      </trkpt>
      <trkpt lat="44.52213" lon="4.63519">
        <ele>165</ele>
        <time>2019-08-19T15:55:51Z</time>
      </trkpt>
      <trkpt lat="44.52215" lon="4.63521">
        <ele>165.39999389648</ele>
        <time>2019-08-19T15:55:52Z</time>
      </trkpt>
      <trkpt lat="44.52218" lon="4.63524">
        <ele>166</ele>
        <time>2019-08-19T15:55:54Z</time>
      </trkpt>
      <trkpt lat="44.5222" lon="4.63526">
        <ele>166.19999694824</ele>
        <time>2019-08-19T15:55:55Z</time>
      </trkpt>
      <trkpt lat="44.52221" lon="4.63528">
        <ele>166.19999694824</ele>
        <time>2019-08-19T15:55:56Z</time>
      </trkpt>
      <trkpt lat="44.52223" lon="4.63529">
        <ele>166.39999389648</ele>
        <time>2019-08-19T15:55:57Z</time>
      </trkpt>
      <trkpt lat="44.52225" lon="4.63531">
        <ele>166.60000610352</ele>
        <time>2019-08-19T15:55:58Z</time>
      </trkpt>
      <trkpt lat="44.52228" lon="4.63534">
        <ele>167.19999694824</ele>
        <time>2019-08-19T15:56:00Z</time>
      </trkpt>
      <trkpt lat="44.52231" lon="4.63537">
        <ele>167.60000610352</ele>
        <time>2019-08-19T15:56:02Z</time>
      </trkpt>
      <trkpt lat="44.52234" lon="4.63541">
        <ele>168.19999694824</ele>
        <time>2019-08-19T15:56:04Z</time>
      </trkpt>
      <trkpt lat="44.52236" lon="4.63542">
        <ele>168.39999389648</ele>
        <time>2019-08-19T15:56:05Z</time>
      </trkpt>
      <trkpt lat="44.52237" lon="4.63544">
        <ele>168.60000610352</ele>
        <time>2019-08-19T15:56:06Z</time>
      </trkpt>
      <trkpt lat="44.52241" lon="4.63548">
        <ele>169.19999694824</ele>
        <time>2019-08-19T15:56:08Z</time>
      </trkpt>
      <trkpt lat="44.52245" lon="4.63551">
        <ele>169.39999389648</ele>
        <time>2019-08-19T15:56:10Z</time>
      </trkpt>
      <trkpt lat="44.52248" lon="4.63555">
        <ele>170.39999389648</ele>
        <time>2019-08-19T15:56:12Z</time>
      </trkpt>
      <trkpt lat="44.5225" lon="4.63557">
        <ele>170.60000610352</ele>
        <time>2019-08-19T15:56:13Z</time>
      </trkpt>
      <trkpt lat="44.52251" lon="4.63559">
        <ele>170.80000305176</ele>
        <time>2019-08-19T15:56:14Z</time>
      </trkpt>
      <trkpt lat="44.52254" lon="4.63561">
        <ele>171.19999694824</ele>
        <time>2019-08-19T15:56:16Z</time>
      </trkpt>
      <trkpt lat="44.52258" lon="4.63564">
        <ele>171.80000305176</ele>
        <time>2019-08-19T15:56:18Z</time>
      </trkpt>
      <trkpt lat="44.5226" lon="4.63566">
        <ele>171.80000305176</ele>
        <time>2019-08-19T15:56:19Z</time>
      </trkpt>
      <trkpt lat="44.52261" lon="4.63567">
        <ele>172</ele>
        <time>2019-08-19T15:56:20Z</time>
      </trkpt>
      <trkpt lat="44.52265" lon="4.6357">
        <ele>172.39999389648</ele>
        <time>2019-08-19T15:56:22Z</time>
      </trkpt>
      <trkpt lat="44.52268" lon="4.63573">
        <ele>173.19999694824</ele>
        <time>2019-08-19T15:56:24Z</time>
      </trkpt>
      <trkpt lat="44.52272" lon="4.63576">
        <ele>173.60000610352</ele>
        <time>2019-08-19T15:56:26Z</time>
      </trkpt>
      <trkpt lat="44.52274" lon="4.63578">
        <ele>173.80000305176</ele>
        <time>2019-08-19T15:56:27Z</time>
      </trkpt>
      <trkpt lat="44.52275" lon="4.63579">
        <ele>174.39999389648</ele>
        <time>2019-08-19T15:56:28Z</time>
      </trkpt>
      <trkpt lat="44.52279" lon="4.63582">
        <ele>174.80000305176</ele>
        <time>2019-08-19T15:56:30Z</time>
      </trkpt>
      <trkpt lat="44.52283" lon="4.63585">
        <ele>175.19999694824</ele>
        <time>2019-08-19T15:56:32Z</time>
      </trkpt>
      <trkpt lat="44.52287" lon="4.63588">
        <ele>175.39999389648</ele>
        <time>2019-08-19T15:56:34Z</time>
      </trkpt>
      <trkpt lat="44.52291" lon="4.6359">
        <ele>175.60000610352</ele>
        <time>2019-08-19T15:56:36Z</time>
      </trkpt>
      <trkpt lat="44.52295" lon="4.63592">
        <ele>176</ele>
        <time>2019-08-19T15:56:38Z</time>
      </trkpt>
      <trkpt lat="44.52296" lon="4.63594">
        <ele>176</ele>
        <time>2019-08-19T15:56:39Z</time>
      </trkpt>
      <trkpt lat="44.52298" lon="4.63595">
        <ele>176</ele>
        <time>2019-08-19T15:56:40Z</time>
      </trkpt>
      <trkpt lat="44.52302" lon="4.63598">
        <ele>176.39999389648</ele>
        <time>2019-08-19T15:56:42Z</time>
      </trkpt>
      <trkpt lat="44.52306" lon="4.636">
        <ele>177</ele>
        <time>2019-08-19T15:56:44Z</time>
      </trkpt>
      <trkpt lat="44.52308" lon="4.63602">
        <ele>177.60000610352</ele>
        <time>2019-08-19T15:56:45Z</time>
      </trkpt>
      <trkpt lat="44.5231" lon="4.63603">
        <ele>177.80000305176</ele>
        <time>2019-08-19T15:56:46Z</time>
      </trkpt>
      <trkpt lat="44.52313" lon="4.63605">
        <ele>178.19999694824</ele>
        <time>2019-08-19T15:56:48Z</time>
      </trkpt>
      <trkpt lat="44.52317" lon="4.63607">
        <ele>178.39999389648</ele>
        <time>2019-08-19T15:56:50Z</time>
      </trkpt>
      <trkpt lat="44.5232" lon="4.63608">
        <ele>178.80000305176</ele>
        <time>2019-08-19T15:56:52Z</time>
      </trkpt>
      <trkpt lat="44.52323" lon="4.6361">
        <ele>179.19999694824</ele>
        <time>2019-08-19T15:56:54Z</time>
      </trkpt>
      <trkpt lat="44.52328" lon="4.63611">
        <ele>179.39999389648</ele>
        <time>2019-08-19T15:56:56Z</time>
      </trkpt>
      <trkpt lat="44.52332" lon="4.63612">
        <ele>180</ele>
        <time>2019-08-19T15:56:58Z</time>
      </trkpt>
      <trkpt lat="44.52336" lon="4.63615">
        <ele>180.39999389648</ele>
        <time>2019-08-19T15:57:00Z</time>
      </trkpt>
      <trkpt lat="44.52339" lon="4.63618">
        <ele>180.60000610352</ele>
        <time>2019-08-19T15:57:02Z</time>
      </trkpt>
      <trkpt lat="44.52342" lon="4.63621">
        <ele>180.80000305176</ele>
        <time>2019-08-19T15:57:04Z</time>
      </trkpt>
      <trkpt lat="44.52344" lon="4.63626">
        <ele>181.19999694824</ele>
        <time>2019-08-19T15:57:06Z</time>
      </trkpt>
      <trkpt lat="44.52345" lon="4.63632">
        <ele>181.60000610352</ele>
        <time>2019-08-19T15:57:08Z</time>
      </trkpt>
      <trkpt lat="44.52346" lon="4.63635">
        <ele>181.80000305176</ele>
        <time>2019-08-19T15:57:09Z</time>
      </trkpt>
      <trkpt lat="44.52345" lon="4.63637">
        <ele>181.80000305176</ele>
        <time>2019-08-19T15:57:10Z</time>
      </trkpt>
      <trkpt lat="44.52345" lon="4.6364">
        <ele>181.80000305176</ele>
        <time>2019-08-19T15:57:11Z</time>
      </trkpt>
      <trkpt lat="44.52345" lon="4.63643">
        <ele>181.80000305176</ele>
        <time>2019-08-19T15:57:12Z</time>
      </trkpt>
      <trkpt lat="44.52343" lon="4.63647">
        <ele>182.19999694824</ele>
        <time>2019-08-19T15:57:14Z</time>
      </trkpt>
      <trkpt lat="44.52343" lon="4.63649">
        <ele>182.60000610352</ele>
        <time>2019-08-19T15:57:15Z</time>
      </trkpt>
      <trkpt lat="44.52343" lon="4.63651">
        <ele>183</ele>
        <time>2019-08-19T15:57:16Z</time>
      </trkpt>
      <trkpt lat="44.52343" lon="4.63653">
        <ele>183.19999694824</ele>
        <time>2019-08-19T15:57:17Z</time>
      </trkpt>
      <trkpt lat="44.52343" lon="4.63655">
        <ele>183.80000305176</ele>
        <time>2019-08-19T15:57:18Z</time>
      </trkpt>
      <trkpt lat="44.52342" lon="4.63657">
        <ele>184.60000610352</ele>
        <time>2019-08-19T15:57:20Z</time>
      </trkpt>
      <trkpt lat="44.52342" lon="4.63657">
        <ele>185</ele>
        <time>2019-08-19T15:57:21Z</time>
      </trkpt>
      <trkpt lat="44.52342" lon="4.63658">
        <ele>185.19999694824</ele>
        <time>2019-08-19T15:57:22Z</time>
      </trkpt>
      <trkpt lat="44.52342" lon="4.63659">
        <ele>185.39999389648</ele>
        <time>2019-08-19T15:57:24Z</time>
      </trkpt>
      <trkpt lat="44.52342" lon="4.6366">
        <ele>185.80000305176</ele>
        <time>2019-08-19T15:57:26Z</time>
      </trkpt>
      <trkpt lat="44.52341" lon="4.63662">
        <ele>185.80000305176</ele>
        <time>2019-08-19T15:57:28Z</time>
      </trkpt>
      <trkpt lat="44.5234" lon="4.63664">
        <ele>185.80000305176</ele>
        <time>2019-08-19T15:57:29Z</time>
      </trkpt>
      <trkpt lat="44.52339" lon="4.63664">
        <ele>185.80000305176</ele>
        <time>2019-08-19T15:57:30Z</time>
      </trkpt>
      <trkpt lat="44.52339" lon="4.63663">
        <ele>186</ele>
        <time>2019-08-19T15:57:31Z</time>
      </trkpt>
      <trkpt lat="44.52339" lon="4.63662">
        <ele>186</ele>
        <time>2019-08-19T15:57:32Z</time>
      </trkpt>
      <trkpt lat="44.52339" lon="4.63657">
        <ele>186</ele>
        <time>2019-08-19T15:57:34Z</time>
      </trkpt>
      <trkpt lat="44.52339" lon="4.63653">
        <ele>186</ele>
        <time>2019-08-19T15:57:36Z</time>
      </trkpt>
      <trkpt lat="44.52338" lon="4.63648">
        <ele>186</ele>
        <time>2019-08-19T15:57:38Z</time>
      </trkpt>
      <trkpt lat="44.52337" lon="4.63644">
        <ele>186.60000610352</ele>
        <time>2019-08-19T15:57:40Z</time>
      </trkpt>
      <trkpt lat="44.52337" lon="4.63639">
        <ele>186.80000305176</ele>
        <time>2019-08-19T15:57:42Z</time>
      </trkpt>
      <trkpt lat="44.52335" lon="4.63635">
        <ele>187</ele>
        <time>2019-08-19T15:57:44Z</time>
      </trkpt>
      <trkpt lat="44.52333" lon="4.63633">
        <ele>187.19999694824</ele>
        <time>2019-08-19T15:57:46Z</time>
      </trkpt>
      <trkpt lat="44.52331" lon="4.63632">
        <ele>187.39999389648</ele>
        <time>2019-08-19T15:57:48Z</time>
      </trkpt>
      <trkpt lat="44.52328" lon="4.63631">
        <ele>188</ele>
        <time>2019-08-19T15:57:50Z</time>
      </trkpt>
      <trkpt lat="44.52326" lon="4.6363">
        <ele>188.60000610352</ele>
        <time>2019-08-19T15:57:51Z</time>
      </trkpt>
      <trkpt lat="44.52325" lon="4.6363">
        <ele>188.80000305176</ele>
        <time>2019-08-19T15:57:52Z</time>
      </trkpt>
      <trkpt lat="44.52321" lon="4.63629">
        <ele>189.19999694824</ele>
        <time>2019-08-19T15:57:54Z</time>
      </trkpt>
      <trkpt lat="44.52319" lon="4.63629">
        <ele>189.19999694824</ele>
        <time>2019-08-19T15:57:55Z</time>
      </trkpt>
      <trkpt lat="44.52318" lon="4.63628">
        <ele>189.39999389648</ele>
        <time>2019-08-19T15:57:56Z</time>
      </trkpt>
      <trkpt lat="44.52314" lon="4.63628">
        <ele>190</ele>
        <time>2019-08-19T15:57:58Z</time>
      </trkpt>
      <trkpt lat="44.52311" lon="4.63627">
        <ele>190.60000610352</ele>
        <time>2019-08-19T15:58:00Z</time>
      </trkpt>
      <trkpt lat="44.52308" lon="4.63627">
        <ele>191</ele>
        <time>2019-08-19T15:58:02Z</time>
      </trkpt>
      <trkpt lat="44.52306" lon="4.63627">
        <ele>191.19999694824</ele>
        <time>2019-08-19T15:58:03Z</time>
      </trkpt>
      <trkpt lat="44.52304" lon="4.63627">
        <ele>191.60000610352</ele>
        <time>2019-08-19T15:58:04Z</time>
      </trkpt>
      <trkpt lat="44.52301" lon="4.63625">
        <ele>192</ele>
        <time>2019-08-19T15:58:06Z</time>
      </trkpt>
      <trkpt lat="44.52297" lon="4.63624">
        <ele>192.39999389648</ele>
        <time>2019-08-19T15:58:08Z</time>
      </trkpt>
      <trkpt lat="44.52294" lon="4.63623">
        <ele>192.80000305176</ele>
        <time>2019-08-19T15:58:10Z</time>
      </trkpt>
      <trkpt lat="44.52293" lon="4.63623">
        <ele>192.80000305176</ele>
        <time>2019-08-19T15:58:11Z</time>
      </trkpt>
      <trkpt lat="44.52291" lon="4.63623">
        <ele>193.19999694824</ele>
        <time>2019-08-19T15:58:12Z</time>
      </trkpt>
      <trkpt lat="44.52287" lon="4.63622">
        <ele>193.39999389648</ele>
        <time>2019-08-19T15:58:14Z</time>
      </trkpt>
      <trkpt lat="44.52286" lon="4.63622">
        <ele>193.60000610352</ele>
        <time>2019-08-19T15:58:15Z</time>
      </trkpt>
      <trkpt lat="44.52284" lon="4.63622">
        <ele>193.80000305176</ele>
        <time>2019-08-19T15:58:16Z</time>
      </trkpt>
      <trkpt lat="44.52281" lon="4.63621">
        <ele>194.19999694824</ele>
        <time>2019-08-19T15:58:18Z</time>
      </trkpt>
      <trkpt lat="44.52279" lon="4.63621">
        <ele>194.39999389648</ele>
        <time>2019-08-19T15:58:19Z</time>
      </trkpt>
      <trkpt lat="44.52277" lon="4.63621">
        <ele>194.60000610352</ele>
        <time>2019-08-19T15:58:20Z</time>
      </trkpt>
      <trkpt lat="44.52274" lon="4.6362">
        <ele>195.39999389648</ele>
        <time>2019-08-19T15:58:22Z</time>
      </trkpt>
      <trkpt lat="44.52271" lon="4.63619">
        <ele>196.19999694824</ele>
        <time>2019-08-19T15:58:24Z</time>
      </trkpt>
      <trkpt lat="44.52268" lon="4.63618">
        <ele>196.39999389648</ele>
        <time>2019-08-19T15:58:26Z</time>
      </trkpt>
      <trkpt lat="44.52264" lon="4.63617">
        <ele>196.80000305176</ele>
        <time>2019-08-19T15:58:28Z</time>
      </trkpt>
      <trkpt lat="44.52261" lon="4.63616">
        <ele>197</ele>
        <time>2019-08-19T15:58:30Z</time>
      </trkpt>
      <trkpt lat="44.52259" lon="4.63615">
        <ele>197.19999694824</ele>
        <time>2019-08-19T15:58:32Z</time>
      </trkpt>
      <trkpt lat="44.52255" lon="4.63614">
        <ele>197.19999694824</ele>
        <time>2019-08-19T15:58:34Z</time>
      </trkpt>
      <trkpt lat="44.52252" lon="4.63613">
        <ele>197.60000610352</ele>
        <time>2019-08-19T15:58:36Z</time>
      </trkpt>
      <trkpt lat="44.52248" lon="4.63612">
        <ele>198</ele>
        <time>2019-08-19T15:58:38Z</time>
      </trkpt>
      <trkpt lat="44.52245" lon="4.63611">
        <ele>198.39999389648</ele>
        <time>2019-08-19T15:58:40Z</time>
      </trkpt>
      <trkpt lat="44.52243" lon="4.63611">
        <ele>198.60000610352</ele>
        <time>2019-08-19T15:58:41Z</time>
      </trkpt>
      <trkpt lat="44.52241" lon="4.6361">
        <ele>198.80000305176</ele>
        <time>2019-08-19T15:58:42Z</time>
      </trkpt>
      <trkpt lat="44.52237" lon="4.63609">
        <ele>199</ele>
        <time>2019-08-19T15:58:44Z</time>
      </trkpt>
      <trkpt lat="44.52234" lon="4.63608">
        <ele>199.39999389648</ele>
        <time>2019-08-19T15:58:46Z</time>
      </trkpt>
      <trkpt lat="44.5223" lon="4.63607">
        <ele>199.80000305176</ele>
        <time>2019-08-19T15:58:48Z</time>
      </trkpt>
      <trkpt lat="44.52228" lon="4.63607">
        <ele>200</ele>
        <time>2019-08-19T15:58:49Z</time>
      </trkpt>
      <trkpt lat="44.52226" lon="4.63606">
        <ele>200.19999694824</ele>
        <time>2019-08-19T15:58:50Z</time>
      </trkpt>
      <trkpt lat="44.52225" lon="4.63606">
        <ele>200.39999389648</ele>
        <time>2019-08-19T15:58:51Z</time>
      </trkpt>
      <trkpt lat="44.52223" lon="4.63605">
        <ele>200.60000610352</ele>
        <time>2019-08-19T15:58:52Z</time>
      </trkpt>
      <trkpt lat="44.5222" lon="4.63604">
        <ele>201</ele>
        <time>2019-08-19T15:58:54Z</time>
      </trkpt>
      <trkpt lat="44.52217" lon="4.63604">
        <ele>201.19999694824</ele>
        <time>2019-08-19T15:58:56Z</time>
      </trkpt>
      <trkpt lat="44.52213" lon="4.63603">
        <ele>201.60000610352</ele>
        <time>2019-08-19T15:58:58Z</time>
      </trkpt>
      <trkpt lat="44.52209" lon="4.63602">
        <ele>202.19999694824</ele>
        <time>2019-08-19T15:59:00Z</time>
      </trkpt>
      <trkpt lat="44.52205" lon="4.636">
        <ele>202.60000610352</ele>
        <time>2019-08-19T15:59:02Z</time>
      </trkpt>
      <trkpt lat="44.52204" lon="4.636">
        <ele>202.80000305176</ele>
        <time>2019-08-19T15:59:03Z</time>
      </trkpt>
      <trkpt lat="44.52202" lon="4.63599">
        <ele>202.80000305176</ele>
        <time>2019-08-19T15:59:04Z</time>
      </trkpt>
      <trkpt lat="44.522" lon="4.63599">
        <ele>203</ele>
        <time>2019-08-19T15:59:05Z</time>
      </trkpt>
      <trkpt lat="44.52199" lon="4.63598">
        <ele>203.19999694824</ele>
        <time>2019-08-19T15:59:06Z</time>
      </trkpt>
      <trkpt lat="44.52196" lon="4.63597">
        <ele>203.39999389648</ele>
        <time>2019-08-19T15:59:08Z</time>
      </trkpt>
      <trkpt lat="44.52194" lon="4.63597">
        <ele>203.60000610352</ele>
        <time>2019-08-19T15:59:09Z</time>
      </trkpt>
      <trkpt lat="44.52192" lon="4.63596">
        <ele>203.80000305176</ele>
        <time>2019-08-19T15:59:10Z</time>
      </trkpt>
      <trkpt lat="44.52189" lon="4.63595">
        <ele>204.19999694824</ele>
        <time>2019-08-19T15:59:12Z</time>
      </trkpt>
      <trkpt lat="44.52185" lon="4.63594">
        <ele>204.80000305176</ele>
        <time>2019-08-19T15:59:14Z</time>
      </trkpt>
      <trkpt lat="44.52182" lon="4.63594">
        <ele>205</ele>
        <time>2019-08-19T15:59:16Z</time>
      </trkpt>
      <trkpt lat="44.52178" lon="4.63592">
        <ele>205.60000610352</ele>
        <time>2019-08-19T15:59:18Z</time>
      </trkpt>
      <trkpt lat="44.52177" lon="4.63591">
        <ele>206</ele>
        <time>2019-08-19T15:59:19Z</time>
      </trkpt>
      <trkpt lat="44.52175" lon="4.63591">
        <ele>206</ele>
        <time>2019-08-19T15:59:20Z</time>
      </trkpt>
      <trkpt lat="44.52171" lon="4.6359">
        <ele>206.39999389648</ele>
        <time>2019-08-19T15:59:22Z</time>
      </trkpt>
      <trkpt lat="44.52168" lon="4.6359">
        <ele>206.80000305176</ele>
        <time>2019-08-19T15:59:24Z</time>
      </trkpt>
      <trkpt lat="44.52165" lon="4.63589">
        <ele>207.39999389648</ele>
        <time>2019-08-19T15:59:26Z</time>
      </trkpt>
      <trkpt lat="44.52163" lon="4.63588">
        <ele>207.39999389648</ele>
        <time>2019-08-19T15:59:27Z</time>
      </trkpt>
      <trkpt lat="44.52161" lon="4.63587">
        <ele>207.39999389648</ele>
        <time>2019-08-19T15:59:28Z</time>
      </trkpt>
      <trkpt lat="44.52158" lon="4.63585">
        <ele>208</ele>
        <time>2019-08-19T15:59:30Z</time>
      </trkpt>
      <trkpt lat="44.52155" lon="4.63585">
        <ele>208.60000610352</ele>
        <time>2019-08-19T15:59:32Z</time>
      </trkpt>
      <trkpt lat="44.52153" lon="4.63584">
        <ele>208.80000305176</ele>
        <time>2019-08-19T15:59:33Z</time>
      </trkpt>
      <trkpt lat="44.52151" lon="4.63583">
        <ele>209</ele>
        <time>2019-08-19T15:59:34Z</time>
      </trkpt>
      <trkpt lat="44.52149" lon="4.63583">
        <ele>209.39999389648</ele>
        <time>2019-08-19T15:59:35Z</time>
      </trkpt>
      <trkpt lat="44.52147" lon="4.63582">
        <ele>209.60000610352</ele>
        <time>2019-08-19T15:59:36Z</time>
      </trkpt>
      <trkpt lat="44.52143" lon="4.63581">
        <ele>210</ele>
        <time>2019-08-19T15:59:38Z</time>
      </trkpt>
      <trkpt lat="44.5214" lon="4.6358">
        <ele>210</ele>
        <time>2019-08-19T15:59:40Z</time>
      </trkpt>
      <trkpt lat="44.52136" lon="4.6358">
        <ele>210.39999389648</ele>
        <time>2019-08-19T15:59:42Z</time>
      </trkpt>
      <trkpt lat="44.52135" lon="4.6358">
        <ele>210.60000610352</ele>
        <time>2019-08-19T15:59:43Z</time>
      </trkpt>
      <trkpt lat="44.52133" lon="4.6358">
        <ele>210.80000305176</ele>
        <time>2019-08-19T15:59:44Z</time>
      </trkpt>
      <trkpt lat="44.5213" lon="4.6358">
        <ele>211.19999694824</ele>
        <time>2019-08-19T15:59:46Z</time>
      </trkpt>
      <trkpt lat="44.52127" lon="4.6358">
        <ele>211.39999389648</ele>
        <time>2019-08-19T15:59:48Z</time>
      </trkpt>
      <trkpt lat="44.52124" lon="4.63581">
        <ele>211.80000305176</ele>
        <time>2019-08-19T15:59:50Z</time>
      </trkpt>
      <trkpt lat="44.52123" lon="4.63582">
        <ele>212.19999694824</ele>
        <time>2019-08-19T15:59:51Z</time>
      </trkpt>
      <trkpt lat="44.52121" lon="4.63582">
        <ele>212.39999389648</ele>
        <time>2019-08-19T15:59:52Z</time>
      </trkpt>
      <trkpt lat="44.52119" lon="4.63583">
        <ele>212.60000610352</ele>
        <time>2019-08-19T15:59:54Z</time>
      </trkpt>
      <trkpt lat="44.52117" lon="4.63584">
        <ele>212.80000305176</ele>
        <time>2019-08-19T15:59:55Z</time>
      </trkpt>
      <trkpt lat="44.52117" lon="4.63585">
        <ele>212.80000305176</ele>
        <time>2019-08-19T15:59:56Z</time>
      </trkpt>
      <trkpt lat="44.52114" lon="4.63587">
        <ele>213.19999694824</ele>
        <time>2019-08-19T15:59:58Z</time>
      </trkpt>
      <trkpt lat="44.52111" lon="4.63589">
        <ele>213.39999389648</ele>
        <time>2019-08-19T16:00:00Z</time>
      </trkpt>
      <trkpt lat="44.52109" lon="4.6359">
        <ele>213.60000610352</ele>
        <time>2019-08-19T16:00:01Z</time>
      </trkpt>
      <trkpt lat="44.52107" lon="4.63591">
        <ele>213.60000610352</ele>
        <time>2019-08-19T16:00:02Z</time>
      </trkpt>
      <trkpt lat="44.52105" lon="4.63592">
        <ele>214.39999389648</ele>
        <time>2019-08-19T16:00:04Z</time>
      </trkpt>
      <trkpt lat="44.52105" lon="4.63592">
        <ele>214.39999389648</ele>
        <time>2019-08-19T16:00:05Z</time>
      </trkpt>
      <trkpt lat="44.52105" lon="4.63592">
        <ele>214.80000305176</ele>
        <time>2019-08-19T16:00:06Z</time>
      </trkpt>
      <trkpt lat="44.52105" lon="4.63592">
        <ele>215.19999694824</ele>
        <time>2019-08-19T16:00:08Z</time>
      </trkpt>
      <trkpt lat="44.52105" lon="4.63592">
        <ele>215.60000610352</ele>
        <time>2019-08-19T16:00:10Z</time>
      </trkpt>
      <trkpt lat="44.52105" lon="4.63592">
        <ele>215.80000305176</ele>
        <time>2019-08-19T16:00:12Z</time>
      </trkpt>
      <trkpt lat="44.52105" lon="4.63592">
        <ele>216</ele>
        <time>2019-08-19T16:00:14Z</time>
      </trkpt>
      <trkpt lat="44.52105" lon="4.63592">
        <ele>216.19999694824</ele>
        <time>2019-08-19T16:00:16Z</time>
      </trkpt>
      <trkpt lat="44.52105" lon="4.63592">
        <ele>216.19999694824</ele>
        <time>2019-08-19T16:00:17Z</time>
      </trkpt>
      <trkpt lat="44.52105" lon="4.63592">
        <ele>216.19999694824</ele>
        <time>2019-08-19T16:00:18Z</time>
      </trkpt>
      <trkpt lat="44.52104" lon="4.63592">
        <ele>216.19999694824</ele>
        <time>2019-08-19T16:00:19Z</time>
      </trkpt>
      <trkpt lat="44.52103" lon="4.63592">
        <ele>216.19999694824</ele>
        <time>2019-08-19T16:00:20Z</time>
      </trkpt>
      <trkpt lat="44.52101" lon="4.63593">
        <ele>216.39999389648</ele>
        <time>2019-08-19T16:00:22Z</time>
      </trkpt>
      <trkpt lat="44.521" lon="4.63593">
        <ele>216.19999694824</ele>
        <time>2019-08-19T16:00:23Z</time>
      </trkpt>
      <trkpt lat="44.52098" lon="4.63593">
        <ele>216.19999694824</ele>
        <time>2019-08-19T16:00:24Z</time>
      </trkpt>
      <trkpt lat="44.52094" lon="4.63595">
        <ele>216.19999694824</ele>
        <time>2019-08-19T16:00:26Z</time>
      </trkpt>
      <trkpt lat="44.52093" lon="4.63595">
        <ele>216.19999694824</ele>
        <time>2019-08-19T16:00:27Z</time>
      </trkpt>
      <trkpt lat="44.52091" lon="4.63596">
        <ele>216.39999389648</ele>
        <time>2019-08-19T16:00:28Z</time>
      </trkpt>
      <trkpt lat="44.52088" lon="4.63597">
        <ele>216.39999389648</ele>
        <time>2019-08-19T16:00:30Z</time>
      </trkpt>
      <trkpt lat="44.52086" lon="4.63598">
        <ele>216.60000610352</ele>
        <time>2019-08-19T16:00:32Z</time>
      </trkpt>
      <trkpt lat="44.52086" lon="4.63598">
        <ele>217</ele>
        <time>2019-08-19T16:00:33Z</time>
      </trkpt>
      <trkpt lat="44.52086" lon="4.63598">
        <ele>217</ele>
        <time>2019-08-19T16:00:34Z</time>
      </trkpt>
      <trkpt lat="44.52086" lon="4.63598">
        <ele>217.19999694824</ele>
        <time>2019-08-19T16:00:35Z</time>
      </trkpt>
      <trkpt lat="44.52085" lon="4.63598">
        <ele>217.39999389648</ele>
        <time>2019-08-19T16:00:36Z</time>
      </trkpt>
      <trkpt lat="44.52085" lon="4.63599">
        <ele>217.60000610352</ele>
        <time>2019-08-19T16:00:38Z</time>
      </trkpt>
      <trkpt lat="44.52085" lon="4.63599">
        <ele>218</ele>
        <time>2019-08-19T16:00:40Z</time>
      </trkpt>
      <trkpt lat="44.52085" lon="4.63599">
        <ele>218.19999694824</ele>
        <time>2019-08-19T16:00:42Z</time>
      </trkpt>
      <trkpt lat="44.52085" lon="4.63599">
        <ele>218.39999389648</ele>
        <time>2019-08-19T16:00:44Z</time>
      </trkpt>
      <trkpt lat="44.52085" lon="4.63599">
        <ele>218.60000610352</ele>
        <time>2019-08-19T16:00:46Z</time>
      </trkpt>
      <trkpt lat="44.52085" lon="4.63599">
        <ele>218.39999389648</ele>
        <time>2019-08-19T16:00:48Z</time>
      </trkpt>
      <trkpt lat="44.52085" lon="4.63599">
        <ele>218.39999389648</ele>
        <time>2019-08-19T16:00:50Z</time>
      </trkpt>
      <trkpt lat="44.52085" lon="4.63599">
        <ele>218.60000610352</ele>
        <time>2019-08-19T16:00:51Z</time>
      </trkpt>
      <trkpt lat="44.52085" lon="4.63599">
        <ele>218.60000610352</ele>
        <time>2019-08-19T16:00:52Z</time>
      </trkpt>
      <trkpt lat="44.52085" lon="4.63599">
        <ele>218.60000610352</ele>
        <time>2019-08-19T16:00:54Z</time>
      </trkpt>
      <trkpt lat="44.52085" lon="4.63599">
        <ele>218.39999389648</ele>
        <time>2019-08-19T16:00:56Z</time>
      </trkpt>
      <trkpt lat="44.52085" lon="4.63599">
        <ele>218.60000610352</ele>
        <time>2019-08-19T16:00:58Z</time>
      </trkpt>
      <trkpt lat="44.52083" lon="4.63599">
        <ele>218.39999389648</ele>
        <time>2019-08-19T16:01:00Z</time>
      </trkpt>
      <trkpt lat="44.52081" lon="4.636">
        <ele>218.39999389648</ele>
        <time>2019-08-19T16:01:02Z</time>
      </trkpt>
      <trkpt lat="44.52078" lon="4.63601">
        <ele>218.39999389648</ele>
        <time>2019-08-19T16:01:04Z</time>
      </trkpt>
      <trkpt lat="44.52077" lon="4.63602">
        <ele>218.39999389648</ele>
        <time>2019-08-19T16:01:05Z</time>
      </trkpt>
      <trkpt lat="44.52076" lon="4.63603">
        <ele>218.39999389648</ele>
        <time>2019-08-19T16:01:06Z</time>
      </trkpt>
      <trkpt lat="44.52076" lon="4.63604">
        <ele>218.39999389648</ele>
        <time>2019-08-19T16:01:07Z</time>
      </trkpt>
      <trkpt lat="44.52076" lon="4.63604">
        <ele>218.39999389648</ele>
        <time>2019-08-19T16:01:08Z</time>
      </trkpt>
      <trkpt lat="44.52076" lon="4.63604">
        <ele>218.60000610352</ele>
        <time>2019-08-19T16:01:10Z</time>
      </trkpt>
      <trkpt lat="44.52077" lon="4.63604">
        <ele>219.19999694824</ele>
        <time>2019-08-19T16:01:12Z</time>
      </trkpt>
      <trkpt lat="44.52077" lon="4.63605">
        <ele>219.19999694824</ele>
        <time>2019-08-19T16:01:13Z</time>
      </trkpt>
      <trkpt lat="44.52078" lon="4.63605">
        <ele>219.39999389648</ele>
        <time>2019-08-19T16:01:14Z</time>
      </trkpt>
      <trkpt lat="44.52079" lon="4.63605">
        <ele>219.80000305176</ele>
        <time>2019-08-19T16:01:16Z</time>
      </trkpt>
      <trkpt lat="44.52079" lon="4.63606">
        <ele>220</ele>
        <time>2019-08-19T16:01:18Z</time>
      </trkpt>
      <trkpt lat="44.5208" lon="4.63606">
        <ele>220</ele>
        <time>2019-08-19T16:01:20Z</time>
      </trkpt>
      <trkpt lat="44.52081" lon="4.63606">
        <ele>220.19999694824</ele>
        <time>2019-08-19T16:01:21Z</time>
      </trkpt>
      <trkpt lat="44.52081" lon="4.63607">
        <ele>220.19999694824</ele>
        <time>2019-08-19T16:01:22Z</time>
      </trkpt>
      <trkpt lat="44.52081" lon="4.63607">
        <ele>220.80000305176</ele>
        <time>2019-08-19T16:01:24Z</time>
      </trkpt>
      <trkpt lat="44.52082" lon="4.63607">
        <ele>221</ele>
        <time>2019-08-19T16:01:26Z</time>
      </trkpt>
      <trkpt lat="44.52083" lon="4.63607">
        <ele>221</ele>
        <time>2019-08-19T16:01:27Z</time>
      </trkpt>
      <trkpt lat="44.52084" lon="4.63607">
        <ele>221</ele>
        <time>2019-08-19T16:01:28Z</time>
      </trkpt>
      <trkpt lat="44.52087" lon="4.63608">
        <ele>221.19999694824</ele>
        <time>2019-08-19T16:01:30Z</time>
      </trkpt>
      <trkpt lat="44.52088" lon="4.63608">
        <ele>221.39999389648</ele>
        <time>2019-08-19T16:01:31Z</time>
      </trkpt>
      <trkpt lat="44.5209" lon="4.63609">
        <ele>221.39999389648</ele>
        <time>2019-08-19T16:01:32Z</time>
      </trkpt>
      <trkpt lat="44.52094" lon="4.63611">
        <ele>221.60000610352</ele>
        <time>2019-08-19T16:01:34Z</time>
      </trkpt>
      <trkpt lat="44.52096" lon="4.63611">
        <ele>221.60000610352</ele>
        <time>2019-08-19T16:01:35Z</time>
      </trkpt>
      <trkpt lat="44.52098" lon="4.63612">
        <ele>221.60000610352</ele>
        <time>2019-08-19T16:01:36Z</time>
      </trkpt>
      <trkpt lat="44.52102" lon="4.63613">
        <ele>221.80000305176</ele>
        <time>2019-08-19T16:01:38Z</time>
      </trkpt>
      <trkpt lat="44.52104" lon="4.63613">
        <ele>222</ele>
        <time>2019-08-19T16:01:39Z</time>
      </trkpt>
      <trkpt lat="44.52106" lon="4.63614">
        <ele>222.39999389648</ele>
        <time>2019-08-19T16:01:40Z</time>
      </trkpt>
      <trkpt lat="44.5211" lon="4.63614">
        <ele>223.19999694824</ele>
        <time>2019-08-19T16:01:42Z</time>
      </trkpt>
      <trkpt lat="44.52114" lon="4.63615">
        <ele>223.80000305176</ele>
        <time>2019-08-19T16:01:44Z</time>
      </trkpt>
      <trkpt lat="44.52118" lon="4.63616">
        <ele>224</ele>
        <time>2019-08-19T16:01:46Z</time>
      </trkpt>
      <trkpt lat="44.5212" lon="4.63617">
        <ele>224.60000610352</ele>
        <time>2019-08-19T16:01:47Z</time>
      </trkpt>
      <trkpt lat="44.52122" lon="4.63618">
        <ele>225</ele>
        <time>2019-08-19T16:01:48Z</time>
      </trkpt>
      <trkpt lat="44.52125" lon="4.6362">
        <ele>225.60000610352</ele>
        <time>2019-08-19T16:01:50Z</time>
      </trkpt>
      <trkpt lat="44.52129" lon="4.63623">
        <ele>226</ele>
        <time>2019-08-19T16:01:52Z</time>
      </trkpt>
      <trkpt lat="44.5213" lon="4.63624">
        <ele>226.80000305176</ele>
        <time>2019-08-19T16:01:53Z</time>
      </trkpt>
      <trkpt lat="44.52132" lon="4.63626">
        <ele>227</ele>
        <time>2019-08-19T16:01:54Z</time>
      </trkpt>
      <trkpt lat="44.52134" lon="4.63627">
        <ele>227.39999389648</ele>
        <time>2019-08-19T16:01:55Z</time>
      </trkpt>
      <trkpt lat="44.52136" lon="4.63629">
        <ele>227.39999389648</ele>
        <time>2019-08-19T16:01:56Z</time>
      </trkpt>
      <trkpt lat="44.52139" lon="4.63632">
        <ele>228</ele>
        <time>2019-08-19T16:01:58Z</time>
      </trkpt>
      <trkpt lat="44.52141" lon="4.63634">
        <ele>228.39999389648</ele>
        <time>2019-08-19T16:01:59Z</time>
      </trkpt>
      <trkpt lat="44.52142" lon="4.63635">
        <ele>228.80000305176</ele>
        <time>2019-08-19T16:02:00Z</time>
      </trkpt>
      <trkpt lat="44.52145" lon="4.63638">
        <ele>229.39999389648</ele>
        <time>2019-08-19T16:02:02Z</time>
      </trkpt>
      <trkpt lat="44.52148" lon="4.63641">
        <ele>230.39999389648</ele>
        <time>2019-08-19T16:02:04Z</time>
      </trkpt>
      <trkpt lat="44.52152" lon="4.63644">
        <ele>231</ele>
        <time>2019-08-19T16:02:06Z</time>
      </trkpt>
      <trkpt lat="44.52154" lon="4.63645">
        <ele>231.39999389648</ele>
        <time>2019-08-19T16:02:07Z</time>
      </trkpt>
      <trkpt lat="44.52155" lon="4.63647">
        <ele>231.80000305176</ele>
        <time>2019-08-19T16:02:08Z</time>
      </trkpt>
      <trkpt lat="44.52157" lon="4.63648">
        <ele>232</ele>
        <time>2019-08-19T16:02:09Z</time>
      </trkpt>
      <trkpt lat="44.52159" lon="4.63649">
        <ele>232.39999389648</ele>
        <time>2019-08-19T16:02:10Z</time>
      </trkpt>
      <trkpt lat="44.52162" lon="4.63652">
        <ele>233.39999389648</ele>
        <time>2019-08-19T16:02:12Z</time>
      </trkpt>
      <trkpt lat="44.52164" lon="4.63653">
        <ele>233.60000610352</ele>
        <time>2019-08-19T16:02:13Z</time>
      </trkpt>
      <trkpt lat="44.52166" lon="4.63655">
        <ele>233.80000305176</ele>
        <time>2019-08-19T16:02:14Z</time>
      </trkpt>
      <trkpt lat="44.52168" lon="4.63658">
        <ele>234.39999389648</ele>
        <time>2019-08-19T16:02:16Z</time>
      </trkpt>
      <trkpt lat="44.52171" lon="4.6366">
        <ele>235.80000305176</ele>
        <time>2019-08-19T16:02:18Z</time>
      </trkpt>
      <trkpt lat="44.52171" lon="4.6366">
        <ele>236.60000610352</ele>
        <time>2019-08-19T16:02:20Z</time>
      </trkpt>
      <trkpt lat="44.52171" lon="4.6366">
        <ele>237.19999694824</ele>
        <time>2019-08-19T16:02:22Z</time>
      </trkpt>
      <trkpt lat="44.52171" lon="4.6366">
        <ele>237.80000305176</ele>
        <time>2019-08-19T16:02:24Z</time>
      </trkpt>
      <trkpt lat="44.52171" lon="4.6366">
        <ele>238.39999389648</ele>
        <time>2019-08-19T16:02:26Z</time>
      </trkpt>
      <trkpt lat="44.52171" lon="4.6366">
        <ele>238.80000305176</ele>
        <time>2019-08-19T16:02:28Z</time>
      </trkpt>
      <trkpt lat="44.52171" lon="4.6366">
        <ele>238.80000305176</ele>
        <time>2019-08-19T16:02:30Z</time>
      </trkpt>
      <trkpt lat="44.52171" lon="4.6366">
        <ele>238.60000610352</ele>
        <time>2019-08-19T16:02:32Z</time>
      </trkpt>
      <trkpt lat="44.52171" lon="4.6366">
        <ele>238.80000305176</ele>
        <time>2019-08-19T16:02:34Z</time>
      </trkpt>
      <trkpt lat="44.52173" lon="4.63662">
        <ele>238.80000305176</ele>
        <time>2019-08-19T16:02:36Z</time>
      </trkpt>
      <trkpt lat="44.52174" lon="4.63663">
        <ele>238.80000305176</ele>
        <time>2019-08-19T16:02:37Z</time>
      </trkpt>
      <trkpt lat="44.52176" lon="4.63664">
        <ele>238.80000305176</ele>
        <time>2019-08-19T16:02:38Z</time>
      </trkpt>
      <trkpt lat="44.52179" lon="4.63667">
        <ele>238.80000305176</ele>
        <time>2019-08-19T16:02:40Z</time>
      </trkpt>
      <trkpt lat="44.52182" lon="4.6367">
        <ele>238.60000610352</ele>
        <time>2019-08-19T16:02:42Z</time>
      </trkpt>
      <trkpt lat="44.52185" lon="4.63672">
        <ele>238.80000305176</ele>
        <time>2019-08-19T16:02:44Z</time>
      </trkpt>
      <trkpt lat="44.52188" lon="4.63675">
        <ele>239.19999694824</ele>
        <time>2019-08-19T16:02:46Z</time>
      </trkpt>
      <trkpt lat="44.52191" lon="4.63678">
        <ele>239.80000305176</ele>
        <time>2019-08-19T16:02:48Z</time>
      </trkpt>
      <trkpt lat="44.52194" lon="4.63682">
        <ele>241</ele>
        <time>2019-08-19T16:02:50Z</time>
      </trkpt>
      <trkpt lat="44.52195" lon="4.63683">
        <ele>241.19999694824</ele>
        <time>2019-08-19T16:02:51Z</time>
      </trkpt>
      <trkpt lat="44.52197" lon="4.63685">
        <ele>241.39999389648</ele>
        <time>2019-08-19T16:02:52Z</time>
      </trkpt>
      <trkpt lat="44.52199" lon="4.63689">
        <ele>241.80000305176</ele>
        <time>2019-08-19T16:02:54Z</time>
      </trkpt>
      <trkpt lat="44.522" lon="4.63691">
        <ele>242</ele>
        <time>2019-08-19T16:02:55Z</time>
      </trkpt>
      <trkpt lat="44.52201" lon="4.63693">
        <ele>242.60000610352</ele>
        <time>2019-08-19T16:02:56Z</time>
      </trkpt>
      <trkpt lat="44.52202" lon="4.63694">
        <ele>243</ele>
        <time>2019-08-19T16:02:57Z</time>
      </trkpt>
      <trkpt lat="44.52204" lon="4.63696">
        <ele>243.39999389648</ele>
        <time>2019-08-19T16:02:58Z</time>
      </trkpt>
      <trkpt lat="44.52206" lon="4.637">
        <ele>244</ele>
        <time>2019-08-19T16:03:00Z</time>
      </trkpt>
      <trkpt lat="44.52209" lon="4.63704">
        <ele>244.60000610352</ele>
        <time>2019-08-19T16:03:02Z</time>
      </trkpt>
      <trkpt lat="44.52212" lon="4.63708">
        <ele>245.39999389648</ele>
        <time>2019-08-19T16:03:04Z</time>
      </trkpt>
      <trkpt lat="44.52213" lon="4.63711">
        <ele>245.80000305176</ele>
        <time>2019-08-19T16:03:05Z</time>
      </trkpt>
      <trkpt lat="44.52214" lon="4.63713">
        <ele>246.39999389648</ele>
        <time>2019-08-19T16:03:06Z</time>
      </trkpt>
      <trkpt lat="44.52216" lon="4.63718">
        <ele>247.19999694824</ele>
        <time>2019-08-19T16:03:08Z</time>
      </trkpt>
      <trkpt lat="44.52217" lon="4.63721">
        <ele>247.60000610352</ele>
        <time>2019-08-19T16:03:09Z</time>
      </trkpt>
      <trkpt lat="44.52218" lon="4.63723">
        <ele>248</ele>
        <time>2019-08-19T16:03:10Z</time>
      </trkpt>
      <trkpt lat="44.52219" lon="4.63725">
        <ele>248</ele>
        <time>2019-08-19T16:03:11Z</time>
      </trkpt>
      <trkpt lat="44.5222" lon="4.63727">
        <ele>248</ele>
        <time>2019-08-19T16:03:12Z</time>
      </trkpt>
      <trkpt lat="44.52222" lon="4.63731">
        <ele>249.19999694824</ele>
        <time>2019-08-19T16:03:14Z</time>
      </trkpt>
      <trkpt lat="44.52223" lon="4.63734">
        <ele>249.39999389648</ele>
        <time>2019-08-19T16:03:15Z</time>
      </trkpt>
      <trkpt lat="44.52224" lon="4.63735">
        <ele>249.60000610352</ele>
        <time>2019-08-19T16:03:16Z</time>
      </trkpt>
      <trkpt lat="44.52225" lon="4.63737">
        <ele>250.19999694824</ele>
        <time>2019-08-19T16:03:17Z</time>
      </trkpt>
      <trkpt lat="44.52226" lon="4.63739">
        <ele>250.39999389648</ele>
        <time>2019-08-19T16:03:18Z</time>
      </trkpt>
      <trkpt lat="44.52229" lon="4.63744">
        <ele>251.19999694824</ele>
        <time>2019-08-19T16:03:20Z</time>
      </trkpt>
      <trkpt lat="44.52231" lon="4.63748">
        <ele>251.60000610352</ele>
        <time>2019-08-19T16:03:22Z</time>
      </trkpt>
      <trkpt lat="44.52232" lon="4.63752">
        <ele>252.80000305176</ele>
        <time>2019-08-19T16:03:24Z</time>
      </trkpt>
      <trkpt lat="44.52234" lon="4.63756">
        <ele>253.19999694824</ele>
        <time>2019-08-19T16:03:26Z</time>
      </trkpt>
      <trkpt lat="44.52235" lon="4.63757">
        <ele>253.39999389648</ele>
        <time>2019-08-19T16:03:27Z</time>
      </trkpt>
      <trkpt lat="44.52236" lon="4.63759">
        <ele>253.60000610352</ele>
        <time>2019-08-19T16:03:28Z</time>
      </trkpt>
      <trkpt lat="44.52236" lon="4.63761">
        <ele>253.80000305176</ele>
        <time>2019-08-19T16:03:29Z</time>
      </trkpt>
      <trkpt lat="44.52237" lon="4.63762">
        <ele>254</ele>
        <time>2019-08-19T16:03:30Z</time>
      </trkpt>
      <trkpt lat="44.52238" lon="4.63766">
        <ele>255</ele>
        <time>2019-08-19T16:03:32Z</time>
      </trkpt>
      <trkpt lat="44.5224" lon="4.6377">
        <ele>255.39999389648</ele>
        <time>2019-08-19T16:03:34Z</time>
      </trkpt>
      <trkpt lat="44.52242" lon="4.63773">
        <ele>256</ele>
        <time>2019-08-19T16:03:36Z</time>
      </trkpt>
      <trkpt lat="44.52242" lon="4.63774">
        <ele>256.20001220703</ele>
        <time>2019-08-19T16:03:37Z</time>
      </trkpt>
      <trkpt lat="44.52243" lon="4.63776">
        <ele>256.20001220703</ele>
        <time>2019-08-19T16:03:38Z</time>
      </trkpt>
      <trkpt lat="44.52245" lon="4.63779">
        <ele>256.39999389648</ele>
        <time>2019-08-19T16:03:40Z</time>
      </trkpt>
      <trkpt lat="44.52247" lon="4.63783">
        <ele>256.79998779297</ele>
        <time>2019-08-19T16:03:42Z</time>
      </trkpt>
      <trkpt lat="44.52248" lon="4.63786">
        <ele>257.60000610352</ele>
        <time>2019-08-19T16:03:44Z</time>
      </trkpt>
      <trkpt lat="44.5225" lon="4.6379">
        <ele>258.20001220703</ele>
        <time>2019-08-19T16:03:46Z</time>
      </trkpt>
      <trkpt lat="44.52251" lon="4.63793">
        <ele>258.39999389648</ele>
        <time>2019-08-19T16:03:48Z</time>
      </trkpt>
      <trkpt lat="44.52251" lon="4.63794">
        <ele>258.60000610352</ele>
        <time>2019-08-19T16:03:49Z</time>
      </trkpt>
      <trkpt lat="44.52252" lon="4.63796">
        <ele>258.60000610352</ele>
        <time>2019-08-19T16:03:50Z</time>
      </trkpt>
      <trkpt lat="44.52254" lon="4.63799">
        <ele>259.20001220703</ele>
        <time>2019-08-19T16:03:52Z</time>
      </trkpt>
      <trkpt lat="44.52255" lon="4.63802">
        <ele>259.79998779297</ele>
        <time>2019-08-19T16:03:54Z</time>
      </trkpt>
      <trkpt lat="44.52256" lon="4.63804">
        <ele>260.20001220703</ele>
        <time>2019-08-19T16:03:55Z</time>
      </trkpt>
      <trkpt lat="44.52257" lon="4.63806">
        <ele>260.60000610352</ele>
        <time>2019-08-19T16:03:56Z</time>
      </trkpt>
      <trkpt lat="44.52258" lon="4.6381">
        <ele>261</ele>
        <time>2019-08-19T16:03:58Z</time>
      </trkpt>
      <trkpt lat="44.52259" lon="4.63813">
        <ele>261.60000610352</ele>
        <time>2019-08-19T16:04:00Z</time>
      </trkpt>
      <trkpt lat="44.52259" lon="4.63813">
        <ele>261.79998779297</ele>
        <time>2019-08-19T16:04:02Z</time>
      </trkpt>
      <trkpt lat="44.52259" lon="4.63814">
        <ele>262.20001220703</ele>
        <time>2019-08-19T16:04:04Z</time>
      </trkpt>
      <trkpt lat="44.5226" lon="4.63814">
        <ele>262.60000610352</ele>
        <time>2019-08-19T16:04:06Z</time>
      </trkpt>
      <trkpt lat="44.5226" lon="4.63815">
        <ele>263</ele>
        <time>2019-08-19T16:04:08Z</time>
      </trkpt>
      <trkpt lat="44.5226" lon="4.63815">
        <ele>263.39999389648</ele>
        <time>2019-08-19T16:04:10Z</time>
      </trkpt>
      <trkpt lat="44.5226" lon="4.63815">
        <ele>263.20001220703</ele>
        <time>2019-08-19T16:04:12Z</time>
      </trkpt>
      <trkpt lat="44.5226" lon="4.63815">
        <ele>263.39999389648</ele>
        <time>2019-08-19T16:04:14Z</time>
      </trkpt>
      <trkpt lat="44.5226" lon="4.63815">
        <ele>263.39999389648</ele>
        <time>2019-08-19T16:04:16Z</time>
      </trkpt>
      <trkpt lat="44.5226" lon="4.63815">
        <ele>263.39999389648</ele>
        <time>2019-08-19T16:04:18Z</time>
      </trkpt>
      <trkpt lat="44.5226" lon="4.63815">
        <ele>263.39999389648</ele>
        <time>2019-08-19T16:04:20Z</time>
      </trkpt>
      <trkpt lat="44.5226" lon="4.63815">
        <ele>263.39999389648</ele>
        <time>2019-08-19T16:04:22Z</time>
      </trkpt>
      <trkpt lat="44.5226" lon="4.63815">
        <ele>263.39999389648</ele>
        <time>2019-08-19T16:04:24Z</time>
      </trkpt>
      <trkpt lat="44.5226" lon="4.63815">
        <ele>263.39999389648</ele>
        <time>2019-08-19T16:04:26Z</time>
      </trkpt>
      <trkpt lat="44.5226" lon="4.63815">
        <ele>263.39999389648</ele>
        <time>2019-08-19T16:04:28Z</time>
      </trkpt>
      <trkpt lat="44.52261" lon="4.63816">
        <ele>263.39999389648</ele>
        <time>2019-08-19T16:04:30Z</time>
      </trkpt>
      <trkpt lat="44.52261" lon="4.63817">
        <ele>263.39999389648</ele>
        <time>2019-08-19T16:04:31Z</time>
      </trkpt>
      <trkpt lat="44.52262" lon="4.63818">
        <ele>263.60000610352</ele>
        <time>2019-08-19T16:04:32Z</time>
      </trkpt>
      <trkpt lat="44.52264" lon="4.6382">
        <ele>263.39999389648</ele>
        <time>2019-08-19T16:04:34Z</time>
      </trkpt>
      <trkpt lat="44.52267" lon="4.63823">
        <ele>263.60000610352</ele>
        <time>2019-08-19T16:04:36Z</time>
      </trkpt>
      <trkpt lat="44.5227" lon="4.63827">
        <ele>263.39999389648</ele>
        <time>2019-08-19T16:04:38Z</time>
      </trkpt>
      <trkpt lat="44.52271" lon="4.63829">
        <ele>263.39999389648</ele>
        <time>2019-08-19T16:04:39Z</time>
      </trkpt>
      <trkpt lat="44.52273" lon="4.63831">
        <ele>263.60000610352</ele>
        <time>2019-08-19T16:04:40Z</time>
      </trkpt>
      <trkpt lat="44.52276" lon="4.63835">
        <ele>263.79998779297</ele>
        <time>2019-08-19T16:04:42Z</time>
      </trkpt>
      <trkpt lat="44.52277" lon="4.63837">
        <ele>264</ele>
        <time>2019-08-19T16:04:43Z</time>
      </trkpt>
      <trkpt lat="44.52279" lon="4.63839">
        <ele>264.20001220703</ele>
        <time>2019-08-19T16:04:44Z</time>
      </trkpt>
      <trkpt lat="44.52282" lon="4.63842">
        <ele>265.20001220703</ele>
        <time>2019-08-19T16:04:46Z</time>
      </trkpt>
      <trkpt lat="44.52285" lon="4.63845">
        <ele>266.20001220703</ele>
        <time>2019-08-19T16:04:48Z</time>
      </trkpt>
      <trkpt lat="44.52287" lon="4.63847">
        <ele>266.39999389648</ele>
        <time>2019-08-19T16:04:49Z</time>
      </trkpt>
      <trkpt lat="44.52289" lon="4.63849">
        <ele>267</ele>
        <time>2019-08-19T16:04:50Z</time>
      </trkpt>
      <trkpt lat="44.52293" lon="4.63853">
        <ele>267.60000610352</ele>
        <time>2019-08-19T16:04:52Z</time>
      </trkpt>
      <trkpt lat="44.52298" lon="4.63856">
        <ele>268</ele>
        <time>2019-08-19T16:04:54Z</time>
      </trkpt>
      <trkpt lat="44.52299" lon="4.63858">
        <ele>268.20001220703</ele>
        <time>2019-08-19T16:04:55Z</time>
      </trkpt>
      <trkpt lat="44.52301" lon="4.6386">
        <ele>268.39999389648</ele>
        <time>2019-08-19T16:04:56Z</time>
      </trkpt>
      <trkpt lat="44.52305" lon="4.63863">
        <ele>268.79998779297</ele>
        <time>2019-08-19T16:04:58Z</time>
      </trkpt>
      <trkpt lat="44.52308" lon="4.63866">
        <ele>269.20001220703</ele>
        <time>2019-08-19T16:05:00Z</time>
      </trkpt>
      <trkpt lat="44.52312" lon="4.63869">
        <ele>269.79998779297</ele>
        <time>2019-08-19T16:05:02Z</time>
      </trkpt>
      <trkpt lat="44.52314" lon="4.63871">
        <ele>270.20001220703</ele>
        <time>2019-08-19T16:05:03Z</time>
      </trkpt>
      <trkpt lat="44.52317" lon="4.63873">
        <ele>270.39999389648</ele>
        <time>2019-08-19T16:05:04Z</time>
      </trkpt>
      <trkpt lat="44.52321" lon="4.63876">
        <ele>270.60000610352</ele>
        <time>2019-08-19T16:05:06Z</time>
      </trkpt>
      <trkpt lat="44.52325" lon="4.63878">
        <ele>270.60000610352</ele>
        <time>2019-08-19T16:05:08Z</time>
      </trkpt>
      <trkpt lat="44.5233" lon="4.63881">
        <ele>271</ele>
        <time>2019-08-19T16:05:10Z</time>
      </trkpt>
      <trkpt lat="44.52334" lon="4.63884">
        <ele>271.39999389648</ele>
        <time>2019-08-19T16:05:12Z</time>
      </trkpt>
      <trkpt lat="44.52339" lon="4.63887">
        <ele>272</ele>
        <time>2019-08-19T16:05:14Z</time>
      </trkpt>
      <trkpt lat="44.52341" lon="4.63889">
        <ele>272.20001220703</ele>
        <time>2019-08-19T16:05:15Z</time>
      </trkpt>
      <trkpt lat="44.52343" lon="4.63891">
        <ele>272.20001220703</ele>
        <time>2019-08-19T16:05:16Z</time>
      </trkpt>
      <trkpt lat="44.52346" lon="4.63894">
        <ele>272.39999389648</ele>
        <time>2019-08-19T16:05:18Z</time>
      </trkpt>
      <trkpt lat="44.5235" lon="4.63896">
        <ele>272.60000610352</ele>
        <time>2019-08-19T16:05:20Z</time>
      </trkpt>
      <trkpt lat="44.52351" lon="4.63898">
        <ele>272.79998779297</ele>
        <time>2019-08-19T16:05:21Z</time>
      </trkpt>
      <trkpt lat="44.52353" lon="4.63899">
        <ele>273.20001220703</ele>
        <time>2019-08-19T16:05:22Z</time>
      </trkpt>
      <trkpt lat="44.52358" lon="4.63902">
        <ele>273.60000610352</ele>
        <time>2019-08-19T16:05:24Z</time>
      </trkpt>
      <trkpt lat="44.52362" lon="4.63905">
        <ele>274.20001220703</ele>
        <time>2019-08-19T16:05:26Z</time>
      </trkpt>
      <trkpt lat="44.52364" lon="4.63907">
        <ele>274.39999389648</ele>
        <time>2019-08-19T16:05:27Z</time>
      </trkpt>
      <trkpt lat="44.52366" lon="4.63908">
        <ele>274.60000610352</ele>
        <time>2019-08-19T16:05:28Z</time>
      </trkpt>
      <trkpt lat="44.5237" lon="4.63912">
        <ele>274.60000610352</ele>
        <time>2019-08-19T16:05:30Z</time>
      </trkpt>
      <trkpt lat="44.52374" lon="4.63913">
        <ele>275.39999389648</ele>
        <time>2019-08-19T16:05:32Z</time>
      </trkpt>
      <trkpt lat="44.52377" lon="4.63915">
        <ele>276</ele>
        <time>2019-08-19T16:05:34Z</time>
      </trkpt>
      <trkpt lat="44.52378" lon="4.63917">
        <ele>276</ele>
        <time>2019-08-19T16:05:35Z</time>
      </trkpt>
      <trkpt lat="44.52379" lon="4.63919">
        <ele>276.39999389648</ele>
        <time>2019-08-19T16:05:36Z</time>
      </trkpt>
      <trkpt lat="44.52381" lon="4.6392">
        <ele>276.79998779297</ele>
        <time>2019-08-19T16:05:37Z</time>
      </trkpt>
      <trkpt lat="44.52381" lon="4.63921">
        <ele>277.20001220703</ele>
        <time>2019-08-19T16:05:38Z</time>
      </trkpt>
      <trkpt lat="44.52383" lon="4.63924">
        <ele>277.79998779297</ele>
        <time>2019-08-19T16:05:40Z</time>
      </trkpt>
      <trkpt lat="44.52386" lon="4.63927">
        <ele>278.20001220703</ele>
        <time>2019-08-19T16:05:42Z</time>
      </trkpt>
      <trkpt lat="44.52388" lon="4.6393">
        <ele>278.60000610352</ele>
        <time>2019-08-19T16:05:44Z</time>
      </trkpt>
      <trkpt lat="44.5239" lon="4.63932">
        <ele>278.79998779297</ele>
        <time>2019-08-19T16:05:45Z</time>
      </trkpt>
      <trkpt lat="44.52391" lon="4.63934">
        <ele>279.20001220703</ele>
        <time>2019-08-19T16:05:46Z</time>
      </trkpt>
      <trkpt lat="44.52392" lon="4.63936">
        <ele>279.60000610352</ele>
        <time>2019-08-19T16:05:47Z</time>
      </trkpt>
      <trkpt lat="44.52393" lon="4.63938">
        <ele>279.60000610352</ele>
        <time>2019-08-19T16:05:48Z</time>
      </trkpt>
      <trkpt lat="44.52395" lon="4.63942">
        <ele>280.60000610352</ele>
        <time>2019-08-19T16:05:50Z</time>
      </trkpt>
      <trkpt lat="44.52396" lon="4.63945">
        <ele>281</ele>
        <time>2019-08-19T16:05:52Z</time>
      </trkpt>
      <trkpt lat="44.52397" lon="4.63947">
        <ele>281.20001220703</ele>
        <time>2019-08-19T16:05:53Z</time>
      </trkpt>
      <trkpt lat="44.52398" lon="4.6395">
        <ele>281.79998779297</ele>
        <time>2019-08-19T16:05:54Z</time>
      </trkpt>
      <trkpt lat="44.52399" lon="4.63952">
        <ele>282</ele>
        <time>2019-08-19T16:05:55Z</time>
      </trkpt>
      <trkpt lat="44.52399" lon="4.63955">
        <ele>282.20001220703</ele>
        <time>2019-08-19T16:05:56Z</time>
      </trkpt>
      <trkpt lat="44.52399" lon="4.63957">
        <ele>282.39999389648</ele>
        <time>2019-08-19T16:05:57Z</time>
      </trkpt>
      <trkpt lat="44.52397" lon="4.63958">
        <ele>282.60000610352</ele>
        <time>2019-08-19T16:05:58Z</time>
      </trkpt>
      <trkpt lat="44.52394" lon="4.63959">
        <ele>283.20001220703</ele>
        <time>2019-08-19T16:06:00Z</time>
      </trkpt>
      <trkpt lat="44.52392" lon="4.6396">
        <ele>283.79998779297</ele>
        <time>2019-08-19T16:06:01Z</time>
      </trkpt>
      <trkpt lat="44.52391" lon="4.6396">
        <ele>284.20001220703</ele>
        <time>2019-08-19T16:06:02Z</time>
      </trkpt>
      <trkpt lat="44.52388" lon="4.6396">
        <ele>284.60000610352</ele>
        <time>2019-08-19T16:06:04Z</time>
      </trkpt>
      <trkpt lat="44.52385" lon="4.6396">
        <ele>285.20001220703</ele>
        <time>2019-08-19T16:06:06Z</time>
      </trkpt>
      <trkpt lat="44.52384" lon="4.6396">
        <ele>285.79998779297</ele>
        <time>2019-08-19T16:06:07Z</time>
      </trkpt>
      <trkpt lat="44.52382" lon="4.6396">
        <ele>286.20001220703</ele>
        <time>2019-08-19T16:06:08Z</time>
      </trkpt>
      <trkpt lat="44.52379" lon="4.63961">
        <ele>287.20001220703</ele>
        <time>2019-08-19T16:06:10Z</time>
      </trkpt>
      <trkpt lat="44.52377" lon="4.63961">
        <ele>288</ele>
        <time>2019-08-19T16:06:11Z</time>
      </trkpt>
      <trkpt lat="44.52376" lon="4.63961">
        <ele>289</ele>
        <time>2019-08-19T16:06:12Z</time>
      </trkpt>
      <trkpt lat="44.52375" lon="4.63961">
        <ele>289.39999389648</ele>
        <time>2019-08-19T16:06:13Z</time>
      </trkpt>
      <trkpt lat="44.52373" lon="4.63962">
        <ele>289.60000610352</ele>
        <time>2019-08-19T16:06:14Z</time>
      </trkpt>
      <trkpt lat="44.52371" lon="4.63962">
        <ele>290.20001220703</ele>
        <time>2019-08-19T16:06:16Z</time>
      </trkpt>
      <trkpt lat="44.52369" lon="4.63961">
        <ele>290.79998779297</ele>
        <time>2019-08-19T16:06:18Z</time>
      </trkpt>
      <trkpt lat="44.52368" lon="4.6396">
        <ele>291</ele>
        <time>2019-08-19T16:06:19Z</time>
      </trkpt>
      <trkpt lat="44.52366" lon="4.6396">
        <ele>291.20001220703</ele>
        <time>2019-08-19T16:06:20Z</time>
      </trkpt>
      <trkpt lat="44.52363" lon="4.6396">
        <ele>291.79998779297</ele>
        <time>2019-08-19T16:06:22Z</time>
      </trkpt>
      <trkpt lat="44.52361" lon="4.6396">
        <ele>292.60000610352</ele>
        <time>2019-08-19T16:06:24Z</time>
      </trkpt>
      <trkpt lat="44.5236" lon="4.6396">
        <ele>293</ele>
        <time>2019-08-19T16:06:26Z</time>
      </trkpt>
      <trkpt lat="44.5236" lon="4.63961">
        <ele>293.20001220703</ele>
        <time>2019-08-19T16:06:28Z</time>
      </trkpt>
      <trkpt lat="44.5236" lon="4.63961">
        <ele>293.39999389648</ele>
        <time>2019-08-19T16:06:30Z</time>
      </trkpt>
      <trkpt lat="44.5236" lon="4.63961">
        <ele>293.60000610352</ele>
        <time>2019-08-19T16:06:32Z</time>
      </trkpt>
      <trkpt lat="44.5236" lon="4.63961">
        <ele>294.20001220703</ele>
        <time>2019-08-19T16:06:34Z</time>
      </trkpt>
      <trkpt lat="44.5236" lon="4.63961">
        <ele>294.39999389648</ele>
        <time>2019-08-19T16:06:36Z</time>
      </trkpt>
      <trkpt lat="44.5236" lon="4.63961">
        <ele>294.60000610352</ele>
        <time>2019-08-19T16:06:38Z</time>
      </trkpt>
      <trkpt lat="44.5236" lon="4.63961">
        <ele>294.39999389648</ele>
        <time>2019-08-19T16:06:40Z</time>
      </trkpt>
      <trkpt lat="44.5236" lon="4.63961">
        <ele>294.60000610352</ele>
        <time>2019-08-19T16:06:42Z</time>
      </trkpt>
      <trkpt lat="44.5236" lon="4.63961">
        <ele>294.60000610352</ele>
        <time>2019-08-19T16:06:44Z</time>
      </trkpt>
      <trkpt lat="44.5236" lon="4.63961">
        <ele>294.60000610352</ele>
        <time>2019-08-19T16:06:46Z</time>
      </trkpt>
      <trkpt lat="44.5236" lon="4.63961">
        <ele>294.79998779297</ele>
        <time>2019-08-19T16:06:48Z</time>
      </trkpt>
      <trkpt lat="44.5236" lon="4.63961">
        <ele>294.60000610352</ele>
        <time>2019-08-19T16:06:50Z</time>
      </trkpt>
      <trkpt lat="44.5236" lon="4.63961">
        <ele>294.60000610352</ele>
        <time>2019-08-19T16:06:52Z</time>
      </trkpt>
      <trkpt lat="44.5236" lon="4.63961">
        <ele>294.60000610352</ele>
        <time>2019-08-19T16:06:54Z</time>
      </trkpt>
      <trkpt lat="44.5236" lon="4.63961">
        <ele>294.79998779297</ele>
        <time>2019-08-19T16:06:56Z</time>
      </trkpt>
      <trkpt lat="44.5236" lon="4.63961">
        <ele>294.79998779297</ele>
        <time>2019-08-19T16:06:58Z</time>
      </trkpt>
      <trkpt lat="44.5236" lon="4.63961">
        <ele>294.79998779297</ele>
        <time>2019-08-19T16:07:00Z</time>
      </trkpt>
      <trkpt lat="44.5236" lon="4.63961">
        <ele>294.60000610352</ele>
        <time>2019-08-19T16:07:02Z</time>
      </trkpt>
      <trkpt lat="44.5236" lon="4.63961">
        <ele>294.79998779297</ele>
        <time>2019-08-19T16:07:04Z</time>
      </trkpt>
      <trkpt lat="44.5236" lon="4.63961">
        <ele>294.60000610352</ele>
        <time>2019-08-19T16:07:06Z</time>
      </trkpt>
      <trkpt lat="44.5236" lon="4.63961">
        <ele>294.79998779297</ele>
        <time>2019-08-19T16:07:08Z</time>
      </trkpt>
      <trkpt lat="44.5236" lon="4.63961">
        <ele>294.79998779297</ele>
        <time>2019-08-19T16:07:10Z</time>
      </trkpt>
      <trkpt lat="44.52358" lon="4.6396">
        <ele>294.79998779297</ele>
        <time>2019-08-19T16:07:12Z</time>
      </trkpt>
      <trkpt lat="44.52356" lon="4.6396">
        <ele>294.79998779297</ele>
        <time>2019-08-19T16:07:14Z</time>
      </trkpt>
      <trkpt lat="44.52353" lon="4.6396">
        <ele>294.79998779297</ele>
        <time>2019-08-19T16:07:16Z</time>
      </trkpt>
      <trkpt lat="44.52349" lon="4.63959">
        <ele>294.79998779297</ele>
        <time>2019-08-19T16:07:18Z</time>
      </trkpt>
      <trkpt lat="44.52347" lon="4.63959">
        <ele>295</ele>
        <time>2019-08-19T16:07:19Z</time>
      </trkpt>
      <trkpt lat="44.52345" lon="4.63959">
        <ele>295</ele>
        <time>2019-08-19T16:07:20Z</time>
      </trkpt>
      <trkpt lat="44.52342" lon="4.63958">
        <ele>295</ele>
        <time>2019-08-19T16:07:22Z</time>
      </trkpt>
      <trkpt lat="44.52338" lon="4.63957">
        <ele>295.20001220703</ele>
        <time>2019-08-19T16:07:24Z</time>
      </trkpt>
      <trkpt lat="44.52336" lon="4.63957">
        <ele>295.39999389648</ele>
        <time>2019-08-19T16:07:25Z</time>
      </trkpt>
      <trkpt lat="44.52335" lon="4.63956">
        <ele>295.60000610352</ele>
        <time>2019-08-19T16:07:26Z</time>
      </trkpt>
      <trkpt lat="44.52331" lon="4.63956">
        <ele>296.20001220703</ele>
        <time>2019-08-19T16:07:28Z</time>
      </trkpt>
      <trkpt lat="44.52329" lon="4.63955">
        <ele>296.39999389648</ele>
        <time>2019-08-19T16:07:29Z</time>
      </trkpt>
      <trkpt lat="44.52328" lon="4.63955">
        <ele>296.79998779297</ele>
        <time>2019-08-19T16:07:30Z</time>
      </trkpt>
      <trkpt lat="44.52324" lon="4.63954">
        <ele>297.20001220703</ele>
        <time>2019-08-19T16:07:32Z</time>
      </trkpt>
      <trkpt lat="44.52321" lon="4.63953">
        <ele>297.39999389648</ele>
        <time>2019-08-19T16:07:34Z</time>
      </trkpt>
      <trkpt lat="44.5232" lon="4.63955">
        <ele>298.20001220703</ele>
        <time>2019-08-19T16:07:36Z</time>
      </trkpt>
      <trkpt lat="44.5232" lon="4.63956">
        <ele>298.39999389648</ele>
        <time>2019-08-19T16:07:37Z</time>
      </trkpt>
      <trkpt lat="44.52321" lon="4.63958">
        <ele>298.60000610352</ele>
        <time>2019-08-19T16:07:38Z</time>
      </trkpt>
      <trkpt lat="44.52323" lon="4.63961">
        <ele>299</ele>
        <time>2019-08-19T16:07:40Z</time>
      </trkpt>
      <trkpt lat="44.52326" lon="4.63964">
        <ele>299.39999389648</ele>
        <time>2019-08-19T16:07:42Z</time>
      </trkpt>
      <trkpt lat="44.52328" lon="4.63968">
        <ele>300</ele>
        <time>2019-08-19T16:07:44Z</time>
      </trkpt>
      <trkpt lat="44.52329" lon="4.6397">
        <ele>300.39999389648</ele>
        <time>2019-08-19T16:07:45Z</time>
      </trkpt>
      <trkpt lat="44.5233" lon="4.63972">
        <ele>301</ele>
        <time>2019-08-19T16:07:46Z</time>
      </trkpt>
      <trkpt lat="44.5233" lon="4.63973">
        <ele>301.60000610352</ele>
        <time>2019-08-19T16:07:47Z</time>
      </trkpt>
      <trkpt lat="44.52331" lon="4.63974">
        <ele>301.79998779297</ele>
        <time>2019-08-19T16:07:48Z</time>
      </trkpt>
      <trkpt lat="44.52331" lon="4.63974">
        <ele>302</ele>
        <time>2019-08-19T16:07:50Z</time>
      </trkpt>
      <trkpt lat="44.52331" lon="4.63974">
        <ele>302.20001220703</ele>
        <time>2019-08-19T16:07:51Z</time>
      </trkpt>
      <trkpt lat="44.52331" lon="4.63974">
        <ele>302.20001220703</ele>
        <time>2019-08-19T16:07:52Z</time>
      </trkpt>
      <trkpt lat="44.52331" lon="4.63974">
        <ele>302.79998779297</ele>
        <time>2019-08-19T16:07:54Z</time>
      </trkpt>
      <trkpt lat="44.52331" lon="4.63974">
        <ele>303</ele>
        <time>2019-08-19T16:07:56Z</time>
      </trkpt>
      <trkpt lat="44.52331" lon="4.63974">
        <ele>303</ele>
        <time>2019-08-19T16:07:58Z</time>
      </trkpt>
      <trkpt lat="44.52331" lon="4.63975">
        <ele>303.20001220703</ele>
        <time>2019-08-19T16:08:00Z</time>
      </trkpt>
      <trkpt lat="44.52331" lon="4.63975">
        <ele>303.39999389648</ele>
        <time>2019-08-19T16:08:02Z</time>
      </trkpt>
      <trkpt lat="44.52331" lon="4.63975">
        <ele>303.20001220703</ele>
        <time>2019-08-19T16:08:04Z</time>
      </trkpt>
      <trkpt lat="44.52331" lon="4.63975">
        <ele>303.20001220703</ele>
        <time>2019-08-19T16:08:06Z</time>
      </trkpt>
      <trkpt lat="44.52331" lon="4.63975">
        <ele>303.20001220703</ele>
        <time>2019-08-19T16:08:07Z</time>
      </trkpt>
      <trkpt lat="44.52331" lon="4.63975">
        <ele>303.39999389648</ele>
        <time>2019-08-19T16:08:08Z</time>
      </trkpt>
      <trkpt lat="44.52331" lon="4.63975">
        <ele>303.39999389648</ele>
        <time>2019-08-19T16:08:10Z</time>
      </trkpt>
      <trkpt lat="44.52331" lon="4.63975">
        <ele>303.20001220703</ele>
        <time>2019-08-19T16:08:12Z</time>
      </trkpt>
      <trkpt lat="44.52331" lon="4.63974">
        <ele>303.20001220703</ele>
        <time>2019-08-19T16:08:14Z</time>
      </trkpt>
      <trkpt lat="44.52331" lon="4.63975">
        <ele>303.39999389648</ele>
        <time>2019-08-19T16:08:16Z</time>
      </trkpt>
      <trkpt lat="44.52331" lon="4.63975">
        <ele>303.39999389648</ele>
        <time>2019-08-19T16:08:18Z</time>
      </trkpt>
      <trkpt lat="44.52331" lon="4.63975">
        <ele>303.39999389648</ele>
        <time>2019-08-19T16:08:20Z</time>
      </trkpt>
      <trkpt lat="44.52331" lon="4.63975">
        <ele>303.39999389648</ele>
        <time>2019-08-19T16:08:22Z</time>
      </trkpt>
      <trkpt lat="44.52331" lon="4.63975">
        <ele>303.39999389648</ele>
        <time>2019-08-19T16:08:24Z</time>
      </trkpt>
      <trkpt lat="44.52332" lon="4.63974">
        <ele>303.39999389648</ele>
        <time>2019-08-19T16:08:26Z</time>
      </trkpt>
      <trkpt lat="44.52334" lon="4.63974">
        <ele>303.39999389648</ele>
        <time>2019-08-19T16:08:27Z</time>
      </trkpt>
      <trkpt lat="44.52335" lon="4.63975">
        <ele>303.39999389648</ele>
        <time>2019-08-19T16:08:28Z</time>
      </trkpt>
      <trkpt lat="44.52337" lon="4.63977">
        <ele>303.60000610352</ele>
        <time>2019-08-19T16:08:29Z</time>
      </trkpt>
      <trkpt lat="44.52338" lon="4.63978">
        <ele>303.79998779297</ele>
        <time>2019-08-19T16:08:30Z</time>
      </trkpt>
      <trkpt lat="44.5234" lon="4.6398">
        <ele>303.79998779297</ele>
        <time>2019-08-19T16:08:31Z</time>
      </trkpt>
      <trkpt lat="44.52341" lon="4.63981">
        <ele>303.79998779297</ele>
        <time>2019-08-19T16:08:32Z</time>
      </trkpt>
      <trkpt lat="44.52344" lon="4.63985">
        <ele>304</ele>
        <time>2019-08-19T16:08:34Z</time>
      </trkpt>
      <trkpt lat="44.52347" lon="4.63987">
        <ele>304.20001220703</ele>
        <time>2019-08-19T16:08:36Z</time>
      </trkpt>
      <trkpt lat="44.52348" lon="4.63989">
        <ele>304.20001220703</ele>
        <time>2019-08-19T16:08:37Z</time>
      </trkpt>
      <trkpt lat="44.5235" lon="4.63991">
        <ele>304.39999389648</ele>
        <time>2019-08-19T16:08:38Z</time>
      </trkpt>
      <trkpt lat="44.52353" lon="4.63995">
        <ele>304.60000610352</ele>
        <time>2019-08-19T16:08:40Z</time>
      </trkpt>
      <trkpt lat="44.52357" lon="4.64">
        <ele>305</ele>
        <time>2019-08-19T16:08:42Z</time>
      </trkpt>
      <trkpt lat="44.5236" lon="4.64004">
        <ele>305.20001220703</ele>
        <time>2019-08-19T16:08:44Z</time>
      </trkpt>
      <trkpt lat="44.52362" lon="4.64006">
        <ele>305.39999389648</ele>
        <time>2019-08-19T16:08:45Z</time>
      </trkpt>
      <trkpt lat="44.52363" lon="4.64008">
        <ele>305.39999389648</ele>
        <time>2019-08-19T16:08:46Z</time>
      </trkpt>
      <trkpt lat="44.52366" lon="4.64012">
        <ele>305.60000610352</ele>
        <time>2019-08-19T16:08:48Z</time>
      </trkpt>
      <trkpt lat="44.52368" lon="4.64014">
        <ele>305.60000610352</ele>
        <time>2019-08-19T16:08:49Z</time>
      </trkpt>
      <trkpt lat="44.52369" lon="4.64016">
        <ele>305.79998779297</ele>
        <time>2019-08-19T16:08:50Z</time>
      </trkpt>
      <trkpt lat="44.52373" lon="4.64021">
        <ele>306</ele>
        <time>2019-08-19T16:08:52Z</time>
      </trkpt>
      <trkpt lat="44.52375" lon="4.64023">
        <ele>306.20001220703</ele>
        <time>2019-08-19T16:08:53Z</time>
      </trkpt>
      <trkpt lat="44.52376" lon="4.64024">
        <ele>306.20001220703</ele>
        <time>2019-08-19T16:08:54Z</time>
      </trkpt>
      <trkpt lat="44.52379" lon="4.64028">
        <ele>306.39999389648</ele>
        <time>2019-08-19T16:08:56Z</time>
      </trkpt>
      <trkpt lat="44.52383" lon="4.64032">
        <ele>306.79998779297</ele>
        <time>2019-08-19T16:08:58Z</time>
      </trkpt>
      <trkpt lat="44.52385" lon="4.64036">
        <ele>307</ele>
        <time>2019-08-19T16:09:00Z</time>
      </trkpt>
      <trkpt lat="44.52387" lon="4.64038">
        <ele>307</ele>
        <time>2019-08-19T16:09:01Z</time>
      </trkpt>
      <trkpt lat="44.52388" lon="4.6404">
        <ele>307.20001220703</ele>
        <time>2019-08-19T16:09:02Z</time>
      </trkpt>
      <trkpt lat="44.5239" lon="4.64043">
        <ele>307.39999389648</ele>
        <time>2019-08-19T16:09:04Z</time>
      </trkpt>
      <trkpt lat="44.52393" lon="4.64047">
        <ele>307.60000610352</ele>
        <time>2019-08-19T16:09:06Z</time>
      </trkpt>
      <trkpt lat="44.52395" lon="4.64051">
        <ele>307.79998779297</ele>
        <time>2019-08-19T16:09:08Z</time>
      </trkpt>
      <trkpt lat="44.52396" lon="4.64053">
        <ele>308</ele>
        <time>2019-08-19T16:09:09Z</time>
      </trkpt>
      <trkpt lat="44.52397" lon="4.64054">
        <ele>308.20001220703</ele>
        <time>2019-08-19T16:09:10Z</time>
      </trkpt>
      <trkpt lat="44.52398" lon="4.64056">
        <ele>308</ele>
        <time>2019-08-19T16:09:11Z</time>
      </trkpt>
      <trkpt lat="44.524" lon="4.64058">
        <ele>308.39999389648</ele>
        <time>2019-08-19T16:09:12Z</time>
      </trkpt>
      <trkpt lat="44.52403" lon="4.64063">
        <ele>308.79998779297</ele>
        <time>2019-08-19T16:09:14Z</time>
      </trkpt>
      <trkpt lat="44.52405" lon="4.64069">
        <ele>309</ele>
        <time>2019-08-19T16:09:16Z</time>
      </trkpt>
      <trkpt lat="44.52406" lon="4.64072">
        <ele>309</ele>
        <time>2019-08-19T16:09:17Z</time>
      </trkpt>
      <trkpt lat="44.52407" lon="4.64075">
        <ele>309</ele>
        <time>2019-08-19T16:09:18Z</time>
      </trkpt>
      <trkpt lat="44.52409" lon="4.6408">
        <ele>309.20001220703</ele>
        <time>2019-08-19T16:09:20Z</time>
      </trkpt>
      <trkpt lat="44.5241" lon="4.64086">
        <ele>309.60000610352</ele>
        <time>2019-08-19T16:09:22Z</time>
      </trkpt>
      <trkpt lat="44.52412" lon="4.64092">
        <ele>309.60000610352</ele>
        <time>2019-08-19T16:09:24Z</time>
      </trkpt>
      <trkpt lat="44.52413" lon="4.64098">
        <ele>309.79998779297</ele>
        <time>2019-08-19T16:09:26Z</time>
      </trkpt>
      <trkpt lat="44.52413" lon="4.64105">
        <ele>310</ele>
        <time>2019-08-19T16:09:28Z</time>
      </trkpt>
      <trkpt lat="44.52414" lon="4.64111">
        <ele>310.20001220703</ele>
        <time>2019-08-19T16:09:30Z</time>
      </trkpt>
      <trkpt lat="44.52414" lon="4.64117">
        <ele>310.39999389648</ele>
        <time>2019-08-19T16:09:32Z</time>
      </trkpt>
      <trkpt lat="44.52414" lon="4.64122">
        <ele>310.79998779297</ele>
        <time>2019-08-19T16:09:34Z</time>
      </trkpt>
      <trkpt lat="44.52413" lon="4.64127">
        <ele>311.20001220703</ele>
        <time>2019-08-19T16:09:36Z</time>
      </trkpt>
      <trkpt lat="44.52413" lon="4.64133">
        <ele>311.39999389648</ele>
        <time>2019-08-19T16:09:38Z</time>
      </trkpt>
      <trkpt lat="44.52412" lon="4.64136">
        <ele>311.39999389648</ele>
        <time>2019-08-19T16:09:39Z</time>
      </trkpt>
      <trkpt lat="44.52411" lon="4.64138">
        <ele>311.39999389648</ele>
        <time>2019-08-19T16:09:40Z</time>
      </trkpt>
      <trkpt lat="44.5241" lon="4.64142">
        <ele>311.60000610352</ele>
        <time>2019-08-19T16:09:42Z</time>
      </trkpt>
      <trkpt lat="44.52408" lon="4.64147">
        <ele>312</ele>
        <time>2019-08-19T16:09:44Z</time>
      </trkpt>
      <trkpt lat="44.52407" lon="4.64149">
        <ele>312.20001220703</ele>
        <time>2019-08-19T16:09:45Z</time>
      </trkpt>
      <trkpt lat="44.52406" lon="4.64152">
        <ele>312.20001220703</ele>
        <time>2019-08-19T16:09:46Z</time>
      </trkpt>
      <trkpt lat="44.52404" lon="4.64157">
        <ele>312.39999389648</ele>
        <time>2019-08-19T16:09:48Z</time>
      </trkpt>
      <trkpt lat="44.52403" lon="4.64159">
        <ele>312.39999389648</ele>
        <time>2019-08-19T16:09:49Z</time>
      </trkpt>
      <trkpt lat="44.52402" lon="4.64163">
        <ele>312.60000610352</ele>
        <time>2019-08-19T16:09:50Z</time>
      </trkpt>
      <trkpt lat="44.52402" lon="4.64166">
        <ele>312.79998779297</ele>
        <time>2019-08-19T16:09:51Z</time>
      </trkpt>
      <trkpt lat="44.52403" lon="4.64169">
        <ele>313</ele>
        <time>2019-08-19T16:09:52Z</time>
      </trkpt>
      <trkpt lat="44.52406" lon="4.64175">
        <ele>313.39999389648</ele>
        <time>2019-08-19T16:09:54Z</time>
      </trkpt>
      <trkpt lat="44.52409" lon="4.64181">
        <ele>313.39999389648</ele>
        <time>2019-08-19T16:09:56Z</time>
      </trkpt>
      <trkpt lat="44.52412" lon="4.64187">
        <ele>314</ele>
        <time>2019-08-19T16:09:58Z</time>
      </trkpt>
      <trkpt lat="44.52417" lon="4.64191">
        <ele>314.39999389648</ele>
        <time>2019-08-19T16:10:00Z</time>
      </trkpt>
      <trkpt lat="44.52421" lon="4.64195">
        <ele>314.60000610352</ele>
        <time>2019-08-19T16:10:02Z</time>
      </trkpt>
      <trkpt lat="44.52423" lon="4.64196">
        <ele>314.79998779297</ele>
        <time>2019-08-19T16:10:03Z</time>
      </trkpt>
      <trkpt lat="44.52425" lon="4.64198">
        <ele>314.79998779297</ele>
        <time>2019-08-19T16:10:04Z</time>
      </trkpt>
      <trkpt lat="44.52427" lon="4.64199">
        <ele>314.79998779297</ele>
        <time>2019-08-19T16:10:05Z</time>
      </trkpt>
      <trkpt lat="44.52429" lon="4.642">
        <ele>314.79998779297</ele>
        <time>2019-08-19T16:10:06Z</time>
      </trkpt>
      <trkpt lat="44.52431" lon="4.64201">
        <ele>315</ele>
        <time>2019-08-19T16:10:07Z</time>
      </trkpt>
      <trkpt lat="44.52433" lon="4.64202">
        <ele>315</ele>
        <time>2019-08-19T16:10:08Z</time>
      </trkpt>
      <trkpt lat="44.52438" lon="4.64205">
        <ele>315</ele>
        <time>2019-08-19T16:10:10Z</time>
      </trkpt>
      <trkpt lat="44.5244" lon="4.64206">
        <ele>315.39999389648</ele>
        <time>2019-08-19T16:10:11Z</time>
      </trkpt>
      <trkpt lat="44.52442" lon="4.64207">
        <ele>315.20001220703</ele>
        <time>2019-08-19T16:10:12Z</time>
      </trkpt>
      <trkpt lat="44.52447" lon="4.64209">
        <ele>315.79998779297</ele>
        <time>2019-08-19T16:10:14Z</time>
      </trkpt>
      <trkpt lat="44.52451" lon="4.64211">
        <ele>316.20001220703</ele>
        <time>2019-08-19T16:10:16Z</time>
      </trkpt>
      <trkpt lat="44.52454" lon="4.64212">
        <ele>316.39999389648</ele>
        <time>2019-08-19T16:10:18Z</time>
      </trkpt>
      <trkpt lat="44.52458" lon="4.64214">
        <ele>317</ele>
        <time>2019-08-19T16:10:20Z</time>
      </trkpt>
      <trkpt lat="44.52463" lon="4.64217">
        <ele>317.20001220703</ele>
        <time>2019-08-19T16:10:22Z</time>
      </trkpt>
      <trkpt lat="44.52468" lon="4.64219">
        <ele>317.60000610352</ele>
        <time>2019-08-19T16:10:24Z</time>
      </trkpt>
      <trkpt lat="44.5247" lon="4.64221">
        <ele>317.79998779297</ele>
        <time>2019-08-19T16:10:25Z</time>
      </trkpt>
      <trkpt lat="44.52472" lon="4.64222">
        <ele>318</ele>
        <time>2019-08-19T16:10:26Z</time>
      </trkpt>
      <trkpt lat="44.52475" lon="4.64223">
        <ele>318</ele>
        <time>2019-08-19T16:10:27Z</time>
      </trkpt>
      <trkpt lat="44.52477" lon="4.64224">
        <ele>318.20001220703</ele>
        <time>2019-08-19T16:10:28Z</time>
      </trkpt>
      <trkpt lat="44.52482" lon="4.64226">
        <ele>318.60000610352</ele>
        <time>2019-08-19T16:10:30Z</time>
      </trkpt>
      <trkpt lat="44.52487" lon="4.64228">
        <ele>318.79998779297</ele>
        <time>2019-08-19T16:10:32Z</time>
      </trkpt>
      <trkpt lat="44.52492" lon="4.64231">
        <ele>319.39999389648</ele>
        <time>2019-08-19T16:10:34Z</time>
      </trkpt>
      <trkpt lat="44.52497" lon="4.64235">
        <ele>319.79998779297</ele>
        <time>2019-08-19T16:10:36Z</time>
      </trkpt>
      <trkpt lat="44.52503" lon="4.64239">
        <ele>331.20001220703</ele>
        <time>2021-04-15T13:49:32Z</time>
      </trkpt>
      <trkpt lat="44.52512" lon="4.64243">
        <ele>331.39999389648</ele>
        <time>2021-04-15T13:49:35Z</time>
      </trkpt>
      <trkpt lat="44.52518" lon="4.64245">
        <ele>332</ele>
        <time>2021-04-15T13:49:37Z</time>
      </trkpt>
      <trkpt lat="44.52521" lon="4.64247">
        <ele>332</ele>
        <time>2021-04-15T13:49:38Z</time>
      </trkpt>
      <trkpt lat="44.52527" lon="4.6425">
        <ele>332.39999389648</ele>
        <time>2021-04-15T13:49:40Z</time>
      </trkpt>
      <trkpt lat="44.5253" lon="4.64252">
        <ele>332.39999389648</ele>
        <time>2021-04-15T13:49:41Z</time>
      </trkpt>
      <trkpt lat="44.52536" lon="4.64255">
        <ele>332.39999389648</ele>
        <time>2021-04-15T13:49:43Z</time>
      </trkpt>
      <trkpt lat="44.5254" lon="4.64256">
        <ele>332.60000610352</ele>
        <time>2021-04-15T13:49:44Z</time>
      </trkpt>
      <trkpt lat="44.52543" lon="4.64257">
        <ele>332.79998779297</ele>
        <time>2021-04-15T13:49:45Z</time>
      </trkpt>
      <trkpt lat="44.52546" lon="4.64258">
        <ele>332.79998779297</ele>
        <time>2021-04-15T13:49:46Z</time>
      </trkpt>
      <trkpt lat="44.52549" lon="4.6426">
        <ele>333.20001220703</ele>
        <time>2021-04-15T13:49:47Z</time>
      </trkpt>
      <trkpt lat="44.52552" lon="4.64261">
        <ele>333.39999389648</ele>
        <time>2021-04-15T13:49:48Z</time>
      </trkpt>
      <trkpt lat="44.52555" lon="4.64262">
        <ele>334</ele>
        <time>2021-04-15T13:49:49Z</time>
      </trkpt>
      <trkpt lat="44.52559" lon="4.64263">
        <ele>334.20001220703</ele>
        <time>2021-04-15T13:49:50Z</time>
      </trkpt>
      <trkpt lat="44.52562" lon="4.64263">
        <ele>334.39999389648</ele>
        <time>2021-04-15T13:49:51Z</time>
      </trkpt>
      <trkpt lat="44.52565" lon="4.64263">
        <ele>334.39999389648</ele>
        <time>2021-04-15T13:49:52Z</time>
      </trkpt>
      <trkpt lat="44.52568" lon="4.64263">
        <ele>334.39999389648</ele>
        <time>2021-04-15T13:49:53Z</time>
      </trkpt>
      <trkpt lat="44.52571" lon="4.64263">
        <ele>334.60000610352</ele>
        <time>2021-04-15T13:49:54Z</time>
      </trkpt>
      <trkpt lat="44.52574" lon="4.64262">
        <ele>334.60000610352</ele>
        <time>2021-04-15T13:49:55Z</time>
      </trkpt>
      <trkpt lat="44.52578" lon="4.64262">
        <ele>334.79998779297</ele>
        <time>2021-04-15T13:49:56Z</time>
      </trkpt>
      <trkpt lat="44.52581" lon="4.64263">
        <ele>334.79998779297</ele>
        <time>2021-04-15T13:49:57Z</time>
      </trkpt>
      <trkpt lat="44.52585" lon="4.64263">
        <ele>334.79998779297</ele>
        <time>2021-04-15T13:49:58Z</time>
      </trkpt>
      <trkpt lat="44.52588" lon="4.64265">
        <ele>335.20001220703</ele>
        <time>2021-04-15T13:49:59Z</time>
      </trkpt>
      <trkpt lat="44.52591" lon="4.64267">
        <ele>335.39999389648</ele>
        <time>2021-04-15T13:50:00Z</time>
      </trkpt>
      <trkpt lat="44.52594" lon="4.64269">
        <ele>335.39999389648</ele>
        <time>2021-04-15T13:50:01Z</time>
      </trkpt>
      <trkpt lat="44.52596" lon="4.64271">
        <ele>335.39999389648</ele>
        <time>2021-04-15T13:50:02Z</time>
      </trkpt>
      <trkpt lat="44.52599" lon="4.64275">
        <ele>335.60000610352</ele>
        <time>2021-04-15T13:50:03Z</time>
      </trkpt>
      <trkpt lat="44.526" lon="4.64278">
        <ele>335.60000610352</ele>
        <time>2021-04-15T13:50:04Z</time>
      </trkpt>
      <trkpt lat="44.52602" lon="4.64282">
        <ele>335.60000610352</ele>
        <time>2021-04-15T13:50:05Z</time>
      </trkpt>
      <trkpt lat="44.52604" lon="4.64285">
        <ele>335.79998779297</ele>
        <time>2021-04-15T13:50:06Z</time>
      </trkpt>
      <trkpt lat="44.52606" lon="4.64289">
        <ele>335.79998779297</ele>
        <time>2021-04-15T13:50:07Z</time>
      </trkpt>
      <trkpt lat="44.52607" lon="4.64292">
        <ele>335.79998779297</ele>
        <time>2021-04-15T13:50:08Z</time>
      </trkpt>
      <trkpt lat="44.52608" lon="4.64296">
        <ele>336.39999389648</ele>
        <time>2021-04-15T13:50:09Z</time>
      </trkpt>
      <trkpt lat="44.52609" lon="4.64299">
        <ele>336.60000610352</ele>
        <time>2021-04-15T13:50:10Z</time>
      </trkpt>
      <trkpt lat="44.52609" lon="4.64301">
        <ele>337</ele>
        <time>2021-04-15T13:50:11Z</time>
      </trkpt>
      <trkpt lat="44.52609" lon="4.64302">
        <ele>337.60000610352</ele>
        <time>2021-04-15T13:50:12Z</time>
      </trkpt>
      <trkpt lat="44.52609" lon="4.64303">
        <ele>337.79998779297</ele>
        <time>2021-04-15T13:50:13Z</time>
      </trkpt>
      <trkpt lat="44.52609" lon="4.64302">
        <ele>338.39999389648</ele>
        <time>2021-04-15T13:50:14Z</time>
      </trkpt>
      <trkpt lat="44.52608" lon="4.64308">
        <ele>338.79998779297</ele>
        <time>2021-04-15T13:50:18Z</time>
      </trkpt>
      <trkpt lat="44.52608" lon="4.64311">
        <ele>338.60000610352</ele>
        <time>2021-04-15T13:50:19Z</time>
      </trkpt>
      <trkpt lat="44.52607" lon="4.64315">
        <ele>338.60000610352</ele>
        <time>2021-04-15T13:50:20Z</time>
      </trkpt>
      <trkpt lat="44.52607" lon="4.6432">
        <ele>338.79998779297</ele>
        <time>2021-04-15T13:50:21Z</time>
      </trkpt>
      <trkpt lat="44.52606" lon="4.64324">
        <ele>338.79998779297</ele>
        <time>2021-04-15T13:50:22Z</time>
      </trkpt>
      <trkpt lat="44.52606" lon="4.64329">
        <ele>338.79998779297</ele>
        <time>2021-04-15T13:50:23Z</time>
      </trkpt>
      <trkpt lat="44.52605" lon="4.64335">
        <ele>338.79998779297</ele>
        <time>2021-04-15T13:50:24Z</time>
      </trkpt>
      <trkpt lat="44.52604" lon="4.6434">
        <ele>338.79998779297</ele>
        <time>2021-04-15T13:50:25Z</time>
      </trkpt>
      <trkpt lat="44.52603" lon="4.64345">
        <ele>338.79998779297</ele>
        <time>2021-04-15T13:50:26Z</time>
      </trkpt>
      <trkpt lat="44.526" lon="4.64351">
        <ele>338.79998779297</ele>
        <time>2021-04-15T13:50:27Z</time>
      </trkpt>
      <trkpt lat="44.52597" lon="4.64356">
        <ele>338.79998779297</ele>
        <time>2021-04-15T13:50:28Z</time>
      </trkpt>
      <trkpt lat="44.52594" lon="4.64361">
        <ele>338.79998779297</ele>
        <time>2021-04-15T13:50:29Z</time>
      </trkpt>
      <trkpt lat="44.52592" lon="4.64365">
        <ele>338.60000610352</ele>
        <time>2021-04-15T13:50:30Z</time>
      </trkpt>
      <trkpt lat="44.52589" lon="4.64367">
        <ele>338.60000610352</ele>
        <time>2021-04-15T13:50:31Z</time>
      </trkpt>
      <trkpt lat="44.52586" lon="4.64368">
        <ele>338.39999389648</ele>
        <time>2021-04-15T13:50:32Z</time>
      </trkpt>
      <trkpt lat="44.52584" lon="4.64368">
        <ele>338.20001220703</ele>
        <time>2021-04-15T13:50:33Z</time>
      </trkpt>
      <trkpt lat="44.52581" lon="4.64367">
        <ele>338.20001220703</ele>
        <time>2021-04-15T13:50:34Z</time>
      </trkpt>
      <trkpt lat="44.52575" lon="4.64364">
        <ele>337.39999389648</ele>
        <time>2021-04-15T13:50:36Z</time>
      </trkpt>
      <trkpt lat="44.52572" lon="4.64362">
        <ele>336.79998779297</ele>
        <time>2021-04-15T13:50:37Z</time>
      </trkpt>
      <trkpt lat="44.5257" lon="4.64359">
        <ele>336.39999389648</ele>
        <time>2021-04-15T13:50:38Z</time>
      </trkpt>
      <trkpt lat="44.52567" lon="4.64357">
        <ele>336.20001220703</ele>
        <time>2021-04-15T13:50:39Z</time>
      </trkpt>
      <trkpt lat="44.52566" lon="4.64354">
        <ele>336.39999389648</ele>
        <time>2021-04-15T13:50:40Z</time>
      </trkpt>
      <trkpt lat="44.52565" lon="4.64351">
        <ele>336.39999389648</ele>
        <time>2021-04-15T13:50:41Z</time>
      </trkpt>
      <trkpt lat="44.52565" lon="4.64347">
        <ele>336.39999389648</ele>
        <time>2021-04-15T13:50:42Z</time>
      </trkpt>
      <trkpt lat="44.52564" lon="4.64344">
        <ele>336.39999389648</ele>
        <time>2021-04-15T13:50:43Z</time>
      </trkpt>
      <trkpt lat="44.52563" lon="4.64341">
        <ele>336</ele>
        <time>2021-04-15T13:50:44Z</time>
      </trkpt>
      <trkpt lat="44.52562" lon="4.64338">
        <ele>336.20001220703</ele>
        <time>2021-04-15T13:50:45Z</time>
      </trkpt>
      <trkpt lat="44.5256" lon="4.64335">
        <ele>336.20001220703</ele>
        <time>2021-04-15T13:50:46Z</time>
      </trkpt>
      <trkpt lat="44.52559" lon="4.64332">
        <ele>336.20001220703</ele>
        <time>2021-04-15T13:50:47Z</time>
      </trkpt>
      <trkpt lat="44.52556" lon="4.64327">
        <ele>336.20001220703</ele>
        <time>2021-04-15T13:50:49Z</time>
      </trkpt>
      <trkpt lat="44.52552" lon="4.64317">
        <ele>336.79998779297</ele>
        <time>2021-04-15T13:50:52Z</time>
      </trkpt>
      <trkpt lat="44.52549" lon="4.64306">
        <ele>337.39999389648</ele>
        <time>2021-04-15T13:50:55Z</time>
      </trkpt>
      <trkpt lat="44.52547" lon="4.64305">
        <ele>337.60000610352</ele>
        <time>2021-04-15T13:50:56Z</time>
      </trkpt>
      <trkpt lat="44.52546" lon="4.64304">
        <ele>337.60000610352</ele>
        <time>2021-04-15T13:50:57Z</time>
      </trkpt>
      <trkpt lat="44.52544" lon="4.64303">
        <ele>337.79998779297</ele>
        <time>2021-04-15T13:50:58Z</time>
      </trkpt>
      <trkpt lat="44.52532" lon="4.64302">
        <ele>338</ele>
        <time>2021-04-15T13:51:02Z</time>
      </trkpt>
      <trkpt lat="44.52514" lon="4.64296">
        <ele>338.20001220703</ele>
        <time>2021-04-15T13:51:07Z</time>
      </trkpt>
      <trkpt lat="44.52516" lon="4.64291">
        <ele>333.6015625</ele>
      </trkpt>
      <trkpt lat="44.52475" lon="4.64282">
        <ele>334.01171875</ele>
      </trkpt>
      <trkpt lat="44.52466" lon="4.64281">
        <ele>334.35546875</ele>
      </trkpt>
      <trkpt lat="44.52459" lon="4.6428">
        <ele>334.79296875</ele>
      </trkpt>
      <trkpt lat="44.52452" lon="4.64279">
        <ele>335.203125</ele>
      </trkpt>
      <trkpt lat="44.52448" lon="4.64278">
        <ele>335.4140625</ele>
      </trkpt>
      <trkpt lat="44.52431" lon="4.64275">
        <ele>336.421875</ele>
      </trkpt>
      <trkpt lat="44.52419" lon="4.64275">
        <ele>337.47265625</ele>
      </trkpt>
      <trkpt lat="44.52415" lon="4.64276">
        <ele>337.95703125</ele>
      </trkpt>
      <trkpt lat="44.5241" lon="4.64276">
        <ele>338.5703125</ele>
      </trkpt>
      <trkpt lat="44.52402" lon="4.64275">
        <ele>339.41015625</ele>
      </trkpt>
      <trkpt lat="44.52395" lon="4.64275">
        <ele>340.125</ele>
      </trkpt>
      <trkpt lat="44.5239" lon="4.64274">
        <ele>340.5859375</ele>
      </trkpt>
      <trkpt lat="44.52385" lon="4.64274">
        <ele>341.13671875</ele>
      </trkpt>
      <trkpt lat="44.5238" lon="4.64279">
        <ele>341.859375</ele>
      </trkpt>
      <trkpt lat="44.52378" lon="4.64275">
        <ele>341.83984375</ele>
      </trkpt>
      <trkpt lat="44.52373" lon="4.64271">
        <ele>341.91796875</ele>
      </trkpt>
      <trkpt lat="44.52368" lon="4.64265">
        <ele>341.95703125</ele>
      </trkpt>
      <trkpt lat="44.52358" lon="4.64254">
        <ele>342.203125</ele>
      </trkpt>
      <trkpt lat="44.5233" lon="4.64231">
        <ele>343.1796875</ele>
      </trkpt>
      <trkpt lat="44.5232" lon="4.64224">
        <ele>343.01953125</ele>
      </trkpt>
      <trkpt lat="44.52318" lon="4.64221">
        <ele>342.953125</ele>
      </trkpt>
      <trkpt lat="44.52314" lon="4.64217">
        <ele>342.890625</ele>
      </trkpt>
      <trkpt lat="44.52313" lon="4.64214">
        <ele>342.828125</ele>
      </trkpt>
      <trkpt lat="44.52311" lon="4.64207">
        <ele>342.69921875</ele>
      </trkpt>
      <trkpt lat="44.523" lon="4.64193">
        <ele>342.24609375</ele>
      </trkpt>
      <trkpt lat="44.52286" lon="4.64177">
        <ele>342.21484375</ele>
      </trkpt>
      <trkpt lat="44.52274" lon="4.64169">
        <ele>341.6640625</ele>
      </trkpt>
      <trkpt lat="44.52269" lon="4.64166">
        <ele>341.484375</ele>
      </trkpt>
      <trkpt lat="44.52262" lon="4.64161">
        <ele>341.3125</ele>
      </trkpt>
      <trkpt lat="44.52253" lon="4.64154">
        <ele>341.1328125</ele>
      </trkpt>
      <trkpt lat="44.52251" lon="4.64151">
        <ele>341.1328125</ele>
      </trkpt>
      <trkpt lat="44.52247" lon="4.64148">
        <ele>341.15625</ele>
      </trkpt>
      <trkpt lat="44.52244" lon="4.64144">
        <ele>341.2109375</ele>
      </trkpt>
      <trkpt lat="44.52242" lon="4.64141">
        <ele>341.29296875</ele>
      </trkpt>
      <trkpt lat="44.52237" lon="4.64133">
        <ele>341.35546875</ele>
      </trkpt>
      <trkpt lat="44.52229" lon="4.64114">
        <ele>341.61328125</ele>
      </trkpt>
      <trkpt lat="44.52205" lon="4.64073">
        <ele>340.640625</ele>
      </trkpt>
      <trkpt lat="44.522" lon="4.64064">
        <ele>340.484375</ele>
      </trkpt>
      <trkpt lat="44.52195" lon="4.64058">
        <ele>340.328125</ele>
      </trkpt>
      <trkpt lat="44.52192" lon="4.64055">
        <ele>340.16796875</ele>
      </trkpt>
      <trkpt lat="44.52184" lon="4.6405">
        <ele>339.82421875</ele>
      </trkpt>
      <trkpt lat="44.52173" lon="4.64043">
        <ele>339.53125</ele>
      </trkpt>
      <trkpt lat="44.52154" lon="4.64032">
        <ele>339.19921875</ele>
      </trkpt>
      <trkpt lat="44.52148" lon="4.64029">
        <ele>339.15234375</ele>
      </trkpt>
      <trkpt lat="44.52146" lon="4.64026">
        <ele>338.96875</ele>
      </trkpt>
      <trkpt lat="44.52137" lon="4.64011">
        <ele>337.60546875</ele>
      </trkpt>
      <trkpt lat="44.52132" lon="4.64002">
        <ele>336.75390625</ele>
      </trkpt>
      <trkpt lat="44.52119" lon="4.63992">
        <ele>335.8359375</ele>
      </trkpt>
      <trkpt lat="44.52096" lon="4.63973">
        <ele>333.76953125</ele>
      </trkpt>
      <trkpt lat="44.52089" lon="4.6397">
        <ele>332.84375</ele>
      </trkpt>
      <trkpt lat="44.52086" lon="4.63969">
        <ele>332.53125</ele>
      </trkpt>
      <trkpt lat="44.52083" lon="4.63967">
        <ele>332.18359375</ele>
      </trkpt>
      <trkpt lat="44.52077" lon="4.63965">
        <ele>331.5390625</ele>
      </trkpt>
      <trkpt lat="44.52071" lon="4.63962">
        <ele>330.71875</ele>
      </trkpt>
      <trkpt lat="44.52067" lon="4.63958">
        <ele>330.1640625</ele>
      </trkpt>
      <trkpt lat="44.52065" lon="4.63955">
        <ele>329.67578125</ele>
      </trkpt>
      <trkpt lat="44.52061" lon="4.63944">
        <ele>328.55859375</ele>
      </trkpt>
      <trkpt lat="44.52059" lon="4.63923">
        <ele>326.703125</ele>
      </trkpt>
      <trkpt lat="44.52059" lon="4.63918">
        <ele>326.265625</ele>
      </trkpt>
      <trkpt lat="44.52057" lon="4.63912">
        <ele>325.82421875</ele>
      </trkpt>
      <trkpt lat="44.52054" lon="4.63907">
        <ele>325.359375</ele>
      </trkpt>
      <trkpt lat="44.52052" lon="4.63903">
        <ele>324.77734375</ele>
      </trkpt>
      <trkpt lat="44.52046" lon="4.63898">
        <ele>323.87109375</ele>
      </trkpt>
      <trkpt lat="44.52042" lon="4.63895">
        <ele>323.21875</ele>
      </trkpt>
      <trkpt lat="44.52038" lon="4.63891">
        <ele>322.68359375</ele>
      </trkpt>
      <trkpt lat="44.52036" lon="4.63886">
        <ele>322.26171875</ele>
      </trkpt>
      <trkpt lat="44.52032" lon="4.63879">
        <ele>321.35546875</ele>
      </trkpt>
      <trkpt lat="44.52023" lon="4.63861">
        <ele>318.89453125</ele>
      </trkpt>
      <trkpt lat="44.52021" lon="4.63856">
        <ele>318.30859375</ele>
      </trkpt>
      <trkpt lat="44.52017" lon="4.63854">
        <ele>317.9140625</ele>
      </trkpt>
      <trkpt lat="44.52013" lon="4.6385">
        <ele>317.4140625</ele>
      </trkpt>
      <trkpt lat="44.51978" lon="4.63829">
        <ele>307.703125</ele>
      </trkpt>
      <trkpt lat="44.51971" lon="4.63823">
        <ele>305.47265625</ele>
      </trkpt>
      <trkpt lat="44.51955" lon="4.6381">
        <ele>301.0078125</ele>
      </trkpt>
      <trkpt lat="44.51943" lon="4.63802">
        <ele>298.03125</ele>
      </trkpt>
      <trkpt lat="44.51935" lon="4.63799">
        <ele>296.46484375</ele>
      </trkpt>
      <trkpt lat="44.51936" lon="4.63797">
        <ele>298.23</ele>
      </trkpt>
      <trkpt lat="44.51935" lon="4.63813">
        <ele>298.51</ele>
      </trkpt>
      <trkpt lat="44.51923" lon="4.63833">
        <ele>295.62</ele>
      </trkpt>
      <trkpt lat="44.51915" lon="4.63852">
        <ele>290.21</ele>
      </trkpt>
      <trkpt lat="44.51913" lon="4.63884">
        <ele>285.77</ele>
      </trkpt>
      <trkpt lat="44.51917" lon="4.63893">
        <ele>284.37</ele>
      </trkpt>
      <trkpt lat="44.51917" lon="4.63908">
        <ele>282.8</ele>
      </trkpt>
      <trkpt lat="44.51909" lon="4.6392">
        <ele>280.02</ele>
      </trkpt>
      <trkpt lat="44.51897" lon="4.63945">
        <ele>277.85</ele>
      </trkpt>
      <trkpt lat="44.51889" lon="4.63938">
        <ele>294.37</ele>
      </trkpt>
      <trkpt lat="44.5186" lon="4.63944">
        <ele>286.27</ele>
      </trkpt>
      <trkpt lat="44.51849" lon="4.63944">
        <ele>284.28</ele>
      </trkpt>
      <trkpt lat="44.5182" lon="4.63952">
        <ele>279.68</ele>
      </trkpt>
      <trkpt lat="44.5181" lon="4.63951">
        <ele>277.83</ele>
      </trkpt>
      <trkpt lat="44.51792" lon="4.63952">
        <ele>273.42</ele>
      </trkpt>
      <trkpt lat="44.51784" lon="4.63957">
        <ele>272.45</ele>
      </trkpt>
      <trkpt lat="44.51774" lon="4.63956">
        <ele>272.45</ele>
      </trkpt>
      <trkpt lat="44.51765" lon="4.63952">
        <ele>267.98</ele>
      </trkpt>
      <trkpt lat="44.51755" lon="4.63956">
        <ele>265.07</ele>
      </trkpt>
      <trkpt lat="44.51736" lon="4.6396">
        <ele>260.42</ele>
      </trkpt>
      <trkpt lat="44.51726" lon="4.63958">
        <ele>258.71</ele>
      </trkpt>
      <trkpt lat="44.51707" lon="4.6396">
        <ele>255.53</ele>
      </trkpt>
      <trkpt lat="44.51699" lon="4.63966">
        <ele>253.99</ele>
      </trkpt>
      <trkpt lat="44.51689" lon="4.63967">
        <ele>252.18</ele>
      </trkpt>
      <trkpt lat="44.51681" lon="4.63974">
        <ele>252.18</ele>
      </trkpt>
      <trkpt lat="44.51672" lon="4.63976">
        <ele>249.45</ele>
      </trkpt>
      <trkpt lat="44.51644" lon="4.63974">
        <ele>246.68</ele>
      </trkpt>
      <trkpt lat="44.51635" lon="4.63979">
        <ele>244.49</ele>
      </trkpt>
      <trkpt lat="44.51625" lon="4.63981">
        <ele>244.49</ele>
      </trkpt>
      <trkpt lat="44.51606" lon="4.63993">
        <ele>242.05</ele>
      </trkpt>
      <trkpt lat="44.5159" lon="4.6401">
        <ele>237.64</ele>
      </trkpt>
      <trkpt lat="44.51581" lon="4.64013">
        <ele>235.62</ele>
      </trkpt>
      <trkpt lat="44.51572" lon="4.64012">
        <ele>233.89</ele>
      </trkpt>
      <trkpt lat="44.51562" lon="4.64017">
        <ele>232.23</ele>
      </trkpt>
      <trkpt lat="44.51543" lon="4.64029">
        <ele>228.38</ele>
      </trkpt>
      <trkpt lat="44.51535" lon="4.6404">
        <ele>226.28</ele>
      </trkpt>
      <trkpt lat="44.51527" lon="4.64047">
        <ele>224.89</ele>
      </trkpt>
      <trkpt lat="44.51518" lon="4.64051">
        <ele>222.84</ele>
      </trkpt>
      <trkpt lat="44.515" lon="4.64066">
        <ele>218.92</ele>
      </trkpt>
      <trkpt lat="44.51481" lon="4.64096">
        <ele>213.96</ele>
      </trkpt>
      <trkpt lat="44.51455" lon="4.64118">
        <ele>208.14</ele>
      </trkpt>
      <trkpt lat="44.51445" lon="4.6412">
        <ele>206.79</ele>
      </trkpt>
      <trkpt lat="44.5143" lon="4.64103">
        <ele>206.12</ele>
      </trkpt>
      <trkpt lat="44.51402" lon="4.64097">
        <ele>203.58</ele>
      </trkpt>
      <trkpt lat="44.51384" lon="4.64084">
        <ele>203.62</ele>
      </trkpt>
      <trkpt lat="44.51371" lon="4.64082">
        <ele>202.85</ele>
      </trkpt>
      <trkpt lat="44.5135" lon="4.64075">
        <ele>202.12</ele>
      </trkpt>
      <trkpt lat="44.51307" lon="4.64074">
        <ele>200.88</ele>
      </trkpt>
      <trkpt lat="44.51296" lon="4.64077">
        <ele>200.95</ele>
      </trkpt>
      <trkpt lat="44.51277" lon="4.64087">
        <ele>200.91</ele>
      </trkpt>
      <trkpt lat="44.5126" lon="4.64103">
        <ele>201.24</ele>
      </trkpt>
      <trkpt lat="44.51261" lon="4.64102">
        <ele>199.94</ele>
      </trkpt>
      <trkpt lat="44.51234" lon="4.64146">
        <ele>198.9</ele>
      </trkpt>
      <trkpt lat="44.51192" lon="4.64231">
        <ele>196.03</ele>
      </trkpt>
      <trkpt lat="44.51192" lon="4.64258">
        <ele>194.34</ele>
      </trkpt>
      <trkpt lat="44.51195" lon="4.64269">
        <ele>193.3</ele>
      </trkpt>
      <trkpt lat="44.51175" lon="4.64318">
        <ele>185.6</ele>
      </trkpt>
      <trkpt lat="44.51158" lon="4.64335">
        <ele>182.3</ele>
      </trkpt>
      <trkpt lat="44.51162" lon="4.64403">
        <ele>177.43</ele>
      </trkpt>
      <trkpt lat="44.51165" lon="4.64471">
        <ele>172.2</ele>
      </trkpt>
      <trkpt lat="44.51178" lon="4.64517">
        <ele>167.66</ele>
      </trkpt>
      <trkpt lat="44.51179" lon="4.6454">
        <ele>166.56</ele>
      </trkpt>
      <trkpt lat="44.51178" lon="4.64562">
        <ele>163.57</ele>
      </trkpt>
      <trkpt lat="44.5117" lon="4.64611">
        <ele>157.2</ele>
      </trkpt>
      <trkpt lat="44.51158" lon="4.64638">
        <ele>154.54</ele>
      </trkpt>
      <trkpt lat="44.51143" lon="4.64658">
        <ele>153.47</ele>
      </trkpt>
      <trkpt lat="44.51131" lon="4.64686">
        <ele>153.25</ele>
      </trkpt>
      <trkpt lat="44.51106" lon="4.64709">
        <ele>153.25</ele>
      </trkpt>
      <trkpt lat="44.51088" lon="4.64738">
        <ele>153.25</ele>
      </trkpt>
      <trkpt lat="44.51079" lon="4.64758">
        <ele>153.25</ele>
      </trkpt>
      <trkpt lat="44.51084" lon="4.64795">
        <ele>153.25</ele>
      </trkpt>
      <trkpt lat="44.51085" lon="4.64823">
        <ele>153.25</ele>
      </trkpt>
      <trkpt lat="44.51082" lon="4.64853">
        <ele>153.25</ele>
      </trkpt>
      <trkpt lat="44.51067" lon="4.64928">
        <ele>153.25</ele>
      </trkpt>
      <trkpt lat="44.51067" lon="4.64947">
        <ele>153.25</ele>
      </trkpt>
      <trkpt lat="44.51072" lon="4.64959">
        <ele>153.25</ele>
      </trkpt>
      <trkpt lat="44.51077" lon="4.64963">
        <ele>153.25</ele>
      </trkpt>
      <trkpt lat="44.5108" lon="4.6497">
        <ele>153.25</ele>
      </trkpt>
      <trkpt lat="44.51086" lon="4.64991">
        <ele>153.25</ele>
      </trkpt>
      <trkpt lat="44.51089" lon="4.65013">
        <ele>153.25</ele>
      </trkpt>
      <trkpt lat="44.51087" lon="4.65042">
        <ele>153.25</ele>
      </trkpt>
      <trkpt lat="44.51083" lon="4.6506">
        <ele>153.25</ele>
      </trkpt>
      <trkpt lat="44.5108" lon="4.65067">
        <ele>153.25</ele>
      </trkpt>
      <trkpt lat="44.51074" lon="4.65071">
        <ele>153.25</ele>
      </trkpt>
      <trkpt lat="44.51083" lon="4.65071">
        <ele>154.09</ele>
      </trkpt>
      <trkpt lat="44.51092" lon="4.65076">
        <ele>154.67</ele>
      </trkpt>
      <trkpt lat="44.51131" lon="4.65112">
        <ele>156</ele>
      </trkpt>
      <trkpt lat="44.51169" lon="4.65148">
        <ele>157.85</ele>
      </trkpt>
      <trkpt lat="44.51202" lon="4.65172">
        <ele>158.68</ele>
      </trkpt>
      <trkpt lat="44.51243" lon="4.65177">
        <ele>160.26</ele>
      </trkpt>
      <trkpt lat="44.51265" lon="4.65175">
        <ele>161.11</ele>
      </trkpt>
      <trkpt lat="44.51301" lon="4.65126">
        <ele>163.03</ele>
      </trkpt>
      <trkpt lat="44.51332" lon="4.65069">
        <ele>169.77</ele>
      </trkpt>
      <trkpt lat="44.51338" lon="4.65061">
        <ele>170.51</ele>
      </trkpt>
      <trkpt lat="44.51358" lon="4.65091">
        <ele>168.25</ele>
      </trkpt>
      <trkpt lat="44.5137" lon="4.6509">
        <ele>168.69</ele>
      </trkpt>
      <trkpt lat="44.5139" lon="4.65082">
        <ele>169.63</ele>
      </trkpt>
      <trkpt lat="44.514" lon="4.65076">
        <ele>169.78</ele>
      </trkpt>
      <trkpt lat="44.51417" lon="4.6506">
        <ele>170.45</ele>
      </trkpt>
      <trkpt lat="44.51437" lon="4.65047">
        <ele>170.93</ele>
      </trkpt>
      <trkpt lat="44.51446" lon="4.65044">
        <ele>170.89</ele>
      </trkpt>
      <trkpt lat="44.51456" lon="4.65044">
        <ele>170.78</ele>
      </trkpt>
      <trkpt lat="44.51465" lon="4.65048">
        <ele>170.57</ele>
      </trkpt>
      <trkpt lat="44.51474" lon="4.65048">
        <ele>170.77</ele>
      </trkpt>
      <trkpt lat="44.51497" lon="4.65042">
        <ele>171.84</ele>
      </trkpt>
      <trkpt lat="44.51507" lon="4.65037">
        <ele>172.78</ele>
      </trkpt>
      <trkpt lat="44.51526" lon="4.65017">
        <ele>176.24</ele>
      </trkpt>
      <trkpt lat="44.5155" lon="4.65007">
        <ele>179.81</ele>
      </trkpt>
      <trkpt lat="44.51567" lon="4.65002">
        <ele>182.96</ele>
      </trkpt>
      <trkpt lat="44.51583" lon="4.64996">
        <ele>187.05</ele>
      </trkpt>
      <trkpt lat="44.51596" lon="4.64994">
        <ele>188.91</ele>
      </trkpt>
      <trkpt lat="44.5161" lon="4.64997">
        <ele>190.41</ele>
      </trkpt>
      <trkpt lat="44.5162" lon="4.65">
        <ele>191.01</ele>
      </trkpt>
      <trkpt lat="44.5164" lon="4.65013">
        <ele>192.63</ele>
      </trkpt>
      <trkpt lat="44.51655" lon="4.6503">
        <ele>191.19</ele>
      </trkpt>
      <trkpt lat="44.51678" lon="4.6505">
        <ele>193.77</ele>
      </trkpt>
      <trkpt lat="44.51697" lon="4.65073">
        <ele>195.92</ele>
      </trkpt>
      <trkpt lat="44.51699" lon="4.6509">
        <ele>194.41</ele>
      </trkpt>
      <trkpt lat="44.51688" lon="4.65091">
        <ele>194.41</ele>
      </trkpt>
      <trkpt lat="44.51676" lon="4.65087">
        <ele>193.67</ele>
      </trkpt>
      <trkpt lat="44.51667" lon="4.65079">
        <ele>192.23</ele>
      </trkpt>
      <trkpt lat="44.51657" lon="4.65075">
        <ele>190.34</ele>
      </trkpt>
      <trkpt lat="44.51644" lon="4.65072">
        <ele>188.32</ele>
      </trkpt>
      <trkpt lat="44.51619" lon="4.65072">
        <ele>183.96</ele>
      </trkpt>
      <trkpt lat="44.51599" lon="4.65071">
        <ele>180.47</ele>
      </trkpt>
      <trkpt lat="44.51581" lon="4.65077">
        <ele>178.79</ele>
      </trkpt>
      <trkpt lat="44.51578" lon="4.65093">
        <ele>180.92</ele>
      </trkpt>
      <trkpt lat="44.51573" lon="4.65106">
        <ele>182.21</ele>
      </trkpt>
      <trkpt lat="44.51553" lon="4.65111">
        <ele>179.85</ele>
      </trkpt>
      <trkpt lat="44.51542" lon="4.65116">
        <ele>180.48</ele>
      </trkpt>
      <trkpt lat="44.51488" lon="4.65142">
        <ele>180.16</ele>
      </trkpt>
      <trkpt lat="44.51479" lon="4.6515">
        <ele>181.19</ele>
      </trkpt>
      <trkpt lat="44.51474" lon="4.65168">
        <ele>185.15</ele>
      </trkpt>
      <trkpt lat="44.51466" lon="4.65179">
        <ele>186.39</ele>
      </trkpt>
      <trkpt lat="44.51461" lon="4.65195">
        <ele>189.17</ele>
      </trkpt>
      <trkpt lat="44.5146" lon="4.65209">
        <ele>191.44</ele>
      </trkpt>
      <trkpt lat="44.51462" lon="4.65226">
        <ele>194.38</ele>
      </trkpt>
      <trkpt lat="44.51467" lon="4.65242">
        <ele>196.37</ele>
      </trkpt>
      <trkpt lat="44.51486" lon="4.65262">
        <ele>200.87</ele>
      </trkpt>
      <trkpt lat="44.51499" lon="4.65272">
        <ele>204.96</ele>
      </trkpt>
      <trkpt lat="44.51514" lon="4.6528">
        <ele>208.61</ele>
      </trkpt>
      <trkpt lat="44.51528" lon="4.65285">
        <ele>211.18</ele>
      </trkpt>
      <trkpt lat="44.51541" lon="4.65292">
        <ele>213.32</ele>
      </trkpt>
      <trkpt lat="44.51568" lon="4.65305">
        <ele>218.85</ele>
      </trkpt>
      <trkpt lat="44.5158" lon="4.65307">
        <ele>220.35</ele>
      </trkpt>
      <trkpt lat="44.51619" lon="4.65308">
        <ele>223.76</ele>
      </trkpt>
      <trkpt lat="44.51632" lon="4.653">
        <ele>224.25</ele>
      </trkpt>
      <trkpt lat="44.51656" lon="4.65297">
        <ele>224.6</ele>
      </trkpt>
      <trkpt lat="44.51666" lon="4.653">
        <ele>224.1</ele>
      </trkpt>
      <trkpt lat="44.51684" lon="4.65315">
        <ele>223.95</ele>
      </trkpt>
      <trkpt lat="44.51712" lon="4.65343">
        <ele>223.23</ele>
      </trkpt>
      <trkpt lat="44.51736" lon="4.65373">
        <ele>223.78</ele>
      </trkpt>
      <trkpt lat="44.51735" lon="4.65388">
        <ele>226.05</ele>
      </trkpt>
      <trkpt lat="44.517" lon="4.65425">
        <ele>229.93</ele>
      </trkpt>
      <trkpt lat="44.51699" lon="4.65441">
        <ele>230.42</ele>
      </trkpt>
      <trkpt lat="44.51702" lon="4.65455">
        <ele>231.21</ele>
      </trkpt>
      <trkpt lat="44.51708" lon="4.65469">
        <ele>232.4</ele>
      </trkpt>
      <trkpt lat="44.51731" lon="4.65471">
        <ele>235.33</ele>
      </trkpt>
      <trkpt lat="44.51742" lon="4.65477">
        <ele>237.57</ele>
      </trkpt>
      <trkpt lat="44.51755" lon="4.6548">
        <ele>238.77</ele>
      </trkpt>
      <trkpt lat="44.51774" lon="4.65498">
        <ele>242.61</ele>
      </trkpt>
      <trkpt lat="44.51797" lon="4.65518">
        <ele>245.33</ele>
      </trkpt>
      <trkpt lat="44.51802" lon="4.65532">
        <ele>247.45</ele>
      </trkpt>
      <trkpt lat="44.51815" lon="4.65539">
        <ele>248.81</ele>
      </trkpt>
      <trkpt lat="44.51824" lon="4.65537">
        <ele>249.23</ele>
      </trkpt>
      <trkpt lat="44.51845" lon="4.65542">
        <ele>250.71</ele>
      </trkpt>
      <trkpt lat="44.51856" lon="4.65553">
        <ele>252.08</ele>
      </trkpt>
      <trkpt lat="44.51853" lon="4.65567">
        <ele>253.07</ele>
      </trkpt>
      <trkpt lat="44.51847" lon="4.65578">
        <ele>254.3</ele>
      </trkpt>
      <trkpt lat="44.51844" lon="4.65594">
        <ele>254.3</ele>
      </trkpt>
      <trkpt lat="44.51845" lon="4.65636">
        <ele>256.23</ele>
      </trkpt>
      <trkpt lat="44.5185" lon="4.65711">
        <ele>256.05</ele>
      </trkpt>
      <trkpt lat="44.51855" lon="4.65787">
        <ele>255.14</ele>
      </trkpt>
      <trkpt lat="44.51855" lon="4.65815">
        <ele>255.94</ele>
      </trkpt>
      <trkpt lat="44.51847" lon="4.65884">
        <ele>255.92</ele>
      </trkpt>
      <trkpt lat="44.51842" lon="4.65896">
        <ele>255.53</ele>
      </trkpt>
      <trkpt lat="44.51833" lon="4.65903">
        <ele>254.23</ele>
      </trkpt>
      <trkpt lat="44.51823" lon="4.65907">
        <ele>254.23</ele>
      </trkpt>
      <trkpt lat="44.51815" lon="4.65914">
        <ele>253.89</ele>
      </trkpt>
      <trkpt lat="44.51808" lon="4.65922">
        <ele>253.13</ele>
      </trkpt>
      <trkpt lat="44.51803" lon="4.65934">
        <ele>251.83</ele>
      </trkpt>
      <trkpt lat="44.51779" lon="4.65962">
        <ele>248.53</ele>
      </trkpt>
      <trkpt lat="44.51773" lon="4.65974">
        <ele>248.08</ele>
      </trkpt>
      <trkpt lat="44.51766" lon="4.66">
        <ele>245.4</ele>
      </trkpt>
      <trkpt lat="44.51747" lon="4.66037">
        <ele>243.12</ele>
      </trkpt>
      <trkpt lat="44.51739" lon="4.66064">
        <ele>241.39</ele>
      </trkpt>
      <trkpt lat="44.51725" lon="4.66103">
        <ele>239.08</ele>
      </trkpt>
      <trkpt lat="44.51706" lon="4.6614">
        <ele>237.51</ele>
      </trkpt>
      <trkpt lat="44.51691" lon="4.66181">
        <ele>234.61</ele>
      </trkpt>
      <trkpt lat="44.51678" lon="4.66202">
        <ele>234.87</ele>
      </trkpt>
      <trkpt lat="44.51675" lon="4.66214">
        <ele>234.77</ele>
      </trkpt>
      <trkpt lat="44.51671" lon="4.66242">
        <ele>234.31</ele>
      </trkpt>
      <trkpt lat="44.51675" lon="4.66256">
        <ele>233.71</ele>
      </trkpt>
      <trkpt lat="44.51704" lon="4.66256">
        <ele>234.57</ele>
      </trkpt>
      <trkpt lat="44.51728" lon="4.66252">
        <ele>235.58</ele>
      </trkpt>
      <trkpt lat="44.51817" lon="4.66254">
        <ele>234.77</ele>
      </trkpt>
      <trkpt lat="44.51831" lon="4.66249">
        <ele>234.16</ele>
      </trkpt>
      <trkpt lat="44.51856" lon="4.66222">
        <ele>233.69</ele>
      </trkpt>
      <trkpt lat="44.5187" lon="4.66216">
        <ele>233.66</ele>
      </trkpt>
      <trkpt lat="44.51938" lon="4.66209">
        <ele>234.57</ele>
      </trkpt>
      <trkpt lat="44.51965" lon="4.66211">
        <ele>234.71</ele>
      </trkpt>
      <trkpt lat="44.51983" lon="4.66221">
        <ele>233.79</ele>
      </trkpt>
      <trkpt lat="44.51965" lon="4.66211">
        <ele>234.71</ele>
      </trkpt>
      <trkpt lat="44.51952" lon="4.6621">
        <ele>234.74</ele>
      </trkpt>
      <trkpt lat="44.51952" lon="4.6624">
        <ele>234.32</ele>
      </trkpt>
      <trkpt lat="44.51953" lon="4.66278">
        <ele>239</ele>
      </trkpt>
      <trkpt lat="44.51956" lon="4.66293">
        <ele>241.23</ele>
      </trkpt>
      <trkpt lat="44.51957" lon="4.66308">
        <ele>242.97</ele>
      </trkpt>
      <trkpt lat="44.51954" lon="4.66325">
        <ele>245.38</ele>
      </trkpt>
      <trkpt lat="44.51955" lon="4.66339">
        <ele>247.72</ele>
      </trkpt>
      <trkpt lat="44.51969" lon="4.6641">
        <ele>260.02</ele>
      </trkpt>
      <trkpt lat="44.51982" lon="4.66446">
        <ele>265.1</ele>
      </trkpt>
      <trkpt lat="44.51983" lon="4.66461">
        <ele>267.19</ele>
      </trkpt>
      <trkpt lat="44.51993" lon="4.66465">
        <ele>268.07</ele>
      </trkpt>
      <trkpt lat="44.52002" lon="4.66473">
        <ele>269.72</ele>
      </trkpt>
      <trkpt lat="44.52011" lon="4.66477">
        <ele>270.83</ele>
      </trkpt>
      <trkpt lat="44.52029" lon="4.66494">
        <ele>273.8</ele>
      </trkpt>
      <trkpt lat="44.5203" lon="4.6651">
        <ele>276.3</ele>
      </trkpt>
      <trkpt lat="44.52026" lon="4.66535">
        <ele>277.17</ele>
      </trkpt>
      <trkpt lat="44.52026" lon="4.66552">
        <ele>278.01</ele>
      </trkpt>
      <trkpt lat="44.52029" lon="4.66567">
        <ele>278.9</ele>
      </trkpt>
      <trkpt lat="44.52047" lon="4.66586">
        <ele>281.36</ele>
      </trkpt>
      <trkpt lat="44.52066" lon="4.666">
        <ele>283.94</ele>
      </trkpt>
      <trkpt lat="44.52098" lon="4.66638">
        <ele>289.69</ele>
      </trkpt>
      <trkpt lat="44.52134" lon="4.66675">
        <ele>293.11</ele>
      </trkpt>
      <trkpt lat="44.52141" lon="4.66682">
        <ele>293.46</ele>
      </trkpt>
      <trkpt lat="44.52162" lon="4.66693">
        <ele>294.19</ele>
      </trkpt>
      <trkpt lat="44.52181" lon="4.66707">
        <ele>295.74</ele>
      </trkpt>
      <trkpt lat="44.52196" lon="4.66728">
        <ele>297.62</ele>
      </trkpt>
      <trkpt lat="44.52215" lon="4.66739">
        <ele>299.71</ele>
      </trkpt>
      <trkpt lat="44.52216" lon="4.66752">
        <ele>300.27</ele>
      </trkpt>
      <trkpt lat="44.522" lon="4.66769">
        <ele>299.73</ele>
      </trkpt>
      <trkpt lat="44.52191" lon="4.66774">
        <ele>298.65</ele>
      </trkpt>
      <trkpt lat="44.52182" lon="4.66775">
        <ele>297.4</ele>
      </trkpt>
      <trkpt lat="44.52167" lon="4.66789">
        <ele>294.73</ele>
      </trkpt>
      <trkpt lat="44.52148" lon="4.66798">
        <ele>291.38</ele>
      </trkpt>
      <trkpt lat="44.52132" lon="4.66811">
        <ele>288.82</ele>
      </trkpt>
      <trkpt lat="44.52095" lon="4.66829">
        <ele>284.53</ele>
      </trkpt>
      <trkpt lat="44.52069" lon="4.66854">
        <ele>282.87</ele>
      </trkpt>
      <trkpt lat="44.52059" lon="4.66861">
        <ele>280.61</ele>
      </trkpt>
      <trkpt lat="44.52043" lon="4.66879">
        <ele>277.8</ele>
      </trkpt>
      <trkpt lat="44.52033" lon="4.66883">
        <ele>276.19</ele>
      </trkpt>
      <trkpt lat="44.52024" lon="4.66891">
        <ele>274.46</ele>
      </trkpt>
      <trkpt lat="44.52016" lon="4.669">
        <ele>273.21</ele>
      </trkpt>
      <trkpt lat="44.51984" lon="4.66953">
        <ele>267.42</ele>
      </trkpt>
      <trkpt lat="44.51965" lon="4.66992">
        <ele>266.21</ele>
      </trkpt>
      <trkpt lat="44.51936" lon="4.67024">
        <ele>268.24</ele>
      </trkpt>
      <trkpt lat="44.51916" lon="4.67041">
        <ele>270.74</ele>
      </trkpt>
      <trkpt lat="44.51897" lon="4.67054">
        <ele>272.27</ele>
      </trkpt>
      <trkpt lat="44.5186" lon="4.67073">
        <ele>273.46</ele>
      </trkpt>
      <trkpt lat="44.5181" lon="4.67105">
        <ele>273.58</ele>
      </trkpt>
      <trkpt lat="44.51783" lon="4.67118">
        <ele>272.66</ele>
      </trkpt>
      <trkpt lat="44.51775" lon="4.67128">
        <ele>272.28</ele>
      </trkpt>
      <trkpt lat="44.51757" lon="4.67162">
        <ele>270.69</ele>
      </trkpt>
      <trkpt lat="44.51749" lon="4.67172">
        <ele>269.77</ele>
      </trkpt>
      <trkpt lat="44.51739" lon="4.67181">
        <ele>269.03</ele>
      </trkpt>
      <trkpt lat="44.5173" lon="4.67185">
        <ele>268.36</ele>
      </trkpt>
      <trkpt lat="44.5172" lon="4.67184">
        <ele>267.65</ele>
      </trkpt>
      <trkpt lat="44.5171" lon="4.67186">
        <ele>266.81</ele>
      </trkpt>
      <trkpt lat="44.51655" lon="4.67218">
        <ele>263.78</ele>
      </trkpt>
      <trkpt lat="44.51643" lon="4.67225">
        <ele>263.78</ele>
      </trkpt>
      <trkpt lat="44.51633" lon="4.67235">
        <ele>264.23</ele>
      </trkpt>
      <trkpt lat="44.51621" lon="4.6726">
        <ele>264.84</ele>
      </trkpt>
      <trkpt lat="44.51618" lon="4.67277">
        <ele>264.86</ele>
      </trkpt>
      <trkpt lat="44.51619" lon="4.67308">
        <ele>264.55</ele>
      </trkpt>
      <trkpt lat="44.51615" lon="4.67326">
        <ele>264.35</ele>
      </trkpt>
      <trkpt lat="44.51615" lon="4.67353">
        <ele>263.85</ele>
      </trkpt>
      <trkpt lat="44.51612" lon="4.67381">
        <ele>263.73</ele>
      </trkpt>
      <trkpt lat="44.51599" lon="4.67422">
        <ele>263.95</ele>
      </trkpt>
      <trkpt lat="44.51602" lon="4.67435">
        <ele>264.19</ele>
      </trkpt>
      <trkpt lat="44.51617" lon="4.67458">
        <ele>264.37</ele>
      </trkpt>
      <trkpt lat="44.51625" lon="4.67468">
        <ele>264.26</ele>
      </trkpt>
      <trkpt lat="44.51624" lon="4.67469">
        <ele>264.34</ele>
      </trkpt>
      <trkpt lat="44.51621" lon="4.67498">
        <ele>264.3</ele>
      </trkpt>
      <trkpt lat="44.51584" lon="4.67604">
        <ele>258.21</ele>
      </trkpt>
      <trkpt lat="44.51583" lon="4.67617">
        <ele>256.79</ele>
      </trkpt>
      <trkpt lat="44.51575" lon="4.67642">
        <ele>254.35</ele>
      </trkpt>
      <trkpt lat="44.51567" lon="4.67684">
        <ele>250.42</ele>
      </trkpt>
      <trkpt lat="44.5156" lon="4.67696">
        <ele>249.59</ele>
      </trkpt>
      <trkpt lat="44.51551" lon="4.67706">
        <ele>249.71</ele>
      </trkpt>
      <trkpt lat="44.51527" lon="4.6772">
        <ele>250.58</ele>
      </trkpt>
      <trkpt lat="44.51515" lon="4.67723">
        <ele>251.19</ele>
      </trkpt>
      <trkpt lat="44.51503" lon="4.67729">
        <ele>251.51</ele>
      </trkpt>
      <trkpt lat="44.51493" lon="4.67731">
        <ele>251.51</ele>
      </trkpt>
      <trkpt lat="44.51485" lon="4.67738">
        <ele>251.46</ele>
      </trkpt>
      <trkpt lat="44.51458" lon="4.6778">
        <ele>248.87</ele>
      </trkpt>
      <trkpt lat="44.51439" lon="4.678">
        <ele>245.8</ele>
      </trkpt>
      <trkpt lat="44.5142" lon="4.67815">
        <ele>244.22</ele>
      </trkpt>
      <trkpt lat="44.5141" lon="4.67811">
        <ele>244.39</ele>
      </trkpt>
      <trkpt lat="44.5141" lon="4.6774">
        <ele>249.35</ele>
      </trkpt>
      <trkpt lat="44.51408" lon="4.67725">
        <ele>249.14</ele>
      </trkpt>
      <trkpt lat="44.51406" lon="4.67683">
        <ele>248.27</ele>
      </trkpt>
      <trkpt lat="44.51402" lon="4.67655">
        <ele>247.9</ele>
      </trkpt>
      <trkpt lat="44.51394" lon="4.67646">
        <ele>247.17</ele>
      </trkpt>
      <trkpt lat="44.51384" lon="4.67641">
        <ele>246.08</ele>
      </trkpt>
      <trkpt lat="44.51375" lon="4.67639">
        <ele>245.01</ele>
      </trkpt>
      <trkpt lat="44.51356" lon="4.67631">
        <ele>242.67</ele>
      </trkpt>
      <trkpt lat="44.51347" lon="4.67624">
        <ele>241.73</ele>
      </trkpt>
      <trkpt lat="44.51338" lon="4.67623">
        <ele>240.57</ele>
      </trkpt>
      <trkpt lat="44.51329" lon="4.67626">
        <ele>240.57</ele>
      </trkpt>
      <trkpt lat="44.51302" lon="4.67643">
        <ele>235.14</ele>
      </trkpt>
      <trkpt lat="44.51274" lon="4.67659">
        <ele>231.15</ele>
      </trkpt>
      <trkpt lat="44.51255" lon="4.67664">
        <ele>228.8</ele>
      </trkpt>
      <trkpt lat="44.51226" lon="4.67664">
        <ele>225.17</ele>
      </trkpt>
      <trkpt lat="44.51205" lon="4.67668">
        <ele>221.65</ele>
      </trkpt>
      <trkpt lat="44.51179" lon="4.67682">
        <ele>215.39</ele>
      </trkpt>
      <trkpt lat="44.5117" lon="4.67689">
        <ele>212.62</ele>
      </trkpt>
      <trkpt lat="44.5116" lon="4.67692">
        <ele>210.37</ele>
      </trkpt>
      <trkpt lat="44.51144" lon="4.6771">
        <ele>205.19</ele>
      </trkpt>
      <trkpt lat="44.51111" lon="4.67736">
        <ele>194.72</ele>
      </trkpt>
      <trkpt lat="44.51083" lon="4.67748">
        <ele>187.49</ele>
      </trkpt>
      <trkpt lat="44.51054" lon="4.67756">
        <ele>181.01</ele>
      </trkpt>
      <trkpt lat="44.51036" lon="4.67763">
        <ele>177.99</ele>
      </trkpt>
      <trkpt lat="44.51018" lon="4.67772">
        <ele>173.92</ele>
      </trkpt>
      <trkpt lat="44.51009" lon="4.67774">
        <ele>172.03</ele>
      </trkpt>
      <trkpt lat="44.50999" lon="4.67775">
        <ele>171.03</ele>
      </trkpt>
      <trkpt lat="44.50985" lon="4.6777">
        <ele>170.73</ele>
      </trkpt>
      <trkpt lat="44.50975" lon="4.67761">
        <ele>170.97</ele>
      </trkpt>
      <trkpt lat="44.50964" lon="4.67747">
        <ele>172.02</ele>
      </trkpt>
      <trkpt lat="44.50954" lon="4.67729">
        <ele>174.83</ele>
      </trkpt>
      <trkpt lat="44.50936" lon="4.67715">
        <ele>174.42</ele>
      </trkpt>
      <trkpt lat="44.50923" lon="4.67708">
        <ele>172.85</ele>
      </trkpt>
      <trkpt lat="44.50916" lon="4.67699">
        <ele>173.05</ele>
      </trkpt>
      <trkpt lat="44.50909" lon="4.67686">
        <ele>173.98</ele>
      </trkpt>
      <trkpt lat="44.50905" lon="4.67668">
        <ele>174.89</ele>
      </trkpt>
      <trkpt lat="44.50901" lon="4.67623">
        <ele>177.67</ele>
      </trkpt>
      <trkpt lat="44.5089" lon="4.67599">
        <ele>177.44</ele>
      </trkpt>
      <trkpt lat="44.50882" lon="4.67604">
        <ele>175.03</ele>
      </trkpt>
      <trkpt lat="44.50868" lon="4.67652">
        <ele>169.03</ele>
      </trkpt>
      <trkpt lat="44.50863" lon="4.67664">
        <ele>167.32</ele>
      </trkpt>
      <trkpt lat="44.50855" lon="4.67672">
        <ele>164.85</ele>
      </trkpt>
      <trkpt lat="44.50846" lon="4.67677">
        <ele>163.16</ele>
      </trkpt>
      <trkpt lat="44.50836" lon="4.67673">
        <ele>162.32</ele>
      </trkpt>
      <trkpt lat="44.50809" lon="4.67647">
        <ele>160.96</ele>
      </trkpt>
      <trkpt lat="44.50796" lon="4.67619">
        <ele>160.65</ele>
      </trkpt>
      <trkpt lat="44.50785" lon="4.67599">
        <ele>160.35</ele>
      </trkpt>
      <trkpt lat="44.50793" lon="4.67592">
        <ele>160.07</ele>
      </trkpt>
      <trkpt lat="44.50796" lon="4.67586">
        <ele>160.53</ele>
      </trkpt>
      <trkpt lat="44.50794" lon="4.67551">
        <ele>162.42</ele>
      </trkpt>
      <trkpt lat="44.50801" lon="4.67474">
        <ele>165.67</ele>
      </trkpt>
      <trkpt lat="44.50809" lon="4.67396">
        <ele>160.3</ele>
      </trkpt>
      <trkpt lat="44.50815" lon="4.67383">
        <ele>159.13</ele>
      </trkpt>
      <trkpt lat="44.50837" lon="4.67368">
        <ele>156.4</ele>
      </trkpt>
      <trkpt lat="44.50838" lon="4.6736">
        <ele>155.96</ele>
      </trkpt>
      <trkpt lat="44.50842" lon="4.67363">
        <ele>153.60000610352</ele>
        <time>2021-06-24T17:18:30Z</time>
      </trkpt>
      <trkpt lat="44.50842" lon="4.67364">
        <ele>153.60000610352</ele>
        <time>2021-06-24T17:18:32Z</time>
      </trkpt>
      <trkpt lat="44.50842" lon="4.67365">
        <ele>153.60000610352</ele>
        <time>2021-06-24T17:18:33Z</time>
      </trkpt>
      <trkpt lat="44.50842" lon="4.67365">
        <ele>154</ele>
        <time>2021-06-24T17:18:37Z</time>
      </trkpt>
      <trkpt lat="44.50842" lon="4.67366">
        <ele>154.60000610352</ele>
        <time>2021-06-24T17:18:42Z</time>
      </trkpt>
      <trkpt lat="44.50843" lon="4.67367">
        <ele>154.60000610352</ele>
        <time>2021-06-24T17:18:44Z</time>
      </trkpt>
      <trkpt lat="44.50843" lon="4.67367">
        <ele>154.60000610352</ele>
        <time>2021-06-24T17:18:45Z</time>
      </trkpt>
      <trkpt lat="44.50844" lon="4.67364">
        <ele>155</ele>
        <time>2021-06-24T17:18:55Z</time>
      </trkpt>
      <trkpt lat="44.50845" lon="4.67364">
        <ele>155</ele>
        <time>2021-06-24T17:18:57Z</time>
      </trkpt>
      <trkpt lat="44.50846" lon="4.67363">
        <ele>154.80000305176</ele>
        <time>2021-06-24T17:18:58Z</time>
      </trkpt>
      <trkpt lat="44.50847" lon="4.67364">
        <ele>155</ele>
        <time>2021-06-24T17:18:59Z</time>
      </trkpt>
      <trkpt lat="44.50848" lon="4.67364">
        <ele>155</ele>
        <time>2021-06-24T17:19:00Z</time>
      </trkpt>
      <trkpt lat="44.5085" lon="4.67364">
        <ele>154.80000305176</ele>
        <time>2021-06-24T17:19:01Z</time>
      </trkpt>
      <trkpt lat="44.50852" lon="4.67364">
        <ele>154.80000305176</ele>
        <time>2021-06-24T17:19:02Z</time>
      </trkpt>
      <trkpt lat="44.50854" lon="4.67365">
        <ele>154.80000305176</ele>
        <time>2021-06-24T17:19:03Z</time>
      </trkpt>
      <trkpt lat="44.50862" lon="4.67368">
        <ele>154.80000305176</ele>
        <time>2021-06-24T17:19:06Z</time>
      </trkpt>
      <trkpt lat="44.50866" lon="4.67371">
        <ele>154.80000305176</ele>
        <time>2021-06-24T17:19:08Z</time>
      </trkpt>
      <trkpt lat="44.50868" lon="4.67372">
        <ele>154.80000305176</ele>
        <time>2021-06-24T17:19:09Z</time>
      </trkpt>
      <trkpt lat="44.50883" lon="4.67373">
        <ele>155.19999694824</ele>
        <time>2021-06-24T17:19:14Z</time>
      </trkpt>
      <trkpt lat="44.50886" lon="4.67374">
        <ele>155.19999694824</ele>
        <time>2021-06-24T17:19:15Z</time>
      </trkpt>
      <trkpt lat="44.50888" lon="4.67375">
        <ele>155.39999389648</ele>
        <time>2021-06-24T17:19:16Z</time>
      </trkpt>
      <trkpt lat="44.50891" lon="4.67376">
        <ele>155.60000610352</ele>
        <time>2021-06-24T17:19:17Z</time>
      </trkpt>
      <trkpt lat="44.50893" lon="4.67377">
        <ele>155.80000305176</ele>
        <time>2021-06-24T17:19:18Z</time>
      </trkpt>
      <trkpt lat="44.50895" lon="4.67377">
        <ele>155.80000305176</ele>
        <time>2021-06-24T17:19:19Z</time>
      </trkpt>
      <trkpt lat="44.509" lon="4.67377">
        <ele>156.19999694824</ele>
        <time>2021-06-24T17:19:21Z</time>
      </trkpt>
      <trkpt lat="44.50903" lon="4.67377">
        <ele>156.60000610352</ele>
        <time>2021-06-24T17:19:22Z</time>
      </trkpt>
      <trkpt lat="44.50906" lon="4.67377">
        <ele>156.60000610352</ele>
        <time>2021-06-24T17:19:23Z</time>
      </trkpt>
      <trkpt lat="44.50909" lon="4.67377">
        <ele>156.80000305176</ele>
        <time>2021-06-24T17:19:24Z</time>
      </trkpt>
      <trkpt lat="44.50913" lon="4.67377">
        <ele>156.80000305176</ele>
        <time>2021-06-24T17:19:25Z</time>
      </trkpt>
      <trkpt lat="44.50917" lon="4.67376">
        <ele>157</ele>
        <time>2021-06-24T17:19:26Z</time>
      </trkpt>
      <trkpt lat="44.5092" lon="4.67375">
        <ele>157</ele>
        <time>2021-06-24T17:19:27Z</time>
      </trkpt>
      <trkpt lat="44.50923" lon="4.67374">
        <ele>157</ele>
        <time>2021-06-24T17:19:28Z</time>
      </trkpt>
      <trkpt lat="44.50926" lon="4.67372">
        <ele>157.19999694824</ele>
        <time>2021-06-24T17:19:29Z</time>
      </trkpt>
      <trkpt lat="44.50929" lon="4.67371">
        <ele>157.39999389648</ele>
        <time>2021-06-24T17:19:30Z</time>
      </trkpt>
      <trkpt lat="44.50931" lon="4.67369">
        <ele>157.19999694824</ele>
        <time>2021-06-24T17:19:31Z</time>
      </trkpt>
      <trkpt lat="44.50933" lon="4.67367">
        <ele>157.19999694824</ele>
        <time>2021-06-24T17:19:32Z</time>
      </trkpt>
      <trkpt lat="44.50936" lon="4.67366">
        <ele>157.39999389648</ele>
        <time>2021-06-24T17:19:33Z</time>
      </trkpt>
      <trkpt lat="44.50938" lon="4.67365">
        <ele>157.60000610352</ele>
        <time>2021-06-24T17:19:34Z</time>
      </trkpt>
      <trkpt lat="44.50939" lon="4.67364">
        <ele>157.60000610352</ele>
        <time>2021-06-24T17:19:35Z</time>
      </trkpt>
      <trkpt lat="44.50941" lon="4.67363">
        <ele>157.80000305176</ele>
        <time>2021-06-24T17:19:36Z</time>
      </trkpt>
      <trkpt lat="44.50942" lon="4.67362">
        <ele>157.80000305176</ele>
        <time>2021-06-24T17:19:37Z</time>
      </trkpt>
      <trkpt lat="44.50943" lon="4.67362">
        <ele>158</ele>
        <time>2021-06-24T17:19:38Z</time>
      </trkpt>
      <trkpt lat="44.50944" lon="4.67361">
        <ele>158</ele>
        <time>2021-06-24T17:19:39Z</time>
      </trkpt>
      <trkpt lat="44.50946" lon="4.6736">
        <ele>158.39999389648</ele>
        <time>2021-06-24T17:19:46Z</time>
      </trkpt>
      <trkpt lat="44.50949" lon="4.67362">
        <ele>158.60000610352</ele>
        <time>2021-06-24T17:19:56Z</time>
      </trkpt>
      <trkpt lat="44.50949" lon="4.67362">
        <ele>158.60000610352</ele>
        <time>2021-06-24T17:19:58Z</time>
      </trkpt>
      <trkpt lat="44.50953" lon="4.67361">
        <ele>158.60000610352</ele>
        <time>2021-06-24T17:20:04Z</time>
      </trkpt>
      <trkpt lat="44.50953" lon="4.67361">
        <ele>158.80000305176</ele>
        <time>2021-06-24T17:20:05Z</time>
      </trkpt>
      <trkpt lat="44.50955" lon="4.67359">
        <ele>159</ele>
        <time>2021-06-24T17:20:11Z</time>
      </trkpt>
      <trkpt lat="44.50956" lon="4.67357">
        <ele>159.19999694824</ele>
        <time>2021-06-24T17:20:13Z</time>
      </trkpt>
      <trkpt lat="44.50957" lon="4.67357">
        <ele>159.19999694824</ele>
        <time>2021-06-24T17:20:15Z</time>
      </trkpt>
      <trkpt lat="44.50957" lon="4.67357">
        <ele>159.39999389648</ele>
        <time>2021-06-24T17:20:20Z</time>
      </trkpt>
      <trkpt lat="44.5096" lon="4.67358">
        <ele>159.80000305176</ele>
        <time>2021-06-24T17:20:26Z</time>
      </trkpt>
      <trkpt lat="44.50961" lon="4.67358">
        <ele>159.80000305176</ele>
        <time>2021-06-24T17:20:27Z</time>
      </trkpt>
      <trkpt lat="44.50963" lon="4.67358">
        <ele>160</ele>
        <time>2021-06-24T17:20:28Z</time>
      </trkpt>
      <trkpt lat="44.50965" lon="4.67358">
        <ele>160</ele>
        <time>2021-06-24T17:20:29Z</time>
      </trkpt>
      <trkpt lat="44.50967" lon="4.67359">
        <ele>160</ele>
        <time>2021-06-24T17:20:30Z</time>
      </trkpt>
      <trkpt lat="44.5098" lon="4.6736">
        <ele>160.39999389648</ele>
        <time>2021-06-24T17:20:35Z</time>
      </trkpt>
      <trkpt lat="44.50983" lon="4.67359">
        <ele>160.39999389648</ele>
        <time>2021-06-24T17:20:36Z</time>
      </trkpt>
      <trkpt lat="44.50986" lon="4.67359">
        <ele>160.60000610352</ele>
        <time>2021-06-24T17:20:37Z</time>
      </trkpt>
      <trkpt lat="44.50988" lon="4.67359">
        <ele>160.60000610352</ele>
        <time>2021-06-24T17:20:38Z</time>
      </trkpt>
      <trkpt lat="44.50991" lon="4.67359">
        <ele>160.60000610352</ele>
        <time>2021-06-24T17:20:39Z</time>
      </trkpt>
      <trkpt lat="44.50996" lon="4.67361">
        <ele>160.60000610352</ele>
        <time>2021-06-24T17:20:41Z</time>
      </trkpt>
      <trkpt lat="44.50999" lon="4.67362">
        <ele>161</ele>
        <time>2021-06-24T17:20:42Z</time>
      </trkpt>
      <trkpt lat="44.51002" lon="4.67361">
        <ele>161</ele>
        <time>2021-06-24T17:20:43Z</time>
      </trkpt>
      <trkpt lat="44.51004" lon="4.6736">
        <ele>161.19999694824</ele>
        <time>2021-06-24T17:20:44Z</time>
      </trkpt>
      <trkpt lat="44.51007" lon="4.67359">
        <ele>161.19999694824</ele>
        <time>2021-06-24T17:20:45Z</time>
      </trkpt>
      <trkpt lat="44.51009" lon="4.67357">
        <ele>161.39999389648</ele>
        <time>2021-06-24T17:20:46Z</time>
      </trkpt>
      <trkpt lat="44.51011" lon="4.67356">
        <ele>161.60000610352</ele>
        <time>2021-06-24T17:20:47Z</time>
      </trkpt>
      <trkpt lat="44.51013" lon="4.67354">
        <ele>162.19999694824</ele>
        <time>2021-06-24T17:20:48Z</time>
      </trkpt>
      <trkpt lat="44.51015" lon="4.67351">
        <ele>162.19999694824</ele>
        <time>2021-06-24T17:20:49Z</time>
      </trkpt>
      <trkpt lat="44.51017" lon="4.67349">
        <ele>162.60000610352</ele>
        <time>2021-06-24T17:20:50Z</time>
      </trkpt>
      <trkpt lat="44.51019" lon="4.67347">
        <ele>163</ele>
        <time>2021-06-24T17:20:51Z</time>
      </trkpt>
      <trkpt lat="44.51022" lon="4.67345">
        <ele>163.19999694824</ele>
        <time>2021-06-24T17:20:52Z</time>
      </trkpt>
      <trkpt lat="44.51025" lon="4.67344">
        <ele>163.39999389648</ele>
        <time>2021-06-24T17:20:53Z</time>
      </trkpt>
      <trkpt lat="44.5103" lon="4.67341">
        <ele>163.39999389648</ele>
        <time>2021-06-24T17:20:54Z</time>
      </trkpt>
      <trkpt lat="44.5103" lon="4.67341">
        <ele>163.80000305176</ele>
        <time>2021-06-24T17:20:55Z</time>
      </trkpt>
      <trkpt lat="44.51033" lon="4.6734">
        <ele>164.19999694824</ele>
        <time>2021-06-24T17:20:56Z</time>
      </trkpt>
      <trkpt lat="44.51035" lon="4.67338">
        <ele>164.19999694824</ele>
        <time>2021-06-24T17:20:57Z</time>
      </trkpt>
      <trkpt lat="44.51038" lon="4.67337">
        <ele>164.60000610352</ele>
        <time>2021-06-24T17:20:58Z</time>
      </trkpt>
      <trkpt lat="44.5104" lon="4.67335">
        <ele>164.80000305176</ele>
        <time>2021-06-24T17:20:59Z</time>
      </trkpt>
      <trkpt lat="44.51043" lon="4.67333">
        <ele>164.80000305176</ele>
        <time>2021-06-24T17:21:00Z</time>
      </trkpt>
      <trkpt lat="44.51046" lon="4.67331">
        <ele>165</ele>
        <time>2021-06-24T17:21:01Z</time>
      </trkpt>
      <trkpt lat="44.51049" lon="4.67329">
        <ele>165.19999694824</ele>
        <time>2021-06-24T17:21:02Z</time>
      </trkpt>
      <trkpt lat="44.51051" lon="4.67326">
        <ele>165.19999694824</ele>
        <time>2021-06-24T17:21:03Z</time>
      </trkpt>
      <trkpt lat="44.51053" lon="4.67324">
        <ele>165.39999389648</ele>
        <time>2021-06-24T17:21:04Z</time>
      </trkpt>
      <trkpt lat="44.51054" lon="4.67322">
        <ele>165.60000610352</ele>
        <time>2021-06-24T17:21:05Z</time>
      </trkpt>
      <trkpt lat="44.51056" lon="4.67319">
        <ele>165.80000305176</ele>
        <time>2021-06-24T17:21:06Z</time>
      </trkpt>
      <trkpt lat="44.51058" lon="4.67316">
        <ele>166</ele>
        <time>2021-06-24T17:21:07Z</time>
      </trkpt>
      <trkpt lat="44.5106" lon="4.67313">
        <ele>166.39999389648</ele>
        <time>2021-06-24T17:21:08Z</time>
      </trkpt>
      <trkpt lat="44.51062" lon="4.6731">
        <ele>166.39999389648</ele>
        <time>2021-06-24T17:21:09Z</time>
      </trkpt>
      <trkpt lat="44.51063" lon="4.67306">
        <ele>166.60000610352</ele>
        <time>2021-06-24T17:21:10Z</time>
      </trkpt>
      <trkpt lat="44.51065" lon="4.67302">
        <ele>166.60000610352</ele>
        <time>2021-06-24T17:21:11Z</time>
      </trkpt>
      <trkpt lat="44.51067" lon="4.67299">
        <ele>166.80000305176</ele>
        <time>2021-06-24T17:21:12Z</time>
      </trkpt>
      <trkpt lat="44.5107" lon="4.67296">
        <ele>167</ele>
        <time>2021-06-24T17:21:13Z</time>
      </trkpt>
      <trkpt lat="44.51072" lon="4.67293">
        <ele>167.19999694824</ele>
        <time>2021-06-24T17:21:14Z</time>
      </trkpt>
      <trkpt lat="44.51074" lon="4.67291">
        <ele>167.39999389648</ele>
        <time>2021-06-24T17:21:15Z</time>
      </trkpt>
      <trkpt lat="44.51077" lon="4.6729">
        <ele>167.60000610352</ele>
        <time>2021-06-24T17:21:16Z</time>
      </trkpt>
      <trkpt lat="44.51079" lon="4.67291">
        <ele>167.80000305176</ele>
        <time>2021-06-24T17:21:17Z</time>
      </trkpt>
      <trkpt lat="44.51081" lon="4.67291">
        <ele>168</ele>
        <time>2021-06-24T17:21:18Z</time>
      </trkpt>
      <trkpt lat="44.51084" lon="4.67292">
        <ele>168.19999694824</ele>
        <time>2021-06-24T17:21:19Z</time>
      </trkpt>
      <trkpt lat="44.51086" lon="4.67293">
        <ele>168.39999389648</ele>
        <time>2021-06-24T17:21:20Z</time>
      </trkpt>
      <trkpt lat="44.51089" lon="4.67295">
        <ele>168.39999389648</ele>
        <time>2021-06-24T17:21:21Z</time>
      </trkpt>
      <trkpt lat="44.51091" lon="4.67296">
        <ele>168.60000610352</ele>
        <time>2021-06-24T17:21:22Z</time>
      </trkpt>
      <trkpt lat="44.51094" lon="4.67298">
        <ele>168.80000305176</ele>
        <time>2021-06-24T17:21:23Z</time>
      </trkpt>
      <trkpt lat="44.51096" lon="4.67299">
        <ele>169</ele>
        <time>2021-06-24T17:21:24Z</time>
      </trkpt>
      <trkpt lat="44.511" lon="4.67299">
        <ele>169.60000610352</ele>
        <time>2021-06-24T17:21:25Z</time>
      </trkpt>
      <trkpt lat="44.51102" lon="4.673">
        <ele>169.60000610352</ele>
        <time>2021-06-24T17:21:26Z</time>
      </trkpt>
      <trkpt lat="44.51105" lon="4.67301">
        <ele>169.60000610352</ele>
        <time>2021-06-24T17:21:27Z</time>
      </trkpt>
      <trkpt lat="44.51107" lon="4.67301">
        <ele>169.80000305176</ele>
        <time>2021-06-24T17:21:28Z</time>
      </trkpt>
      <trkpt lat="44.5111" lon="4.67301">
        <ele>170</ele>
        <time>2021-06-24T17:21:29Z</time>
      </trkpt>
      <trkpt lat="44.51112" lon="4.67301">
        <ele>170.19999694824</ele>
        <time>2021-06-24T17:21:30Z</time>
      </trkpt>
      <trkpt lat="44.51115" lon="4.67301">
        <ele>170.60000610352</ele>
        <time>2021-06-24T17:21:31Z</time>
      </trkpt>
      <trkpt lat="44.51118" lon="4.673">
        <ele>170.80000305176</ele>
        <time>2021-06-24T17:21:32Z</time>
      </trkpt>
      <trkpt lat="44.5112" lon="4.673">
        <ele>171</ele>
        <time>2021-06-24T17:21:33Z</time>
      </trkpt>
      <trkpt lat="44.51122" lon="4.67299">
        <ele>171.60000610352</ele>
        <time>2021-06-24T17:21:34Z</time>
      </trkpt>
      <trkpt lat="44.51124" lon="4.67298">
        <ele>172.60000610352</ele>
        <time>2021-06-24T17:21:35Z</time>
      </trkpt>
      <trkpt lat="44.51126" lon="4.67297">
        <ele>173.19999694824</ele>
        <time>2021-06-24T17:21:36Z</time>
      </trkpt>
      <trkpt lat="44.51128" lon="4.67296">
        <ele>173.80000305176</ele>
        <time>2021-06-24T17:21:37Z</time>
      </trkpt>
      <trkpt lat="44.5113" lon="4.67295">
        <ele>174.39999389648</ele>
        <time>2021-06-24T17:21:38Z</time>
      </trkpt>
      <trkpt lat="44.51132" lon="4.67294">
        <ele>174.80000305176</ele>
        <time>2021-06-24T17:21:39Z</time>
      </trkpt>
      <trkpt lat="44.51134" lon="4.67294">
        <ele>175.39999389648</ele>
        <time>2021-06-24T17:21:40Z</time>
      </trkpt>
      <trkpt lat="44.51137" lon="4.67294">
        <ele>176.19999694824</ele>
        <time>2021-06-24T17:21:41Z</time>
      </trkpt>
      <trkpt lat="44.51139" lon="4.67293">
        <ele>176.80000305176</ele>
        <time>2021-06-24T17:21:42Z</time>
      </trkpt>
      <trkpt lat="44.51141" lon="4.67293">
        <ele>177.39999389648</ele>
        <time>2021-06-24T17:21:43Z</time>
      </trkpt>
      <trkpt lat="44.51143" lon="4.67292">
        <ele>178</ele>
        <time>2021-06-24T17:21:44Z</time>
      </trkpt>
      <trkpt lat="44.51145" lon="4.67291">
        <ele>178.60000610352</ele>
        <time>2021-06-24T17:21:45Z</time>
      </trkpt>
      <trkpt lat="44.51147" lon="4.6729">
        <ele>179.19999694824</ele>
        <time>2021-06-24T17:21:46Z</time>
      </trkpt>
      <trkpt lat="44.51149" lon="4.67289">
        <ele>180</ele>
        <time>2021-06-24T17:21:47Z</time>
      </trkpt>
      <trkpt lat="44.5115" lon="4.67288">
        <ele>180.39999389648</ele>
        <time>2021-06-24T17:21:48Z</time>
      </trkpt>
      <trkpt lat="44.51152" lon="4.67287">
        <ele>180.39999389648</ele>
        <time>2021-06-24T17:21:49Z</time>
      </trkpt>
      <trkpt lat="44.51153" lon="4.67286">
        <ele>180.80000305176</ele>
        <time>2021-06-24T17:21:50Z</time>
      </trkpt>
      <trkpt lat="44.51154" lon="4.67284">
        <ele>181.19999694824</ele>
        <time>2021-06-24T17:21:51Z</time>
      </trkpt>
      <trkpt lat="44.51155" lon="4.67282">
        <ele>181.39999389648</ele>
        <time>2021-06-24T17:21:52Z</time>
      </trkpt>
      <trkpt lat="44.51156" lon="4.6728">
        <ele>181.80000305176</ele>
        <time>2021-06-24T17:21:53Z</time>
      </trkpt>
      <trkpt lat="44.51157" lon="4.67278">
        <ele>182</ele>
        <time>2021-06-24T17:21:54Z</time>
      </trkpt>
      <trkpt lat="44.51158" lon="4.67276">
        <ele>182.39999389648</ele>
        <time>2021-06-24T17:21:55Z</time>
      </trkpt>
      <trkpt lat="44.5116" lon="4.67273">
        <ele>182.39999389648</ele>
        <time>2021-06-24T17:21:56Z</time>
      </trkpt>
      <trkpt lat="44.51161" lon="4.67271">
        <ele>182.80000305176</ele>
        <time>2021-06-24T17:21:57Z</time>
      </trkpt>
      <trkpt lat="44.51163" lon="4.67268">
        <ele>182.80000305176</ele>
        <time>2021-06-24T17:21:58Z</time>
      </trkpt>
      <trkpt lat="44.51164" lon="4.67265">
        <ele>183</ele>
        <time>2021-06-24T17:21:59Z</time>
      </trkpt>
      <trkpt lat="44.51166" lon="4.67261">
        <ele>183</ele>
        <time>2021-06-24T17:22:00Z</time>
      </trkpt>
      <trkpt lat="44.51167" lon="4.67258">
        <ele>183</ele>
        <time>2021-06-24T17:22:01Z</time>
      </trkpt>
      <trkpt lat="44.51168" lon="4.67255">
        <ele>183.19999694824</ele>
        <time>2021-06-24T17:22:02Z</time>
      </trkpt>
      <trkpt lat="44.5117" lon="4.67252">
        <ele>183.19999694824</ele>
        <time>2021-06-24T17:22:03Z</time>
      </trkpt>
      <trkpt lat="44.51171" lon="4.67249">
        <ele>183.39999389648</ele>
        <time>2021-06-24T17:22:04Z</time>
      </trkpt>
      <trkpt lat="44.51173" lon="4.67246">
        <ele>183.39999389648</ele>
        <time>2021-06-24T17:22:05Z</time>
      </trkpt>
      <trkpt lat="44.51174" lon="4.67242">
        <ele>183.80000305176</ele>
        <time>2021-06-24T17:22:06Z</time>
      </trkpt>
      <trkpt lat="44.51175" lon="4.6724">
        <ele>184.19999694824</ele>
        <time>2021-06-24T17:22:07Z</time>
      </trkpt>
      <trkpt lat="44.51177" lon="4.67237">
        <ele>184.39999389648</ele>
        <time>2021-06-24T17:22:08Z</time>
      </trkpt>
      <trkpt lat="44.51178" lon="4.67235">
        <ele>184.80000305176</ele>
        <time>2021-06-24T17:22:09Z</time>
      </trkpt>
      <trkpt lat="44.5118" lon="4.67232">
        <ele>185</ele>
        <time>2021-06-24T17:22:10Z</time>
      </trkpt>
      <trkpt lat="44.51182" lon="4.6723">
        <ele>185.19999694824</ele>
        <time>2021-06-24T17:22:11Z</time>
      </trkpt>
      <trkpt lat="44.51183" lon="4.67227">
        <ele>185.19999694824</ele>
        <time>2021-06-24T17:22:12Z</time>
      </trkpt>
      <trkpt lat="44.51184" lon="4.67224">
        <ele>185.60000610352</ele>
        <time>2021-06-24T17:22:13Z</time>
      </trkpt>
      <trkpt lat="44.51186" lon="4.67221">
        <ele>185.80000305176</ele>
        <time>2021-06-24T17:22:14Z</time>
      </trkpt>
      <trkpt lat="44.51187" lon="4.67218">
        <ele>186.19999694824</ele>
        <time>2021-06-24T17:22:15Z</time>
      </trkpt>
      <trkpt lat="44.51189" lon="4.67215">
        <ele>186.39999389648</ele>
        <time>2021-06-24T17:22:16Z</time>
      </trkpt>
      <trkpt lat="44.5119" lon="4.67213">
        <ele>186.60000610352</ele>
        <time>2021-06-24T17:22:17Z</time>
      </trkpt>
      <trkpt lat="44.51191" lon="4.6721">
        <ele>187</ele>
        <time>2021-06-24T17:22:18Z</time>
      </trkpt>
      <trkpt lat="44.51192" lon="4.67208">
        <ele>187.19999694824</ele>
        <time>2021-06-24T17:22:19Z</time>
      </trkpt>
      <trkpt lat="44.51192" lon="4.67205">
        <ele>187.80000305176</ele>
        <time>2021-06-24T17:22:20Z</time>
      </trkpt>
      <trkpt lat="44.51193" lon="4.67203">
        <ele>188</ele>
        <time>2021-06-24T17:22:21Z</time>
      </trkpt>
      <trkpt lat="44.51194" lon="4.672">
        <ele>188.19999694824</ele>
        <time>2021-06-24T17:22:22Z</time>
      </trkpt>
      <trkpt lat="44.51195" lon="4.67197">
        <ele>188.60000610352</ele>
        <time>2021-06-24T17:22:23Z</time>
      </trkpt>
      <trkpt lat="44.51196" lon="4.67194">
        <ele>189.19999694824</ele>
        <time>2021-06-24T17:22:24Z</time>
      </trkpt>
      <trkpt lat="44.51197" lon="4.6719">
        <ele>189.80000305176</ele>
        <time>2021-06-24T17:22:25Z</time>
      </trkpt>
      <trkpt lat="44.51198" lon="4.67186">
        <ele>190.19999694824</ele>
        <time>2021-06-24T17:22:26Z</time>
      </trkpt>
      <trkpt lat="44.51199" lon="4.67183">
        <ele>190.60000610352</ele>
        <time>2021-06-24T17:22:27Z</time>
      </trkpt>
      <trkpt lat="44.51201" lon="4.6718">
        <ele>190.80000305176</ele>
        <time>2021-06-24T17:22:28Z</time>
      </trkpt>
      <trkpt lat="44.51202" lon="4.67176">
        <ele>191</ele>
        <time>2021-06-24T17:22:29Z</time>
      </trkpt>
      <trkpt lat="44.51204" lon="4.67173">
        <ele>191</ele>
        <time>2021-06-24T17:22:30Z</time>
      </trkpt>
      <trkpt lat="44.51205" lon="4.6717">
        <ele>191.19999694824</ele>
        <time>2021-06-24T17:22:31Z</time>
      </trkpt>
      <trkpt lat="44.51207" lon="4.67167">
        <ele>191.39999389648</ele>
        <time>2021-06-24T17:22:32Z</time>
      </trkpt>
      <trkpt lat="44.51209" lon="4.67165">
        <ele>192</ele>
        <time>2021-06-24T17:22:33Z</time>
      </trkpt>
      <trkpt lat="44.5121" lon="4.67162">
        <ele>192.19999694824</ele>
        <time>2021-06-24T17:22:34Z</time>
      </trkpt>
      <trkpt lat="44.51212" lon="4.6716">
        <ele>192.19999694824</ele>
        <time>2021-06-24T17:22:35Z</time>
      </trkpt>
      <trkpt lat="44.51214" lon="4.67157">
        <ele>192.60000610352</ele>
        <time>2021-06-24T17:22:36Z</time>
      </trkpt>
      <trkpt lat="44.51216" lon="4.67155">
        <ele>193</ele>
        <time>2021-06-24T17:22:37Z</time>
      </trkpt>
      <trkpt lat="44.51218" lon="4.67154">
        <ele>193</ele>
        <time>2021-06-24T17:22:38Z</time>
      </trkpt>
      <trkpt lat="44.51219" lon="4.67152">
        <ele>193.39999389648</ele>
        <time>2021-06-24T17:22:39Z</time>
      </trkpt>
      <trkpt lat="44.51222" lon="4.6715">
        <ele>194</ele>
        <time>2021-06-24T17:22:40Z</time>
      </trkpt>
      <trkpt lat="44.51224" lon="4.67148">
        <ele>194.19999694824</ele>
        <time>2021-06-24T17:22:41Z</time>
      </trkpt>
      <trkpt lat="44.51226" lon="4.67147">
        <ele>194.39999389648</ele>
        <time>2021-06-24T17:22:42Z</time>
      </trkpt>
      <trkpt lat="44.51228" lon="4.67145">
        <ele>194.80000305176</ele>
        <time>2021-06-24T17:22:43Z</time>
      </trkpt>
      <trkpt lat="44.51231" lon="4.67144">
        <ele>195.19999694824</ele>
        <time>2021-06-24T17:22:44Z</time>
      </trkpt>
      <trkpt lat="44.51233" lon="4.67143">
        <ele>195.39999389648</ele>
        <time>2021-06-24T17:22:45Z</time>
      </trkpt>
      <trkpt lat="44.51236" lon="4.67142">
        <ele>195.39999389648</ele>
        <time>2021-06-24T17:22:46Z</time>
      </trkpt>
      <trkpt lat="44.51239" lon="4.67141">
        <ele>195.60000610352</ele>
        <time>2021-06-24T17:22:47Z</time>
      </trkpt>
      <trkpt lat="44.51242" lon="4.6714">
        <ele>195.80000305176</ele>
        <time>2021-06-24T17:22:48Z</time>
      </trkpt>
      <trkpt lat="44.51244" lon="4.67139">
        <ele>196</ele>
        <time>2021-06-24T17:22:49Z</time>
      </trkpt>
      <trkpt lat="44.51247" lon="4.67138">
        <ele>196.19999694824</ele>
        <time>2021-06-24T17:22:50Z</time>
      </trkpt>
      <trkpt lat="44.5125" lon="4.67137">
        <ele>196.19999694824</ele>
        <time>2021-06-24T17:22:51Z</time>
      </trkpt>
      <trkpt lat="44.51252" lon="4.67136">
        <ele>196.39999389648</ele>
        <time>2021-06-24T17:22:52Z</time>
      </trkpt>
      <trkpt lat="44.51255" lon="4.67135">
        <ele>196.80000305176</ele>
        <time>2021-06-24T17:22:53Z</time>
      </trkpt>
      <trkpt lat="44.51258" lon="4.67134">
        <ele>196.60000610352</ele>
        <time>2021-06-24T17:22:54Z</time>
      </trkpt>
      <trkpt lat="44.51261" lon="4.67133">
        <ele>197</ele>
        <time>2021-06-24T17:22:55Z</time>
      </trkpt>
      <trkpt lat="44.51264" lon="4.67132">
        <ele>196.80000305176</ele>
        <time>2021-06-24T17:22:56Z</time>
      </trkpt>
      <trkpt lat="44.51268" lon="4.67131">
        <ele>197</ele>
        <time>2021-06-24T17:22:57Z</time>
      </trkpt>
      <trkpt lat="44.51271" lon="4.6713">
        <ele>197</ele>
        <time>2021-06-24T17:22:58Z</time>
      </trkpt>
      <trkpt lat="44.51274" lon="4.67129">
        <ele>197.19999694824</ele>
        <time>2021-06-24T17:22:59Z</time>
      </trkpt>
      <trkpt lat="44.51278" lon="4.67129">
        <ele>197.19999694824</ele>
        <time>2021-06-24T17:23:00Z</time>
      </trkpt>
      <trkpt lat="44.51282" lon="4.67128">
        <ele>197.39999389648</ele>
        <time>2021-06-24T17:23:01Z</time>
      </trkpt>
      <trkpt lat="44.51285" lon="4.67128">
        <ele>197.39999389648</ele>
        <time>2021-06-24T17:23:02Z</time>
      </trkpt>
      <trkpt lat="44.51288" lon="4.67127">
        <ele>197.39999389648</ele>
        <time>2021-06-24T17:23:03Z</time>
      </trkpt>
      <trkpt lat="44.51291" lon="4.67125">
        <ele>197.39999389648</ele>
        <time>2021-06-24T17:23:04Z</time>
      </trkpt>
      <trkpt lat="44.51293" lon="4.67124">
        <ele>197.60000610352</ele>
        <time>2021-06-24T17:23:05Z</time>
      </trkpt>
      <trkpt lat="44.51296" lon="4.67122">
        <ele>197.80000305176</ele>
        <time>2021-06-24T17:23:06Z</time>
      </trkpt>
      <trkpt lat="44.51299" lon="4.67121">
        <ele>198.39999389648</ele>
        <time>2021-06-24T17:23:07Z</time>
      </trkpt>
      <trkpt lat="44.51302" lon="4.67119">
        <ele>198.60000610352</ele>
        <time>2021-06-24T17:23:08Z</time>
      </trkpt>
      <trkpt lat="44.51305" lon="4.67118">
        <ele>198.80000305176</ele>
        <time>2021-06-24T17:23:09Z</time>
      </trkpt>
      <trkpt lat="44.51309" lon="4.67116">
        <ele>199.19999694824</ele>
        <time>2021-06-24T17:23:10Z</time>
      </trkpt>
      <trkpt lat="44.51313" lon="4.67114">
        <ele>199.19999694824</ele>
        <time>2021-06-24T17:23:11Z</time>
      </trkpt>
      <trkpt lat="44.51317" lon="4.67112">
        <ele>199.39999389648</ele>
        <time>2021-06-24T17:23:12Z</time>
      </trkpt>
      <trkpt lat="44.51321" lon="4.6711">
        <ele>199.60000610352</ele>
        <time>2021-06-24T17:23:13Z</time>
      </trkpt>
      <trkpt lat="44.51324" lon="4.67109">
        <ele>200</ele>
        <time>2021-06-24T17:23:14Z</time>
      </trkpt>
      <trkpt lat="44.51328" lon="4.67108">
        <ele>200.19999694824</ele>
        <time>2021-06-24T17:23:15Z</time>
      </trkpt>
      <trkpt lat="44.51331" lon="4.67107">
        <ele>200.39999389648</ele>
        <time>2021-06-24T17:23:16Z</time>
      </trkpt>
      <trkpt lat="44.51334" lon="4.67106">
        <ele>200.80000305176</ele>
        <time>2021-06-24T17:23:17Z</time>
      </trkpt>
      <trkpt lat="44.51337" lon="4.67104">
        <ele>201</ele>
        <time>2021-06-24T17:23:18Z</time>
      </trkpt>
      <trkpt lat="44.5134" lon="4.67103">
        <ele>201.39999389648</ele>
        <time>2021-06-24T17:23:19Z</time>
      </trkpt>
      <trkpt lat="44.51342" lon="4.67101">
        <ele>201.60000610352</ele>
        <time>2021-06-24T17:23:20Z</time>
      </trkpt>
      <trkpt lat="44.51345" lon="4.67099">
        <ele>201.60000610352</ele>
        <time>2021-06-24T17:23:21Z</time>
      </trkpt>
      <trkpt lat="44.51348" lon="4.67098">
        <ele>202.19999694824</ele>
        <time>2021-06-24T17:23:22Z</time>
      </trkpt>
      <trkpt lat="44.5135" lon="4.67097">
        <ele>202.39999389648</ele>
        <time>2021-06-24T17:23:23Z</time>
      </trkpt>
      <trkpt lat="44.51353" lon="4.67095">
        <ele>202.60000610352</ele>
        <time>2021-06-24T17:23:24Z</time>
      </trkpt>
      <trkpt lat="44.51356" lon="4.67094">
        <ele>203</ele>
        <time>2021-06-24T17:23:25Z</time>
      </trkpt>
      <trkpt lat="44.51359" lon="4.67092">
        <ele>203.19999694824</ele>
        <time>2021-06-24T17:23:26Z</time>
      </trkpt>
      <trkpt lat="44.51361" lon="4.6709">
        <ele>203.60000610352</ele>
        <time>2021-06-24T17:23:27Z</time>
      </trkpt>
      <trkpt lat="44.51363" lon="4.67088">
        <ele>203.80000305176</ele>
        <time>2021-06-24T17:23:28Z</time>
      </trkpt>
      <trkpt lat="44.51365" lon="4.67086">
        <ele>204</ele>
        <time>2021-06-24T17:23:29Z</time>
      </trkpt>
      <trkpt lat="44.51368" lon="4.67084">
        <ele>204.19999694824</ele>
        <time>2021-06-24T17:23:30Z</time>
      </trkpt>
      <trkpt lat="44.5137" lon="4.67082">
        <ele>204.60000610352</ele>
        <time>2021-06-24T17:23:31Z</time>
      </trkpt>
      <trkpt lat="44.51372" lon="4.67081">
        <ele>204.60000610352</ele>
        <time>2021-06-24T17:23:32Z</time>
      </trkpt>
      <trkpt lat="44.51375" lon="4.67079">
        <ele>205.19999694824</ele>
        <time>2021-06-24T17:23:33Z</time>
      </trkpt>
      <trkpt lat="44.51379" lon="4.67077">
        <ele>205.19999694824</ele>
        <time>2021-06-24T17:23:34Z</time>
      </trkpt>
      <trkpt lat="44.51382" lon="4.67075">
        <ele>205.39999389648</ele>
        <time>2021-06-24T17:23:35Z</time>
      </trkpt>
      <trkpt lat="44.51385" lon="4.67074">
        <ele>205.80000305176</ele>
        <time>2021-06-24T17:23:36Z</time>
      </trkpt>
      <trkpt lat="44.51388" lon="4.67072">
        <ele>206</ele>
        <time>2021-06-24T17:23:37Z</time>
      </trkpt>
      <trkpt lat="44.51391" lon="4.67071">
        <ele>206.19999694824</ele>
        <time>2021-06-24T17:23:38Z</time>
      </trkpt>
      <trkpt lat="44.51394" lon="4.67069">
        <ele>206.19999694824</ele>
        <time>2021-06-24T17:23:39Z</time>
      </trkpt>
      <trkpt lat="44.51397" lon="4.67067">
        <ele>206.39999389648</ele>
        <time>2021-06-24T17:23:40Z</time>
      </trkpt>
      <trkpt lat="44.51401" lon="4.67065">
        <ele>206.60000610352</ele>
        <time>2021-06-24T17:23:41Z</time>
      </trkpt>
      <trkpt lat="44.51404" lon="4.67063">
        <ele>206.80000305176</ele>
        <time>2021-06-24T17:23:42Z</time>
      </trkpt>
      <trkpt lat="44.51407" lon="4.67061">
        <ele>206.80000305176</ele>
        <time>2021-06-24T17:23:43Z</time>
      </trkpt>
      <trkpt lat="44.51411" lon="4.6706">
        <ele>206.80000305176</ele>
        <time>2021-06-24T17:23:44Z</time>
      </trkpt>
      <trkpt lat="44.51413" lon="4.67057">
        <ele>207</ele>
        <time>2021-06-24T17:23:45Z</time>
      </trkpt>
      <trkpt lat="44.51416" lon="4.67055">
        <ele>207.19999694824</ele>
        <time>2021-06-24T17:23:46Z</time>
      </trkpt>
      <trkpt lat="44.51418" lon="4.67054">
        <ele>207.39999389648</ele>
        <time>2021-06-24T17:23:47Z</time>
      </trkpt>
      <trkpt lat="44.51421" lon="4.67052">
        <ele>207.60000610352</ele>
        <time>2021-06-24T17:23:48Z</time>
      </trkpt>
      <trkpt lat="44.51424" lon="4.6705">
        <ele>207.60000610352</ele>
        <time>2021-06-24T17:23:49Z</time>
      </trkpt>
      <trkpt lat="44.51427" lon="4.67048">
        <ele>207.60000610352</ele>
        <time>2021-06-24T17:23:50Z</time>
      </trkpt>
      <trkpt lat="44.5143" lon="4.67046">
        <ele>207.80000305176</ele>
        <time>2021-06-24T17:23:51Z</time>
      </trkpt>
      <trkpt lat="44.51433" lon="4.67043">
        <ele>207.80000305176</ele>
        <time>2021-06-24T17:23:52Z</time>
      </trkpt>
      <trkpt lat="44.51436" lon="4.67041">
        <ele>207.80000305176</ele>
        <time>2021-06-24T17:23:53Z</time>
      </trkpt>
      <trkpt lat="44.5144" lon="4.67039">
        <ele>208</ele>
        <time>2021-06-24T17:23:54Z</time>
      </trkpt>
      <trkpt lat="44.51443" lon="4.67038">
        <ele>208</ele>
        <time>2021-06-24T17:23:55Z</time>
      </trkpt>
      <trkpt lat="44.51447" lon="4.67037">
        <ele>208</ele>
        <time>2021-06-24T17:23:56Z</time>
      </trkpt>
      <trkpt lat="44.5145" lon="4.67037">
        <ele>208.19999694824</ele>
        <time>2021-06-24T17:23:57Z</time>
      </trkpt>
      <trkpt lat="44.51453" lon="4.67036">
        <ele>208</ele>
        <time>2021-06-24T17:23:58Z</time>
      </trkpt>
      <trkpt lat="44.51456" lon="4.67036">
        <ele>208</ele>
        <time>2021-06-24T17:23:59Z</time>
      </trkpt>
      <trkpt lat="44.51459" lon="4.67036">
        <ele>208.39999389648</ele>
        <time>2021-06-24T17:24:00Z</time>
      </trkpt>
      <trkpt lat="44.51461" lon="4.67036">
        <ele>208.39999389648</ele>
        <time>2021-06-24T17:24:01Z</time>
      </trkpt>
      <trkpt lat="44.51463" lon="4.67037">
        <ele>208.80000305176</ele>
        <time>2021-06-24T17:24:02Z</time>
      </trkpt>
      <trkpt lat="44.51466" lon="4.67037">
        <ele>209</ele>
        <time>2021-06-24T17:24:03Z</time>
      </trkpt>
      <trkpt lat="44.51466" lon="4.67037">
        <ele>209.39999389648</ele>
        <time>2021-06-24T17:24:04Z</time>
      </trkpt>
      <trkpt lat="44.51467" lon="4.67037">
        <ele>209.60000610352</ele>
        <time>2021-06-24T17:24:06Z</time>
      </trkpt>
      <trkpt lat="44.51467" lon="4.67038">
        <ele>209.80000305176</ele>
        <time>2021-06-24T17:24:08Z</time>
      </trkpt>
      <trkpt lat="44.51467" lon="4.67038">
        <ele>211.39999389648</ele>
        <time>2021-06-24T17:24:13Z</time>
      </trkpt>
      <trkpt lat="44.51468" lon="4.67037">
        <ele>211.60000610352</ele>
        <time>2021-06-24T17:24:21Z</time>
      </trkpt>
      <trkpt lat="44.51468" lon="4.67037">
        <ele>211.60000610352</ele>
        <time>2021-06-24T17:24:33Z</time>
      </trkpt>
      <trkpt lat="44.51468" lon="4.67038">
        <ele>211.80000305176</ele>
        <time>2021-06-24T17:24:46Z</time>
      </trkpt>
      <trkpt lat="44.5147" lon="4.67038">
        <ele>211.60000610352</ele>
        <time>2021-06-24T17:24:55Z</time>
      </trkpt>
      <trkpt lat="44.5147" lon="4.67038">
        <ele>211.60000610352</ele>
        <time>2021-06-24T17:25:02Z</time>
      </trkpt>
      <trkpt lat="44.51471" lon="4.67038">
        <ele>211.60000610352</ele>
        <time>2021-06-24T17:25:14Z</time>
      </trkpt>
      <trkpt lat="44.51471" lon="4.67038">
        <ele>211.39999389648</ele>
        <time>2021-06-24T17:25:27Z</time>
      </trkpt>
      <trkpt lat="44.51471" lon="4.67038">
        <ele>211.39999389648</ele>
        <time>2021-06-24T17:25:37Z</time>
      </trkpt>
      <trkpt lat="44.51471" lon="4.67038">
        <ele>211.39999389648</ele>
        <time>2021-06-24T17:25:49Z</time>
      </trkpt>
      <trkpt lat="44.51471" lon="4.67037">
        <ele>211.39999389648</ele>
        <time>2021-06-24T17:25:58Z</time>
      </trkpt>
      <trkpt lat="44.5147" lon="4.67036">
        <ele>211.60000610352</ele>
        <time>2021-06-24T17:26:10Z</time>
      </trkpt>
      <trkpt lat="44.51471" lon="4.67036">
        <ele>211.60000610352</ele>
        <time>2021-06-24T17:26:20Z</time>
      </trkpt>
      <trkpt lat="44.51471" lon="4.67035">
        <ele>211.80000305176</ele>
        <time>2021-06-24T17:26:29Z</time>
      </trkpt>
      <trkpt lat="44.51471" lon="4.67035">
        <ele>211.60000610352</ele>
        <time>2021-06-24T17:26:38Z</time>
      </trkpt>
      <trkpt lat="44.51471" lon="4.67036">
        <ele>211.60000610352</ele>
        <time>2021-06-24T17:26:48Z</time>
      </trkpt>
      <trkpt lat="44.51472" lon="4.67039">
        <ele>211.39999389648</ele>
        <time>2021-06-24T17:27:00Z</time>
      </trkpt>
      <trkpt lat="44.51472" lon="4.6704">
        <ele>211.39999389648</ele>
        <time>2021-06-24T17:27:10Z</time>
      </trkpt>
      <trkpt lat="44.51474" lon="4.67039">
        <ele>211.19999694824</ele>
        <time>2021-06-24T17:27:17Z</time>
      </trkpt>
      <trkpt lat="44.51477" lon="4.6704">
        <ele>211.19999694824</ele>
        <time>2021-06-24T17:27:19Z</time>
      </trkpt>
      <trkpt lat="44.51481" lon="4.6704">
        <ele>211.39999389648</ele>
        <time>2021-06-24T17:27:21Z</time>
      </trkpt>
      <trkpt lat="44.51483" lon="4.67038">
        <ele>211.39999389648</ele>
        <time>2021-06-24T17:27:22Z</time>
      </trkpt>
      <trkpt lat="44.51485" lon="4.67023">
        <ele>211.39999389648</ele>
        <time>2021-06-24T17:27:26Z</time>
      </trkpt>
      <trkpt lat="44.51487" lon="4.6702">
        <ele>211.39999389648</ele>
        <time>2021-06-24T17:27:27Z</time>
      </trkpt>
      <trkpt lat="44.51489" lon="4.67018">
        <ele>211.39999389648</ele>
        <time>2021-06-24T17:27:28Z</time>
      </trkpt>
      <trkpt lat="44.51492" lon="4.67016">
        <ele>211.60000610352</ele>
        <time>2021-06-24T17:27:29Z</time>
      </trkpt>
      <trkpt lat="44.51495" lon="4.67014">
        <ele>211.39999389648</ele>
        <time>2021-06-24T17:27:30Z</time>
      </trkpt>
      <trkpt lat="44.51498" lon="4.67012">
        <ele>211.39999389648</ele>
        <time>2021-06-24T17:27:31Z</time>
      </trkpt>
      <trkpt lat="44.51501" lon="4.6701">
        <ele>211.60000610352</ele>
        <time>2021-06-24T17:27:32Z</time>
      </trkpt>
      <trkpt lat="44.51504" lon="4.67008">
        <ele>211.39999389648</ele>
        <time>2021-06-24T17:27:33Z</time>
      </trkpt>
      <trkpt lat="44.5151" lon="4.67004">
        <ele>211.39999389648</ele>
        <time>2021-06-24T17:27:35Z</time>
      </trkpt>
      <trkpt lat="44.51513" lon="4.67001">
        <ele>211.60000610352</ele>
        <time>2021-06-24T17:27:36Z</time>
      </trkpt>
      <trkpt lat="44.51516" lon="4.66999">
        <ele>211.80000305176</ele>
        <time>2021-06-24T17:27:37Z</time>
      </trkpt>
      <trkpt lat="44.51519" lon="4.66996">
        <ele>212.39999389648</ele>
        <time>2021-06-24T17:27:38Z</time>
      </trkpt>
      <trkpt lat="44.51521" lon="4.66994">
        <ele>212.60000610352</ele>
        <time>2021-06-24T17:27:39Z</time>
      </trkpt>
      <trkpt lat="44.51524" lon="4.66993">
        <ele>212.80000305176</ele>
        <time>2021-06-24T17:27:40Z</time>
      </trkpt>
      <trkpt lat="44.51527" lon="4.6699">
        <ele>213</ele>
        <time>2021-06-24T17:27:41Z</time>
      </trkpt>
      <trkpt lat="44.51531" lon="4.66986">
        <ele>213.39999389648</ele>
        <time>2021-06-24T17:27:42Z</time>
      </trkpt>
      <trkpt lat="44.51531" lon="4.66986">
        <ele>213.60000610352</ele>
        <time>2021-06-24T17:27:43Z</time>
      </trkpt>
      <trkpt lat="44.51533" lon="4.66984">
        <ele>214.19999694824</ele>
        <time>2021-06-24T17:27:44Z</time>
      </trkpt>
      <trkpt lat="44.51535" lon="4.66982">
        <ele>214.60000610352</ele>
        <time>2021-06-24T17:27:45Z</time>
      </trkpt>
      <trkpt lat="44.51536" lon="4.66979">
        <ele>215</ele>
        <time>2021-06-24T17:27:46Z</time>
      </trkpt>
      <trkpt lat="44.51538" lon="4.66976">
        <ele>215.39999389648</ele>
        <time>2021-06-24T17:27:47Z</time>
      </trkpt>
      <trkpt lat="44.5154" lon="4.66973">
        <ele>216</ele>
        <time>2021-06-24T17:27:48Z</time>
      </trkpt>
      <trkpt lat="44.51541" lon="4.6697">
        <ele>216.19999694824</ele>
        <time>2021-06-24T17:27:49Z</time>
      </trkpt>
      <trkpt lat="44.51543" lon="4.66968">
        <ele>216.80000305176</ele>
        <time>2021-06-24T17:27:50Z</time>
      </trkpt>
      <trkpt lat="44.51544" lon="4.66965">
        <ele>217.39999389648</ele>
        <time>2021-06-24T17:27:51Z</time>
      </trkpt>
      <trkpt lat="44.51546" lon="4.66962">
        <ele>217.80000305176</ele>
        <time>2021-06-24T17:27:52Z</time>
      </trkpt>
      <trkpt lat="44.51547" lon="4.66958">
        <ele>218.19999694824</ele>
        <time>2021-06-24T17:27:53Z</time>
      </trkpt>
      <trkpt lat="44.51549" lon="4.66954">
        <ele>218.80000305176</ele>
        <time>2021-06-24T17:27:54Z</time>
      </trkpt>
      <trkpt lat="44.51551" lon="4.66951">
        <ele>219.19999694824</ele>
        <time>2021-06-24T17:27:55Z</time>
      </trkpt>
      <trkpt lat="44.51553" lon="4.66947">
        <ele>219.39999389648</ele>
        <time>2021-06-24T17:27:56Z</time>
      </trkpt>
      <trkpt lat="44.51555" lon="4.66943">
        <ele>219.39999389648</ele>
        <time>2021-06-24T17:27:57Z</time>
      </trkpt>
      <trkpt lat="44.51557" lon="4.66938">
        <ele>219.60000610352</ele>
        <time>2021-06-24T17:27:58Z</time>
      </trkpt>
      <trkpt lat="44.51559" lon="4.66934">
        <ele>219.60000610352</ele>
        <time>2021-06-24T17:27:59Z</time>
      </trkpt>
      <trkpt lat="44.51561" lon="4.6693">
        <ele>219.80000305176</ele>
        <time>2021-06-24T17:28:00Z</time>
      </trkpt>
      <trkpt lat="44.51563" lon="4.66925">
        <ele>220</ele>
        <time>2021-06-24T17:28:01Z</time>
      </trkpt>
      <trkpt lat="44.51565" lon="4.66921">
        <ele>220</ele>
        <time>2021-06-24T17:28:02Z</time>
      </trkpt>
      <trkpt lat="44.51567" lon="4.66917">
        <ele>220</ele>
        <time>2021-06-24T17:28:03Z</time>
      </trkpt>
      <trkpt lat="44.51569" lon="4.66914">
        <ele>220</ele>
        <time>2021-06-24T17:28:04Z</time>
      </trkpt>
      <trkpt lat="44.5157" lon="4.66911">
        <ele>220.19999694824</ele>
        <time>2021-06-24T17:28:05Z</time>
      </trkpt>
      <trkpt lat="44.51571" lon="4.66908">
        <ele>220.39999389648</ele>
        <time>2021-06-24T17:28:06Z</time>
      </trkpt>
      <trkpt lat="44.51574" lon="4.66906">
        <ele>220.39999389648</ele>
        <time>2021-06-24T17:28:07Z</time>
      </trkpt>
      <trkpt lat="44.51575" lon="4.66902">
        <ele>220.80000305176</ele>
        <time>2021-06-24T17:28:08Z</time>
      </trkpt>
      <trkpt lat="44.51576" lon="4.66899">
        <ele>221</ele>
        <time>2021-06-24T17:28:09Z</time>
      </trkpt>
      <trkpt lat="44.51576" lon="4.66896">
        <ele>221.19999694824</ele>
        <time>2021-06-24T17:28:10Z</time>
      </trkpt>
      <trkpt lat="44.51576" lon="4.66892">
        <ele>221.80000305176</ele>
        <time>2021-06-24T17:28:11Z</time>
      </trkpt>
      <trkpt lat="44.51576" lon="4.66889">
        <ele>221.80000305176</ele>
        <time>2021-06-24T17:28:12Z</time>
      </trkpt>
      <trkpt lat="44.51576" lon="4.66885">
        <ele>222.19999694824</ele>
        <time>2021-06-24T17:28:13Z</time>
      </trkpt>
      <trkpt lat="44.51576" lon="4.6688">
        <ele>222.19999694824</ele>
        <time>2021-06-24T17:28:14Z</time>
      </trkpt>
      <trkpt lat="44.51577" lon="4.66876">
        <ele>222.19999694824</ele>
        <time>2021-06-24T17:28:15Z</time>
      </trkpt>
      <trkpt lat="44.51577" lon="4.66873">
        <ele>222.39999389648</ele>
        <time>2021-06-24T17:28:16Z</time>
      </trkpt>
      <trkpt lat="44.51577" lon="4.66869">
        <ele>222.39999389648</ele>
        <time>2021-06-24T17:28:17Z</time>
      </trkpt>
      <trkpt lat="44.51578" lon="4.66864">
        <ele>222.39999389648</ele>
        <time>2021-06-24T17:28:18Z</time>
      </trkpt>
      <trkpt lat="44.51579" lon="4.6686">
        <ele>222.39999389648</ele>
        <time>2021-06-24T17:28:19Z</time>
      </trkpt>
      <trkpt lat="44.5158" lon="4.66856">
        <ele>222.39999389648</ele>
        <time>2021-06-24T17:28:20Z</time>
      </trkpt>
      <trkpt lat="44.51581" lon="4.66852">
        <ele>222.60000610352</ele>
        <time>2021-06-24T17:28:21Z</time>
      </trkpt>
      <trkpt lat="44.51581" lon="4.66848">
        <ele>222.39999389648</ele>
        <time>2021-06-24T17:28:22Z</time>
      </trkpt>
      <trkpt lat="44.51581" lon="4.66844">
        <ele>222.39999389648</ele>
        <time>2021-06-24T17:28:23Z</time>
      </trkpt>
      <trkpt lat="44.51581" lon="4.6684">
        <ele>222.60000610352</ele>
        <time>2021-06-24T17:28:24Z</time>
      </trkpt>
      <trkpt lat="44.51582" lon="4.66835">
        <ele>222.60000610352</ele>
        <time>2021-06-24T17:28:25Z</time>
      </trkpt>
      <trkpt lat="44.51582" lon="4.66831">
        <ele>222.80000305176</ele>
        <time>2021-06-24T17:28:26Z</time>
      </trkpt>
      <trkpt lat="44.51582" lon="4.66827">
        <ele>222.80000305176</ele>
        <time>2021-06-24T17:28:27Z</time>
      </trkpt>
      <trkpt lat="44.51582" lon="4.66823">
        <ele>223</ele>
        <time>2021-06-24T17:28:28Z</time>
      </trkpt>
      <trkpt lat="44.51582" lon="4.66819">
        <ele>223</ele>
        <time>2021-06-24T17:28:29Z</time>
      </trkpt>
      <trkpt lat="44.51582" lon="4.66815">
        <ele>223</ele>
        <time>2021-06-24T17:28:30Z</time>
      </trkpt>
      <trkpt lat="44.51583" lon="4.66811">
        <ele>223.19999694824</ele>
        <time>2021-06-24T17:28:31Z</time>
      </trkpt>
      <trkpt lat="44.51584" lon="4.66807">
        <ele>223.19999694824</ele>
        <time>2021-06-24T17:28:32Z</time>
      </trkpt>
      <trkpt lat="44.51585" lon="4.66803">
        <ele>223.39999389648</ele>
        <time>2021-06-24T17:28:33Z</time>
      </trkpt>
      <trkpt lat="44.51586" lon="4.66799">
        <ele>223.39999389648</ele>
        <time>2021-06-24T17:28:34Z</time>
      </trkpt>
      <trkpt lat="44.51588" lon="4.66796">
        <ele>223.60000610352</ele>
        <time>2021-06-24T17:28:35Z</time>
      </trkpt>
      <trkpt lat="44.51589" lon="4.66792">
        <ele>224</ele>
        <time>2021-06-24T17:28:36Z</time>
      </trkpt>
      <trkpt lat="44.5159" lon="4.66788">
        <ele>224.19999694824</ele>
        <time>2021-06-24T17:28:37Z</time>
      </trkpt>
      <trkpt lat="44.5159" lon="4.66784">
        <ele>224.19999694824</ele>
        <time>2021-06-24T17:28:38Z</time>
      </trkpt>
      <trkpt lat="44.51591" lon="4.6678">
        <ele>224.80000305176</ele>
        <time>2021-06-24T17:28:39Z</time>
      </trkpt>
      <trkpt lat="44.51591" lon="4.66776">
        <ele>225</ele>
        <time>2021-06-24T17:28:40Z</time>
      </trkpt>
      <trkpt lat="44.51592" lon="4.66773">
        <ele>225.19999694824</ele>
        <time>2021-06-24T17:28:41Z</time>
      </trkpt>
      <trkpt lat="44.51593" lon="4.66769">
        <ele>225.39999389648</ele>
        <time>2021-06-24T17:28:42Z</time>
      </trkpt>
      <trkpt lat="44.51594" lon="4.66766">
        <ele>225.39999389648</ele>
        <time>2021-06-24T17:28:43Z</time>
      </trkpt>
      <trkpt lat="44.51596" lon="4.66763">
        <ele>225.60000610352</ele>
        <time>2021-06-24T17:28:44Z</time>
      </trkpt>
      <trkpt lat="44.51599" lon="4.66761">
        <ele>226</ele>
        <time>2021-06-24T17:28:45Z</time>
      </trkpt>
      <trkpt lat="44.51602" lon="4.66759">
        <ele>226</ele>
        <time>2021-06-24T17:28:46Z</time>
      </trkpt>
      <trkpt lat="44.51604" lon="4.66759">
        <ele>226.19999694824</ele>
        <time>2021-06-24T17:28:47Z</time>
      </trkpt>
      <trkpt lat="44.51607" lon="4.66758">
        <ele>226.19999694824</ele>
        <time>2021-06-24T17:28:48Z</time>
      </trkpt>
      <trkpt lat="44.5161" lon="4.66758">
        <ele>226.39999389648</ele>
        <time>2021-06-24T17:28:49Z</time>
      </trkpt>
      <trkpt lat="44.51613" lon="4.66759">
        <ele>226.39999389648</ele>
        <time>2021-06-24T17:28:50Z</time>
      </trkpt>
      <trkpt lat="44.51616" lon="4.6676">
        <ele>226.60000610352</ele>
        <time>2021-06-24T17:28:51Z</time>
      </trkpt>
      <trkpt lat="44.5162" lon="4.6676">
        <ele>226.60000610352</ele>
        <time>2021-06-24T17:28:52Z</time>
      </trkpt>
      <trkpt lat="44.51623" lon="4.66761">
        <ele>226.60000610352</ele>
        <time>2021-06-24T17:28:53Z</time>
      </trkpt>
      <trkpt lat="44.51626" lon="4.66762">
        <ele>226.80000305176</ele>
        <time>2021-06-24T17:28:54Z</time>
      </trkpt>
      <trkpt lat="44.51629" lon="4.66764">
        <ele>226.80000305176</ele>
        <time>2021-06-24T17:28:55Z</time>
      </trkpt>
      <trkpt lat="44.51631" lon="4.66765">
        <ele>226.80000305176</ele>
        <time>2021-06-24T17:28:56Z</time>
      </trkpt>
      <trkpt lat="44.51634" lon="4.66766">
        <ele>227</ele>
        <time>2021-06-24T17:28:57Z</time>
      </trkpt>
      <trkpt lat="44.51637" lon="4.66767">
        <ele>227</ele>
        <time>2021-06-24T17:28:58Z</time>
      </trkpt>
      <trkpt lat="44.5164" lon="4.66768">
        <ele>227</ele>
        <time>2021-06-24T17:28:59Z</time>
      </trkpt>
      <trkpt lat="44.51643" lon="4.66768">
        <ele>227.19999694824</ele>
        <time>2021-06-24T17:29:00Z</time>
      </trkpt>
      <trkpt lat="44.51646" lon="4.66768">
        <ele>227.39999389648</ele>
        <time>2021-06-24T17:29:01Z</time>
      </trkpt>
      <trkpt lat="44.51648" lon="4.66768">
        <ele>227.80000305176</ele>
        <time>2021-06-24T17:29:02Z</time>
      </trkpt>
      <trkpt lat="44.5165" lon="4.66768">
        <ele>228</ele>
        <time>2021-06-24T17:29:03Z</time>
      </trkpt>
      <trkpt lat="44.51653" lon="4.66768">
        <ele>228.39999389648</ele>
        <time>2021-06-24T17:29:04Z</time>
      </trkpt>
      <trkpt lat="44.51655" lon="4.66767">
        <ele>228.60000610352</ele>
        <time>2021-06-24T17:29:05Z</time>
      </trkpt>
      <trkpt lat="44.51658" lon="4.66767">
        <ele>228.60000610352</ele>
        <time>2021-06-24T17:29:06Z</time>
      </trkpt>
      <trkpt lat="44.5166" lon="4.66767">
        <ele>228.80000305176</ele>
        <time>2021-06-24T17:29:07Z</time>
      </trkpt>
      <trkpt lat="44.51662" lon="4.66766">
        <ele>229.19999694824</ele>
        <time>2021-06-24T17:29:08Z</time>
      </trkpt>
      <trkpt lat="44.51663" lon="4.66766">
        <ele>229.39999389648</ele>
        <time>2021-06-24T17:29:09Z</time>
      </trkpt>
      <trkpt lat="44.51664" lon="4.66765">
        <ele>229.60000610352</ele>
        <time>2021-06-24T17:29:10Z</time>
      </trkpt>
      <trkpt lat="44.51665" lon="4.66764">
        <ele>229.80000305176</ele>
        <time>2021-06-24T17:29:11Z</time>
      </trkpt>
      <trkpt lat="44.51666" lon="4.66763">
        <ele>230.19999694824</ele>
        <time>2021-06-24T17:29:12Z</time>
      </trkpt>
      <trkpt lat="44.51666" lon="4.66761">
        <ele>230.39999389648</ele>
        <time>2021-06-24T17:29:13Z</time>
      </trkpt>
      <trkpt lat="44.51667" lon="4.6676">
        <ele>230.60000610352</ele>
        <time>2021-06-24T17:29:14Z</time>
      </trkpt>
      <trkpt lat="44.51666" lon="4.66761">
        <ele>231.39999389648</ele>
        <time>2021-06-24T17:29:17Z</time>
      </trkpt>
      <trkpt lat="44.51667" lon="4.66761">
        <ele>232.19999694824</ele>
        <time>2021-06-24T17:29:26Z</time>
      </trkpt>
      <trkpt lat="44.51667" lon="4.66762">
        <ele>232.39999389648</ele>
        <time>2021-06-24T17:29:30Z</time>
      </trkpt>
      <trkpt lat="44.51667" lon="4.66761">
        <ele>232.19999694824</ele>
        <time>2021-06-24T17:29:35Z</time>
      </trkpt>
      <trkpt lat="44.51667" lon="4.66761">
        <ele>232</ele>
        <time>2021-06-24T17:29:52Z</time>
      </trkpt>
      <trkpt lat="44.51666" lon="4.66761">
        <ele>232</ele>
        <time>2021-06-24T17:30:07Z</time>
      </trkpt>
      <trkpt lat="44.51665" lon="4.66758">
        <ele>232</ele>
        <time>2021-06-24T17:30:09Z</time>
      </trkpt>
      <trkpt lat="44.51662" lon="4.66754">
        <ele>232</ele>
        <time>2021-06-24T17:30:11Z</time>
      </trkpt>
      <trkpt lat="44.5166" lon="4.66752">
        <ele>232</ele>
        <time>2021-06-24T17:30:12Z</time>
      </trkpt>
      <trkpt lat="44.51657" lon="4.66749">
        <ele>232</ele>
        <time>2021-06-24T17:30:13Z</time>
      </trkpt>
      <trkpt lat="44.51648" lon="4.66739">
        <ele>232.19999694824</ele>
        <time>2021-06-24T17:30:17Z</time>
      </trkpt>
      <trkpt lat="44.51629" lon="4.66719">
        <ele>232.60000610352</ele>
        <time>2021-06-24T17:30:24Z</time>
      </trkpt>
      <trkpt lat="44.51626" lon="4.66715">
        <ele>232.39999389648</ele>
        <time>2021-06-24T17:30:25Z</time>
      </trkpt>
      <trkpt lat="44.51619" lon="4.66708">
        <ele>232.60000610352</ele>
        <time>2021-06-24T17:30:27Z</time>
      </trkpt>
      <trkpt lat="44.51616" lon="4.66705">
        <ele>232.60000610352</ele>
        <time>2021-06-24T17:30:28Z</time>
      </trkpt>
      <trkpt lat="44.51613" lon="4.66702">
        <ele>232.60000610352</ele>
        <time>2021-06-24T17:30:29Z</time>
      </trkpt>
      <trkpt lat="44.51609" lon="4.66699">
        <ele>232.80000305176</ele>
        <time>2021-06-24T17:30:30Z</time>
      </trkpt>
      <trkpt lat="44.51605" lon="4.66697">
        <ele>232.80000305176</ele>
        <time>2021-06-24T17:30:31Z</time>
      </trkpt>
      <trkpt lat="44.5159" lon="4.66688">
        <ele>233</ele>
        <time>2021-06-24T17:30:35Z</time>
      </trkpt>
      <trkpt lat="44.51581" lon="4.66682">
        <ele>233</ele>
        <time>2021-06-24T17:30:37Z</time>
      </trkpt>
      <trkpt lat="44.51576" lon="4.6668">
        <ele>233</ele>
        <time>2021-06-24T17:30:38Z</time>
      </trkpt>
      <trkpt lat="44.51567" lon="4.66673">
        <ele>233.19999694824</ele>
        <time>2021-06-24T17:30:40Z</time>
      </trkpt>
      <trkpt lat="44.51563" lon="4.66669">
        <ele>233.19999694824</ele>
        <time>2021-06-24T17:30:41Z</time>
      </trkpt>
      <trkpt lat="44.51556" lon="4.6666">
        <ele>233.19999694824</ele>
        <time>2021-06-24T17:30:43Z</time>
      </trkpt>
      <trkpt lat="44.5155" lon="4.66649">
        <ele>233.39999389648</ele>
        <time>2021-06-24T17:30:45Z</time>
      </trkpt>
      <trkpt lat="44.51529" lon="4.66618">
        <ele>233.19999694824</ele>
        <time>2021-06-24T17:30:51Z</time>
      </trkpt>
      <trkpt lat="44.51525" lon="4.66612">
        <ele>233.19999694824</ele>
        <time>2021-06-24T17:30:52Z</time>
      </trkpt>
      <trkpt lat="44.51523" lon="4.66606">
        <ele>233.39999389648</ele>
        <time>2021-06-24T17:30:53Z</time>
      </trkpt>
      <trkpt lat="44.51519" lon="4.66593">
        <ele>232.80000305176</ele>
        <time>2021-06-24T17:30:55Z</time>
      </trkpt>
      <trkpt lat="44.51516" lon="4.66587">
        <ele>232.60000610352</ele>
        <time>2021-06-24T17:30:56Z</time>
      </trkpt>
      <trkpt lat="44.51512" lon="4.66581">
        <ele>232.19999694824</ele>
        <time>2021-06-24T17:30:57Z</time>
      </trkpt>
      <trkpt lat="44.51508" lon="4.66575">
        <ele>232.19999694824</ele>
        <time>2021-06-24T17:30:58Z</time>
      </trkpt>
      <trkpt lat="44.51503" lon="4.6657">
        <ele>232</ele>
        <time>2021-06-24T17:30:59Z</time>
      </trkpt>
      <trkpt lat="44.51484" lon="4.66547">
        <ele>231.60000610352</ele>
        <time>2021-06-24T17:31:03Z</time>
      </trkpt>
      <trkpt lat="44.51479" lon="4.66542">
        <ele>231.39999389648</ele>
        <time>2021-06-24T17:31:04Z</time>
      </trkpt>
      <trkpt lat="44.51474" lon="4.66537">
        <ele>231</ele>
        <time>2021-06-24T17:31:05Z</time>
      </trkpt>
      <trkpt lat="44.51469" lon="4.66532">
        <ele>230.39999389648</ele>
        <time>2021-06-24T17:31:06Z</time>
      </trkpt>
      <trkpt lat="44.51465" lon="4.66527">
        <ele>229.80000305176</ele>
        <time>2021-06-24T17:31:07Z</time>
      </trkpt>
      <trkpt lat="44.5146" lon="4.66523">
        <ele>228.80000305176</ele>
        <time>2021-06-24T17:31:08Z</time>
      </trkpt>
      <trkpt lat="44.51455" lon="4.66519">
        <ele>228.60000610352</ele>
        <time>2021-06-24T17:31:09Z</time>
      </trkpt>
      <trkpt lat="44.5145" lon="4.66516">
        <ele>227.80000305176</ele>
        <time>2021-06-24T17:31:10Z</time>
      </trkpt>
      <trkpt lat="44.51445" lon="4.66511">
        <ele>227.60000610352</ele>
        <time>2021-06-24T17:31:11Z</time>
      </trkpt>
      <trkpt lat="44.5144" lon="4.66506">
        <ele>227</ele>
        <time>2021-06-24T17:31:12Z</time>
      </trkpt>
      <trkpt lat="44.51435" lon="4.66502">
        <ele>226.80000305176</ele>
        <time>2021-06-24T17:31:13Z</time>
      </trkpt>
      <trkpt lat="44.51425" lon="4.66492">
        <ele>225.39999389648</ele>
        <time>2021-06-24T17:31:15Z</time>
      </trkpt>
      <trkpt lat="44.51421" lon="4.66487">
        <ele>225.19999694824</ele>
        <time>2021-06-24T17:31:16Z</time>
      </trkpt>
      <trkpt lat="44.51416" lon="4.66481">
        <ele>225</ele>
        <time>2021-06-24T17:31:17Z</time>
      </trkpt>
      <trkpt lat="44.51402" lon="4.66467">
        <ele>223.60000610352</ele>
        <time>2021-06-24T17:31:20Z</time>
      </trkpt>
      <trkpt lat="44.51396" lon="4.66463">
        <ele>223.19999694824</ele>
        <time>2021-06-24T17:31:21Z</time>
      </trkpt>
      <trkpt lat="44.51391" lon="4.66459">
        <ele>222.60000610352</ele>
        <time>2021-06-24T17:31:22Z</time>
      </trkpt>
      <trkpt lat="44.51386" lon="4.66456">
        <ele>222.19999694824</ele>
        <time>2021-06-24T17:31:23Z</time>
      </trkpt>
      <trkpt lat="44.5138" lon="4.66452">
        <ele>222.19999694824</ele>
        <time>2021-06-24T17:31:24Z</time>
      </trkpt>
      <trkpt lat="44.51375" lon="4.66449">
        <ele>222.19999694824</ele>
        <time>2021-06-24T17:31:25Z</time>
      </trkpt>
      <trkpt lat="44.51365" lon="4.66441">
        <ele>222</ele>
        <time>2021-06-24T17:31:27Z</time>
      </trkpt>
      <trkpt lat="44.51361" lon="4.66437">
        <ele>222</ele>
        <time>2021-06-24T17:31:28Z</time>
      </trkpt>
      <trkpt lat="44.51356" lon="4.66433">
        <ele>221.80000305176</ele>
        <time>2021-06-24T17:31:29Z</time>
      </trkpt>
      <trkpt lat="44.51352" lon="4.66429">
        <ele>221.60000610352</ele>
        <time>2021-06-24T17:31:30Z</time>
      </trkpt>
      <trkpt lat="44.51347" lon="4.66425">
        <ele>221.39999389648</ele>
        <time>2021-06-24T17:31:31Z</time>
      </trkpt>
      <trkpt lat="44.51344" lon="4.66421">
        <ele>221.60000610352</ele>
        <time>2021-06-24T17:31:32Z</time>
      </trkpt>
      <trkpt lat="44.5134" lon="4.66416">
        <ele>221.60000610352</ele>
        <time>2021-06-24T17:31:33Z</time>
      </trkpt>
      <trkpt lat="44.51334" lon="4.66404">
        <ele>221.39999389648</ele>
        <time>2021-06-24T17:31:35Z</time>
      </trkpt>
      <trkpt lat="44.51331" lon="4.66398">
        <ele>221.39999389648</ele>
        <time>2021-06-24T17:31:36Z</time>
      </trkpt>
      <trkpt lat="44.5133" lon="4.66391">
        <ele>221.39999389648</ele>
        <time>2021-06-24T17:31:37Z</time>
      </trkpt>
      <trkpt lat="44.51328" lon="4.66385">
        <ele>221.39999389648</ele>
        <time>2021-06-24T17:31:38Z</time>
      </trkpt>
      <trkpt lat="44.51326" lon="4.6638">
        <ele>221.39999389648</ele>
        <time>2021-06-24T17:31:39Z</time>
      </trkpt>
      <trkpt lat="44.51324" lon="4.66375">
        <ele>221.39999389648</ele>
        <time>2021-06-24T17:31:40Z</time>
      </trkpt>
      <trkpt lat="44.51321" lon="4.66371">
        <ele>221.39999389648</ele>
        <time>2021-06-24T17:31:41Z</time>
      </trkpt>
      <trkpt lat="44.51319" lon="4.66367">
        <ele>221.39999389648</ele>
        <time>2021-06-24T17:31:42Z</time>
      </trkpt>
      <trkpt lat="44.51317" lon="4.66362">
        <ele>221.19999694824</ele>
        <time>2021-06-24T17:31:43Z</time>
      </trkpt>
      <trkpt lat="44.51317" lon="4.66359">
        <ele>221.19999694824</ele>
        <time>2021-06-24T17:31:44Z</time>
      </trkpt>
      <trkpt lat="44.51316" lon="4.66358">
        <ele>221.19999694824</ele>
        <time>2021-06-24T17:31:45Z</time>
      </trkpt>
      <trkpt lat="44.51317" lon="4.66359">
        <ele>221.19999694824</ele>
        <time>2021-06-24T17:31:48Z</time>
      </trkpt>
      <trkpt lat="44.51319" lon="4.66359">
        <ele>221.39999389648</ele>
        <time>2021-06-24T17:32:00Z</time>
      </trkpt>
      <trkpt lat="44.51318" lon="4.66353">
        <ele>221.19999694824</ele>
        <time>2021-06-24T17:32:07Z</time>
      </trkpt>
      <trkpt lat="44.51318" lon="4.66351">
        <ele>221.19999694824</ele>
        <time>2021-06-24T17:32:08Z</time>
      </trkpt>
      <trkpt lat="44.51317" lon="4.66348">
        <ele>221.19999694824</ele>
        <time>2021-06-24T17:32:09Z</time>
      </trkpt>
      <trkpt lat="44.51315" lon="4.66337">
        <ele>221.19999694824</ele>
        <time>2021-06-24T17:32:12Z</time>
      </trkpt>
      <trkpt lat="44.51307" lon="4.66325">
        <ele>221</ele>
        <time>2021-06-24T17:32:16Z</time>
      </trkpt>
      <trkpt lat="44.51304" lon="4.66324">
        <ele>221</ele>
        <time>2021-06-24T17:32:17Z</time>
      </trkpt>
      <trkpt lat="44.513" lon="4.66323">
        <ele>221</ele>
        <time>2021-06-24T17:32:18Z</time>
      </trkpt>
      <trkpt lat="44.51297" lon="4.66321">
        <ele>221</ele>
        <time>2021-06-24T17:32:19Z</time>
      </trkpt>
      <trkpt lat="44.51289" lon="4.66317">
        <ele>221</ele>
        <time>2021-06-24T17:32:21Z</time>
      </trkpt>
      <trkpt lat="44.51285" lon="4.66315">
        <ele>220.80000305176</ele>
        <time>2021-06-24T17:32:22Z</time>
      </trkpt>
      <trkpt lat="44.51281" lon="4.66312">
        <ele>221</ele>
        <time>2021-06-24T17:32:23Z</time>
      </trkpt>
      <trkpt lat="44.51263" lon="4.66298">
        <ele>221</ele>
        <time>2021-06-24T17:32:27Z</time>
      </trkpt>
      <trkpt lat="44.51258" lon="4.66297">
        <ele>221</ele>
        <time>2021-06-24T17:32:28Z</time>
      </trkpt>
      <trkpt lat="44.51254" lon="4.66296">
        <ele>221</ele>
        <time>2021-06-24T17:32:29Z</time>
      </trkpt>
      <trkpt lat="44.51244" lon="4.66294">
        <ele>221</ele>
        <time>2021-06-24T17:32:31Z</time>
      </trkpt>
      <trkpt lat="44.51209" lon="4.66295">
        <ele>221</ele>
        <time>2021-06-24T17:32:38Z</time>
      </trkpt>
      <trkpt lat="44.51199" lon="4.66296">
        <ele>221</ele>
        <time>2021-06-24T17:32:40Z</time>
      </trkpt>
      <trkpt lat="44.51194" lon="4.66296">
        <ele>221</ele>
        <time>2021-06-24T17:32:41Z</time>
      </trkpt>
      <trkpt lat="44.51189" lon="4.66296">
        <ele>221</ele>
        <time>2021-06-24T17:32:42Z</time>
      </trkpt>
      <trkpt lat="44.51163" lon="4.66299">
        <ele>221</ele>
        <time>2021-06-24T17:32:47Z</time>
      </trkpt>
      <trkpt lat="44.51159" lon="4.66299">
        <ele>221</ele>
        <time>2021-06-24T17:32:48Z</time>
      </trkpt>
      <trkpt lat="44.51139" lon="4.66302">
        <ele>221.19999694824</ele>
        <time>2021-06-24T17:32:52Z</time>
      </trkpt>
      <trkpt lat="44.51135" lon="4.66303">
        <ele>221</ele>
        <time>2021-06-24T17:32:53Z</time>
      </trkpt>
      <trkpt lat="44.5113" lon="4.66303">
        <ele>221</ele>
        <time>2021-06-24T17:32:54Z</time>
      </trkpt>
      <trkpt lat="44.51126" lon="4.66304">
        <ele>220.80000305176</ele>
        <time>2021-06-24T17:32:55Z</time>
      </trkpt>
      <trkpt lat="44.51124" lon="4.66304">
        <ele>220.80000305176</ele>
        <time>2021-06-24T17:32:56Z</time>
      </trkpt>
      <trkpt lat="44.51124" lon="4.66305">
        <ele>220.80000305176</ele>
        <time>2021-06-24T17:32:57Z</time>
      </trkpt>
      <trkpt lat="44.51124" lon="4.66304">
        <ele>220.80000305176</ele>
        <time>2021-06-24T17:32:58Z</time>
      </trkpt>
      <trkpt lat="44.51125" lon="4.66304">
        <ele>220.60000610352</ele>
        <time>2021-06-24T17:32:59Z</time>
      </trkpt>
      <trkpt lat="44.51127" lon="4.66304">
        <ele>220.80000305176</ele>
        <time>2021-06-24T17:33:00Z</time>
      </trkpt>
      <trkpt lat="44.51132" lon="4.66302">
        <ele>220.60000610352</ele>
        <time>2021-06-24T17:33:03Z</time>
      </trkpt>
      <trkpt lat="44.51133" lon="4.663">
        <ele>220.60000610352</ele>
        <time>2021-06-24T17:33:04Z</time>
      </trkpt>
      <trkpt lat="44.51133" lon="4.66297">
        <ele>220.60000610352</ele>
        <time>2021-06-24T17:33:05Z</time>
      </trkpt>
      <trkpt lat="44.51134" lon="4.66294">
        <ele>220.60000610352</ele>
        <time>2021-06-24T17:33:06Z</time>
      </trkpt>
      <trkpt lat="44.51134" lon="4.66292">
        <ele>220.60000610352</ele>
        <time>2021-06-24T17:33:07Z</time>
      </trkpt>
      <trkpt lat="44.51134" lon="4.66292">
        <ele>220.60000610352</ele>
        <time>2021-06-24T17:33:10Z</time>
      </trkpt>
      <trkpt lat="44.51134" lon="4.66291">
        <ele>221.19999694824</ele>
        <time>2021-06-24T17:33:28Z</time>
      </trkpt>
      <trkpt lat="44.51136" lon="4.66287">
        <ele>221.19999694824</ele>
        <time>2021-06-24T17:33:32Z</time>
      </trkpt>
      <trkpt lat="44.51136" lon="4.66285">
        <ele>221.19999694824</ele>
        <time>2021-06-24T17:33:33Z</time>
      </trkpt>
      <trkpt lat="44.51138" lon="4.66279">
        <ele>221.19999694824</ele>
        <time>2021-06-24T17:33:36Z</time>
      </trkpt>
      <trkpt lat="44.51139" lon="4.66277">
        <ele>221.19999694824</ele>
        <time>2021-06-24T17:33:37Z</time>
      </trkpt>
      <trkpt lat="44.51139" lon="4.66276">
        <ele>221.19999694824</ele>
        <time>2021-06-24T17:33:38Z</time>
      </trkpt>
      <trkpt lat="44.51139" lon="4.66276">
        <ele>221.39999389648</ele>
        <time>2021-06-24T17:33:40Z</time>
      </trkpt>
      <trkpt lat="44.5114" lon="4.66273">
        <ele>221.39999389648</ele>
        <time>2021-06-24T17:33:42Z</time>
      </trkpt>
      <trkpt lat="44.5114" lon="4.66268">
        <ele>221.39999389648</ele>
        <time>2021-06-24T17:33:45Z</time>
      </trkpt>
      <trkpt lat="44.5114" lon="4.66267">
        <ele>221.39999389648</ele>
        <time>2021-06-24T17:33:46Z</time>
      </trkpt>
      <trkpt lat="44.5114" lon="4.66266">
        <ele>221.39999389648</ele>
        <time>2021-06-24T17:33:47Z</time>
      </trkpt>
      <trkpt lat="44.5114" lon="4.66266">
        <ele>221.39999389648</ele>
        <time>2021-06-24T17:33:48Z</time>
      </trkpt>
      <trkpt lat="44.51141" lon="4.66264">
        <ele>221.39999389648</ele>
        <time>2021-06-24T17:33:51Z</time>
      </trkpt>
      <trkpt lat="44.51141" lon="4.66263">
        <ele>221.39999389648</ele>
        <time>2021-06-24T17:33:52Z</time>
      </trkpt>
      <trkpt lat="44.51141" lon="4.66262">
        <ele>221.19999694824</ele>
        <time>2021-06-24T17:33:53Z</time>
      </trkpt>
      <trkpt lat="44.51142" lon="4.66261">
        <ele>221.19999694824</ele>
        <time>2021-06-24T17:33:54Z</time>
      </trkpt>
      <trkpt lat="44.51143" lon="4.6626">
        <ele>221</ele>
        <time>2021-06-24T17:33:55Z</time>
      </trkpt>
      <trkpt lat="44.51143" lon="4.66258">
        <ele>221</ele>
        <time>2021-06-24T17:33:57Z</time>
      </trkpt>
      <trkpt lat="44.51146" lon="4.66251">
        <ele>221</ele>
        <time>2021-06-24T17:34:00Z</time>
      </trkpt>
      <trkpt lat="44.51148" lon="4.66243">
        <ele>221</ele>
        <time>2021-06-24T17:34:02Z</time>
      </trkpt>
      <trkpt lat="44.51148" lon="4.66238">
        <ele>221</ele>
        <time>2021-06-24T17:34:03Z</time>
      </trkpt>
      <trkpt lat="44.51148" lon="4.66234">
        <ele>220.80000305176</ele>
        <time>2021-06-24T17:34:04Z</time>
      </trkpt>
      <trkpt lat="44.51148" lon="4.6623">
        <ele>220.80000305176</ele>
        <time>2021-06-24T17:34:05Z</time>
      </trkpt>
      <trkpt lat="44.51148" lon="4.66226">
        <ele>220.80000305176</ele>
        <time>2021-06-24T17:34:06Z</time>
      </trkpt>
      <trkpt lat="44.51147" lon="4.66221">
        <ele>220.60000610352</ele>
        <time>2021-06-24T17:34:07Z</time>
      </trkpt>
      <trkpt lat="44.51146" lon="4.6621">
        <ele>220.39999389648</ele>
        <time>2021-06-24T17:34:09Z</time>
      </trkpt>
      <trkpt lat="44.51143" lon="4.66201">
        <ele>220.19999694824</ele>
        <time>2021-06-24T17:34:11Z</time>
      </trkpt>
      <trkpt lat="44.5114" lon="4.66198">
        <ele>220</ele>
        <time>2021-06-24T17:34:12Z</time>
      </trkpt>
      <trkpt lat="44.51137" lon="4.66194">
        <ele>219.80000305176</ele>
        <time>2021-06-24T17:34:13Z</time>
      </trkpt>
      <trkpt lat="44.51135" lon="4.6619">
        <ele>219.60000610352</ele>
        <time>2021-06-24T17:34:14Z</time>
      </trkpt>
      <trkpt lat="44.51134" lon="4.66186">
        <ele>219.19999694824</ele>
        <time>2021-06-24T17:34:15Z</time>
      </trkpt>
      <trkpt lat="44.51135" lon="4.6618">
        <ele>218.80000305176</ele>
        <time>2021-06-24T17:34:16Z</time>
      </trkpt>
      <trkpt lat="44.51136" lon="4.66168">
        <ele>218</ele>
        <time>2021-06-24T17:34:18Z</time>
      </trkpt>
      <trkpt lat="44.51136" lon="4.66162">
        <ele>218</ele>
        <time>2021-06-24T17:34:19Z</time>
      </trkpt>
      <trkpt lat="44.51135" lon="4.66149">
        <ele>217.19999694824</ele>
        <time>2021-06-24T17:34:21Z</time>
      </trkpt>
      <trkpt lat="44.51133" lon="4.66135">
        <ele>216</ele>
        <time>2021-06-24T17:34:23Z</time>
      </trkpt>
      <trkpt lat="44.5113" lon="4.66123">
        <ele>215.19999694824</ele>
        <time>2021-06-24T17:34:25Z</time>
      </trkpt>
      <trkpt lat="44.51127" lon="4.66118">
        <ele>214.80000305176</ele>
        <time>2021-06-24T17:34:26Z</time>
      </trkpt>
      <trkpt lat="44.51123" lon="4.66115">
        <ele>214.39999389648</ele>
        <time>2021-06-24T17:34:27Z</time>
      </trkpt>
      <trkpt lat="44.51119" lon="4.66113">
        <ele>214.39999389648</ele>
        <time>2021-06-24T17:34:28Z</time>
      </trkpt>
      <trkpt lat="44.51115" lon="4.66111">
        <ele>214</ele>
        <time>2021-06-24T17:34:29Z</time>
      </trkpt>
      <trkpt lat="44.51111" lon="4.66109">
        <ele>213.60000610352</ele>
        <time>2021-06-24T17:34:30Z</time>
      </trkpt>
      <trkpt lat="44.51107" lon="4.66107">
        <ele>212.80000305176</ele>
        <time>2021-06-24T17:34:31Z</time>
      </trkpt>
      <trkpt lat="44.51104" lon="4.66105">
        <ele>212.39999389648</ele>
        <time>2021-06-24T17:34:32Z</time>
      </trkpt>
      <trkpt lat="44.51101" lon="4.66103">
        <ele>211.80000305176</ele>
        <time>2021-06-24T17:34:33Z</time>
      </trkpt>
      <trkpt lat="44.51097" lon="4.66101">
        <ele>211.60000610352</ele>
        <time>2021-06-24T17:34:34Z</time>
      </trkpt>
      <trkpt lat="44.51093" lon="4.66099">
        <ele>211.19999694824</ele>
        <time>2021-06-24T17:34:35Z</time>
      </trkpt>
      <trkpt lat="44.51088" lon="4.66098">
        <ele>210.80000305176</ele>
        <time>2021-06-24T17:34:36Z</time>
      </trkpt>
      <trkpt lat="44.51076" lon="4.66096">
        <ele>209</ele>
        <time>2021-06-24T17:34:38Z</time>
      </trkpt>
      <trkpt lat="44.51071" lon="4.66094">
        <ele>207.80000305176</ele>
        <time>2021-06-24T17:34:39Z</time>
      </trkpt>
      <trkpt lat="44.51066" lon="4.6609">
        <ele>207.39999389648</ele>
        <time>2021-06-24T17:34:40Z</time>
      </trkpt>
      <trkpt lat="44.51061" lon="4.66086">
        <ele>207</ele>
        <time>2021-06-24T17:34:41Z</time>
      </trkpt>
      <trkpt lat="44.51057" lon="4.66081">
        <ele>206</ele>
        <time>2021-06-24T17:34:42Z</time>
      </trkpt>
      <trkpt lat="44.51054" lon="4.66076">
        <ele>205</ele>
        <time>2021-06-24T17:34:43Z</time>
      </trkpt>
      <trkpt lat="44.51051" lon="4.6607">
        <ele>203.60000610352</ele>
        <time>2021-06-24T17:34:44Z</time>
      </trkpt>
      <trkpt lat="44.51049" lon="4.66064">
        <ele>202</ele>
        <time>2021-06-24T17:34:45Z</time>
      </trkpt>
      <trkpt lat="44.51048" lon="4.66056">
        <ele>200.60000610352</ele>
        <time>2021-06-24T17:34:46Z</time>
      </trkpt>
      <trkpt lat="44.51047" lon="4.66046">
        <ele>199.39999389648</ele>
        <time>2021-06-24T17:34:47Z</time>
      </trkpt>
      <trkpt lat="44.51047" lon="4.66037">
        <ele>198.39999389648</ele>
        <time>2021-06-24T17:34:48Z</time>
      </trkpt>
      <trkpt lat="44.51047" lon="4.66027">
        <ele>197.39999389648</ele>
        <time>2021-06-24T17:34:49Z</time>
      </trkpt>
      <trkpt lat="44.51047" lon="4.66017">
        <ele>196.60000610352</ele>
        <time>2021-06-24T17:34:50Z</time>
      </trkpt>
      <trkpt lat="44.51049" lon="4.65986">
        <ele>193.60000610352</ele>
        <time>2021-06-24T17:34:53Z</time>
      </trkpt>
      <trkpt lat="44.5105" lon="4.65965">
        <ele>192</ele>
        <time>2021-06-24T17:34:55Z</time>
      </trkpt>
      <trkpt lat="44.51051" lon="4.65956">
        <ele>191</ele>
        <time>2021-06-24T17:34:56Z</time>
      </trkpt>
      <trkpt lat="44.51051" lon="4.65947">
        <ele>190.19999694824</ele>
        <time>2021-06-24T17:34:57Z</time>
      </trkpt>
      <trkpt lat="44.5105" lon="4.6594">
        <ele>189.19999694824</ele>
        <time>2021-06-24T17:34:58Z</time>
      </trkpt>
      <trkpt lat="44.51048" lon="4.65934">
        <ele>188.80000305176</ele>
        <time>2021-06-24T17:34:59Z</time>
      </trkpt>
      <trkpt lat="44.51047" lon="4.65929">
        <ele>187.39999389648</ele>
        <time>2021-06-24T17:35:00Z</time>
      </trkpt>
      <trkpt lat="44.51045" lon="4.65925">
        <ele>186.19999694824</ele>
        <time>2021-06-24T17:35:01Z</time>
      </trkpt>
      <trkpt lat="44.51044" lon="4.65922">
        <ele>185.19999694824</ele>
        <time>2021-06-24T17:35:02Z</time>
      </trkpt>
      <trkpt lat="44.51043" lon="4.6592">
        <ele>184.19999694824</ele>
        <time>2021-06-24T17:35:03Z</time>
      </trkpt>
      <trkpt lat="44.51043" lon="4.65918">
        <ele>183.39999389648</ele>
        <time>2021-06-24T17:35:04Z</time>
      </trkpt>
      <trkpt lat="44.51041" lon="4.65917">
        <ele>182.80000305176</ele>
        <time>2021-06-24T17:35:05Z</time>
      </trkpt>
      <trkpt lat="44.5104" lon="4.65917">
        <ele>182.19999694824</ele>
        <time>2021-06-24T17:35:06Z</time>
      </trkpt>
      <trkpt lat="44.51039" lon="4.65917">
        <ele>182</ele>
        <time>2021-06-24T17:35:07Z</time>
      </trkpt>
      <trkpt lat="44.51029" lon="4.65916">
        <ele>178.80000305176</ele>
        <time>2021-06-24T17:35:13Z</time>
      </trkpt>
      <trkpt lat="44.5102" lon="4.65915">
        <ele>178.60000610352</ele>
        <time>2021-06-24T17:35:16Z</time>
      </trkpt>
      <trkpt lat="44.51018" lon="4.65914">
        <ele>178.60000610352</ele>
        <time>2021-06-24T17:35:17Z</time>
      </trkpt>
      <trkpt lat="44.51016" lon="4.65914">
        <ele>178.60000610352</ele>
        <time>2021-06-24T17:35:18Z</time>
      </trkpt>
      <trkpt lat="44.51015" lon="4.65914">
        <ele>178.60000610352</ele>
        <time>2021-06-24T17:35:21Z</time>
      </trkpt>
      <trkpt lat="44.51015" lon="4.65914">
        <ele>179.80000305176</ele>
        <time>2021-06-24T17:35:33Z</time>
      </trkpt>
      <trkpt lat="44.51015" lon="4.65914">
        <ele>179.80000305176</ele>
        <time>2021-06-24T17:35:57Z</time>
      </trkpt>
      <trkpt lat="44.51013" lon="4.65911">
        <ele>179.80000305176</ele>
        <time>2021-06-24T17:36:01Z</time>
      </trkpt>
      <trkpt lat="44.51011" lon="4.65909">
        <ele>179.80000305176</ele>
        <time>2021-06-24T17:36:02Z</time>
      </trkpt>
      <trkpt lat="44.51001" lon="4.65897">
        <ele>179.80000305176</ele>
        <time>2021-06-24T17:36:06Z</time>
      </trkpt>
      <trkpt lat="44.50993" lon="4.6589">
        <ele>179.80000305176</ele>
        <time>2021-06-24T17:36:08Z</time>
      </trkpt>
      <trkpt lat="44.50975" lon="4.65873">
        <ele>179.80000305176</ele>
        <time>2021-06-24T17:36:12Z</time>
      </trkpt>
      <trkpt lat="44.50972" lon="4.65867">
        <ele>180</ele>
        <time>2021-06-24T17:36:13Z</time>
      </trkpt>
      <trkpt lat="44.5097" lon="4.6586">
        <ele>180</ele>
        <time>2021-06-24T17:36:14Z</time>
      </trkpt>
      <trkpt lat="44.5097" lon="4.65852">
        <ele>179.80000305176</ele>
        <time>2021-06-24T17:36:15Z</time>
      </trkpt>
      <trkpt lat="44.50969" lon="4.65834">
        <ele>179.60000610352</ele>
        <time>2021-06-24T17:36:17Z</time>
      </trkpt>
      <trkpt lat="44.50966" lon="4.65826">
        <ele>179</ele>
        <time>2021-06-24T17:36:18Z</time>
      </trkpt>
      <trkpt lat="44.50963" lon="4.65819">
        <ele>179</ele>
        <time>2021-06-24T17:36:19Z</time>
      </trkpt>
      <trkpt lat="44.50959" lon="4.65812">
        <ele>178.60000610352</ele>
        <time>2021-06-24T17:36:20Z</time>
      </trkpt>
      <trkpt lat="44.50954" lon="4.65806">
        <ele>178.60000610352</ele>
        <time>2021-06-24T17:36:21Z</time>
      </trkpt>
      <trkpt lat="44.5095" lon="4.65799">
        <ele>178.39999389648</ele>
        <time>2021-06-24T17:36:22Z</time>
      </trkpt>
      <trkpt lat="44.50941" lon="4.65785">
        <ele>177.80000305176</ele>
        <time>2021-06-24T17:36:24Z</time>
      </trkpt>
      <trkpt lat="44.50927" lon="4.65763">
        <ele>176.39999389648</ele>
        <time>2021-06-24T17:36:27Z</time>
      </trkpt>
      <trkpt lat="44.50923" lon="4.65754">
        <ele>176.19999694824</ele>
        <time>2021-06-24T17:36:28Z</time>
      </trkpt>
      <trkpt lat="44.50919" lon="4.65745">
        <ele>176</ele>
        <time>2021-06-24T17:36:29Z</time>
      </trkpt>
      <trkpt lat="44.50915" lon="4.65737">
        <ele>175.60000610352</ele>
        <time>2021-06-24T17:36:30Z</time>
      </trkpt>
      <trkpt lat="44.50903" lon="4.65725">
        <ele>174.80000305176</ele>
        <time>2021-06-24T17:36:32Z</time>
      </trkpt>
      <trkpt lat="44.50896" lon="4.6572">
        <ele>174.60000610352</ele>
        <time>2021-06-24T17:36:33Z</time>
      </trkpt>
      <trkpt lat="44.50889" lon="4.65717">
        <ele>174.19999694824</ele>
        <time>2021-06-24T17:36:34Z</time>
      </trkpt>
      <trkpt lat="44.50882" lon="4.65713">
        <ele>174</ele>
        <time>2021-06-24T17:36:35Z</time>
      </trkpt>
      <trkpt lat="44.50876" lon="4.6571">
        <ele>173.60000610352</ele>
        <time>2021-06-24T17:36:36Z</time>
      </trkpt>
      <trkpt lat="44.50869" lon="4.65708">
        <ele>173</ele>
        <time>2021-06-24T17:36:37Z</time>
      </trkpt>
      <trkpt lat="44.50863" lon="4.65706">
        <ele>172.39999389648</ele>
        <time>2021-06-24T17:36:38Z</time>
      </trkpt>
      <trkpt lat="44.50858" lon="4.65703">
        <ele>172</ele>
        <time>2021-06-24T17:36:39Z</time>
      </trkpt>
      <trkpt lat="44.50854" lon="4.65698">
        <ele>171.60000610352</ele>
        <time>2021-06-24T17:36:40Z</time>
      </trkpt>
      <trkpt lat="44.50852" lon="4.65694">
        <ele>171.19999694824</ele>
        <time>2021-06-24T17:36:41Z</time>
      </trkpt>
      <trkpt lat="44.5085" lon="4.65691">
        <ele>170.80000305176</ele>
        <time>2021-06-24T17:36:42Z</time>
      </trkpt>
      <trkpt lat="44.50848" lon="4.65689">
        <ele>170.80000305176</ele>
        <time>2021-06-24T17:36:43Z</time>
      </trkpt>
      <trkpt lat="44.50851" lon="4.65685">
        <ele>161.95</ele>
      </trkpt>
      <trkpt lat="44.50838" lon="4.65677">
        <ele>161.11</ele>
      </trkpt>
      <trkpt lat="44.50757" lon="4.65649">
        <ele>161.7</ele>
      </trkpt>
      <trkpt lat="44.50676" lon="4.6562">
        <ele>161.17</ele>
      </trkpt>
      <trkpt lat="44.50666" lon="4.65626">
        <ele>160.78</ele>
      </trkpt>
      <trkpt lat="44.50656" lon="4.65713">
        <ele>160.67</ele>
      </trkpt>
      <trkpt lat="44.50648" lon="4.65726">
        <ele>160.8</ele>
      </trkpt>
      <trkpt lat="44.50638" lon="4.65722">
        <ele>160.46</ele>
      </trkpt>
      <trkpt lat="44.5063" lon="4.65709">
        <ele>159.94</ele>
      </trkpt>
      <trkpt lat="44.50595" lon="4.65681">
        <ele>158.5</ele>
      </trkpt>
      <trkpt lat="44.50546" lon="4.65634">
        <ele>155.64</ele>
      </trkpt>
      <trkpt lat="44.50539" lon="4.65644">
        <ele>155.56</ele>
      </trkpt>
      <trkpt lat="44.50546" lon="4.65677">
        <ele>156.6</ele>
      </trkpt>
      <trkpt lat="44.50548" lon="4.65698">
        <ele>157.28</ele>
      </trkpt>
      <trkpt lat="44.50541" lon="4.6571">
        <ele>157.41</ele>
      </trkpt>
      <trkpt lat="44.50531" lon="4.65711">
        <ele>157.05</ele>
      </trkpt>
      <trkpt lat="44.50523" lon="4.65721">
        <ele>157.45</ele>
      </trkpt>
      <trkpt lat="44.50518" lon="4.65778">
        <ele>161.58</ele>
      </trkpt>
      <trkpt lat="44.50511" lon="4.65789">
        <ele>161.92</ele>
      </trkpt>
      <trkpt lat="44.50499" lon="4.65798">
        <ele>162.16</ele>
      </trkpt>
      <trkpt lat="44.50492" lon="4.65809">
        <ele>162.85</ele>
      </trkpt>
      <trkpt lat="44.50487" lon="4.65824">
        <ele>163.76</ele>
      </trkpt>
      <trkpt lat="44.50488" lon="4.65847">
        <ele>165.62</ele>
      </trkpt>
      <trkpt lat="44.50498" lon="4.65881">
        <ele>168.94</ele>
      </trkpt>
      <trkpt lat="44.50499" lon="4.65896">
        <ele>170.19</ele>
      </trkpt>
      <trkpt lat="44.50499" lon="4.65914">
        <ele>171.74</ele>
      </trkpt>
      <trkpt lat="44.50489" lon="4.65941">
        <ele>175.32</ele>
      </trkpt>
      <trkpt lat="44.50479" lon="4.65943">
        <ele>175.43</ele>
      </trkpt>
      <trkpt lat="44.50462" lon="4.65937">
        <ele>174.95</ele>
      </trkpt>
      <trkpt lat="44.50434" lon="4.65924">
        <ele>173.69</ele>
      </trkpt>
      <trkpt lat="44.50422" lon="4.65924">
        <ele>174.09</ele>
      </trkpt>
      <trkpt lat="44.50412" lon="4.65929">
        <ele>175.26</ele>
      </trkpt>
      <trkpt lat="44.50405" lon="4.65941">
        <ele>177.19</ele>
      </trkpt>
      <trkpt lat="44.50396" lon="4.65949">
        <ele>178.05</ele>
      </trkpt>
      <trkpt lat="44.50383" lon="4.65954">
        <ele>179.52</ele>
      </trkpt>
      <trkpt lat="44.50361" lon="4.65955">
        <ele>180.48</ele>
      </trkpt>
      <trkpt lat="44.50334" lon="4.65959">
        <ele>181.99</ele>
      </trkpt>
      <trkpt lat="44.50306" lon="4.6596">
        <ele>182.58</ele>
      </trkpt>
      <trkpt lat="44.50269" lon="4.65934">
        <ele>181.83</ele>
      </trkpt>
      <trkpt lat="44.50255" lon="4.65931">
        <ele>181.84</ele>
      </trkpt>
      <trkpt lat="44.5019" lon="4.65943">
        <ele>178.46</ele>
      </trkpt>
      <trkpt lat="44.50132" lon="4.65943">
        <ele>172.01</ele>
      </trkpt>
      <trkpt lat="44.50107" lon="4.65934">
        <ele>170.81</ele>
      </trkpt>
      <trkpt lat="44.50088" lon="4.65931">
        <ele>168.98</ele>
      </trkpt>
      <trkpt lat="44.50057" lon="4.65922">
        <ele>167.12</ele>
      </trkpt>
      <trkpt lat="44.50026" lon="4.65924">
        <ele>163.31</ele>
      </trkpt>
      <trkpt lat="44.50012" lon="4.65923">
        <ele>163.67</ele>
      </trkpt>
      <trkpt lat="44.50001" lon="4.65917">
        <ele>163.53</ele>
      </trkpt>
      <trkpt lat="44.49969" lon="4.65911">
        <ele>159.65</ele>
      </trkpt>
      <trkpt lat="44.49938" lon="4.65892">
        <ele>157.29</ele>
      </trkpt>
      <trkpt lat="44.49929" lon="4.65884">
        <ele>157.19</ele>
      </trkpt>
      <trkpt lat="44.49862" lon="4.65848">
        <ele>135.74</ele>
      </trkpt>
      <trkpt lat="44.49849" lon="4.65844">
        <ele>127.87</ele>
      </trkpt>
      <trkpt lat="44.49825" lon="4.65829">
        <ele>117.41</ele>
      </trkpt>
      <trkpt lat="44.49821" lon="4.65841">
        <ele>115.19</ele>
      </trkpt>
      <trkpt lat="44.49842" lon="4.65864">
        <ele>121.67</ele>
      </trkpt>
      <trkpt lat="44.49858" lon="4.65899">
        <ele>122</ele>
      </trkpt>
      <trkpt lat="44.49844" lon="4.65899">
        <ele>117.45</ele>
      </trkpt>
      <trkpt lat="44.49835" lon="4.65893">
        <ele>115.41</ele>
      </trkpt>
      <trkpt lat="44.49829" lon="4.65903">
        <ele>111.54</ele>
      </trkpt>
      <trkpt lat="44.49829" lon="4.65916">
        <ele>110.21</ele>
      </trkpt>
      <trkpt lat="44.49821" lon="4.65909">
        <ele>108.52</ele>
      </trkpt>
      <trkpt lat="44.49811" lon="4.65914">
        <ele>102.75</ele>
      </trkpt>
      <trkpt lat="44.49786" lon="4.6592">
        <ele>100.6</ele>
      </trkpt>
      <trkpt lat="44.49784" lon="4.65929">
        <ele>100.6</ele>
      </trkpt>
      <trkpt lat="44.49767" lon="4.65942">
        <ele>97.43</ele>
      </trkpt>
      <trkpt lat="44.49748" lon="4.65949">
        <ele>95.12</ele>
      </trkpt>
      <trkpt lat="44.49732" lon="4.65944">
        <ele>92.93</ele>
      </trkpt>
      <trkpt lat="44.49725" lon="4.6595">
        <ele>91.57</ele>
      </trkpt>
      <trkpt lat="44.49691" lon="4.65955">
        <ele>88.79</ele>
      </trkpt>
      <trkpt lat="44.49677" lon="4.66051">
        <ele>88.6</ele>
      </trkpt>
      <trkpt lat="44.4967" lon="4.66079">
        <ele>88.68</ele>
      </trkpt>
      <trkpt lat="44.49666" lon="4.66087">
        <ele>93.27</ele>
      </trkpt>
      <trkpt lat="44.49657" lon="4.6608">
        <ele>90.98</ele>
      </trkpt>
      <trkpt lat="44.49647" lon="4.6608">
        <ele>89.72</ele>
      </trkpt>
      <trkpt lat="44.49634" lon="4.66056">
        <ele>87.08</ele>
      </trkpt>
      <trkpt lat="44.49625" lon="4.66057">
        <ele>86.93</ele>
      </trkpt>
      <trkpt lat="44.49619" lon="4.66067">
        <ele>87.08</ele>
      </trkpt>
      <trkpt lat="44.49609" lon="4.66057">
        <ele>86.42</ele>
      </trkpt>
      <trkpt lat="44.49597" lon="4.66054">
        <ele>85.85</ele>
      </trkpt>
      <trkpt lat="44.49578" lon="4.66035">
        <ele>85.07</ele>
      </trkpt>
      <trkpt lat="44.49573" lon="4.66024">
        <ele>84.96</ele>
      </trkpt>
      <trkpt lat="44.49554" lon="4.66017">
        <ele>84.5</ele>
      </trkpt>
      <trkpt lat="44.49542" lon="4.66007">
        <ele>84.21</ele>
      </trkpt>
      <trkpt lat="44.49527" lon="4.66009">
        <ele>83.75</ele>
      </trkpt>
      <trkpt lat="44.49515" lon="4.66003">
        <ele>83.4</ele>
      </trkpt>
      <trkpt lat="44.49509" lon="4.65977">
        <ele>83.42</ele>
      </trkpt>
      <trkpt lat="44.49497" lon="4.65979">
        <ele>83.1</ele>
      </trkpt>
      <trkpt lat="44.49472" lon="4.65934">
        <ele>83.2</ele>
      </trkpt>
      <trkpt lat="44.49474" lon="4.65912">
        <ele>83.4</ele>
      </trkpt>
      <trkpt lat="44.49468" lon="4.659">
        <ele>83.4</ele>
      </trkpt>
      <trkpt lat="44.49444" lon="4.65897">
        <ele>83.96</ele>
      </trkpt>
      <trkpt lat="44.49409" lon="4.65876">
        <ele>85.92</ele>
      </trkpt>
      <trkpt lat="44.49372" lon="4.65858">
        <ele>87.4</ele>
      </trkpt>
      <trkpt lat="44.49348" lon="4.65851">
        <ele>88.61</ele>
      </trkpt>
      <trkpt lat="44.49327" lon="4.65847">
        <ele>88.84</ele>
      </trkpt>
      <trkpt lat="44.49336" lon="4.6579">
        <ele>94.31</ele>
      </trkpt>
      <trkpt lat="44.49324" lon="4.65704">
        <ele>103.25</ele>
      </trkpt>
      <trkpt lat="44.49312" lon="4.65619">
        <ele>108.21</ele>
      </trkpt>
      <trkpt lat="44.49333" lon="4.65602">
        <ele>109.52</ele>
      </trkpt>
      <trkpt lat="44.49334" lon="4.65592">
        <ele>109.52</ele>
      </trkpt>
      <trkpt lat="44.4931" lon="4.65529">
        <ele>111.17</ele>
      </trkpt>
      <trkpt lat="44.49298" lon="4.65478">
        <ele>114.31</ele>
      </trkpt>
      <trkpt lat="44.49294" lon="4.65447">
        <ele>116.43</ele>
      </trkpt>
      <trkpt lat="44.493" lon="4.65418">
        <ele>118.04</ele>
      </trkpt>
      <trkpt lat="44.49298" lon="4.654">
        <ele>119.14</ele>
      </trkpt>
      <trkpt lat="44.49282" lon="4.65374">
        <ele>120.43</ele>
      </trkpt>
      <trkpt lat="44.49272" lon="4.65347">
        <ele>121.32</ele>
      </trkpt>
      <trkpt lat="44.49263" lon="4.65303">
        <ele>121.64</ele>
      </trkpt>
      <trkpt lat="44.4925" lon="4.65258">
        <ele>120.87</ele>
      </trkpt>
      <trkpt lat="44.49252" lon="4.65211">
        <ele>121.61</ele>
      </trkpt>
      <trkpt lat="44.49252" lon="4.65212">
        <ele>115.57</ele>
      </trkpt>
      <trkpt lat="44.49251" lon="4.65212">
        <ele>116.40000152588</ele>
        <time>2020-02-28T13:15:41Z</time>
      </trkpt>
      <trkpt lat="44.49249" lon="4.65214">
        <ele>116.80000305176</ele>
        <time>2020-02-28T13:15:42Z</time>
      </trkpt>
      <trkpt lat="44.49247" lon="4.65217">
        <ele>117</ele>
        <time>2020-02-28T13:15:43Z</time>
      </trkpt>
      <trkpt lat="44.49244" lon="4.65219">
        <ele>117.59999847412</ele>
        <time>2020-02-28T13:15:44Z</time>
      </trkpt>
      <trkpt lat="44.49241" lon="4.65221">
        <ele>118.40000152588</ele>
        <time>2020-02-28T13:15:45Z</time>
      </trkpt>
      <trkpt lat="44.49238" lon="4.65223">
        <ele>119</ele>
        <time>2020-02-28T13:15:46Z</time>
      </trkpt>
      <trkpt lat="44.49235" lon="4.65225">
        <ele>119.40000152588</ele>
        <time>2020-02-28T13:15:47Z</time>
      </trkpt>
      <trkpt lat="44.49232" lon="4.65227">
        <ele>119.80000305176</ele>
        <time>2020-02-28T13:15:48Z</time>
      </trkpt>
      <trkpt lat="44.49229" lon="4.65229">
        <ele>120.19999694824</ele>
        <time>2020-02-28T13:15:49Z</time>
      </trkpt>
      <trkpt lat="44.49226" lon="4.65232">
        <ele>120.59999847412</ele>
        <time>2020-02-28T13:15:50Z</time>
      </trkpt>
      <trkpt lat="44.49223" lon="4.65234">
        <ele>121.40000152588</ele>
        <time>2020-02-28T13:15:51Z</time>
      </trkpt>
      <trkpt lat="44.49221" lon="4.65236">
        <ele>122</ele>
        <time>2020-02-28T13:15:52Z</time>
      </trkpt>
      <trkpt lat="44.49219" lon="4.65239">
        <ele>122</ele>
        <time>2020-02-28T13:15:53Z</time>
      </trkpt>
      <trkpt lat="44.49216" lon="4.65242">
        <ele>122.40000152588</ele>
        <time>2020-02-28T13:15:54Z</time>
      </trkpt>
      <trkpt lat="44.49214" lon="4.65244">
        <ele>123</ele>
        <time>2020-02-28T13:15:55Z</time>
      </trkpt>
      <trkpt lat="44.49211" lon="4.65246">
        <ele>123.19999694824</ele>
        <time>2020-02-28T13:15:56Z</time>
      </trkpt>
      <trkpt lat="44.49208" lon="4.65247">
        <ele>124</ele>
        <time>2020-02-28T13:15:57Z</time>
      </trkpt>
      <trkpt lat="44.49205" lon="4.65249">
        <ele>124.59999847412</ele>
        <time>2020-02-28T13:15:58Z</time>
      </trkpt>
      <trkpt lat="44.49202" lon="4.6525">
        <ele>125</ele>
        <time>2020-02-28T13:15:59Z</time>
      </trkpt>
      <trkpt lat="44.492" lon="4.6525">
        <ele>125.80000305176</ele>
        <time>2020-02-28T13:16:00Z</time>
      </trkpt>
      <trkpt lat="44.49198" lon="4.65251">
        <ele>126.19999694824</ele>
        <time>2020-02-28T13:16:01Z</time>
      </trkpt>
      <trkpt lat="44.49195" lon="4.65251">
        <ele>126.59999847412</ele>
        <time>2020-02-28T13:16:02Z</time>
      </trkpt>
      <trkpt lat="44.49193" lon="4.65252">
        <ele>127</ele>
        <time>2020-02-28T13:16:03Z</time>
      </trkpt>
      <trkpt lat="44.4919" lon="4.65253">
        <ele>127.40000152588</ele>
        <time>2020-02-28T13:16:04Z</time>
      </trkpt>
      <trkpt lat="44.49188" lon="4.65254">
        <ele>127.40000152588</ele>
        <time>2020-02-28T13:16:05Z</time>
      </trkpt>
      <trkpt lat="44.49185" lon="4.65254">
        <ele>127.80000305176</ele>
        <time>2020-02-28T13:16:06Z</time>
      </trkpt>
      <trkpt lat="44.49183" lon="4.65255">
        <ele>128.39999389648</ele>
        <time>2020-02-28T13:16:07Z</time>
      </trkpt>
      <trkpt lat="44.4918" lon="4.65256">
        <ele>128.80000305176</ele>
        <time>2020-02-28T13:16:08Z</time>
      </trkpt>
      <trkpt lat="44.49178" lon="4.65257">
        <ele>129.19999694824</ele>
        <time>2020-02-28T13:16:09Z</time>
      </trkpt>
      <trkpt lat="44.49175" lon="4.65258">
        <ele>129.19999694824</ele>
        <time>2020-02-28T13:16:10Z</time>
      </trkpt>
      <trkpt lat="44.49172" lon="4.65259">
        <ele>129.80000305176</ele>
        <time>2020-02-28T13:16:11Z</time>
      </trkpt>
      <trkpt lat="44.49169" lon="4.6526">
        <ele>130.19999694824</ele>
        <time>2020-02-28T13:16:12Z</time>
      </trkpt>
      <trkpt lat="44.49167" lon="4.65261">
        <ele>130.39999389648</ele>
        <time>2020-02-28T13:16:13Z</time>
      </trkpt>
      <trkpt lat="44.49164" lon="4.65262">
        <ele>130.39999389648</ele>
        <time>2020-02-28T13:16:14Z</time>
      </trkpt>
      <trkpt lat="44.49161" lon="4.65263">
        <ele>130.80000305176</ele>
        <time>2020-02-28T13:16:15Z</time>
      </trkpt>
      <trkpt lat="44.49159" lon="4.65263">
        <ele>131</ele>
        <time>2020-02-28T13:16:16Z</time>
      </trkpt>
      <trkpt lat="44.49156" lon="4.65264">
        <ele>131.60000610352</ele>
        <time>2020-02-28T13:16:17Z</time>
      </trkpt>
      <trkpt lat="44.49154" lon="4.65264">
        <ele>131.60000610352</ele>
        <time>2020-02-28T13:16:18Z</time>
      </trkpt>
      <trkpt lat="44.49151" lon="4.65265">
        <ele>132.19999694824</ele>
        <time>2020-02-28T13:16:19Z</time>
      </trkpt>
      <trkpt lat="44.49148" lon="4.65265">
        <ele>132.19999694824</ele>
        <time>2020-02-28T13:16:20Z</time>
      </trkpt>
      <trkpt lat="44.49146" lon="4.65266">
        <ele>132.60000610352</ele>
        <time>2020-02-28T13:16:21Z</time>
      </trkpt>
      <trkpt lat="44.49143" lon="4.65266">
        <ele>132.80000305176</ele>
        <time>2020-02-28T13:16:22Z</time>
      </trkpt>
      <trkpt lat="44.49142" lon="4.65267">
        <ele>133</ele>
        <time>2020-02-28T13:16:23Z</time>
      </trkpt>
      <trkpt lat="44.4914" lon="4.65268">
        <ele>133.19999694824</ele>
        <time>2020-02-28T13:16:24Z</time>
      </trkpt>
      <trkpt lat="44.49139" lon="4.65268">
        <ele>133.39999389648</ele>
        <time>2020-02-28T13:16:25Z</time>
      </trkpt>
      <trkpt lat="44.49138" lon="4.65268">
        <ele>133.80000305176</ele>
        <time>2020-02-28T13:16:30Z</time>
      </trkpt>
      <trkpt lat="44.49137" lon="4.65268">
        <ele>134.19999694824</ele>
        <time>2020-02-28T13:16:34Z</time>
      </trkpt>
      <trkpt lat="44.49136" lon="4.65267">
        <ele>134.19999694824</ele>
        <time>2020-02-28T13:16:35Z</time>
      </trkpt>
      <trkpt lat="44.49131" lon="4.65265">
        <ele>134.19999694824</ele>
        <time>2020-02-28T13:16:37Z</time>
      </trkpt>
      <trkpt lat="44.49129" lon="4.65262">
        <ele>134.19999694824</ele>
        <time>2020-02-28T13:16:38Z</time>
      </trkpt>
      <trkpt lat="44.49128" lon="4.65259">
        <ele>134</ele>
        <time>2020-02-28T13:16:39Z</time>
      </trkpt>
      <trkpt lat="44.49128" lon="4.65255">
        <ele>134.19999694824</ele>
        <time>2020-02-28T13:16:40Z</time>
      </trkpt>
      <trkpt lat="44.49128" lon="4.65252">
        <ele>134</ele>
        <time>2020-02-28T13:16:41Z</time>
      </trkpt>
      <trkpt lat="44.49127" lon="4.65249">
        <ele>134</ele>
        <time>2020-02-28T13:16:42Z</time>
      </trkpt>
      <trkpt lat="44.49127" lon="4.65246">
        <ele>134</ele>
        <time>2020-02-28T13:16:43Z</time>
      </trkpt>
      <trkpt lat="44.49127" lon="4.65243">
        <ele>134.19999694824</ele>
        <time>2020-02-28T13:16:44Z</time>
      </trkpt>
      <trkpt lat="44.49127" lon="4.6524">
        <ele>134.19999694824</ele>
        <time>2020-02-28T13:16:45Z</time>
      </trkpt>
      <trkpt lat="44.49127" lon="4.65238">
        <ele>134.19999694824</ele>
        <time>2020-02-28T13:16:46Z</time>
      </trkpt>
      <trkpt lat="44.49127" lon="4.65235">
        <ele>134.19999694824</ele>
        <time>2020-02-28T13:16:47Z</time>
      </trkpt>
      <trkpt lat="44.49127" lon="4.65232">
        <ele>134.19999694824</ele>
        <time>2020-02-28T13:16:48Z</time>
      </trkpt>
      <trkpt lat="44.49127" lon="4.65229">
        <ele>134.19999694824</ele>
        <time>2020-02-28T13:16:49Z</time>
      </trkpt>
      <trkpt lat="44.49127" lon="4.65226">
        <ele>134.39999389648</ele>
        <time>2020-02-28T13:16:50Z</time>
      </trkpt>
      <trkpt lat="44.49127" lon="4.65224">
        <ele>134.60000610352</ele>
        <time>2020-02-28T13:16:51Z</time>
      </trkpt>
      <trkpt lat="44.49127" lon="4.65221">
        <ele>134.80000305176</ele>
        <time>2020-02-28T13:16:52Z</time>
      </trkpt>
      <trkpt lat="44.49126" lon="4.65218">
        <ele>135.19999694824</ele>
        <time>2020-02-28T13:16:53Z</time>
      </trkpt>
      <trkpt lat="44.49126" lon="4.65216">
        <ele>135.60000610352</ele>
        <time>2020-02-28T13:16:54Z</time>
      </trkpt>
      <trkpt lat="44.49126" lon="4.65213">
        <ele>135.80000305176</ele>
        <time>2020-02-28T13:16:55Z</time>
      </trkpt>
      <trkpt lat="44.49126" lon="4.65211">
        <ele>135.80000305176</ele>
        <time>2020-02-28T13:16:56Z</time>
      </trkpt>
      <trkpt lat="44.49126" lon="4.65208">
        <ele>136.39999389648</ele>
        <time>2020-02-28T13:16:57Z</time>
      </trkpt>
      <trkpt lat="44.49125" lon="4.65205">
        <ele>136.60000610352</ele>
        <time>2020-02-28T13:16:58Z</time>
      </trkpt>
      <trkpt lat="44.49125" lon="4.65203">
        <ele>137</ele>
        <time>2020-02-28T13:16:59Z</time>
      </trkpt>
      <trkpt lat="44.49124" lon="4.652">
        <ele>137</ele>
        <time>2020-02-28T13:17:00Z</time>
      </trkpt>
      <trkpt lat="44.49124" lon="4.65198">
        <ele>137.39999389648</ele>
        <time>2020-02-28T13:17:01Z</time>
      </trkpt>
      <trkpt lat="44.49123" lon="4.65196">
        <ele>137.80000305176</ele>
        <time>2020-02-28T13:17:02Z</time>
      </trkpt>
      <trkpt lat="44.49123" lon="4.65194">
        <ele>138.19999694824</ele>
        <time>2020-02-28T13:17:03Z</time>
      </trkpt>
      <trkpt lat="44.49122" lon="4.65192">
        <ele>138.19999694824</ele>
        <time>2020-02-28T13:17:04Z</time>
      </trkpt>
      <trkpt lat="44.49122" lon="4.6519">
        <ele>138.60000610352</ele>
        <time>2020-02-28T13:17:05Z</time>
      </trkpt>
      <trkpt lat="44.49121" lon="4.65187">
        <ele>138.80000305176</ele>
        <time>2020-02-28T13:17:06Z</time>
      </trkpt>
      <trkpt lat="44.49119" lon="4.65185">
        <ele>139.19999694824</ele>
        <time>2020-02-28T13:17:07Z</time>
      </trkpt>
      <trkpt lat="44.49118" lon="4.65183">
        <ele>139.39999389648</ele>
        <time>2020-02-28T13:17:08Z</time>
      </trkpt>
      <trkpt lat="44.49117" lon="4.65181">
        <ele>139.80000305176</ele>
        <time>2020-02-28T13:17:09Z</time>
      </trkpt>
      <trkpt lat="44.49117" lon="4.65179">
        <ele>139.80000305176</ele>
        <time>2020-02-28T13:17:10Z</time>
      </trkpt>
      <trkpt lat="44.49116" lon="4.65177">
        <ele>140.19999694824</ele>
        <time>2020-02-28T13:17:11Z</time>
      </trkpt>
      <trkpt lat="44.49115" lon="4.65175">
        <ele>140.39999389648</ele>
        <time>2020-02-28T13:17:12Z</time>
      </trkpt>
      <trkpt lat="44.49114" lon="4.65173">
        <ele>140.60000610352</ele>
        <time>2020-02-28T13:17:13Z</time>
      </trkpt>
      <trkpt lat="44.49113" lon="4.65171">
        <ele>141</ele>
        <time>2020-02-28T13:17:14Z</time>
      </trkpt>
      <trkpt lat="44.49112" lon="4.65169">
        <ele>141.19999694824</ele>
        <time>2020-02-28T13:17:15Z</time>
      </trkpt>
      <trkpt lat="44.4911" lon="4.65167">
        <ele>141.39999389648</ele>
        <time>2020-02-28T13:17:16Z</time>
      </trkpt>
      <trkpt lat="44.4911" lon="4.65164">
        <ele>141.39999389648</ele>
        <time>2020-02-28T13:17:17Z</time>
      </trkpt>
      <trkpt lat="44.49108" lon="4.65162">
        <ele>141.60000610352</ele>
        <time>2020-02-28T13:17:18Z</time>
      </trkpt>
      <trkpt lat="44.49107" lon="4.6516">
        <ele>142</ele>
        <time>2020-02-28T13:17:19Z</time>
      </trkpt>
      <trkpt lat="44.49106" lon="4.65157">
        <ele>142.19999694824</ele>
        <time>2020-02-28T13:17:20Z</time>
      </trkpt>
      <trkpt lat="44.49105" lon="4.65155">
        <ele>142.60000610352</ele>
        <time>2020-02-28T13:17:21Z</time>
      </trkpt>
      <trkpt lat="44.49104" lon="4.65153">
        <ele>143</ele>
        <time>2020-02-28T13:17:22Z</time>
      </trkpt>
      <trkpt lat="44.49103" lon="4.65151">
        <ele>143.19999694824</ele>
        <time>2020-02-28T13:17:23Z</time>
      </trkpt>
      <trkpt lat="44.49102" lon="4.65149">
        <ele>143.39999389648</ele>
        <time>2020-02-28T13:17:24Z</time>
      </trkpt>
      <trkpt lat="44.49101" lon="4.65146">
        <ele>143.60000610352</ele>
        <time>2020-02-28T13:17:25Z</time>
      </trkpt>
      <trkpt lat="44.491" lon="4.65144">
        <ele>144</ele>
        <time>2020-02-28T13:17:26Z</time>
      </trkpt>
      <trkpt lat="44.49099" lon="4.65142">
        <ele>144.19999694824</ele>
        <time>2020-02-28T13:17:27Z</time>
      </trkpt>
      <trkpt lat="44.49098" lon="4.6514">
        <ele>144.39999389648</ele>
        <time>2020-02-28T13:17:28Z</time>
      </trkpt>
      <trkpt lat="44.49097" lon="4.65137">
        <ele>144.80000305176</ele>
        <time>2020-02-28T13:17:29Z</time>
      </trkpt>
      <trkpt lat="44.49096" lon="4.65135">
        <ele>145</ele>
        <time>2020-02-28T13:17:30Z</time>
      </trkpt>
      <trkpt lat="44.49094" lon="4.65133">
        <ele>145.19999694824</ele>
        <time>2020-02-28T13:17:31Z</time>
      </trkpt>
      <trkpt lat="44.49093" lon="4.65131">
        <ele>145.19999694824</ele>
        <time>2020-02-28T13:17:32Z</time>
      </trkpt>
      <trkpt lat="44.49091" lon="4.65129">
        <ele>145.60000610352</ele>
        <time>2020-02-28T13:17:33Z</time>
      </trkpt>
      <trkpt lat="44.4909" lon="4.65127">
        <ele>145.60000610352</ele>
        <time>2020-02-28T13:17:34Z</time>
      </trkpt>
      <trkpt lat="44.49089" lon="4.65124">
        <ele>145.60000610352</ele>
        <time>2020-02-28T13:17:35Z</time>
      </trkpt>
      <trkpt lat="44.49088" lon="4.65122">
        <ele>145.80000305176</ele>
        <time>2020-02-28T13:17:36Z</time>
      </trkpt>
      <trkpt lat="44.49087" lon="4.65119">
        <ele>146</ele>
        <time>2020-02-28T13:17:37Z</time>
      </trkpt>
      <trkpt lat="44.49086" lon="4.65118">
        <ele>146</ele>
        <time>2020-02-28T13:17:38Z</time>
      </trkpt>
      <trkpt lat="44.49085" lon="4.65116">
        <ele>146</ele>
        <time>2020-02-28T13:17:39Z</time>
      </trkpt>
      <trkpt lat="44.49083" lon="4.65114">
        <ele>146.19999694824</ele>
        <time>2020-02-28T13:17:40Z</time>
      </trkpt>
      <trkpt lat="44.49082" lon="4.65113">
        <ele>146.39999389648</ele>
        <time>2020-02-28T13:17:41Z</time>
      </trkpt>
      <trkpt lat="44.49082" lon="4.65111">
        <ele>146.60000610352</ele>
        <time>2020-02-28T13:17:42Z</time>
      </trkpt>
      <trkpt lat="44.4908" lon="4.65105">
        <ele>147</ele>
        <time>2020-02-28T13:17:44Z</time>
      </trkpt>
      <trkpt lat="44.49079" lon="4.65103">
        <ele>147.19999694824</ele>
        <time>2020-02-28T13:17:45Z</time>
      </trkpt>
      <trkpt lat="44.49078" lon="4.65101">
        <ele>147.39999389648</ele>
        <time>2020-02-28T13:17:46Z</time>
      </trkpt>
      <trkpt lat="44.49077" lon="4.65099">
        <ele>147.39999389648</ele>
        <time>2020-02-28T13:17:47Z</time>
      </trkpt>
      <trkpt lat="44.49076" lon="4.65097">
        <ele>147.39999389648</ele>
        <time>2020-02-28T13:17:48Z</time>
      </trkpt>
      <trkpt lat="44.49075" lon="4.65095">
        <ele>147.39999389648</ele>
        <time>2020-02-28T13:17:49Z</time>
      </trkpt>
      <trkpt lat="44.49074" lon="4.65093">
        <ele>147.60000610352</ele>
        <time>2020-02-28T13:17:50Z</time>
      </trkpt>
      <trkpt lat="44.49071" lon="4.6509">
        <ele>147.60000610352</ele>
        <time>2020-02-28T13:17:52Z</time>
      </trkpt>
      <trkpt lat="44.4907" lon="4.65089">
        <ele>147.80000305176</ele>
        <time>2020-02-28T13:17:53Z</time>
      </trkpt>
      <trkpt lat="44.49068" lon="4.65087">
        <ele>148</ele>
        <time>2020-02-28T13:17:54Z</time>
      </trkpt>
      <trkpt lat="44.49067" lon="4.65085">
        <ele>148</ele>
        <time>2020-02-28T13:17:55Z</time>
      </trkpt>
      <trkpt lat="44.49065" lon="4.65084">
        <ele>148.19999694824</ele>
        <time>2020-02-28T13:17:56Z</time>
      </trkpt>
      <trkpt lat="44.49064" lon="4.65082">
        <ele>148.39999389648</ele>
        <time>2020-02-28T13:17:57Z</time>
      </trkpt>
      <trkpt lat="44.49062" lon="4.6508">
        <ele>148.39999389648</ele>
        <time>2020-02-28T13:17:58Z</time>
      </trkpt>
      <trkpt lat="44.49059" lon="4.65078">
        <ele>148.39999389648</ele>
        <time>2020-02-28T13:17:59Z</time>
      </trkpt>
      <trkpt lat="44.49056" lon="4.65076">
        <ele>148.39999389648</ele>
        <time>2020-02-28T13:18:00Z</time>
      </trkpt>
      <trkpt lat="44.49053" lon="4.65075">
        <ele>148.60000610352</ele>
        <time>2020-02-28T13:18:01Z</time>
      </trkpt>
      <trkpt lat="44.49051" lon="4.65073">
        <ele>148.60000610352</ele>
        <time>2020-02-28T13:18:02Z</time>
      </trkpt>
      <trkpt lat="44.49048" lon="4.65073">
        <ele>148.80000305176</ele>
        <time>2020-02-28T13:18:03Z</time>
      </trkpt>
      <trkpt lat="44.49045" lon="4.65072">
        <ele>148.80000305176</ele>
        <time>2020-02-28T13:18:04Z</time>
      </trkpt>
      <trkpt lat="44.49043" lon="4.65072">
        <ele>148.80000305176</ele>
        <time>2020-02-28T13:18:05Z</time>
      </trkpt>
      <trkpt lat="44.4904" lon="4.65072">
        <ele>149</ele>
        <time>2020-02-28T13:18:06Z</time>
      </trkpt>
      <trkpt lat="44.49037" lon="4.65072">
        <ele>149.19999694824</ele>
        <time>2020-02-28T13:18:07Z</time>
      </trkpt>
      <trkpt lat="44.49035" lon="4.65072">
        <ele>149.39999389648</ele>
        <time>2020-02-28T13:18:08Z</time>
      </trkpt>
      <trkpt lat="44.49032" lon="4.65073">
        <ele>149.60000610352</ele>
        <time>2020-02-28T13:18:09Z</time>
      </trkpt>
      <trkpt lat="44.4903" lon="4.65074">
        <ele>149.60000610352</ele>
        <time>2020-02-28T13:18:10Z</time>
      </trkpt>
      <trkpt lat="44.49027" lon="4.65074">
        <ele>149.80000305176</ele>
        <time>2020-02-28T13:18:11Z</time>
      </trkpt>
      <trkpt lat="44.49025" lon="4.65075">
        <ele>150.19999694824</ele>
        <time>2020-02-28T13:18:12Z</time>
      </trkpt>
      <trkpt lat="44.49022" lon="4.65075">
        <ele>150.19999694824</ele>
        <time>2020-02-28T13:18:13Z</time>
      </trkpt>
      <trkpt lat="44.4902" lon="4.65076">
        <ele>150.60000610352</ele>
        <time>2020-02-28T13:18:14Z</time>
      </trkpt>
      <trkpt lat="44.49017" lon="4.65076">
        <ele>151</ele>
        <time>2020-02-28T13:18:15Z</time>
      </trkpt>
      <trkpt lat="44.49014" lon="4.65077">
        <ele>151</ele>
        <time>2020-02-28T13:18:16Z</time>
      </trkpt>
      <trkpt lat="44.49012" lon="4.65078">
        <ele>151.39999389648</ele>
        <time>2020-02-28T13:18:17Z</time>
      </trkpt>
      <trkpt lat="44.49009" lon="4.65078">
        <ele>151.80000305176</ele>
        <time>2020-02-28T13:18:18Z</time>
      </trkpt>
      <trkpt lat="44.49006" lon="4.65079">
        <ele>151.80000305176</ele>
        <time>2020-02-28T13:18:19Z</time>
      </trkpt>
      <trkpt lat="44.49003" lon="4.6508">
        <ele>151.80000305176</ele>
        <time>2020-02-28T13:18:20Z</time>
      </trkpt>
      <trkpt lat="44.49" lon="4.6508">
        <ele>152.19999694824</ele>
        <time>2020-02-28T13:18:21Z</time>
      </trkpt>
      <trkpt lat="44.48997" lon="4.65081">
        <ele>152.39999389648</ele>
        <time>2020-02-28T13:18:22Z</time>
      </trkpt>
      <trkpt lat="44.48993" lon="4.65081">
        <ele>152.60000610352</ele>
        <time>2020-02-28T13:18:23Z</time>
      </trkpt>
      <trkpt lat="44.4899" lon="4.65081">
        <ele>152.60000610352</ele>
        <time>2020-02-28T13:18:24Z</time>
      </trkpt>
      <trkpt lat="44.48981" lon="4.65081">
        <ele>153</ele>
        <time>2020-02-28T13:18:27Z</time>
      </trkpt>
      <trkpt lat="44.48978" lon="4.65081">
        <ele>153.19999694824</ele>
        <time>2020-02-28T13:18:28Z</time>
      </trkpt>
      <trkpt lat="44.48975" lon="4.65081">
        <ele>153.19999694824</ele>
        <time>2020-02-28T13:18:29Z</time>
      </trkpt>
      <trkpt lat="44.48972" lon="4.65082">
        <ele>153.19999694824</ele>
        <time>2020-02-28T13:18:30Z</time>
      </trkpt>
      <trkpt lat="44.48969" lon="4.65082">
        <ele>153.39999389648</ele>
        <time>2020-02-28T13:18:31Z</time>
      </trkpt>
      <trkpt lat="44.48966" lon="4.65082">
        <ele>153.39999389648</ele>
        <time>2020-02-28T13:18:32Z</time>
      </trkpt>
      <trkpt lat="44.48963" lon="4.65082">
        <ele>153.39999389648</ele>
        <time>2020-02-28T13:18:33Z</time>
      </trkpt>
      <trkpt lat="44.4896" lon="4.65082">
        <ele>153.39999389648</ele>
        <time>2020-02-28T13:18:34Z</time>
      </trkpt>
      <trkpt lat="44.48957" lon="4.65081">
        <ele>153.39999389648</ele>
        <time>2020-02-28T13:18:35Z</time>
      </trkpt>
      <trkpt lat="44.48951" lon="4.65079">
        <ele>153.60000610352</ele>
        <time>2020-02-28T13:18:37Z</time>
      </trkpt>
      <trkpt lat="44.48949" lon="4.65078">
        <ele>153.80000305176</ele>
        <time>2020-02-28T13:18:38Z</time>
      </trkpt>
      <trkpt lat="44.48943" lon="4.65075">
        <ele>154</ele>
        <time>2020-02-28T13:18:40Z</time>
      </trkpt>
      <trkpt lat="44.48938" lon="4.65071">
        <ele>154.19999694824</ele>
        <time>2020-02-28T13:18:42Z</time>
      </trkpt>
      <trkpt lat="44.48933" lon="4.65066">
        <ele>154.39999389648</ele>
        <time>2020-02-28T13:18:44Z</time>
      </trkpt>
      <trkpt lat="44.48931" lon="4.65064">
        <ele>154.39999389648</ele>
        <time>2020-02-28T13:18:45Z</time>
      </trkpt>
      <trkpt lat="44.48929" lon="4.65061">
        <ele>154.39999389648</ele>
        <time>2020-02-28T13:18:46Z</time>
      </trkpt>
      <trkpt lat="44.48926" lon="4.65058">
        <ele>154.39999389648</ele>
        <time>2020-02-28T13:18:47Z</time>
      </trkpt>
      <trkpt lat="44.48924" lon="4.65056">
        <ele>154.60000610352</ele>
        <time>2020-02-28T13:18:48Z</time>
      </trkpt>
      <trkpt lat="44.48922" lon="4.65053">
        <ele>154.60000610352</ele>
        <time>2020-02-28T13:18:49Z</time>
      </trkpt>
      <trkpt lat="44.48921" lon="4.6505">
        <ele>154.60000610352</ele>
        <time>2020-02-28T13:18:50Z</time>
      </trkpt>
      <trkpt lat="44.48919" lon="4.65046">
        <ele>154.80000305176</ele>
        <time>2020-02-28T13:18:51Z</time>
      </trkpt>
      <trkpt lat="44.48917" lon="4.65044">
        <ele>155</ele>
        <time>2020-02-28T13:18:52Z</time>
      </trkpt>
      <trkpt lat="44.48915" lon="4.65041">
        <ele>155.39999389648</ele>
        <time>2020-02-28T13:18:53Z</time>
      </trkpt>
      <trkpt lat="44.48913" lon="4.65038">
        <ele>155.39999389648</ele>
        <time>2020-02-28T13:18:54Z</time>
      </trkpt>
      <trkpt lat="44.48911" lon="4.65035">
        <ele>155.60000610352</ele>
        <time>2020-02-28T13:18:55Z</time>
      </trkpt>
      <trkpt lat="44.48909" lon="4.65032">
        <ele>156</ele>
        <time>2020-02-28T13:18:56Z</time>
      </trkpt>
      <trkpt lat="44.48907" lon="4.65028">
        <ele>156.19999694824</ele>
        <time>2020-02-28T13:18:57Z</time>
      </trkpt>
      <trkpt lat="44.48905" lon="4.65025">
        <ele>156.19999694824</ele>
        <time>2020-02-28T13:18:58Z</time>
      </trkpt>
      <trkpt lat="44.48903" lon="4.65022">
        <ele>156.39999389648</ele>
        <time>2020-02-28T13:18:59Z</time>
      </trkpt>
      <trkpt lat="44.48901" lon="4.65018">
        <ele>156.80000305176</ele>
        <time>2020-02-28T13:19:00Z</time>
      </trkpt>
      <trkpt lat="44.489" lon="4.65015">
        <ele>156.80000305176</ele>
        <time>2020-02-28T13:19:01Z</time>
      </trkpt>
      <trkpt lat="44.48898" lon="4.65011">
        <ele>157</ele>
        <time>2020-02-28T13:19:02Z</time>
      </trkpt>
      <trkpt lat="44.48897" lon="4.65008">
        <ele>157.19999694824</ele>
        <time>2020-02-28T13:19:03Z</time>
      </trkpt>
      <trkpt lat="44.48896" lon="4.65004">
        <ele>157.39999389648</ele>
        <time>2020-02-28T13:19:04Z</time>
      </trkpt>
      <trkpt lat="44.48894" lon="4.65001">
        <ele>157.39999389648</ele>
        <time>2020-02-28T13:19:05Z</time>
      </trkpt>
      <trkpt lat="44.48893" lon="4.64997">
        <ele>157.39999389648</ele>
        <time>2020-02-28T13:19:06Z</time>
      </trkpt>
      <trkpt lat="44.48892" lon="4.64993">
        <ele>157.60000610352</ele>
        <time>2020-02-28T13:19:07Z</time>
      </trkpt>
      <trkpt lat="44.48891" lon="4.6499">
        <ele>157.80000305176</ele>
        <time>2020-02-28T13:19:08Z</time>
      </trkpt>
      <trkpt lat="44.4889" lon="4.64986">
        <ele>157.80000305176</ele>
        <time>2020-02-28T13:19:09Z</time>
      </trkpt>
      <trkpt lat="44.48888" lon="4.64982">
        <ele>157.80000305176</ele>
        <time>2020-02-28T13:19:10Z</time>
      </trkpt>
      <trkpt lat="44.48887" lon="4.64978">
        <ele>158</ele>
        <time>2020-02-28T13:19:11Z</time>
      </trkpt>
      <trkpt lat="44.48885" lon="4.64974">
        <ele>158</ele>
        <time>2020-02-28T13:19:12Z</time>
      </trkpt>
      <trkpt lat="44.48883" lon="4.64966">
        <ele>158.19999694824</ele>
        <time>2020-02-28T13:19:14Z</time>
      </trkpt>
      <trkpt lat="44.48878" lon="4.64943">
        <ele>158.60000610352</ele>
        <time>2020-02-28T13:19:19Z</time>
      </trkpt>
      <trkpt lat="44.48876" lon="4.64934">
        <ele>158.80000305176</ele>
        <time>2020-02-28T13:19:21Z</time>
      </trkpt>
      <trkpt lat="44.48875" lon="4.6493">
        <ele>158.80000305176</ele>
        <time>2020-02-28T13:19:22Z</time>
      </trkpt>
      <trkpt lat="44.48874" lon="4.64925">
        <ele>158.80000305176</ele>
        <time>2020-02-28T13:19:23Z</time>
      </trkpt>
      <trkpt lat="44.4887" lon="4.64917">
        <ele>158.80000305176</ele>
        <time>2020-02-28T13:19:25Z</time>
      </trkpt>
      <trkpt lat="44.48866" lon="4.64908">
        <ele>158.80000305176</ele>
        <time>2020-02-28T13:19:27Z</time>
      </trkpt>
      <trkpt lat="44.48864" lon="4.64904">
        <ele>159</ele>
        <time>2020-02-28T13:19:28Z</time>
      </trkpt>
      <trkpt lat="44.48855" lon="4.6489">
        <ele>159</ele>
        <time>2020-02-28T13:19:31Z</time>
      </trkpt>
      <trkpt lat="44.48854" lon="4.64885">
        <ele>159</ele>
        <time>2020-02-28T13:19:32Z</time>
      </trkpt>
      <trkpt lat="44.48851" lon="4.6488">
        <ele>159</ele>
        <time>2020-02-28T13:19:33Z</time>
      </trkpt>
      <trkpt lat="44.4885" lon="4.64876">
        <ele>158.80000305176</ele>
        <time>2020-02-28T13:19:34Z</time>
      </trkpt>
      <trkpt lat="44.48848" lon="4.64871">
        <ele>158.80000305176</ele>
        <time>2020-02-28T13:19:35Z</time>
      </trkpt>
      <trkpt lat="44.48847" lon="4.64866">
        <ele>159</ele>
        <time>2020-02-28T13:19:36Z</time>
      </trkpt>
      <trkpt lat="44.48844" lon="4.64863">
        <ele>159</ele>
        <time>2020-02-28T13:19:37Z</time>
      </trkpt>
      <trkpt lat="44.48842" lon="4.64858">
        <ele>159.19999694824</ele>
        <time>2020-02-28T13:19:38Z</time>
      </trkpt>
      <trkpt lat="44.48839" lon="4.64855">
        <ele>159.19999694824</ele>
        <time>2020-02-28T13:19:39Z</time>
      </trkpt>
      <trkpt lat="44.48836" lon="4.6485">
        <ele>159.19999694824</ele>
        <time>2020-02-28T13:19:40Z</time>
      </trkpt>
      <trkpt lat="44.48834" lon="4.64846">
        <ele>159.39999389648</ele>
        <time>2020-02-28T13:19:41Z</time>
      </trkpt>
      <trkpt lat="44.48831" lon="4.64842">
        <ele>159.19999694824</ele>
        <time>2020-02-28T13:19:42Z</time>
      </trkpt>
      <trkpt lat="44.48828" lon="4.64838">
        <ele>159.19999694824</ele>
        <time>2020-02-28T13:19:43Z</time>
      </trkpt>
      <trkpt lat="44.48826" lon="4.64834">
        <ele>159.19999694824</ele>
        <time>2020-02-28T13:19:44Z</time>
      </trkpt>
      <trkpt lat="44.48823" lon="4.6483">
        <ele>159.39999389648</ele>
        <time>2020-02-28T13:19:45Z</time>
      </trkpt>
      <trkpt lat="44.48821" lon="4.64827">
        <ele>159.39999389648</ele>
        <time>2020-02-28T13:19:46Z</time>
      </trkpt>
      <trkpt lat="44.48818" lon="4.64823">
        <ele>159.19999694824</ele>
        <time>2020-02-28T13:19:47Z</time>
      </trkpt>
      <trkpt lat="44.48816" lon="4.64819">
        <ele>159.39999389648</ele>
        <time>2020-02-28T13:19:48Z</time>
      </trkpt>
      <trkpt lat="44.48814" lon="4.64815">
        <ele>159.39999389648</ele>
        <time>2020-02-28T13:19:49Z</time>
      </trkpt>
      <trkpt lat="44.48811" lon="4.64813">
        <ele>159.39999389648</ele>
        <time>2020-02-28T13:19:50Z</time>
      </trkpt>
      <trkpt lat="44.4881" lon="4.64811">
        <ele>159.39999389648</ele>
        <time>2020-02-28T13:19:51Z</time>
      </trkpt>
      <trkpt lat="44.48808" lon="4.64809">
        <ele>159.39999389648</ele>
        <time>2020-02-28T13:19:52Z</time>
      </trkpt>
      <trkpt lat="44.48807" lon="4.64807">
        <ele>159.39999389648</ele>
        <time>2020-02-28T13:19:53Z</time>
      </trkpt>
      <trkpt lat="44.48805" lon="4.64804">
        <ele>159.39999389648</ele>
        <time>2020-02-28T13:19:54Z</time>
      </trkpt>
      <trkpt lat="44.48803" lon="4.64801">
        <ele>159.39999389648</ele>
        <time>2020-02-28T13:19:55Z</time>
      </trkpt>
      <trkpt lat="44.488" lon="4.64797">
        <ele>159.39999389648</ele>
        <time>2020-02-28T13:19:56Z</time>
      </trkpt>
      <trkpt lat="44.48793" lon="4.64787">
        <ele>159.19999694824</ele>
        <time>2020-02-28T13:19:58Z</time>
      </trkpt>
      <trkpt lat="44.48785" lon="4.64776">
        <ele>159.19999694824</ele>
        <time>2020-02-28T13:20:00Z</time>
      </trkpt>
      <trkpt lat="44.48777" lon="4.64768">
        <ele>159.19999694824</ele>
        <time>2020-02-28T13:20:02Z</time>
      </trkpt>
      <trkpt lat="44.48773" lon="4.64765">
        <ele>159.19999694824</ele>
        <time>2020-02-28T13:20:03Z</time>
      </trkpt>
      <trkpt lat="44.4877" lon="4.64763">
        <ele>159</ele>
        <time>2020-02-28T13:20:04Z</time>
      </trkpt>
      <trkpt lat="44.48766" lon="4.64761">
        <ele>158.80000305176</ele>
        <time>2020-02-28T13:20:05Z</time>
      </trkpt>
      <trkpt lat="44.48764" lon="4.64759">
        <ele>158.39999389648</ele>
        <time>2020-02-28T13:20:06Z</time>
      </trkpt>
      <trkpt lat="44.48761" lon="4.64756">
        <ele>158.19999694824</ele>
        <time>2020-02-28T13:20:07Z</time>
      </trkpt>
      <trkpt lat="44.48758" lon="4.64754">
        <ele>158.19999694824</ele>
        <time>2020-02-28T13:20:08Z</time>
      </trkpt>
      <trkpt lat="44.48756" lon="4.64751">
        <ele>158.19999694824</ele>
        <time>2020-02-28T13:20:09Z</time>
      </trkpt>
      <trkpt lat="44.48753" lon="4.64749">
        <ele>158.19999694824</ele>
        <time>2020-02-28T13:20:10Z</time>
      </trkpt>
      <trkpt lat="44.48751" lon="4.64746">
        <ele>158</ele>
        <time>2020-02-28T13:20:11Z</time>
      </trkpt>
      <trkpt lat="44.48749" lon="4.64743">
        <ele>158.19999694824</ele>
        <time>2020-02-28T13:20:12Z</time>
      </trkpt>
      <trkpt lat="44.48747" lon="4.64741">
        <ele>158.19999694824</ele>
        <time>2020-02-28T13:20:13Z</time>
      </trkpt>
      <trkpt lat="44.48745" lon="4.64738">
        <ele>158</ele>
        <time>2020-02-28T13:20:14Z</time>
      </trkpt>
      <trkpt lat="44.48743" lon="4.64736">
        <ele>158</ele>
        <time>2020-02-28T13:20:15Z</time>
      </trkpt>
      <trkpt lat="44.48742" lon="4.64733">
        <ele>158.19999694824</ele>
        <time>2020-02-28T13:20:16Z</time>
      </trkpt>
      <trkpt lat="44.4874" lon="4.6473">
        <ele>158.39999389648</ele>
        <time>2020-02-28T13:20:17Z</time>
      </trkpt>
      <trkpt lat="44.48739" lon="4.64727">
        <ele>158.60000610352</ele>
        <time>2020-02-28T13:20:18Z</time>
      </trkpt>
      <trkpt lat="44.48737" lon="4.64724">
        <ele>158.60000610352</ele>
        <time>2020-02-28T13:20:19Z</time>
      </trkpt>
      <trkpt lat="44.48736" lon="4.64722">
        <ele>158.80000305176</ele>
        <time>2020-02-28T13:20:20Z</time>
      </trkpt>
      <trkpt lat="44.48735" lon="4.64721">
        <ele>158.80000305176</ele>
        <time>2020-02-28T13:20:21Z</time>
      </trkpt>
      <trkpt lat="44.48735" lon="4.64721">
        <ele>158.80000305176</ele>
        <time>2020-02-28T13:20:22Z</time>
      </trkpt>
      <trkpt lat="44.48735" lon="4.64717">
        <ele>160</ele>
        <time>2020-02-28T13:20:29Z</time>
      </trkpt>
      <trkpt lat="44.48736" lon="4.64716">
        <ele>160</ele>
        <time>2020-02-28T13:20:31Z</time>
      </trkpt>
      <trkpt lat="44.48736" lon="4.64715">
        <ele>160.19999694824</ele>
        <time>2020-02-28T13:20:32Z</time>
      </trkpt>
      <trkpt lat="44.48736" lon="4.64715">
        <ele>160.19999694824</ele>
        <time>2020-02-28T13:20:36Z</time>
      </trkpt>
      <trkpt lat="44.48736" lon="4.64715">
        <ele>160.19999694824</ele>
        <time>2020-02-28T13:20:37Z</time>
      </trkpt>
      <trkpt lat="44.48739" lon="4.64716">
        <ele>160.39999389648</ele>
        <time>2020-02-28T13:20:39Z</time>
      </trkpt>
      <trkpt lat="44.4874" lon="4.64716">
        <ele>160.39999389648</ele>
        <time>2020-02-28T13:20:40Z</time>
      </trkpt>
      <trkpt lat="44.48742" lon="4.64717">
        <ele>160.39999389648</ele>
        <time>2020-02-28T13:20:41Z</time>
      </trkpt>
      <trkpt lat="44.48743" lon="4.64718">
        <ele>160.39999389648</ele>
        <time>2020-02-28T13:20:42Z</time>
      </trkpt>
      <trkpt lat="44.48745" lon="4.64718">
        <ele>160.39999389648</ele>
        <time>2020-02-28T13:20:43Z</time>
      </trkpt>
      <trkpt lat="44.48747" lon="4.64719">
        <ele>160.60000610352</ele>
        <time>2020-02-28T13:20:44Z</time>
      </trkpt>
      <trkpt lat="44.48749" lon="4.64719">
        <ele>160.60000610352</ele>
        <time>2020-02-28T13:20:45Z</time>
      </trkpt>
      <trkpt lat="44.4875" lon="4.6472">
        <ele>160.80000305176</ele>
        <time>2020-02-28T13:20:46Z</time>
      </trkpt>
      <trkpt lat="44.48752" lon="4.6472">
        <ele>160.60000610352</ele>
        <time>2020-02-28T13:20:47Z</time>
      </trkpt>
      <trkpt lat="44.48753" lon="4.64721">
        <ele>160.80000305176</ele>
        <time>2020-02-28T13:20:48Z</time>
      </trkpt>
      <trkpt lat="44.48755" lon="4.64722">
        <ele>161</ele>
        <time>2020-02-28T13:20:49Z</time>
      </trkpt>
      <trkpt lat="44.48756" lon="4.64723">
        <ele>161</ele>
        <time>2020-02-28T13:20:50Z</time>
      </trkpt>
      <trkpt lat="44.48757" lon="4.64723">
        <ele>161.19999694824</ele>
        <time>2020-02-28T13:20:51Z</time>
      </trkpt>
      <trkpt lat="44.48759" lon="4.64724">
        <ele>161.39999389648</ele>
        <time>2020-02-28T13:20:52Z</time>
      </trkpt>
      <trkpt lat="44.4876" lon="4.64725">
        <ele>161.39999389648</ele>
        <time>2020-02-28T13:20:53Z</time>
      </trkpt>
      <trkpt lat="44.48761" lon="4.64725">
        <ele>161.80000305176</ele>
        <time>2020-02-28T13:20:54Z</time>
      </trkpt>
      <trkpt lat="44.48763" lon="4.64726">
        <ele>162</ele>
        <time>2020-02-28T13:20:55Z</time>
      </trkpt>
      <trkpt lat="44.48764" lon="4.64726">
        <ele>162.19999694824</ele>
        <time>2020-02-28T13:20:56Z</time>
      </trkpt>
      <trkpt lat="44.48766" lon="4.64726">
        <ele>162.60000610352</ele>
        <time>2020-02-28T13:20:57Z</time>
      </trkpt>
      <trkpt lat="44.48767" lon="4.64726">
        <ele>162.80000305176</ele>
        <time>2020-02-28T13:20:58Z</time>
      </trkpt>
      <trkpt lat="44.48769" lon="4.64727">
        <ele>163.19999694824</ele>
        <time>2020-02-28T13:20:59Z</time>
      </trkpt>
      <trkpt lat="44.48771" lon="4.64727">
        <ele>163.60000610352</ele>
        <time>2020-02-28T13:21:00Z</time>
      </trkpt>
      <trkpt lat="44.48772" lon="4.64727">
        <ele>164</ele>
        <time>2020-02-28T13:21:01Z</time>
      </trkpt>
      <trkpt lat="44.48773" lon="4.64727">
        <ele>164.19999694824</ele>
        <time>2020-02-28T13:21:02Z</time>
      </trkpt>
      <trkpt lat="44.48774" lon="4.64727">
        <ele>164.60000610352</ele>
        <time>2020-02-28T13:21:03Z</time>
      </trkpt>
      <trkpt lat="44.48775" lon="4.64726">
        <ele>164.80000305176</ele>
        <time>2020-02-28T13:21:04Z</time>
      </trkpt>
      <trkpt lat="44.48776" lon="4.64725">
        <ele>165.19999694824</ele>
        <time>2020-02-28T13:21:05Z</time>
      </trkpt>
      <trkpt lat="44.48777" lon="4.64724">
        <ele>165.19999694824</ele>
        <time>2020-02-28T13:21:06Z</time>
      </trkpt>
      <trkpt lat="44.48777" lon="4.64723">
        <ele>165.39999389648</ele>
        <time>2020-02-28T13:21:07Z</time>
      </trkpt>
      <trkpt lat="44.48778" lon="4.64721">
        <ele>165.60000610352</ele>
        <time>2020-02-28T13:21:08Z</time>
      </trkpt>
      <trkpt lat="44.48778" lon="4.6472">
        <ele>165.80000305176</ele>
        <time>2020-02-28T13:21:09Z</time>
      </trkpt>
      <trkpt lat="44.48778" lon="4.64718">
        <ele>166</ele>
        <time>2020-02-28T13:21:10Z</time>
      </trkpt>
      <trkpt lat="44.48778" lon="4.64716">
        <ele>166.19999694824</ele>
        <time>2020-02-28T13:21:11Z</time>
      </trkpt>
      <trkpt lat="44.48778" lon="4.64715">
        <ele>166.39999389648</ele>
        <time>2020-02-28T13:21:12Z</time>
      </trkpt>
      <trkpt lat="44.48778" lon="4.64713">
        <ele>166.60000610352</ele>
        <time>2020-02-28T13:21:13Z</time>
      </trkpt>
      <trkpt lat="44.48779" lon="4.64711">
        <ele>166.80000305176</ele>
        <time>2020-02-28T13:21:14Z</time>
      </trkpt>
      <trkpt lat="44.48779" lon="4.64709">
        <ele>167</ele>
        <time>2020-02-28T13:21:15Z</time>
      </trkpt>
      <trkpt lat="44.48779" lon="4.64707">
        <ele>167.39999389648</ele>
        <time>2020-02-28T13:21:16Z</time>
      </trkpt>
      <trkpt lat="44.48779" lon="4.64706">
        <ele>167.80000305176</ele>
        <time>2020-02-28T13:21:17Z</time>
      </trkpt>
      <trkpt lat="44.48779" lon="4.64704">
        <ele>167.80000305176</ele>
        <time>2020-02-28T13:21:18Z</time>
      </trkpt>
      <trkpt lat="44.48779" lon="4.64702">
        <ele>168.19999694824</ele>
        <time>2020-02-28T13:21:19Z</time>
      </trkpt>
      <trkpt lat="44.48779" lon="4.647">
        <ele>168.39999389648</ele>
        <time>2020-02-28T13:21:20Z</time>
      </trkpt>
      <trkpt lat="44.48779" lon="4.64699">
        <ele>168.80000305176</ele>
        <time>2020-02-28T13:21:21Z</time>
      </trkpt>
      <trkpt lat="44.48778" lon="4.64698">
        <ele>169</ele>
        <time>2020-02-28T13:21:22Z</time>
      </trkpt>
      <trkpt lat="44.48778" lon="4.64696">
        <ele>169.19999694824</ele>
        <time>2020-02-28T13:21:23Z</time>
      </trkpt>
      <trkpt lat="44.48777" lon="4.64695">
        <ele>169.39999389648</ele>
        <time>2020-02-28T13:21:24Z</time>
      </trkpt>
      <trkpt lat="44.48777" lon="4.64694">
        <ele>169.39999389648</ele>
        <time>2020-02-28T13:21:25Z</time>
      </trkpt>
      <trkpt lat="44.48776" lon="4.64692">
        <ele>169.60000610352</ele>
        <time>2020-02-28T13:21:26Z</time>
      </trkpt>
      <trkpt lat="44.48776" lon="4.64691">
        <ele>169.60000610352</ele>
        <time>2020-02-28T13:21:27Z</time>
      </trkpt>
      <trkpt lat="44.48775" lon="4.6469">
        <ele>170</ele>
        <time>2020-02-28T13:21:28Z</time>
      </trkpt>
      <trkpt lat="44.48775" lon="4.64688">
        <ele>170.39999389648</ele>
        <time>2020-02-28T13:21:29Z</time>
      </trkpt>
      <trkpt lat="44.48775" lon="4.64687">
        <ele>171</ele>
        <time>2020-02-28T13:21:30Z</time>
      </trkpt>
      <trkpt lat="44.48774" lon="4.64686">
        <ele>171.19999694824</ele>
        <time>2020-02-28T13:21:31Z</time>
      </trkpt>
      <trkpt lat="44.48774" lon="4.64685">
        <ele>171.39999389648</ele>
        <time>2020-02-28T13:21:32Z</time>
      </trkpt>
      <trkpt lat="44.48774" lon="4.64683">
        <ele>171.60000610352</ele>
        <time>2020-02-28T13:21:33Z</time>
      </trkpt>
      <trkpt lat="44.48773" lon="4.64682">
        <ele>171.80000305176</ele>
        <time>2020-02-28T13:21:34Z</time>
      </trkpt>
      <trkpt lat="44.48772" lon="4.64681">
        <ele>171.80000305176</ele>
        <time>2020-02-28T13:21:35Z</time>
      </trkpt>
      <trkpt lat="44.48771" lon="4.6468">
        <ele>172</ele>
        <time>2020-02-28T13:21:36Z</time>
      </trkpt>
      <trkpt lat="44.4877" lon="4.64679">
        <ele>172.19999694824</ele>
        <time>2020-02-28T13:21:37Z</time>
      </trkpt>
      <trkpt lat="44.48769" lon="4.64678">
        <ele>172.80000305176</ele>
        <time>2020-02-28T13:21:38Z</time>
      </trkpt>
      <trkpt lat="44.48769" lon="4.64676">
        <ele>173</ele>
        <time>2020-02-28T13:21:39Z</time>
      </trkpt>
      <trkpt lat="44.48768" lon="4.64675">
        <ele>172.80000305176</ele>
        <time>2020-02-28T13:21:40Z</time>
      </trkpt>
      <trkpt lat="44.48768" lon="4.64674">
        <ele>173.19999694824</ele>
        <time>2020-02-28T13:21:41Z</time>
      </trkpt>
      <trkpt lat="44.48767" lon="4.64672">
        <ele>173.19999694824</ele>
        <time>2020-02-28T13:21:42Z</time>
      </trkpt>
      <trkpt lat="44.48766" lon="4.64671">
        <ele>173.60000610352</ele>
        <time>2020-02-28T13:21:43Z</time>
      </trkpt>
      <trkpt lat="44.48766" lon="4.64669">
        <ele>173.80000305176</ele>
        <time>2020-02-28T13:21:44Z</time>
      </trkpt>
      <trkpt lat="44.48765" lon="4.64668">
        <ele>174</ele>
        <time>2020-02-28T13:21:45Z</time>
      </trkpt>
      <trkpt lat="44.48765" lon="4.64667">
        <ele>174.39999389648</ele>
        <time>2020-02-28T13:21:46Z</time>
      </trkpt>
      <trkpt lat="44.48764" lon="4.64665">
        <ele>174.60000610352</ele>
        <time>2020-02-28T13:21:47Z</time>
      </trkpt>
      <trkpt lat="44.48764" lon="4.64664">
        <ele>174.60000610352</ele>
        <time>2020-02-28T13:21:48Z</time>
      </trkpt>
      <trkpt lat="44.48763" lon="4.64663">
        <ele>175</ele>
        <time>2020-02-28T13:21:49Z</time>
      </trkpt>
      <trkpt lat="44.48763" lon="4.64661">
        <ele>175.39999389648</ele>
        <time>2020-02-28T13:21:50Z</time>
      </trkpt>
      <trkpt lat="44.48762" lon="4.6466">
        <ele>175.80000305176</ele>
        <time>2020-02-28T13:21:51Z</time>
      </trkpt>
      <trkpt lat="44.48762" lon="4.64659">
        <ele>176</ele>
        <time>2020-02-28T13:21:52Z</time>
      </trkpt>
      <trkpt lat="44.48761" lon="4.64658">
        <ele>176.19999694824</ele>
        <time>2020-02-28T13:21:53Z</time>
      </trkpt>
      <trkpt lat="44.4876" lon="4.64656">
        <ele>176.39999389648</ele>
        <time>2020-02-28T13:21:54Z</time>
      </trkpt>
      <trkpt lat="44.4876" lon="4.64655">
        <ele>176.80000305176</ele>
        <time>2020-02-28T13:21:55Z</time>
      </trkpt>
      <trkpt lat="44.48759" lon="4.64653">
        <ele>177</ele>
        <time>2020-02-28T13:21:56Z</time>
      </trkpt>
      <trkpt lat="44.48758" lon="4.64652">
        <ele>177.19999694824</ele>
        <time>2020-02-28T13:21:57Z</time>
      </trkpt>
      <trkpt lat="44.48757" lon="4.6465">
        <ele>177.39999389648</ele>
        <time>2020-02-28T13:21:58Z</time>
      </trkpt>
      <trkpt lat="44.48756" lon="4.64648">
        <ele>177.60000610352</ele>
        <time>2020-02-28T13:21:59Z</time>
      </trkpt>
      <trkpt lat="44.48755" lon="4.64646">
        <ele>177.80000305176</ele>
        <time>2020-02-28T13:22:00Z</time>
      </trkpt>
      <trkpt lat="44.48755" lon="4.64644">
        <ele>178.19999694824</ele>
        <time>2020-02-28T13:22:01Z</time>
      </trkpt>
      <trkpt lat="44.48754" lon="4.64643">
        <ele>178.39999389648</ele>
        <time>2020-02-28T13:22:02Z</time>
      </trkpt>
      <trkpt lat="44.48754" lon="4.64641">
        <ele>178.60000610352</ele>
        <time>2020-02-28T13:22:03Z</time>
      </trkpt>
      <trkpt lat="44.48753" lon="4.6464">
        <ele>178.80000305176</ele>
        <time>2020-02-28T13:22:04Z</time>
      </trkpt>
      <trkpt lat="44.48752" lon="4.64639">
        <ele>179.19999694824</ele>
        <time>2020-02-28T13:22:05Z</time>
      </trkpt>
      <trkpt lat="44.48752" lon="4.64638">
        <ele>179.39999389648</ele>
        <time>2020-02-28T13:22:06Z</time>
      </trkpt>
      <trkpt lat="44.48751" lon="4.64637">
        <ele>179.80000305176</ele>
        <time>2020-02-28T13:22:07Z</time>
      </trkpt>
      <trkpt lat="44.4875" lon="4.64635">
        <ele>180</ele>
        <time>2020-02-28T13:22:08Z</time>
      </trkpt>
      <trkpt lat="44.48749" lon="4.64634">
        <ele>180</ele>
        <time>2020-02-28T13:22:09Z</time>
      </trkpt>
      <trkpt lat="44.48748" lon="4.64633">
        <ele>180.19999694824</ele>
        <time>2020-02-28T13:22:10Z</time>
      </trkpt>
      <trkpt lat="44.48747" lon="4.64631">
        <ele>180.60000610352</ele>
        <time>2020-02-28T13:22:11Z</time>
      </trkpt>
      <trkpt lat="44.48746" lon="4.6463">
        <ele>180.80000305176</ele>
        <time>2020-02-28T13:22:12Z</time>
      </trkpt>
      <trkpt lat="44.48744" lon="4.64629">
        <ele>181</ele>
        <time>2020-02-28T13:22:13Z</time>
      </trkpt>
      <trkpt lat="44.48743" lon="4.64628">
        <ele>181.19999694824</ele>
        <time>2020-02-28T13:22:14Z</time>
      </trkpt>
      <trkpt lat="44.48742" lon="4.64627">
        <ele>181.39999389648</ele>
        <time>2020-02-28T13:22:15Z</time>
      </trkpt>
      <trkpt lat="44.48741" lon="4.64626">
        <ele>181.39999389648</ele>
        <time>2020-02-28T13:22:16Z</time>
      </trkpt>
      <trkpt lat="44.48739" lon="4.64625">
        <ele>181.80000305176</ele>
        <time>2020-02-28T13:22:17Z</time>
      </trkpt>
      <trkpt lat="44.48738" lon="4.64624">
        <ele>182</ele>
        <time>2020-02-28T13:22:18Z</time>
      </trkpt>
      <trkpt lat="44.48737" lon="4.64623">
        <ele>182.39999389648</ele>
        <time>2020-02-28T13:22:19Z</time>
      </trkpt>
      <trkpt lat="44.48736" lon="4.64622">
        <ele>182.80000305176</ele>
        <time>2020-02-28T13:22:20Z</time>
      </trkpt>
      <trkpt lat="44.48735" lon="4.64621">
        <ele>183</ele>
        <time>2020-02-28T13:22:21Z</time>
      </trkpt>
      <trkpt lat="44.48735" lon="4.64619">
        <ele>183.39999389648</ele>
        <time>2020-02-28T13:22:22Z</time>
      </trkpt>
      <trkpt lat="44.48733" lon="4.64618">
        <ele>184</ele>
        <time>2020-02-28T13:22:24Z</time>
      </trkpt>
      <trkpt lat="44.48732" lon="4.64617">
        <ele>184</ele>
        <time>2020-02-28T13:22:25Z</time>
      </trkpt>
      <trkpt lat="44.48731" lon="4.64617">
        <ele>184.60000610352</ele>
        <time>2020-02-28T13:22:26Z</time>
      </trkpt>
      <trkpt lat="44.4873" lon="4.64616">
        <ele>184.80000305176</ele>
        <time>2020-02-28T13:22:27Z</time>
      </trkpt>
      <trkpt lat="44.48728" lon="4.64615">
        <ele>185.19999694824</ele>
        <time>2020-02-28T13:22:28Z</time>
      </trkpt>
      <trkpt lat="44.48727" lon="4.64614">
        <ele>185.39999389648</ele>
        <time>2020-02-28T13:22:29Z</time>
      </trkpt>
      <trkpt lat="44.48726" lon="4.64614">
        <ele>185.39999389648</ele>
        <time>2020-02-28T13:22:30Z</time>
      </trkpt>
      <trkpt lat="44.48725" lon="4.64613">
        <ele>185.60000610352</ele>
        <time>2020-02-28T13:22:31Z</time>
      </trkpt>
      <trkpt lat="44.48725" lon="4.64612">
        <ele>186.19999694824</ele>
        <time>2020-02-28T13:22:32Z</time>
      </trkpt>
      <trkpt lat="44.48724" lon="4.64611">
        <ele>186.39999389648</ele>
        <time>2020-02-28T13:22:33Z</time>
      </trkpt>
      <trkpt lat="44.48723" lon="4.64609">
        <ele>186.80000305176</ele>
        <time>2020-02-28T13:22:34Z</time>
      </trkpt>
      <trkpt lat="44.48722" lon="4.64608">
        <ele>187</ele>
        <time>2020-02-28T13:22:35Z</time>
      </trkpt>
      <trkpt lat="44.48721" lon="4.64606">
        <ele>187.39999389648</ele>
        <time>2020-02-28T13:22:36Z</time>
      </trkpt>
      <trkpt lat="44.48719" lon="4.64605">
        <ele>187.60000610352</ele>
        <time>2020-02-28T13:22:37Z</time>
      </trkpt>
      <trkpt lat="44.48718" lon="4.64605">
        <ele>187.80000305176</ele>
        <time>2020-02-28T13:22:38Z</time>
      </trkpt>
      <trkpt lat="44.48718" lon="4.64603">
        <ele>188.19999694824</ele>
        <time>2020-02-28T13:22:39Z</time>
      </trkpt>
      <trkpt lat="44.48716" lon="4.64602">
        <ele>188.39999389648</ele>
        <time>2020-02-28T13:22:40Z</time>
      </trkpt>
      <trkpt lat="44.48716" lon="4.64601">
        <ele>188.60000610352</ele>
        <time>2020-02-28T13:22:41Z</time>
      </trkpt>
      <trkpt lat="44.48714" lon="4.64599">
        <ele>188.80000305176</ele>
        <time>2020-02-28T13:22:42Z</time>
      </trkpt>
      <trkpt lat="44.48713" lon="4.64598">
        <ele>188.80000305176</ele>
        <time>2020-02-28T13:22:43Z</time>
      </trkpt>
      <trkpt lat="44.48713" lon="4.64597">
        <ele>189.39999389648</ele>
        <time>2020-02-28T13:22:44Z</time>
      </trkpt>
      <trkpt lat="44.48713" lon="4.64596">
        <ele>189.60000610352</ele>
        <time>2020-02-28T13:22:45Z</time>
      </trkpt>
      <trkpt lat="44.48712" lon="4.64596">
        <ele>189.80000305176</ele>
        <time>2020-02-28T13:22:46Z</time>
      </trkpt>
      <trkpt lat="44.48712" lon="4.64594">
        <ele>190.39999389648</ele>
        <time>2020-02-28T13:22:49Z</time>
      </trkpt>
      <trkpt lat="44.48711" lon="4.64593">
        <ele>190.80000305176</ele>
        <time>2020-02-28T13:22:50Z</time>
      </trkpt>
      <trkpt lat="44.48711" lon="4.64592">
        <ele>190.80000305176</ele>
        <time>2020-02-28T13:22:51Z</time>
      </trkpt>
      <trkpt lat="44.4871" lon="4.64591">
        <ele>191.19999694824</ele>
        <time>2020-02-28T13:22:52Z</time>
      </trkpt>
      <trkpt lat="44.48709" lon="4.64591">
        <ele>191.39999389648</ele>
        <time>2020-02-28T13:22:53Z</time>
      </trkpt>
      <trkpt lat="44.48708" lon="4.64589">
        <ele>191.39999389648</ele>
        <time>2020-02-28T13:22:54Z</time>
      </trkpt>
      <trkpt lat="44.48707" lon="4.64588">
        <ele>191.39999389648</ele>
        <time>2020-02-28T13:22:55Z</time>
      </trkpt>
      <trkpt lat="44.48706" lon="4.64586">
        <ele>191.60000610352</ele>
        <time>2020-02-28T13:22:56Z</time>
      </trkpt>
      <trkpt lat="44.48705" lon="4.64584">
        <ele>191.60000610352</ele>
        <time>2020-02-28T13:22:57Z</time>
      </trkpt>
      <trkpt lat="44.48704" lon="4.64582">
        <ele>191.60000610352</ele>
        <time>2020-02-28T13:22:58Z</time>
      </trkpt>
      <trkpt lat="44.48703" lon="4.64581">
        <ele>191.60000610352</ele>
        <time>2020-02-28T13:22:59Z</time>
      </trkpt>
      <trkpt lat="44.48701" lon="4.64579">
        <ele>191.80000305176</ele>
        <time>2020-02-28T13:23:00Z</time>
      </trkpt>
      <trkpt lat="44.487" lon="4.64578">
        <ele>192</ele>
        <time>2020-02-28T13:23:01Z</time>
      </trkpt>
      <trkpt lat="44.48699" lon="4.64577">
        <ele>192.19999694824</ele>
        <time>2020-02-28T13:23:02Z</time>
      </trkpt>
      <trkpt lat="44.48698" lon="4.64575">
        <ele>192.60000610352</ele>
        <time>2020-02-28T13:23:03Z</time>
      </trkpt>
      <trkpt lat="44.48697" lon="4.64573">
        <ele>192.80000305176</ele>
        <time>2020-02-28T13:23:04Z</time>
      </trkpt>
      <trkpt lat="44.48696" lon="4.64571">
        <ele>193.19999694824</ele>
        <time>2020-02-28T13:23:05Z</time>
      </trkpt>
      <trkpt lat="44.48695" lon="4.64567">
        <ele>193.39999389648</ele>
        <time>2020-02-28T13:23:06Z</time>
      </trkpt>
      <trkpt lat="44.48694" lon="4.64565">
        <ele>194</ele>
        <time>2020-02-28T13:23:07Z</time>
      </trkpt>
      <trkpt lat="44.48694" lon="4.64562">
        <ele>194.19999694824</ele>
        <time>2020-02-28T13:23:08Z</time>
      </trkpt>
      <trkpt lat="44.48694" lon="4.6456">
        <ele>194.39999389648</ele>
        <time>2020-02-28T13:23:09Z</time>
      </trkpt>
      <trkpt lat="44.48694" lon="4.64557">
        <ele>194.80000305176</ele>
        <time>2020-02-28T13:23:10Z</time>
      </trkpt>
      <trkpt lat="44.48694" lon="4.64555">
        <ele>195</ele>
        <time>2020-02-28T13:23:11Z</time>
      </trkpt>
      <trkpt lat="44.48694" lon="4.64552">
        <ele>195</ele>
        <time>2020-02-28T13:23:12Z</time>
      </trkpt>
      <trkpt lat="44.48695" lon="4.64549">
        <ele>195.19999694824</ele>
        <time>2020-02-28T13:23:13Z</time>
      </trkpt>
      <trkpt lat="44.48695" lon="4.64547">
        <ele>195.39999389648</ele>
        <time>2020-02-28T13:23:14Z</time>
      </trkpt>
      <trkpt lat="44.48696" lon="4.64545">
        <ele>195.60000610352</ele>
        <time>2020-02-28T13:23:15Z</time>
      </trkpt>
      <trkpt lat="44.48697" lon="4.64542">
        <ele>195.60000610352</ele>
        <time>2020-02-28T13:23:16Z</time>
      </trkpt>
      <trkpt lat="44.48697" lon="4.64541">
        <ele>196</ele>
        <time>2020-02-28T13:23:17Z</time>
      </trkpt>
      <trkpt lat="44.48698" lon="4.64539">
        <ele>196</ele>
        <time>2020-02-28T13:23:18Z</time>
      </trkpt>
      <trkpt lat="44.48699" lon="4.64538">
        <ele>196.19999694824</ele>
        <time>2020-02-28T13:23:19Z</time>
      </trkpt>
      <trkpt lat="44.48699" lon="4.64536">
        <ele>196.60000610352</ele>
        <time>2020-02-28T13:23:20Z</time>
      </trkpt>
      <trkpt lat="44.487" lon="4.64535">
        <ele>196.80000305176</ele>
        <time>2020-02-28T13:23:21Z</time>
      </trkpt>
      <trkpt lat="44.48701" lon="4.64533">
        <ele>197.39999389648</ele>
        <time>2020-02-28T13:23:22Z</time>
      </trkpt>
      <trkpt lat="44.48702" lon="4.64532">
        <ele>197.80000305176</ele>
        <time>2020-02-28T13:23:23Z</time>
      </trkpt>
      <trkpt lat="44.48702" lon="4.6453">
        <ele>198</ele>
        <time>2020-02-28T13:23:24Z</time>
      </trkpt>
      <trkpt lat="44.48703" lon="4.64529">
        <ele>198.39999389648</ele>
        <time>2020-02-28T13:23:25Z</time>
      </trkpt>
      <trkpt lat="44.48704" lon="4.64527">
        <ele>198.80000305176</ele>
        <time>2020-02-28T13:23:26Z</time>
      </trkpt>
      <trkpt lat="44.48704" lon="4.64526">
        <ele>199.39999389648</ele>
        <time>2020-02-28T13:23:27Z</time>
      </trkpt>
      <trkpt lat="44.48705" lon="4.64524">
        <ele>199.80000305176</ele>
        <time>2020-02-28T13:23:28Z</time>
      </trkpt>
      <trkpt lat="44.48705" lon="4.64523">
        <ele>199.80000305176</ele>
        <time>2020-02-28T13:23:29Z</time>
      </trkpt>
      <trkpt lat="44.48706" lon="4.64521">
        <ele>200</ele>
        <time>2020-02-28T13:23:30Z</time>
      </trkpt>
      <trkpt lat="44.48707" lon="4.64519">
        <ele>200.19999694824</ele>
        <time>2020-02-28T13:23:31Z</time>
      </trkpt>
      <trkpt lat="44.48707" lon="4.64518">
        <ele>200.60000610352</ele>
        <time>2020-02-28T13:23:32Z</time>
      </trkpt>
      <trkpt lat="44.48707" lon="4.64516">
        <ele>200.60000610352</ele>
        <time>2020-02-28T13:23:33Z</time>
      </trkpt>
      <trkpt lat="44.48708" lon="4.64514">
        <ele>201</ele>
        <time>2020-02-28T13:23:34Z</time>
      </trkpt>
      <trkpt lat="44.48708" lon="4.64513">
        <ele>201.19999694824</ele>
        <time>2020-02-28T13:23:35Z</time>
      </trkpt>
      <trkpt lat="44.48709" lon="4.64511">
        <ele>201.39999389648</ele>
        <time>2020-02-28T13:23:36Z</time>
      </trkpt>
      <trkpt lat="44.48709" lon="4.64509">
        <ele>201.60000610352</ele>
        <time>2020-02-28T13:23:37Z</time>
      </trkpt>
      <trkpt lat="44.48709" lon="4.64507">
        <ele>201.80000305176</ele>
        <time>2020-02-28T13:23:38Z</time>
      </trkpt>
      <trkpt lat="44.48709" lon="4.64505">
        <ele>202.19999694824</ele>
        <time>2020-02-28T13:23:39Z</time>
      </trkpt>
      <trkpt lat="44.48709" lon="4.64503">
        <ele>202.19999694824</ele>
        <time>2020-02-28T13:23:40Z</time>
      </trkpt>
      <trkpt lat="44.4871" lon="4.64501">
        <ele>202.60000610352</ele>
        <time>2020-02-28T13:23:41Z</time>
      </trkpt>
      <trkpt lat="44.4871" lon="4.645">
        <ele>202.80000305176</ele>
        <time>2020-02-28T13:23:42Z</time>
      </trkpt>
      <trkpt lat="44.48711" lon="4.64499">
        <ele>203.19999694824</ele>
        <time>2020-02-28T13:23:43Z</time>
      </trkpt>
      <trkpt lat="44.48711" lon="4.64498">
        <ele>203.39999389648</ele>
        <time>2020-02-28T13:23:44Z</time>
      </trkpt>
      <trkpt lat="44.48711" lon="4.64496">
        <ele>203.80000305176</ele>
        <time>2020-02-28T13:23:45Z</time>
      </trkpt>
      <trkpt lat="44.48711" lon="4.64495">
        <ele>204.19999694824</ele>
        <time>2020-02-28T13:23:46Z</time>
      </trkpt>
      <trkpt lat="44.48711" lon="4.64494">
        <ele>204.39999389648</ele>
        <time>2020-02-28T13:23:47Z</time>
      </trkpt>
      <trkpt lat="44.48711" lon="4.64492">
        <ele>205</ele>
        <time>2020-02-28T13:23:48Z</time>
      </trkpt>
      <trkpt lat="44.48712" lon="4.64492">
        <ele>205.39999389648</ele>
        <time>2020-02-28T13:23:49Z</time>
      </trkpt>
      <trkpt lat="44.48712" lon="4.64492">
        <ele>205.60000610352</ele>
        <time>2020-02-28T13:23:50Z</time>
      </trkpt>
      <trkpt lat="44.48714" lon="4.6449">
        <ele>207.60000610352</ele>
        <time>2020-02-28T13:24:01Z</time>
      </trkpt>
      <trkpt lat="44.48715" lon="4.64488">
        <ele>207.60000610352</ele>
        <time>2020-02-28T13:24:07Z</time>
      </trkpt>
      <trkpt lat="44.48716" lon="4.64488">
        <ele>207.60000610352</ele>
        <time>2020-02-28T13:24:08Z</time>
      </trkpt>
      <trkpt lat="44.48717" lon="4.64487">
        <ele>207.60000610352</ele>
        <time>2020-02-28T13:24:09Z</time>
      </trkpt>
      <trkpt lat="44.48718" lon="4.64486">
        <ele>207.60000610352</ele>
        <time>2020-02-28T13:24:10Z</time>
      </trkpt>
      <trkpt lat="44.4872" lon="4.64485">
        <ele>207.60000610352</ele>
        <time>2020-02-28T13:24:11Z</time>
      </trkpt>
      <trkpt lat="44.4872" lon="4.64484">
        <ele>207.80000305176</ele>
        <time>2020-02-28T13:24:12Z</time>
      </trkpt>
      <trkpt lat="44.48722" lon="4.64483">
        <ele>207.80000305176</ele>
        <time>2020-02-28T13:24:13Z</time>
      </trkpt>
      <trkpt lat="44.48723" lon="4.64482">
        <ele>207.80000305176</ele>
        <time>2020-02-28T13:24:14Z</time>
      </trkpt>
      <trkpt lat="44.48724" lon="4.64482">
        <ele>207.80000305176</ele>
        <time>2020-02-28T13:24:15Z</time>
      </trkpt>
      <trkpt lat="44.48726" lon="4.64481">
        <ele>207.60000610352</ele>
        <time>2020-02-28T13:24:16Z</time>
      </trkpt>
      <trkpt lat="44.48727" lon="4.64481">
        <ele>207.80000305176</ele>
        <time>2020-02-28T13:24:17Z</time>
      </trkpt>
      <trkpt lat="44.48729" lon="4.64481">
        <ele>208</ele>
        <time>2020-02-28T13:24:18Z</time>
      </trkpt>
      <trkpt lat="44.48731" lon="4.6448">
        <ele>208</ele>
        <time>2020-02-28T13:24:19Z</time>
      </trkpt>
      <trkpt lat="44.48732" lon="4.6448">
        <ele>208.39999389648</ele>
        <time>2020-02-28T13:24:20Z</time>
      </trkpt>
      <trkpt lat="44.48734" lon="4.6448">
        <ele>208.80000305176</ele>
        <time>2020-02-28T13:24:21Z</time>
      </trkpt>
      <trkpt lat="44.48735" lon="4.6448">
        <ele>209</ele>
        <time>2020-02-28T13:24:22Z</time>
      </trkpt>
      <trkpt lat="44.48737" lon="4.6448">
        <ele>209.39999389648</ele>
        <time>2020-02-28T13:24:23Z</time>
      </trkpt>
      <trkpt lat="44.48738" lon="4.6448">
        <ele>209.60000610352</ele>
        <time>2020-02-28T13:24:24Z</time>
      </trkpt>
      <trkpt lat="44.4874" lon="4.64481">
        <ele>209.60000610352</ele>
        <time>2020-02-28T13:24:25Z</time>
      </trkpt>
      <trkpt lat="44.48741" lon="4.64481">
        <ele>210.19999694824</ele>
        <time>2020-02-28T13:24:26Z</time>
      </trkpt>
      <trkpt lat="44.48742" lon="4.64482">
        <ele>210.60000610352</ele>
        <time>2020-02-28T13:24:27Z</time>
      </trkpt>
      <trkpt lat="44.48744" lon="4.64483">
        <ele>211</ele>
        <time>2020-02-28T13:24:28Z</time>
      </trkpt>
      <trkpt lat="44.48745" lon="4.64484">
        <ele>211.39999389648</ele>
        <time>2020-02-28T13:24:29Z</time>
      </trkpt>
      <trkpt lat="44.48747" lon="4.64485">
        <ele>211.80000305176</ele>
        <time>2020-02-28T13:24:30Z</time>
      </trkpt>
      <trkpt lat="44.48749" lon="4.64486">
        <ele>212</ele>
        <time>2020-02-28T13:24:31Z</time>
      </trkpt>
      <trkpt lat="44.48751" lon="4.64487">
        <ele>212</ele>
        <time>2020-02-28T13:24:32Z</time>
      </trkpt>
      <trkpt lat="44.48752" lon="4.64489">
        <ele>212.39999389648</ele>
        <time>2020-02-28T13:24:33Z</time>
      </trkpt>
      <trkpt lat="44.48753" lon="4.6449">
        <ele>212.39999389648</ele>
        <time>2020-02-28T13:24:34Z</time>
      </trkpt>
      <trkpt lat="44.48755" lon="4.6449">
        <ele>212.60000610352</ele>
        <time>2020-02-28T13:24:35Z</time>
      </trkpt>
      <trkpt lat="44.48757" lon="4.6449">
        <ele>212.60000610352</ele>
        <time>2020-02-28T13:24:36Z</time>
      </trkpt>
      <trkpt lat="44.48758" lon="4.64488">
        <ele>213</ele>
        <time>2020-02-28T13:24:37Z</time>
      </trkpt>
      <trkpt lat="44.48758" lon="4.64486">
        <ele>213.19999694824</ele>
        <time>2020-02-28T13:24:38Z</time>
      </trkpt>
      <trkpt lat="44.48758" lon="4.64486">
        <ele>213.60000610352</ele>
        <time>2020-02-28T13:24:39Z</time>
      </trkpt>
      <trkpt lat="44.48759" lon="4.64488">
        <ele>215.19999694824</ele>
        <time>2020-02-28T13:24:47Z</time>
      </trkpt>
      <trkpt lat="44.48759" lon="4.64486">
        <ele>215.39999389648</ele>
        <time>2020-02-28T13:24:53Z</time>
      </trkpt>
      <trkpt lat="44.48758" lon="4.64485">
        <ele>215.39999389648</ele>
        <time>2020-02-28T13:24:54Z</time>
      </trkpt>
      <trkpt lat="44.48757" lon="4.64484">
        <ele>215.39999389648</ele>
        <time>2020-02-28T13:24:55Z</time>
      </trkpt>
      <trkpt lat="44.48757" lon="4.64483">
        <ele>215.39999389648</ele>
        <time>2020-02-28T13:24:56Z</time>
      </trkpt>
      <trkpt lat="44.48756" lon="4.64482">
        <ele>215.39999389648</ele>
        <time>2020-02-28T13:24:57Z</time>
      </trkpt>
      <trkpt lat="44.48756" lon="4.64481">
        <ele>215.39999389648</ele>
        <time>2020-02-28T13:24:58Z</time>
      </trkpt>
      <trkpt lat="44.48755" lon="4.64479">
        <ele>215.39999389648</ele>
        <time>2020-02-28T13:24:59Z</time>
      </trkpt>
      <trkpt lat="44.48755" lon="4.64477">
        <ele>215.39999389648</ele>
        <time>2020-02-28T13:25:00Z</time>
      </trkpt>
      <trkpt lat="44.48754" lon="4.64476">
        <ele>215.39999389648</ele>
        <time>2020-02-28T13:25:01Z</time>
      </trkpt>
      <trkpt lat="44.48754" lon="4.64475">
        <ele>215.60000610352</ele>
        <time>2020-02-28T13:25:02Z</time>
      </trkpt>
      <trkpt lat="44.48753" lon="4.64473">
        <ele>215.60000610352</ele>
        <time>2020-02-28T13:25:03Z</time>
      </trkpt>
      <trkpt lat="44.48753" lon="4.64472">
        <ele>215.80000305176</ele>
        <time>2020-02-28T13:25:04Z</time>
      </trkpt>
      <trkpt lat="44.48752" lon="4.64471">
        <ele>216</ele>
        <time>2020-02-28T13:25:05Z</time>
      </trkpt>
      <trkpt lat="44.48751" lon="4.64469">
        <ele>216.19999694824</ele>
        <time>2020-02-28T13:25:06Z</time>
      </trkpt>
      <trkpt lat="44.48751" lon="4.64468">
        <ele>216.39999389648</ele>
        <time>2020-02-28T13:25:07Z</time>
      </trkpt>
      <trkpt lat="44.4875" lon="4.64467">
        <ele>216.60000610352</ele>
        <time>2020-02-28T13:25:08Z</time>
      </trkpt>
      <trkpt lat="44.48749" lon="4.64465">
        <ele>216.80000305176</ele>
        <time>2020-02-28T13:25:09Z</time>
      </trkpt>
      <trkpt lat="44.48749" lon="4.64464">
        <ele>217.39999389648</ele>
        <time>2020-02-28T13:25:10Z</time>
      </trkpt>
      <trkpt lat="44.48748" lon="4.64462">
        <ele>218</ele>
        <time>2020-02-28T13:25:11Z</time>
      </trkpt>
      <trkpt lat="44.48747" lon="4.64461">
        <ele>218.19999694824</ele>
        <time>2020-02-28T13:25:12Z</time>
      </trkpt>
      <trkpt lat="44.48746" lon="4.6446">
        <ele>218.60000610352</ele>
        <time>2020-02-28T13:25:13Z</time>
      </trkpt>
      <trkpt lat="44.48745" lon="4.64459">
        <ele>218.60000610352</ele>
        <time>2020-02-28T13:25:14Z</time>
      </trkpt>
      <trkpt lat="44.48745" lon="4.64458">
        <ele>218.80000305176</ele>
        <time>2020-02-28T13:25:15Z</time>
      </trkpt>
      <trkpt lat="44.48744" lon="4.64456">
        <ele>218.80000305176</ele>
        <time>2020-02-28T13:25:16Z</time>
      </trkpt>
      <trkpt lat="44.48743" lon="4.64455">
        <ele>219</ele>
        <time>2020-02-28T13:25:17Z</time>
      </trkpt>
      <trkpt lat="44.48743" lon="4.64453">
        <ele>219</ele>
        <time>2020-02-28T13:25:18Z</time>
      </trkpt>
      <trkpt lat="44.48742" lon="4.64452">
        <ele>219.19999694824</ele>
        <time>2020-02-28T13:25:19Z</time>
      </trkpt>
      <trkpt lat="44.4874" lon="4.64451">
        <ele>219.60000610352</ele>
        <time>2020-02-28T13:25:20Z</time>
      </trkpt>
      <trkpt lat="44.48738" lon="4.64449">
        <ele>219.80000305176</ele>
        <time>2020-02-28T13:25:21Z</time>
      </trkpt>
      <trkpt lat="44.48737" lon="4.64448">
        <ele>220</ele>
        <time>2020-02-28T13:25:22Z</time>
      </trkpt>
      <trkpt lat="44.48736" lon="4.64447">
        <ele>220.19999694824</ele>
        <time>2020-02-28T13:25:23Z</time>
      </trkpt>
      <trkpt lat="44.48735" lon="4.64445">
        <ele>220.39999389648</ele>
        <time>2020-02-28T13:25:24Z</time>
      </trkpt>
      <trkpt lat="44.48734" lon="4.64444">
        <ele>220.60000610352</ele>
        <time>2020-02-28T13:25:25Z</time>
      </trkpt>
      <trkpt lat="44.48732" lon="4.64443">
        <ele>220.60000610352</ele>
        <time>2020-02-28T13:25:26Z</time>
      </trkpt>
      <trkpt lat="44.48732" lon="4.64442">
        <ele>221</ele>
        <time>2020-02-28T13:25:27Z</time>
      </trkpt>
      <trkpt lat="44.4873" lon="4.6444">
        <ele>221.19999694824</ele>
        <time>2020-02-28T13:25:28Z</time>
      </trkpt>
      <trkpt lat="44.48729" lon="4.64438">
        <ele>221.80000305176</ele>
        <time>2020-02-28T13:25:29Z</time>
      </trkpt>
      <trkpt lat="44.48728" lon="4.64437">
        <ele>222.19999694824</ele>
        <time>2020-02-28T13:25:30Z</time>
      </trkpt>
      <trkpt lat="44.48726" lon="4.64436">
        <ele>222.39999389648</ele>
        <time>2020-02-28T13:25:31Z</time>
      </trkpt>
      <trkpt lat="44.48725" lon="4.64436">
        <ele>222.60000610352</ele>
        <time>2020-02-28T13:25:32Z</time>
      </trkpt>
      <trkpt lat="44.48724" lon="4.64434">
        <ele>222.80000305176</ele>
        <time>2020-02-28T13:25:33Z</time>
      </trkpt>
      <trkpt lat="44.48723" lon="4.64434">
        <ele>222.80000305176</ele>
        <time>2020-02-28T13:25:34Z</time>
      </trkpt>
      <trkpt lat="44.48722" lon="4.64433">
        <ele>223</ele>
        <time>2020-02-28T13:25:35Z</time>
      </trkpt>
      <trkpt lat="44.48721" lon="4.64432">
        <ele>223.39999389648</ele>
        <time>2020-02-28T13:25:36Z</time>
      </trkpt>
      <trkpt lat="44.48719" lon="4.64432">
        <ele>223.39999389648</ele>
        <time>2020-02-28T13:25:37Z</time>
      </trkpt>
      <trkpt lat="44.48718" lon="4.64432">
        <ele>223.39999389648</ele>
        <time>2020-02-28T13:25:38Z</time>
      </trkpt>
      <trkpt lat="44.48717" lon="4.64432">
        <ele>223.60000610352</ele>
        <time>2020-02-28T13:25:39Z</time>
      </trkpt>
      <trkpt lat="44.48716" lon="4.64432">
        <ele>224</ele>
        <time>2020-02-28T13:25:40Z</time>
      </trkpt>
      <trkpt lat="44.48714" lon="4.64433">
        <ele>224</ele>
        <time>2020-02-28T13:25:41Z</time>
      </trkpt>
      <trkpt lat="44.48712" lon="4.64433">
        <ele>224.39999389648</ele>
        <time>2020-02-28T13:25:42Z</time>
      </trkpt>
      <trkpt lat="44.48711" lon="4.64434">
        <ele>224.80000305176</ele>
        <time>2020-02-28T13:25:43Z</time>
      </trkpt>
      <trkpt lat="44.4871" lon="4.64434">
        <ele>225</ele>
        <time>2020-02-28T13:25:44Z</time>
      </trkpt>
      <trkpt lat="44.48708" lon="4.64435">
        <ele>225.39999389648</ele>
        <time>2020-02-28T13:25:45Z</time>
      </trkpt>
      <trkpt lat="44.48706" lon="4.64436">
        <ele>225.60000610352</ele>
        <time>2020-02-28T13:25:46Z</time>
      </trkpt>
      <trkpt lat="44.48703" lon="4.64438">
        <ele>225.80000305176</ele>
        <time>2020-02-28T13:25:48Z</time>
      </trkpt>
      <trkpt lat="44.487" lon="4.64441">
        <ele>226.19999694824</ele>
        <time>2020-02-28T13:25:50Z</time>
      </trkpt>
      <trkpt lat="44.48699" lon="4.64442">
        <ele>226.39999389648</ele>
        <time>2020-02-28T13:25:51Z</time>
      </trkpt>
      <trkpt lat="44.48698" lon="4.64444">
        <ele>226.39999389648</ele>
        <time>2020-02-28T13:25:52Z</time>
      </trkpt>
      <trkpt lat="44.48696" lon="4.64445">
        <ele>226.60000610352</ele>
        <time>2020-02-28T13:25:53Z</time>
      </trkpt>
      <trkpt lat="44.48694" lon="4.64447">
        <ele>226.80000305176</ele>
        <time>2020-02-28T13:25:54Z</time>
      </trkpt>
      <trkpt lat="44.48693" lon="4.64449">
        <ele>226.80000305176</ele>
        <time>2020-02-28T13:25:55Z</time>
      </trkpt>
      <trkpt lat="44.48691" lon="4.6445">
        <ele>226.80000305176</ele>
        <time>2020-02-28T13:25:56Z</time>
      </trkpt>
      <trkpt lat="44.4869" lon="4.64451">
        <ele>226.80000305176</ele>
        <time>2020-02-28T13:25:57Z</time>
      </trkpt>
      <trkpt lat="44.48688" lon="4.64452">
        <ele>227</ele>
        <time>2020-02-28T13:25:58Z</time>
      </trkpt>
      <trkpt lat="44.48686" lon="4.64452">
        <ele>227</ele>
        <time>2020-02-28T13:25:59Z</time>
      </trkpt>
      <trkpt lat="44.48684" lon="4.64452">
        <ele>227.19999694824</ele>
        <time>2020-02-28T13:26:00Z</time>
      </trkpt>
      <trkpt lat="44.48683" lon="4.64451">
        <ele>227.60000610352</ele>
        <time>2020-02-28T13:26:01Z</time>
      </trkpt>
      <trkpt lat="44.48682" lon="4.64451">
        <ele>227.80000305176</ele>
        <time>2020-02-28T13:26:02Z</time>
      </trkpt>
      <trkpt lat="44.48681" lon="4.64451">
        <ele>227.80000305176</ele>
        <time>2020-02-28T13:26:03Z</time>
      </trkpt>
      <trkpt lat="44.48679" lon="4.6445">
        <ele>228.19999694824</ele>
        <time>2020-02-28T13:26:04Z</time>
      </trkpt>
      <trkpt lat="44.48678" lon="4.64449">
        <ele>228.39999389648</ele>
        <time>2020-02-28T13:26:05Z</time>
      </trkpt>
      <trkpt lat="44.48677" lon="4.64449">
        <ele>228.39999389648</ele>
        <time>2020-02-28T13:26:06Z</time>
      </trkpt>
      <trkpt lat="44.48676" lon="4.64448">
        <ele>228.80000305176</ele>
        <time>2020-02-28T13:26:07Z</time>
      </trkpt>
      <trkpt lat="44.48674" lon="4.64448">
        <ele>229</ele>
        <time>2020-02-28T13:26:08Z</time>
      </trkpt>
      <trkpt lat="44.48673" lon="4.64448">
        <ele>229.19999694824</ele>
        <time>2020-02-28T13:26:09Z</time>
      </trkpt>
      <trkpt lat="44.48672" lon="4.64448">
        <ele>229.19999694824</ele>
        <time>2020-02-28T13:26:10Z</time>
      </trkpt>
      <trkpt lat="44.4867" lon="4.64447">
        <ele>229.39999389648</ele>
        <time>2020-02-28T13:26:11Z</time>
      </trkpt>
      <trkpt lat="44.48668" lon="4.64446">
        <ele>229.39999389648</ele>
        <time>2020-02-28T13:26:12Z</time>
      </trkpt>
      <trkpt lat="44.48667" lon="4.64446">
        <ele>229.60000610352</ele>
        <time>2020-02-28T13:26:13Z</time>
      </trkpt>
      <trkpt lat="44.48666" lon="4.64446">
        <ele>229.60000610352</ele>
        <time>2020-02-28T13:26:14Z</time>
      </trkpt>
      <trkpt lat="44.48664" lon="4.64445">
        <ele>229.80000305176</ele>
        <time>2020-02-28T13:26:16Z</time>
      </trkpt>
      <trkpt lat="44.48664" lon="4.64444">
        <ele>230</ele>
        <time>2020-02-28T13:26:17Z</time>
      </trkpt>
      <trkpt lat="44.48663" lon="4.64443">
        <ele>229.80000305176</ele>
        <time>2020-02-28T13:26:18Z</time>
      </trkpt>
      <trkpt lat="44.48662" lon="4.64442">
        <ele>230</ele>
        <time>2020-02-28T13:26:19Z</time>
      </trkpt>
      <trkpt lat="44.48661" lon="4.64441">
        <ele>230</ele>
        <time>2020-02-28T13:26:20Z</time>
      </trkpt>
      <trkpt lat="44.4866" lon="4.6444">
        <ele>230.19999694824</ele>
        <time>2020-02-28T13:26:21Z</time>
      </trkpt>
      <trkpt lat="44.4866" lon="4.6444">
        <ele>230.39999389648</ele>
        <time>2020-02-28T13:26:22Z</time>
      </trkpt>
      <trkpt lat="44.48659" lon="4.64439">
        <ele>230.39999389648</ele>
        <time>2020-02-28T13:26:23Z</time>
      </trkpt>
      <trkpt lat="44.48658" lon="4.64438">
        <ele>230.60000610352</ele>
        <time>2020-02-28T13:26:24Z</time>
      </trkpt>
      <trkpt lat="44.48658" lon="4.64438">
        <ele>230.60000610352</ele>
        <time>2020-02-28T13:26:25Z</time>
      </trkpt>
      <trkpt lat="44.48654" lon="4.64436">
        <ele>231.39999389648</ele>
        <time>2020-02-28T13:26:29Z</time>
      </trkpt>
      <trkpt lat="44.48652" lon="4.64434">
        <ele>231.80000305176</ele>
        <time>2020-02-28T13:26:35Z</time>
      </trkpt>
      <trkpt lat="44.48649" lon="4.64432">
        <ele>232</ele>
        <time>2020-02-28T13:26:38Z</time>
      </trkpt>
      <trkpt lat="44.48648" lon="4.64431">
        <ele>231.80000305176</ele>
        <time>2020-02-28T13:26:39Z</time>
      </trkpt>
      <trkpt lat="44.48647" lon="4.6443">
        <ele>232</ele>
        <time>2020-02-28T13:26:40Z</time>
      </trkpt>
      <trkpt lat="44.48646" lon="4.64428">
        <ele>232</ele>
        <time>2020-02-28T13:26:41Z</time>
      </trkpt>
      <trkpt lat="44.48645" lon="4.64428">
        <ele>231.80000305176</ele>
        <time>2020-02-28T13:26:42Z</time>
      </trkpt>
      <trkpt lat="44.48644" lon="4.64427">
        <ele>232.19999694824</ele>
        <time>2020-02-28T13:26:43Z</time>
      </trkpt>
      <trkpt lat="44.48643" lon="4.64426">
        <ele>232.19999694824</ele>
        <time>2020-02-28T13:26:44Z</time>
      </trkpt>
      <trkpt lat="44.48642" lon="4.64425">
        <ele>232.39999389648</ele>
        <time>2020-02-28T13:26:45Z</time>
      </trkpt>
      <trkpt lat="44.48641" lon="4.64423">
        <ele>232.39999389648</ele>
        <time>2020-02-28T13:26:46Z</time>
      </trkpt>
      <trkpt lat="44.48639" lon="4.64422">
        <ele>232.80000305176</ele>
        <time>2020-02-28T13:26:47Z</time>
      </trkpt>
      <trkpt lat="44.48638" lon="4.64421">
        <ele>233</ele>
        <time>2020-02-28T13:26:48Z</time>
      </trkpt>
      <trkpt lat="44.48637" lon="4.6442">
        <ele>233.39999389648</ele>
        <time>2020-02-28T13:26:49Z</time>
      </trkpt>
      <trkpt lat="44.48636" lon="4.64419">
        <ele>233.80000305176</ele>
        <time>2020-02-28T13:26:50Z</time>
      </trkpt>
      <trkpt lat="44.48635" lon="4.64419">
        <ele>234</ele>
        <time>2020-02-28T13:26:51Z</time>
      </trkpt>
      <trkpt lat="44.48634" lon="4.64418">
        <ele>234.39999389648</ele>
        <time>2020-02-28T13:26:52Z</time>
      </trkpt>
      <trkpt lat="44.48633" lon="4.64416">
        <ele>234.39999389648</ele>
        <time>2020-02-28T13:26:53Z</time>
      </trkpt>
      <trkpt lat="44.48632" lon="4.64415">
        <ele>234.80000305176</ele>
        <time>2020-02-28T13:26:54Z</time>
      </trkpt>
      <trkpt lat="44.48631" lon="4.64414">
        <ele>235.19999694824</ele>
        <time>2020-02-28T13:26:55Z</time>
      </trkpt>
      <trkpt lat="44.48629" lon="4.64413">
        <ele>235.60000610352</ele>
        <time>2020-02-28T13:26:56Z</time>
      </trkpt>
      <trkpt lat="44.48629" lon="4.64412">
        <ele>235.80000305176</ele>
        <time>2020-02-28T13:26:57Z</time>
      </trkpt>
      <trkpt lat="44.48628" lon="4.6441">
        <ele>236</ele>
        <time>2020-02-28T13:26:58Z</time>
      </trkpt>
      <trkpt lat="44.48627" lon="4.64409">
        <ele>236.39999389648</ele>
        <time>2020-02-28T13:26:59Z</time>
      </trkpt>
      <trkpt lat="44.48626" lon="4.64408">
        <ele>236.39999389648</ele>
        <time>2020-02-28T13:27:00Z</time>
      </trkpt>
      <trkpt lat="44.48625" lon="4.64406">
        <ele>236.60000610352</ele>
        <time>2020-02-28T13:27:01Z</time>
      </trkpt>
      <trkpt lat="44.48624" lon="4.64405">
        <ele>236.60000610352</ele>
        <time>2020-02-28T13:27:02Z</time>
      </trkpt>
      <trkpt lat="44.48623" lon="4.64404">
        <ele>237</ele>
        <time>2020-02-28T13:27:03Z</time>
      </trkpt>
      <trkpt lat="44.48622" lon="4.64403">
        <ele>237.19999694824</ele>
        <time>2020-02-28T13:27:04Z</time>
      </trkpt>
      <trkpt lat="44.4862" lon="4.64402">
        <ele>237.39999389648</ele>
        <time>2020-02-28T13:27:05Z</time>
      </trkpt>
      <trkpt lat="44.48619" lon="4.64401">
        <ele>237.60000610352</ele>
        <time>2020-02-28T13:27:06Z</time>
      </trkpt>
      <trkpt lat="44.48618" lon="4.644">
        <ele>237.80000305176</ele>
        <time>2020-02-28T13:27:07Z</time>
      </trkpt>
      <trkpt lat="44.48617" lon="4.64399">
        <ele>238.19999694824</ele>
        <time>2020-02-28T13:27:08Z</time>
      </trkpt>
      <trkpt lat="44.48616" lon="4.64398">
        <ele>238.60000610352</ele>
        <time>2020-02-28T13:27:09Z</time>
      </trkpt>
      <trkpt lat="44.48614" lon="4.64396">
        <ele>238.80000305176</ele>
        <time>2020-02-28T13:27:10Z</time>
      </trkpt>
      <trkpt lat="44.48613" lon="4.64395">
        <ele>239</ele>
        <time>2020-02-28T13:27:11Z</time>
      </trkpt>
      <trkpt lat="44.48612" lon="4.64394">
        <ele>239.60000610352</ele>
        <time>2020-02-28T13:27:12Z</time>
      </trkpt>
      <trkpt lat="44.48611" lon="4.64393">
        <ele>239.80000305176</ele>
        <time>2020-02-28T13:27:13Z</time>
      </trkpt>
      <trkpt lat="44.4861" lon="4.64393">
        <ele>240</ele>
        <time>2020-02-28T13:27:14Z</time>
      </trkpt>
      <trkpt lat="44.48608" lon="4.64393">
        <ele>240.19999694824</ele>
        <time>2020-02-28T13:27:15Z</time>
      </trkpt>
      <trkpt lat="44.48607" lon="4.64391">
        <ele>240.39999389648</ele>
        <time>2020-02-28T13:27:16Z</time>
      </trkpt>
      <trkpt lat="44.48604" lon="4.6439">
        <ele>240.60000610352</ele>
        <time>2020-02-28T13:27:17Z</time>
      </trkpt>
      <trkpt lat="44.48602" lon="4.64388">
        <ele>240.80000305176</ele>
        <time>2020-02-28T13:27:18Z</time>
      </trkpt>
      <trkpt lat="44.48601" lon="4.64386">
        <ele>241.19999694824</ele>
        <time>2020-02-28T13:27:19Z</time>
      </trkpt>
      <trkpt lat="44.48601" lon="4.64385">
        <ele>241.39999389648</ele>
        <time>2020-02-28T13:27:20Z</time>
      </trkpt>
      <trkpt lat="44.48601" lon="4.64384">
        <ele>241.60000610352</ele>
        <time>2020-02-28T13:27:21Z</time>
      </trkpt>
      <trkpt lat="44.48601" lon="4.64383">
        <ele>241.60000610352</ele>
        <time>2020-02-28T13:27:22Z</time>
      </trkpt>
      <trkpt lat="44.48601" lon="4.64382">
        <ele>241.60000610352</ele>
        <time>2020-02-28T13:27:23Z</time>
      </trkpt>
      <trkpt lat="44.48601" lon="4.64382">
        <ele>242</ele>
        <time>2020-02-28T13:27:24Z</time>
      </trkpt>
      <trkpt lat="44.48601" lon="4.64381">
        <ele>242</ele>
        <time>2020-02-28T13:27:25Z</time>
      </trkpt>
      <trkpt lat="44.48601" lon="4.64381">
        <ele>242.19999694824</ele>
        <time>2020-02-28T13:27:26Z</time>
      </trkpt>
      <trkpt lat="44.48601" lon="4.64381">
        <ele>242.39999389648</ele>
        <time>2020-02-28T13:27:27Z</time>
      </trkpt>
      <trkpt lat="44.48602" lon="4.64381">
        <ele>242.60000610352</ele>
        <time>2020-02-28T13:27:28Z</time>
      </trkpt>
      <trkpt lat="44.48602" lon="4.6438">
        <ele>242.80000305176</ele>
        <time>2020-02-28T13:27:29Z</time>
      </trkpt>
      <trkpt lat="44.48602" lon="4.6438">
        <ele>243.19999694824</ele>
        <time>2020-02-28T13:27:30Z</time>
      </trkpt>
      <trkpt lat="44.48603" lon="4.6438">
        <ele>243.19999694824</ele>
        <time>2020-02-28T13:27:31Z</time>
      </trkpt>
      <trkpt lat="44.48603" lon="4.6438">
        <ele>243.39999389648</ele>
        <time>2020-02-28T13:27:32Z</time>
      </trkpt>
      <trkpt lat="44.48604" lon="4.64381">
        <ele>243.60000610352</ele>
        <time>2020-02-28T13:27:33Z</time>
      </trkpt>
      <trkpt lat="44.48605" lon="4.64381">
        <ele>243.60000610352</ele>
        <time>2020-02-28T13:27:34Z</time>
      </trkpt>
      <trkpt lat="44.48606" lon="4.64381">
        <ele>243.80000305176</ele>
        <time>2020-02-28T13:27:35Z</time>
      </trkpt>
      <trkpt lat="44.48606" lon="4.64381">
        <ele>244</ele>
        <time>2020-02-28T13:27:36Z</time>
      </trkpt>
      <trkpt lat="44.48607" lon="4.64381">
        <ele>244.19999694824</ele>
        <time>2020-02-28T13:27:37Z</time>
      </trkpt>
      <trkpt lat="44.48608" lon="4.64381">
        <ele>244.39999389648</ele>
        <time>2020-02-28T13:27:38Z</time>
      </trkpt>
      <trkpt lat="44.48609" lon="4.64381">
        <ele>244.39999389648</ele>
        <time>2020-02-28T13:27:39Z</time>
      </trkpt>
      <trkpt lat="44.48609" lon="4.6438">
        <ele>244.60000610352</ele>
        <time>2020-02-28T13:27:40Z</time>
      </trkpt>
      <trkpt lat="44.48609" lon="4.64379">
        <ele>244.60000610352</ele>
        <time>2020-02-28T13:27:41Z</time>
      </trkpt>
      <trkpt lat="44.4861" lon="4.64378">
        <ele>244.80000305176</ele>
        <time>2020-02-28T13:27:42Z</time>
      </trkpt>
      <trkpt lat="44.4861" lon="4.64377">
        <ele>244.80000305176</ele>
        <time>2020-02-28T13:27:43Z</time>
      </trkpt>
      <trkpt lat="44.4861" lon="4.64376">
        <ele>244.80000305176</ele>
        <time>2020-02-28T13:27:44Z</time>
      </trkpt>
      <trkpt lat="44.48609" lon="4.64375">
        <ele>244.80000305176</ele>
        <time>2020-02-28T13:27:45Z</time>
      </trkpt>
      <trkpt lat="44.48609" lon="4.64374">
        <ele>245</ele>
        <time>2020-02-28T13:27:46Z</time>
      </trkpt>
      <trkpt lat="44.48609" lon="4.64373">
        <ele>245</ele>
        <time>2020-02-28T13:27:47Z</time>
      </trkpt>
      <trkpt lat="44.48609" lon="4.64373">
        <ele>245.39999389648</ele>
        <time>2020-02-28T13:27:48Z</time>
      </trkpt>
      <trkpt lat="44.48608" lon="4.64372">
        <ele>245.39999389648</ele>
        <time>2020-02-28T13:27:49Z</time>
      </trkpt>
      <trkpt lat="44.48608" lon="4.64371">
        <ele>245.60000610352</ele>
        <time>2020-02-28T13:27:50Z</time>
      </trkpt>
      <trkpt lat="44.48608" lon="4.6437">
        <ele>245.60000610352</ele>
        <time>2020-02-28T13:27:51Z</time>
      </trkpt>
      <trkpt lat="44.48608" lon="4.64369">
        <ele>245.80000305176</ele>
        <time>2020-02-28T13:27:52Z</time>
      </trkpt>
      <trkpt lat="44.48608" lon="4.64368">
        <ele>246</ele>
        <time>2020-02-28T13:27:53Z</time>
      </trkpt>
      <trkpt lat="44.48607" lon="4.64367">
        <ele>246.19999694824</ele>
        <time>2020-02-28T13:27:54Z</time>
      </trkpt>
      <trkpt lat="44.48607" lon="4.64365">
        <ele>246.39999389648</ele>
        <time>2020-02-28T13:27:55Z</time>
      </trkpt>
      <trkpt lat="44.48607" lon="4.64364">
        <ele>246.60000610352</ele>
        <time>2020-02-28T13:27:56Z</time>
      </trkpt>
      <trkpt lat="44.48606" lon="4.64363">
        <ele>246.60000610352</ele>
        <time>2020-02-28T13:27:57Z</time>
      </trkpt>
      <trkpt lat="44.48606" lon="4.64361">
        <ele>247</ele>
        <time>2020-02-28T13:27:58Z</time>
      </trkpt>
      <trkpt lat="44.48606" lon="4.6436">
        <ele>247.19999694824</ele>
        <time>2020-02-28T13:27:59Z</time>
      </trkpt>
      <trkpt lat="44.48605" lon="4.64359">
        <ele>247.19999694824</ele>
        <time>2020-02-28T13:28:00Z</time>
      </trkpt>
      <trkpt lat="44.48605" lon="4.64358">
        <ele>247.60000610352</ele>
        <time>2020-02-28T13:28:01Z</time>
      </trkpt>
      <trkpt lat="44.48604" lon="4.64357">
        <ele>247.80000305176</ele>
        <time>2020-02-28T13:28:02Z</time>
      </trkpt>
      <trkpt lat="44.48604" lon="4.64356">
        <ele>248</ele>
        <time>2020-02-28T13:28:03Z</time>
      </trkpt>
      <trkpt lat="44.48603" lon="4.64355">
        <ele>248</ele>
        <time>2020-02-28T13:28:04Z</time>
      </trkpt>
      <trkpt lat="44.48603" lon="4.64354">
        <ele>248.39999389648</ele>
        <time>2020-02-28T13:28:05Z</time>
      </trkpt>
      <trkpt lat="44.48602" lon="4.64353">
        <ele>248.60000610352</ele>
        <time>2020-02-28T13:28:06Z</time>
      </trkpt>
      <trkpt lat="44.48601" lon="4.64352">
        <ele>249</ele>
        <time>2020-02-28T13:28:07Z</time>
      </trkpt>
      <trkpt lat="44.486" lon="4.64351">
        <ele>249.19999694824</ele>
        <time>2020-02-28T13:28:08Z</time>
      </trkpt>
      <trkpt lat="44.486" lon="4.6435">
        <ele>249.39999389648</ele>
        <time>2020-02-28T13:28:09Z</time>
      </trkpt>
      <trkpt lat="44.48599" lon="4.64348">
        <ele>249.60000610352</ele>
        <time>2020-02-28T13:28:10Z</time>
      </trkpt>
      <trkpt lat="44.48598" lon="4.64347">
        <ele>249.80000305176</ele>
        <time>2020-02-28T13:28:11Z</time>
      </trkpt>
      <trkpt lat="44.48597" lon="4.64346">
        <ele>250</ele>
        <time>2020-02-28T13:28:12Z</time>
      </trkpt>
      <trkpt lat="44.48597" lon="4.64345">
        <ele>250.19999694824</ele>
        <time>2020-02-28T13:28:13Z</time>
      </trkpt>
      <trkpt lat="44.48596" lon="4.64344">
        <ele>250.60000610352</ele>
        <time>2020-02-28T13:28:14Z</time>
      </trkpt>
      <trkpt lat="44.48595" lon="4.64343">
        <ele>250.80000305176</ele>
        <time>2020-02-28T13:28:15Z</time>
      </trkpt>
      <trkpt lat="44.48595" lon="4.64342">
        <ele>250.80000305176</ele>
        <time>2020-02-28T13:28:16Z</time>
      </trkpt>
      <trkpt lat="44.48594" lon="4.64342">
        <ele>251.19999694824</ele>
        <time>2020-02-28T13:28:17Z</time>
      </trkpt>
      <trkpt lat="44.48593" lon="4.6434">
        <ele>251.39999389648</ele>
        <time>2020-02-28T13:28:18Z</time>
      </trkpt>
      <trkpt lat="44.48593" lon="4.6434">
        <ele>251.80000305176</ele>
        <time>2020-02-28T13:28:19Z</time>
      </trkpt>
      <trkpt lat="44.48592" lon="4.64339">
        <ele>252</ele>
        <time>2020-02-28T13:28:20Z</time>
      </trkpt>
      <trkpt lat="44.4859" lon="4.64337">
        <ele>253.19999694824</ele>
        <time>2020-02-28T13:28:27Z</time>
      </trkpt>
      <trkpt lat="44.48588" lon="4.64334">
        <ele>254</ele>
        <time>2020-02-28T13:28:30Z</time>
      </trkpt>
      <trkpt lat="44.48587" lon="4.64333">
        <ele>254</ele>
        <time>2020-02-28T13:28:31Z</time>
      </trkpt>
      <trkpt lat="44.48586" lon="4.64332">
        <ele>254</ele>
        <time>2020-02-28T13:28:32Z</time>
      </trkpt>
      <trkpt lat="44.48586" lon="4.64332">
        <ele>254</ele>
        <time>2020-02-28T13:28:33Z</time>
      </trkpt>
      <trkpt lat="44.48585" lon="4.64332">
        <ele>254</ele>
        <time>2020-02-28T13:28:34Z</time>
      </trkpt>
      <trkpt lat="44.48583" lon="4.6433">
        <ele>254.60000610352</ele>
        <time>2020-02-28T13:28:40Z</time>
      </trkpt>
      <trkpt lat="44.48582" lon="4.6433">
        <ele>254.80000305176</ele>
        <time>2020-02-28T13:28:41Z</time>
      </trkpt>
      <trkpt lat="44.48579" lon="4.64326">
        <ele>255.19999694824</ele>
        <time>2020-02-28T13:28:48Z</time>
      </trkpt>
      <trkpt lat="44.48579" lon="4.64326">
        <ele>255.19999694824</ele>
        <time>2020-02-28T13:28:49Z</time>
      </trkpt>
      <trkpt lat="44.48578" lon="4.64325">
        <ele>255.39999389648</ele>
        <time>2020-02-28T13:28:50Z</time>
      </trkpt>
      <trkpt lat="44.48577" lon="4.64323">
        <ele>255.39999389648</ele>
        <time>2020-02-28T13:28:51Z</time>
      </trkpt>
      <trkpt lat="44.48576" lon="4.64322">
        <ele>255.60000610352</ele>
        <time>2020-02-28T13:28:52Z</time>
      </trkpt>
      <trkpt lat="44.48575" lon="4.64321">
        <ele>255.60000610352</ele>
        <time>2020-02-28T13:28:53Z</time>
      </trkpt>
      <trkpt lat="44.48574" lon="4.64319">
        <ele>255.60000610352</ele>
        <time>2020-02-28T13:28:54Z</time>
      </trkpt>
      <trkpt lat="44.48573" lon="4.64318">
        <ele>255.60000610352</ele>
        <time>2020-02-28T13:28:55Z</time>
      </trkpt>
      <trkpt lat="44.48572" lon="4.64317">
        <ele>255.60000610352</ele>
        <time>2020-02-28T13:28:56Z</time>
      </trkpt>
      <trkpt lat="44.48571" lon="4.64316">
        <ele>255.80000305176</ele>
        <time>2020-02-28T13:28:57Z</time>
      </trkpt>
      <trkpt lat="44.4857" lon="4.64315">
        <ele>255.80000305176</ele>
        <time>2020-02-28T13:28:58Z</time>
      </trkpt>
      <trkpt lat="44.4857" lon="4.64314">
        <ele>256</ele>
        <time>2020-02-28T13:28:59Z</time>
      </trkpt>
      <trkpt lat="44.48569" lon="4.64312">
        <ele>256.20001220703</ele>
        <time>2020-02-28T13:29:00Z</time>
      </trkpt>
      <trkpt lat="44.48568" lon="4.64311">
        <ele>256.60000610352</ele>
        <time>2020-02-28T13:29:01Z</time>
      </trkpt>
      <trkpt lat="44.48567" lon="4.6431">
        <ele>257</ele>
        <time>2020-02-28T13:29:02Z</time>
      </trkpt>
      <trkpt lat="44.48566" lon="4.64308">
        <ele>257.39999389648</ele>
        <time>2020-02-28T13:29:03Z</time>
      </trkpt>
      <trkpt lat="44.48565" lon="4.64307">
        <ele>257.60000610352</ele>
        <time>2020-02-28T13:29:04Z</time>
      </trkpt>
      <trkpt lat="44.48564" lon="4.64305">
        <ele>258</ele>
        <time>2020-02-28T13:29:05Z</time>
      </trkpt>
      <trkpt lat="44.48563" lon="4.64304">
        <ele>258.39999389648</ele>
        <time>2020-02-28T13:29:06Z</time>
      </trkpt>
      <trkpt lat="44.48562" lon="4.64302">
        <ele>258.39999389648</ele>
        <time>2020-02-28T13:29:07Z</time>
      </trkpt>
      <trkpt lat="44.48561" lon="4.64301">
        <ele>258.60000610352</ele>
        <time>2020-02-28T13:29:08Z</time>
      </trkpt>
      <trkpt lat="44.4856" lon="4.64299">
        <ele>259.20001220703</ele>
        <time>2020-02-28T13:29:09Z</time>
      </trkpt>
      <trkpt lat="44.48559" lon="4.64298">
        <ele>259.39999389648</ele>
        <time>2020-02-28T13:29:10Z</time>
      </trkpt>
      <trkpt lat="44.48558" lon="4.64297">
        <ele>260</ele>
        <time>2020-02-28T13:29:11Z</time>
      </trkpt>
      <trkpt lat="44.48557" lon="4.64296">
        <ele>260.20001220703</ele>
        <time>2020-02-28T13:29:12Z</time>
      </trkpt>
      <trkpt lat="44.48557" lon="4.64295">
        <ele>260.79998779297</ele>
        <time>2020-02-28T13:29:13Z</time>
      </trkpt>
      <trkpt lat="44.48556" lon="4.64293">
        <ele>261.20001220703</ele>
        <time>2020-02-28T13:29:14Z</time>
      </trkpt>
      <trkpt lat="44.48555" lon="4.64292">
        <ele>261.39999389648</ele>
        <time>2020-02-28T13:29:15Z</time>
      </trkpt>
      <trkpt lat="44.48554" lon="4.6429">
        <ele>261.79998779297</ele>
        <time>2020-02-28T13:29:16Z</time>
      </trkpt>
      <trkpt lat="44.48554" lon="4.64289">
        <ele>262.20001220703</ele>
        <time>2020-02-28T13:29:17Z</time>
      </trkpt>
      <trkpt lat="44.48552" lon="4.64287">
        <ele>262.39999389648</ele>
        <time>2020-02-28T13:29:18Z</time>
      </trkpt>
      <trkpt lat="44.48552" lon="4.64285">
        <ele>262.60000610352</ele>
        <time>2020-02-28T13:29:19Z</time>
      </trkpt>
      <trkpt lat="44.48551" lon="4.64284">
        <ele>263</ele>
        <time>2020-02-28T13:29:20Z</time>
      </trkpt>
      <trkpt lat="44.4855" lon="4.64283">
        <ele>263</ele>
        <time>2020-02-28T13:29:21Z</time>
      </trkpt>
      <trkpt lat="44.48549" lon="4.64282">
        <ele>263.60000610352</ele>
        <time>2020-02-28T13:29:22Z</time>
      </trkpt>
      <trkpt lat="44.48548" lon="4.64281">
        <ele>263.60000610352</ele>
        <time>2020-02-28T13:29:23Z</time>
      </trkpt>
      <trkpt lat="44.48548" lon="4.6428">
        <ele>264.20001220703</ele>
        <time>2020-02-28T13:29:24Z</time>
      </trkpt>
      <trkpt lat="44.48547" lon="4.6428">
        <ele>264.60000610352</ele>
        <time>2020-02-28T13:29:25Z</time>
      </trkpt>
      <trkpt lat="44.48547" lon="4.6428">
        <ele>265</ele>
        <time>2020-02-28T13:29:26Z</time>
      </trkpt>
      <trkpt lat="44.48545" lon="4.64278">
        <ele>266.79998779297</ele>
        <time>2020-02-28T13:29:32Z</time>
      </trkpt>
      <trkpt lat="44.48543" lon="4.64275">
        <ele>267.20001220703</ele>
        <time>2020-02-28T13:29:46Z</time>
      </trkpt>
      <trkpt lat="44.48543" lon="4.64275">
        <ele>267.20001220703</ele>
        <time>2020-02-28T13:29:54Z</time>
      </trkpt>
      <trkpt lat="44.48543" lon="4.64274">
        <ele>267.39999389648</ele>
        <time>2020-02-28T13:30:01Z</time>
      </trkpt>
      <trkpt lat="44.48542" lon="4.64272">
        <ele>267.39999389648</ele>
        <time>2020-02-28T13:30:04Z</time>
      </trkpt>
      <trkpt lat="44.48542" lon="4.64272">
        <ele>267.20001220703</ele>
        <time>2020-02-28T13:30:05Z</time>
      </trkpt>
      <trkpt lat="44.48541" lon="4.64271">
        <ele>267.39999389648</ele>
        <time>2020-02-28T13:30:08Z</time>
      </trkpt>
      <trkpt lat="44.48539" lon="4.6427">
        <ele>267.39999389648</ele>
        <time>2020-02-28T13:30:11Z</time>
      </trkpt>
      <trkpt lat="44.48539" lon="4.64269">
        <ele>267.60000610352</ele>
        <time>2020-02-28T13:30:12Z</time>
      </trkpt>
      <trkpt lat="44.48538" lon="4.64269">
        <ele>268</ele>
        <time>2020-02-28T13:30:16Z</time>
      </trkpt>
      <trkpt lat="44.48537" lon="4.64268">
        <ele>268.39999389648</ele>
        <time>2020-02-28T13:30:21Z</time>
      </trkpt>
      <trkpt lat="44.48537" lon="4.64267">
        <ele>268.39999389648</ele>
        <time>2020-02-28T13:30:22Z</time>
      </trkpt>
      <trkpt lat="44.48537" lon="4.64266">
        <ele>268.60000610352</ele>
        <time>2020-02-28T13:30:23Z</time>
      </trkpt>
      <trkpt lat="44.48536" lon="4.64265">
        <ele>268.60000610352</ele>
        <time>2020-02-28T13:30:24Z</time>
      </trkpt>
      <trkpt lat="44.48536" lon="4.64265">
        <ele>268.39999389648</ele>
        <time>2020-02-28T13:30:25Z</time>
      </trkpt>
      <trkpt lat="44.48536" lon="4.64264">
        <ele>268.60000610352</ele>
        <time>2020-02-28T13:30:27Z</time>
      </trkpt>
      <trkpt lat="44.48535" lon="4.64263">
        <ele>268.60000610352</ele>
        <time>2020-02-28T13:30:28Z</time>
      </trkpt>
      <trkpt lat="44.48534" lon="4.64262">
        <ele>268.60000610352</ele>
        <time>2020-02-28T13:30:29Z</time>
      </trkpt>
      <trkpt lat="44.48534" lon="4.64261">
        <ele>268.79998779297</ele>
        <time>2020-02-28T13:30:30Z</time>
      </trkpt>
      <trkpt lat="44.48534" lon="4.64259">
        <ele>268.79998779297</ele>
        <time>2020-02-28T13:30:31Z</time>
      </trkpt>
      <trkpt lat="44.48534" lon="4.64258">
        <ele>268.79998779297</ele>
        <time>2020-02-28T13:30:32Z</time>
      </trkpt>
      <trkpt lat="44.48533" lon="4.64257">
        <ele>269</ele>
        <time>2020-02-28T13:30:33Z</time>
      </trkpt>
      <trkpt lat="44.48532" lon="4.64255">
        <ele>269.20001220703</ele>
        <time>2020-02-28T13:30:34Z</time>
      </trkpt>
      <trkpt lat="44.48531" lon="4.64253">
        <ele>269.39999389648</ele>
        <time>2020-02-28T13:30:35Z</time>
      </trkpt>
      <trkpt lat="44.48531" lon="4.64251">
        <ele>269.39999389648</ele>
        <time>2020-02-28T13:30:36Z</time>
      </trkpt>
      <trkpt lat="44.4853" lon="4.64249">
        <ele>269.60000610352</ele>
        <time>2020-02-28T13:30:37Z</time>
      </trkpt>
      <trkpt lat="44.4853" lon="4.64247">
        <ele>269.79998779297</ele>
        <time>2020-02-28T13:30:38Z</time>
      </trkpt>
      <trkpt lat="44.4853" lon="4.64245">
        <ele>270</ele>
        <time>2020-02-28T13:30:39Z</time>
      </trkpt>
      <trkpt lat="44.4853" lon="4.64243">
        <ele>270.60000610352</ele>
        <time>2020-02-28T13:30:40Z</time>
      </trkpt>
      <trkpt lat="44.4853" lon="4.64241">
        <ele>271</ele>
        <time>2020-02-28T13:30:41Z</time>
      </trkpt>
      <trkpt lat="44.4853" lon="4.64238">
        <ele>271.39999389648</ele>
        <time>2020-02-28T13:30:42Z</time>
      </trkpt>
      <trkpt lat="44.4853" lon="4.64236">
        <ele>272</ele>
        <time>2020-02-28T13:30:43Z</time>
      </trkpt>
      <trkpt lat="44.48529" lon="4.64234">
        <ele>272.60000610352</ele>
        <time>2020-02-28T13:30:44Z</time>
      </trkpt>
      <trkpt lat="44.48529" lon="4.64232">
        <ele>273</ele>
        <time>2020-02-28T13:30:45Z</time>
      </trkpt>
      <trkpt lat="44.48529" lon="4.64231">
        <ele>273.39999389648</ele>
        <time>2020-02-28T13:30:46Z</time>
      </trkpt>
      <trkpt lat="44.48528" lon="4.64229">
        <ele>273.79998779297</ele>
        <time>2020-02-28T13:30:47Z</time>
      </trkpt>
      <trkpt lat="44.48528" lon="4.64228">
        <ele>274.39999389648</ele>
        <time>2020-02-28T13:30:48Z</time>
      </trkpt>
      <trkpt lat="44.48527" lon="4.64226">
        <ele>274.79998779297</ele>
        <time>2020-02-28T13:30:49Z</time>
      </trkpt>
      <trkpt lat="44.48526" lon="4.64225">
        <ele>275.20001220703</ele>
        <time>2020-02-28T13:30:50Z</time>
      </trkpt>
      <trkpt lat="44.48525" lon="4.64223">
        <ele>275.39999389648</ele>
        <time>2020-02-28T13:30:51Z</time>
      </trkpt>
      <trkpt lat="44.48523" lon="4.6422">
        <ele>275.39999389648</ele>
        <time>2020-02-28T13:30:52Z</time>
      </trkpt>
      <trkpt lat="44.48522" lon="4.64218">
        <ele>275.79998779297</ele>
        <time>2020-02-28T13:30:53Z</time>
      </trkpt>
      <trkpt lat="44.48522" lon="4.64216">
        <ele>276.20001220703</ele>
        <time>2020-02-28T13:30:54Z</time>
      </trkpt>
      <trkpt lat="44.48522" lon="4.64215">
        <ele>276.39999389648</ele>
        <time>2020-02-28T13:30:55Z</time>
      </trkpt>
      <trkpt lat="44.48521" lon="4.64213">
        <ele>276.79998779297</ele>
        <time>2020-02-28T13:30:56Z</time>
      </trkpt>
      <trkpt lat="44.48521" lon="4.64212">
        <ele>276.79998779297</ele>
        <time>2020-02-28T13:30:57Z</time>
      </trkpt>
      <trkpt lat="44.4852" lon="4.64211">
        <ele>277.20001220703</ele>
        <time>2020-02-28T13:30:58Z</time>
      </trkpt>
      <trkpt lat="44.4852" lon="4.64209">
        <ele>277.39999389648</ele>
        <time>2020-02-28T13:30:59Z</time>
      </trkpt>
      <trkpt lat="44.48517" lon="4.64207">
        <ele>278.60000610352</ele>
        <time>2020-02-28T13:31:03Z</time>
      </trkpt>
      <trkpt lat="44.48516" lon="4.64206">
        <ele>279</ele>
        <time>2020-02-28T13:31:04Z</time>
      </trkpt>
      <trkpt lat="44.48515" lon="4.64205">
        <ele>279</ele>
        <time>2020-02-28T13:31:05Z</time>
      </trkpt>
      <trkpt lat="44.48514" lon="4.64204">
        <ele>279.20001220703</ele>
        <time>2020-02-28T13:31:06Z</time>
      </trkpt>
      <trkpt lat="44.48514" lon="4.64203">
        <ele>279.39999389648</ele>
        <time>2020-02-28T13:31:07Z</time>
      </trkpt>
      <trkpt lat="44.48514" lon="4.64203">
        <ele>279.39999389648</ele>
        <time>2020-02-28T13:31:08Z</time>
      </trkpt>
      <trkpt lat="44.48513" lon="4.64202">
        <ele>279.60000610352</ele>
        <time>2020-02-28T13:31:11Z</time>
      </trkpt>
      <trkpt lat="44.48511" lon="4.64201">
        <ele>280</ele>
        <time>2020-02-28T13:31:16Z</time>
      </trkpt>
      <trkpt lat="44.4851" lon="4.64197">
        <ele>280</ele>
        <time>2020-02-28T13:31:19Z</time>
      </trkpt>
      <trkpt lat="44.4851" lon="4.64197">
        <ele>280.20001220703</ele>
        <time>2020-02-28T13:31:20Z</time>
      </trkpt>
      <trkpt lat="44.48509" lon="4.64196">
        <ele>280.20001220703</ele>
        <time>2020-02-28T13:31:21Z</time>
      </trkpt>
      <trkpt lat="44.48509" lon="4.64194">
        <ele>280</ele>
        <time>2020-02-28T13:31:23Z</time>
      </trkpt>
      <trkpt lat="44.48508" lon="4.64194">
        <ele>280.60000610352</ele>
        <time>2020-02-28T13:31:29Z</time>
      </trkpt>
      <trkpt lat="44.48508" lon="4.64194">
        <ele>280.79998779297</ele>
        <time>2020-02-28T13:31:31Z</time>
      </trkpt>
      <trkpt lat="44.48508" lon="4.64193">
        <ele>280.79998779297</ele>
        <time>2020-02-28T13:31:33Z</time>
      </trkpt>
      <trkpt lat="44.48506" lon="4.64189">
        <ele>281</ele>
        <time>2020-02-28T13:31:37Z</time>
      </trkpt>
      <trkpt lat="44.48506" lon="4.64188">
        <ele>280.79998779297</ele>
        <time>2020-02-28T13:31:38Z</time>
      </trkpt>
      <trkpt lat="44.48506" lon="4.64187">
        <ele>280.79998779297</ele>
        <time>2020-02-28T13:31:39Z</time>
      </trkpt>
      <trkpt lat="44.48506" lon="4.64186">
        <ele>281</ele>
        <time>2020-02-28T13:31:40Z</time>
      </trkpt>
      <trkpt lat="44.48505" lon="4.64185">
        <ele>281.20001220703</ele>
        <time>2020-02-28T13:31:41Z</time>
      </trkpt>
      <trkpt lat="44.48505" lon="4.64184">
        <ele>281.20001220703</ele>
        <time>2020-02-28T13:31:42Z</time>
      </trkpt>
      <trkpt lat="44.48505" lon="4.64183">
        <ele>281.20001220703</ele>
        <time>2020-02-28T13:31:43Z</time>
      </trkpt>
      <trkpt lat="44.48505" lon="4.64182">
        <ele>281.39999389648</ele>
        <time>2020-02-28T13:31:44Z</time>
      </trkpt>
      <trkpt lat="44.48505" lon="4.64181">
        <ele>281.60000610352</ele>
        <time>2020-02-28T13:31:45Z</time>
      </trkpt>
      <trkpt lat="44.48505" lon="4.64179">
        <ele>281.79998779297</ele>
        <time>2020-02-28T13:31:46Z</time>
      </trkpt>
      <trkpt lat="44.48505" lon="4.64179">
        <ele>282.20001220703</ele>
        <time>2020-02-28T13:31:47Z</time>
      </trkpt>
      <trkpt lat="44.48505" lon="4.64178">
        <ele>282.39999389648</ele>
        <time>2020-02-28T13:31:48Z</time>
      </trkpt>
      <trkpt lat="44.48504" lon="4.64177">
        <ele>282.39999389648</ele>
        <time>2020-02-28T13:31:49Z</time>
      </trkpt>
      <trkpt lat="44.48504" lon="4.64176">
        <ele>282.60000610352</ele>
        <time>2020-02-28T13:31:50Z</time>
      </trkpt>
      <trkpt lat="44.48504" lon="4.64175">
        <ele>282.79998779297</ele>
        <time>2020-02-28T13:31:51Z</time>
      </trkpt>
      <trkpt lat="44.48504" lon="4.64174">
        <ele>284</ele>
        <time>2020-02-28T13:31:57Z</time>
      </trkpt>
      <trkpt lat="44.48503" lon="4.64174">
        <ele>284.79998779297</ele>
        <time>2020-02-28T13:32:12Z</time>
      </trkpt>
      <trkpt lat="44.48503" lon="4.64174">
        <ele>285</ele>
        <time>2020-02-28T13:32:14Z</time>
      </trkpt>
      <trkpt lat="44.48503" lon="4.64173">
        <ele>284.79998779297</ele>
        <time>2020-02-28T13:32:18Z</time>
      </trkpt>
      <trkpt lat="44.48503" lon="4.6417">
        <ele>285.20001220703</ele>
        <time>2020-02-28T13:32:29Z</time>
      </trkpt>
      <trkpt lat="44.48502" lon="4.64169">
        <ele>285.20001220703</ele>
        <time>2020-02-28T13:32:30Z</time>
      </trkpt>
      <trkpt lat="44.48502" lon="4.64166">
        <ele>285.20001220703</ele>
        <time>2020-02-28T13:32:32Z</time>
      </trkpt>
      <trkpt lat="44.48501" lon="4.64164">
        <ele>285.39999389648</ele>
        <time>2020-02-28T13:32:33Z</time>
      </trkpt>
      <trkpt lat="44.48501" lon="4.64162">
        <ele>285.39999389648</ele>
        <time>2020-02-28T13:32:34Z</time>
      </trkpt>
      <trkpt lat="44.485" lon="4.6416">
        <ele>285.39999389648</ele>
        <time>2020-02-28T13:32:35Z</time>
      </trkpt>
      <trkpt lat="44.48499" lon="4.64158">
        <ele>285.39999389648</ele>
        <time>2020-02-28T13:32:36Z</time>
      </trkpt>
      <trkpt lat="44.48499" lon="4.64156">
        <ele>285.39999389648</ele>
        <time>2020-02-28T13:32:37Z</time>
      </trkpt>
      <trkpt lat="44.48499" lon="4.64154">
        <ele>285.39999389648</ele>
        <time>2020-02-28T13:32:38Z</time>
      </trkpt>
      <trkpt lat="44.48498" lon="4.64152">
        <ele>285.39999389648</ele>
        <time>2020-02-28T13:32:39Z</time>
      </trkpt>
      <trkpt lat="44.48497" lon="4.64151">
        <ele>285.79998779297</ele>
        <time>2020-02-28T13:32:40Z</time>
      </trkpt>
      <trkpt lat="44.48497" lon="4.64149">
        <ele>286</ele>
        <time>2020-02-28T13:32:41Z</time>
      </trkpt>
      <trkpt lat="44.48497" lon="4.64147">
        <ele>286.20001220703</ele>
        <time>2020-02-28T13:32:42Z</time>
      </trkpt>
      <trkpt lat="44.48497" lon="4.64144">
        <ele>286.60000610352</ele>
        <time>2020-02-28T13:32:43Z</time>
      </trkpt>
      <trkpt lat="44.48497" lon="4.64143">
        <ele>287</ele>
        <time>2020-02-28T13:32:44Z</time>
      </trkpt>
      <trkpt lat="44.48497" lon="4.6414">
        <ele>287.20001220703</ele>
        <time>2020-02-28T13:32:45Z</time>
      </trkpt>
      <trkpt lat="44.48497" lon="4.64138">
        <ele>287.39999389648</ele>
        <time>2020-02-28T13:32:46Z</time>
      </trkpt>
      <trkpt lat="44.48497" lon="4.64136">
        <ele>287.79998779297</ele>
        <time>2020-02-28T13:32:47Z</time>
      </trkpt>
      <trkpt lat="44.48498" lon="4.64134">
        <ele>288.20001220703</ele>
        <time>2020-02-28T13:32:48Z</time>
      </trkpt>
      <trkpt lat="44.48499" lon="4.64132">
        <ele>288.20001220703</ele>
        <time>2020-02-28T13:32:49Z</time>
      </trkpt>
      <trkpt lat="44.48499" lon="4.64131">
        <ele>288.39999389648</ele>
        <time>2020-02-28T13:32:50Z</time>
      </trkpt>
      <trkpt lat="44.48499" lon="4.6413">
        <ele>289.79998779297</ele>
        <time>2020-02-28T13:32:54Z</time>
      </trkpt>
      <trkpt lat="44.48499" lon="4.64129">
        <ele>290</ele>
        <time>2020-02-28T13:32:55Z</time>
      </trkpt>
      <trkpt lat="44.48499" lon="4.64128">
        <ele>290</ele>
        <time>2020-02-28T13:32:56Z</time>
      </trkpt>
      <trkpt lat="44.48499" lon="4.64127">
        <ele>290.60000610352</ele>
        <time>2020-02-28T13:32:57Z</time>
      </trkpt>
      <trkpt lat="44.48499" lon="4.64126">
        <ele>291.39999389648</ele>
        <time>2020-02-28T13:33:02Z</time>
      </trkpt>
      <trkpt lat="44.48499" lon="4.64126">
        <ele>292.39999389648</ele>
        <time>2020-02-28T13:33:12Z</time>
      </trkpt>
      <trkpt lat="44.48499" lon="4.64125">
        <ele>292.60000610352</ele>
        <time>2020-02-28T13:33:13Z</time>
      </trkpt>
      <trkpt lat="44.48499" lon="4.64124">
        <ele>292.39999389648</ele>
        <time>2020-02-28T13:33:14Z</time>
      </trkpt>
      <trkpt lat="44.48499" lon="4.64123">
        <ele>292.60000610352</ele>
        <time>2020-02-28T13:33:15Z</time>
      </trkpt>
      <trkpt lat="44.48499" lon="4.64121">
        <ele>292.60000610352</ele>
        <time>2020-02-28T13:33:16Z</time>
      </trkpt>
      <trkpt lat="44.485" lon="4.6412">
        <ele>292.60000610352</ele>
        <time>2020-02-28T13:33:17Z</time>
      </trkpt>
      <trkpt lat="44.485" lon="4.64119">
        <ele>292.60000610352</ele>
        <time>2020-02-28T13:33:18Z</time>
      </trkpt>
      <trkpt lat="44.485" lon="4.64118">
        <ele>292.60000610352</ele>
        <time>2020-02-28T13:33:19Z</time>
      </trkpt>
      <trkpt lat="44.485" lon="4.64118">
        <ele>292.60000610352</ele>
        <time>2020-02-28T13:33:22Z</time>
      </trkpt>
      <trkpt lat="44.485" lon="4.64117">
        <ele>293.39999389648</ele>
        <time>2020-02-28T13:33:27Z</time>
      </trkpt>
      <trkpt lat="44.48501" lon="4.64115">
        <ele>294</ele>
        <time>2020-02-28T13:33:30Z</time>
      </trkpt>
      <trkpt lat="44.48502" lon="4.64114">
        <ele>294</ele>
        <time>2020-02-28T13:33:31Z</time>
      </trkpt>
      <trkpt lat="44.48502" lon="4.64113">
        <ele>294</ele>
        <time>2020-02-28T13:33:32Z</time>
      </trkpt>
      <trkpt lat="44.48503" lon="4.64112">
        <ele>294.20001220703</ele>
        <time>2020-02-28T13:33:36Z</time>
      </trkpt>
      <trkpt lat="44.48503" lon="4.64112">
        <ele>294.20001220703</ele>
        <time>2020-02-28T13:33:37Z</time>
      </trkpt>
      <trkpt lat="44.48504" lon="4.64111">
        <ele>294.39999389648</ele>
        <time>2020-02-28T13:33:39Z</time>
      </trkpt>
      <trkpt lat="44.48505" lon="4.6411">
        <ele>294.79998779297</ele>
        <time>2020-02-28T13:33:40Z</time>
      </trkpt>
      <trkpt lat="44.48506" lon="4.6411">
        <ele>294.79998779297</ele>
        <time>2020-02-28T13:33:41Z</time>
      </trkpt>
      <trkpt lat="44.48506" lon="4.64109">
        <ele>295</ele>
        <time>2020-02-28T13:33:42Z</time>
      </trkpt>
      <trkpt lat="44.48507" lon="4.64109">
        <ele>295.20001220703</ele>
        <time>2020-02-28T13:33:43Z</time>
      </trkpt>
      <trkpt lat="44.48508" lon="4.64109">
        <ele>295.20001220703</ele>
        <time>2020-02-28T13:33:44Z</time>
      </trkpt>
      <trkpt lat="44.48508" lon="4.64109">
        <ele>295.39999389648</ele>
        <time>2020-02-28T13:33:45Z</time>
      </trkpt>
      <trkpt lat="44.48509" lon="4.64109">
        <ele>295.39999389648</ele>
        <time>2020-02-28T13:33:46Z</time>
      </trkpt>
      <trkpt lat="44.4851" lon="4.6411">
        <ele>295.39999389648</ele>
        <time>2020-02-28T13:33:47Z</time>
      </trkpt>
      <trkpt lat="44.48511" lon="4.6411">
        <ele>295.60000610352</ele>
        <time>2020-02-28T13:33:48Z</time>
      </trkpt>
      <trkpt lat="44.48512" lon="4.6411">
        <ele>295.79998779297</ele>
        <time>2020-02-28T13:33:49Z</time>
      </trkpt>
      <trkpt lat="44.48512" lon="4.64111">
        <ele>296.20001220703</ele>
        <time>2020-02-28T13:33:50Z</time>
      </trkpt>
      <trkpt lat="44.48513" lon="4.64111">
        <ele>296.60000610352</ele>
        <time>2020-02-28T13:33:51Z</time>
      </trkpt>
      <trkpt lat="44.48514" lon="4.64112">
        <ele>296.79998779297</ele>
        <time>2020-02-28T13:33:52Z</time>
      </trkpt>
      <trkpt lat="44.48515" lon="4.64112">
        <ele>296.79998779297</ele>
        <time>2020-02-28T13:33:53Z</time>
      </trkpt>
      <trkpt lat="44.48515" lon="4.64112">
        <ele>297.20001220703</ele>
        <time>2020-02-28T13:33:54Z</time>
      </trkpt>
      <trkpt lat="44.48516" lon="4.64111">
        <ele>297.20001220703</ele>
        <time>2020-02-28T13:33:55Z</time>
      </trkpt>
      <trkpt lat="44.48517" lon="4.64111">
        <ele>297.39999389648</ele>
        <time>2020-02-28T13:33:56Z</time>
      </trkpt>
      <trkpt lat="44.48517" lon="4.6411">
        <ele>297.60000610352</ele>
        <time>2020-02-28T13:33:58Z</time>
      </trkpt>
      <trkpt lat="44.48517" lon="4.6411">
        <ele>298.39999389648</ele>
        <time>2020-02-28T13:34:06Z</time>
      </trkpt>
      <trkpt lat="44.48517" lon="4.6411">
        <ele>298.60000610352</ele>
        <time>2020-02-28T13:34:10Z</time>
      </trkpt>
      <trkpt lat="44.48517" lon="4.6411">
        <ele>299.20001220703</ele>
        <time>2020-02-28T13:34:31Z</time>
      </trkpt>
      <trkpt lat="44.48518" lon="4.6411">
        <ele>299.20001220703</ele>
        <time>2020-02-28T13:34:33Z</time>
      </trkpt>
      <trkpt lat="44.48518" lon="4.6411">
        <ele>298.60000610352</ele>
        <time>2020-02-28T13:34:42Z</time>
      </trkpt>
      <trkpt lat="44.48518" lon="4.6411">
        <ele>298.39999389648</ele>
        <time>2020-02-28T13:34:51Z</time>
      </trkpt>
      <trkpt lat="44.48518" lon="4.64111">
        <ele>298.39999389648</ele>
        <time>2020-02-28T13:35:25Z</time>
      </trkpt>
      <trkpt lat="44.48518" lon="4.6411">
        <ele>298.20001220703</ele>
        <time>2020-02-28T13:35:39Z</time>
      </trkpt>
      <trkpt lat="44.48518" lon="4.64109">
        <ele>299.20001220703</ele>
        <time>2020-02-28T13:35:53Z</time>
      </trkpt>
      <trkpt lat="44.48518" lon="4.64108">
        <ele>299.60000610352</ele>
        <time>2020-02-28T13:36:05Z</time>
      </trkpt>
      <trkpt lat="44.48518" lon="4.64108">
        <ele>299.39999389648</ele>
        <time>2020-02-28T13:36:06Z</time>
      </trkpt>
      <trkpt lat="44.48518" lon="4.64107">
        <ele>299.39999389648</ele>
        <time>2020-02-28T13:36:07Z</time>
      </trkpt>
      <trkpt lat="44.48518" lon="4.64106">
        <ele>299.60000610352</ele>
        <time>2020-02-28T13:36:08Z</time>
      </trkpt>
      <trkpt lat="44.48518" lon="4.64104">
        <ele>299.39999389648</ele>
        <time>2020-02-28T13:36:09Z</time>
      </trkpt>
      <trkpt lat="44.48518" lon="4.64103">
        <ele>299.60000610352</ele>
        <time>2020-02-28T13:36:10Z</time>
      </trkpt>
      <trkpt lat="44.48518" lon="4.64101">
        <ele>299.60000610352</ele>
        <time>2020-02-28T13:36:11Z</time>
      </trkpt>
      <trkpt lat="44.48518" lon="4.641">
        <ele>299.60000610352</ele>
        <time>2020-02-28T13:36:12Z</time>
      </trkpt>
      <trkpt lat="44.48517" lon="4.64098">
        <ele>299.60000610352</ele>
        <time>2020-02-28T13:36:13Z</time>
      </trkpt>
      <trkpt lat="44.48517" lon="4.64096">
        <ele>299.60000610352</ele>
        <time>2020-02-28T13:36:14Z</time>
      </trkpt>
      <trkpt lat="44.48516" lon="4.64094">
        <ele>299.39999389648</ele>
        <time>2020-02-28T13:36:15Z</time>
      </trkpt>
      <trkpt lat="44.48515" lon="4.64092">
        <ele>299.60000610352</ele>
        <time>2020-02-28T13:36:16Z</time>
      </trkpt>
      <trkpt lat="44.48515" lon="4.64089">
        <ele>299.60000610352</ele>
        <time>2020-02-28T13:36:17Z</time>
      </trkpt>
      <trkpt lat="44.48514" lon="4.64087">
        <ele>299.79998779297</ele>
        <time>2020-02-28T13:36:18Z</time>
      </trkpt>
      <trkpt lat="44.48513" lon="4.64084">
        <ele>299.79998779297</ele>
        <time>2020-02-28T13:36:19Z</time>
      </trkpt>
      <trkpt lat="44.48513" lon="4.64082">
        <ele>300</ele>
        <time>2020-02-28T13:36:20Z</time>
      </trkpt>
      <trkpt lat="44.48512" lon="4.6408">
        <ele>300.39999389648</ele>
        <time>2020-02-28T13:36:21Z</time>
      </trkpt>
      <trkpt lat="44.48511" lon="4.64078">
        <ele>300.39999389648</ele>
        <time>2020-02-28T13:36:22Z</time>
      </trkpt>
      <trkpt lat="44.48511" lon="4.64075">
        <ele>300.60000610352</ele>
        <time>2020-02-28T13:36:23Z</time>
      </trkpt>
      <trkpt lat="44.4851" lon="4.64073">
        <ele>301.20001220703</ele>
        <time>2020-02-28T13:36:24Z</time>
      </trkpt>
      <trkpt lat="44.4851" lon="4.64071">
        <ele>301.39999389648</ele>
        <time>2020-02-28T13:36:25Z</time>
      </trkpt>
      <trkpt lat="44.48509" lon="4.64069">
        <ele>301.39999389648</ele>
        <time>2020-02-28T13:36:26Z</time>
      </trkpt>
      <trkpt lat="44.48508" lon="4.64066">
        <ele>301.60000610352</ele>
        <time>2020-02-28T13:36:27Z</time>
      </trkpt>
      <trkpt lat="44.48507" lon="4.64064">
        <ele>302.20001220703</ele>
        <time>2020-02-28T13:36:28Z</time>
      </trkpt>
      <trkpt lat="44.48507" lon="4.64062">
        <ele>302.60000610352</ele>
        <time>2020-02-28T13:36:29Z</time>
      </trkpt>
      <trkpt lat="44.48506" lon="4.6406">
        <ele>302.79998779297</ele>
        <time>2020-02-28T13:36:30Z</time>
      </trkpt>
      <trkpt lat="44.48505" lon="4.64058">
        <ele>303</ele>
        <time>2020-02-28T13:36:31Z</time>
      </trkpt>
      <trkpt lat="44.48504" lon="4.64056">
        <ele>303.39999389648</ele>
        <time>2020-02-28T13:36:32Z</time>
      </trkpt>
      <trkpt lat="44.48503" lon="4.64054">
        <ele>303.60000610352</ele>
        <time>2020-02-28T13:36:33Z</time>
      </trkpt>
      <trkpt lat="44.48502" lon="4.64053">
        <ele>304</ele>
        <time>2020-02-28T13:36:34Z</time>
      </trkpt>
      <trkpt lat="44.48502" lon="4.64051">
        <ele>304.39999389648</ele>
        <time>2020-02-28T13:36:35Z</time>
      </trkpt>
      <trkpt lat="44.48501" lon="4.6405">
        <ele>304.39999389648</ele>
        <time>2020-02-28T13:36:36Z</time>
      </trkpt>
      <trkpt lat="44.485" lon="4.64048">
        <ele>304.79998779297</ele>
        <time>2020-02-28T13:36:37Z</time>
      </trkpt>
      <trkpt lat="44.48499" lon="4.64046">
        <ele>305.39999389648</ele>
        <time>2020-02-28T13:36:38Z</time>
      </trkpt>
      <trkpt lat="44.48499" lon="4.64045">
        <ele>305.60000610352</ele>
        <time>2020-02-28T13:36:39Z</time>
      </trkpt>
      <trkpt lat="44.48498" lon="4.64043">
        <ele>305.79998779297</ele>
        <time>2020-02-28T13:36:40Z</time>
      </trkpt>
      <trkpt lat="44.48497" lon="4.64042">
        <ele>306.20001220703</ele>
        <time>2020-02-28T13:36:41Z</time>
      </trkpt>
      <trkpt lat="44.48497" lon="4.64041">
        <ele>306.39999389648</ele>
        <time>2020-02-28T13:36:42Z</time>
      </trkpt>
      <trkpt lat="44.48496" lon="4.6404">
        <ele>306.60000610352</ele>
        <time>2020-02-28T13:36:43Z</time>
      </trkpt>
      <trkpt lat="44.48495" lon="4.64039">
        <ele>307</ele>
        <time>2020-02-28T13:36:44Z</time>
      </trkpt>
      <trkpt lat="44.48495" lon="4.64038">
        <ele>307</ele>
        <time>2020-02-28T13:36:45Z</time>
      </trkpt>
      <trkpt lat="44.48495" lon="4.64037">
        <ele>307.39999389648</ele>
        <time>2020-02-28T13:36:46Z</time>
      </trkpt>
      <trkpt lat="44.48494" lon="4.64037">
        <ele>307.39999389648</ele>
        <time>2020-02-28T13:36:47Z</time>
      </trkpt>
      <trkpt lat="44.48493" lon="4.64036">
        <ele>307.60000610352</ele>
        <time>2020-02-28T13:36:48Z</time>
      </trkpt>
      <trkpt lat="44.48493" lon="4.64035">
        <ele>308.20001220703</ele>
        <time>2020-02-28T13:36:49Z</time>
      </trkpt>
      <trkpt lat="44.48492" lon="4.64034">
        <ele>308.39999389648</ele>
        <time>2020-02-28T13:36:50Z</time>
      </trkpt>
      <trkpt lat="44.48492" lon="4.64033">
        <ele>308.60000610352</ele>
        <time>2020-02-28T13:36:51Z</time>
      </trkpt>
      <trkpt lat="44.48491" lon="4.64032">
        <ele>308.79998779297</ele>
        <time>2020-02-28T13:36:52Z</time>
      </trkpt>
      <trkpt lat="44.4849" lon="4.64031">
        <ele>309.20001220703</ele>
        <time>2020-02-28T13:36:53Z</time>
      </trkpt>
      <trkpt lat="44.4849" lon="4.6403">
        <ele>309.39999389648</ele>
        <time>2020-02-28T13:36:54Z</time>
      </trkpt>
      <trkpt lat="44.48489" lon="4.64029">
        <ele>309.39999389648</ele>
        <time>2020-02-28T13:36:55Z</time>
      </trkpt>
      <trkpt lat="44.48488" lon="4.64028">
        <ele>309.60000610352</ele>
        <time>2020-02-28T13:36:56Z</time>
      </trkpt>
      <trkpt lat="44.48487" lon="4.64027">
        <ele>309.79998779297</ele>
        <time>2020-02-28T13:36:57Z</time>
      </trkpt>
      <trkpt lat="44.48486" lon="4.64026">
        <ele>309.79998779297</ele>
        <time>2020-02-28T13:36:58Z</time>
      </trkpt>
      <trkpt lat="44.48486" lon="4.64025">
        <ele>310.20001220703</ele>
        <time>2020-02-28T13:36:59Z</time>
      </trkpt>
      <trkpt lat="44.48485" lon="4.64024">
        <ele>310.39999389648</ele>
        <time>2020-02-28T13:37:00Z</time>
      </trkpt>
      <trkpt lat="44.48484" lon="4.64023">
        <ele>310.60000610352</ele>
        <time>2020-02-28T13:37:01Z</time>
      </trkpt>
      <trkpt lat="44.48484" lon="4.64023">
        <ele>310.79998779297</ele>
        <time>2020-02-28T13:37:02Z</time>
      </trkpt>
      <trkpt lat="44.48483" lon="4.64022">
        <ele>311</ele>
        <time>2020-02-28T13:37:03Z</time>
      </trkpt>
      <trkpt lat="44.48482" lon="4.64021">
        <ele>311.20001220703</ele>
        <time>2020-02-28T13:37:04Z</time>
      </trkpt>
      <trkpt lat="44.48481" lon="4.6402">
        <ele>311.39999389648</ele>
        <time>2020-02-28T13:37:05Z</time>
      </trkpt>
      <trkpt lat="44.4848" lon="4.64019">
        <ele>311.60000610352</ele>
        <time>2020-02-28T13:37:06Z</time>
      </trkpt>
      <trkpt lat="44.48479" lon="4.64018">
        <ele>311.60000610352</ele>
        <time>2020-02-28T13:37:07Z</time>
      </trkpt>
      <trkpt lat="44.48478" lon="4.64017">
        <ele>312</ele>
        <time>2020-02-28T13:37:08Z</time>
      </trkpt>
      <trkpt lat="44.48478" lon="4.64016">
        <ele>312.20001220703</ele>
        <time>2020-02-28T13:37:09Z</time>
      </trkpt>
      <trkpt lat="44.48477" lon="4.64015">
        <ele>312.39999389648</ele>
        <time>2020-02-28T13:37:10Z</time>
      </trkpt>
      <trkpt lat="44.48476" lon="4.64014">
        <ele>312.79998779297</ele>
        <time>2020-02-28T13:37:11Z</time>
      </trkpt>
      <trkpt lat="44.48475" lon="4.64013">
        <ele>313</ele>
        <time>2020-02-28T13:37:12Z</time>
      </trkpt>
      <trkpt lat="44.48474" lon="4.64012">
        <ele>313.20001220703</ele>
        <time>2020-02-28T13:37:13Z</time>
      </trkpt>
      <trkpt lat="44.48474" lon="4.64011">
        <ele>313.79998779297</ele>
        <time>2020-02-28T13:37:14Z</time>
      </trkpt>
      <trkpt lat="44.48473" lon="4.6401">
        <ele>314</ele>
        <time>2020-02-28T13:37:15Z</time>
      </trkpt>
      <trkpt lat="44.48472" lon="4.6401">
        <ele>314.20001220703</ele>
        <time>2020-02-28T13:37:16Z</time>
      </trkpt>
      <trkpt lat="44.48472" lon="4.64009">
        <ele>314.39999389648</ele>
        <time>2020-02-28T13:37:17Z</time>
      </trkpt>
      <trkpt lat="44.48471" lon="4.64008">
        <ele>314.79998779297</ele>
        <time>2020-02-28T13:37:18Z</time>
      </trkpt>
      <trkpt lat="44.4847" lon="4.64007">
        <ele>315</ele>
        <time>2020-02-28T13:37:19Z</time>
      </trkpt>
      <trkpt lat="44.4847" lon="4.64005">
        <ele>315.20001220703</ele>
        <time>2020-02-28T13:37:20Z</time>
      </trkpt>
      <trkpt lat="44.48469" lon="4.64004">
        <ele>315.60000610352</ele>
        <time>2020-02-28T13:37:21Z</time>
      </trkpt>
      <trkpt lat="44.48468" lon="4.64002">
        <ele>315.60000610352</ele>
        <time>2020-02-28T13:37:22Z</time>
      </trkpt>
      <trkpt lat="44.48468" lon="4.64001">
        <ele>315.60000610352</ele>
        <time>2020-02-28T13:37:23Z</time>
      </trkpt>
      <trkpt lat="44.48467" lon="4.64">
        <ele>315.79998779297</ele>
        <time>2020-02-28T13:37:24Z</time>
      </trkpt>
      <trkpt lat="44.48466" lon="4.63998">
        <ele>316.20001220703</ele>
        <time>2020-02-28T13:37:25Z</time>
      </trkpt>
      <trkpt lat="44.48465" lon="4.63997">
        <ele>316.39999389648</ele>
        <time>2020-02-28T13:37:26Z</time>
      </trkpt>
      <trkpt lat="44.48464" lon="4.63996">
        <ele>316.60000610352</ele>
        <time>2020-02-28T13:37:27Z</time>
      </trkpt>
      <trkpt lat="44.48463" lon="4.63995">
        <ele>316.79998779297</ele>
        <time>2020-02-28T13:37:28Z</time>
      </trkpt>
      <trkpt lat="44.48463" lon="4.63994">
        <ele>316.79998779297</ele>
        <time>2020-02-28T13:37:29Z</time>
      </trkpt>
      <trkpt lat="44.48462" lon="4.63992">
        <ele>317</ele>
        <time>2020-02-28T13:37:30Z</time>
      </trkpt>
      <trkpt lat="44.48462" lon="4.63991">
        <ele>317.20001220703</ele>
        <time>2020-02-28T13:37:31Z</time>
      </trkpt>
      <trkpt lat="44.48461" lon="4.63989">
        <ele>317.20001220703</ele>
        <time>2020-02-28T13:37:32Z</time>
      </trkpt>
      <trkpt lat="44.4846" lon="4.63987">
        <ele>317.79998779297</ele>
        <time>2020-02-28T13:37:33Z</time>
      </trkpt>
      <trkpt lat="44.48459" lon="4.63986">
        <ele>317.79998779297</ele>
        <time>2020-02-28T13:37:34Z</time>
      </trkpt>
      <trkpt lat="44.48459" lon="4.63984">
        <ele>318.20001220703</ele>
        <time>2020-02-28T13:37:35Z</time>
      </trkpt>
      <trkpt lat="44.48458" lon="4.63983">
        <ele>318.39999389648</ele>
        <time>2020-02-28T13:37:36Z</time>
      </trkpt>
      <trkpt lat="44.48458" lon="4.63982">
        <ele>318.60000610352</ele>
        <time>2020-02-28T13:37:37Z</time>
      </trkpt>
      <trkpt lat="44.48457" lon="4.63981">
        <ele>318.79998779297</ele>
        <time>2020-02-28T13:37:38Z</time>
      </trkpt>
      <trkpt lat="44.48456" lon="4.63979">
        <ele>319.20001220703</ele>
        <time>2020-02-28T13:37:39Z</time>
      </trkpt>
      <trkpt lat="44.48455" lon="4.63978">
        <ele>319.60000610352</ele>
        <time>2020-02-28T13:37:40Z</time>
      </trkpt>
      <trkpt lat="44.48455" lon="4.63976">
        <ele>319.79998779297</ele>
        <time>2020-02-28T13:37:41Z</time>
      </trkpt>
      <trkpt lat="44.48454" lon="4.63975">
        <ele>320.20001220703</ele>
        <time>2020-02-28T13:37:42Z</time>
      </trkpt>
      <trkpt lat="44.48453" lon="4.63974">
        <ele>320.39999389648</ele>
        <time>2020-02-28T13:37:43Z</time>
      </trkpt>
      <trkpt lat="44.48452" lon="4.63973">
        <ele>320.60000610352</ele>
        <time>2020-02-28T13:37:44Z</time>
      </trkpt>
      <trkpt lat="44.48452" lon="4.63971">
        <ele>321</ele>
        <time>2020-02-28T13:37:45Z</time>
      </trkpt>
      <trkpt lat="44.48451" lon="4.6397">
        <ele>321</ele>
        <time>2020-02-28T13:37:46Z</time>
      </trkpt>
      <trkpt lat="44.4845" lon="4.63969">
        <ele>321.39999389648</ele>
        <time>2020-02-28T13:37:47Z</time>
      </trkpt>
      <trkpt lat="44.48449" lon="4.63967">
        <ele>321.60000610352</ele>
        <time>2020-02-28T13:37:48Z</time>
      </trkpt>
      <trkpt lat="44.48448" lon="4.63966">
        <ele>322</ele>
        <time>2020-02-28T13:37:49Z</time>
      </trkpt>
      <trkpt lat="44.48448" lon="4.63965">
        <ele>322</ele>
        <time>2020-02-28T13:37:50Z</time>
      </trkpt>
      <trkpt lat="44.48447" lon="4.63963">
        <ele>322.39999389648</ele>
        <time>2020-02-28T13:37:51Z</time>
      </trkpt>
      <trkpt lat="44.48447" lon="4.63963">
        <ele>322.39999389648</ele>
        <time>2020-02-28T13:37:52Z</time>
      </trkpt>
      <trkpt lat="44.48446" lon="4.63962">
        <ele>322.79998779297</ele>
        <time>2020-02-28T13:37:53Z</time>
      </trkpt>
      <trkpt lat="44.48445" lon="4.6396">
        <ele>323</ele>
        <time>2020-02-28T13:37:54Z</time>
      </trkpt>
      <trkpt lat="44.48444" lon="4.63959">
        <ele>323.20001220703</ele>
        <time>2020-02-28T13:37:55Z</time>
      </trkpt>
      <trkpt lat="44.48443" lon="4.63957">
        <ele>323.39999389648</ele>
        <time>2020-02-28T13:37:56Z</time>
      </trkpt>
      <trkpt lat="44.48441" lon="4.63955">
        <ele>323.79998779297</ele>
        <time>2020-02-28T13:37:57Z</time>
      </trkpt>
      <trkpt lat="44.4844" lon="4.63954">
        <ele>324</ele>
        <time>2020-02-28T13:37:58Z</time>
      </trkpt>
      <trkpt lat="44.48439" lon="4.63952">
        <ele>324</ele>
        <time>2020-02-28T13:37:59Z</time>
      </trkpt>
      <trkpt lat="44.48439" lon="4.63951">
        <ele>324.60000610352</ele>
        <time>2020-02-28T13:38:00Z</time>
      </trkpt>
      <trkpt lat="44.48438" lon="4.6395">
        <ele>324.79998779297</ele>
        <time>2020-02-28T13:38:01Z</time>
      </trkpt>
      <trkpt lat="44.48437" lon="4.63948">
        <ele>324.79998779297</ele>
        <time>2020-02-28T13:38:02Z</time>
      </trkpt>
      <trkpt lat="44.48436" lon="4.63947">
        <ele>325.20001220703</ele>
        <time>2020-02-28T13:38:03Z</time>
      </trkpt>
      <trkpt lat="44.48435" lon="4.63946">
        <ele>325.39999389648</ele>
        <time>2020-02-28T13:38:04Z</time>
      </trkpt>
      <trkpt lat="44.48433" lon="4.63944">
        <ele>325.60000610352</ele>
        <time>2020-02-28T13:38:05Z</time>
      </trkpt>
      <trkpt lat="44.48432" lon="4.63943">
        <ele>325.79998779297</ele>
        <time>2020-02-28T13:38:06Z</time>
      </trkpt>
      <trkpt lat="44.48431" lon="4.63941">
        <ele>326.20001220703</ele>
        <time>2020-02-28T13:38:07Z</time>
      </trkpt>
      <trkpt lat="44.48429" lon="4.63938">
        <ele>326.39999389648</ele>
        <time>2020-02-28T13:38:08Z</time>
      </trkpt>
      <trkpt lat="44.48428" lon="4.63937">
        <ele>326.60000610352</ele>
        <time>2020-02-28T13:38:09Z</time>
      </trkpt>
      <trkpt lat="44.48427" lon="4.63935">
        <ele>326.79998779297</ele>
        <time>2020-02-28T13:38:10Z</time>
      </trkpt>
      <trkpt lat="44.48426" lon="4.63933">
        <ele>326.79998779297</ele>
        <time>2020-02-28T13:38:11Z</time>
      </trkpt>
      <trkpt lat="44.48425" lon="4.63932">
        <ele>327</ele>
        <time>2020-02-28T13:38:12Z</time>
      </trkpt>
      <trkpt lat="44.48424" lon="4.63931">
        <ele>327.20001220703</ele>
        <time>2020-02-28T13:38:13Z</time>
      </trkpt>
      <trkpt lat="44.48423" lon="4.63929">
        <ele>327.39999389648</ele>
        <time>2020-02-28T13:38:14Z</time>
      </trkpt>
      <trkpt lat="44.48422" lon="4.63927">
        <ele>327.60000610352</ele>
        <time>2020-02-28T13:38:15Z</time>
      </trkpt>
      <trkpt lat="44.4842" lon="4.63925">
        <ele>327.79998779297</ele>
        <time>2020-02-28T13:38:16Z</time>
      </trkpt>
      <trkpt lat="44.48418" lon="4.63923">
        <ele>327.79998779297</ele>
        <time>2020-02-28T13:38:17Z</time>
      </trkpt>
      <trkpt lat="44.48417" lon="4.63921">
        <ele>328</ele>
        <time>2020-02-28T13:38:18Z</time>
      </trkpt>
      <trkpt lat="44.48416" lon="4.6392">
        <ele>328.20001220703</ele>
        <time>2020-02-28T13:38:19Z</time>
      </trkpt>
      <trkpt lat="44.48415" lon="4.63917">
        <ele>328.20001220703</ele>
        <time>2020-02-28T13:38:20Z</time>
      </trkpt>
      <trkpt lat="44.48413" lon="4.63915">
        <ele>328.39999389648</ele>
        <time>2020-02-28T13:38:21Z</time>
      </trkpt>
      <trkpt lat="44.48412" lon="4.63913">
        <ele>328.60000610352</ele>
        <time>2020-02-28T13:38:22Z</time>
      </trkpt>
      <trkpt lat="44.48411" lon="4.63911">
        <ele>328.60000610352</ele>
        <time>2020-02-28T13:38:23Z</time>
      </trkpt>
      <trkpt lat="44.4841" lon="4.6391">
        <ele>328.79998779297</ele>
        <time>2020-02-28T13:38:24Z</time>
      </trkpt>
      <trkpt lat="44.48409" lon="4.63909">
        <ele>329</ele>
        <time>2020-02-28T13:38:25Z</time>
      </trkpt>
      <trkpt lat="44.48407" lon="4.63908">
        <ele>329.39999389648</ele>
        <time>2020-02-28T13:38:26Z</time>
      </trkpt>
      <trkpt lat="44.48406" lon="4.63906">
        <ele>329.60000610352</ele>
        <time>2020-02-28T13:38:27Z</time>
      </trkpt>
      <trkpt lat="44.48405" lon="4.63905">
        <ele>329.60000610352</ele>
        <time>2020-02-28T13:38:28Z</time>
      </trkpt>
      <trkpt lat="44.48404" lon="4.63904">
        <ele>330</ele>
        <time>2020-02-28T13:38:29Z</time>
      </trkpt>
      <trkpt lat="44.48403" lon="4.63903">
        <ele>330.20001220703</ele>
        <time>2020-02-28T13:38:30Z</time>
      </trkpt>
      <trkpt lat="44.48402" lon="4.63902">
        <ele>330.39999389648</ele>
        <time>2020-02-28T13:38:31Z</time>
      </trkpt>
      <trkpt lat="44.48402" lon="4.63901">
        <ele>330.39999389648</ele>
        <time>2020-02-28T13:38:32Z</time>
      </trkpt>
      <trkpt lat="44.48401" lon="4.63899">
        <ele>330.39999389648</ele>
        <time>2020-02-28T13:38:33Z</time>
      </trkpt>
      <trkpt lat="44.484" lon="4.63897">
        <ele>330.39999389648</ele>
        <time>2020-02-28T13:38:34Z</time>
      </trkpt>
      <trkpt lat="44.48398" lon="4.63895">
        <ele>330.60000610352</ele>
        <time>2020-02-28T13:38:35Z</time>
      </trkpt>
      <trkpt lat="44.48396" lon="4.63893">
        <ele>330.60000610352</ele>
        <time>2020-02-28T13:38:36Z</time>
      </trkpt>
      <trkpt lat="44.48393" lon="4.63892">
        <ele>330.60000610352</ele>
        <time>2020-02-28T13:38:37Z</time>
      </trkpt>
      <trkpt lat="44.48388" lon="4.6389">
        <ele>330.60000610352</ele>
        <time>2020-02-28T13:38:39Z</time>
      </trkpt>
      <trkpt lat="44.48385" lon="4.63889">
        <ele>330.79998779297</ele>
        <time>2020-02-28T13:38:40Z</time>
      </trkpt>
      <trkpt lat="44.48383" lon="4.63889">
        <ele>330.79998779297</ele>
        <time>2020-02-28T13:38:41Z</time>
      </trkpt>
      <trkpt lat="44.4838" lon="4.63887">
        <ele>330.79998779297</ele>
        <time>2020-02-28T13:38:42Z</time>
      </trkpt>
      <trkpt lat="44.48377" lon="4.63886">
        <ele>330.79998779297</ele>
        <time>2020-02-28T13:38:43Z</time>
      </trkpt>
      <trkpt lat="44.48374" lon="4.63885">
        <ele>330.79998779297</ele>
        <time>2020-02-28T13:38:44Z</time>
      </trkpt>
      <trkpt lat="44.48364" lon="4.63879">
        <ele>330.39999389648</ele>
        <time>2020-02-28T13:38:47Z</time>
      </trkpt>
      <trkpt lat="44.4836" lon="4.63877">
        <ele>330.39999389648</ele>
        <time>2020-02-28T13:38:48Z</time>
      </trkpt>
      <trkpt lat="44.48356" lon="4.63873">
        <ele>330.39999389648</ele>
        <time>2020-02-28T13:38:49Z</time>
      </trkpt>
      <trkpt lat="44.48352" lon="4.6387">
        <ele>330.20001220703</ele>
        <time>2020-02-28T13:38:50Z</time>
      </trkpt>
      <trkpt lat="44.48347" lon="4.63866">
        <ele>330.20001220703</ele>
        <time>2020-02-28T13:38:51Z</time>
      </trkpt>
      <trkpt lat="44.48341" lon="4.63863">
        <ele>330.20001220703</ele>
        <time>2020-02-28T13:38:52Z</time>
      </trkpt>
      <trkpt lat="44.48335" lon="4.63861">
        <ele>329.79998779297</ele>
        <time>2020-02-28T13:38:53Z</time>
      </trkpt>
      <trkpt lat="44.48324" lon="4.63857">
        <ele>329.20001220703</ele>
        <time>2020-02-28T13:38:55Z</time>
      </trkpt>
      <trkpt lat="44.48317" lon="4.63855">
        <ele>328.79998779297</ele>
        <time>2020-02-28T13:38:56Z</time>
      </trkpt>
      <trkpt lat="44.48311" lon="4.63853">
        <ele>328.39999389648</ele>
        <time>2020-02-28T13:38:57Z</time>
      </trkpt>
      <trkpt lat="44.48306" lon="4.6385">
        <ele>327.39999389648</ele>
        <time>2020-02-28T13:38:58Z</time>
      </trkpt>
      <trkpt lat="44.483" lon="4.63847">
        <ele>326.79998779297</ele>
        <time>2020-02-28T13:38:59Z</time>
      </trkpt>
      <trkpt lat="44.48296" lon="4.63845">
        <ele>325.79998779297</ele>
        <time>2020-02-28T13:39:00Z</time>
      </trkpt>
      <trkpt lat="44.48291" lon="4.63843">
        <ele>325.20001220703</ele>
        <time>2020-02-28T13:39:01Z</time>
      </trkpt>
      <trkpt lat="44.48281" lon="4.6384">
        <ele>324.20001220703</ele>
        <time>2020-02-28T13:39:03Z</time>
      </trkpt>
      <trkpt lat="44.48277" lon="4.63838">
        <ele>324</ele>
        <time>2020-02-28T13:39:04Z</time>
      </trkpt>
      <trkpt lat="44.48268" lon="4.63834">
        <ele>323.60000610352</ele>
        <time>2020-02-28T13:39:06Z</time>
      </trkpt>
      <trkpt lat="44.48248" lon="4.63825">
        <ele>322.79998779297</ele>
        <time>2020-02-28T13:39:10Z</time>
      </trkpt>
      <trkpt lat="44.48243" lon="4.63822">
        <ele>322.79998779297</ele>
        <time>2020-02-28T13:39:11Z</time>
      </trkpt>
      <trkpt lat="44.48234" lon="4.63816">
        <ele>322.79998779297</ele>
        <time>2020-02-28T13:39:13Z</time>
      </trkpt>
      <trkpt lat="44.4823" lon="4.63813">
        <ele>322.79998779297</ele>
        <time>2020-02-28T13:39:14Z</time>
      </trkpt>
      <trkpt lat="44.48225" lon="4.6381">
        <ele>322.79998779297</ele>
        <time>2020-02-28T13:39:15Z</time>
      </trkpt>
      <trkpt lat="44.48221" lon="4.63808">
        <ele>322.79998779297</ele>
        <time>2020-02-28T13:39:16Z</time>
      </trkpt>
      <trkpt lat="44.48217" lon="4.63805">
        <ele>322.60000610352</ele>
        <time>2020-02-28T13:39:17Z</time>
      </trkpt>
      <trkpt lat="44.48214" lon="4.63803">
        <ele>322.79998779297</ele>
        <time>2020-02-28T13:39:18Z</time>
      </trkpt>
      <trkpt lat="44.48211" lon="4.63801">
        <ele>322.79998779297</ele>
        <time>2020-02-28T13:39:19Z</time>
      </trkpt>
      <trkpt lat="44.48209" lon="4.63799">
        <ele>322.60000610352</ele>
        <time>2020-02-28T13:39:20Z</time>
      </trkpt>
      <trkpt lat="44.48207" lon="4.63797">
        <ele>322.60000610352</ele>
        <time>2020-02-28T13:39:21Z</time>
      </trkpt>
      <trkpt lat="44.48205" lon="4.63795">
        <ele>322.79998779297</ele>
        <time>2020-02-28T13:39:22Z</time>
      </trkpt>
      <trkpt lat="44.48203" lon="4.63794">
        <ele>322.79998779297</ele>
        <time>2020-02-28T13:39:23Z</time>
      </trkpt>
      <trkpt lat="44.48202" lon="4.63793">
        <ele>322.79998779297</ele>
        <time>2020-02-28T13:39:24Z</time>
      </trkpt>
      <trkpt lat="44.482" lon="4.63791">
        <ele>323</ele>
        <time>2020-02-28T13:39:25Z</time>
      </trkpt>
      <trkpt lat="44.48198" lon="4.6379">
        <ele>323.20001220703</ele>
        <time>2020-02-28T13:39:26Z</time>
      </trkpt>
      <trkpt lat="44.48196" lon="4.63788">
        <ele>323.39999389648</ele>
        <time>2020-02-28T13:39:27Z</time>
      </trkpt>
      <trkpt lat="44.48193" lon="4.63786">
        <ele>323.60000610352</ele>
        <time>2020-02-28T13:39:28Z</time>
      </trkpt>
      <trkpt lat="44.4819" lon="4.63783">
        <ele>324</ele>
        <time>2020-02-28T13:39:29Z</time>
      </trkpt>
      <trkpt lat="44.48188" lon="4.63781">
        <ele>324.39999389648</ele>
        <time>2020-02-28T13:39:30Z</time>
      </trkpt>
      <trkpt lat="44.48186" lon="4.63779">
        <ele>324.60000610352</ele>
        <time>2020-02-28T13:39:31Z</time>
      </trkpt>
      <trkpt lat="44.48184" lon="4.63777">
        <ele>325</ele>
        <time>2020-02-28T13:39:32Z</time>
      </trkpt>
      <trkpt lat="44.48181" lon="4.63775">
        <ele>325.20001220703</ele>
        <time>2020-02-28T13:39:33Z</time>
      </trkpt>
      <trkpt lat="44.48178" lon="4.63772">
        <ele>325.39999389648</ele>
        <time>2020-02-28T13:39:34Z</time>
      </trkpt>
      <trkpt lat="44.48176" lon="4.6377">
        <ele>325.60000610352</ele>
        <time>2020-02-28T13:39:35Z</time>
      </trkpt>
      <trkpt lat="44.48174" lon="4.63769">
        <ele>325.60000610352</ele>
        <time>2020-02-28T13:39:36Z</time>
      </trkpt>
      <trkpt lat="44.48173" lon="4.63767">
        <ele>325.79998779297</ele>
        <time>2020-02-28T13:39:37Z</time>
      </trkpt>
      <trkpt lat="44.48171" lon="4.63766">
        <ele>325.60000610352</ele>
        <time>2020-02-28T13:39:38Z</time>
      </trkpt>
      <trkpt lat="44.4817" lon="4.63764">
        <ele>325.79998779297</ele>
        <time>2020-02-28T13:39:39Z</time>
      </trkpt>
      <trkpt lat="44.48169" lon="4.63763">
        <ele>326</ele>
        <time>2020-02-28T13:39:40Z</time>
      </trkpt>
      <trkpt lat="44.48167" lon="4.63762">
        <ele>326.20001220703</ele>
        <time>2020-02-28T13:39:41Z</time>
      </trkpt>
      <trkpt lat="44.48165" lon="4.6376">
        <ele>326.39999389648</ele>
        <time>2020-02-28T13:39:42Z</time>
      </trkpt>
      <trkpt lat="44.48164" lon="4.63758">
        <ele>326.60000610352</ele>
        <time>2020-02-28T13:39:43Z</time>
      </trkpt>
      <trkpt lat="44.48162" lon="4.63757">
        <ele>327</ele>
        <time>2020-02-28T13:39:44Z</time>
      </trkpt>
      <trkpt lat="44.4816" lon="4.63755">
        <ele>327.20001220703</ele>
        <time>2020-02-28T13:39:45Z</time>
      </trkpt>
      <trkpt lat="44.48159" lon="4.63753">
        <ele>327.79998779297</ele>
        <time>2020-02-28T13:39:46Z</time>
      </trkpt>
      <trkpt lat="44.48158" lon="4.63752">
        <ele>328</ele>
        <time>2020-02-28T13:39:47Z</time>
      </trkpt>
      <trkpt lat="44.48157" lon="4.6375">
        <ele>328.39999389648</ele>
        <time>2020-02-28T13:39:48Z</time>
      </trkpt>
      <trkpt lat="44.48155" lon="4.63749">
        <ele>328.60000610352</ele>
        <time>2020-02-28T13:39:49Z</time>
      </trkpt>
      <trkpt lat="44.48154" lon="4.63747">
        <ele>328.79998779297</ele>
        <time>2020-02-28T13:39:50Z</time>
      </trkpt>
      <trkpt lat="44.48153" lon="4.63746">
        <ele>329.20001220703</ele>
        <time>2020-02-28T13:39:51Z</time>
      </trkpt>
      <trkpt lat="44.48152" lon="4.63744">
        <ele>329.60000610352</ele>
        <time>2020-02-28T13:39:52Z</time>
      </trkpt>
      <trkpt lat="44.48151" lon="4.63742">
        <ele>329.60000610352</ele>
        <time>2020-02-28T13:39:53Z</time>
      </trkpt>
      <trkpt lat="44.48149" lon="4.63739">
        <ele>330</ele>
        <time>2020-02-28T13:39:54Z</time>
      </trkpt>
      <trkpt lat="44.48148" lon="4.63738">
        <ele>330.20001220703</ele>
        <time>2020-02-28T13:39:55Z</time>
      </trkpt>
      <trkpt lat="44.48147" lon="4.63736">
        <ele>330.39999389648</ele>
        <time>2020-02-28T13:39:56Z</time>
      </trkpt>
      <trkpt lat="44.48145" lon="4.63734">
        <ele>330.39999389648</ele>
        <time>2020-02-28T13:39:57Z</time>
      </trkpt>
      <trkpt lat="44.48144" lon="4.63733">
        <ele>330.60000610352</ele>
        <time>2020-02-28T13:39:58Z</time>
      </trkpt>
      <trkpt lat="44.48143" lon="4.63731">
        <ele>330.79998779297</ele>
        <time>2020-02-28T13:39:59Z</time>
      </trkpt>
      <trkpt lat="44.48141" lon="4.6373">
        <ele>331</ele>
        <time>2020-02-28T13:40:00Z</time>
      </trkpt>
      <trkpt lat="44.4814" lon="4.63728">
        <ele>331.20001220703</ele>
        <time>2020-02-28T13:40:01Z</time>
      </trkpt>
      <trkpt lat="44.48139" lon="4.63726">
        <ele>331.39999389648</ele>
        <time>2020-02-28T13:40:02Z</time>
      </trkpt>
      <trkpt lat="44.48138" lon="4.63724">
        <ele>331.60000610352</ele>
        <time>2020-02-28T13:40:03Z</time>
      </trkpt>
      <trkpt lat="44.48136" lon="4.63723">
        <ele>332.20001220703</ele>
        <time>2020-02-28T13:40:04Z</time>
      </trkpt>
      <trkpt lat="44.48135" lon="4.63721">
        <ele>332.39999389648</ele>
        <time>2020-02-28T13:40:05Z</time>
      </trkpt>
      <trkpt lat="44.48133" lon="4.6372">
        <ele>332.60000610352</ele>
        <time>2020-02-28T13:40:06Z</time>
      </trkpt>
      <trkpt lat="44.48132" lon="4.63718">
        <ele>332.60000610352</ele>
        <time>2020-02-28T13:40:07Z</time>
      </trkpt>
      <trkpt lat="44.48131" lon="4.63717">
        <ele>332.79998779297</ele>
        <time>2020-02-28T13:40:08Z</time>
      </trkpt>
      <trkpt lat="44.48129" lon="4.63715">
        <ele>333.20001220703</ele>
        <time>2020-02-28T13:40:09Z</time>
      </trkpt>
      <trkpt lat="44.48127" lon="4.63713">
        <ele>333.20001220703</ele>
        <time>2020-02-28T13:40:10Z</time>
      </trkpt>
      <trkpt lat="44.48126" lon="4.63712">
        <ele>333.60000610352</ele>
        <time>2020-02-28T13:40:11Z</time>
      </trkpt>
      <trkpt lat="44.48124" lon="4.63711">
        <ele>333.60000610352</ele>
        <time>2020-02-28T13:40:12Z</time>
      </trkpt>
      <trkpt lat="44.48123" lon="4.6371">
        <ele>333.79998779297</ele>
        <time>2020-02-28T13:40:13Z</time>
      </trkpt>
      <trkpt lat="44.48121" lon="4.63709">
        <ele>334</ele>
        <time>2020-02-28T13:40:14Z</time>
      </trkpt>
      <trkpt lat="44.4812" lon="4.63708">
        <ele>334.39999389648</ele>
        <time>2020-02-28T13:40:15Z</time>
      </trkpt>
      <trkpt lat="44.48119" lon="4.63707">
        <ele>334.60000610352</ele>
        <time>2020-02-28T13:40:16Z</time>
      </trkpt>
      <trkpt lat="44.48117" lon="4.63705">
        <ele>335</ele>
        <time>2020-02-28T13:40:17Z</time>
      </trkpt>
      <trkpt lat="44.48115" lon="4.63704">
        <ele>335</ele>
        <time>2020-02-28T13:40:18Z</time>
      </trkpt>
      <trkpt lat="44.48113" lon="4.63704">
        <ele>335.20001220703</ele>
        <time>2020-02-28T13:40:19Z</time>
      </trkpt>
      <trkpt lat="44.48111" lon="4.63702">
        <ele>335.39999389648</ele>
        <time>2020-02-28T13:40:20Z</time>
      </trkpt>
      <trkpt lat="44.48109" lon="4.63702">
        <ele>335.79998779297</ele>
        <time>2020-02-28T13:40:21Z</time>
      </trkpt>
      <trkpt lat="44.48106" lon="4.63701">
        <ele>335.79998779297</ele>
        <time>2020-02-28T13:40:22Z</time>
      </trkpt>
      <trkpt lat="44.48104" lon="4.637">
        <ele>336</ele>
        <time>2020-02-28T13:40:23Z</time>
      </trkpt>
      <trkpt lat="44.48101" lon="4.63699">
        <ele>336.20001220703</ele>
        <time>2020-02-28T13:40:24Z</time>
      </trkpt>
      <trkpt lat="44.48099" lon="4.63698">
        <ele>336.39999389648</ele>
        <time>2020-02-28T13:40:25Z</time>
      </trkpt>
      <trkpt lat="44.48097" lon="4.63698">
        <ele>336.60000610352</ele>
        <time>2020-02-28T13:40:26Z</time>
      </trkpt>
      <trkpt lat="44.48095" lon="4.63697">
        <ele>336.60000610352</ele>
        <time>2020-02-28T13:40:27Z</time>
      </trkpt>
      <trkpt lat="44.48094" lon="4.63697">
        <ele>336.79998779297</ele>
        <time>2020-02-28T13:40:28Z</time>
      </trkpt>
      <trkpt lat="44.48092" lon="4.63697">
        <ele>337</ele>
        <time>2020-02-28T13:40:29Z</time>
      </trkpt>
      <trkpt lat="44.4809" lon="4.63697">
        <ele>337.20001220703</ele>
        <time>2020-02-28T13:40:30Z</time>
      </trkpt>
      <trkpt lat="44.48088" lon="4.63697">
        <ele>337.20001220703</ele>
        <time>2020-02-28T13:40:31Z</time>
      </trkpt>
      <trkpt lat="44.48086" lon="4.63697">
        <ele>337.60000610352</ele>
        <time>2020-02-28T13:40:32Z</time>
      </trkpt>
      <trkpt lat="44.48084" lon="4.63697">
        <ele>337.60000610352</ele>
        <time>2020-02-28T13:40:33Z</time>
      </trkpt>
      <trkpt lat="44.48081" lon="4.63697">
        <ele>338</ele>
        <time>2020-02-28T13:40:34Z</time>
      </trkpt>
      <trkpt lat="44.48079" lon="4.63697">
        <ele>338.20001220703</ele>
        <time>2020-02-28T13:40:35Z</time>
      </trkpt>
      <trkpt lat="44.48077" lon="4.63697">
        <ele>338.60000610352</ele>
        <time>2020-02-28T13:40:36Z</time>
      </trkpt>
      <trkpt lat="44.48072" lon="4.63696">
        <ele>339</ele>
        <time>2020-02-28T13:40:38Z</time>
      </trkpt>
      <trkpt lat="44.4807" lon="4.63696">
        <ele>339.20001220703</ele>
        <time>2020-02-28T13:40:39Z</time>
      </trkpt>
      <trkpt lat="44.48068" lon="4.63696">
        <ele>339.20001220703</ele>
        <time>2020-02-28T13:40:40Z</time>
      </trkpt>
      <trkpt lat="44.48064" lon="4.63695">
        <ele>339.60000610352</ele>
        <time>2020-02-28T13:40:42Z</time>
      </trkpt>
      <trkpt lat="44.48062" lon="4.63694">
        <ele>339.60000610352</ele>
        <time>2020-02-28T13:40:43Z</time>
      </trkpt>
      <trkpt lat="44.4806" lon="4.63694">
        <ele>339.60000610352</ele>
        <time>2020-02-28T13:40:44Z</time>
      </trkpt>
      <trkpt lat="44.48058" lon="4.63693">
        <ele>339.79998779297</ele>
        <time>2020-02-28T13:40:45Z</time>
      </trkpt>
      <trkpt lat="44.48054" lon="4.63692">
        <ele>339.79998779297</ele>
        <time>2020-02-28T13:40:46Z</time>
      </trkpt>
      <trkpt lat="44.48052" lon="4.63691">
        <ele>339.79998779297</ele>
        <time>2020-02-28T13:40:47Z</time>
      </trkpt>
      <trkpt lat="44.4805" lon="4.63691">
        <ele>339.79998779297</ele>
        <time>2020-02-28T13:40:48Z</time>
      </trkpt>
      <trkpt lat="44.48047" lon="4.63691">
        <ele>340</ele>
        <time>2020-02-28T13:40:49Z</time>
      </trkpt>
      <trkpt lat="44.48045" lon="4.63691">
        <ele>340</ele>
        <time>2020-02-28T13:40:50Z</time>
      </trkpt>
      <trkpt lat="44.48043" lon="4.6369">
        <ele>340.39999389648</ele>
        <time>2020-02-28T13:40:51Z</time>
      </trkpt>
      <trkpt lat="44.48041" lon="4.63691">
        <ele>340.39999389648</ele>
        <time>2020-02-28T13:40:52Z</time>
      </trkpt>
      <trkpt lat="44.48037" lon="4.6369">
        <ele>340.39999389648</ele>
        <time>2020-02-28T13:40:53Z</time>
      </trkpt>
      <trkpt lat="44.48035" lon="4.63691">
        <ele>340.60000610352</ele>
        <time>2020-02-28T13:40:54Z</time>
      </trkpt>
      <trkpt lat="44.48033" lon="4.63691">
        <ele>340.79998779297</ele>
        <time>2020-02-28T13:40:55Z</time>
      </trkpt>
      <trkpt lat="44.48031" lon="4.63692">
        <ele>341</ele>
        <time>2020-02-28T13:40:56Z</time>
      </trkpt>
      <trkpt lat="44.48028" lon="4.63693">
        <ele>341.20001220703</ele>
        <time>2020-02-28T13:40:57Z</time>
      </trkpt>
      <trkpt lat="44.48026" lon="4.63694">
        <ele>341.39999389648</ele>
        <time>2020-02-28T13:40:58Z</time>
      </trkpt>
      <trkpt lat="44.48024" lon="4.63695">
        <ele>341.60000610352</ele>
        <time>2020-02-28T13:40:59Z</time>
      </trkpt>
      <trkpt lat="44.48021" lon="4.63695">
        <ele>342</ele>
        <time>2020-02-28T13:41:00Z</time>
      </trkpt>
      <trkpt lat="44.48017" lon="4.63697">
        <ele>342</ele>
        <time>2020-02-28T13:41:02Z</time>
      </trkpt>
      <trkpt lat="44.48013" lon="4.637">
        <ele>342.39999389648</ele>
        <time>2020-02-28T13:41:04Z</time>
      </trkpt>
      <trkpt lat="44.48011" lon="4.63702">
        <ele>342.39999389648</ele>
        <time>2020-02-28T13:41:05Z</time>
      </trkpt>
      <trkpt lat="44.4801" lon="4.63703">
        <ele>342.60000610352</ele>
        <time>2020-02-28T13:41:06Z</time>
      </trkpt>
      <trkpt lat="44.48008" lon="4.63705">
        <ele>342.60000610352</ele>
        <time>2020-02-28T13:41:07Z</time>
      </trkpt>
      <trkpt lat="44.48007" lon="4.63706">
        <ele>342.60000610352</ele>
        <time>2020-02-28T13:41:08Z</time>
      </trkpt>
      <trkpt lat="44.48005" lon="4.63708">
        <ele>342.79998779297</ele>
        <time>2020-02-28T13:41:09Z</time>
      </trkpt>
      <trkpt lat="44.48004" lon="4.6371">
        <ele>342.79998779297</ele>
        <time>2020-02-28T13:41:10Z</time>
      </trkpt>
      <trkpt lat="44.48002" lon="4.63712">
        <ele>342.79998779297</ele>
        <time>2020-02-28T13:41:11Z</time>
      </trkpt>
      <trkpt lat="44.48001" lon="4.63714">
        <ele>342.79998779297</ele>
        <time>2020-02-28T13:41:12Z</time>
      </trkpt>
      <trkpt lat="44.47999" lon="4.63716">
        <ele>342.79998779297</ele>
        <time>2020-02-28T13:41:13Z</time>
      </trkpt>
      <trkpt lat="44.47998" lon="4.63718">
        <ele>343.20001220703</ele>
        <time>2020-02-28T13:41:14Z</time>
      </trkpt>
      <trkpt lat="44.47996" lon="4.63719">
        <ele>343.39999389648</ele>
        <time>2020-02-28T13:41:15Z</time>
      </trkpt>
      <trkpt lat="44.47994" lon="4.63721">
        <ele>343.60000610352</ele>
        <time>2020-02-28T13:41:16Z</time>
      </trkpt>
      <trkpt lat="44.47992" lon="4.63722">
        <ele>343.79998779297</ele>
        <time>2020-02-28T13:41:17Z</time>
      </trkpt>
      <trkpt lat="44.47988" lon="4.63726">
        <ele>344.20001220703</ele>
        <time>2020-02-28T13:41:19Z</time>
      </trkpt>
      <trkpt lat="44.47984" lon="4.63729">
        <ele>344.20001220703</ele>
        <time>2020-02-28T13:41:21Z</time>
      </trkpt>
      <trkpt lat="44.47979" lon="4.63731">
        <ele>344.20001220703</ele>
        <time>2020-02-28T13:41:23Z</time>
      </trkpt>
      <trkpt lat="44.47977" lon="4.63731">
        <ele>344.39999389648</ele>
        <time>2020-02-28T13:41:24Z</time>
      </trkpt>
      <trkpt lat="44.47975" lon="4.6373">
        <ele>344.39999389648</ele>
        <time>2020-02-28T13:41:25Z</time>
      </trkpt>
      <trkpt lat="44.47972" lon="4.63729">
        <ele>344.60000610352</ele>
        <time>2020-02-28T13:41:26Z</time>
      </trkpt>
      <trkpt lat="44.4797" lon="4.63728">
        <ele>344.60000610352</ele>
        <time>2020-02-28T13:41:27Z</time>
      </trkpt>
      <trkpt lat="44.47968" lon="4.63727">
        <ele>344.79998779297</ele>
        <time>2020-02-28T13:41:28Z</time>
      </trkpt>
      <trkpt lat="44.47966" lon="4.63727">
        <ele>344.79998779297</ele>
        <time>2020-02-28T13:41:29Z</time>
      </trkpt>
      <trkpt lat="44.47964" lon="4.63726">
        <ele>344.79998779297</ele>
        <time>2020-02-28T13:41:30Z</time>
      </trkpt>
      <trkpt lat="44.47959" lon="4.63725">
        <ele>344.79998779297</ele>
        <time>2020-02-28T13:41:32Z</time>
      </trkpt>
      <trkpt lat="44.47957" lon="4.63726">
        <ele>344.79998779297</ele>
        <time>2020-02-28T13:41:33Z</time>
      </trkpt>
      <trkpt lat="44.47952" lon="4.63729">
        <ele>344.79998779297</ele>
        <time>2020-02-28T13:41:35Z</time>
      </trkpt>
      <trkpt lat="44.47949" lon="4.63731">
        <ele>344.79998779297</ele>
        <time>2020-02-28T13:41:36Z</time>
      </trkpt>
      <trkpt lat="44.47947" lon="4.63732">
        <ele>344.79998779297</ele>
        <time>2020-02-28T13:41:37Z</time>
      </trkpt>
      <trkpt lat="44.47945" lon="4.63734">
        <ele>344.79998779297</ele>
        <time>2020-02-28T13:41:38Z</time>
      </trkpt>
      <trkpt lat="44.47938" lon="4.63741">
        <ele>345</ele>
        <time>2020-02-28T13:41:41Z</time>
      </trkpt>
      <trkpt lat="44.47935" lon="4.63743">
        <ele>345</ele>
        <time>2020-02-28T13:41:42Z</time>
      </trkpt>
      <trkpt lat="44.47933" lon="4.63745">
        <ele>345</ele>
        <time>2020-02-28T13:41:43Z</time>
      </trkpt>
      <trkpt lat="44.4793" lon="4.63747">
        <ele>345</ele>
        <time>2020-02-28T13:41:44Z</time>
      </trkpt>
      <trkpt lat="44.47928" lon="4.63749">
        <ele>345.20001220703</ele>
        <time>2020-02-28T13:41:45Z</time>
      </trkpt>
      <trkpt lat="44.47923" lon="4.63753">
        <ele>345.20001220703</ele>
        <time>2020-02-28T13:41:47Z</time>
      </trkpt>
      <trkpt lat="44.4792" lon="4.63754">
        <ele>345.39999389648</ele>
        <time>2020-02-28T13:41:48Z</time>
      </trkpt>
      <trkpt lat="44.47917" lon="4.63756">
        <ele>345.39999389648</ele>
        <time>2020-02-28T13:41:49Z</time>
      </trkpt>
      <trkpt lat="44.47915" lon="4.63758">
        <ele>345.20001220703</ele>
        <time>2020-02-28T13:41:50Z</time>
      </trkpt>
      <trkpt lat="44.47911" lon="4.63759">
        <ele>345.20001220703</ele>
        <time>2020-02-28T13:41:51Z</time>
      </trkpt>
      <trkpt lat="44.47909" lon="4.63761">
        <ele>345.20001220703</ele>
        <time>2020-02-28T13:41:52Z</time>
      </trkpt>
      <trkpt lat="44.47906" lon="4.63762">
        <ele>345.39999389648</ele>
        <time>2020-02-28T13:41:53Z</time>
      </trkpt>
      <trkpt lat="44.47903" lon="4.6376">
        <ele>345.20001220703</ele>
        <time>2020-02-28T13:41:54Z</time>
      </trkpt>
      <trkpt lat="44.47899" lon="4.63757">
        <ele>345.20001220703</ele>
        <time>2020-02-28T13:41:56Z</time>
      </trkpt>
      <trkpt lat="44.47897" lon="4.63755">
        <ele>345.39999389648</ele>
        <time>2020-02-28T13:41:57Z</time>
      </trkpt>
      <trkpt lat="44.47896" lon="4.63752">
        <ele>345.39999389648</ele>
        <time>2020-02-28T13:41:58Z</time>
      </trkpt>
      <trkpt lat="44.47895" lon="4.63749">
        <ele>345.20001220703</ele>
        <time>2020-02-28T13:41:59Z</time>
      </trkpt>
      <trkpt lat="44.47893" lon="4.63745">
        <ele>345.20001220703</ele>
        <time>2020-02-28T13:42:00Z</time>
      </trkpt>
      <trkpt lat="44.47892" lon="4.6374">
        <ele>345.39999389648</ele>
        <time>2020-02-28T13:42:01Z</time>
      </trkpt>
      <trkpt lat="44.4789" lon="4.63735">
        <ele>345.39999389648</ele>
        <time>2020-02-28T13:42:02Z</time>
      </trkpt>
      <trkpt lat="44.47889" lon="4.6373">
        <ele>345.20001220703</ele>
        <time>2020-02-28T13:42:03Z</time>
      </trkpt>
      <trkpt lat="44.47884" lon="4.63721">
        <ele>345.20001220703</ele>
        <time>2020-02-28T13:42:05Z</time>
      </trkpt>
      <trkpt lat="44.47882" lon="4.63717">
        <ele>345</ele>
        <time>2020-02-28T13:42:06Z</time>
      </trkpt>
      <trkpt lat="44.47879" lon="4.63714">
        <ele>344.79998779297</ele>
        <time>2020-02-28T13:42:07Z</time>
      </trkpt>
      <trkpt lat="44.47876" lon="4.63711">
        <ele>344.79998779297</ele>
        <time>2020-02-28T13:42:08Z</time>
      </trkpt>
      <trkpt lat="44.47872" lon="4.6371">
        <ele>344.60000610352</ele>
        <time>2020-02-28T13:42:09Z</time>
      </trkpt>
      <trkpt lat="44.47868" lon="4.63709">
        <ele>344</ele>
        <time>2020-02-28T13:42:10Z</time>
      </trkpt>
      <trkpt lat="44.47863" lon="4.63708">
        <ele>342.79998779297</ele>
        <time>2020-02-28T13:42:11Z</time>
      </trkpt>
      <trkpt lat="44.47859" lon="4.63708">
        <ele>342.20001220703</ele>
        <time>2020-02-28T13:42:12Z</time>
      </trkpt>
      <trkpt lat="44.47855" lon="4.63708">
        <ele>341.60000610352</ele>
        <time>2020-02-28T13:42:13Z</time>
      </trkpt>
      <trkpt lat="44.47851" lon="4.63709">
        <ele>340.79998779297</ele>
        <time>2020-02-28T13:42:14Z</time>
      </trkpt>
      <trkpt lat="44.47847" lon="4.6371">
        <ele>340.39999389648</ele>
        <time>2020-02-28T13:42:15Z</time>
      </trkpt>
      <trkpt lat="44.47841" lon="4.63712">
        <ele>339.20001220703</ele>
        <time>2020-02-28T13:42:16Z</time>
      </trkpt>
      <trkpt lat="44.47836" lon="4.63714">
        <ele>338.39999389648</ele>
        <time>2020-02-28T13:42:17Z</time>
      </trkpt>
      <trkpt lat="44.47831" lon="4.63716">
        <ele>337.20001220703</ele>
        <time>2020-02-28T13:42:18Z</time>
      </trkpt>
      <trkpt lat="44.47826" lon="4.63718">
        <ele>335.79998779297</ele>
        <time>2020-02-28T13:42:19Z</time>
      </trkpt>
      <trkpt lat="44.47821" lon="4.63719">
        <ele>334.79998779297</ele>
        <time>2020-02-28T13:42:20Z</time>
      </trkpt>
      <trkpt lat="44.47818" lon="4.63719">
        <ele>334.20001220703</ele>
        <time>2020-02-28T13:42:21Z</time>
      </trkpt>
      <trkpt lat="44.47815" lon="4.63719">
        <ele>333.39999389648</ele>
        <time>2020-02-28T13:42:22Z</time>
      </trkpt>
      <trkpt lat="44.47812" lon="4.6372">
        <ele>332.79998779297</ele>
        <time>2020-02-28T13:42:23Z</time>
      </trkpt>
      <trkpt lat="44.47809" lon="4.6372">
        <ele>332.60000610352</ele>
        <time>2020-02-28T13:42:24Z</time>
      </trkpt>
      <trkpt lat="44.47801" lon="4.6372">
        <ele>332.39999389648</ele>
        <time>2020-02-28T13:42:26Z</time>
      </trkpt>
      <trkpt lat="44.47796" lon="4.6372">
        <ele>332.20001220703</ele>
        <time>2020-02-28T13:42:27Z</time>
      </trkpt>
      <trkpt lat="44.47791" lon="4.6372">
        <ele>331.79998779297</ele>
        <time>2020-02-28T13:42:28Z</time>
      </trkpt>
      <trkpt lat="44.47786" lon="4.6372">
        <ele>332</ele>
        <time>2020-02-28T13:42:29Z</time>
      </trkpt>
      <trkpt lat="44.47783" lon="4.63719">
        <ele>331.60000610352</ele>
        <time>2020-02-28T13:42:30Z</time>
      </trkpt>
      <trkpt lat="44.47781" lon="4.63717">
        <ele>331.39999389648</ele>
        <time>2020-02-28T13:42:31Z</time>
      </trkpt>
      <trkpt lat="44.47779" lon="4.63714">
        <ele>331.20001220703</ele>
        <time>2020-02-28T13:42:32Z</time>
      </trkpt>
      <trkpt lat="44.47777" lon="4.6371">
        <ele>330.39999389648</ele>
        <time>2020-02-28T13:42:33Z</time>
      </trkpt>
      <trkpt lat="44.47776" lon="4.63708">
        <ele>329.79998779297</ele>
        <time>2020-02-28T13:42:34Z</time>
      </trkpt>
      <trkpt lat="44.47775" lon="4.63705">
        <ele>329.20001220703</ele>
        <time>2020-02-28T13:42:35Z</time>
      </trkpt>
      <trkpt lat="44.47774" lon="4.63704">
        <ele>328.79998779297</ele>
        <time>2020-02-28T13:42:36Z</time>
      </trkpt>
      <trkpt lat="44.47772" lon="4.63703">
        <ele>328.60000610352</ele>
        <time>2020-02-28T13:42:37Z</time>
      </trkpt>
      <trkpt lat="44.47765" lon="4.63699">
        <ele>328.39999389648</ele>
        <time>2020-02-28T13:42:40Z</time>
      </trkpt>
      <trkpt lat="44.47763" lon="4.63698">
        <ele>328.39999389648</ele>
        <time>2020-02-28T13:42:41Z</time>
      </trkpt>
      <trkpt lat="44.47762" lon="4.63697">
        <ele>328.39999389648</ele>
        <time>2020-02-28T13:42:42Z</time>
      </trkpt>
      <trkpt lat="44.47761" lon="4.63695">
        <ele>328.39999389648</ele>
        <time>2020-02-28T13:42:43Z</time>
      </trkpt>
      <trkpt lat="44.47759" lon="4.63693">
        <ele>328.39999389648</ele>
        <time>2020-02-28T13:42:44Z</time>
      </trkpt>
      <trkpt lat="44.47758" lon="4.63691">
        <ele>328.39999389648</ele>
        <time>2020-02-28T13:42:45Z</time>
      </trkpt>
      <trkpt lat="44.47757" lon="4.6369">
        <ele>328.39999389648</ele>
        <time>2020-02-28T13:42:46Z</time>
      </trkpt>
      <trkpt lat="44.47756" lon="4.63688">
        <ele>328.39999389648</ele>
        <time>2020-02-28T13:42:47Z</time>
      </trkpt>
      <trkpt lat="44.47754" lon="4.63687">
        <ele>328.39999389648</ele>
        <time>2020-02-28T13:42:48Z</time>
      </trkpt>
      <trkpt lat="44.47753" lon="4.63686">
        <ele>328.39999389648</ele>
        <time>2020-02-28T13:42:49Z</time>
      </trkpt>
      <trkpt lat="44.47752" lon="4.63685">
        <ele>328.39999389648</ele>
        <time>2020-02-28T13:42:50Z</time>
      </trkpt>
      <trkpt lat="44.47751" lon="4.63684">
        <ele>328.60000610352</ele>
        <time>2020-02-28T13:42:51Z</time>
      </trkpt>
      <trkpt lat="44.4775" lon="4.63682">
        <ele>328.79998779297</ele>
        <time>2020-02-28T13:42:52Z</time>
      </trkpt>
      <trkpt lat="44.47748" lon="4.63681">
        <ele>328.79998779297</ele>
        <time>2020-02-28T13:42:53Z</time>
      </trkpt>
      <trkpt lat="44.47747" lon="4.6368">
        <ele>329.20001220703</ele>
        <time>2020-02-28T13:42:54Z</time>
      </trkpt>
      <trkpt lat="44.47745" lon="4.63679">
        <ele>329.20001220703</ele>
        <time>2020-02-28T13:42:55Z</time>
      </trkpt>
      <trkpt lat="44.47744" lon="4.63678">
        <ele>329.39999389648</ele>
        <time>2020-02-28T13:42:56Z</time>
      </trkpt>
      <trkpt lat="44.47742" lon="4.63677">
        <ele>329.60000610352</ele>
        <time>2020-02-28T13:42:57Z</time>
      </trkpt>
      <trkpt lat="44.47741" lon="4.63675">
        <ele>329.79998779297</ele>
        <time>2020-02-28T13:42:58Z</time>
      </trkpt>
      <trkpt lat="44.47739" lon="4.63675">
        <ele>330.20001220703</ele>
        <time>2020-02-28T13:42:59Z</time>
      </trkpt>
      <trkpt lat="44.47738" lon="4.63673">
        <ele>330.20001220703</ele>
        <time>2020-02-28T13:43:00Z</time>
      </trkpt>
      <trkpt lat="44.47736" lon="4.63672">
        <ele>330.39999389648</ele>
        <time>2020-02-28T13:43:01Z</time>
      </trkpt>
      <trkpt lat="44.47735" lon="4.6367">
        <ele>330.60000610352</ele>
        <time>2020-02-28T13:43:02Z</time>
      </trkpt>
      <trkpt lat="44.47734" lon="4.63669">
        <ele>330.79998779297</ele>
        <time>2020-02-28T13:43:03Z</time>
      </trkpt>
      <trkpt lat="44.47733" lon="4.63668">
        <ele>331</ele>
        <time>2020-02-28T13:43:04Z</time>
      </trkpt>
      <trkpt lat="44.47731" lon="4.63667">
        <ele>331.20001220703</ele>
        <time>2020-02-28T13:43:05Z</time>
      </trkpt>
      <trkpt lat="44.47731" lon="4.63665">
        <ele>331.20001220703</ele>
        <time>2020-02-28T13:43:06Z</time>
      </trkpt>
      <trkpt lat="44.4773" lon="4.63663">
        <ele>331.60000610352</ele>
        <time>2020-02-28T13:43:07Z</time>
      </trkpt>
      <trkpt lat="44.47729" lon="4.63662">
        <ele>332</ele>
        <time>2020-02-28T13:43:08Z</time>
      </trkpt>
      <trkpt lat="44.47728" lon="4.6366">
        <ele>332.20001220703</ele>
        <time>2020-02-28T13:43:09Z</time>
      </trkpt>
      <trkpt lat="44.47727" lon="4.63659">
        <ele>332.39999389648</ele>
        <time>2020-02-28T13:43:10Z</time>
      </trkpt>
      <trkpt lat="44.47727" lon="4.63657">
        <ele>332.79998779297</ele>
        <time>2020-02-28T13:43:11Z</time>
      </trkpt>
      <trkpt lat="44.47726" lon="4.63656">
        <ele>333.20001220703</ele>
        <time>2020-02-28T13:43:12Z</time>
      </trkpt>
      <trkpt lat="44.47725" lon="4.63654">
        <ele>333.39999389648</ele>
        <time>2020-02-28T13:43:13Z</time>
      </trkpt>
      <trkpt lat="44.47724" lon="4.63653">
        <ele>333.79998779297</ele>
        <time>2020-02-28T13:43:14Z</time>
      </trkpt>
      <trkpt lat="44.47724" lon="4.63651">
        <ele>334</ele>
        <time>2020-02-28T13:43:15Z</time>
      </trkpt>
      <trkpt lat="44.47722" lon="4.6365">
        <ele>334.60000610352</ele>
        <time>2020-02-28T13:43:16Z</time>
      </trkpt>
      <trkpt lat="44.47722" lon="4.63649">
        <ele>335</ele>
        <time>2020-02-28T13:43:17Z</time>
      </trkpt>
      <trkpt lat="44.47721" lon="4.63647">
        <ele>335</ele>
        <time>2020-02-28T13:43:18Z</time>
      </trkpt>
      <trkpt lat="44.47721" lon="4.63645">
        <ele>335.20001220703</ele>
        <time>2020-02-28T13:43:19Z</time>
      </trkpt>
      <trkpt lat="44.47721" lon="4.63643">
        <ele>335.39999389648</ele>
        <time>2020-02-28T13:43:20Z</time>
      </trkpt>
      <trkpt lat="44.47722" lon="4.63641">
        <ele>335.79998779297</ele>
        <time>2020-02-28T13:43:21Z</time>
      </trkpt>
      <trkpt lat="44.47723" lon="4.63641">
        <ele>336.20001220703</ele>
        <time>2020-02-28T13:43:22Z</time>
      </trkpt>
      <trkpt lat="44.47724" lon="4.63641">
        <ele>336.39999389648</ele>
        <time>2020-02-28T13:43:23Z</time>
      </trkpt>
      <trkpt lat="44.47725" lon="4.63641">
        <ele>336.79998779297</ele>
        <time>2020-02-28T13:43:24Z</time>
      </trkpt>
      <trkpt lat="44.47726" lon="4.63641">
        <ele>336.79998779297</ele>
        <time>2020-02-28T13:43:25Z</time>
      </trkpt>
      <trkpt lat="44.47728" lon="4.63641">
        <ele>337.20001220703</ele>
        <time>2020-02-28T13:43:26Z</time>
      </trkpt>
      <trkpt lat="44.47729" lon="4.63641">
        <ele>337.20001220703</ele>
        <time>2020-02-28T13:43:27Z</time>
      </trkpt>
      <trkpt lat="44.47731" lon="4.63642">
        <ele>337.39999389648</ele>
        <time>2020-02-28T13:43:28Z</time>
      </trkpt>
      <trkpt lat="44.47732" lon="4.63642">
        <ele>337.60000610352</ele>
        <time>2020-02-28T13:43:29Z</time>
      </trkpt>
      <trkpt lat="44.47733" lon="4.63643">
        <ele>337.60000610352</ele>
        <time>2020-02-28T13:43:30Z</time>
      </trkpt>
      <trkpt lat="44.47735" lon="4.63644">
        <ele>337.79998779297</ele>
        <time>2020-02-28T13:43:31Z</time>
      </trkpt>
      <trkpt lat="44.47736" lon="4.63644">
        <ele>338</ele>
        <time>2020-02-28T13:43:32Z</time>
      </trkpt>
      <trkpt lat="44.47738" lon="4.63645">
        <ele>338</ele>
        <time>2020-02-28T13:43:33Z</time>
      </trkpt>
      <trkpt lat="44.47739" lon="4.63645">
        <ele>338.39999389648</ele>
        <time>2020-02-28T13:43:34Z</time>
      </trkpt>
      <trkpt lat="44.4774" lon="4.63645">
        <ele>338.39999389648</ele>
        <time>2020-02-28T13:43:35Z</time>
      </trkpt>
      <trkpt lat="44.47741" lon="4.63646">
        <ele>338.60000610352</ele>
        <time>2020-02-28T13:43:36Z</time>
      </trkpt>
      <trkpt lat="44.47743" lon="4.63647">
        <ele>339</ele>
        <time>2020-02-28T13:43:37Z</time>
      </trkpt>
      <trkpt lat="44.47744" lon="4.63647">
        <ele>339.20001220703</ele>
        <time>2020-02-28T13:43:38Z</time>
      </trkpt>
      <trkpt lat="44.47745" lon="4.63648">
        <ele>339.20001220703</ele>
        <time>2020-02-28T13:43:39Z</time>
      </trkpt>
      <trkpt lat="44.47747" lon="4.63648">
        <ele>339.60000610352</ele>
        <time>2020-02-28T13:43:40Z</time>
      </trkpt>
      <trkpt lat="44.47748" lon="4.63649">
        <ele>339.60000610352</ele>
        <time>2020-02-28T13:43:41Z</time>
      </trkpt>
      <trkpt lat="44.47749" lon="4.6365">
        <ele>340</ele>
        <time>2020-02-28T13:43:42Z</time>
      </trkpt>
      <trkpt lat="44.4775" lon="4.63651">
        <ele>340</ele>
        <time>2020-02-28T13:43:43Z</time>
      </trkpt>
      <trkpt lat="44.47752" lon="4.63651">
        <ele>340.20001220703</ele>
        <time>2020-02-28T13:43:44Z</time>
      </trkpt>
      <trkpt lat="44.47753" lon="4.63652">
        <ele>340.39999389648</ele>
        <time>2020-02-28T13:43:45Z</time>
      </trkpt>
      <trkpt lat="44.47754" lon="4.63652">
        <ele>340.39999389648</ele>
        <time>2020-02-28T13:43:46Z</time>
      </trkpt>
      <trkpt lat="44.47755" lon="4.63652">
        <ele>340.60000610352</ele>
        <time>2020-02-28T13:43:47Z</time>
      </trkpt>
      <trkpt lat="44.47756" lon="4.63653">
        <ele>340.60000610352</ele>
        <time>2020-02-28T13:43:48Z</time>
      </trkpt>
      <trkpt lat="44.47757" lon="4.63654">
        <ele>340.79998779297</ele>
        <time>2020-02-28T13:43:49Z</time>
      </trkpt>
      <trkpt lat="44.47758" lon="4.63654">
        <ele>341</ele>
        <time>2020-02-28T13:43:50Z</time>
      </trkpt>
      <trkpt lat="44.47759" lon="4.63655">
        <ele>341.20001220703</ele>
        <time>2020-02-28T13:43:51Z</time>
      </trkpt>
      <trkpt lat="44.4776" lon="4.63655">
        <ele>341.20001220703</ele>
        <time>2020-02-28T13:43:52Z</time>
      </trkpt>
      <trkpt lat="44.47761" lon="4.63655">
        <ele>341.39999389648</ele>
        <time>2020-02-28T13:43:53Z</time>
      </trkpt>
      <trkpt lat="44.47762" lon="4.63656">
        <ele>341.39999389648</ele>
        <time>2020-02-28T13:43:54Z</time>
      </trkpt>
      <trkpt lat="44.47763" lon="4.63657">
        <ele>341.79998779297</ele>
        <time>2020-02-28T13:43:55Z</time>
      </trkpt>
      <trkpt lat="44.47765" lon="4.63659">
        <ele>342</ele>
        <time>2020-02-28T13:43:56Z</time>
      </trkpt>
      <trkpt lat="44.47766" lon="4.63659">
        <ele>342.39999389648</ele>
        <time>2020-02-28T13:43:57Z</time>
      </trkpt>
      <trkpt lat="44.47767" lon="4.6366">
        <ele>342.60000610352</ele>
        <time>2020-02-28T13:43:58Z</time>
      </trkpt>
      <trkpt lat="44.47768" lon="4.63661">
        <ele>342.79998779297</ele>
        <time>2020-02-28T13:43:59Z</time>
      </trkpt>
      <trkpt lat="44.47769" lon="4.63663">
        <ele>343</ele>
        <time>2020-02-28T13:44:00Z</time>
      </trkpt>
      <trkpt lat="44.4777" lon="4.63664">
        <ele>343.60000610352</ele>
        <time>2020-02-28T13:44:01Z</time>
      </trkpt>
      <trkpt lat="44.47771" lon="4.63665">
        <ele>343.79998779297</ele>
        <time>2020-02-28T13:44:02Z</time>
      </trkpt>
      <trkpt lat="44.47772" lon="4.63665">
        <ele>344</ele>
        <time>2020-02-28T13:44:03Z</time>
      </trkpt>
      <trkpt lat="44.47773" lon="4.63665">
        <ele>344.39999389648</ele>
        <time>2020-02-28T13:44:04Z</time>
      </trkpt>
      <trkpt lat="44.47774" lon="4.63665">
        <ele>344.60000610352</ele>
        <time>2020-02-28T13:44:05Z</time>
      </trkpt>
      <trkpt lat="44.47775" lon="4.63664">
        <ele>344.79998779297</ele>
        <time>2020-02-28T13:44:06Z</time>
      </trkpt>
      <trkpt lat="44.47776" lon="4.63663">
        <ele>344.79998779297</ele>
        <time>2020-02-28T13:44:07Z</time>
      </trkpt>
      <trkpt lat="44.47777" lon="4.63662">
        <ele>345.20001220703</ele>
        <time>2020-02-28T13:44:08Z</time>
      </trkpt>
      <trkpt lat="44.47777" lon="4.6366">
        <ele>345.20001220703</ele>
        <time>2020-02-28T13:44:09Z</time>
      </trkpt>
      <trkpt lat="44.47777" lon="4.63659">
        <ele>345.60000610352</ele>
        <time>2020-02-28T13:44:10Z</time>
      </trkpt>
      <trkpt lat="44.47776" lon="4.63658">
        <ele>345.60000610352</ele>
        <time>2020-02-28T13:44:11Z</time>
      </trkpt>
      <trkpt lat="44.47775" lon="4.63656">
        <ele>345.79998779297</ele>
        <time>2020-02-28T13:44:12Z</time>
      </trkpt>
      <trkpt lat="44.47774" lon="4.63655">
        <ele>346</ele>
        <time>2020-02-28T13:44:13Z</time>
      </trkpt>
      <trkpt lat="44.47773" lon="4.63654">
        <ele>346.20001220703</ele>
        <time>2020-02-28T13:44:14Z</time>
      </trkpt>
      <trkpt lat="44.47772" lon="4.63653">
        <ele>346.20001220703</ele>
        <time>2020-02-28T13:44:15Z</time>
      </trkpt>
      <trkpt lat="44.47771" lon="4.63652">
        <ele>346.39999389648</ele>
        <time>2020-02-28T13:44:16Z</time>
      </trkpt>
      <trkpt lat="44.4777" lon="4.63651">
        <ele>346.79998779297</ele>
        <time>2020-02-28T13:44:17Z</time>
      </trkpt>
      <trkpt lat="44.47768" lon="4.6365">
        <ele>346.79998779297</ele>
        <time>2020-02-28T13:44:18Z</time>
      </trkpt>
      <trkpt lat="44.47766" lon="4.63648">
        <ele>347.20001220703</ele>
        <time>2020-02-28T13:44:19Z</time>
      </trkpt>
      <trkpt lat="44.47766" lon="4.63647">
        <ele>347.39999389648</ele>
        <time>2020-02-28T13:44:20Z</time>
      </trkpt>
      <trkpt lat="44.47766" lon="4.63647">
        <ele>347.39999389648</ele>
        <time>2020-02-28T13:44:21Z</time>
      </trkpt>
      <trkpt lat="44.47764" lon="4.63645">
        <ele>347.60000610352</ele>
        <time>2020-02-28T13:44:22Z</time>
      </trkpt>
      <trkpt lat="44.47763" lon="4.63643">
        <ele>347.79998779297</ele>
        <time>2020-02-28T13:44:23Z</time>
      </trkpt>
      <trkpt lat="44.47763" lon="4.63643">
        <ele>348</ele>
        <time>2020-02-28T13:44:24Z</time>
      </trkpt>
      <trkpt lat="44.47762" lon="4.6364">
        <ele>348</ele>
        <time>2020-02-28T13:44:25Z</time>
      </trkpt>
      <trkpt lat="44.47761" lon="4.63638">
        <ele>348.20001220703</ele>
        <time>2020-02-28T13:44:26Z</time>
      </trkpt>
      <trkpt lat="44.47761" lon="4.63638">
        <ele>348.39999389648</ele>
        <time>2020-02-28T13:44:27Z</time>
      </trkpt>
      <trkpt lat="44.4776" lon="4.63636">
        <ele>348.39999389648</ele>
        <time>2020-02-28T13:44:28Z</time>
      </trkpt>
      <trkpt lat="44.47758" lon="4.63633">
        <ele>348.60000610352</ele>
        <time>2020-02-28T13:44:29Z</time>
      </trkpt>
      <trkpt lat="44.47757" lon="4.6363">
        <ele>348.60000610352</ele>
        <time>2020-02-28T13:44:30Z</time>
      </trkpt>
      <trkpt lat="44.47756" lon="4.63628">
        <ele>348.79998779297</ele>
        <time>2020-02-28T13:44:31Z</time>
      </trkpt>
      <trkpt lat="44.47755" lon="4.63626">
        <ele>349</ele>
        <time>2020-02-28T13:44:32Z</time>
      </trkpt>
      <trkpt lat="44.47754" lon="4.63624">
        <ele>349</ele>
        <time>2020-02-28T13:44:33Z</time>
      </trkpt>
      <trkpt lat="44.47753" lon="4.63623">
        <ele>349.39999389648</ele>
        <time>2020-02-28T13:44:34Z</time>
      </trkpt>
      <trkpt lat="44.47753" lon="4.63621">
        <ele>349.60000610352</ele>
        <time>2020-02-28T13:44:35Z</time>
      </trkpt>
      <trkpt lat="44.47752" lon="4.63619">
        <ele>349.60000610352</ele>
        <time>2020-02-28T13:44:36Z</time>
      </trkpt>
      <trkpt lat="44.47752" lon="4.63617">
        <ele>349.79998779297</ele>
        <time>2020-02-28T13:44:37Z</time>
      </trkpt>
      <trkpt lat="44.47752" lon="4.63617">
        <ele>350</ele>
        <time>2020-02-28T13:44:38Z</time>
      </trkpt>
      <trkpt lat="44.47751" lon="4.63613">
        <ele>350.39999389648</ele>
        <time>2020-02-28T13:44:39Z</time>
      </trkpt>
      <trkpt lat="44.4775" lon="4.63612">
        <ele>350.60000610352</ele>
        <time>2020-02-28T13:44:40Z</time>
      </trkpt>
      <trkpt lat="44.4775" lon="4.6361">
        <ele>350.79998779297</ele>
        <time>2020-02-28T13:44:41Z</time>
      </trkpt>
      <trkpt lat="44.47749" lon="4.63609">
        <ele>351</ele>
        <time>2020-02-28T13:44:42Z</time>
      </trkpt>
      <trkpt lat="44.47749" lon="4.63609">
        <ele>351.39999389648</ele>
        <time>2020-02-28T13:44:43Z</time>
      </trkpt>
      <trkpt lat="44.47748" lon="4.63606">
        <ele>351.79998779297</ele>
        <time>2020-02-28T13:44:44Z</time>
      </trkpt>
      <trkpt lat="44.47748" lon="4.63606">
        <ele>351.79998779297</ele>
        <time>2020-02-28T13:44:45Z</time>
      </trkpt>
      <trkpt lat="44.47747" lon="4.63605">
        <ele>352.39999389648</ele>
        <time>2020-02-28T13:44:46Z</time>
      </trkpt>
      <trkpt lat="44.47746" lon="4.63603">
        <ele>352.60000610352</ele>
        <time>2020-02-28T13:44:47Z</time>
      </trkpt>
      <trkpt lat="44.47746" lon="4.63601">
        <ele>352.60000610352</ele>
        <time>2020-02-28T13:44:48Z</time>
      </trkpt>
      <trkpt lat="44.47745" lon="4.63599">
        <ele>352.79998779297</ele>
        <time>2020-02-28T13:44:49Z</time>
      </trkpt>
      <trkpt lat="44.47745" lon="4.63598">
        <ele>352.79998779297</ele>
        <time>2020-02-28T13:44:50Z</time>
      </trkpt>
      <trkpt lat="44.47745" lon="4.63596">
        <ele>353</ele>
        <time>2020-02-28T13:44:51Z</time>
      </trkpt>
      <trkpt lat="44.47745" lon="4.63595">
        <ele>353.20001220703</ele>
        <time>2020-02-28T13:44:52Z</time>
      </trkpt>
      <trkpt lat="44.47745" lon="4.63593">
        <ele>353.60000610352</ele>
        <time>2020-02-28T13:44:53Z</time>
      </trkpt>
      <trkpt lat="44.47744" lon="4.63592">
        <ele>353.79998779297</ele>
        <time>2020-02-28T13:44:54Z</time>
      </trkpt>
      <trkpt lat="44.47744" lon="4.63592">
        <ele>354.20001220703</ele>
        <time>2020-02-28T13:44:55Z</time>
      </trkpt>
      <trkpt lat="44.47745" lon="4.63592">
        <ele>354.60000610352</ele>
        <time>2020-02-28T13:44:57Z</time>
      </trkpt>
      <trkpt lat="44.47744" lon="4.63591">
        <ele>355</ele>
        <time>2020-02-28T13:44:58Z</time>
      </trkpt>
      <trkpt lat="44.47744" lon="4.6359">
        <ele>355.20001220703</ele>
        <time>2020-02-28T13:44:59Z</time>
      </trkpt>
      <trkpt lat="44.47744" lon="4.6359">
        <ele>355.60000610352</ele>
        <time>2020-02-28T13:45:00Z</time>
      </trkpt>
      <trkpt lat="44.47743" lon="4.63588">
        <ele>355.79998779297</ele>
        <time>2020-02-28T13:45:01Z</time>
      </trkpt>
      <trkpt lat="44.47743" lon="4.63587">
        <ele>356.20001220703</ele>
        <time>2020-02-28T13:45:02Z</time>
      </trkpt>
      <trkpt lat="44.47744" lon="4.63586">
        <ele>356.39999389648</ele>
        <time>2020-02-28T13:45:03Z</time>
      </trkpt>
      <trkpt lat="44.47744" lon="4.63585">
        <ele>357</ele>
        <time>2020-02-28T13:45:07Z</time>
      </trkpt>
      <trkpt lat="44.47744" lon="4.63585">
        <ele>357</ele>
        <time>2020-02-28T13:45:08Z</time>
      </trkpt>
      <trkpt lat="44.47744" lon="4.63584">
        <ele>357</ele>
        <time>2020-02-28T13:45:11Z</time>
      </trkpt>
      <trkpt lat="44.47744" lon="4.63582">
        <ele>357</ele>
        <time>2020-02-28T13:45:12Z</time>
      </trkpt>
      <trkpt lat="44.47743" lon="4.63581">
        <ele>357.20001220703</ele>
        <time>2020-02-28T13:45:14Z</time>
      </trkpt>
      <trkpt lat="44.47743" lon="4.63581">
        <ele>357.60000610352</ele>
        <time>2020-02-28T13:45:25Z</time>
      </trkpt>
      <trkpt lat="44.47744" lon="4.6358">
        <ele>357.79998779297</ele>
        <time>2020-02-28T13:45:29Z</time>
      </trkpt>
      <trkpt lat="44.47745" lon="4.63579">
        <ele>357.60000610352</ele>
        <time>2020-02-28T13:45:30Z</time>
      </trkpt>
      <trkpt lat="44.47746" lon="4.63579">
        <ele>357.60000610352</ele>
        <time>2020-02-28T13:45:31Z</time>
      </trkpt>
      <trkpt lat="44.47747" lon="4.63579">
        <ele>357.60000610352</ele>
        <time>2020-02-28T13:45:32Z</time>
      </trkpt>
      <trkpt lat="44.47749" lon="4.63578">
        <ele>357.79998779297</ele>
        <time>2020-02-28T13:45:33Z</time>
      </trkpt>
      <trkpt lat="44.4775" lon="4.63578">
        <ele>357.60000610352</ele>
        <time>2020-02-28T13:45:34Z</time>
      </trkpt>
      <trkpt lat="44.47752" lon="4.63577">
        <ele>357.60000610352</ele>
        <time>2020-02-28T13:45:35Z</time>
      </trkpt>
      <trkpt lat="44.47753" lon="4.63577">
        <ele>357.79998779297</ele>
        <time>2020-02-28T13:45:36Z</time>
      </trkpt>
      <trkpt lat="44.47755" lon="4.63577">
        <ele>357.60000610352</ele>
        <time>2020-02-28T13:45:37Z</time>
      </trkpt>
      <trkpt lat="44.47756" lon="4.63577">
        <ele>357.79998779297</ele>
        <time>2020-02-28T13:45:38Z</time>
      </trkpt>
      <trkpt lat="44.47758" lon="4.63577">
        <ele>357.79998779297</ele>
        <time>2020-02-28T13:45:39Z</time>
      </trkpt>
      <trkpt lat="44.4776" lon="4.63577">
        <ele>358</ele>
        <time>2020-02-28T13:45:40Z</time>
      </trkpt>
      <trkpt lat="44.47761" lon="4.63577">
        <ele>358</ele>
        <time>2020-02-28T13:45:41Z</time>
      </trkpt>
      <trkpt lat="44.47762" lon="4.63577">
        <ele>358.20001220703</ele>
        <time>2020-02-28T13:45:42Z</time>
      </trkpt>
      <trkpt lat="44.47764" lon="4.63577">
        <ele>358.60000610352</ele>
        <time>2020-02-28T13:45:43Z</time>
      </trkpt>
      <trkpt lat="44.47765" lon="4.63578">
        <ele>358.79998779297</ele>
        <time>2020-02-28T13:45:44Z</time>
      </trkpt>
      <trkpt lat="44.47766" lon="4.63578">
        <ele>359</ele>
        <time>2020-02-28T13:45:45Z</time>
      </trkpt>
      <trkpt lat="44.47767" lon="4.63578">
        <ele>359.20001220703</ele>
        <time>2020-02-28T13:45:46Z</time>
      </trkpt>
      <trkpt lat="44.47769" lon="4.63579">
        <ele>359.60000610352</ele>
        <time>2020-02-28T13:45:47Z</time>
      </trkpt>
      <trkpt lat="44.4777" lon="4.63579">
        <ele>360.20001220703</ele>
        <time>2020-02-28T13:45:48Z</time>
      </trkpt>
      <trkpt lat="44.47772" lon="4.6358">
        <ele>360.39999389648</ele>
        <time>2020-02-28T13:45:49Z</time>
      </trkpt>
      <trkpt lat="44.47774" lon="4.6358">
        <ele>360.60000610352</ele>
        <time>2020-02-28T13:45:50Z</time>
      </trkpt>
      <trkpt lat="44.47775" lon="4.6358">
        <ele>361</ele>
        <time>2020-02-28T13:45:51Z</time>
      </trkpt>
      <trkpt lat="44.47777" lon="4.6358">
        <ele>361.20001220703</ele>
        <time>2020-02-28T13:45:52Z</time>
      </trkpt>
      <trkpt lat="44.47779" lon="4.6358">
        <ele>361.60000610352</ele>
        <time>2020-02-28T13:45:53Z</time>
      </trkpt>
      <trkpt lat="44.4778" lon="4.6358">
        <ele>361.60000610352</ele>
        <time>2020-02-28T13:45:54Z</time>
      </trkpt>
      <trkpt lat="44.4778" lon="4.6358">
        <ele>361.79998779297</ele>
        <time>2020-02-28T13:45:55Z</time>
      </trkpt>
      <trkpt lat="44.47784" lon="4.63579">
        <ele>362.20001220703</ele>
        <time>2020-02-28T13:45:56Z</time>
      </trkpt>
      <trkpt lat="44.47786" lon="4.63578">
        <ele>362.39999389648</ele>
        <time>2020-02-28T13:45:57Z</time>
      </trkpt>
      <trkpt lat="44.47788" lon="4.63578">
        <ele>362.39999389648</ele>
        <time>2020-02-28T13:45:58Z</time>
      </trkpt>
      <trkpt lat="44.4779" lon="4.63577">
        <ele>362.60000610352</ele>
        <time>2020-02-28T13:45:59Z</time>
      </trkpt>
      <trkpt lat="44.47792" lon="4.63577">
        <ele>362.79998779297</ele>
        <time>2020-02-28T13:46:00Z</time>
      </trkpt>
      <trkpt lat="44.47794" lon="4.63576">
        <ele>363.39999389648</ele>
        <time>2020-02-28T13:46:01Z</time>
      </trkpt>
      <trkpt lat="44.47796" lon="4.63576">
        <ele>363.60000610352</ele>
        <time>2020-02-28T13:46:02Z</time>
      </trkpt>
      <trkpt lat="44.47798" lon="4.63574">
        <ele>363.79998779297</ele>
        <time>2020-02-28T13:46:03Z</time>
      </trkpt>
      <trkpt lat="44.47799" lon="4.63573">
        <ele>364</ele>
        <time>2020-02-28T13:46:04Z</time>
      </trkpt>
      <trkpt lat="44.478" lon="4.6357">
        <ele>364</ele>
        <time>2020-02-28T13:46:05Z</time>
      </trkpt>
      <trkpt lat="44.47801" lon="4.63568">
        <ele>364</ele>
        <time>2020-02-28T13:46:06Z</time>
      </trkpt>
      <trkpt lat="44.47801" lon="4.63568">
        <ele>364.39999389648</ele>
        <time>2020-02-28T13:46:07Z</time>
      </trkpt>
      <trkpt lat="44.47803" lon="4.63563">
        <ele>364.79998779297</ele>
        <time>2020-02-28T13:46:08Z</time>
      </trkpt>
      <trkpt lat="44.47803" lon="4.6356">
        <ele>365</ele>
        <time>2020-02-28T13:46:09Z</time>
      </trkpt>
      <trkpt lat="44.47803" lon="4.63558">
        <ele>365.20001220703</ele>
        <time>2020-02-28T13:46:10Z</time>
      </trkpt>
      <trkpt lat="44.47802" lon="4.63555">
        <ele>365</ele>
        <time>2020-02-28T13:46:11Z</time>
      </trkpt>
      <trkpt lat="44.47802" lon="4.63552">
        <ele>365.20001220703</ele>
        <time>2020-02-28T13:46:12Z</time>
      </trkpt>
      <trkpt lat="44.47802" lon="4.63548">
        <ele>365.60000610352</ele>
        <time>2020-02-28T13:46:13Z</time>
      </trkpt>
      <trkpt lat="44.47803" lon="4.63545">
        <ele>365.60000610352</ele>
        <time>2020-02-28T13:46:14Z</time>
      </trkpt>
      <trkpt lat="44.47804" lon="4.63542">
        <ele>365.60000610352</ele>
        <time>2020-02-28T13:46:15Z</time>
      </trkpt>
      <trkpt lat="44.47805" lon="4.63539">
        <ele>365.79998779297</ele>
        <time>2020-02-28T13:46:16Z</time>
      </trkpt>
      <trkpt lat="44.47806" lon="4.63536">
        <ele>366</ele>
        <time>2020-02-28T13:46:17Z</time>
      </trkpt>
      <trkpt lat="44.47806" lon="4.63533">
        <ele>366.20001220703</ele>
        <time>2020-02-28T13:46:18Z</time>
      </trkpt>
      <trkpt lat="44.47807" lon="4.6353">
        <ele>366.60000610352</ele>
        <time>2020-02-28T13:46:19Z</time>
      </trkpt>
      <trkpt lat="44.47808" lon="4.63527">
        <ele>366.60000610352</ele>
        <time>2020-02-28T13:46:20Z</time>
      </trkpt>
      <trkpt lat="44.47811" lon="4.6352">
        <ele>366.60000610352</ele>
        <time>2020-02-28T13:46:22Z</time>
      </trkpt>
      <trkpt lat="44.47814" lon="4.63516">
        <ele>366.60000610352</ele>
        <time>2020-02-28T13:46:24Z</time>
      </trkpt>
      <trkpt lat="44.47816" lon="4.63515">
        <ele>366.60000610352</ele>
        <time>2020-02-28T13:46:25Z</time>
      </trkpt>
      <trkpt lat="44.47817" lon="4.63514">
        <ele>366.79998779297</ele>
        <time>2020-02-28T13:46:26Z</time>
      </trkpt>
      <trkpt lat="44.47819" lon="4.63514">
        <ele>366.60000610352</ele>
        <time>2020-02-28T13:46:27Z</time>
      </trkpt>
      <trkpt lat="44.47821" lon="4.63514">
        <ele>366.60000610352</ele>
        <time>2020-02-28T13:46:28Z</time>
      </trkpt>
      <trkpt lat="44.47826" lon="4.63515">
        <ele>366.60000610352</ele>
        <time>2020-02-28T13:46:30Z</time>
      </trkpt>
      <trkpt lat="44.47827" lon="4.63515">
        <ele>366.60000610352</ele>
        <time>2020-02-28T13:46:31Z</time>
      </trkpt>
      <trkpt lat="44.47829" lon="4.63515">
        <ele>366.60000610352</ele>
        <time>2020-02-28T13:46:32Z</time>
      </trkpt>
      <trkpt lat="44.47831" lon="4.63515">
        <ele>366.60000610352</ele>
        <time>2020-02-28T13:46:33Z</time>
      </trkpt>
      <trkpt lat="44.47832" lon="4.63515">
        <ele>366.79998779297</ele>
        <time>2020-02-28T13:46:34Z</time>
      </trkpt>
      <trkpt lat="44.47833" lon="4.63515">
        <ele>367</ele>
        <time>2020-02-28T13:46:35Z</time>
      </trkpt>
      <trkpt lat="44.47835" lon="4.63515">
        <ele>367</ele>
        <time>2020-02-28T13:46:36Z</time>
      </trkpt>
      <trkpt lat="44.47836" lon="4.63515">
        <ele>367.20001220703</ele>
        <time>2020-02-28T13:46:37Z</time>
      </trkpt>
      <trkpt lat="44.47838" lon="4.63516">
        <ele>367.20001220703</ele>
        <time>2020-02-28T13:46:38Z</time>
      </trkpt>
      <trkpt lat="44.47838" lon="4.63516">
        <ele>367</ele>
        <time>2020-02-28T13:46:39Z</time>
      </trkpt>
      <trkpt lat="44.47839" lon="4.63516">
        <ele>367.20001220703</ele>
        <time>2020-02-28T13:46:40Z</time>
      </trkpt>
      <trkpt lat="44.47842" lon="4.63517">
        <ele>367.20001220703</ele>
        <time>2020-02-28T13:46:41Z</time>
      </trkpt>
      <trkpt lat="44.47844" lon="4.63518">
        <ele>367.60000610352</ele>
        <time>2020-02-28T13:46:42Z</time>
      </trkpt>
      <trkpt lat="44.47845" lon="4.63518">
        <ele>367.79998779297</ele>
        <time>2020-02-28T13:46:43Z</time>
      </trkpt>
      <trkpt lat="44.47847" lon="4.63518">
        <ele>368.20001220703</ele>
        <time>2020-02-28T13:46:44Z</time>
      </trkpt>
      <trkpt lat="44.47849" lon="4.63518">
        <ele>368.39999389648</ele>
        <time>2020-02-28T13:46:45Z</time>
      </trkpt>
      <trkpt lat="44.47851" lon="4.63517">
        <ele>368.39999389648</ele>
        <time>2020-02-28T13:46:46Z</time>
      </trkpt>
      <trkpt lat="44.47852" lon="4.63516">
        <ele>368.39999389648</ele>
        <time>2020-02-28T13:46:47Z</time>
      </trkpt>
      <trkpt lat="44.47854" lon="4.63514">
        <ele>368.79998779297</ele>
        <time>2020-02-28T13:46:48Z</time>
      </trkpt>
      <trkpt lat="44.47855" lon="4.63511">
        <ele>369</ele>
        <time>2020-02-28T13:46:49Z</time>
      </trkpt>
      <trkpt lat="44.47856" lon="4.63508">
        <ele>369.20001220703</ele>
        <time>2020-02-28T13:46:50Z</time>
      </trkpt>
      <trkpt lat="44.47858" lon="4.63502">
        <ele>369.79998779297</ele>
        <time>2020-02-28T13:46:52Z</time>
      </trkpt>
      <trkpt lat="44.4786" lon="4.635">
        <ele>370.20001220703</ele>
        <time>2020-02-28T13:46:53Z</time>
      </trkpt>
      <trkpt lat="44.47861" lon="4.63497">
        <ele>370.20001220703</ele>
        <time>2020-02-28T13:46:54Z</time>
      </trkpt>
      <trkpt lat="44.47862" lon="4.63494">
        <ele>370.39999389648</ele>
        <time>2020-02-28T13:46:55Z</time>
      </trkpt>
      <trkpt lat="44.47863" lon="4.63491">
        <ele>370.39999389648</ele>
        <time>2020-02-28T13:46:56Z</time>
      </trkpt>
      <trkpt lat="44.47866" lon="4.63485">
        <ele>370.60000610352</ele>
        <time>2020-02-28T13:46:58Z</time>
      </trkpt>
      <trkpt lat="44.47867" lon="4.63482">
        <ele>370.39999389648</ele>
        <time>2020-02-28T13:46:59Z</time>
      </trkpt>
      <trkpt lat="44.47867" lon="4.63479">
        <ele>370.60000610352</ele>
        <time>2020-02-28T13:47:00Z</time>
      </trkpt>
      <trkpt lat="44.47868" lon="4.63476">
        <ele>370.60000610352</ele>
        <time>2020-02-28T13:47:01Z</time>
      </trkpt>
      <trkpt lat="44.47868" lon="4.63473">
        <ele>370.60000610352</ele>
        <time>2020-02-28T13:47:02Z</time>
      </trkpt>
      <trkpt lat="44.47867" lon="4.63471">
        <ele>370.60000610352</ele>
        <time>2020-02-28T13:47:03Z</time>
      </trkpt>
      <trkpt lat="44.47866" lon="4.63469">
        <ele>370.79998779297</ele>
        <time>2020-02-28T13:47:04Z</time>
      </trkpt>
      <trkpt lat="44.47865" lon="4.63467">
        <ele>370.60000610352</ele>
        <time>2020-02-28T13:47:05Z</time>
      </trkpt>
      <trkpt lat="44.47864" lon="4.63465">
        <ele>370.79998779297</ele>
        <time>2020-02-28T13:47:06Z</time>
      </trkpt>
      <trkpt lat="44.47863" lon="4.63463">
        <ele>370.79998779297</ele>
        <time>2020-02-28T13:47:07Z</time>
      </trkpt>
      <trkpt lat="44.47862" lon="4.63461">
        <ele>370.79998779297</ele>
        <time>2020-02-28T13:47:08Z</time>
      </trkpt>
      <trkpt lat="44.47861" lon="4.63459">
        <ele>371.20001220703</ele>
        <time>2020-02-28T13:47:09Z</time>
      </trkpt>
      <trkpt lat="44.4786" lon="4.63458">
        <ele>371.39999389648</ele>
        <time>2020-02-28T13:47:10Z</time>
      </trkpt>
      <trkpt lat="44.4786" lon="4.63457">
        <ele>371.39999389648</ele>
        <time>2020-02-28T13:47:11Z</time>
      </trkpt>
      <trkpt lat="44.47859" lon="4.63456">
        <ele>372</ele>
        <time>2020-02-28T13:47:31Z</time>
      </trkpt>
      <trkpt lat="44.47859" lon="4.63456">
        <ele>372.20001220703</ele>
        <time>2020-02-28T13:48:13Z</time>
      </trkpt>
      <trkpt lat="44.47859" lon="4.63456">
        <ele>372</ele>
        <time>2020-02-28T13:48:38Z</time>
      </trkpt>
      <trkpt lat="44.47859" lon="4.63456">
        <ele>372.20001220703</ele>
        <time>2020-02-28T13:48:41Z</time>
      </trkpt>
      <trkpt lat="44.47859" lon="4.63455">
        <ele>372</ele>
        <time>2020-02-28T13:48:58Z</time>
      </trkpt>
      <trkpt lat="44.47858" lon="4.63451">
        <ele>372.20001220703</ele>
        <time>2020-02-28T13:49:00Z</time>
      </trkpt>
      <trkpt lat="44.47857" lon="4.63449">
        <ele>372.20001220703</ele>
        <time>2020-02-28T13:49:01Z</time>
      </trkpt>
      <trkpt lat="44.47855" lon="4.63447">
        <ele>372</ele>
        <time>2020-02-28T13:49:02Z</time>
      </trkpt>
      <trkpt lat="44.47853" lon="4.63445">
        <ele>372</ele>
        <time>2020-02-28T13:49:03Z</time>
      </trkpt>
      <trkpt lat="44.47848" lon="4.63442">
        <ele>372</ele>
        <time>2020-02-28T13:49:04Z</time>
      </trkpt>
      <trkpt lat="44.47845" lon="4.63442">
        <ele>372</ele>
        <time>2020-02-28T13:49:05Z</time>
      </trkpt>
      <trkpt lat="44.47836" lon="4.6344">
        <ele>372</ele>
        <time>2020-02-28T13:49:08Z</time>
      </trkpt>
      <trkpt lat="44.47829" lon="4.63439">
        <ele>372</ele>
        <time>2020-02-28T13:49:10Z</time>
      </trkpt>
      <trkpt lat="44.47825" lon="4.63439">
        <ele>372</ele>
        <time>2020-02-28T13:49:11Z</time>
      </trkpt>
      <trkpt lat="44.47822" lon="4.63438">
        <ele>372</ele>
        <time>2020-02-28T13:49:12Z</time>
      </trkpt>
      <trkpt lat="44.47822" lon="4.63438">
        <ele>371.79998779297</ele>
        <time>2020-02-28T13:49:13Z</time>
      </trkpt>
      <trkpt lat="44.47815" lon="4.63437">
        <ele>371.79998779297</ele>
        <time>2020-02-28T13:49:14Z</time>
      </trkpt>
      <trkpt lat="44.47812" lon="4.63437">
        <ele>372</ele>
        <time>2020-02-28T13:49:15Z</time>
      </trkpt>
      <trkpt lat="44.47809" lon="4.63436">
        <ele>372</ele>
        <time>2020-02-28T13:49:16Z</time>
      </trkpt>
      <trkpt lat="44.47806" lon="4.63436">
        <ele>372</ele>
        <time>2020-02-28T13:49:17Z</time>
      </trkpt>
      <trkpt lat="44.47803" lon="4.63435">
        <ele>372</ele>
        <time>2020-02-28T13:49:18Z</time>
      </trkpt>
      <trkpt lat="44.47801" lon="4.63434">
        <ele>372.39999389648</ele>
        <time>2020-02-28T13:49:19Z</time>
      </trkpt>
      <trkpt lat="44.47801" lon="4.63434">
        <ele>372.60000610352</ele>
        <time>2020-02-28T13:49:20Z</time>
      </trkpt>
      <trkpt lat="44.47795" lon="4.63432">
        <ele>372.79998779297</ele>
        <time>2020-02-28T13:49:21Z</time>
      </trkpt>
      <trkpt lat="44.47792" lon="4.63431">
        <ele>372.79998779297</ele>
        <time>2020-02-28T13:49:22Z</time>
      </trkpt>
      <trkpt lat="44.47792" lon="4.63431">
        <ele>373</ele>
        <time>2020-02-28T13:49:23Z</time>
      </trkpt>
      <trkpt lat="44.47787" lon="4.63429">
        <ele>373</ele>
        <time>2020-02-28T13:49:24Z</time>
      </trkpt>
      <trkpt lat="44.47784" lon="4.63428">
        <ele>373</ele>
        <time>2020-02-28T13:49:25Z</time>
      </trkpt>
      <trkpt lat="44.47781" lon="4.63427">
        <ele>373.39999389648</ele>
        <time>2020-02-28T13:49:26Z</time>
      </trkpt>
      <trkpt lat="44.47778" lon="4.63427">
        <ele>373.60000610352</ele>
        <time>2020-02-28T13:49:27Z</time>
      </trkpt>
      <trkpt lat="44.47776" lon="4.63427">
        <ele>373.79998779297</ele>
        <time>2020-02-28T13:49:28Z</time>
      </trkpt>
      <trkpt lat="44.47773" lon="4.63426">
        <ele>374.20001220703</ele>
        <time>2020-02-28T13:49:29Z</time>
      </trkpt>
      <trkpt lat="44.47771" lon="4.63426">
        <ele>374.20001220703</ele>
        <time>2020-02-28T13:49:30Z</time>
      </trkpt>
      <trkpt lat="44.47769" lon="4.63425">
        <ele>374.20001220703</ele>
        <time>2020-02-28T13:49:31Z</time>
      </trkpt>
      <trkpt lat="44.47767" lon="4.63424">
        <ele>374.39999389648</ele>
        <time>2020-02-28T13:49:32Z</time>
      </trkpt>
      <trkpt lat="44.47764" lon="4.63424">
        <ele>374.60000610352</ele>
        <time>2020-02-28T13:49:33Z</time>
      </trkpt>
      <trkpt lat="44.47761" lon="4.63423">
        <ele>374.79998779297</ele>
        <time>2020-02-28T13:49:34Z</time>
      </trkpt>
      <trkpt lat="44.47759" lon="4.63422">
        <ele>375</ele>
        <time>2020-02-28T13:49:35Z</time>
      </trkpt>
      <trkpt lat="44.47756" lon="4.63421">
        <ele>375.20001220703</ele>
        <time>2020-02-28T13:49:36Z</time>
      </trkpt>
      <trkpt lat="44.47753" lon="4.63421">
        <ele>375.39999389648</ele>
        <time>2020-02-28T13:49:37Z</time>
      </trkpt>
      <trkpt lat="44.4775" lon="4.6342">
        <ele>375.60000610352</ele>
        <time>2020-02-28T13:49:38Z</time>
      </trkpt>
      <trkpt lat="44.47748" lon="4.63419">
        <ele>376</ele>
        <time>2020-02-28T13:49:39Z</time>
      </trkpt>
      <trkpt lat="44.47745" lon="4.63419">
        <ele>376</ele>
        <time>2020-02-28T13:49:40Z</time>
      </trkpt>
      <trkpt lat="44.47742" lon="4.63419">
        <ele>376.20001220703</ele>
        <time>2020-02-28T13:49:41Z</time>
      </trkpt>
      <trkpt lat="44.47739" lon="4.63419">
        <ele>376.20001220703</ele>
        <time>2020-02-28T13:49:42Z</time>
      </trkpt>
      <trkpt lat="44.47737" lon="4.63419">
        <ele>376.39999389648</ele>
        <time>2020-02-28T13:49:43Z</time>
      </trkpt>
      <trkpt lat="44.47734" lon="4.63418">
        <ele>376.39999389648</ele>
        <time>2020-02-28T13:49:44Z</time>
      </trkpt>
      <trkpt lat="44.47731" lon="4.63417">
        <ele>376.39999389648</ele>
        <time>2020-02-28T13:49:45Z</time>
      </trkpt>
      <trkpt lat="44.47728" lon="4.63416">
        <ele>376.60000610352</ele>
        <time>2020-02-28T13:49:46Z</time>
      </trkpt>
      <trkpt lat="44.47725" lon="4.63415">
        <ele>376.79998779297</ele>
        <time>2020-02-28T13:49:47Z</time>
      </trkpt>
      <trkpt lat="44.47723" lon="4.63413">
        <ele>377</ele>
        <time>2020-02-28T13:49:48Z</time>
      </trkpt>
      <trkpt lat="44.4772" lon="4.63412">
        <ele>377.20001220703</ele>
        <time>2020-02-28T13:49:49Z</time>
      </trkpt>
      <trkpt lat="44.47717" lon="4.63411">
        <ele>377.20001220703</ele>
        <time>2020-02-28T13:49:50Z</time>
      </trkpt>
      <trkpt lat="44.47714" lon="4.6341">
        <ele>377.20001220703</ele>
        <time>2020-02-28T13:49:51Z</time>
      </trkpt>
      <trkpt lat="44.47711" lon="4.6341">
        <ele>377.60000610352</ele>
        <time>2020-02-28T13:49:52Z</time>
      </trkpt>
      <trkpt lat="44.47705" lon="4.63407">
        <ele>378</ele>
        <time>2020-02-28T13:49:54Z</time>
      </trkpt>
      <trkpt lat="44.47703" lon="4.63406">
        <ele>378.20001220703</ele>
        <time>2020-02-28T13:49:55Z</time>
      </trkpt>
      <trkpt lat="44.477" lon="4.63406">
        <ele>378.20001220703</ele>
        <time>2020-02-28T13:49:56Z</time>
      </trkpt>
      <trkpt lat="44.47697" lon="4.63405">
        <ele>378.39999389648</ele>
        <time>2020-02-28T13:49:57Z</time>
      </trkpt>
      <trkpt lat="44.47697" lon="4.63405">
        <ele>378.39999389648</ele>
        <time>2020-02-28T13:49:58Z</time>
      </trkpt>
      <trkpt lat="44.47694" lon="4.63403">
        <ele>378.39999389648</ele>
        <time>2020-02-28T13:49:59Z</time>
      </trkpt>
      <trkpt lat="44.47691" lon="4.63402">
        <ele>378.60000610352</ele>
        <time>2020-02-28T13:50:00Z</time>
      </trkpt>
      <trkpt lat="44.47682" lon="4.634">
        <ele>378.60000610352</ele>
        <time>2020-02-28T13:50:02Z</time>
      </trkpt>
      <trkpt lat="44.4767" lon="4.63397">
        <ele>378.79998779297</ele>
        <time>2020-02-28T13:50:05Z</time>
      </trkpt>
      <trkpt lat="44.47665" lon="4.63395">
        <ele>378.79998779297</ele>
        <time>2020-02-28T13:50:06Z</time>
      </trkpt>
      <trkpt lat="44.47655" lon="4.63391">
        <ele>378.79998779297</ele>
        <time>2020-02-28T13:50:09Z</time>
      </trkpt>
      <trkpt lat="44.47651" lon="4.63387">
        <ele>378.79998779297</ele>
        <time>2020-02-28T13:50:10Z</time>
      </trkpt>
      <trkpt lat="44.47647" lon="4.63383">
        <ele>378.79998779297</ele>
        <time>2020-02-28T13:50:11Z</time>
      </trkpt>
      <trkpt lat="44.47643" lon="4.63379">
        <ele>378.79998779297</ele>
        <time>2020-02-28T13:50:12Z</time>
      </trkpt>
      <trkpt lat="44.47637" lon="4.63375">
        <ele>378.79998779297</ele>
        <time>2020-02-28T13:50:13Z</time>
      </trkpt>
      <trkpt lat="44.47632" lon="4.63372">
        <ele>378.39999389648</ele>
        <time>2020-02-28T13:50:14Z</time>
      </trkpt>
      <trkpt lat="44.4762" lon="4.63369">
        <ele>377.79998779297</ele>
        <time>2020-02-28T13:50:15Z</time>
      </trkpt>
      <trkpt lat="44.47615" lon="4.63367">
        <ele>377.60000610352</ele>
        <time>2020-02-28T13:50:16Z</time>
      </trkpt>
      <trkpt lat="44.4761" lon="4.63365">
        <ele>377.39999389648</ele>
        <time>2020-02-28T13:50:17Z</time>
      </trkpt>
      <trkpt lat="44.47606" lon="4.63363">
        <ele>377.39999389648</ele>
        <time>2020-02-28T13:50:18Z</time>
      </trkpt>
      <trkpt lat="44.47606" lon="4.63363">
        <ele>377</ele>
        <time>2020-02-28T13:50:19Z</time>
      </trkpt>
      <trkpt lat="44.47597" lon="4.63361">
        <ele>376.60000610352</ele>
        <time>2020-02-28T13:50:20Z</time>
      </trkpt>
      <trkpt lat="44.47592" lon="4.63362">
        <ele>376.39999389648</ele>
        <time>2020-02-28T13:50:21Z</time>
      </trkpt>
      <trkpt lat="44.47587" lon="4.63362">
        <ele>376.39999389648</ele>
        <time>2020-02-28T13:50:22Z</time>
      </trkpt>
      <trkpt lat="44.47579" lon="4.63362">
        <ele>375.79998779297</ele>
        <time>2020-02-28T13:50:24Z</time>
      </trkpt>
      <trkpt lat="44.47574" lon="4.63362">
        <ele>375.79998779297</ele>
        <time>2020-02-28T13:50:25Z</time>
      </trkpt>
      <trkpt lat="44.4757" lon="4.63362">
        <ele>375.79998779297</ele>
        <time>2020-02-28T13:50:26Z</time>
      </trkpt>
      <trkpt lat="44.47566" lon="4.63361">
        <ele>375.79998779297</ele>
        <time>2020-02-28T13:50:27Z</time>
      </trkpt>
      <trkpt lat="44.47562" lon="4.63361">
        <ele>375.79998779297</ele>
        <time>2020-02-28T13:50:28Z</time>
      </trkpt>
      <trkpt lat="44.47558" lon="4.6336">
        <ele>375.79998779297</ele>
        <time>2020-02-28T13:50:29Z</time>
      </trkpt>
      <trkpt lat="44.47554" lon="4.63359">
        <ele>375.79998779297</ele>
        <time>2020-02-28T13:50:30Z</time>
      </trkpt>
      <trkpt lat="44.4755" lon="4.63359">
        <ele>375.60000610352</ele>
        <time>2020-02-28T13:50:31Z</time>
      </trkpt>
      <trkpt lat="44.47547" lon="4.63358">
        <ele>375.60000610352</ele>
        <time>2020-02-28T13:50:32Z</time>
      </trkpt>
      <trkpt lat="44.47547" lon="4.63358">
        <ele>375.60000610352</ele>
        <time>2020-02-28T13:50:33Z</time>
      </trkpt>
      <trkpt lat="44.47539" lon="4.63358">
        <ele>376</ele>
        <time>2020-02-28T13:50:34Z</time>
      </trkpt>
      <trkpt lat="44.47536" lon="4.63358">
        <ele>376.39999389648</ele>
        <time>2020-02-28T13:50:35Z</time>
      </trkpt>
      <trkpt lat="44.47532" lon="4.63357">
        <ele>376.60000610352</ele>
        <time>2020-02-28T13:50:36Z</time>
      </trkpt>
      <trkpt lat="44.47532" lon="4.63357">
        <ele>377</ele>
        <time>2020-02-28T13:50:37Z</time>
      </trkpt>
      <trkpt lat="44.47529" lon="4.63357">
        <ele>377.60000610352</ele>
        <time>2020-02-28T13:50:38Z</time>
      </trkpt>
      <trkpt lat="44.47521" lon="4.63357">
        <ele>377.79998779297</ele>
        <time>2020-02-28T13:50:39Z</time>
      </trkpt>
      <trkpt lat="44.47517" lon="4.63356">
        <ele>378</ele>
        <time>2020-02-28T13:50:40Z</time>
      </trkpt>
      <trkpt lat="44.47517" lon="4.63356">
        <ele>378.20001220703</ele>
        <time>2020-02-28T13:50:41Z</time>
      </trkpt>
      <trkpt lat="44.47505" lon="4.63354">
        <ele>378.79998779297</ele>
        <time>2020-02-28T13:50:43Z</time>
      </trkpt>
      <trkpt lat="44.47505" lon="4.63354">
        <ele>379.20001220703</ele>
        <time>2020-02-28T13:50:44Z</time>
      </trkpt>
      <trkpt lat="44.47493" lon="4.63353">
        <ele>379.39999389648</ele>
        <time>2020-02-28T13:50:46Z</time>
      </trkpt>
      <trkpt lat="44.4748" lon="4.6335">
        <ele>385.20001220703</ele>
        <time>2021-04-14T12:53:49Z</time>
      </trkpt>
      <trkpt lat="44.47477" lon="4.63349">
        <ele>385.20001220703</ele>
        <time>2021-04-14T12:53:50Z</time>
      </trkpt>
      <trkpt lat="44.47474" lon="4.63347">
        <ele>385.39999389648</ele>
        <time>2021-04-14T12:53:51Z</time>
      </trkpt>
      <trkpt lat="44.47471" lon="4.63345">
        <ele>385.39999389648</ele>
        <time>2021-04-14T12:53:52Z</time>
      </trkpt>
      <trkpt lat="44.47469" lon="4.63343">
        <ele>385.60000610352</ele>
        <time>2021-04-14T12:53:53Z</time>
      </trkpt>
      <trkpt lat="44.47461" lon="4.63335">
        <ele>386.20001220703</ele>
        <time>2021-04-14T12:53:56Z</time>
      </trkpt>
      <trkpt lat="44.47459" lon="4.63332">
        <ele>386</ele>
        <time>2021-04-14T12:53:57Z</time>
      </trkpt>
      <trkpt lat="44.47457" lon="4.63331">
        <ele>386</ele>
        <time>2021-04-14T12:53:58Z</time>
      </trkpt>
      <trkpt lat="44.47455" lon="4.6333">
        <ele>386.20001220703</ele>
        <time>2021-04-14T12:53:59Z</time>
      </trkpt>
      <trkpt lat="44.47454" lon="4.6333">
        <ele>386.20001220703</ele>
        <time>2021-04-14T12:54:00Z</time>
      </trkpt>
      <trkpt lat="44.47453" lon="4.63331">
        <ele>386.20001220703</ele>
        <time>2021-04-14T12:54:01Z</time>
      </trkpt>
      <trkpt lat="44.47453" lon="4.63331">
        <ele>386.20001220703</ele>
        <time>2021-04-14T12:54:03Z</time>
      </trkpt>
      <trkpt lat="44.47453" lon="4.63331">
        <ele>385</ele>
        <time>2021-04-14T12:54:12Z</time>
      </trkpt>
      <trkpt lat="44.47453" lon="4.63331">
        <ele>384.79998779297</ele>
        <time>2021-04-14T12:54:19Z</time>
      </trkpt>
      <trkpt lat="44.47453" lon="4.63331">
        <ele>384.79998779297</ele>
        <time>2021-04-14T12:54:21Z</time>
      </trkpt>
      <trkpt lat="44.47453" lon="4.63331">
        <ele>385.20001220703</ele>
        <time>2021-04-14T12:54:36Z</time>
      </trkpt>
      <trkpt lat="44.47451" lon="4.63331">
        <ele>384.79998779297</ele>
        <time>2021-04-14T12:54:47Z</time>
      </trkpt>
      <trkpt lat="44.4745" lon="4.63331">
        <ele>385</ele>
        <time>2021-04-14T12:54:48Z</time>
      </trkpt>
      <trkpt lat="44.4744" lon="4.63332">
        <ele>384.79998779297</ele>
        <time>2021-04-14T12:54:51Z</time>
      </trkpt>
      <trkpt lat="44.47435" lon="4.63332">
        <ele>384.79998779297</ele>
        <time>2021-04-14T12:54:52Z</time>
      </trkpt>
      <trkpt lat="44.47431" lon="4.63331">
        <ele>384.79998779297</ele>
        <time>2021-04-14T12:54:53Z</time>
      </trkpt>
      <trkpt lat="44.47425" lon="4.6333">
        <ele>384.60000610352</ele>
        <time>2021-04-14T12:54:54Z</time>
      </trkpt>
      <trkpt lat="44.47413" lon="4.63327">
        <ele>384.79998779297</ele>
        <time>2021-04-14T12:54:56Z</time>
      </trkpt>
      <trkpt lat="44.47393" lon="4.63323">
        <ele>384</ele>
        <time>2021-04-14T12:54:59Z</time>
      </trkpt>
      <trkpt lat="44.47388" lon="4.63322">
        <ele>383.60000610352</ele>
        <time>2021-04-14T12:55:00Z</time>
      </trkpt>
      <trkpt lat="44.47383" lon="4.63321">
        <ele>382.39999389648</ele>
        <time>2021-04-14T12:55:01Z</time>
      </trkpt>
      <trkpt lat="44.47378" lon="4.6332">
        <ele>381.60000610352</ele>
        <time>2021-04-14T12:55:02Z</time>
      </trkpt>
      <trkpt lat="44.47375" lon="4.63317">
        <ele>381</ele>
        <time>2021-04-14T12:55:03Z</time>
      </trkpt>
      <trkpt lat="44.47371" lon="4.63314">
        <ele>380.60000610352</ele>
        <time>2021-04-14T12:55:04Z</time>
      </trkpt>
      <trkpt lat="44.47367" lon="4.63311">
        <ele>380.60000610352</ele>
        <time>2021-04-14T12:55:05Z</time>
      </trkpt>
      <trkpt lat="44.47363" lon="4.63308">
        <ele>380.60000610352</ele>
        <time>2021-04-14T12:55:06Z</time>
      </trkpt>
      <trkpt lat="44.47354" lon="4.63304">
        <ele>380.39999389648</ele>
        <time>2021-04-14T12:55:08Z</time>
      </trkpt>
      <trkpt lat="44.4735" lon="4.63303">
        <ele>380.39999389648</ele>
        <time>2021-04-14T12:55:09Z</time>
      </trkpt>
      <trkpt lat="44.47345" lon="4.63302">
        <ele>380.39999389648</ele>
        <time>2021-04-14T12:55:10Z</time>
      </trkpt>
      <trkpt lat="44.4734" lon="4.63301">
        <ele>380.39999389648</ele>
        <time>2021-04-14T12:55:11Z</time>
      </trkpt>
      <trkpt lat="44.47336" lon="4.633">
        <ele>380.39999389648</ele>
        <time>2021-04-14T12:55:12Z</time>
      </trkpt>
      <trkpt lat="44.47331" lon="4.633">
        <ele>380.79998779297</ele>
        <time>2021-04-14T12:55:13Z</time>
      </trkpt>
      <trkpt lat="44.47327" lon="4.63299">
        <ele>381</ele>
        <time>2021-04-14T12:55:14Z</time>
      </trkpt>
      <trkpt lat="44.47323" lon="4.63298">
        <ele>381</ele>
        <time>2021-04-14T12:55:15Z</time>
      </trkpt>
      <trkpt lat="44.47299" lon="4.6329">
        <ele>381.39999389648</ele>
        <time>2021-04-14T12:55:20Z</time>
      </trkpt>
      <trkpt lat="44.47294" lon="4.63288">
        <ele>381.39999389648</ele>
        <time>2021-04-14T12:55:21Z</time>
      </trkpt>
      <trkpt lat="44.47289" lon="4.63288">
        <ele>381.20001220703</ele>
        <time>2021-04-14T12:55:22Z</time>
      </trkpt>
      <trkpt lat="44.47274" lon="4.63291">
        <ele>381.39999389648</ele>
        <time>2021-04-14T12:55:25Z</time>
      </trkpt>
      <trkpt lat="44.47252" lon="4.63289">
        <ele>381.39999389648</ele>
        <time>2021-04-14T12:55:29Z</time>
      </trkpt>
      <trkpt lat="44.47247" lon="4.63288">
        <ele>381.20001220703</ele>
        <time>2021-04-14T12:55:30Z</time>
      </trkpt>
      <trkpt lat="44.47242" lon="4.63287">
        <ele>381.20001220703</ele>
        <time>2021-04-14T12:55:31Z</time>
      </trkpt>
      <trkpt lat="44.47238" lon="4.63285">
        <ele>381.20001220703</ele>
        <time>2021-04-14T12:55:32Z</time>
      </trkpt>
      <trkpt lat="44.47218" lon="4.63279">
        <ele>381.20001220703</ele>
        <time>2021-04-14T12:55:36Z</time>
      </trkpt>
      <trkpt lat="44.47213" lon="4.63278">
        <ele>381</ele>
        <time>2021-04-14T12:55:37Z</time>
      </trkpt>
      <trkpt lat="44.47208" lon="4.63276">
        <ele>381</ele>
        <time>2021-04-14T12:55:38Z</time>
      </trkpt>
      <trkpt lat="44.47203" lon="4.63275">
        <ele>381</ele>
        <time>2021-04-14T12:55:39Z</time>
      </trkpt>
      <trkpt lat="44.47199" lon="4.63274">
        <ele>381</ele>
        <time>2021-04-14T12:55:40Z</time>
      </trkpt>
      <trkpt lat="44.47185" lon="4.63269">
        <ele>381</ele>
        <time>2021-04-14T12:55:43Z</time>
      </trkpt>
      <trkpt lat="44.4718" lon="4.63268">
        <ele>381</ele>
        <time>2021-04-14T12:55:44Z</time>
      </trkpt>
      <trkpt lat="44.47175" lon="4.63267">
        <ele>381</ele>
        <time>2021-04-14T12:55:45Z</time>
      </trkpt>
      <trkpt lat="44.47171" lon="4.63265">
        <ele>381</ele>
        <time>2021-04-14T12:55:46Z</time>
      </trkpt>
      <trkpt lat="44.47167" lon="4.63264">
        <ele>381</ele>
        <time>2021-04-14T12:55:47Z</time>
      </trkpt>
      <trkpt lat="44.47144" lon="4.63258">
        <ele>381.20001220703</ele>
        <time>2021-04-14T12:55:52Z</time>
      </trkpt>
      <trkpt lat="44.4714" lon="4.63256">
        <ele>381.39999389648</ele>
        <time>2021-04-14T12:55:53Z</time>
      </trkpt>
      <trkpt lat="44.47136" lon="4.63254">
        <ele>381.39999389648</ele>
        <time>2021-04-14T12:55:54Z</time>
      </trkpt>
      <trkpt lat="44.47127" lon="4.6325">
        <ele>381.39999389648</ele>
        <time>2021-04-14T12:55:56Z</time>
      </trkpt>
      <trkpt lat="44.47123" lon="4.63248">
        <ele>381.20001220703</ele>
        <time>2021-04-14T12:55:57Z</time>
      </trkpt>
      <trkpt lat="44.47119" lon="4.63245">
        <ele>381.39999389648</ele>
        <time>2021-04-14T12:55:58Z</time>
      </trkpt>
      <trkpt lat="44.47115" lon="4.63243">
        <ele>381.60000610352</ele>
        <time>2021-04-14T12:55:59Z</time>
      </trkpt>
      <trkpt lat="44.47111" lon="4.63241">
        <ele>381.79998779297</ele>
        <time>2021-04-14T12:56:00Z</time>
      </trkpt>
      <trkpt lat="44.47107" lon="4.63238">
        <ele>381.79998779297</ele>
        <time>2021-04-14T12:56:01Z</time>
      </trkpt>
      <trkpt lat="44.47103" lon="4.63236">
        <ele>381.79998779297</ele>
        <time>2021-04-14T12:56:02Z</time>
      </trkpt>
      <trkpt lat="44.47099" lon="4.63234">
        <ele>381.79998779297</ele>
        <time>2021-04-14T12:56:03Z</time>
      </trkpt>
      <trkpt lat="44.47095" lon="4.63232">
        <ele>381.79998779297</ele>
        <time>2021-04-14T12:56:04Z</time>
      </trkpt>
      <trkpt lat="44.47091" lon="4.6323">
        <ele>381.79998779297</ele>
        <time>2021-04-14T12:56:05Z</time>
      </trkpt>
      <trkpt lat="44.47087" lon="4.63228">
        <ele>382</ele>
        <time>2021-04-14T12:56:06Z</time>
      </trkpt>
      <trkpt lat="44.47078" lon="4.63224">
        <ele>382</ele>
        <time>2021-04-14T12:56:08Z</time>
      </trkpt>
      <trkpt lat="44.47074" lon="4.63223">
        <ele>382</ele>
        <time>2021-04-14T12:56:09Z</time>
      </trkpt>
      <trkpt lat="44.4707" lon="4.63222">
        <ele>382.20001220703</ele>
        <time>2021-04-14T12:56:10Z</time>
      </trkpt>
      <trkpt lat="44.47066" lon="4.63221">
        <ele>382.20001220703</ele>
        <time>2021-04-14T12:56:11Z</time>
      </trkpt>
      <trkpt lat="44.47062" lon="4.6322">
        <ele>382.20001220703</ele>
        <time>2021-04-14T12:56:12Z</time>
      </trkpt>
      <trkpt lat="44.47059" lon="4.63217">
        <ele>382.20001220703</ele>
        <time>2021-04-14T12:56:13Z</time>
      </trkpt>
      <trkpt lat="44.47055" lon="4.63214">
        <ele>382</ele>
        <time>2021-04-14T12:56:14Z</time>
      </trkpt>
      <trkpt lat="44.47052" lon="4.6321">
        <ele>382</ele>
        <time>2021-04-14T12:56:15Z</time>
      </trkpt>
      <trkpt lat="44.47049" lon="4.63206">
        <ele>382.20001220703</ele>
        <time>2021-04-14T12:56:16Z</time>
      </trkpt>
      <trkpt lat="44.47046" lon="4.63201">
        <ele>382</ele>
        <time>2021-04-14T12:56:17Z</time>
      </trkpt>
      <trkpt lat="44.47043" lon="4.63196">
        <ele>382.20001220703</ele>
        <time>2021-04-14T12:56:18Z</time>
      </trkpt>
      <trkpt lat="44.47037" lon="4.63184">
        <ele>382.20001220703</ele>
        <time>2021-04-14T12:56:20Z</time>
      </trkpt>
      <trkpt lat="44.47035" lon="4.63178">
        <ele>382.20001220703</ele>
        <time>2021-04-14T12:56:21Z</time>
      </trkpt>
      <trkpt lat="44.47033" lon="4.63172">
        <ele>382</ele>
        <time>2021-04-14T12:56:22Z</time>
      </trkpt>
      <trkpt lat="44.47031" lon="4.63166">
        <ele>382.20001220703</ele>
        <time>2021-04-14T12:56:23Z</time>
      </trkpt>
      <trkpt lat="44.47026" lon="4.63154">
        <ele>382.20001220703</ele>
        <time>2021-04-14T12:56:25Z</time>
      </trkpt>
      <trkpt lat="44.47023" lon="4.63149">
        <ele>381.79998779297</ele>
        <time>2021-04-14T12:56:26Z</time>
      </trkpt>
      <trkpt lat="44.47009" lon="4.63126">
        <ele>381.39999389648</ele>
        <time>2021-04-14T12:56:30Z</time>
      </trkpt>
      <trkpt lat="44.47005" lon="4.63121">
        <ele>381.39999389648</ele>
        <time>2021-04-14T12:56:31Z</time>
      </trkpt>
      <trkpt lat="44.46998" lon="4.63108">
        <ele>381.20001220703</ele>
        <time>2021-04-14T12:56:33Z</time>
      </trkpt>
      <trkpt lat="44.46991" lon="4.63094">
        <ele>380.79998779297</ele>
        <time>2021-04-14T12:56:35Z</time>
      </trkpt>
      <trkpt lat="44.46982" lon="4.63082">
        <ele>380.20001220703</ele>
        <time>2021-04-14T12:56:37Z</time>
      </trkpt>
      <trkpt lat="44.46971" lon="4.63073">
        <ele>380</ele>
        <time>2021-04-14T12:56:39Z</time>
      </trkpt>
      <trkpt lat="44.46965" lon="4.6307">
        <ele>379.39999389648</ele>
        <time>2021-04-14T12:56:40Z</time>
      </trkpt>
      <trkpt lat="44.46954" lon="4.63054">
        <ele>370.39999389648</ele>
        <time>2020-02-28T13:55:40Z</time>
      </trkpt>
      <trkpt lat="44.4696" lon="4.63053">
        <ele>382.20001220703</ele>
        <time>2021-04-14T14:29:08Z</time>
      </trkpt>
      <trkpt lat="44.46963" lon="4.63051">
        <ele>382.20001220703</ele>
        <time>2021-04-14T14:29:09Z</time>
      </trkpt>
      <trkpt lat="44.46966" lon="4.63049">
        <ele>382.20001220703</ele>
        <time>2021-04-14T14:29:10Z</time>
      </trkpt>
      <trkpt lat="44.46968" lon="4.63047">
        <ele>382.20001220703</ele>
        <time>2021-04-14T14:29:11Z</time>
      </trkpt>
      <trkpt lat="44.46971" lon="4.63045">
        <ele>382.39999389648</ele>
        <time>2021-04-14T14:29:12Z</time>
      </trkpt>
      <trkpt lat="44.46974" lon="4.63043">
        <ele>382.20001220703</ele>
        <time>2021-04-14T14:29:13Z</time>
      </trkpt>
      <trkpt lat="44.46979" lon="4.6304">
        <ele>382.20001220703</ele>
        <time>2021-04-14T14:29:15Z</time>
      </trkpt>
      <trkpt lat="44.46991" lon="4.63032">
        <ele>382.39999389648</ele>
        <time>2021-04-14T14:29:19Z</time>
      </trkpt>
      <trkpt lat="44.46997" lon="4.63027">
        <ele>382.20001220703</ele>
        <time>2021-04-14T14:29:21Z</time>
      </trkpt>
      <trkpt lat="44.47" lon="4.63025">
        <ele>382.39999389648</ele>
        <time>2021-04-14T14:29:22Z</time>
      </trkpt>
      <trkpt lat="44.47011" lon="4.63017">
        <ele>382.39999389648</ele>
        <time>2021-04-14T14:29:25Z</time>
      </trkpt>
      <trkpt lat="44.47023" lon="4.63009">
        <ele>382.20001220703</ele>
        <time>2021-04-14T14:29:28Z</time>
      </trkpt>
      <trkpt lat="44.47035" lon="4.63001">
        <ele>381.79998779297</ele>
        <time>2021-04-14T14:29:31Z</time>
      </trkpt>
      <trkpt lat="44.47048" lon="4.62992">
        <ele>381.39999389648</ele>
        <time>2021-04-14T14:29:34Z</time>
      </trkpt>
      <trkpt lat="44.47052" lon="4.62989">
        <ele>381.20001220703</ele>
        <time>2021-04-14T14:29:35Z</time>
      </trkpt>
      <trkpt lat="44.47056" lon="4.62987">
        <ele>380.79998779297</ele>
        <time>2021-04-14T14:29:36Z</time>
      </trkpt>
      <trkpt lat="44.4706" lon="4.62984">
        <ele>380.79998779297</ele>
        <time>2021-04-14T14:29:37Z</time>
      </trkpt>
      <trkpt lat="44.47064" lon="4.62981">
        <ele>380.39999389648</ele>
        <time>2021-04-14T14:29:38Z</time>
      </trkpt>
      <trkpt lat="44.47091" lon="4.62963">
        <ele>379.79998779297</ele>
        <time>2021-04-14T14:29:44Z</time>
      </trkpt>
      <trkpt lat="44.47104" lon="4.62955">
        <ele>379.79998779297</ele>
        <time>2021-04-14T14:29:47Z</time>
      </trkpt>
      <trkpt lat="44.47108" lon="4.62952">
        <ele>379.79998779297</ele>
        <time>2021-04-14T14:29:48Z</time>
      </trkpt>
      <trkpt lat="44.47117" lon="4.62947">
        <ele>379.60000610352</ele>
        <time>2021-04-14T14:29:50Z</time>
      </trkpt>
      <trkpt lat="44.47121" lon="4.62944">
        <ele>379.60000610352</ele>
        <time>2021-04-14T14:29:51Z</time>
      </trkpt>
      <trkpt lat="44.47125" lon="4.62942">
        <ele>379.60000610352</ele>
        <time>2021-04-14T14:29:52Z</time>
      </trkpt>
      <trkpt lat="44.47129" lon="4.62939">
        <ele>379.39999389648</ele>
        <time>2021-04-14T14:29:53Z</time>
      </trkpt>
      <trkpt lat="44.47133" lon="4.62937">
        <ele>379.60000610352</ele>
        <time>2021-04-14T14:29:54Z</time>
      </trkpt>
      <trkpt lat="44.47137" lon="4.62935">
        <ele>379.39999389648</ele>
        <time>2021-04-14T14:29:55Z</time>
      </trkpt>
      <trkpt lat="44.47141" lon="4.62933">
        <ele>379</ele>
        <time>2021-04-14T14:29:56Z</time>
      </trkpt>
      <trkpt lat="44.47145" lon="4.62931">
        <ele>378.79998779297</ele>
        <time>2021-04-14T14:29:57Z</time>
      </trkpt>
      <trkpt lat="44.47148" lon="4.62929">
        <ele>378.79998779297</ele>
        <time>2021-04-14T14:29:58Z</time>
      </trkpt>
      <trkpt lat="44.47156" lon="4.62924">
        <ele>378.39999389648</ele>
        <time>2021-04-14T14:30:00Z</time>
      </trkpt>
      <trkpt lat="44.47173" lon="4.62914">
        <ele>378</ele>
        <time>2021-04-14T14:30:04Z</time>
      </trkpt>
      <trkpt lat="44.47181" lon="4.6291">
        <ele>377.79998779297</ele>
        <time>2021-04-14T14:30:06Z</time>
      </trkpt>
      <trkpt lat="44.4719" lon="4.62906">
        <ele>377.79998779297</ele>
        <time>2021-04-14T14:30:08Z</time>
      </trkpt>
      <trkpt lat="44.47212" lon="4.62896">
        <ele>377.60000610352</ele>
        <time>2021-04-14T14:30:13Z</time>
      </trkpt>
      <trkpt lat="44.47225" lon="4.62888">
        <ele>376.79998779297</ele>
        <time>2021-04-14T14:30:16Z</time>
      </trkpt>
      <trkpt lat="44.47229" lon="4.62883">
        <ele>376.39999389648</ele>
        <time>2021-04-14T14:30:17Z</time>
      </trkpt>
      <trkpt lat="44.47244" lon="4.62862">
        <ele>376</ele>
        <time>2021-04-14T14:30:21Z</time>
      </trkpt>
      <trkpt lat="44.47253" lon="4.62854">
        <ele>376</ele>
        <time>2021-04-14T14:30:23Z</time>
      </trkpt>
      <trkpt lat="44.47273" lon="4.62843">
        <ele>375.60000610352</ele>
        <time>2021-04-14T14:30:27Z</time>
      </trkpt>
      <trkpt lat="44.47278" lon="4.6284">
        <ele>375.39999389648</ele>
        <time>2021-04-14T14:30:28Z</time>
      </trkpt>
      <trkpt lat="44.47282" lon="4.62837">
        <ele>375.39999389648</ele>
        <time>2021-04-14T14:30:29Z</time>
      </trkpt>
      <trkpt lat="44.47287" lon="4.62834">
        <ele>375.39999389648</ele>
        <time>2021-04-14T14:30:30Z</time>
      </trkpt>
      <trkpt lat="44.47291" lon="4.62832">
        <ele>375.20001220703</ele>
        <time>2021-04-14T14:30:31Z</time>
      </trkpt>
      <trkpt lat="44.47321" lon="4.62819">
        <ele>375</ele>
        <time>2021-04-14T14:30:37Z</time>
      </trkpt>
      <trkpt lat="44.47325" lon="4.62818">
        <ele>375</ele>
        <time>2021-04-14T14:30:38Z</time>
      </trkpt>
      <trkpt lat="44.47329" lon="4.62816">
        <ele>375</ele>
        <time>2021-04-14T14:30:39Z</time>
      </trkpt>
      <trkpt lat="44.47333" lon="4.62815">
        <ele>374.79998779297</ele>
        <time>2021-04-14T14:30:40Z</time>
      </trkpt>
      <trkpt lat="44.47337" lon="4.62814">
        <ele>374.60000610352</ele>
        <time>2021-04-14T14:30:41Z</time>
      </trkpt>
      <trkpt lat="44.4734" lon="4.62814">
        <ele>374.39999389648</ele>
        <time>2021-04-14T14:30:42Z</time>
      </trkpt>
      <trkpt lat="44.47343" lon="4.62813">
        <ele>374.39999389648</ele>
        <time>2021-04-14T14:30:43Z</time>
      </trkpt>
      <trkpt lat="44.47347" lon="4.62811">
        <ele>374.20001220703</ele>
        <time>2021-04-14T14:30:44Z</time>
      </trkpt>
      <trkpt lat="44.47361" lon="4.62802">
        <ele>374</ele>
        <time>2021-04-14T14:30:48Z</time>
      </trkpt>
      <trkpt lat="44.47368" lon="4.62796">
        <ele>374</ele>
        <time>2021-04-14T14:30:50Z</time>
      </trkpt>
      <trkpt lat="44.4737" lon="4.62793">
        <ele>374</ele>
        <time>2021-04-14T14:30:51Z</time>
      </trkpt>
      <trkpt lat="44.47373" lon="4.6279">
        <ele>374</ele>
        <time>2021-04-14T14:30:52Z</time>
      </trkpt>
      <trkpt lat="44.47375" lon="4.62788">
        <ele>373.79998779297</ele>
        <time>2021-04-14T14:30:53Z</time>
      </trkpt>
      <trkpt lat="44.47378" lon="4.62787">
        <ele>373.79998779297</ele>
        <time>2021-04-14T14:30:54Z</time>
      </trkpt>
      <trkpt lat="44.47381" lon="4.62785">
        <ele>373.79998779297</ele>
        <time>2021-04-14T14:30:55Z</time>
      </trkpt>
      <trkpt lat="44.47393" lon="4.62776">
        <ele>374</ele>
        <time>2021-04-14T14:30:59Z</time>
      </trkpt>
      <trkpt lat="44.47408" lon="4.62768">
        <ele>374</ele>
        <time>2021-04-14T14:31:03Z</time>
      </trkpt>
      <trkpt lat="44.47415" lon="4.62764">
        <ele>374.20001220703</ele>
        <time>2021-04-14T14:31:05Z</time>
      </trkpt>
      <trkpt lat="44.47418" lon="4.62762">
        <ele>374</ele>
        <time>2021-04-14T14:31:06Z</time>
      </trkpt>
      <trkpt lat="44.47421" lon="4.6276">
        <ele>374</ele>
        <time>2021-04-14T14:31:07Z</time>
      </trkpt>
      <trkpt lat="44.47422" lon="4.62756">
        <ele>374.20001220703</ele>
        <time>2021-04-14T14:31:08Z</time>
      </trkpt>
      <trkpt lat="44.47423" lon="4.62751">
        <ele>374</ele>
        <time>2021-04-14T14:31:09Z</time>
      </trkpt>
      <trkpt lat="44.47423" lon="4.62751">
        <ele>374</ele>
        <time>2021-04-14T14:31:10Z</time>
      </trkpt>
      <trkpt lat="44.47423" lon="4.62742">
        <ele>374.20001220703</ele>
        <time>2021-04-14T14:31:11Z</time>
      </trkpt>
      <trkpt lat="44.47423" lon="4.62737">
        <ele>374.20001220703</ele>
        <time>2021-04-14T14:31:12Z</time>
      </trkpt>
      <trkpt lat="44.47423" lon="4.62731">
        <ele>374</ele>
        <time>2021-04-14T14:31:13Z</time>
      </trkpt>
      <trkpt lat="44.47422" lon="4.62726">
        <ele>374</ele>
        <time>2021-04-14T14:31:14Z</time>
      </trkpt>
      <trkpt lat="44.47422" lon="4.6272">
        <ele>374</ele>
        <time>2021-04-14T14:31:15Z</time>
      </trkpt>
      <trkpt lat="44.47421" lon="4.62689">
        <ele>374.20001220703</ele>
        <time>2021-04-14T14:31:20Z</time>
      </trkpt>
      <trkpt lat="44.47421" lon="4.62682">
        <ele>374.20001220703</ele>
        <time>2021-04-14T14:31:21Z</time>
      </trkpt>
      <trkpt lat="44.4742" lon="4.62676">
        <ele>374.20001220703</ele>
        <time>2021-04-14T14:31:22Z</time>
      </trkpt>
      <trkpt lat="44.47419" lon="4.62669">
        <ele>374.20001220703</ele>
        <time>2021-04-14T14:31:23Z</time>
      </trkpt>
      <trkpt lat="44.47419" lon="4.62663">
        <ele>374.20001220703</ele>
        <time>2021-04-14T14:31:24Z</time>
      </trkpt>
      <trkpt lat="44.47418" lon="4.62621">
        <ele>374</ele>
        <time>2021-04-14T14:31:30Z</time>
      </trkpt>
      <trkpt lat="44.47418" lon="4.62614">
        <ele>374</ele>
        <time>2021-04-14T14:31:31Z</time>
      </trkpt>
      <trkpt lat="44.47419" lon="4.62608">
        <ele>373.79998779297</ele>
        <time>2021-04-14T14:31:32Z</time>
      </trkpt>
      <trkpt lat="44.47419" lon="4.62603">
        <ele>373.20001220703</ele>
        <time>2021-04-14T14:31:33Z</time>
      </trkpt>
      <trkpt lat="44.47419" lon="4.62597">
        <ele>373.20001220703</ele>
        <time>2021-04-14T14:31:34Z</time>
      </trkpt>
      <trkpt lat="44.47418" lon="4.62591">
        <ele>373</ele>
        <time>2021-04-14T14:31:35Z</time>
      </trkpt>
      <trkpt lat="44.47418" lon="4.62585">
        <ele>372.60000610352</ele>
        <time>2021-04-14T14:31:36Z</time>
      </trkpt>
      <trkpt lat="44.47418" lon="4.62576">
        <ele>372.39999389648</ele>
        <time>2021-04-14T14:31:38Z</time>
      </trkpt>
      <trkpt lat="44.47418" lon="4.62572">
        <ele>372</ele>
        <time>2021-04-14T14:31:39Z</time>
      </trkpt>
      <trkpt lat="44.47417" lon="4.62568">
        <ele>372</ele>
        <time>2021-04-14T14:31:40Z</time>
      </trkpt>
      <trkpt lat="44.47413" lon="4.62558">
        <ele>371.79998779297</ele>
        <time>2021-04-14T14:31:42Z</time>
      </trkpt>
      <trkpt lat="44.4741" lon="4.62554">
        <ele>371.60000610352</ele>
        <time>2021-04-14T14:31:43Z</time>
      </trkpt>
      <trkpt lat="44.47408" lon="4.62549">
        <ele>371.39999389648</ele>
        <time>2021-04-14T14:31:44Z</time>
      </trkpt>
      <trkpt lat="44.47406" lon="4.62543">
        <ele>371.39999389648</ele>
        <time>2021-04-14T14:31:45Z</time>
      </trkpt>
      <trkpt lat="44.47402" lon="4.62532">
        <ele>371.20001220703</ele>
        <time>2021-04-14T14:31:47Z</time>
      </trkpt>
      <trkpt lat="44.47401" lon="4.62526">
        <ele>371.20001220703</ele>
        <time>2021-04-14T14:31:48Z</time>
      </trkpt>
      <trkpt lat="44.474" lon="4.6252">
        <ele>371.20001220703</ele>
        <time>2021-04-14T14:31:49Z</time>
      </trkpt>
      <trkpt lat="44.47398" lon="4.62513">
        <ele>371.20001220703</ele>
        <time>2021-04-14T14:31:50Z</time>
      </trkpt>
      <trkpt lat="44.47395" lon="4.625">
        <ele>371</ele>
        <time>2021-04-14T14:31:52Z</time>
      </trkpt>
      <trkpt lat="44.47394" lon="4.62494">
        <ele>371</ele>
        <time>2021-04-14T14:31:53Z</time>
      </trkpt>
      <trkpt lat="44.4739" lon="4.62481">
        <ele>371</ele>
        <time>2021-04-14T14:31:55Z</time>
      </trkpt>
      <trkpt lat="44.47387" lon="4.62469">
        <ele>370.79998779297</ele>
        <time>2021-04-14T14:31:57Z</time>
      </trkpt>
      <trkpt lat="44.47385" lon="4.62463">
        <ele>370.60000610352</ele>
        <time>2021-04-14T14:31:58Z</time>
      </trkpt>
      <trkpt lat="44.47384" lon="4.62456">
        <ele>370.39999389648</ele>
        <time>2021-04-14T14:31:59Z</time>
      </trkpt>
      <trkpt lat="44.47381" lon="4.62443">
        <ele>370</ele>
        <time>2021-04-14T14:32:01Z</time>
      </trkpt>
      <trkpt lat="44.4737" lon="4.6239">
        <ele>369.79998779297</ele>
        <time>2021-04-14T14:32:08Z</time>
      </trkpt>
      <trkpt lat="44.47364" lon="4.62339">
        <ele>369.60000610352</ele>
        <time>2021-04-14T14:32:14Z</time>
      </trkpt>
      <trkpt lat="44.47363" lon="4.62331">
        <ele>369.60000610352</ele>
        <time>2021-04-14T14:32:15Z</time>
      </trkpt>
      <trkpt lat="44.47362" lon="4.62323">
        <ele>369.39999389648</ele>
        <time>2021-04-14T14:32:16Z</time>
      </trkpt>
      <trkpt lat="44.47362" lon="4.62317">
        <ele>369.39999389648</ele>
        <time>2021-04-14T14:32:17Z</time>
      </trkpt>
      <trkpt lat="44.47361" lon="4.6231">
        <ele>369.60000610352</ele>
        <time>2021-04-14T14:32:18Z</time>
      </trkpt>
      <trkpt lat="44.47362" lon="4.62303">
        <ele>369.39999389648</ele>
        <time>2021-04-14T14:32:19Z</time>
      </trkpt>
      <trkpt lat="44.47362" lon="4.62296">
        <ele>369.39999389648</ele>
        <time>2021-04-14T14:32:20Z</time>
      </trkpt>
      <trkpt lat="44.47367" lon="4.62252">
        <ele>369.20001220703</ele>
        <time>2021-04-14T14:32:26Z</time>
      </trkpt>
      <trkpt lat="44.47376" lon="4.62207">
        <ele>369.60000610352</ele>
        <time>2021-04-14T14:32:32Z</time>
      </trkpt>
      <trkpt lat="44.47383" lon="4.62167">
        <ele>369.60000610352</ele>
        <time>2021-04-14T14:32:37Z</time>
      </trkpt>
      <trkpt lat="44.47385" lon="4.6216">
        <ele>369.60000610352</ele>
        <time>2021-04-14T14:32:38Z</time>
      </trkpt>
      <trkpt lat="44.47387" lon="4.62152">
        <ele>369.60000610352</ele>
        <time>2021-04-14T14:32:39Z</time>
      </trkpt>
      <trkpt lat="44.47388" lon="4.62144">
        <ele>369.60000610352</ele>
        <time>2021-04-14T14:32:40Z</time>
      </trkpt>
      <trkpt lat="44.47389" lon="4.62136">
        <ele>369.79998779297</ele>
        <time>2021-04-14T14:32:41Z</time>
      </trkpt>
      <trkpt lat="44.47391" lon="4.62129">
        <ele>369.79998779297</ele>
        <time>2021-04-14T14:32:42Z</time>
      </trkpt>
      <trkpt lat="44.47393" lon="4.62113">
        <ele>370.20001220703</ele>
        <time>2021-04-14T14:32:44Z</time>
      </trkpt>
      <trkpt lat="44.47396" lon="4.62098">
        <ele>370.60000610352</ele>
        <time>2021-04-14T14:32:46Z</time>
      </trkpt>
      <trkpt lat="44.47398" lon="4.62091">
        <ele>371</ele>
        <time>2021-04-14T14:32:47Z</time>
      </trkpt>
      <trkpt lat="44.474" lon="4.62084">
        <ele>371.20001220703</ele>
        <time>2021-04-14T14:32:48Z</time>
      </trkpt>
      <trkpt lat="44.47402" lon="4.62078">
        <ele>371.20001220703</ele>
        <time>2021-04-14T14:32:49Z</time>
      </trkpt>
      <trkpt lat="44.47404" lon="4.6207">
        <ele>371.20001220703</ele>
        <time>2021-04-14T14:32:50Z</time>
      </trkpt>
      <trkpt lat="44.47405" lon="4.62063">
        <ele>371.39999389648</ele>
        <time>2021-04-14T14:32:51Z</time>
      </trkpt>
      <trkpt lat="44.47406" lon="4.62056">
        <ele>371.60000610352</ele>
        <time>2021-04-14T14:32:52Z</time>
      </trkpt>
      <trkpt lat="44.47408" lon="4.6205">
        <ele>371.79998779297</ele>
        <time>2021-04-14T14:32:53Z</time>
      </trkpt>
      <trkpt lat="44.47409" lon="4.62043">
        <ele>371.79998779297</ele>
        <time>2021-04-14T14:32:54Z</time>
      </trkpt>
      <trkpt lat="44.4741" lon="4.62037">
        <ele>371.79998779297</ele>
        <time>2021-04-14T14:32:55Z</time>
      </trkpt>
      <trkpt lat="44.47411" lon="4.6203">
        <ele>372</ele>
        <time>2021-04-14T14:32:56Z</time>
      </trkpt>
      <trkpt lat="44.47412" lon="4.62023">
        <ele>372</ele>
        <time>2021-04-14T14:32:57Z</time>
      </trkpt>
      <trkpt lat="44.47413" lon="4.62017">
        <ele>372.39999389648</ele>
        <time>2021-04-14T14:32:58Z</time>
      </trkpt>
      <trkpt lat="44.47414" lon="4.6201">
        <ele>372.60000610352</ele>
        <time>2021-04-14T14:32:59Z</time>
      </trkpt>
      <trkpt lat="44.47416" lon="4.62004">
        <ele>372.60000610352</ele>
        <time>2021-04-14T14:33:00Z</time>
      </trkpt>
      <trkpt lat="44.47417" lon="4.61998">
        <ele>372.79998779297</ele>
        <time>2021-04-14T14:33:01Z</time>
      </trkpt>
      <trkpt lat="44.47419" lon="4.61993">
        <ele>373</ele>
        <time>2021-04-14T14:33:02Z</time>
      </trkpt>
      <trkpt lat="44.4742" lon="4.61987">
        <ele>373</ele>
        <time>2021-04-14T14:33:03Z</time>
      </trkpt>
      <trkpt lat="44.47421" lon="4.61981">
        <ele>373.20001220703</ele>
        <time>2021-04-14T14:33:04Z</time>
      </trkpt>
      <trkpt lat="44.47423" lon="4.61975">
        <ele>373.20001220703</ele>
        <time>2021-04-14T14:33:05Z</time>
      </trkpt>
      <trkpt lat="44.47424" lon="4.61969">
        <ele>373.39999389648</ele>
        <time>2021-04-14T14:33:06Z</time>
      </trkpt>
      <trkpt lat="44.47425" lon="4.61963">
        <ele>373.39999389648</ele>
        <time>2021-04-14T14:33:07Z</time>
      </trkpt>
      <trkpt lat="44.47427" lon="4.61957">
        <ele>373.39999389648</ele>
        <time>2021-04-14T14:33:08Z</time>
      </trkpt>
      <trkpt lat="44.47428" lon="4.61951">
        <ele>373.39999389648</ele>
        <time>2021-04-14T14:33:09Z</time>
      </trkpt>
      <trkpt lat="44.47429" lon="4.61944">
        <ele>373.60000610352</ele>
        <time>2021-04-14T14:33:10Z</time>
      </trkpt>
      <trkpt lat="44.47431" lon="4.61939">
        <ele>373.60000610352</ele>
        <time>2021-04-14T14:33:11Z</time>
      </trkpt>
      <trkpt lat="44.47431" lon="4.61933">
        <ele>373.79998779297</ele>
        <time>2021-04-14T14:33:12Z</time>
      </trkpt>
      <trkpt lat="44.47432" lon="4.61927">
        <ele>374</ele>
        <time>2021-04-14T14:33:13Z</time>
      </trkpt>
      <trkpt lat="44.47433" lon="4.61916">
        <ele>374.20001220703</ele>
        <time>2021-04-14T14:33:15Z</time>
      </trkpt>
      <trkpt lat="44.47434" lon="4.6191">
        <ele>374.20001220703</ele>
        <time>2021-04-14T14:33:16Z</time>
      </trkpt>
      <trkpt lat="44.47438" lon="4.61891">
        <ele>374.39999389648</ele>
        <time>2021-04-14T14:33:19Z</time>
      </trkpt>
      <trkpt lat="44.47445" lon="4.61873">
        <ele>374.20001220703</ele>
        <time>2021-04-14T14:33:22Z</time>
      </trkpt>
      <trkpt lat="44.47448" lon="4.61868">
        <ele>374</ele>
        <time>2021-04-14T14:33:23Z</time>
      </trkpt>
      <trkpt lat="44.47451" lon="4.61863">
        <ele>373.79998779297</ele>
        <time>2021-04-14T14:33:24Z</time>
      </trkpt>
      <trkpt lat="44.47454" lon="4.61857">
        <ele>373.79998779297</ele>
        <time>2021-04-14T14:33:25Z</time>
      </trkpt>
      <trkpt lat="44.47456" lon="4.61852">
        <ele>373.79998779297</ele>
        <time>2021-04-14T14:33:26Z</time>
      </trkpt>
      <trkpt lat="44.47459" lon="4.61838">
        <ele>373.39999389648</ele>
        <time>2021-04-14T14:33:28Z</time>
      </trkpt>
      <trkpt lat="44.47461" lon="4.61823">
        <ele>373</ele>
        <time>2021-04-14T14:33:30Z</time>
      </trkpt>
      <trkpt lat="44.47462" lon="4.61815">
        <ele>372.60000610352</ele>
        <time>2021-04-14T14:33:31Z</time>
      </trkpt>
      <trkpt lat="44.47464" lon="4.61807">
        <ele>371.60000610352</ele>
        <time>2021-04-14T14:33:32Z</time>
      </trkpt>
      <trkpt lat="44.47466" lon="4.61799">
        <ele>371</ele>
        <time>2021-04-14T14:33:33Z</time>
      </trkpt>
      <trkpt lat="44.47469" lon="4.61783">
        <ele>370.39999389648</ele>
        <time>2021-04-14T14:33:35Z</time>
      </trkpt>
      <trkpt lat="44.4747" lon="4.61775">
        <ele>370</ele>
        <time>2021-04-14T14:33:36Z</time>
      </trkpt>
      <trkpt lat="44.47471" lon="4.61766">
        <ele>370</ele>
        <time>2021-04-14T14:33:37Z</time>
      </trkpt>
      <trkpt lat="44.47473" lon="4.61749">
        <ele>368.79998779297</ele>
        <time>2021-04-14T14:33:39Z</time>
      </trkpt>
      <trkpt lat="44.47474" lon="4.6174">
        <ele>368.39999389648</ele>
        <time>2021-04-14T14:33:40Z</time>
      </trkpt>
      <trkpt lat="44.47475" lon="4.61721">
        <ele>367.79998779297</ele>
        <time>2021-04-14T14:33:42Z</time>
      </trkpt>
      <trkpt lat="44.47476" lon="4.61711">
        <ele>367.60000610352</ele>
        <time>2021-04-14T14:33:43Z</time>
      </trkpt>
      <trkpt lat="44.47478" lon="4.61702">
        <ele>367.39999389648</ele>
        <time>2021-04-14T14:33:44Z</time>
      </trkpt>
      <trkpt lat="44.47479" lon="4.61672">
        <ele>367.20001220703</ele>
        <time>2021-04-14T14:33:47Z</time>
      </trkpt>
      <trkpt lat="44.47478" lon="4.61662">
        <ele>366.60000610352</ele>
        <time>2021-04-14T14:33:48Z</time>
      </trkpt>
      <trkpt lat="44.47477" lon="4.61654">
        <ele>365.39999389648</ele>
        <time>2021-04-14T14:33:49Z</time>
      </trkpt>
      <trkpt lat="44.47476" lon="4.61646">
        <ele>365</ele>
        <time>2021-04-14T14:33:50Z</time>
      </trkpt>
      <trkpt lat="44.47475" lon="4.61639">
        <ele>364.60000610352</ele>
        <time>2021-04-14T14:33:51Z</time>
      </trkpt>
      <trkpt lat="44.47474" lon="4.61632">
        <ele>364.39999389648</ele>
        <time>2021-04-14T14:33:52Z</time>
      </trkpt>
      <trkpt lat="44.47472" lon="4.61626">
        <ele>364</ele>
        <time>2021-04-14T14:33:53Z</time>
      </trkpt>
      <trkpt lat="44.47471" lon="4.6162">
        <ele>363.79998779297</ele>
        <time>2021-04-14T14:33:54Z</time>
      </trkpt>
      <trkpt lat="44.47469" lon="4.61615">
        <ele>363.79998779297</ele>
        <time>2021-04-14T14:33:55Z</time>
      </trkpt>
      <trkpt lat="44.47467" lon="4.61609">
        <ele>363.79998779297</ele>
        <time>2021-04-14T14:33:56Z</time>
      </trkpt>
      <trkpt lat="44.47466" lon="4.61604">
        <ele>363.79998779297</ele>
        <time>2021-04-14T14:33:57Z</time>
      </trkpt>
      <trkpt lat="44.47464" lon="4.61598">
        <ele>363.60000610352</ele>
        <time>2021-04-14T14:33:58Z</time>
      </trkpt>
      <trkpt lat="44.47457" lon="4.61568">
        <ele>363.79998779297</ele>
        <time>2021-04-14T14:34:03Z</time>
      </trkpt>
      <trkpt lat="44.47453" lon="4.61556">
        <ele>364.20001220703</ele>
        <time>2021-04-14T14:34:05Z</time>
      </trkpt>
      <trkpt lat="44.4745" lon="4.61544">
        <ele>364.60000610352</ele>
        <time>2021-04-14T14:34:07Z</time>
      </trkpt>
      <trkpt lat="44.47443" lon="4.61526">
        <ele>365</ele>
        <time>2021-04-14T14:34:10Z</time>
      </trkpt>
      <trkpt lat="44.47427" lon="4.61483">
        <ele>365.20001220703</ele>
        <time>2021-04-14T14:34:17Z</time>
      </trkpt>
      <trkpt lat="44.47424" lon="4.61477">
        <ele>365.39999389648</ele>
        <time>2021-04-14T14:34:18Z</time>
      </trkpt>
      <trkpt lat="44.47419" lon="4.61465">
        <ele>365.39999389648</ele>
        <time>2021-04-14T14:34:20Z</time>
      </trkpt>
      <trkpt lat="44.47417" lon="4.61458">
        <ele>365.60000610352</ele>
        <time>2021-04-14T14:34:21Z</time>
      </trkpt>
      <trkpt lat="44.47413" lon="4.61443">
        <ele>365.60000610352</ele>
        <time>2021-04-14T14:34:23Z</time>
      </trkpt>
      <trkpt lat="44.47411" lon="4.61435">
        <ele>365.39999389648</ele>
        <time>2021-04-14T14:34:24Z</time>
      </trkpt>
      <trkpt lat="44.47408" lon="4.61418">
        <ele>365.39999389648</ele>
        <time>2021-04-14T14:34:26Z</time>
      </trkpt>
      <trkpt lat="44.47407" lon="4.614">
        <ele>365.20001220703</ele>
        <time>2021-04-14T14:34:28Z</time>
      </trkpt>
      <trkpt lat="44.47406" lon="4.61391">
        <ele>365.39999389648</ele>
        <time>2021-04-14T14:34:29Z</time>
      </trkpt>
      <trkpt lat="44.47405" lon="4.61382">
        <ele>365.39999389648</ele>
        <time>2021-04-14T14:34:30Z</time>
      </trkpt>
      <trkpt lat="44.47404" lon="4.61374">
        <ele>364.79998779297</ele>
        <time>2021-04-14T14:34:31Z</time>
      </trkpt>
      <trkpt lat="44.47403" lon="4.61365">
        <ele>364.20001220703</ele>
        <time>2021-04-14T14:34:32Z</time>
      </trkpt>
      <trkpt lat="44.47402" lon="4.61357">
        <ele>363.60000610352</ele>
        <time>2021-04-14T14:34:33Z</time>
      </trkpt>
      <trkpt lat="44.474" lon="4.6135">
        <ele>363</ele>
        <time>2021-04-14T14:34:34Z</time>
      </trkpt>
      <trkpt lat="44.47398" lon="4.61342">
        <ele>362.79998779297</ele>
        <time>2021-04-14T14:34:35Z</time>
      </trkpt>
      <trkpt lat="44.47395" lon="4.61335">
        <ele>362.39999389648</ele>
        <time>2021-04-14T14:34:36Z</time>
      </trkpt>
      <trkpt lat="44.47393" lon="4.61328">
        <ele>362</ele>
        <time>2021-04-14T14:34:37Z</time>
      </trkpt>
      <trkpt lat="44.47391" lon="4.61321">
        <ele>361.39999389648</ele>
        <time>2021-04-14T14:34:38Z</time>
      </trkpt>
      <trkpt lat="44.47389" lon="4.61314">
        <ele>361</ele>
        <time>2021-04-14T14:34:39Z</time>
      </trkpt>
      <trkpt lat="44.47385" lon="4.61283">
        <ele>360.60000610352</ele>
        <time>2021-04-14T14:34:43Z</time>
      </trkpt>
      <trkpt lat="44.47384" lon="4.61276">
        <ele>360.60000610352</ele>
        <time>2021-04-14T14:34:44Z</time>
      </trkpt>
      <trkpt lat="44.47383" lon="4.61269">
        <ele>360.60000610352</ele>
        <time>2021-04-14T14:34:45Z</time>
      </trkpt>
      <trkpt lat="44.47382" lon="4.61262">
        <ele>360.60000610352</ele>
        <time>2021-04-14T14:34:46Z</time>
      </trkpt>
      <trkpt lat="44.47381" lon="4.61254">
        <ele>360.39999389648</ele>
        <time>2021-04-14T14:34:47Z</time>
      </trkpt>
      <trkpt lat="44.47379" lon="4.61239">
        <ele>360.60000610352</ele>
        <time>2021-04-14T14:34:49Z</time>
      </trkpt>
      <trkpt lat="44.47379" lon="4.61239">
        <ele>360.60000610352</ele>
        <time>2021-04-14T14:34:50Z</time>
      </trkpt>
      <trkpt lat="44.47378" lon="4.61226">
        <ele>360.60000610352</ele>
        <time>2021-04-14T14:34:51Z</time>
      </trkpt>
      <trkpt lat="44.47378" lon="4.61221">
        <ele>360.39999389648</ele>
        <time>2021-04-14T14:34:52Z</time>
      </trkpt>
      <trkpt lat="44.47377" lon="4.61217">
        <ele>360.60000610352</ele>
        <time>2021-04-14T14:34:53Z</time>
      </trkpt>
      <trkpt lat="44.47377" lon="4.61217">
        <ele>360.60000610352</ele>
        <time>2021-04-14T14:34:53Z</time>
      </trkpt>
      <trkpt lat="44.47375" lon="4.61214">
        <ele>360.39999389648</ele>
        <time>2021-04-14T14:34:54Z</time>
      </trkpt>
      <trkpt lat="44.47374" lon="4.61211">
        <ele>360.39999389648</ele>
        <time>2021-04-14T14:34:55Z</time>
      </trkpt>
      <trkpt lat="44.47373" lon="4.6121">
        <ele>360.20001220703</ele>
        <time>2021-04-14T14:34:56Z</time>
      </trkpt>
      <trkpt lat="44.47373" lon="4.61211">
        <ele>359.79998779297</ele>
        <time>2021-04-14T14:34:59Z</time>
      </trkpt>
      <trkpt lat="44.47373" lon="4.6121">
        <ele>359.20001220703</ele>
        <time>2021-04-14T14:35:10Z</time>
      </trkpt>
      <trkpt lat="44.47373" lon="4.6121">
        <ele>359.39999389648</ele>
        <time>2021-04-14T14:35:13Z</time>
      </trkpt>
      <trkpt lat="44.47373" lon="4.6121">
        <ele>359</ele>
        <time>2021-04-14T14:35:28Z</time>
      </trkpt>
      <trkpt lat="44.47373" lon="4.6121">
        <ele>358.79998779297</ele>
        <time>2021-04-14T14:35:30Z</time>
      </trkpt>
      <trkpt lat="44.47373" lon="4.6121">
        <ele>359</ele>
        <time>2021-04-14T14:35:31Z</time>
      </trkpt>
      <trkpt lat="44.47373" lon="4.6121">
        <ele>359</ele>
        <time>2021-04-14T14:35:33Z</time>
      </trkpt>
      <trkpt lat="44.47373" lon="4.6121">
        <ele>359</ele>
        <time>2021-04-14T14:35:34Z</time>
      </trkpt>
      <trkpt lat="44.47373" lon="4.61211">
        <ele>359</ele>
        <time>2021-04-14T14:35:35Z</time>
      </trkpt>
      <trkpt lat="44.47373" lon="4.61211">
        <ele>359</ele>
        <time>2021-04-14T14:35:36Z</time>
      </trkpt>
      <trkpt lat="44.47373" lon="4.6121">
        <ele>359</ele>
        <time>2021-04-14T14:35:37Z</time>
      </trkpt>
      <trkpt lat="44.47373" lon="4.61211">
        <ele>359.20001220703</ele>
        <time>2021-04-14T14:35:43Z</time>
      </trkpt>
      <trkpt lat="44.47373" lon="4.61211">
        <ele>359.60000610352</ele>
        <time>2021-04-14T14:35:59Z</time>
      </trkpt>
      <trkpt lat="44.47369" lon="4.61204">
        <ele>359.20001220703</ele>
        <time>2021-04-14T14:36:13Z</time>
      </trkpt>
      <trkpt lat="44.47366" lon="4.61186">
        <ele>359.20001220703</ele>
        <time>2021-04-14T14:36:17Z</time>
      </trkpt>
      <trkpt lat="44.47365" lon="4.61181">
        <ele>359.20001220703</ele>
        <time>2021-04-14T14:36:18Z</time>
      </trkpt>
      <trkpt lat="44.47364" lon="4.61168">
        <ele>359.20001220703</ele>
        <time>2021-04-14T14:36:20Z</time>
      </trkpt>
      <trkpt lat="44.47362" lon="4.61162">
        <ele>359.39999389648</ele>
        <time>2021-04-14T14:36:21Z</time>
      </trkpt>
      <trkpt lat="44.4736" lon="4.61156">
        <ele>359.20001220703</ele>
        <time>2021-04-14T14:36:22Z</time>
      </trkpt>
      <trkpt lat="44.47358" lon="4.61151">
        <ele>359</ele>
        <time>2021-04-14T14:36:23Z</time>
      </trkpt>
      <trkpt lat="44.47356" lon="4.61145">
        <ele>358.60000610352</ele>
        <time>2021-04-14T14:36:24Z</time>
      </trkpt>
      <trkpt lat="44.47355" lon="4.6114">
        <ele>358.39999389648</ele>
        <time>2021-04-14T14:36:25Z</time>
      </trkpt>
      <trkpt lat="44.47354" lon="4.61135">
        <ele>358.20001220703</ele>
        <time>2021-04-14T14:36:26Z</time>
      </trkpt>
      <trkpt lat="44.47353" lon="4.61129">
        <ele>357.79998779297</ele>
        <time>2021-04-14T14:36:27Z</time>
      </trkpt>
      <trkpt lat="44.47353" lon="4.61123">
        <ele>357.20001220703</ele>
        <time>2021-04-14T14:36:28Z</time>
      </trkpt>
      <trkpt lat="44.47352" lon="4.61117">
        <ele>356.79998779297</ele>
        <time>2021-04-14T14:36:29Z</time>
      </trkpt>
      <trkpt lat="44.47351" lon="4.6111">
        <ele>356.39999389648</ele>
        <time>2021-04-14T14:36:30Z</time>
      </trkpt>
      <trkpt lat="44.4735" lon="4.61104">
        <ele>355.39999389648</ele>
        <time>2021-04-14T14:36:31Z</time>
      </trkpt>
      <trkpt lat="44.47349" lon="4.61098">
        <ele>354.60000610352</ele>
        <time>2021-04-14T14:36:32Z</time>
      </trkpt>
      <trkpt lat="44.47348" lon="4.61093">
        <ele>353.79998779297</ele>
        <time>2021-04-14T14:36:33Z</time>
      </trkpt>
      <trkpt lat="44.47347" lon="4.61088">
        <ele>353.20001220703</ele>
        <time>2021-04-14T14:36:34Z</time>
      </trkpt>
      <trkpt lat="44.47347" lon="4.61083">
        <ele>352.79998779297</ele>
        <time>2021-04-14T14:36:35Z</time>
      </trkpt>
      <trkpt lat="44.47346" lon="4.61078">
        <ele>352.60000610352</ele>
        <time>2021-04-14T14:36:36Z</time>
      </trkpt>
      <trkpt lat="44.47346" lon="4.61073">
        <ele>352.39999389648</ele>
        <time>2021-04-14T14:36:37Z</time>
      </trkpt>
      <trkpt lat="44.47344" lon="4.61059">
        <ele>351.39999389648</ele>
        <time>2021-04-14T14:36:39Z</time>
      </trkpt>
      <trkpt lat="44.47342" lon="4.61035">
        <ele>348.60000610352</ele>
        <time>2021-04-14T14:36:42Z</time>
      </trkpt>
      <trkpt lat="44.47341" lon="4.61027">
        <ele>347.60000610352</ele>
        <time>2021-04-14T14:36:43Z</time>
      </trkpt>
      <trkpt lat="44.4734" lon="4.6102">
        <ele>347</ele>
        <time>2021-04-14T14:36:44Z</time>
      </trkpt>
      <trkpt lat="44.47339" lon="4.61013">
        <ele>346</ele>
        <time>2021-04-14T14:36:45Z</time>
      </trkpt>
      <trkpt lat="44.47338" lon="4.61006">
        <ele>345</ele>
        <time>2021-04-14T14:36:46Z</time>
      </trkpt>
      <trkpt lat="44.47336" lon="4.60999">
        <ele>344.20001220703</ele>
        <time>2021-04-14T14:36:47Z</time>
      </trkpt>
      <trkpt lat="44.47335" lon="4.60993">
        <ele>344</ele>
        <time>2021-04-14T14:36:48Z</time>
      </trkpt>
      <trkpt lat="44.47334" lon="4.60986">
        <ele>343</ele>
        <time>2021-04-14T14:36:49Z</time>
      </trkpt>
      <trkpt lat="44.47333" lon="4.60979">
        <ele>342.20001220703</ele>
        <time>2021-04-14T14:36:50Z</time>
      </trkpt>
      <trkpt lat="44.47332" lon="4.60973">
        <ele>340.79998779297</ele>
        <time>2021-04-14T14:36:51Z</time>
      </trkpt>
      <trkpt lat="44.47332" lon="4.60966">
        <ele>339.39999389648</ele>
        <time>2021-04-14T14:36:52Z</time>
      </trkpt>
      <trkpt lat="44.47332" lon="4.6096">
        <ele>338.39999389648</ele>
        <time>2021-04-14T14:36:53Z</time>
      </trkpt>
      <trkpt lat="44.47332" lon="4.60955">
        <ele>337.39999389648</ele>
        <time>2021-04-14T14:36:54Z</time>
      </trkpt>
      <trkpt lat="44.47333" lon="4.60949">
        <ele>336.39999389648</ele>
        <time>2021-04-14T14:36:55Z</time>
      </trkpt>
      <trkpt lat="44.47335" lon="4.60944">
        <ele>335</ele>
        <time>2021-04-14T14:36:56Z</time>
      </trkpt>
      <trkpt lat="44.47339" lon="4.60933">
        <ele>331.79998779297</ele>
        <time>2021-04-14T14:36:58Z</time>
      </trkpt>
      <trkpt lat="44.47341" lon="4.60928">
        <ele>330.79998779297</ele>
        <time>2021-04-14T14:36:59Z</time>
      </trkpt>
      <trkpt lat="44.47344" lon="4.60923">
        <ele>330.20001220703</ele>
        <time>2021-04-14T14:37:00Z</time>
      </trkpt>
      <trkpt lat="44.47347" lon="4.60918">
        <ele>328.79998779297</ele>
        <time>2021-04-14T14:37:01Z</time>
      </trkpt>
      <trkpt lat="44.4735" lon="4.60914">
        <ele>327.60000610352</ele>
        <time>2021-04-14T14:37:02Z</time>
      </trkpt>
      <trkpt lat="44.47354" lon="4.60909">
        <ele>326</ele>
        <time>2021-04-14T14:37:03Z</time>
      </trkpt>
      <trkpt lat="44.47358" lon="4.60906">
        <ele>325</ele>
        <time>2021-04-14T14:37:04Z</time>
      </trkpt>
      <trkpt lat="44.47366" lon="4.609">
        <ele>323.39999389648</ele>
        <time>2021-04-14T14:37:06Z</time>
      </trkpt>
      <trkpt lat="44.4737" lon="4.60898">
        <ele>322.20001220703</ele>
        <time>2021-04-14T14:37:07Z</time>
      </trkpt>
      <trkpt lat="44.47374" lon="4.60894">
        <ele>321.39999389648</ele>
        <time>2021-04-14T14:37:08Z</time>
      </trkpt>
      <trkpt lat="44.47377" lon="4.6089">
        <ele>320</ele>
        <time>2021-04-14T14:37:09Z</time>
      </trkpt>
      <trkpt lat="44.47381" lon="4.60886">
        <ele>319</ele>
        <time>2021-04-14T14:37:10Z</time>
      </trkpt>
      <trkpt lat="44.47385" lon="4.60883">
        <ele>317.79998779297</ele>
        <time>2021-04-14T14:37:11Z</time>
      </trkpt>
      <trkpt lat="44.47389" lon="4.60881">
        <ele>316</ele>
        <time>2021-04-14T14:37:12Z</time>
      </trkpt>
      <trkpt lat="44.47393" lon="4.60879">
        <ele>314.20001220703</ele>
        <time>2021-04-14T14:37:13Z</time>
      </trkpt>
      <trkpt lat="44.47397" lon="4.60878">
        <ele>313</ele>
        <time>2021-04-14T14:37:14Z</time>
      </trkpt>
      <trkpt lat="44.47401" lon="4.60877">
        <ele>312</ele>
        <time>2021-04-14T14:37:15Z</time>
      </trkpt>
      <trkpt lat="44.47406" lon="4.60876">
        <ele>310.60000610352</ele>
        <time>2021-04-14T14:37:16Z</time>
      </trkpt>
      <trkpt lat="44.47416" lon="4.60874">
        <ele>308.60000610352</ele>
        <time>2021-04-14T14:37:18Z</time>
      </trkpt>
      <trkpt lat="44.47421" lon="4.60872">
        <ele>307.20001220703</ele>
        <time>2021-04-14T14:37:19Z</time>
      </trkpt>
      <trkpt lat="44.47426" lon="4.60871">
        <ele>305.79998779297</ele>
        <time>2021-04-14T14:37:20Z</time>
      </trkpt>
      <trkpt lat="44.4743" lon="4.60869">
        <ele>304.39999389648</ele>
        <time>2021-04-14T14:37:21Z</time>
      </trkpt>
      <trkpt lat="44.47434" lon="4.60866">
        <ele>303.39999389648</ele>
        <time>2021-04-14T14:37:22Z</time>
      </trkpt>
      <trkpt lat="44.47438" lon="4.60863">
        <ele>302.20001220703</ele>
        <time>2021-04-14T14:37:23Z</time>
      </trkpt>
      <trkpt lat="44.47442" lon="4.6086">
        <ele>301.60000610352</ele>
        <time>2021-04-14T14:37:24Z</time>
      </trkpt>
      <trkpt lat="44.47445" lon="4.60857">
        <ele>300.60000610352</ele>
        <time>2021-04-14T14:37:25Z</time>
      </trkpt>
      <trkpt lat="44.47448" lon="4.60855">
        <ele>299.79998779297</ele>
        <time>2021-04-14T14:37:26Z</time>
      </trkpt>
      <trkpt lat="44.47452" lon="4.60852">
        <ele>299.79998779297</ele>
        <time>2021-04-14T14:37:27Z</time>
      </trkpt>
      <trkpt lat="44.47456" lon="4.60849">
        <ele>298.79998779297</ele>
        <time>2021-04-14T14:37:28Z</time>
      </trkpt>
      <trkpt lat="44.47464" lon="4.60844">
        <ele>297.20001220703</ele>
        <time>2021-04-14T14:37:30Z</time>
      </trkpt>
      <trkpt lat="44.47467" lon="4.6084">
        <ele>296</ele>
        <time>2021-04-14T14:37:31Z</time>
      </trkpt>
      <trkpt lat="44.47468" lon="4.60836">
        <ele>295.20001220703</ele>
        <time>2021-04-14T14:37:32Z</time>
      </trkpt>
      <trkpt lat="44.47468" lon="4.60831">
        <ele>294.39999389648</ele>
        <time>2021-04-14T14:37:33Z</time>
      </trkpt>
      <trkpt lat="44.47468" lon="4.60826">
        <ele>294</ele>
        <time>2021-04-14T14:37:34Z</time>
      </trkpt>
      <trkpt lat="44.47467" lon="4.60822">
        <ele>292.79998779297</ele>
        <time>2021-04-14T14:37:35Z</time>
      </trkpt>
      <trkpt lat="44.47466" lon="4.60817">
        <ele>291.79998779297</ele>
        <time>2021-04-14T14:37:36Z</time>
      </trkpt>
      <trkpt lat="44.47466" lon="4.60811">
        <ele>291</ele>
        <time>2021-04-14T14:37:37Z</time>
      </trkpt>
      <trkpt lat="44.47466" lon="4.60804">
        <ele>290.39999389648</ele>
        <time>2021-04-14T14:37:38Z</time>
      </trkpt>
      <trkpt lat="44.47466" lon="4.60797">
        <ele>289.20001220703</ele>
        <time>2021-04-14T14:37:39Z</time>
      </trkpt>
      <trkpt lat="44.47466" lon="4.6079">
        <ele>288.20001220703</ele>
        <time>2021-04-14T14:37:40Z</time>
      </trkpt>
      <trkpt lat="44.47465" lon="4.60783">
        <ele>287.20001220703</ele>
        <time>2021-04-14T14:37:41Z</time>
      </trkpt>
      <trkpt lat="44.47464" lon="4.60777">
        <ele>286</ele>
        <time>2021-04-14T14:37:42Z</time>
      </trkpt>
      <trkpt lat="44.47462" lon="4.60771">
        <ele>285.20001220703</ele>
        <time>2021-04-14T14:37:43Z</time>
      </trkpt>
      <trkpt lat="44.47461" lon="4.60766">
        <ele>284.79998779297</ele>
        <time>2021-04-14T14:37:44Z</time>
      </trkpt>
      <trkpt lat="44.47459" lon="4.60761">
        <ele>283.79998779297</ele>
        <time>2021-04-14T14:37:45Z</time>
      </trkpt>
      <trkpt lat="44.47457" lon="4.60756">
        <ele>283</ele>
        <time>2021-04-14T14:37:46Z</time>
      </trkpt>
      <trkpt lat="44.47456" lon="4.60751">
        <ele>281.79998779297</ele>
        <time>2021-04-14T14:37:47Z</time>
      </trkpt>
      <trkpt lat="44.47456" lon="4.60745">
        <ele>280.79998779297</ele>
        <time>2021-04-14T14:37:48Z</time>
      </trkpt>
      <trkpt lat="44.47455" lon="4.6074">
        <ele>280</ele>
        <time>2021-04-14T14:37:49Z</time>
      </trkpt>
      <trkpt lat="44.47454" lon="4.60734">
        <ele>280</ele>
        <time>2021-04-14T14:37:50Z</time>
      </trkpt>
      <trkpt lat="44.47453" lon="4.60728">
        <ele>278.79998779297</ele>
        <time>2021-04-14T14:37:51Z</time>
      </trkpt>
      <trkpt lat="44.47453" lon="4.60722">
        <ele>277.79998779297</ele>
        <time>2021-04-14T14:37:52Z</time>
      </trkpt>
      <trkpt lat="44.47453" lon="4.60716">
        <ele>277.20001220703</ele>
        <time>2021-04-14T14:37:53Z</time>
      </trkpt>
      <trkpt lat="44.47453" lon="4.60712">
        <ele>276.39999389648</ele>
        <time>2021-04-14T14:37:54Z</time>
      </trkpt>
      <trkpt lat="44.47453" lon="4.60707">
        <ele>275.39999389648</ele>
        <time>2021-04-14T14:37:55Z</time>
      </trkpt>
      <trkpt lat="44.47453" lon="4.60702">
        <ele>274.20001220703</ele>
        <time>2021-04-14T14:37:56Z</time>
      </trkpt>
      <trkpt lat="44.47454" lon="4.60698">
        <ele>273.20001220703</ele>
        <time>2021-04-14T14:37:57Z</time>
      </trkpt>
      <trkpt lat="44.47454" lon="4.60694">
        <ele>272</ele>
        <time>2021-04-14T14:37:58Z</time>
      </trkpt>
      <trkpt lat="44.47453" lon="4.6069">
        <ele>270.79998779297</ele>
        <time>2021-04-14T14:37:59Z</time>
      </trkpt>
      <trkpt lat="44.47453" lon="4.60688">
        <ele>269.79998779297</ele>
        <time>2021-04-14T14:38:00Z</time>
      </trkpt>
      <trkpt lat="44.47455" lon="4.60686">
        <ele>269</ele>
        <time>2021-04-14T14:38:01Z</time>
      </trkpt>
      <trkpt lat="44.47457" lon="4.60683">
        <ele>268</ele>
        <time>2021-04-14T14:38:02Z</time>
      </trkpt>
      <trkpt lat="44.47458" lon="4.6068">
        <ele>267.39999389648</ele>
        <time>2021-04-14T14:38:03Z</time>
      </trkpt>
      <trkpt lat="44.4746" lon="4.60677">
        <ele>266.20001220703</ele>
        <time>2021-04-14T14:38:04Z</time>
      </trkpt>
      <trkpt lat="44.47461" lon="4.60673">
        <ele>265</ele>
        <time>2021-04-14T14:38:05Z</time>
      </trkpt>
      <trkpt lat="44.47463" lon="4.6067">
        <ele>264</ele>
        <time>2021-04-14T14:38:06Z</time>
      </trkpt>
      <trkpt lat="44.47465" lon="4.60667">
        <ele>263.20001220703</ele>
        <time>2021-04-14T14:38:07Z</time>
      </trkpt>
      <trkpt lat="44.47471" lon="4.60662">
        <ele>262</ele>
        <time>2021-04-14T14:38:09Z</time>
      </trkpt>
      <trkpt lat="44.47472" lon="4.6066">
        <ele>261.20001220703</ele>
        <time>2021-04-14T14:38:10Z</time>
      </trkpt>
      <trkpt lat="44.47473" lon="4.60659">
        <ele>260.39999389648</ele>
        <time>2021-04-14T14:38:11Z</time>
      </trkpt>
      <trkpt lat="44.47475" lon="4.60657">
        <ele>260</ele>
        <time>2021-04-14T14:38:12Z</time>
      </trkpt>
      <trkpt lat="44.4748" lon="4.60652">
        <ele>259.20001220703</ele>
        <time>2021-04-14T14:38:14Z</time>
      </trkpt>
      <trkpt lat="44.47483" lon="4.60649">
        <ele>258.60000610352</ele>
        <time>2021-04-14T14:38:15Z</time>
      </trkpt>
      <trkpt lat="44.47488" lon="4.60643">
        <ele>257</ele>
        <time>2021-04-14T14:38:17Z</time>
      </trkpt>
      <trkpt lat="44.4749" lon="4.6064">
        <ele>256.39999389648</ele>
        <time>2021-04-14T14:38:18Z</time>
      </trkpt>
      <trkpt lat="44.47491" lon="4.60636">
        <ele>255.60000610352</ele>
        <time>2021-04-14T14:38:19Z</time>
      </trkpt>
      <trkpt lat="44.47495" lon="4.6063">
        <ele>254.60000610352</ele>
        <time>2021-04-14T14:38:21Z</time>
      </trkpt>
      <trkpt lat="44.47498" lon="4.60627">
        <ele>254.19999694824</ele>
        <time>2021-04-14T14:38:22Z</time>
      </trkpt>
      <trkpt lat="44.475" lon="4.60625">
        <ele>254</ele>
        <time>2021-04-14T14:38:23Z</time>
      </trkpt>
      <trkpt lat="44.47503" lon="4.60623">
        <ele>253.60000610352</ele>
        <time>2021-04-14T14:38:24Z</time>
      </trkpt>
      <trkpt lat="44.47509" lon="4.60613">
        <ele>252.60000610352</ele>
        <time>2021-04-14T14:38:27Z</time>
      </trkpt>
      <trkpt lat="44.4751" lon="4.6061">
        <ele>252</ele>
        <time>2021-04-14T14:38:28Z</time>
      </trkpt>
      <trkpt lat="44.47512" lon="4.60608">
        <ele>252</ele>
        <time>2021-04-14T14:38:29Z</time>
      </trkpt>
      <trkpt lat="44.47514" lon="4.60605">
        <ele>251.60000610352</ele>
        <time>2021-04-14T14:38:30Z</time>
      </trkpt>
      <trkpt lat="44.47517" lon="4.60602">
        <ele>251.39999389648</ele>
        <time>2021-04-14T14:38:31Z</time>
      </trkpt>
      <trkpt lat="44.47519" lon="4.606">
        <ele>251</ele>
        <time>2021-04-14T14:38:32Z</time>
      </trkpt>
      <trkpt lat="44.47522" lon="4.60597">
        <ele>250.39999389648</ele>
        <time>2021-04-14T14:38:33Z</time>
      </trkpt>
      <trkpt lat="44.47525" lon="4.60595">
        <ele>250.19999694824</ele>
        <time>2021-04-14T14:38:34Z</time>
      </trkpt>
      <trkpt lat="44.47527" lon="4.60592">
        <ele>249.80000305176</ele>
        <time>2021-04-14T14:38:35Z</time>
      </trkpt>
      <trkpt lat="44.47531" lon="4.60585">
        <ele>249.80000305176</ele>
        <time>2021-04-14T14:38:37Z</time>
      </trkpt>
      <trkpt lat="44.47534" lon="4.60581">
        <ele>249.19999694824</ele>
        <time>2021-04-14T14:38:38Z</time>
      </trkpt>
      <trkpt lat="44.47541" lon="4.60569">
        <ele>247.39999389648</ele>
        <time>2021-04-14T14:38:41Z</time>
      </trkpt>
      <trkpt lat="44.47543" lon="4.60565">
        <ele>246.60000610352</ele>
        <time>2021-04-14T14:38:42Z</time>
      </trkpt>
      <trkpt lat="44.47545" lon="4.60561">
        <ele>245.80000305176</ele>
        <time>2021-04-14T14:38:43Z</time>
      </trkpt>
      <trkpt lat="44.47547" lon="4.60558">
        <ele>245.39999389648</ele>
        <time>2021-04-14T14:38:44Z</time>
      </trkpt>
      <trkpt lat="44.47549" lon="4.60554">
        <ele>245</ele>
        <time>2021-04-14T14:38:45Z</time>
      </trkpt>
      <trkpt lat="44.47551" lon="4.60549">
        <ele>244.60000610352</ele>
        <time>2021-04-14T14:38:46Z</time>
      </trkpt>
      <trkpt lat="44.47555" lon="4.60542">
        <ele>243</ele>
        <time>2021-04-14T14:38:48Z</time>
      </trkpt>
      <trkpt lat="44.47557" lon="4.60538">
        <ele>242.60000610352</ele>
        <time>2021-04-14T14:38:49Z</time>
      </trkpt>
      <trkpt lat="44.47558" lon="4.60534">
        <ele>242</ele>
        <time>2021-04-14T14:38:50Z</time>
      </trkpt>
      <trkpt lat="44.4756" lon="4.60531">
        <ele>240.19999694824</ele>
        <time>2021-04-14T14:38:51Z</time>
      </trkpt>
      <trkpt lat="44.47562" lon="4.60527">
        <ele>239</ele>
        <time>2021-04-14T14:38:52Z</time>
      </trkpt>
      <trkpt lat="44.47564" lon="4.60523">
        <ele>238.60000610352</ele>
        <time>2021-04-14T14:38:53Z</time>
      </trkpt>
      <trkpt lat="44.47567" lon="4.60513">
        <ele>237.80000305176</ele>
        <time>2021-04-14T14:38:55Z</time>
      </trkpt>
      <trkpt lat="44.47571" lon="4.60505">
        <ele>235.80000305176</ele>
        <time>2021-04-14T14:38:57Z</time>
      </trkpt>
      <trkpt lat="44.47577" lon="4.60496">
        <ele>234.60000610352</ele>
        <time>2021-04-14T14:38:59Z</time>
      </trkpt>
      <trkpt lat="44.47579" lon="4.60492">
        <ele>234</ele>
        <time>2021-04-14T14:39:00Z</time>
      </trkpt>
      <trkpt lat="44.47581" lon="4.60488">
        <ele>233.39999389648</ele>
        <time>2021-04-14T14:39:01Z</time>
      </trkpt>
      <trkpt lat="44.47584" lon="4.60484">
        <ele>233</ele>
        <time>2021-04-14T14:39:02Z</time>
      </trkpt>
      <trkpt lat="44.47589" lon="4.60475">
        <ele>231.19999694824</ele>
        <time>2021-04-14T14:39:04Z</time>
      </trkpt>
      <trkpt lat="44.47591" lon="4.60471">
        <ele>230.39999389648</ele>
        <time>2021-04-14T14:39:05Z</time>
      </trkpt>
      <trkpt lat="44.47593" lon="4.60467">
        <ele>229.80000305176</ele>
        <time>2021-04-14T14:39:06Z</time>
      </trkpt>
      <trkpt lat="44.47595" lon="4.60463">
        <ele>229.19999694824</ele>
        <time>2021-04-14T14:39:07Z</time>
      </trkpt>
      <trkpt lat="44.47599" lon="4.60455">
        <ele>228.19999694824</ele>
        <time>2021-04-14T14:39:09Z</time>
      </trkpt>
      <trkpt lat="44.47601" lon="4.60451">
        <ele>227.60000610352</ele>
        <time>2021-04-14T14:39:10Z</time>
      </trkpt>
      <trkpt lat="44.47604" lon="4.60448">
        <ele>227.19999694824</ele>
        <time>2021-04-14T14:39:11Z</time>
      </trkpt>
      <trkpt lat="44.47606" lon="4.60444">
        <ele>227</ele>
        <time>2021-04-14T14:39:12Z</time>
      </trkpt>
      <trkpt lat="44.47613" lon="4.60436">
        <ele>225</ele>
        <time>2021-04-14T14:39:14Z</time>
      </trkpt>
      <trkpt lat="44.47617" lon="4.60432">
        <ele>224.39999389648</ele>
        <time>2021-04-14T14:39:15Z</time>
      </trkpt>
      <trkpt lat="44.47624" lon="4.60424">
        <ele>222.80000305176</ele>
        <time>2021-04-14T14:39:17Z</time>
      </trkpt>
      <trkpt lat="44.47632" lon="4.60417">
        <ele>221.60000610352</ele>
        <time>2021-04-14T14:39:19Z</time>
      </trkpt>
      <trkpt lat="44.47635" lon="4.60412">
        <ele>221</ele>
        <time>2021-04-14T14:39:20Z</time>
      </trkpt>
      <trkpt lat="44.47639" lon="4.60408">
        <ele>220.19999694824</ele>
        <time>2021-04-14T14:39:21Z</time>
      </trkpt>
      <trkpt lat="44.47642" lon="4.60405">
        <ele>219.60000610352</ele>
        <time>2021-04-14T14:39:22Z</time>
      </trkpt>
      <trkpt lat="44.47646" lon="4.604">
        <ele>219.60000610352</ele>
        <time>2021-04-14T14:39:23Z</time>
      </trkpt>
      <trkpt lat="44.47649" lon="4.60396">
        <ele>219</ele>
        <time>2021-04-14T14:39:24Z</time>
      </trkpt>
      <trkpt lat="44.47655" lon="4.60386">
        <ele>218</ele>
        <time>2021-04-14T14:39:26Z</time>
      </trkpt>
      <trkpt lat="44.47659" lon="4.60381">
        <ele>217.39999389648</ele>
        <time>2021-04-14T14:39:27Z</time>
      </trkpt>
      <trkpt lat="44.47662" lon="4.60377">
        <ele>217.19999694824</ele>
        <time>2021-04-14T14:39:28Z</time>
      </trkpt>
      <trkpt lat="44.47665" lon="4.60372">
        <ele>216.60000610352</ele>
        <time>2021-04-14T14:39:29Z</time>
      </trkpt>
      <trkpt lat="44.47668" lon="4.60368">
        <ele>216.39999389648</ele>
        <time>2021-04-14T14:39:30Z</time>
      </trkpt>
      <trkpt lat="44.47671" lon="4.60365">
        <ele>215.80000305176</ele>
        <time>2021-04-14T14:39:31Z</time>
      </trkpt>
      <trkpt lat="44.47673" lon="4.60361">
        <ele>215.39999389648</ele>
        <time>2021-04-14T14:39:32Z</time>
      </trkpt>
      <trkpt lat="44.47678" lon="4.6035">
        <ele>214.60000610352</ele>
        <time>2021-04-14T14:39:34Z</time>
      </trkpt>
      <trkpt lat="44.4768" lon="4.60344">
        <ele>214.19999694824</ele>
        <time>2021-04-14T14:39:35Z</time>
      </trkpt>
      <trkpt lat="44.47684" lon="4.60338">
        <ele>214.19999694824</ele>
        <time>2021-04-14T14:39:36Z</time>
      </trkpt>
      <trkpt lat="44.47688" lon="4.60332">
        <ele>213.19999694824</ele>
        <time>2021-04-14T14:39:37Z</time>
      </trkpt>
      <trkpt lat="44.47697" lon="4.6032">
        <ele>211.60000610352</ele>
        <time>2021-04-14T14:39:39Z</time>
      </trkpt>
      <trkpt lat="44.47707" lon="4.60306">
        <ele>211</ele>
        <time>2021-04-14T14:39:41Z</time>
      </trkpt>
      <trkpt lat="44.47722" lon="4.60289">
        <ele>209</ele>
        <time>2021-04-14T14:39:44Z</time>
      </trkpt>
      <trkpt lat="44.47726" lon="4.60285">
        <ele>208.19999694824</ele>
        <time>2021-04-14T14:39:45Z</time>
      </trkpt>
      <trkpt lat="44.47729" lon="4.60281">
        <ele>208.19999694824</ele>
        <time>2021-04-14T14:39:46Z</time>
      </trkpt>
      <trkpt lat="44.47731" lon="4.60277">
        <ele>207.39999389648</ele>
        <time>2021-04-14T14:39:47Z</time>
      </trkpt>
      <trkpt lat="44.47734" lon="4.60273">
        <ele>206.80000305176</ele>
        <time>2021-04-14T14:39:48Z</time>
      </trkpt>
      <trkpt lat="44.47736" lon="4.60271">
        <ele>206.19999694824</ele>
        <time>2021-04-14T14:39:49Z</time>
      </trkpt>
      <trkpt lat="44.47739" lon="4.60269">
        <ele>206</ele>
        <time>2021-04-14T14:39:50Z</time>
      </trkpt>
      <trkpt lat="44.47741" lon="4.60267">
        <ele>205.80000305176</ele>
        <time>2021-04-14T14:39:51Z</time>
      </trkpt>
      <trkpt lat="44.47744" lon="4.60266">
        <ele>205.80000305176</ele>
        <time>2021-04-14T14:39:52Z</time>
      </trkpt>
      <trkpt lat="44.47745" lon="4.60265">
        <ele>205.80000305176</ele>
        <time>2021-04-14T14:39:53Z</time>
      </trkpt>
      <trkpt lat="44.47747" lon="4.60264">
        <ele>205.80000305176</ele>
        <time>2021-04-14T14:39:54Z</time>
      </trkpt>
      <trkpt lat="44.47748" lon="4.60262">
        <ele>205.80000305176</ele>
        <time>2021-04-14T14:39:55Z</time>
      </trkpt>
      <trkpt lat="44.47749" lon="4.6026">
        <ele>205.60000610352</ele>
        <time>2021-04-14T14:39:56Z</time>
      </trkpt>
      <trkpt lat="44.47749" lon="4.6026">
        <ele>205.80000305176</ele>
        <time>2021-04-14T14:39:57Z</time>
      </trkpt>
      <trkpt lat="44.47749" lon="4.60259">
        <ele>206</ele>
        <time>2021-04-14T14:40:00Z</time>
      </trkpt>
      <trkpt lat="44.47749" lon="4.60259">
        <ele>206.19999694824</ele>
        <time>2021-04-14T14:40:03Z</time>
      </trkpt>
      <trkpt lat="44.47749" lon="4.60259">
        <ele>206.19999694824</ele>
        <time>2021-04-14T14:40:06Z</time>
      </trkpt>
      <trkpt lat="44.47749" lon="4.60259">
        <ele>206.39999389648</ele>
        <time>2021-04-14T14:40:08Z</time>
      </trkpt>
      <trkpt lat="44.47749" lon="4.60259">
        <ele>206.60000610352</ele>
        <time>2021-04-14T14:40:23Z</time>
      </trkpt>
      <trkpt lat="44.47749" lon="4.60259">
        <ele>206.39999389648</ele>
        <time>2021-04-14T14:40:38Z</time>
      </trkpt>
      <trkpt lat="44.4775" lon="4.60259">
        <ele>206.39999389648</ele>
        <time>2021-04-14T14:40:39Z</time>
      </trkpt>
      <trkpt lat="44.47754" lon="4.60256">
        <ele>206.60000610352</ele>
        <time>2021-04-14T14:40:41Z</time>
      </trkpt>
      <trkpt lat="44.47759" lon="4.6025">
        <ele>206.39999389648</ele>
        <time>2021-04-14T14:40:43Z</time>
      </trkpt>
      <trkpt lat="44.47765" lon="4.60242">
        <ele>206.39999389648</ele>
        <time>2021-04-14T14:40:45Z</time>
      </trkpt>
      <trkpt lat="44.47769" lon="4.60233">
        <ele>206.19999694824</ele>
        <time>2021-04-14T14:40:47Z</time>
      </trkpt>
      <trkpt lat="44.47771" lon="4.6023">
        <ele>206</ele>
        <time>2021-04-14T14:40:48Z</time>
      </trkpt>
      <trkpt lat="44.47773" lon="4.60227">
        <ele>205.80000305176</ele>
        <time>2021-04-14T14:40:49Z</time>
      </trkpt>
      <trkpt lat="44.47776" lon="4.60225">
        <ele>205.60000610352</ele>
        <time>2021-04-14T14:40:50Z</time>
      </trkpt>
      <trkpt lat="44.47779" lon="4.60224">
        <ele>205.19999694824</ele>
        <time>2021-04-14T14:40:51Z</time>
      </trkpt>
      <trkpt lat="44.47782" lon="4.60224">
        <ele>205</ele>
        <time>2021-04-14T14:40:52Z</time>
      </trkpt>
      <trkpt lat="44.47787" lon="4.60224">
        <ele>205.19999694824</ele>
        <time>2021-04-14T14:40:53Z</time>
      </trkpt>
      <trkpt lat="44.47791" lon="4.60224">
        <ele>205</ele>
        <time>2021-04-14T14:40:54Z</time>
      </trkpt>
      <trkpt lat="44.47796" lon="4.60225">
        <ele>205</ele>
        <time>2021-04-14T14:40:55Z</time>
      </trkpt>
      <trkpt lat="44.478" lon="4.60227">
        <ele>204.80000305176</ele>
        <time>2021-04-14T14:40:56Z</time>
      </trkpt>
      <trkpt lat="44.47809" lon="4.6023">
        <ele>204.80000305176</ele>
        <time>2021-04-14T14:40:58Z</time>
      </trkpt>
      <trkpt lat="44.47814" lon="4.60231">
        <ele>204.39999389648</ele>
        <time>2021-04-14T14:40:59Z</time>
      </trkpt>
      <trkpt lat="44.47818" lon="4.60232">
        <ele>203.80000305176</ele>
        <time>2021-04-14T14:41:00Z</time>
      </trkpt>
      <trkpt lat="44.47824" lon="4.60234">
        <ele>203.39999389648</ele>
        <time>2021-04-14T14:41:01Z</time>
      </trkpt>
      <trkpt lat="44.47829" lon="4.6024">
        <ele>203.19999694824</ele>
        <time>2021-04-14T14:41:02Z</time>
      </trkpt>
      <trkpt lat="44.4784" lon="4.60255">
        <ele>201.60000610352</ele>
        <time>2021-04-14T14:41:04Z</time>
      </trkpt>
      <trkpt lat="44.47846" lon="4.60264">
        <ele>200.39999389648</ele>
        <time>2021-04-14T14:41:05Z</time>
      </trkpt>
      <trkpt lat="44.47852" lon="4.60274">
        <ele>199.39999389648</ele>
        <time>2021-04-14T14:41:06Z</time>
      </trkpt>
      <trkpt lat="44.47858" lon="4.60284">
        <ele>198.19999694824</ele>
        <time>2021-04-14T14:41:07Z</time>
      </trkpt>
      <trkpt lat="44.47864" lon="4.60294">
        <ele>196.60000610352</ele>
        <time>2021-04-14T14:41:08Z</time>
      </trkpt>
      <trkpt lat="44.47868" lon="4.60305">
        <ele>195.19999694824</ele>
        <time>2021-04-14T14:41:09Z</time>
      </trkpt>
      <trkpt lat="44.47872" lon="4.60318">
        <ele>194</ele>
        <time>2021-04-14T14:41:10Z</time>
      </trkpt>
      <trkpt lat="44.47877" lon="4.60331">
        <ele>193.19999694824</ele>
        <time>2021-04-14T14:41:11Z</time>
      </trkpt>
      <trkpt lat="44.47884" lon="4.6036">
        <ele>191.60000610352</ele>
        <time>2021-04-14T14:41:13Z</time>
      </trkpt>
      <trkpt lat="44.47888" lon="4.60374">
        <ele>190.60000610352</ele>
        <time>2021-04-14T14:41:14Z</time>
      </trkpt>
      <trkpt lat="44.47892" lon="4.60387">
        <ele>189.60000610352</ele>
        <time>2021-04-14T14:41:15Z</time>
      </trkpt>
      <trkpt lat="44.47896" lon="4.60398">
        <ele>188.19999694824</ele>
        <time>2021-04-14T14:41:16Z</time>
      </trkpt>
      <trkpt lat="44.47899" lon="4.60409">
        <ele>187</ele>
        <time>2021-04-14T14:41:17Z</time>
      </trkpt>
      <trkpt lat="44.47901" lon="4.60418">
        <ele>185.80000305176</ele>
        <time>2021-04-14T14:41:18Z</time>
      </trkpt>
      <trkpt lat="44.47901" lon="4.60427">
        <ele>185.80000305176</ele>
        <time>2021-04-14T14:41:19Z</time>
      </trkpt>
      <trkpt lat="44.47901" lon="4.60436">
        <ele>184.39999389648</ele>
        <time>2021-04-14T14:41:20Z</time>
      </trkpt>
      <trkpt lat="44.47901" lon="4.60445">
        <ele>183.19999694824</ele>
        <time>2021-04-14T14:41:21Z</time>
      </trkpt>
      <trkpt lat="44.47904" lon="4.60452">
        <ele>182</ele>
        <time>2021-04-14T14:41:22Z</time>
      </trkpt>
      <trkpt lat="44.47901" lon="4.60461">
        <ele>168.7734375</ele>
      </trkpt>
      <trkpt lat="44.47907" lon="4.60463">
        <ele>167.55859375</ele>
      </trkpt>
      <trkpt lat="44.47912" lon="4.60467">
        <ele>166.84375</ele>
      </trkpt>
      <trkpt lat="44.47918" lon="4.60477">
        <ele>165.91796875</ele>
      </trkpt>
      <trkpt lat="44.47921" lon="4.60485">
        <ele>165.58984375</ele>
      </trkpt>
      <trkpt lat="44.47925" lon="4.60491">
        <ele>165.0390625</ele>
      </trkpt>
      <trkpt lat="44.47931" lon="4.60517">
        <ele>164.66015625</ele>
      </trkpt>
      <trkpt lat="44.47937" lon="4.60535">
        <ele>164.09375</ele>
      </trkpt>
      <trkpt lat="44.47944" lon="4.60562">
        <ele>163.20703125</ele>
      </trkpt>
      <trkpt lat="44.47949" lon="4.60576">
        <ele>162.578125</ele>
      </trkpt>
      <trkpt lat="44.4795" lon="4.60589">
        <ele>162.83203125</ele>
      </trkpt>
      <trkpt lat="44.4795" lon="4.606">
        <ele>163.32421875</ele>
      </trkpt>
      <trkpt lat="44.47947" lon="4.6061">
        <ele>164.1796875</ele>
      </trkpt>
      <trkpt lat="44.47945" lon="4.60621">
        <ele>164.91796875</ele>
      </trkpt>
      <trkpt lat="44.47945" lon="4.60629">
        <ele>165.078125</ele>
      </trkpt>
      <trkpt lat="44.47946" lon="4.60638">
        <ele>165.015625</ele>
      </trkpt>
      <trkpt lat="44.47946" lon="4.60646">
        <ele>165.33203125</ele>
      </trkpt>
      <trkpt lat="44.47945" lon="4.6066">
        <ele>165.765625</ele>
      </trkpt>
      <trkpt lat="44.47944" lon="4.60668">
        <ele>166.23046875</ele>
      </trkpt>
      <trkpt lat="44.47944" lon="4.60677">
        <ele>166.60546875</ele>
      </trkpt>
      <trkpt lat="44.47944" lon="4.60687">
        <ele>166.71875</ele>
      </trkpt>
      <trkpt lat="44.47945" lon="4.60696">
        <ele>166.796875</ele>
      </trkpt>
      <trkpt lat="44.47947" lon="4.60709">
        <ele>166.37109375</ele>
      </trkpt>
      <trkpt lat="44.47952" lon="4.60717">
        <ele>165.3359375</ele>
      </trkpt>
      <trkpt lat="44.4796" lon="4.60726">
        <ele>163.66796875</ele>
      </trkpt>
      <trkpt lat="44.47977" lon="4.60744">
        <ele>160.4765625</ele>
      </trkpt>
      <trkpt lat="44.47986" lon="4.6075">
        <ele>158.8359375</ele>
      </trkpt>
      <trkpt lat="44.47993" lon="4.60755">
        <ele>157.20703125</ele>
      </trkpt>
      <trkpt lat="44.48002" lon="4.6076">
        <ele>155.2578125</ele>
      </trkpt>
      <trkpt lat="44.48008" lon="4.60764">
        <ele>153.91796875</ele>
      </trkpt>
      <trkpt lat="44.48014" lon="4.60772">
        <ele>152.6875</ele>
      </trkpt>
      <trkpt lat="44.48017" lon="4.60779">
        <ele>152.74609375</ele>
      </trkpt>
      <trkpt lat="44.48023" lon="4.60788">
        <ele>152.9453125</ele>
      </trkpt>
      <trkpt lat="44.48035" lon="4.60806">
        <ele>152.59375</ele>
      </trkpt>
      <trkpt lat="44.48045" lon="4.60814">
        <ele>151.6328125</ele>
      </trkpt>
      <trkpt lat="44.48056" lon="4.60826">
        <ele>150.1015625</ele>
      </trkpt>
      <trkpt lat="44.48109" lon="4.60873">
        <ele>146.6484375</ele>
      </trkpt>
      <trkpt lat="44.48119" lon="4.60881">
        <ele>145.546875</ele>
      </trkpt>
      <trkpt lat="44.48128" lon="4.60888">
        <ele>144.78125</ele>
      </trkpt>
      <trkpt lat="44.48137" lon="4.60895">
        <ele>144.6171875</ele>
      </trkpt>
      <trkpt lat="44.48146" lon="4.60902">
        <ele>144.23046875</ele>
      </trkpt>
      <trkpt lat="44.48156" lon="4.60909">
        <ele>143.55078125</ele>
      </trkpt>
      <trkpt lat="44.48166" lon="4.60916">
        <ele>142.7578125</ele>
      </trkpt>
      <trkpt lat="44.48173" lon="4.60923">
        <ele>142.0625</ele>
      </trkpt>
      <trkpt lat="44.48181" lon="4.6093">
        <ele>141.52734375</ele>
      </trkpt>
      <trkpt lat="44.4819" lon="4.60939">
        <ele>141.5390625</ele>
      </trkpt>
      <trkpt lat="44.48202" lon="4.60952">
        <ele>141.69921875</ele>
      </trkpt>
      <trkpt lat="44.48214" lon="4.60969">
        <ele>141.78515625</ele>
      </trkpt>
      <trkpt lat="44.48227" lon="4.60991">
        <ele>141.51171875</ele>
      </trkpt>
      <trkpt lat="44.48238" lon="4.61007">
        <ele>141.4921875</ele>
      </trkpt>
      <trkpt lat="44.48246" lon="4.61023">
        <ele>142</ele>
      </trkpt>
      <trkpt lat="44.48253" lon="4.61042">
        <ele>142.359375</ele>
      </trkpt>
      <trkpt lat="44.48262" lon="4.61066">
        <ele>142.80859375</ele>
      </trkpt>
      <trkpt lat="44.4827" lon="4.61083">
        <ele>142.8984375</ele>
      </trkpt>
      <trkpt lat="44.4828" lon="4.61101">
        <ele>142.421875</ele>
      </trkpt>
      <trkpt lat="44.4829" lon="4.61119">
        <ele>142.21484375</ele>
      </trkpt>
      <trkpt lat="44.483" lon="4.61139">
        <ele>143.34765625</ele>
      </trkpt>
      <trkpt lat="44.48311" lon="4.61158">
        <ele>143.515625</ele>
      </trkpt>
      <trkpt lat="44.48318" lon="4.6117">
        <ele>143.7109375</ele>
      </trkpt>
      <trkpt lat="44.48327" lon="4.61185">
        <ele>143.85546875</ele>
      </trkpt>
      <trkpt lat="44.48333" lon="4.61196">
        <ele>143.6875</ele>
      </trkpt>
      <trkpt lat="44.48339" lon="4.61201">
        <ele>142.96875</ele>
      </trkpt>
      <trkpt lat="44.48345" lon="4.61203">
        <ele>141.9140625</ele>
      </trkpt>
      <trkpt lat="44.48348" lon="4.61203">
        <ele>141.5859375</ele>
      </trkpt>
      <trkpt lat="44.48351" lon="4.61202">
        <ele>141.21875</ele>
      </trkpt>
      <trkpt lat="44.48355" lon="4.61198">
        <ele>140.6875</ele>
      </trkpt>
      <trkpt lat="44.48357" lon="4.61192">
        <ele>140.0625</ele>
      </trkpt>
      <trkpt lat="44.48361" lon="4.61187">
        <ele>139.453125</ele>
      </trkpt>
      <trkpt lat="44.48364" lon="4.61183">
        <ele>139.03125</ele>
      </trkpt>
      <trkpt lat="44.48388" lon="4.6119">
        <ele>137.45703125</ele>
      </trkpt>
      <trkpt lat="44.484" lon="4.61194">
        <ele>136.5859375</ele>
      </trkpt>
      <trkpt lat="44.48411" lon="4.61195">
        <ele>136.23828125</ele>
      </trkpt>
      <trkpt lat="44.48422" lon="4.61193">
        <ele>135.9140625</ele>
      </trkpt>
      <trkpt lat="44.48433" lon="4.61191">
        <ele>135.62890625</ele>
      </trkpt>
      <trkpt lat="44.4844" lon="4.61191">
        <ele>135.42578125</ele>
      </trkpt>
      <trkpt lat="44.48452" lon="4.61194">
        <ele>135.05078125</ele>
      </trkpt>
      <trkpt lat="44.48458" lon="4.61196">
        <ele>134.8671875</ele>
      </trkpt>
      <trkpt lat="44.48465" lon="4.61197">
        <ele>134.9296875</ele>
      </trkpt>
      <trkpt lat="44.48476" lon="4.61198">
        <ele>135.0078125</ele>
      </trkpt>
      <trkpt lat="44.48484" lon="4.61198">
        <ele>135.14453125</ele>
      </trkpt>
      <trkpt lat="44.48494" lon="4.61197">
        <ele>135.30859375</ele>
      </trkpt>
      <trkpt lat="44.4851" lon="4.61197">
        <ele>135.58203125</ele>
      </trkpt>
      <trkpt lat="44.48517" lon="4.61199">
        <ele>135.76953125</ele>
      </trkpt>
      <trkpt lat="44.48525" lon="4.61201">
        <ele>136.140625</ele>
      </trkpt>
      <trkpt lat="44.48534" lon="4.61204">
        <ele>136.54296875</ele>
      </trkpt>
      <trkpt lat="44.48539" lon="4.61202">
        <ele>137.04296875</ele>
      </trkpt>
      <trkpt lat="44.48544" lon="4.61198">
        <ele>137.66015625</ele>
      </trkpt>
      <trkpt lat="44.48556" lon="4.61184">
        <ele>139.8984375</ele>
      </trkpt>
      <trkpt lat="44.48562" lon="4.61177">
        <ele>141.03515625</ele>
      </trkpt>
      <trkpt lat="44.48564" lon="4.61172">
        <ele>141.87890625</ele>
      </trkpt>
      <trkpt lat="44.48564" lon="4.61167">
        <ele>142.3359375</ele>
      </trkpt>
      <trkpt lat="44.48563" lon="4.61162">
        <ele>142.89453125</ele>
      </trkpt>
      <trkpt lat="44.48562" lon="4.61156">
        <ele>143.68359375</ele>
      </trkpt>
      <trkpt lat="44.48558" lon="4.61151">
        <ele>144.1328125</ele>
      </trkpt>
      <trkpt lat="44.48555" lon="4.61141">
        <ele>145.33203125</ele>
      </trkpt>
      <trkpt lat="44.48557" lon="4.61139">
        <ele>140.28515625</ele>
      </trkpt>
      <trkpt lat="44.48534" lon="4.6111">
        <ele>139.9921875</ele>
      </trkpt>
      <trkpt lat="44.48513" lon="4.61081">
        <ele>140.96875</ele>
      </trkpt>
      <trkpt lat="44.48502" lon="4.61064">
        <ele>141.375</ele>
      </trkpt>
      <trkpt lat="44.48494" lon="4.61057">
        <ele>141.1875</ele>
      </trkpt>
      <trkpt lat="44.48479" lon="4.61045">
        <ele>142.05859375</ele>
      </trkpt>
      <trkpt lat="44.48461" lon="4.61032">
        <ele>142.421875</ele>
      </trkpt>
      <trkpt lat="44.48448" lon="4.61023">
        <ele>142.25</ele>
      </trkpt>
      <trkpt lat="44.48437" lon="4.61012">
        <ele>143.0390625</ele>
      </trkpt>
      <trkpt lat="44.48414" lon="4.60985">
        <ele>144.3125</ele>
      </trkpt>
      <trkpt lat="44.484" lon="4.60967">
        <ele>144.32421875</ele>
      </trkpt>
      <trkpt lat="44.48394" lon="4.60959">
        <ele>144.58203125</ele>
      </trkpt>
      <trkpt lat="44.48388" lon="4.60948">
        <ele>144.87109375</ele>
      </trkpt>
      <trkpt lat="44.48384" lon="4.60939">
        <ele>145.16015625</ele>
      </trkpt>
      <trkpt lat="44.4838" lon="4.60927">
        <ele>145.703125</ele>
      </trkpt>
      <trkpt lat="44.48379" lon="4.60915">
        <ele>146.734375</ele>
      </trkpt>
      <trkpt lat="44.48379" lon="4.60899">
        <ele>148.44921875</ele>
      </trkpt>
      <trkpt lat="44.48378" lon="4.60892">
        <ele>149.03125</ele>
      </trkpt>
      <trkpt lat="44.48376" lon="4.60885">
        <ele>149.43359375</ele>
      </trkpt>
      <trkpt lat="44.4837" lon="4.60878">
        <ele>149.2578125</ele>
      </trkpt>
      <trkpt lat="44.48366" lon="4.60875">
        <ele>149.08984375</ele>
      </trkpt>
      <trkpt lat="44.48359" lon="4.60871">
        <ele>148.69140625</ele>
      </trkpt>
      <trkpt lat="44.48351" lon="4.60869">
        <ele>148.078125</ele>
      </trkpt>
      <trkpt lat="44.4834" lon="4.60867">
        <ele>147.76171875</ele>
      </trkpt>
      <trkpt lat="44.4833" lon="4.60864">
        <ele>147.671875</ele>
      </trkpt>
      <trkpt lat="44.48322" lon="4.6086">
        <ele>147.8046875</ele>
      </trkpt>
      <trkpt lat="44.48315" lon="4.60853">
        <ele>148.234375</ele>
      </trkpt>
      <trkpt lat="44.483" lon="4.60839">
        <ele>148.84765625</ele>
      </trkpt>
      <trkpt lat="44.48284" lon="4.60818">
        <ele>150.13671875</ele>
      </trkpt>
      <trkpt lat="44.48259" lon="4.60783">
        <ele>150.9609375</ele>
      </trkpt>
      <trkpt lat="44.48254" lon="4.60776">
        <ele>151.41796875</ele>
      </trkpt>
      <trkpt lat="44.48247" lon="4.60767">
        <ele>151.91015625</ele>
      </trkpt>
      <trkpt lat="44.48238" lon="4.60748">
        <ele>153.078125</ele>
      </trkpt>
      <trkpt lat="44.48229" lon="4.60732">
        <ele>153.32421875</ele>
      </trkpt>
      <trkpt lat="44.4822" lon="4.60717">
        <ele>153.21484375</ele>
      </trkpt>
      <trkpt lat="44.4821" lon="4.60696">
        <ele>153.66796875</ele>
      </trkpt>
      <trkpt lat="44.48202" lon="4.60677">
        <ele>155.0625</ele>
      </trkpt>
      <trkpt lat="44.4819" lon="4.60647">
        <ele>156.65234375</ele>
      </trkpt>
      <trkpt lat="44.48179" lon="4.60618">
        <ele>157.24609375</ele>
      </trkpt>
      <trkpt lat="44.48167" lon="4.60595">
        <ele>156.484375</ele>
      </trkpt>
      <trkpt lat="44.48159" lon="4.60579">
        <ele>156.68359375</ele>
      </trkpt>
      <trkpt lat="44.48156" lon="4.60569">
        <ele>156.86328125</ele>
      </trkpt>
      <trkpt lat="44.48152" lon="4.60555">
        <ele>157.33984375</ele>
      </trkpt>
      <trkpt lat="44.48138" lon="4.60493">
        <ele>158.52734375</ele>
      </trkpt>
      <trkpt lat="44.48136" lon="4.60484">
        <ele>158.56640625</ele>
      </trkpt>
      <trkpt lat="44.48133" lon="4.6047">
        <ele>158.78125</ele>
      </trkpt>
      <trkpt lat="44.48124" lon="4.60443">
        <ele>158.64453125</ele>
      </trkpt>
      <trkpt lat="44.48116" lon="4.60418">
        <ele>159.56640625</ele>
      </trkpt>
      <trkpt lat="44.48111" lon="4.60407">
        <ele>159.85546875</ele>
      </trkpt>
      <trkpt lat="44.48099" lon="4.6038">
        <ele>160.15625</ele>
      </trkpt>
      <trkpt lat="44.48084" lon="4.60352">
        <ele>159.4921875</ele>
      </trkpt>
      <trkpt lat="44.4807" lon="4.60323">
        <ele>159.078125</ele>
      </trkpt>
      <trkpt lat="44.48062" lon="4.60303">
        <ele>158.82421875</ele>
      </trkpt>
      <trkpt lat="44.48058" lon="4.6029">
        <ele>158.9921875</ele>
      </trkpt>
      <trkpt lat="44.48055" lon="4.6028">
        <ele>159.14453125</ele>
      </trkpt>
      <trkpt lat="44.48054" lon="4.6027">
        <ele>159.57421875</ele>
      </trkpt>
      <trkpt lat="44.48051" lon="4.60225">
        <ele>162.59375</ele>
      </trkpt>
      <trkpt lat="44.48049" lon="4.60195">
        <ele>164.21875</ele>
      </trkpt>
      <trkpt lat="44.48042" lon="4.60154">
        <ele>164.40234375</ele>
      </trkpt>
      <trkpt lat="44.48034" lon="4.60109">
        <ele>164.6015625</ele>
      </trkpt>
      <trkpt lat="44.48025" lon="4.60059">
        <ele>167.10546875</ele>
      </trkpt>
      <trkpt lat="44.48019" lon="4.60039">
        <ele>168.0546875</ele>
      </trkpt>
      <trkpt lat="44.48014" lon="4.60025">
        <ele>168.44921875</ele>
      </trkpt>
      <trkpt lat="44.48006" lon="4.60004">
        <ele>168.421875</ele>
      </trkpt>
      <trkpt lat="44.48002" lon="4.59992">
        <ele>168.10546875</ele>
      </trkpt>
      <trkpt lat="44.47998" lon="4.5998">
        <ele>168.421875</ele>
      </trkpt>
      <trkpt lat="44.47994" lon="4.59954">
        <ele>170.83984375</ele>
      </trkpt>
      <trkpt lat="44.47993" lon="4.59949">
        <ele>171.38671875</ele>
      </trkpt>
      <trkpt lat="44.47989" lon="4.59938">
        <ele>172.2890625</ele>
      </trkpt>
      <trkpt lat="44.47987" lon="4.59932">
        <ele>172.64453125</ele>
      </trkpt>
      <trkpt lat="44.47977" lon="4.59919">
        <ele>172.4609375</ele>
      </trkpt>
      <trkpt lat="44.47969" lon="4.59908">
        <ele>172.34765625</ele>
      </trkpt>
      <trkpt lat="44.47961" lon="4.59896">
        <ele>172.59765625</ele>
      </trkpt>
      <trkpt lat="44.47949" lon="4.5988">
        <ele>172.97265625</ele>
      </trkpt>
      <trkpt lat="44.47931" lon="4.59857">
        <ele>173.484375</ele>
      </trkpt>
      <trkpt lat="44.47912" lon="4.59834">
        <ele>175.515625</ele>
      </trkpt>
      <trkpt lat="44.47898" lon="4.59823">
        <ele>174.65234375</ele>
      </trkpt>
      <trkpt lat="44.47885" lon="4.59816">
        <ele>173.71484375</ele>
      </trkpt>
      <trkpt lat="44.47868" lon="4.59806">
        <ele>173.22265625</ele>
      </trkpt>
      <trkpt lat="44.47855" lon="4.59801">
        <ele>172.046875</ele>
      </trkpt>
      <trkpt lat="44.47843" lon="4.59799">
        <ele>170.66796875</ele>
      </trkpt>
      <trkpt lat="44.47829" lon="4.59797">
        <ele>169.6796875</ele>
      </trkpt>
      <trkpt lat="44.47814" lon="4.59797">
        <ele>167.79296875</ele>
      </trkpt>
      <trkpt lat="44.47793" lon="4.59795">
        <ele>166.23828125</ele>
      </trkpt>
      <trkpt lat="44.47787" lon="4.59796">
        <ele>165.81640625</ele>
      </trkpt>
      <trkpt lat="44.47782" lon="4.59796">
        <ele>165.58984375</ele>
      </trkpt>
      <trkpt lat="44.4776" lon="4.59797">
        <ele>164.2421875</ele>
      </trkpt>
      <trkpt lat="44.47737" lon="4.59798">
        <ele>165.73046875</ele>
      </trkpt>
      <trkpt lat="44.4771" lon="4.59801">
        <ele>168.1171875</ele>
      </trkpt>
      <trkpt lat="44.47681" lon="4.59806">
        <ele>168.52734375</ele>
      </trkpt>
      <trkpt lat="44.4765" lon="4.59813">
        <ele>166.765625</ele>
      </trkpt>
      <trkpt lat="44.47619" lon="4.59823">
        <ele>163.74609375</ele>
      </trkpt>
      <trkpt lat="44.4759" lon="4.59833">
        <ele>162.04296875</ele>
      </trkpt>
      <trkpt lat="44.47562" lon="4.5984">
        <ele>161.08203125</ele>
      </trkpt>
      <trkpt lat="44.47548" lon="4.59842">
        <ele>160.5625</ele>
      </trkpt>
      <trkpt lat="44.47539" lon="4.59842">
        <ele>160.37109375</ele>
      </trkpt>
      <trkpt lat="44.47532" lon="4.59841">
        <ele>160.4453125</ele>
      </trkpt>
      <trkpt lat="44.47524" lon="4.59839">
        <ele>160.6484375</ele>
      </trkpt>
      <trkpt lat="44.47517" lon="4.59836">
        <ele>160.7421875</ele>
      </trkpt>
      <trkpt lat="44.47508" lon="4.5983">
        <ele>161.05078125</ele>
      </trkpt>
      <trkpt lat="44.47485" lon="4.59815">
        <ele>160.953125</ele>
      </trkpt>
      <trkpt lat="44.47469" lon="4.59801">
        <ele>162.15234375</ele>
      </trkpt>
      <trkpt lat="44.47468" lon="4.59799">
        <ele>162.3125</ele>
      </trkpt>
      <trkpt lat="44.47465" lon="4.598">
        <ele>113.2</ele>
        <time>2019-04-10T16:46:02Z</time>
      </trkpt>
      <trkpt lat="44.47454" lon="4.59787">
        <ele>114.2</ele>
        <time>2019-04-10T16:46:09Z</time>
      </trkpt>
      <trkpt lat="44.47435" lon="4.59757">
        <ele>115</ele>
        <time>2019-04-10T16:46:22Z</time>
      </trkpt>
      <trkpt lat="44.47441" lon="4.5972">
        <ele>116</ele>
        <time>2019-04-10T16:46:34Z</time>
      </trkpt>
      <trkpt lat="44.47446" lon="4.59656">
        <ele>116.8</ele>
        <time>2019-04-10T16:46:53Z</time>
      </trkpt>
      <trkpt lat="44.47448" lon="4.59643">
        <ele>117.8</ele>
        <time>2019-04-10T16:46:59Z</time>
      </trkpt>
      <trkpt lat="44.47448" lon="4.59637">
        <ele>119</ele>
        <time>2019-04-10T16:47:02Z</time>
      </trkpt>
      <trkpt lat="44.47449" lon="4.59629">
        <ele>120.2</ele>
        <time>2019-04-10T16:47:06Z</time>
      </trkpt>
      <trkpt lat="44.4745" lon="4.59619">
        <ele>121.4</ele>
        <time>2019-04-10T16:47:10Z</time>
      </trkpt>
      <trkpt lat="44.47452" lon="4.59608">
        <ele>122.2</ele>
        <time>2019-04-10T16:47:15Z</time>
      </trkpt>
      <trkpt lat="44.47455" lon="4.59599">
        <ele>123.6</ele>
        <time>2019-04-10T16:47:19Z</time>
      </trkpt>
      <trkpt lat="44.47457" lon="4.59587">
        <ele>124.6</ele>
        <time>2019-04-10T16:47:24Z</time>
      </trkpt>
      <trkpt lat="44.47459" lon="4.59575">
        <ele>125.8</ele>
        <time>2019-04-10T16:47:29Z</time>
      </trkpt>
      <trkpt lat="44.47456" lon="4.59556">
        <ele>127</ele>
        <time>2019-04-10T16:47:37Z</time>
      </trkpt>
      <trkpt lat="44.47454" lon="4.59548">
        <ele>128.2</ele>
        <time>2019-04-10T16:47:41Z</time>
      </trkpt>
      <trkpt lat="44.47455" lon="4.59541">
        <ele>129.4</ele>
        <time>2019-04-10T16:47:45Z</time>
      </trkpt>
      <trkpt lat="44.47454" lon="4.5953">
        <ele>130.4</ele>
        <time>2019-04-10T16:47:50Z</time>
      </trkpt>
      <trkpt lat="44.47454" lon="4.59523">
        <ele>131.4</ele>
        <time>2019-04-10T16:47:55Z</time>
      </trkpt>
      <trkpt lat="44.47455" lon="4.5952">
        <ele>132.4</ele>
        <time>2019-04-10T16:48:00Z</time>
      </trkpt>
      <trkpt lat="44.47455" lon="4.59518">
        <ele>133.2</ele>
        <time>2019-04-10T16:48:09Z</time>
      </trkpt>
      <trkpt lat="44.47455" lon="4.59517">
        <ele>133.4</ele>
        <time>2019-04-10T16:49:16Z</time>
      </trkpt>
      <trkpt lat="44.47458" lon="4.59509">
        <ele>133.6</ele>
        <time>2019-04-10T16:50:28Z</time>
      </trkpt>
      <trkpt lat="44.47462" lon="4.595">
        <ele>134.8</ele>
        <time>2019-04-10T16:50:34Z</time>
      </trkpt>
      <trkpt lat="44.47464" lon="4.59492">
        <ele>135.8</ele>
        <time>2019-04-10T16:50:38Z</time>
      </trkpt>
      <trkpt lat="44.47466" lon="4.59487">
        <ele>137</ele>
        <time>2019-04-10T16:50:42Z</time>
      </trkpt>
      <trkpt lat="44.47468" lon="4.5948">
        <ele>138</ele>
        <time>2019-04-10T16:50:45Z</time>
      </trkpt>
      <trkpt lat="44.47469" lon="4.59472">
        <ele>139.2</ele>
        <time>2019-04-10T16:50:49Z</time>
      </trkpt>
      <trkpt lat="44.47468" lon="4.59461">
        <ele>140.2</ele>
        <time>2019-04-10T16:50:53Z</time>
      </trkpt>
      <trkpt lat="44.47466" lon="4.59454">
        <ele>141.2</ele>
        <time>2019-04-10T16:50:57Z</time>
      </trkpt>
      <trkpt lat="44.47465" lon="4.59448">
        <ele>142.4</ele>
        <time>2019-04-10T16:51:01Z</time>
      </trkpt>
      <trkpt lat="44.47464" lon="4.59446">
        <ele>143.6</ele>
        <time>2019-04-10T16:51:04Z</time>
      </trkpt>
      <trkpt lat="44.47463" lon="4.59443">
        <ele>144.8</ele>
        <time>2019-04-10T16:51:08Z</time>
      </trkpt>
      <trkpt lat="44.47463" lon="4.59442">
        <ele>145.6</ele>
        <time>2019-04-10T16:51:17Z</time>
      </trkpt>
      <trkpt lat="44.47463" lon="4.59422">
        <ele>146.8</ele>
        <time>2019-04-10T16:51:29Z</time>
      </trkpt>
      <trkpt lat="44.47464" lon="4.59412">
        <ele>148</ele>
        <time>2019-04-10T16:51:34Z</time>
      </trkpt>
      <trkpt lat="44.47463" lon="4.59401">
        <ele>148.8</ele>
        <time>2019-04-10T16:51:39Z</time>
      </trkpt>
      <trkpt lat="44.47464" lon="4.59394">
        <ele>150</ele>
        <time>2019-04-10T16:51:42Z</time>
      </trkpt>
      <trkpt lat="44.47464" lon="4.59387">
        <ele>151.2</ele>
        <time>2019-04-10T16:51:46Z</time>
      </trkpt>
      <trkpt lat="44.47465" lon="4.59379">
        <ele>152.2</ele>
        <time>2019-04-10T16:51:50Z</time>
      </trkpt>
      <trkpt lat="44.47465" lon="4.5937">
        <ele>153.2</ele>
        <time>2019-04-10T16:51:54Z</time>
      </trkpt>
      <trkpt lat="44.47463" lon="4.59361">
        <ele>154.2</ele>
        <time>2019-04-10T16:51:58Z</time>
      </trkpt>
      <trkpt lat="44.4746" lon="4.59349">
        <ele>155.2</ele>
        <time>2019-04-10T16:52:03Z</time>
      </trkpt>
      <trkpt lat="44.47456" lon="4.59326">
        <ele>156.2</ele>
        <time>2019-04-10T16:52:12Z</time>
      </trkpt>
      <trkpt lat="44.47449" lon="4.59306">
        <ele>157.2</ele>
        <time>2019-04-10T16:52:20Z</time>
      </trkpt>
      <trkpt lat="44.47446" lon="4.59284">
        <ele>158</ele>
        <time>2019-04-10T16:52:28Z</time>
      </trkpt>
      <trkpt lat="44.47448" lon="4.59265">
        <ele>159.2</ele>
        <time>2019-04-10T16:52:35Z</time>
      </trkpt>
      <trkpt lat="44.47451" lon="4.59254">
        <ele>160.4</ele>
        <time>2019-04-10T16:52:40Z</time>
      </trkpt>
      <trkpt lat="44.47452" lon="4.59242">
        <ele>161.4</ele>
        <time>2019-04-10T16:52:45Z</time>
      </trkpt>
      <trkpt lat="44.47446" lon="4.59232">
        <ele>162.6</ele>
        <time>2019-04-10T16:52:50Z</time>
      </trkpt>
      <trkpt lat="44.47438" lon="4.59221">
        <ele>163.6</ele>
        <time>2019-04-10T16:52:56Z</time>
      </trkpt>
      <trkpt lat="44.47434" lon="4.59212">
        <ele>164.6</ele>
        <time>2019-04-10T16:53:01Z</time>
      </trkpt>
      <trkpt lat="44.4743" lon="4.592">
        <ele>165.4</ele>
        <time>2019-04-10T16:53:06Z</time>
      </trkpt>
      <trkpt lat="44.47425" lon="4.5919">
        <ele>166.6</ele>
        <time>2019-04-10T16:53:11Z</time>
      </trkpt>
      <trkpt lat="44.47419" lon="4.59178">
        <ele>167.8</ele>
        <time>2019-04-10T16:53:17Z</time>
      </trkpt>
      <trkpt lat="44.47415" lon="4.59167">
        <ele>168.8</ele>
        <time>2019-04-10T16:53:22Z</time>
      </trkpt>
      <trkpt lat="44.47414" lon="4.59156">
        <ele>169.8</ele>
        <time>2019-04-10T16:53:27Z</time>
      </trkpt>
      <trkpt lat="44.47414" lon="4.59143">
        <ele>171</ele>
        <time>2019-04-10T16:53:32Z</time>
      </trkpt>
      <trkpt lat="44.47416" lon="4.59134">
        <ele>172.2</ele>
        <time>2019-04-10T16:53:36Z</time>
      </trkpt>
      <trkpt lat="44.47417" lon="4.59127">
        <ele>173.2</ele>
        <time>2019-04-10T16:53:40Z</time>
      </trkpt>
      <trkpt lat="44.47419" lon="4.59119">
        <ele>174</ele>
        <time>2019-04-10T16:53:44Z</time>
      </trkpt>
      <trkpt lat="44.47419" lon="4.5911">
        <ele>175.2</ele>
        <time>2019-04-10T16:53:48Z</time>
      </trkpt>
      <trkpt lat="44.47412" lon="4.59102">
        <ele>176.4</ele>
        <time>2019-04-10T16:53:53Z</time>
      </trkpt>
      <trkpt lat="44.47393" lon="4.59102">
        <ele>177.4</ele>
        <time>2019-04-10T16:54:04Z</time>
      </trkpt>
      <trkpt lat="44.47369" lon="4.59082">
        <ele>178.4</ele>
        <time>2019-04-10T16:54:15Z</time>
      </trkpt>
      <trkpt lat="44.47358" lon="4.59056">
        <ele>178.2</ele>
        <time>2019-04-10T16:54:26Z</time>
      </trkpt>
      <trkpt lat="44.47349" lon="4.59065">
        <ele>177.4</ele>
        <time>2019-04-10T16:54:32Z</time>
      </trkpt>
      <trkpt lat="44.47348" lon="4.59066">
        <ele>177.2</ele>
        <time>2019-04-10T16:54:33Z</time>
      </trkpt>
      <trkpt lat="44.47326" lon="4.59061">
        <ele>178.4</ele>
        <time>2019-04-10T16:54:47Z</time>
      </trkpt>
      <trkpt lat="44.47318" lon="4.59051">
        <ele>179.2</ele>
        <time>2019-04-10T16:54:53Z</time>
      </trkpt>
      <trkpt lat="44.47313" lon="4.59045">
        <ele>180.4</ele>
        <time>2019-04-10T16:54:57Z</time>
      </trkpt>
      <trkpt lat="44.47308" lon="4.59039">
        <ele>181.4</ele>
        <time>2019-04-10T16:55:01Z</time>
      </trkpt>
      <trkpt lat="44.47302" lon="4.59031">
        <ele>182.8</ele>
        <time>2019-04-10T16:55:06Z</time>
      </trkpt>
      <trkpt lat="44.47299" lon="4.59027">
        <ele>183.8</ele>
        <time>2019-04-10T16:55:09Z</time>
      </trkpt>
      <trkpt lat="44.47295" lon="4.59022">
        <ele>185</ele>
        <time>2019-04-10T16:55:13Z</time>
      </trkpt>
      <trkpt lat="44.47291" lon="4.59018">
        <ele>186</ele>
        <time>2019-04-10T16:55:17Z</time>
      </trkpt>
      <trkpt lat="44.47285" lon="4.59009">
        <ele>187</ele>
        <time>2019-04-10T16:55:22Z</time>
      </trkpt>
      <trkpt lat="44.47281" lon="4.59001">
        <ele>188.2</ele>
        <time>2019-04-10T16:55:27Z</time>
      </trkpt>
      <trkpt lat="44.47276" lon="4.58994">
        <ele>189.4</ele>
        <time>2019-04-10T16:55:32Z</time>
      </trkpt>
      <trkpt lat="44.47273" lon="4.58989">
        <ele>190.4</ele>
        <time>2019-04-10T16:55:36Z</time>
      </trkpt>
      <trkpt lat="44.47269" lon="4.58983">
        <ele>191.6</ele>
        <time>2019-04-10T16:55:40Z</time>
      </trkpt>
      <trkpt lat="44.47266" lon="4.58978">
        <ele>192.4</ele>
        <time>2019-04-10T16:55:44Z</time>
      </trkpt>
      <trkpt lat="44.47262" lon="4.58969">
        <ele>193.8</ele>
        <time>2019-04-10T16:55:49Z</time>
      </trkpt>
      <trkpt lat="44.47258" lon="4.58961">
        <ele>194.8</ele>
        <time>2019-04-10T16:55:53Z</time>
      </trkpt>
      <trkpt lat="44.47255" lon="4.58955">
        <ele>196</ele>
        <time>2019-04-10T16:55:57Z</time>
      </trkpt>
      <trkpt lat="44.47253" lon="4.58949">
        <ele>197</ele>
        <time>2019-04-10T16:56:01Z</time>
      </trkpt>
      <trkpt lat="44.47252" lon="4.58942">
        <ele>198</ele>
        <time>2019-04-10T16:56:05Z</time>
      </trkpt>
      <trkpt lat="44.4725" lon="4.58935">
        <ele>199.2</ele>
        <time>2019-04-10T16:56:09Z</time>
      </trkpt>
      <trkpt lat="44.47248" lon="4.58929">
        <ele>200.4</ele>
        <time>2019-04-10T16:56:13Z</time>
      </trkpt>
      <trkpt lat="44.47244" lon="4.58915">
        <ele>201.4</ele>
        <time>2019-04-10T16:56:20Z</time>
      </trkpt>
      <trkpt lat="44.47245" lon="4.5891">
        <ele>201.8</ele>
        <time>2019-04-10T16:56:23Z</time>
      </trkpt>
      <trkpt lat="44.47245" lon="4.58904">
        <ele>202.4</ele>
        <time>2019-04-10T16:56:26Z</time>
      </trkpt>
      <trkpt lat="44.47244" lon="4.58898">
        <ele>203.6</ele>
        <time>2019-04-10T16:56:30Z</time>
      </trkpt>
      <trkpt lat="44.47243" lon="4.58894">
        <ele>204.4</ele>
        <time>2019-04-10T16:56:33Z</time>
      </trkpt>
      <trkpt lat="44.47243" lon="4.58892">
        <ele>204.6</ele>
        <time>2019-04-10T16:56:34Z</time>
      </trkpt>
      <trkpt lat="44.4724" lon="4.58885">
        <ele>205.8</ele>
        <time>2019-04-10T16:56:39Z</time>
      </trkpt>
      <trkpt lat="44.47239" lon="4.58877">
        <ele>207</ele>
        <time>2019-04-10T16:56:44Z</time>
      </trkpt>
      <trkpt lat="44.47238" lon="4.58869">
        <ele>208.2</ele>
        <time>2019-04-10T16:56:49Z</time>
      </trkpt>
      <trkpt lat="44.47237" lon="4.58861">
        <ele>209.2</ele>
        <time>2019-04-10T16:56:54Z</time>
      </trkpt>
      <trkpt lat="44.47235" lon="4.58845">
        <ele>210.2</ele>
        <time>2019-04-10T16:57:01Z</time>
      </trkpt>
      <trkpt lat="44.47233" lon="4.58836">
        <ele>211.4</ele>
        <time>2019-04-10T16:57:06Z</time>
      </trkpt>
      <trkpt lat="44.47232" lon="4.58826">
        <ele>212.6</ele>
        <time>2019-04-10T16:57:12Z</time>
      </trkpt>
      <trkpt lat="44.47231" lon="4.58817">
        <ele>213.6</ele>
        <time>2019-04-10T16:57:17Z</time>
      </trkpt>
      <trkpt lat="44.47232" lon="4.58807">
        <ele>214.6</ele>
        <time>2019-04-10T16:57:22Z</time>
      </trkpt>
      <trkpt lat="44.47232" lon="4.58799">
        <ele>215.6</ele>
        <time>2019-04-10T16:57:26Z</time>
      </trkpt>
      <trkpt lat="44.47231" lon="4.58786">
        <ele>217</ele>
        <time>2019-04-10T16:57:32Z</time>
      </trkpt>
      <trkpt lat="44.47231" lon="4.58775">
        <ele>218</ele>
        <time>2019-04-10T16:57:37Z</time>
      </trkpt>
      <trkpt lat="44.4723" lon="4.58766">
        <ele>219</ele>
        <time>2019-04-10T16:57:41Z</time>
      </trkpt>
      <trkpt lat="44.4723" lon="4.58752">
        <ele>220</ele>
        <time>2019-04-10T16:57:47Z</time>
      </trkpt>
      <trkpt lat="44.47232" lon="4.58743">
        <ele>221.2</ele>
        <time>2019-04-10T16:57:52Z</time>
      </trkpt>
      <trkpt lat="44.47236" lon="4.5873">
        <ele>222.2</ele>
        <time>2019-04-10T16:57:59Z</time>
      </trkpt>
      <trkpt lat="44.4724" lon="4.5872">
        <ele>223.2</ele>
        <time>2019-04-10T16:58:05Z</time>
      </trkpt>
      <trkpt lat="44.47245" lon="4.5871">
        <ele>224</ele>
        <time>2019-04-10T16:58:11Z</time>
      </trkpt>
      <trkpt lat="44.47248" lon="4.58703">
        <ele>225.2</ele>
        <time>2019-04-10T16:58:17Z</time>
      </trkpt>
      <trkpt lat="44.47251" lon="4.58697">
        <ele>226.2</ele>
        <time>2019-04-10T16:58:22Z</time>
      </trkpt>
      <trkpt lat="44.47254" lon="4.58692">
        <ele>227</ele>
        <time>2019-04-10T16:58:27Z</time>
      </trkpt>
      <trkpt lat="44.47256" lon="4.58688">
        <ele>228.2</ele>
        <time>2019-04-10T16:58:30Z</time>
      </trkpt>
      <trkpt lat="44.4726" lon="4.58679">
        <ele>229.2</ele>
        <time>2019-04-10T16:58:35Z</time>
      </trkpt>
      <trkpt lat="44.47265" lon="4.58672">
        <ele>230.2</ele>
        <time>2019-04-10T16:58:40Z</time>
      </trkpt>
      <trkpt lat="44.4727" lon="4.58665">
        <ele>231.2</ele>
        <time>2019-04-10T16:58:44Z</time>
      </trkpt>
      <trkpt lat="44.47273" lon="4.58659">
        <ele>232.6</ele>
        <time>2019-04-10T16:58:48Z</time>
      </trkpt>
      <trkpt lat="44.47277" lon="4.58655">
        <ele>234</ele>
        <time>2019-04-10T16:58:52Z</time>
      </trkpt>
      <trkpt lat="44.4728" lon="4.58652">
        <ele>235.2</ele>
        <time>2019-04-10T16:58:55Z</time>
      </trkpt>
      <trkpt lat="44.47282" lon="4.58644">
        <ele>236</ele>
        <time>2019-04-10T16:59:00Z</time>
      </trkpt>
      <trkpt lat="44.47282" lon="4.58643">
        <ele>236.2</ele>
        <time>2019-04-10T16:59:01Z</time>
      </trkpt>
      <trkpt lat="44.47273" lon="4.58639">
        <ele>237.2</ele>
        <time>2019-04-10T16:59:10Z</time>
      </trkpt>
      <trkpt lat="44.4727" lon="4.58639">
        <ele>237.4</ele>
        <time>2019-04-10T16:59:12Z</time>
      </trkpt>
      <trkpt lat="44.47264" lon="4.5864">
        <ele>238.4</ele>
        <time>2019-04-10T16:59:16Z</time>
      </trkpt>
      <trkpt lat="44.47259" lon="4.58636">
        <ele>239.6</ele>
        <time>2019-04-10T16:59:21Z</time>
      </trkpt>
      <trkpt lat="44.4725" lon="4.58636">
        <ele>240.4</ele>
        <time>2019-04-10T16:59:28Z</time>
      </trkpt>
      <trkpt lat="44.47234" lon="4.58649">
        <ele>241.4</ele>
        <time>2019-04-10T16:59:43Z</time>
      </trkpt>
      <trkpt lat="44.47229" lon="4.58651">
        <ele>242.4</ele>
        <time>2019-04-10T16:59:47Z</time>
      </trkpt>
      <trkpt lat="44.47221" lon="4.58654">
        <ele>243.6</ele>
        <time>2019-04-10T16:59:52Z</time>
      </trkpt>
      <trkpt lat="44.47214" lon="4.58655">
        <ele>245</ele>
        <time>2019-04-10T16:59:57Z</time>
      </trkpt>
      <trkpt lat="44.47206" lon="4.58656">
        <ele>246.2</ele>
        <time>2019-04-10T17:00:02Z</time>
      </trkpt>
      <trkpt lat="44.47197" lon="4.58657">
        <ele>247.2</ele>
        <time>2019-04-10T17:00:08Z</time>
      </trkpt>
      <trkpt lat="44.47182" lon="4.58656">
        <ele>248.4</ele>
        <time>2019-04-10T17:00:17Z</time>
      </trkpt>
      <trkpt lat="44.47169" lon="4.58653">
        <ele>249.4</ele>
        <time>2019-04-10T17:00:24Z</time>
      </trkpt>
      <trkpt lat="44.47162" lon="4.58651">
        <ele>250.4</ele>
        <time>2019-04-10T17:00:30Z</time>
      </trkpt>
      <trkpt lat="44.47156" lon="4.58645">
        <ele>251.4</ele>
        <time>2019-04-10T17:00:35Z</time>
      </trkpt>
      <trkpt lat="44.47153" lon="4.58646">
        <ele>252</ele>
        <time>2019-04-10T17:00:39Z</time>
      </trkpt>
      <trkpt lat="44.47151" lon="4.58653">
        <ele>252.6</ele>
        <time>2019-04-10T17:00:44Z</time>
      </trkpt>
      <trkpt lat="44.47151" lon="4.58655">
        <ele>252.8</ele>
        <time>2019-04-10T17:00:45Z</time>
      </trkpt>
      <trkpt lat="44.47148" lon="4.58663">
        <ele>253.6</ele>
        <time>2019-04-10T17:00:49Z</time>
      </trkpt>
      <trkpt lat="44.47128" lon="4.58678">
        <ele>254.6</ele>
        <time>2019-04-10T17:01:02Z</time>
      </trkpt>
      <trkpt lat="44.47114" lon="4.5868">
        <ele>255.6</ele>
        <time>2019-04-10T17:01:09Z</time>
      </trkpt>
      <trkpt lat="44.47105" lon="4.58681">
        <ele>256.6</ele>
        <time>2019-04-10T17:01:14Z</time>
      </trkpt>
      <trkpt lat="44.47087" lon="4.58679">
        <ele>258</ele>
        <time>2019-04-10T17:01:25Z</time>
      </trkpt>
      <trkpt lat="44.47071" lon="4.58679">
        <ele>259</ele>
        <time>2019-04-10T17:01:32Z</time>
      </trkpt>
      <trkpt lat="44.47067" lon="4.58676">
        <ele>259.8</ele>
        <time>2019-04-10T17:01:36Z</time>
      </trkpt>
      <trkpt lat="44.47067" lon="4.58675">
        <ele>260.2</ele>
        <time>2019-04-10T17:01:37Z</time>
      </trkpt>
      <trkpt lat="44.47071" lon="4.58667">
        <ele>260.6</ele>
        <time>2019-04-10T17:01:41Z</time>
      </trkpt>
      <trkpt lat="44.47085" lon="4.58656">
        <ele>261.2</ele>
        <time>2019-04-10T17:01:50Z</time>
      </trkpt>
      <trkpt lat="44.4709" lon="4.5865">
        <ele>262.6</ele>
        <time>2019-04-10T17:01:54Z</time>
      </trkpt>
      <trkpt lat="44.47095" lon="4.58641">
        <ele>263.6</ele>
        <time>2019-04-10T17:01:59Z</time>
      </trkpt>
      <trkpt lat="44.47097" lon="4.58632">
        <ele>264.8</ele>
        <time>2019-04-10T17:02:04Z</time>
      </trkpt>
      <trkpt lat="44.47097" lon="4.58626">
        <ele>266.4</ele>
        <time>2019-04-10T17:02:07Z</time>
      </trkpt>
      <trkpt lat="44.47097" lon="4.58621">
        <ele>267.4</ele>
        <time>2019-04-10T17:02:10Z</time>
      </trkpt>
      <trkpt lat="44.47098" lon="4.58616">
        <ele>268.4</ele>
        <time>2019-04-10T17:02:13Z</time>
      </trkpt>
      <trkpt lat="44.471" lon="4.5861">
        <ele>269.6</ele>
        <time>2019-04-10T17:02:16Z</time>
      </trkpt>
      <trkpt lat="44.47101" lon="4.58605">
        <ele>270.8</ele>
        <time>2019-04-10T17:02:19Z</time>
      </trkpt>
      <trkpt lat="44.47104" lon="4.58596">
        <ele>272.2</ele>
        <time>2019-04-10T17:02:24Z</time>
      </trkpt>
      <trkpt lat="44.47107" lon="4.58587">
        <ele>273.4</ele>
        <time>2019-04-10T17:02:29Z</time>
      </trkpt>
      <trkpt lat="44.4711" lon="4.5858">
        <ele>274.6</ele>
        <time>2019-04-10T17:02:34Z</time>
      </trkpt>
      <trkpt lat="44.47114" lon="4.58575">
        <ele>275.6</ele>
        <time>2019-04-10T17:02:38Z</time>
      </trkpt>
      <trkpt lat="44.47119" lon="4.58569">
        <ele>276.6</ele>
        <time>2019-04-10T17:02:42Z</time>
      </trkpt>
      <trkpt lat="44.47125" lon="4.58562">
        <ele>277.8</ele>
        <time>2019-04-10T17:02:47Z</time>
      </trkpt>
      <trkpt lat="44.47129" lon="4.58556">
        <ele>279.2</ele>
        <time>2019-04-10T17:02:51Z</time>
      </trkpt>
      <trkpt lat="44.47132" lon="4.58552">
        <ele>280.4</ele>
        <time>2019-04-10T17:02:54Z</time>
      </trkpt>
      <trkpt lat="44.47135" lon="4.58545">
        <ele>281.6</ele>
        <time>2019-04-10T17:02:58Z</time>
      </trkpt>
      <trkpt lat="44.47139" lon="4.58538">
        <ele>283</ele>
        <time>2019-04-10T17:03:02Z</time>
      </trkpt>
      <trkpt lat="44.4714" lon="4.58535">
        <ele>284.2</ele>
        <time>2019-04-10T17:03:04Z</time>
      </trkpt>
      <trkpt lat="44.47141" lon="4.5853">
        <ele>285.2</ele>
        <time>2019-04-10T17:03:07Z</time>
      </trkpt>
      <trkpt lat="44.47143" lon="4.58524">
        <ele>286.2</ele>
        <time>2019-04-10T17:03:10Z</time>
      </trkpt>
      <trkpt lat="44.47146" lon="4.58518">
        <ele>287.4</ele>
        <time>2019-04-10T17:03:14Z</time>
      </trkpt>
      <trkpt lat="44.47149" lon="4.5851">
        <ele>288.4</ele>
        <time>2019-04-10T17:03:18Z</time>
      </trkpt>
      <trkpt lat="44.47151" lon="4.58503">
        <ele>289.6</ele>
        <time>2019-04-10T17:03:22Z</time>
      </trkpt>
      <trkpt lat="44.47154" lon="4.58496">
        <ele>290.8</ele>
        <time>2019-04-10T17:03:26Z</time>
      </trkpt>
      <trkpt lat="44.47157" lon="4.58489">
        <ele>291.6</ele>
        <time>2019-04-10T17:03:30Z</time>
      </trkpt>
      <trkpt lat="44.47167" lon="4.58473">
        <ele>293.6</ele>
        <time>2019-04-10T17:03:39Z</time>
      </trkpt>
      <trkpt lat="44.47208" lon="4.58426">
        <ele>293.8</ele>
        <time>2019-04-10T17:04:04Z</time>
      </trkpt>
      <trkpt lat="44.47244" lon="4.58406">
        <ele>294.6</ele>
        <time>2019-04-10T17:04:21Z</time>
      </trkpt>
      <trkpt lat="44.47274" lon="4.58397">
        <ele>295.8</ele>
        <time>2019-04-10T17:04:34Z</time>
      </trkpt>
      <trkpt lat="44.47289" lon="4.58388">
        <ele>296.8</ele>
        <time>2019-04-10T17:04:42Z</time>
      </trkpt>
      <trkpt lat="44.47298" lon="4.58382">
        <ele>298</ele>
        <time>2019-04-10T17:04:46Z</time>
      </trkpt>
      <trkpt lat="44.47319" lon="4.58377">
        <ele>299.2</ele>
        <time>2019-04-10T17:04:56Z</time>
      </trkpt>
      <trkpt lat="44.47326" lon="4.58381">
        <ele>300.4</ele>
        <time>2019-04-10T17:04:59Z</time>
      </trkpt>
      <trkpt lat="44.47369" lon="4.58428">
        <ele>299.6</ele>
        <time>2019-04-10T17:05:20Z</time>
      </trkpt>
      <trkpt lat="44.47378" lon="4.58446">
        <ele>299.4</ele>
        <time>2019-04-10T17:05:25Z</time>
      </trkpt>
      <trkpt lat="44.47408" lon="4.58513">
        <ele>299</ele>
        <time>2019-04-10T17:05:43Z</time>
      </trkpt>
      <trkpt lat="44.47434" lon="4.58583">
        <ele>300.2</ele>
        <time>2019-04-10T17:06:00Z</time>
      </trkpt>
      <trkpt lat="44.47439" lon="4.58595">
        <ele>300.4</ele>
        <time>2019-04-10T17:06:03Z</time>
      </trkpt>
      <trkpt lat="44.4745" lon="4.58612">
        <ele>301.6</ele>
        <time>2019-04-10T17:06:08Z</time>
      </trkpt>
      <trkpt lat="44.47469" lon="4.58637">
        <ele>302.6</ele>
        <time>2019-04-10T17:06:16Z</time>
      </trkpt>
      <trkpt lat="44.47471" lon="4.5864">
        <ele>302.6</ele>
        <time>2019-04-10T17:06:17Z</time>
      </trkpt>
      <trkpt lat="44.47508" lon="4.58702">
        <ele>302.8</ele>
        <time>2019-04-10T17:06:31Z</time>
      </trkpt>
      <trkpt lat="44.4754" lon="4.58763">
        <ele>302.4</ele>
        <time>2019-04-10T17:06:45Z</time>
      </trkpt>
      <trkpt lat="44.47574" lon="4.58826">
        <ele>301.6</ele>
        <time>2019-04-10T17:06:58Z</time>
      </trkpt>
      <trkpt lat="44.47577" lon="4.5883">
        <ele>301.6</ele>
        <time>2019-04-10T17:06:59Z</time>
      </trkpt>
      <trkpt lat="44.4759" lon="4.58859">
        <ele>300.4</ele>
        <time>2019-04-10T17:07:05Z</time>
      </trkpt>
      <trkpt lat="44.476" lon="4.58885">
        <ele>299.4</ele>
        <time>2019-04-10T17:07:10Z</time>
      </trkpt>
      <trkpt lat="44.4761" lon="4.58905">
        <ele>297.8</ele>
        <time>2019-04-10T17:07:14Z</time>
      </trkpt>
      <trkpt lat="44.47619" lon="4.58921">
        <ele>296.6</ele>
        <time>2019-04-10T17:07:17Z</time>
      </trkpt>
      <trkpt lat="44.47627" lon="4.58941">
        <ele>295.2</ele>
        <time>2019-04-10T17:07:20Z</time>
      </trkpt>
      <trkpt lat="44.47636" lon="4.58963">
        <ele>293.8</ele>
        <time>2019-04-10T17:07:23Z</time>
      </trkpt>
      <trkpt lat="44.47646" lon="4.58983">
        <ele>292.8</ele>
        <time>2019-04-10T17:07:26Z</time>
      </trkpt>
      <trkpt lat="44.47656" lon="4.59003">
        <ele>291.6</ele>
        <time>2019-04-10T17:07:29Z</time>
      </trkpt>
      <trkpt lat="44.47662" lon="4.59014">
        <ele>290.8</ele>
        <time>2019-04-10T17:07:31Z</time>
      </trkpt>
      <trkpt lat="44.47666" lon="4.59018">
        <ele>290.4</ele>
        <time>2019-04-10T17:07:32Z</time>
      </trkpt>
      <trkpt lat="44.477" lon="4.59049">
        <ele>290.2</ele>
        <time>2019-04-10T17:07:41Z</time>
      </trkpt>
      <trkpt lat="44.47746" lon="4.59071">
        <ele>290.2</ele>
        <time>2019-04-10T17:07:52Z</time>
      </trkpt>
      <trkpt lat="44.47743" lon="4.59071">
        <ele>289.6</ele>
        <time>2019-04-10T17:07:59Z</time>
      </trkpt>
      <trkpt lat="44.47748" lon="4.59077">
        <ele>289.2</ele>
        <time>2019-04-10T17:08:02Z</time>
      </trkpt>
      <trkpt lat="44.47777" lon="4.59122">
        <ele>288.4</ele>
        <time>2019-04-10T17:08:12Z</time>
      </trkpt>
      <trkpt lat="44.47797" lon="4.59154">
        <ele>287.4</ele>
        <time>2019-04-10T17:08:16Z</time>
      </trkpt>
      <trkpt lat="44.47822" lon="4.59191">
        <ele>286.2</ele>
        <time>2019-04-10T17:08:20Z</time>
      </trkpt>
      <trkpt lat="44.47841" lon="4.59221">
        <ele>284.4</ele>
        <time>2019-04-10T17:08:23Z</time>
      </trkpt>
      <trkpt lat="44.47853" lon="4.59237">
        <ele>282.4</ele>
        <time>2019-04-10T17:08:25Z</time>
      </trkpt>
      <trkpt lat="44.4786" lon="4.59243">
        <ele>281.2</ele>
        <time>2019-04-10T17:08:26Z</time>
      </trkpt>
      <trkpt lat="44.47875" lon="4.59252">
        <ele>280</ele>
        <time>2019-04-10T17:08:28Z</time>
      </trkpt>
      <trkpt lat="44.47891" lon="4.59259">
        <ele>279</ele>
        <time>2019-04-10T17:08:30Z</time>
      </trkpt>
      <trkpt lat="44.47916" lon="4.59271">
        <ele>277.8</ele>
        <time>2019-04-10T17:08:33Z</time>
      </trkpt>
      <trkpt lat="44.47949" lon="4.59291">
        <ele>276.4</ele>
        <time>2019-04-10T17:08:37Z</time>
      </trkpt>
      <trkpt lat="44.47965" lon="4.593">
        <ele>275.2</ele>
        <time>2019-04-10T17:08:39Z</time>
      </trkpt>
      <trkpt lat="44.47984" lon="4.59311">
        <ele>274</ele>
        <time>2019-04-10T17:08:42Z</time>
      </trkpt>
      <trkpt lat="44.47989" lon="4.59314">
        <ele>272.4</ele>
        <time>2019-04-10T17:08:43Z</time>
      </trkpt>
      <trkpt lat="44.47997" lon="4.59321">
        <ele>271.2</ele>
        <time>2019-04-10T17:08:45Z</time>
      </trkpt>
      <trkpt lat="44.48012" lon="4.59338">
        <ele>270.4</ele>
        <time>2019-04-10T17:08:49Z</time>
      </trkpt>
      <trkpt lat="44.48014" lon="4.59343">
        <ele>270.4</ele>
        <time>2019-04-10T17:08:50Z</time>
      </trkpt>
      <trkpt lat="44.48029" lon="4.59398">
        <ele>269.4</ele>
        <time>2019-04-10T17:09:07Z</time>
      </trkpt>
      <trkpt lat="44.48029" lon="4.5942">
        <ele>268.2</ele>
        <time>2019-04-10T17:09:11Z</time>
      </trkpt>
      <trkpt lat="44.48032" lon="4.5944">
        <ele>267.2</ele>
        <time>2019-04-10T17:09:14Z</time>
      </trkpt>
      <trkpt lat="44.48034" lon="4.59447">
        <ele>267</ele>
        <time>2019-04-10T17:09:15Z</time>
      </trkpt>
      <trkpt lat="44.48041" lon="4.59467">
        <ele>265.8</ele>
        <time>2019-04-10T17:09:18Z</time>
      </trkpt>
      <trkpt lat="44.48049" lon="4.59478">
        <ele>264.4</ele>
        <time>2019-04-10T17:09:20Z</time>
      </trkpt>
      <trkpt lat="44.48053" lon="4.59483">
        <ele>264.2</ele>
        <time>2019-04-10T17:09:21Z</time>
      </trkpt>
      <trkpt lat="44.48063" lon="4.59491">
        <ele>263</ele>
        <time>2019-04-10T17:09:23Z</time>
      </trkpt>
      <trkpt lat="44.48077" lon="4.59502">
        <ele>261.8</ele>
        <time>2019-04-10T17:09:26Z</time>
      </trkpt>
      <trkpt lat="44.48099" lon="4.59518">
        <ele>260.8</ele>
        <time>2019-04-10T17:09:31Z</time>
      </trkpt>
      <trkpt lat="44.48118" lon="4.59529">
        <ele>260.8</ele>
        <time>2019-04-10T17:09:36Z</time>
      </trkpt>
      <trkpt lat="44.48131" lon="4.59531">
        <ele>261.2</ele>
        <time>2019-04-10T17:09:39Z</time>
      </trkpt>
      <trkpt lat="44.4817" lon="4.59541">
        <ele>262.8</ele>
        <time>2019-04-10T17:09:50Z</time>
      </trkpt>
      <trkpt lat="44.48191" lon="4.59556">
        <ele>264.2</ele>
        <time>2019-04-10T17:09:57Z</time>
      </trkpt>
      <trkpt lat="44.48201" lon="4.59572">
        <ele>265.2</ele>
        <time>2019-04-10T17:10:02Z</time>
      </trkpt>
      <trkpt lat="44.4821" lon="4.59604">
        <ele>266.4</ele>
        <time>2019-04-10T17:10:10Z</time>
      </trkpt>
      <trkpt lat="44.48241" lon="4.59665">
        <ele>266.4</ele>
        <time>2019-04-10T17:10:27Z</time>
      </trkpt>
      <trkpt lat="44.48269" lon="4.59691">
        <ele>266.2</ele>
        <time>2019-04-10T17:10:37Z</time>
      </trkpt>
      <trkpt lat="44.48288" lon="4.59694">
        <ele>265.4</ele>
        <time>2019-04-10T17:10:42Z</time>
      </trkpt>
      <trkpt lat="44.48306" lon="4.59697">
        <ele>264.2</ele>
        <time>2019-04-10T17:10:46Z</time>
      </trkpt>
      <trkpt lat="44.48309" lon="4.59699">
        <ele>263.8</ele>
        <time>2019-04-10T17:10:47Z</time>
      </trkpt>
      <trkpt lat="44.48318" lon="4.59703">
        <ele>263</ele>
        <time>2019-04-10T17:10:49Z</time>
      </trkpt>
      <trkpt lat="44.48323" lon="4.59704">
        <ele>262.6</ele>
        <time>2019-04-10T17:10:50Z</time>
      </trkpt>
      <trkpt lat="44.48331" lon="4.59704">
        <ele>261.8</ele>
        <time>2019-04-10T17:10:52Z</time>
      </trkpt>
      <trkpt lat="44.48344" lon="4.59703">
        <ele>260.6</ele>
        <time>2019-04-10T17:10:55Z</time>
      </trkpt>
      <trkpt lat="44.48358" lon="4.59701">
        <ele>259.4</ele>
        <time>2019-04-10T17:10:58Z</time>
      </trkpt>
      <trkpt lat="44.48373" lon="4.597">
        <ele>258.2</ele>
        <time>2019-04-10T17:11:01Z</time>
      </trkpt>
      <trkpt lat="44.48388" lon="4.59705">
        <ele>257</ele>
        <time>2019-04-10T17:11:04Z</time>
      </trkpt>
      <trkpt lat="44.48392" lon="4.59708">
        <ele>256.6</ele>
        <time>2019-04-10T17:11:05Z</time>
      </trkpt>
      <trkpt lat="44.48404" lon="4.59712">
        <ele>255.6</ele>
        <time>2019-04-10T17:11:08Z</time>
      </trkpt>
      <trkpt lat="44.48412" lon="4.59712">
        <ele>254.6</ele>
        <time>2019-04-10T17:11:10Z</time>
      </trkpt>
      <trkpt lat="44.48431" lon="4.59715">
        <ele>253.4</ele>
        <time>2019-04-10T17:11:15Z</time>
      </trkpt>
      <trkpt lat="44.48483" lon="4.59743">
        <ele>252.4</ele>
        <time>2019-04-10T17:11:31Z</time>
      </trkpt>
      <trkpt lat="44.48486" lon="4.59747">
        <ele>251.2</ele>
        <time>2019-04-10T17:11:37Z</time>
      </trkpt>
      <trkpt lat="44.48486" lon="4.59747">
        <ele>249.8</ele>
        <time>2019-04-10T17:11:41Z</time>
      </trkpt>
      <trkpt lat="44.48517" lon="4.5977">
        <ele>248.6</ele>
        <time>2019-04-10T17:12:03Z</time>
      </trkpt>
      <trkpt lat="44.48536" lon="4.59789">
        <ele>247.4</ele>
        <time>2019-04-10T17:12:08Z</time>
      </trkpt>
      <trkpt lat="44.48545" lon="4.59798">
        <ele>246.2</ele>
        <time>2019-04-10T17:12:10Z</time>
      </trkpt>
      <trkpt lat="44.4855" lon="4.59802">
        <ele>244.8</ele>
        <time>2019-04-10T17:12:11Z</time>
      </trkpt>
      <trkpt lat="44.4856" lon="4.59811">
        <ele>243.6</ele>
        <time>2019-04-10T17:12:13Z</time>
      </trkpt>
      <trkpt lat="44.48564" lon="4.59816">
        <ele>243.2</ele>
        <time>2019-04-10T17:12:14Z</time>
      </trkpt>
      <trkpt lat="44.48568" lon="4.59821">
        <ele>242.4</ele>
        <time>2019-04-10T17:12:15Z</time>
      </trkpt>
      <trkpt lat="44.48575" lon="4.59832">
        <ele>241.4</ele>
        <time>2019-04-10T17:12:17Z</time>
      </trkpt>
      <trkpt lat="44.48579" lon="4.59837">
        <ele>240.6</ele>
        <time>2019-04-10T17:12:18Z</time>
      </trkpt>
      <trkpt lat="44.48584" lon="4.59841">
        <ele>239.8</ele>
        <time>2019-04-10T17:12:19Z</time>
      </trkpt>
      <trkpt lat="44.48593" lon="4.59848">
        <ele>238.8</ele>
        <time>2019-04-10T17:12:21Z</time>
      </trkpt>
      <trkpt lat="44.48597" lon="4.59852">
        <ele>238.4</ele>
        <time>2019-04-10T17:12:22Z</time>
      </trkpt>
      <trkpt lat="44.48607" lon="4.59863">
        <ele>237</ele>
        <time>2019-04-10T17:12:24Z</time>
      </trkpt>
      <trkpt lat="44.48616" lon="4.59877">
        <ele>235</ele>
        <time>2019-04-10T17:12:26Z</time>
      </trkpt>
      <trkpt lat="44.48627" lon="4.59889">
        <ele>233.8</ele>
        <time>2019-04-10T17:12:28Z</time>
      </trkpt>
      <trkpt lat="44.48638" lon="4.59902">
        <ele>232.4</ele>
        <time>2019-04-10T17:12:30Z</time>
      </trkpt>
      <trkpt lat="44.48651" lon="4.59914">
        <ele>231.4</ele>
        <time>2019-04-10T17:12:32Z</time>
      </trkpt>
      <trkpt lat="44.48668" lon="4.59935">
        <ele>230</ele>
        <time>2019-04-10T17:12:35Z</time>
      </trkpt>
      <trkpt lat="44.48677" lon="4.59944">
        <ele>229</ele>
        <time>2019-04-10T17:12:37Z</time>
      </trkpt>
      <trkpt lat="44.48681" lon="4.59949">
        <ele>227.6</ele>
        <time>2019-04-10T17:12:39Z</time>
      </trkpt>
      <trkpt lat="44.48683" lon="4.59949">
        <ele>225.8</ele>
        <time>2019-04-10T17:12:41Z</time>
      </trkpt>
      <trkpt lat="44.48723" lon="4.59992">
        <ele>225.6</ele>
        <time>2019-04-10T17:12:59Z</time>
      </trkpt>
      <trkpt lat="44.48746" lon="4.60031">
        <ele>227</ele>
        <time>2019-04-10T17:13:08Z</time>
      </trkpt>
      <trkpt lat="44.48757" lon="4.60047">
        <ele>228</ele>
        <time>2019-04-10T17:13:12Z</time>
      </trkpt>
      <trkpt lat="44.48769" lon="4.60064">
        <ele>229</ele>
        <time>2019-04-10T17:13:16Z</time>
      </trkpt>
      <trkpt lat="44.48781" lon="4.60088">
        <ele>230.2</ele>
        <time>2019-04-10T17:13:22Z</time>
      </trkpt>
      <trkpt lat="44.48792" lon="4.60108">
        <ele>231.4</ele>
        <time>2019-04-10T17:13:27Z</time>
      </trkpt>
      <trkpt lat="44.48801" lon="4.60122">
        <ele>232.6</ele>
        <time>2019-04-10T17:13:31Z</time>
      </trkpt>
      <trkpt lat="44.48812" lon="4.60137">
        <ele>233.6</ele>
        <time>2019-04-10T17:13:36Z</time>
      </trkpt>
      <trkpt lat="44.48821" lon="4.60152">
        <ele>234.8</ele>
        <time>2019-04-10T17:13:41Z</time>
      </trkpt>
      <trkpt lat="44.48825" lon="4.60161">
        <ele>235.8</ele>
        <time>2019-04-10T17:13:44Z</time>
      </trkpt>
      <trkpt lat="44.48835" lon="4.60179">
        <ele>237</ele>
        <time>2019-04-10T17:13:49Z</time>
      </trkpt>
      <trkpt lat="44.48842" lon="4.60198">
        <ele>238.2</ele>
        <time>2019-04-10T17:13:54Z</time>
      </trkpt>
      <trkpt lat="44.48853" lon="4.60224">
        <ele>239.2</ele>
        <time>2019-04-10T17:14:01Z</time>
      </trkpt>
      <trkpt lat="44.48861" lon="4.60242">
        <ele>240.2</ele>
        <time>2019-04-10T17:14:06Z</time>
      </trkpt>
      <trkpt lat="44.48874" lon="4.60276">
        <ele>241.6</ele>
        <time>2019-04-10T17:14:16Z</time>
      </trkpt>
      <trkpt lat="44.48912" lon="4.60311">
        <ele>240.4</ele>
        <time>2019-04-10T17:14:32Z</time>
      </trkpt>
      <trkpt lat="44.48921" lon="4.60321">
        <ele>295.39999389648</ele>
        <time>2021-05-05T15:40:33Z</time>
      </trkpt>
      <trkpt lat="44.48929" lon="4.60327">
        <ele>294.60000610352</ele>
        <time>2021-05-05T15:40:35Z</time>
      </trkpt>
      <trkpt lat="44.48932" lon="4.60329">
        <ele>294.39999389648</ele>
        <time>2021-05-05T15:40:36Z</time>
      </trkpt>
      <trkpt lat="44.48935" lon="4.60332">
        <ele>294.20001220703</ele>
        <time>2021-05-05T15:40:37Z</time>
      </trkpt>
      <trkpt lat="44.48937" lon="4.60335">
        <ele>294.20001220703</ele>
        <time>2021-05-05T15:40:38Z</time>
      </trkpt>
      <trkpt lat="44.4894" lon="4.60337">
        <ele>293.60000610352</ele>
        <time>2021-05-05T15:40:39Z</time>
      </trkpt>
      <trkpt lat="44.48947" lon="4.60337">
        <ele>292.79998779297</ele>
        <time>2021-05-05T15:40:41Z</time>
      </trkpt>
      <trkpt lat="44.48951" lon="4.60337">
        <ele>292.60000610352</ele>
        <time>2021-05-05T15:40:42Z</time>
      </trkpt>
      <trkpt lat="44.48954" lon="4.60339">
        <ele>292.60000610352</ele>
        <time>2021-05-05T15:40:43Z</time>
      </trkpt>
      <trkpt lat="44.48957" lon="4.60342">
        <ele>292</ele>
        <time>2021-05-05T15:40:44Z</time>
      </trkpt>
      <trkpt lat="44.48961" lon="4.60345">
        <ele>291.79998779297</ele>
        <time>2021-05-05T15:40:45Z</time>
      </trkpt>
      <trkpt lat="44.48965" lon="4.60348">
        <ele>291.39999389648</ele>
        <time>2021-05-05T15:40:46Z</time>
      </trkpt>
      <trkpt lat="44.4898" lon="4.60362">
        <ele>289.60000610352</ele>
        <time>2021-05-05T15:40:50Z</time>
      </trkpt>
      <trkpt lat="44.48983" lon="4.60367">
        <ele>289.20001220703</ele>
        <time>2021-05-05T15:40:51Z</time>
      </trkpt>
      <trkpt lat="44.48987" lon="4.60371">
        <ele>288.79998779297</ele>
        <time>2021-05-05T15:40:52Z</time>
      </trkpt>
      <trkpt lat="44.49006" lon="4.60391">
        <ele>287</ele>
        <time>2021-05-05T15:40:57Z</time>
      </trkpt>
      <trkpt lat="44.49022" lon="4.60406">
        <ele>286.60000610352</ele>
        <time>2021-05-05T15:41:01Z</time>
      </trkpt>
      <trkpt lat="44.49026" lon="4.6041">
        <ele>286.39999389648</ele>
        <time>2021-05-05T15:41:02Z</time>
      </trkpt>
      <trkpt lat="44.49029" lon="4.60414">
        <ele>286</ele>
        <time>2021-05-05T15:41:03Z</time>
      </trkpt>
      <trkpt lat="44.49033" lon="4.60418">
        <ele>286</ele>
        <time>2021-05-05T15:41:04Z</time>
      </trkpt>
      <trkpt lat="44.49036" lon="4.60422">
        <ele>285.79998779297</ele>
        <time>2021-05-05T15:41:05Z</time>
      </trkpt>
      <trkpt lat="44.49039" lon="4.60426">
        <ele>285.60000610352</ele>
        <time>2021-05-05T15:41:06Z</time>
      </trkpt>
      <trkpt lat="44.49042" lon="4.60429">
        <ele>285</ele>
        <time>2021-05-05T15:41:07Z</time>
      </trkpt>
      <trkpt lat="44.49045" lon="4.60433">
        <ele>284.60000610352</ele>
        <time>2021-05-05T15:41:08Z</time>
      </trkpt>
      <trkpt lat="44.49048" lon="4.60436">
        <ele>284.20001220703</ele>
        <time>2021-05-05T15:41:09Z</time>
      </trkpt>
      <trkpt lat="44.4905" lon="4.60439">
        <ele>284</ele>
        <time>2021-05-05T15:41:10Z</time>
      </trkpt>
      <trkpt lat="44.49053" lon="4.60443">
        <ele>284</ele>
        <time>2021-05-05T15:41:11Z</time>
      </trkpt>
      <trkpt lat="44.49055" lon="4.60446">
        <ele>284</ele>
        <time>2021-05-05T15:41:12Z</time>
      </trkpt>
      <trkpt lat="44.49059" lon="4.60452">
        <ele>283.79998779297</ele>
        <time>2021-05-05T15:41:14Z</time>
      </trkpt>
      <trkpt lat="44.49061" lon="4.60456">
        <ele>283.79998779297</ele>
        <time>2021-05-05T15:41:15Z</time>
      </trkpt>
      <trkpt lat="44.49068" lon="4.60466">
        <ele>284</ele>
        <time>2021-05-05T15:41:18Z</time>
      </trkpt>
      <trkpt lat="44.49078" lon="4.60488">
        <ele>283.79998779297</ele>
        <time>2021-05-05T15:41:23Z</time>
      </trkpt>
      <trkpt lat="44.4908" lon="4.60492">
        <ele>284</ele>
        <time>2021-05-05T15:41:24Z</time>
      </trkpt>
      <trkpt lat="44.49082" lon="4.60496">
        <ele>284</ele>
        <time>2021-05-05T15:41:25Z</time>
      </trkpt>
      <trkpt lat="44.49085" lon="4.60499">
        <ele>284</ele>
        <time>2021-05-05T15:41:26Z</time>
      </trkpt>
      <trkpt lat="44.49087" lon="4.60502">
        <ele>284.20001220703</ele>
        <time>2021-05-05T15:41:27Z</time>
      </trkpt>
      <trkpt lat="44.49091" lon="4.6051">
        <ele>284.20001220703</ele>
        <time>2021-05-05T15:41:29Z</time>
      </trkpt>
      <trkpt lat="44.49093" lon="4.60513">
        <ele>284.20001220703</ele>
        <time>2021-05-05T15:41:30Z</time>
      </trkpt>
      <trkpt lat="44.49097" lon="4.6052">
        <ele>284.39999389648</ele>
        <time>2021-05-05T15:41:32Z</time>
      </trkpt>
      <trkpt lat="44.491" lon="4.60523">
        <ele>284.20001220703</ele>
        <time>2021-05-05T15:41:33Z</time>
      </trkpt>
      <trkpt lat="44.49109" lon="4.60531">
        <ele>284.39999389648</ele>
        <time>2021-05-05T15:41:36Z</time>
      </trkpt>
      <trkpt lat="44.49113" lon="4.60532">
        <ele>284.20001220703</ele>
        <time>2021-05-05T15:41:37Z</time>
      </trkpt>
      <trkpt lat="44.49117" lon="4.60533">
        <ele>284.20001220703</ele>
        <time>2021-05-05T15:41:38Z</time>
      </trkpt>
      <trkpt lat="44.49122" lon="4.60533">
        <ele>284.20001220703</ele>
        <time>2021-05-05T15:41:39Z</time>
      </trkpt>
      <trkpt lat="44.49126" lon="4.60534">
        <ele>284</ele>
        <time>2021-05-05T15:41:40Z</time>
      </trkpt>
      <trkpt lat="44.4913" lon="4.60536">
        <ele>284</ele>
        <time>2021-05-05T15:41:41Z</time>
      </trkpt>
      <trkpt lat="44.49134" lon="4.6054">
        <ele>283.79998779297</ele>
        <time>2021-05-05T15:41:42Z</time>
      </trkpt>
      <trkpt lat="44.49137" lon="4.60543">
        <ele>283.79998779297</ele>
        <time>2021-05-05T15:41:43Z</time>
      </trkpt>
      <trkpt lat="44.49142" lon="4.60546">
        <ele>283.39999389648</ele>
        <time>2021-05-05T15:41:44Z</time>
      </trkpt>
      <trkpt lat="44.49147" lon="4.60549">
        <ele>283</ele>
        <time>2021-05-05T15:41:45Z</time>
      </trkpt>
      <trkpt lat="44.49152" lon="4.60551">
        <ele>282.60000610352</ele>
        <time>2021-05-05T15:41:46Z</time>
      </trkpt>
      <trkpt lat="44.49156" lon="4.60554">
        <ele>282.20001220703</ele>
        <time>2021-05-05T15:41:47Z</time>
      </trkpt>
      <trkpt lat="44.49161" lon="4.60556">
        <ele>282.20001220703</ele>
        <time>2021-05-05T15:41:48Z</time>
      </trkpt>
      <trkpt lat="44.49165" lon="4.60558">
        <ele>282</ele>
        <time>2021-05-05T15:41:49Z</time>
      </trkpt>
      <trkpt lat="44.49169" lon="4.60559">
        <ele>281.60000610352</ele>
        <time>2021-05-05T15:41:50Z</time>
      </trkpt>
      <trkpt lat="44.49178" lon="4.60562">
        <ele>280.60000610352</ele>
        <time>2021-05-05T15:41:52Z</time>
      </trkpt>
      <trkpt lat="44.49183" lon="4.60563">
        <ele>279.79998779297</ele>
        <time>2021-05-05T15:41:53Z</time>
      </trkpt>
      <trkpt lat="44.49187" lon="4.60564">
        <ele>279</ele>
        <time>2021-05-05T15:41:54Z</time>
      </trkpt>
      <trkpt lat="44.49191" lon="4.60565">
        <ele>278.39999389648</ele>
        <time>2021-05-05T15:41:55Z</time>
      </trkpt>
      <trkpt lat="44.49195" lon="4.60566">
        <ele>277.20001220703</ele>
        <time>2021-05-05T15:41:56Z</time>
      </trkpt>
      <trkpt lat="44.49199" lon="4.60568">
        <ele>276.39999389648</ele>
        <time>2021-05-05T15:41:57Z</time>
      </trkpt>
      <trkpt lat="44.49203" lon="4.60571">
        <ele>276</ele>
        <time>2021-05-05T15:41:58Z</time>
      </trkpt>
      <trkpt lat="44.49207" lon="4.60574">
        <ele>275.60000610352</ele>
        <time>2021-05-05T15:41:59Z</time>
      </trkpt>
      <trkpt lat="44.49212" lon="4.60577">
        <ele>275</ele>
        <time>2021-05-05T15:42:00Z</time>
      </trkpt>
      <trkpt lat="44.49216" lon="4.60578">
        <ele>273.79998779297</ele>
        <time>2021-05-05T15:42:01Z</time>
      </trkpt>
      <trkpt lat="44.49221" lon="4.60579">
        <ele>273.60000610352</ele>
        <time>2021-05-05T15:42:02Z</time>
      </trkpt>
      <trkpt lat="44.49226" lon="4.60578">
        <ele>273</ele>
        <time>2021-05-05T15:42:03Z</time>
      </trkpt>
      <trkpt lat="44.4923" lon="4.60577">
        <ele>271.79998779297</ele>
        <time>2021-05-05T15:42:04Z</time>
      </trkpt>
      <trkpt lat="44.49234" lon="4.60576">
        <ele>271.20001220703</ele>
        <time>2021-05-05T15:42:05Z</time>
      </trkpt>
      <trkpt lat="44.49239" lon="4.60575">
        <ele>270.39999389648</ele>
        <time>2021-05-05T15:42:06Z</time>
      </trkpt>
      <trkpt lat="44.49243" lon="4.60574">
        <ele>269.60000610352</ele>
        <time>2021-05-05T15:42:07Z</time>
      </trkpt>
      <trkpt lat="44.49247" lon="4.60575">
        <ele>268.79998779297</ele>
        <time>2021-05-05T15:42:08Z</time>
      </trkpt>
      <trkpt lat="44.49251" lon="4.60575">
        <ele>267.79998779297</ele>
        <time>2021-05-05T15:42:09Z</time>
      </trkpt>
      <trkpt lat="44.49255" lon="4.60576">
        <ele>266.79998779297</ele>
        <time>2021-05-05T15:42:10Z</time>
      </trkpt>
      <trkpt lat="44.49259" lon="4.60577">
        <ele>266.79998779297</ele>
        <time>2021-05-05T15:42:11Z</time>
      </trkpt>
      <trkpt lat="44.49263" lon="4.60577">
        <ele>265.60000610352</ele>
        <time>2021-05-05T15:42:12Z</time>
      </trkpt>
      <trkpt lat="44.49268" lon="4.60577">
        <ele>263.79998779297</ele>
        <time>2021-05-05T15:42:13Z</time>
      </trkpt>
      <trkpt lat="44.49273" lon="4.60576">
        <ele>262.79998779297</ele>
        <time>2021-05-05T15:42:14Z</time>
      </trkpt>
      <trkpt lat="44.49277" lon="4.60576">
        <ele>261.79998779297</ele>
        <time>2021-05-05T15:42:15Z</time>
      </trkpt>
      <trkpt lat="44.49283" lon="4.60575">
        <ele>261</ele>
        <time>2021-05-05T15:42:16Z</time>
      </trkpt>
      <trkpt lat="44.49288" lon="4.60576">
        <ele>260.20001220703</ele>
        <time>2021-05-05T15:42:17Z</time>
      </trkpt>
      <trkpt lat="44.49305" lon="4.60579">
        <ele>258.39999389648</ele>
        <time>2021-05-05T15:42:20Z</time>
      </trkpt>
      <trkpt lat="44.49311" lon="4.6058">
        <ele>257.60000610352</ele>
        <time>2021-05-05T15:42:21Z</time>
      </trkpt>
      <trkpt lat="44.49323" lon="4.60582">
        <ele>255.19999694824</ele>
        <time>2021-05-05T15:42:23Z</time>
      </trkpt>
      <trkpt lat="44.4933" lon="4.60583">
        <ele>254.39999389648</ele>
        <time>2021-05-05T15:42:24Z</time>
      </trkpt>
      <trkpt lat="44.49335" lon="4.60584">
        <ele>253</ele>
        <time>2021-05-05T15:42:25Z</time>
      </trkpt>
      <trkpt lat="44.49341" lon="4.60586">
        <ele>252.19999694824</ele>
        <time>2021-05-05T15:42:26Z</time>
      </trkpt>
      <trkpt lat="44.49347" lon="4.60589">
        <ele>251.60000610352</ele>
        <time>2021-05-05T15:42:27Z</time>
      </trkpt>
      <trkpt lat="44.49358" lon="4.60593">
        <ele>250</ele>
        <time>2021-05-05T15:42:29Z</time>
      </trkpt>
      <trkpt lat="44.49363" lon="4.60595">
        <ele>249</ele>
        <time>2021-05-05T15:42:30Z</time>
      </trkpt>
      <trkpt lat="44.49369" lon="4.60598">
        <ele>248.39999389648</ele>
        <time>2021-05-05T15:42:31Z</time>
      </trkpt>
      <trkpt lat="44.4938" lon="4.60605">
        <ele>246.39999389648</ele>
        <time>2021-05-05T15:42:33Z</time>
      </trkpt>
      <trkpt lat="44.49397" lon="4.60619">
        <ele>245.39999389648</ele>
        <time>2021-05-05T15:42:36Z</time>
      </trkpt>
      <trkpt lat="44.49408" lon="4.60629">
        <ele>244.60000610352</ele>
        <time>2021-05-05T15:42:38Z</time>
      </trkpt>
      <trkpt lat="44.49413" lon="4.60635">
        <ele>243.80000305176</ele>
        <time>2021-05-05T15:42:39Z</time>
      </trkpt>
      <trkpt lat="44.49418" lon="4.6064">
        <ele>243.39999389648</ele>
        <time>2021-05-05T15:42:40Z</time>
      </trkpt>
      <trkpt lat="44.49423" lon="4.60644">
        <ele>243</ele>
        <time>2021-05-05T15:42:41Z</time>
      </trkpt>
      <trkpt lat="44.49427" lon="4.60648">
        <ele>242.39999389648</ele>
        <time>2021-05-05T15:42:42Z</time>
      </trkpt>
      <trkpt lat="44.49431" lon="4.60652">
        <ele>242.39999389648</ele>
        <time>2021-05-05T15:42:43Z</time>
      </trkpt>
      <trkpt lat="44.49435" lon="4.60657">
        <ele>242</ele>
        <time>2021-05-05T15:42:44Z</time>
      </trkpt>
      <trkpt lat="44.49439" lon="4.60661">
        <ele>242</ele>
        <time>2021-05-05T15:42:45Z</time>
      </trkpt>
      <trkpt lat="44.49443" lon="4.60665">
        <ele>241.60000610352</ele>
        <time>2021-05-05T15:42:46Z</time>
      </trkpt>
      <trkpt lat="44.49446" lon="4.60668">
        <ele>240.80000305176</ele>
        <time>2021-05-05T15:42:47Z</time>
      </trkpt>
      <trkpt lat="44.49447" lon="4.60669">
        <ele>240.60000610352</ele>
        <time>2021-05-05T15:42:48Z</time>
      </trkpt>
      <trkpt lat="44.49447" lon="4.60669">
        <ele>240.39999389648</ele>
        <time>2021-05-05T15:42:49Z</time>
      </trkpt>
      <trkpt lat="44.49447" lon="4.60669">
        <ele>240.19999694824</ele>
        <time>2021-05-05T15:42:50Z</time>
      </trkpt>
      <trkpt lat="44.49447" lon="4.6067">
        <ele>240.19999694824</ele>
        <time>2021-05-05T15:42:52Z</time>
      </trkpt>
      <trkpt lat="44.49452" lon="4.60676">
        <ele>240</ele>
        <time>2021-05-05T15:42:56Z</time>
      </trkpt>
      <trkpt lat="44.49455" lon="4.60679">
        <ele>240</ele>
        <time>2021-05-05T15:42:57Z</time>
      </trkpt>
      <trkpt lat="44.49471" lon="4.6069">
        <ele>240</ele>
        <time>2021-05-05T15:43:01Z</time>
      </trkpt>
      <trkpt lat="44.49492" lon="4.60699">
        <ele>240</ele>
        <time>2021-05-05T15:43:05Z</time>
      </trkpt>
      <trkpt lat="44.49498" lon="4.60701">
        <ele>240.19999694824</ele>
        <time>2021-05-05T15:43:06Z</time>
      </trkpt>
      <trkpt lat="44.49505" lon="4.60704">
        <ele>240</ele>
        <time>2021-05-05T15:43:07Z</time>
      </trkpt>
      <trkpt lat="44.49511" lon="4.60706">
        <ele>240</ele>
        <time>2021-05-05T15:43:08Z</time>
      </trkpt>
      <trkpt lat="44.49518" lon="4.60709">
        <ele>239.80000305176</ele>
        <time>2021-05-05T15:43:09Z</time>
      </trkpt>
      <trkpt lat="44.49537" lon="4.6072">
        <ele>239.60000610352</ele>
        <time>2021-05-05T15:43:12Z</time>
      </trkpt>
      <trkpt lat="44.49543" lon="4.60724">
        <ele>239.39999389648</ele>
        <time>2021-05-05T15:43:13Z</time>
      </trkpt>
      <trkpt lat="44.49548" lon="4.60727">
        <ele>238.80000305176</ele>
        <time>2021-05-05T15:43:14Z</time>
      </trkpt>
      <trkpt lat="44.49551" lon="4.6073">
        <ele>238.19999694824</ele>
        <time>2021-05-05T15:43:15Z</time>
      </trkpt>
      <trkpt lat="44.49555" lon="4.60732">
        <ele>237.60000610352</ele>
        <time>2021-05-05T15:43:16Z</time>
      </trkpt>
      <trkpt lat="44.49557" lon="4.60733">
        <ele>236.80000305176</ele>
        <time>2021-05-05T15:43:17Z</time>
      </trkpt>
      <trkpt lat="44.49582" lon="4.60758">
        <ele>210.1640625</ele>
      </trkpt>
      <trkpt lat="44.49585" lon="4.60757">
        <ele>209.92578125</ele>
      </trkpt>
      <trkpt lat="44.49585" lon="4.60753">
        <ele>209.93359375</ele>
      </trkpt>
      <trkpt lat="44.49583" lon="4.60744">
        <ele>210.27734375</ele>
      </trkpt>
      <trkpt lat="44.49577" lon="4.60735">
        <ele>211.14453125</ele>
      </trkpt>
      <trkpt lat="44.49568" lon="4.60719">
        <ele>212.80859375</ele>
      </trkpt>
      <trkpt lat="44.4955" lon="4.60687">
        <ele>212.54296875</ele>
      </trkpt>
      <trkpt lat="44.49532" lon="4.60653">
        <ele>212.453125</ele>
      </trkpt>
      <trkpt lat="44.49525" lon="4.60641">
        <ele>211.8046875</ele>
      </trkpt>
      <trkpt lat="44.49507" lon="4.60607">
        <ele>210.65625</ele>
      </trkpt>
      <trkpt lat="44.49494" lon="4.60587">
        <ele>209.53515625</ele>
      </trkpt>
      <trkpt lat="44.49484" lon="4.60567">
        <ele>207.98046875</ele>
      </trkpt>
      <trkpt lat="44.49471" lon="4.60547">
        <ele>206.484375</ele>
      </trkpt>
      <trkpt lat="44.49461" lon="4.6053">
        <ele>204.7265625</ele>
      </trkpt>
      <trkpt lat="44.4945" lon="4.60511">
        <ele>202.078125</ele>
      </trkpt>
      <trkpt lat="44.49436" lon="4.60487">
        <ele>199.03515625</ele>
      </trkpt>
      <trkpt lat="44.49431" lon="4.60482">
        <ele>198.91796875</ele>
      </trkpt>
      <trkpt lat="44.49428" lon="4.60478">
        <ele>198.4765625</ele>
      </trkpt>
      <trkpt lat="44.49429" lon="4.60473">
        <ele>197.29296875</ele>
      </trkpt>
      <trkpt lat="44.49434" lon="4.60471">
        <ele>196.046875</ele>
      </trkpt>
      <trkpt lat="44.49438" lon="4.60473">
        <ele>195.74609375</ele>
      </trkpt>
      <trkpt lat="44.49445" lon="4.60478">
        <ele>195.703125</ele>
      </trkpt>
      <trkpt lat="44.49454" lon="4.60482">
        <ele>194.9765625</ele>
      </trkpt>
      <trkpt lat="44.49478" lon="4.6049">
        <ele>192.76953125</ele>
      </trkpt>
      <trkpt lat="44.49487" lon="4.60492">
        <ele>191.75390625</ele>
      </trkpt>
      <trkpt lat="44.49495" lon="4.60495">
        <ele>191.1171875</ele>
      </trkpt>
      <trkpt lat="44.49498" lon="4.60498">
        <ele>191.19921875</ele>
      </trkpt>
      <trkpt lat="44.495" lon="4.605">
        <ele>191.3984375</ele>
      </trkpt>
      <trkpt lat="44.49506" lon="4.60507">
        <ele>191.92578125</ele>
      </trkpt>
      <trkpt lat="44.49511" lon="4.60512">
        <ele>191.87109375</ele>
      </trkpt>
      <trkpt lat="44.49518" lon="4.60515">
        <ele>191.23046875</ele>
      </trkpt>
      <trkpt lat="44.49534" lon="4.60525">
        <ele>189.95703125</ele>
      </trkpt>
      <trkpt lat="44.49545" lon="4.60529">
        <ele>188.57421875</ele>
      </trkpt>
      <trkpt lat="44.49555" lon="4.60534">
        <ele>187.6171875</ele>
      </trkpt>
      <trkpt lat="44.49561" lon="4.60536">
        <ele>186.875</ele>
      </trkpt>
      <trkpt lat="44.49569" lon="4.6054">
        <ele>185.95703125</ele>
      </trkpt>
      <trkpt lat="44.49577" lon="4.60545">
        <ele>185.2890625</ele>
      </trkpt>
      <trkpt lat="44.4958" lon="4.60549">
        <ele>185.13671875</ele>
      </trkpt>
      <trkpt lat="44.49583" lon="4.60552">
        <ele>185.14453125</ele>
      </trkpt>
      <trkpt lat="44.49591" lon="4.60563">
        <ele>185.07421875</ele>
      </trkpt>
      <trkpt lat="44.49608" lon="4.60585">
        <ele>185.140625</ele>
      </trkpt>
      <trkpt lat="44.49613" lon="4.60591">
        <ele>185.04296875</ele>
      </trkpt>
      <trkpt lat="44.49621" lon="4.60603">
        <ele>185.3828125</ele>
      </trkpt>
      <trkpt lat="44.49625" lon="4.60608">
        <ele>185.2265625</ele>
      </trkpt>
      <trkpt lat="44.49632" lon="4.60617">
        <ele>184.7109375</ele>
      </trkpt>
      <trkpt lat="44.49639" lon="4.60624">
        <ele>183.7734375</ele>
      </trkpt>
      <trkpt lat="44.49645" lon="4.60631">
        <ele>183.16015625</ele>
      </trkpt>
      <trkpt lat="44.49652" lon="4.6064">
        <ele>182.59375</ele>
      </trkpt>
      <trkpt lat="44.49654" lon="4.60643">
        <ele>182.359375</ele>
      </trkpt>
      <trkpt lat="44.49657" lon="4.60651">
        <ele>182.7109375</ele>
      </trkpt>
      <trkpt lat="44.4966" lon="4.60654">
        <ele>182.109375</ele>
      </trkpt>
      <trkpt lat="44.49663" lon="4.6065">
        <ele>180.6796875</ele>
      </trkpt>
      <trkpt lat="44.49662" lon="4.60642">
        <ele>179.77734375</ele>
      </trkpt>
      <trkpt lat="44.4966" lon="4.60638">
        <ele>179.7734375</ele>
      </trkpt>
      <trkpt lat="44.49659" lon="4.60633">
        <ele>179.26953125</ele>
      </trkpt>
      <trkpt lat="44.49658" lon="4.60625">
        <ele>178.25</ele>
      </trkpt>
      <trkpt lat="44.49655" lon="4.60614">
        <ele>177.3515625</ele>
      </trkpt>
      <trkpt lat="44.49653" lon="4.60606">
        <ele>176.69140625</ele>
      </trkpt>
      <trkpt lat="44.49652" lon="4.60599">
        <ele>175.94140625</ele>
      </trkpt>
      <trkpt lat="44.4965" lon="4.60585">
        <ele>174.28515625</ele>
      </trkpt>
      <trkpt lat="44.49647" lon="4.60572">
        <ele>172.84765625</ele>
      </trkpt>
      <trkpt lat="44.49646" lon="4.60561">
        <ele>171.28125</ele>
      </trkpt>
      <trkpt lat="44.49645" lon="4.60554">
        <ele>170.31640625</ele>
      </trkpt>
      <trkpt lat="44.49645" lon="4.60543">
        <ele>168.85546875</ele>
      </trkpt>
      <trkpt lat="44.49643" lon="4.60533">
        <ele>167.9453125</ele>
      </trkpt>
      <trkpt lat="44.49641" lon="4.60524">
        <ele>166.96484375</ele>
      </trkpt>
      <trkpt lat="44.49638" lon="4.60514">
        <ele>166.04296875</ele>
      </trkpt>
      <trkpt lat="44.49635" lon="4.60505">
        <ele>165.453125</ele>
      </trkpt>
      <trkpt lat="44.49632" lon="4.60497">
        <ele>164.7265625</ele>
      </trkpt>
      <trkpt lat="44.49628" lon="4.60479">
        <ele>163.3828125</ele>
      </trkpt>
      <trkpt lat="44.49624" lon="4.60468">
        <ele>162.5234375</ele>
      </trkpt>
      <trkpt lat="44.4962" lon="4.60463">
        <ele>162.57421875</ele>
      </trkpt>
      <trkpt lat="44.4961" lon="4.60456">
        <ele>162.91015625</ele>
      </trkpt>
      <trkpt lat="44.49599" lon="4.60449">
        <ele>163.53125</ele>
      </trkpt>
      <trkpt lat="44.49588" lon="4.60441">
        <ele>163.80859375</ele>
      </trkpt>
      <trkpt lat="44.49581" lon="4.60438">
        <ele>164.24609375</ele>
      </trkpt>
      <trkpt lat="44.49569" lon="4.6043">
        <ele>164.5625</ele>
      </trkpt>
      <trkpt lat="44.49563" lon="4.60423">
        <ele>164.24609375</ele>
      </trkpt>
      <trkpt lat="44.49561" lon="4.60418">
        <ele>163.71484375</ele>
      </trkpt>
      <trkpt lat="44.4956" lon="4.60413">
        <ele>162.9140625</ele>
      </trkpt>
      <trkpt lat="44.49561" lon="4.60404">
        <ele>161.24609375</ele>
      </trkpt>
      <trkpt lat="44.49562" lon="4.60401">
        <ele>160.30859375</ele>
      </trkpt>
      <trkpt lat="44.49565" lon="4.60397">
        <ele>159.3125</ele>
      </trkpt>
      <trkpt lat="44.4957" lon="4.60393">
        <ele>157.78125</ele>
      </trkpt>
      <trkpt lat="44.49573" lon="4.6039">
        <ele>156.890625</ele>
      </trkpt>
      <trkpt lat="44.49578" lon="4.60388">
        <ele>155.92578125</ele>
      </trkpt>
      <trkpt lat="44.49581" lon="4.60387">
        <ele>155.328125</ele>
      </trkpt>
      <trkpt lat="44.49586" lon="4.60388">
        <ele>154.90234375</ele>
      </trkpt>
      <trkpt lat="44.49596" lon="4.60394">
        <ele>154.6875</ele>
      </trkpt>
      <trkpt lat="44.496" lon="4.60396">
        <ele>154.56640625</ele>
      </trkpt>
      <trkpt lat="44.49603" lon="4.60398">
        <ele>154.51171875</ele>
      </trkpt>
      <trkpt lat="44.49608" lon="4.60401">
        <ele>154.26171875</ele>
      </trkpt>
      <trkpt lat="44.49614" lon="4.60395">
        <ele>152.5859375</ele>
      </trkpt>
      <trkpt lat="44.49618" lon="4.60393">
        <ele>151.59375</ele>
      </trkpt>
      <trkpt lat="44.49624" lon="4.60393">
        <ele>150.796875</ele>
      </trkpt>
      <trkpt lat="44.49627" lon="4.60395">
        <ele>150.828125</ele>
      </trkpt>
      <trkpt lat="44.49633" lon="4.60399">
        <ele>150.79296875</ele>
      </trkpt>
      <trkpt lat="44.49645" lon="4.60408">
        <ele>150.6484375</ele>
      </trkpt>
      <trkpt lat="44.49658" lon="4.60419">
        <ele>150.41796875</ele>
      </trkpt>
      <trkpt lat="44.49666" lon="4.6043">
        <ele>150.4296875</ele>
      </trkpt>
      <trkpt lat="44.49675" lon="4.60439">
        <ele>150.125</ele>
      </trkpt>
      <trkpt lat="44.49683" lon="4.60449">
        <ele>149.5859375</ele>
      </trkpt>
      <trkpt lat="44.49689" lon="4.60459">
        <ele>149.30078125</ele>
      </trkpt>
      <trkpt lat="44.49692" lon="4.60467">
        <ele>149.2265625</ele>
      </trkpt>
      <trkpt lat="44.49695" lon="4.60476">
        <ele>149.15625</ele>
      </trkpt>
      <trkpt lat="44.49698" lon="4.6048">
        <ele>148.828125</ele>
      </trkpt>
      <trkpt lat="44.49701" lon="4.60482">
        <ele>148.1875</ele>
      </trkpt>
      <trkpt lat="44.49705" lon="4.6048">
        <ele>147.2265625</ele>
      </trkpt>
      <trkpt lat="44.49706" lon="4.60476">
        <ele>146.75</ele>
      </trkpt>
      <trkpt lat="44.49706" lon="4.60469">
        <ele>146.2890625</ele>
      </trkpt>
      <trkpt lat="44.49708" lon="4.60459">
        <ele>145.42578125</ele>
      </trkpt>
      <trkpt lat="44.49711" lon="4.60447">
        <ele>144.19921875</ele>
      </trkpt>
      <trkpt lat="44.49715" lon="4.60437">
        <ele>143.04296875</ele>
      </trkpt>
      <trkpt lat="44.49717" lon="4.60429">
        <ele>142.4296875</ele>
      </trkpt>
      <trkpt lat="44.49718" lon="4.60421">
        <ele>141.828125</ele>
      </trkpt>
      <trkpt lat="44.4972" lon="4.60398">
        <ele>140.640625</ele>
      </trkpt>
      <trkpt lat="44.4972" lon="4.60385">
        <ele>140.14453125</ele>
      </trkpt>
      <trkpt lat="44.4972" lon="4.60356">
        <ele>139.9453125</ele>
      </trkpt>
      <trkpt lat="44.49719" lon="4.60342">
        <ele>139.890625</ele>
      </trkpt>
      <trkpt lat="44.49718" lon="4.60335">
        <ele>139.8828125</ele>
      </trkpt>
      <trkpt lat="44.49716" lon="4.6033">
        <ele>139.9609375</ele>
      </trkpt>
      <trkpt lat="44.49712" lon="4.60325">
        <ele>140.37109375</ele>
      </trkpt>
      <trkpt lat="44.49697" lon="4.60312">
        <ele>141.8515625</ele>
      </trkpt>
      <trkpt lat="44.49694" lon="4.60307">
        <ele>142.25390625</ele>
      </trkpt>
      <trkpt lat="44.49695" lon="4.60304">
        <ele>142.40234375</ele>
      </trkpt>
      <trkpt lat="44.49697" lon="4.60301">
        <ele>142.3359375</ele>
      </trkpt>
      <trkpt lat="44.49703" lon="4.60304">
        <ele>141.87109375</ele>
      </trkpt>
      <trkpt lat="44.49711" lon="4.60313">
        <ele>140.97265625</ele>
      </trkpt>
      <trkpt lat="44.49713" lon="4.60315">
        <ele>140.74609375</ele>
      </trkpt>
      <trkpt lat="44.49716" lon="4.60316">
        <ele>140.51953125</ele>
      </trkpt>
      <trkpt lat="44.49722" lon="4.60313">
        <ele>140.30078125</ele>
      </trkpt>
      <trkpt lat="44.49726" lon="4.60311">
        <ele>140.16015625</ele>
      </trkpt>
      <trkpt lat="44.4973" lon="4.60308">
        <ele>140.03125</ele>
      </trkpt>
      <trkpt lat="44.49735" lon="4.60305">
        <ele>139.8828125</ele>
      </trkpt>
      <trkpt lat="44.49742" lon="4.60301">
        <ele>139.90625</ele>
      </trkpt>
      <trkpt lat="44.49747" lon="4.60298">
        <ele>139.875</ele>
      </trkpt>
      <trkpt lat="44.4975" lon="4.60297">
        <ele>139.8359375</ele>
      </trkpt>
      <trkpt lat="44.49757" lon="4.60292">
        <ele>139.78125</ele>
      </trkpt>
      <trkpt lat="44.49762" lon="4.60285">
        <ele>139.78125</ele>
      </trkpt>
      <trkpt lat="44.49766" lon="4.60281">
        <ele>139.734375</ele>
      </trkpt>
      <trkpt lat="44.49769" lon="4.60279">
        <ele>139.67578125</ele>
      </trkpt>
      <trkpt lat="44.49778" lon="4.60274">
        <ele>139.40625</ele>
      </trkpt>
      <trkpt lat="44.4978" lon="4.60269">
        <ele>139.3359375</ele>
      </trkpt>
      <trkpt lat="44.49781" lon="4.60263">
        <ele>139.34375</ele>
      </trkpt>
      <trkpt lat="44.49783" lon="4.60251">
        <ele>139.3203125</ele>
      </trkpt>
      <trkpt lat="44.49783" lon="4.60246">
        <ele>139.3125</ele>
      </trkpt>
      <trkpt lat="44.49784" lon="4.60239">
        <ele>139.26953125</ele>
      </trkpt>
      <trkpt lat="44.49787" lon="4.60236">
        <ele>139.08203125</ele>
      </trkpt>
      <trkpt lat="44.4979" lon="4.60241">
        <ele>139.18359375</ele>
      </trkpt>
      <trkpt lat="44.49789" lon="4.6025">
        <ele>139.03515625</ele>
      </trkpt>
      <trkpt lat="44.49788" lon="4.60256">
        <ele>139.0390625</ele>
      </trkpt>
      <trkpt lat="44.49786" lon="4.60272">
        <ele>139.08984375</ele>
      </trkpt>
      <trkpt lat="44.49784" lon="4.60301">
        <ele>139.09765625</ele>
      </trkpt>
      <trkpt lat="44.49782" lon="4.60312">
        <ele>139.08984375</ele>
      </trkpt>
      <trkpt lat="44.4978" lon="4.60317">
        <ele>139.07421875</ele>
      </trkpt>
      <trkpt lat="44.49778" lon="4.60328">
        <ele>139.01953125</ele>
      </trkpt>
      <trkpt lat="44.49777" lon="4.60339">
        <ele>138.875</ele>
      </trkpt>
      <trkpt lat="44.49777" lon="4.6035">
        <ele>138.73046875</ele>
      </trkpt>
      <trkpt lat="44.49777" lon="4.60359">
        <ele>138.59375</ele>
      </trkpt>
      <trkpt lat="44.49778" lon="4.60367">
        <ele>138.46875</ele>
      </trkpt>
      <trkpt lat="44.49779" lon="4.60375">
        <ele>138.3359375</ele>
      </trkpt>
      <trkpt lat="44.49782" lon="4.60383">
        <ele>138.1640625</ele>
      </trkpt>
      <trkpt lat="44.49786" lon="4.60393">
        <ele>137.60546875</ele>
      </trkpt>
      <trkpt lat="44.49792" lon="4.60402">
        <ele>137.578125</ele>
      </trkpt>
      <trkpt lat="44.49807" lon="4.60425">
        <ele>139.12109375</ele>
      </trkpt>
      <trkpt lat="44.49822" lon="4.60448">
        <ele>140.0859375</ele>
      </trkpt>
      <trkpt lat="44.49834" lon="4.60464">
        <ele>140.484375</ele>
      </trkpt>
      <trkpt lat="44.49851" lon="4.60486">
        <ele>141.859375</ele>
      </trkpt>
      <trkpt lat="44.49861" lon="4.60498">
        <ele>143.78125</ele>
      </trkpt>
      <trkpt lat="44.49878" lon="4.60529">
        <ele>146.24609375</ele>
      </trkpt>
      <trkpt lat="44.49883" lon="4.60539">
        <ele>146.62890625</ele>
      </trkpt>
      <trkpt lat="44.49889" lon="4.60541">
        <ele>148.16015625</ele>
      </trkpt>
      <trkpt lat="44.49881" lon="4.60517">
        <ele>148.40625</ele>
      </trkpt>
      <trkpt lat="44.49868" lon="4.6048">
        <ele>148.50390625</ele>
      </trkpt>
      <trkpt lat="44.49858" lon="4.60453">
        <ele>148.58984375</ele>
      </trkpt>
      <trkpt lat="44.49849" lon="4.60432">
        <ele>147.98828125</ele>
      </trkpt>
      <trkpt lat="44.49822" lon="4.6038">
        <ele>147.01953125</ele>
      </trkpt>
      <trkpt lat="44.49811" lon="4.60358">
        <ele>144.515625</ele>
      </trkpt>
      <trkpt lat="44.49806" lon="4.60347">
        <ele>143.4140625</ele>
      </trkpt>
      <trkpt lat="44.49804" lon="4.60337">
        <ele>143.01171875</ele>
      </trkpt>
      <trkpt lat="44.49804" lon="4.60331">
        <ele>143.1171875</ele>
      </trkpt>
      <trkpt lat="44.49804" lon="4.60326">
        <ele>142.94921875</ele>
      </trkpt>
      <trkpt lat="44.49804" lon="4.60321">
        <ele>142.73828125</ele>
      </trkpt>
      <trkpt lat="44.49805" lon="4.60316">
        <ele>142.79296875</ele>
      </trkpt>
      <trkpt lat="44.49806" lon="4.6031">
        <ele>142.77734375</ele>
      </trkpt>
      <trkpt lat="44.49809" lon="4.60302">
        <ele>142.9375</ele>
      </trkpt>
      <trkpt lat="44.49811" lon="4.60298">
        <ele>143.109375</ele>
      </trkpt>
      <trkpt lat="44.49816" lon="4.60288">
        <ele>143.3203125</ele>
      </trkpt>
      <trkpt lat="44.49819" lon="4.60284">
        <ele>143.45703125</ele>
      </trkpt>
      <trkpt lat="44.49822" lon="4.6028">
        <ele>143.6484375</ele>
      </trkpt>
      <trkpt lat="44.49826" lon="4.60275">
        <ele>143.640625</ele>
      </trkpt>
      <trkpt lat="44.49831" lon="4.60267">
        <ele>144.48828125</ele>
      </trkpt>
      <trkpt lat="44.49832" lon="4.60263">
        <ele>144.6875</ele>
      </trkpt>
      <trkpt lat="44.49834" lon="4.60256">
        <ele>144.9921875</ele>
      </trkpt>
      <trkpt lat="44.49835" lon="4.60252">
        <ele>145.125</ele>
      </trkpt>
      <trkpt lat="44.49835" lon="4.60241">
        <ele>145.3671875</ele>
      </trkpt>
      <trkpt lat="44.49835" lon="4.60234">
        <ele>145.3984375</ele>
      </trkpt>
      <trkpt lat="44.49832" lon="4.60222">
        <ele>145.265625</ele>
      </trkpt>
      <trkpt lat="44.49831" lon="4.60216">
        <ele>145.48828125</ele>
      </trkpt>
      <trkpt lat="44.49828" lon="4.6021">
        <ele>145.62109375</ele>
      </trkpt>
      <trkpt lat="44.49826" lon="4.60203">
        <ele>145.94921875</ele>
      </trkpt>
      <trkpt lat="44.49831" lon="4.60203">
        <ele>146.83203125</ele>
      </trkpt>
      <trkpt lat="44.49835" lon="4.60203">
        <ele>147.56640625</ele>
      </trkpt>
      <trkpt lat="44.49852" lon="4.60202">
        <ele>150.578125</ele>
      </trkpt>
      <trkpt lat="44.49861" lon="4.60201">
        <ele>152.515625</ele>
      </trkpt>
      <trkpt lat="44.49874" lon="4.60196">
        <ele>155.859375</ele>
      </trkpt>
      <trkpt lat="44.49887" lon="4.6019">
        <ele>159.7265625</ele>
      </trkpt>
      <trkpt lat="44.49906" lon="4.60178">
        <ele>165.37109375</ele>
      </trkpt>
      <trkpt lat="44.4992" lon="4.60163">
        <ele>168.5859375</ele>
      </trkpt>
      <trkpt lat="44.49931" lon="4.60153">
        <ele>171.2890625</ele>
      </trkpt>
      <trkpt lat="44.49935" lon="4.60148">
        <ele>172.921875</ele>
      </trkpt>
      <trkpt lat="44.49938" lon="4.60141">
        <ele>175.125</ele>
      </trkpt>
      <trkpt lat="44.49942" lon="4.60118">
        <ele>182.671875</ele>
      </trkpt>
      <trkpt lat="44.49951" lon="4.60084">
        <ele>191.875</ele>
      </trkpt>
      <trkpt lat="44.49955" lon="4.60072">
        <ele>195.08984375</ele>
      </trkpt>
      <trkpt lat="44.49971" lon="4.60038">
        <ele>201.71484375</ele>
      </trkpt>
      <trkpt lat="44.49989" lon="4.60005">
        <ele>205.8125</ele>
      </trkpt>
      <trkpt lat="44.49992" lon="4.59998">
        <ele>206.54296875</ele>
      </trkpt>
      <trkpt lat="44.49996" lon="4.59993">
        <ele>207.33203125</ele>
      </trkpt>
      <trkpt lat="44.50003" lon="4.5999">
        <ele>207.515625</ele>
      </trkpt>
      <trkpt lat="44.50006" lon="4.59988">
        <ele>207.87109375</ele>
      </trkpt>
      <trkpt lat="44.50016" lon="4.59973">
        <ele>211.52734375</ele>
      </trkpt>
      <trkpt lat="44.50027" lon="4.59951">
        <ele>216.83984375</ele>
      </trkpt>
      <trkpt lat="44.50046" lon="4.59923">
        <ele>222.83203125</ele>
      </trkpt>
      <trkpt lat="44.50062" lon="4.59906">
        <ele>225.55859375</ele>
      </trkpt>
      <trkpt lat="44.5007" lon="4.59899">
        <ele>226.83984375</ele>
      </trkpt>
      <trkpt lat="44.50085" lon="4.59887">
        <ele>229.3046875</ele>
      </trkpt>
      <trkpt lat="44.50102" lon="4.59873">
        <ele>231.70703125</ele>
      </trkpt>
      <trkpt lat="44.50118" lon="4.59863">
        <ele>233.32421875</ele>
      </trkpt>
      <trkpt lat="44.50123" lon="4.5986">
        <ele>233.92578125</ele>
      </trkpt>
      <trkpt lat="44.5013" lon="4.59858">
        <ele>234.6875</ele>
      </trkpt>
      <trkpt lat="44.50135" lon="4.59857">
        <ele>235.1640625</ele>
      </trkpt>
      <trkpt lat="44.5014" lon="4.59857">
        <ele>235.57421875</ele>
      </trkpt>
      <trkpt lat="44.50149" lon="4.59858">
        <ele>235.99609375</ele>
      </trkpt>
      <trkpt lat="44.50155" lon="4.59859">
        <ele>236.36328125</ele>
      </trkpt>
      <trkpt lat="44.50172" lon="4.59861">
        <ele>237.39453125</ele>
      </trkpt>
      <trkpt lat="44.50197" lon="4.59872">
        <ele>239.20703125</ele>
      </trkpt>
      <trkpt lat="44.50209" lon="4.59873">
        <ele>240.30859375</ele>
      </trkpt>
      <trkpt lat="44.50218" lon="4.59878">
        <ele>241.00390625</ele>
      </trkpt>
      <trkpt lat="44.50236" lon="4.59886">
        <ele>242.49609375</ele>
      </trkpt>
      <trkpt lat="44.50242" lon="4.59886">
        <ele>243.203125</ele>
      </trkpt>
      <trkpt lat="44.50253" lon="4.59882">
        <ele>244.70703125</ele>
      </trkpt>
      <trkpt lat="44.50275" lon="4.59868">
        <ele>248.07421875</ele>
      </trkpt>
      <trkpt lat="44.50303" lon="4.59851">
        <ele>252.04296875</ele>
      </trkpt>
      <trkpt lat="44.50332" lon="4.59832">
        <ele>254.23828125</ele>
      </trkpt>
      <trkpt lat="44.50345" lon="4.59824">
        <ele>254.28515625</ele>
      </trkpt>
      <trkpt lat="44.50348" lon="4.59822">
        <ele>253.953125</ele>
      </trkpt>
      <trkpt lat="44.50351" lon="4.59822">
        <ele>253.71875</ele>
      </trkpt>
      <trkpt lat="44.50354" lon="4.59822">
        <ele>253.45703125</ele>
      </trkpt>
      <trkpt lat="44.50358" lon="4.59823">
        <ele>253.359375</ele>
      </trkpt>
      <trkpt lat="44.50364" lon="4.59828">
        <ele>253.51953125</ele>
      </trkpt>
      <trkpt lat="44.50373" lon="4.59834">
        <ele>253.8671875</ele>
      </trkpt>
      <trkpt lat="44.50393" lon="4.59846">
        <ele>255.375</ele>
      </trkpt>
      <trkpt lat="44.50409" lon="4.59853">
        <ele>256.16015625</ele>
      </trkpt>
      <trkpt lat="44.50422" lon="4.59857">
        <ele>256.421875</ele>
      </trkpt>
      <trkpt lat="44.50432" lon="4.5986">
        <ele>256.5703125</ele>
      </trkpt>
      <trkpt lat="44.50453" lon="4.59866">
        <ele>257.1328125</ele>
      </trkpt>
      <trkpt lat="44.50461" lon="4.59866">
        <ele>256.71875</ele>
      </trkpt>
      <trkpt lat="44.50477" lon="4.59866">
        <ele>255.296875</ele>
      </trkpt>
      <trkpt lat="44.50488" lon="4.59863">
        <ele>253.6484375</ele>
      </trkpt>
      <trkpt lat="44.50499" lon="4.59863">
        <ele>252.79296875</ele>
      </trkpt>
      <trkpt lat="44.50515" lon="4.59864">
        <ele>252.13671875</ele>
      </trkpt>
      <trkpt lat="44.50534" lon="4.59865">
        <ele>252.25</ele>
      </trkpt>
      <trkpt lat="44.50547" lon="4.59865">
        <ele>252.11328125</ele>
      </trkpt>
      <trkpt lat="44.50567" lon="4.59862">
        <ele>250.80859375</ele>
      </trkpt>
      <trkpt lat="44.50589" lon="4.59858">
        <ele>249.7421875</ele>
      </trkpt>
      <trkpt lat="44.5061" lon="4.59856">
        <ele>249.33984375</ele>
      </trkpt>
      <trkpt lat="44.5063" lon="4.59857">
        <ele>249.58203125</ele>
      </trkpt>
      <trkpt lat="44.50646" lon="4.59858">
        <ele>249.59765625</ele>
      </trkpt>
      <trkpt lat="44.50667" lon="4.59862">
        <ele>250.015625</ele>
      </trkpt>
      <trkpt lat="44.50679" lon="4.59864">
        <ele>250.19921875</ele>
      </trkpt>
      <trkpt lat="44.50685" lon="4.59868">
        <ele>250.671875</ele>
      </trkpt>
      <trkpt lat="44.5069" lon="4.59875">
        <ele>251.2421875</ele>
      </trkpt>
      <trkpt lat="44.50686" lon="4.5988">
        <ele>251.88671875</ele>
      </trkpt>
      <trkpt lat="44.50681" lon="4.59889">
        <ele>253.203125</ele>
      </trkpt>
      <trkpt lat="44.50678" lon="4.59896">
        <ele>254.359375</ele>
      </trkpt>
      <trkpt lat="44.50677" lon="4.59906">
        <ele>255.7109375</ele>
      </trkpt>
      <trkpt lat="44.50677" lon="4.59925">
        <ele>258.5546875</ele>
      </trkpt>
      <trkpt lat="44.50677" lon="4.59906">
        <ele>255.7109375</ele>
      </trkpt>
      <trkpt lat="44.50678" lon="4.59896">
        <ele>254.359375</ele>
      </trkpt>
      <trkpt lat="44.50681" lon="4.59889">
        <ele>253.203125</ele>
      </trkpt>
      <trkpt lat="44.50686" lon="4.5988">
        <ele>251.88671875</ele>
      </trkpt>
      <trkpt lat="44.5069" lon="4.59875">
        <ele>251.2421875</ele>
      </trkpt>
      <trkpt lat="44.50698" lon="4.59863">
        <ele>250.19140625</ele>
      </trkpt>
      <trkpt lat="44.50704" lon="4.59857">
        <ele>249.875</ele>
      </trkpt>
      <trkpt lat="44.50707" lon="4.59854">
        <ele>249.80859375</ele>
      </trkpt>
      <trkpt lat="44.50715" lon="4.5985">
        <ele>249.9453125</ele>
      </trkpt>
      <trkpt lat="44.50739" lon="4.59838">
        <ele>251.1875</ele>
      </trkpt>
      <trkpt lat="44.50757" lon="4.59831">
        <ele>252.77734375</ele>
      </trkpt>
      <trkpt lat="44.50809" lon="4.59816">
        <ele>257.2421875</ele>
      </trkpt>
      <trkpt lat="44.50857" lon="4.59804">
        <ele>260.55078125</ele>
      </trkpt>
      <trkpt lat="44.50891" lon="4.59796">
        <ele>261.35546875</ele>
      </trkpt>
      <trkpt lat="44.50899" lon="4.59795">
        <ele>261.390625</ele>
      </trkpt>
      <trkpt lat="44.50903" lon="4.59793">
        <ele>261.55078125</ele>
      </trkpt>
      <trkpt lat="44.50908" lon="4.59792">
        <ele>261.28125</ele>
      </trkpt>
      <trkpt lat="44.50911" lon="4.59791">
        <ele>261.34375</ele>
      </trkpt>
      <trkpt lat="44.50914" lon="4.59787">
        <ele>261.75390625</ele>
      </trkpt>
      <trkpt lat="44.50916" lon="4.59785">
        <ele>262.12890625</ele>
      </trkpt>
      <trkpt lat="44.50918" lon="4.59782">
        <ele>262.66796875</ele>
      </trkpt>
      <trkpt lat="44.50919" lon="4.59778">
        <ele>263.30859375</ele>
      </trkpt>
      <trkpt lat="44.50922" lon="4.59766">
        <ele>265.53515625</ele>
      </trkpt>
      <trkpt lat="44.50925" lon="4.59756">
        <ele>267.3359375</ele>
      </trkpt>
      <trkpt lat="44.50927" lon="4.59749">
        <ele>268.63671875</ele>
      </trkpt>
      <trkpt lat="44.5093" lon="4.59744">
        <ele>269.51171875</ele>
      </trkpt>
      <trkpt lat="44.50933" lon="4.59741">
        <ele>269.9375</ele>
      </trkpt>
      <trkpt lat="44.50935" lon="4.59738">
        <ele>270.34765625</ele>
      </trkpt>
      <trkpt lat="44.5094" lon="4.59735">
        <ele>270.66796875</ele>
      </trkpt>
      <trkpt lat="44.50944" lon="4.59734">
        <ele>270.60546875</ele>
      </trkpt>
      <trkpt lat="44.50947" lon="4.59733">
        <ele>270.5078125</ele>
      </trkpt>
      <trkpt lat="44.5095" lon="4.59733">
        <ele>270.20703125</ele>
      </trkpt>
      <trkpt lat="44.50957" lon="4.59734">
        <ele>269.62890625</ele>
      </trkpt>
      <trkpt lat="44.50963" lon="4.59737">
        <ele>268.65625</ele>
      </trkpt>
      <trkpt lat="44.50972" lon="4.59741">
        <ele>267.1328125</ele>
      </trkpt>
      <trkpt lat="44.5099" lon="4.59746">
        <ele>264.80859375</ele>
      </trkpt>
      <trkpt lat="44.51045" lon="4.59761">
        <ele>259.25</ele>
      </trkpt>
      <trkpt lat="44.51078" lon="4.59771">
        <ele>255.8515625</ele>
      </trkpt>
      <trkpt lat="44.51097" lon="4.59771">
        <ele>255.12890625</ele>
      </trkpt>
      <trkpt lat="44.51117" lon="4.59767">
        <ele>255.5703125</ele>
      </trkpt>
      <trkpt lat="44.51132" lon="4.59754">
        <ele>255.57421875</ele>
      </trkpt>
      <trkpt lat="44.51141" lon="4.59739">
        <ele>256.52734375</ele>
      </trkpt>
      <trkpt lat="44.51148" lon="4.59732">
        <ele>256.234375</ele>
      </trkpt>
      <trkpt lat="44.51152" lon="4.59725">
        <ele>256.44140625</ele>
      </trkpt>
      <trkpt lat="44.51155" lon="4.59718">
        <ele>256.6328125</ele>
      </trkpt>
      <trkpt lat="44.51159" lon="4.59709">
        <ele>255.78125</ele>
      </trkpt>
      <trkpt lat="44.51166" lon="4.59688">
        <ele>254.0546875</ele>
      </trkpt>
      <trkpt lat="44.51168" lon="4.5968">
        <ele>253.609375</ele>
      </trkpt>
      <trkpt lat="44.51171" lon="4.59674">
        <ele>252.65625</ele>
      </trkpt>
      <trkpt lat="44.51175" lon="4.59666">
        <ele>251.76171875</ele>
      </trkpt>
      <trkpt lat="44.51177" lon="4.59658">
        <ele>249.98046875</ele>
      </trkpt>
      <trkpt lat="44.51178" lon="4.59652">
        <ele>248.7734375</ele>
      </trkpt>
      <trkpt lat="44.5118" lon="4.59649">
        <ele>247.859375</ele>
      </trkpt>
      <trkpt lat="44.51178" lon="4.5964">
        <ele>247.26953125</ele>
      </trkpt>
      <trkpt lat="44.51177" lon="4.59635">
        <ele>247.3125</ele>
      </trkpt>
      <trkpt lat="44.51176" lon="4.5963">
        <ele>247.09765625</ele>
      </trkpt>
      <trkpt lat="44.51173" lon="4.59624">
        <ele>247.265625</ele>
      </trkpt>
      <trkpt lat="44.51168" lon="4.59614">
        <ele>247.78125</ele>
      </trkpt>
      <trkpt lat="44.5117" lon="4.59612">
        <ele>246.85546875</ele>
      </trkpt>
      <trkpt lat="44.51173" lon="4.59615">
        <ele>246.10546875</ele>
      </trkpt>
      <trkpt lat="44.51176" lon="4.59617">
        <ele>245.47265625</ele>
      </trkpt>
      <trkpt lat="44.51181" lon="4.59623">
        <ele>244.2734375</ele>
      </trkpt>
      <trkpt lat="44.51186" lon="4.59632">
        <ele>243.40625</ele>
      </trkpt>
      <trkpt lat="44.5119" lon="4.59637">
        <ele>242.4609375</ele>
      </trkpt>
      <trkpt lat="44.51192" lon="4.59642">
        <ele>241.98046875</ele>
      </trkpt>
      <trkpt lat="44.51193" lon="4.59647">
        <ele>241.9921875</ele>
      </trkpt>
      <trkpt lat="44.51193" lon="4.59653">
        <ele>242.30078125</ele>
      </trkpt>
      <trkpt lat="44.51193" lon="4.59661">
        <ele>242.921875</ele>
      </trkpt>
      <trkpt lat="44.51193" lon="4.59669">
        <ele>243.30078125</ele>
      </trkpt>
      <trkpt lat="44.51192" lon="4.59683">
        <ele>243.28125</ele>
      </trkpt>
      <trkpt lat="44.51189" lon="4.59703">
        <ele>243.8203125</ele>
      </trkpt>
      <trkpt lat="44.51185" lon="4.5972">
        <ele>245.23046875</ele>
      </trkpt>
      <trkpt lat="44.51181" lon="4.59736">
        <ele>244.44140625</ele>
      </trkpt>
      <trkpt lat="44.5117" lon="4.59762">
        <ele>243.2734375</ele>
      </trkpt>
      <trkpt lat="44.51172" lon="4.59765">
        <ele>242.08203125</ele>
      </trkpt>
      <trkpt lat="44.51175" lon="4.59764">
        <ele>241.51171875</ele>
      </trkpt>
      <trkpt lat="44.51178" lon="4.5976">
        <ele>241.41796875</ele>
      </trkpt>
      <trkpt lat="44.51184" lon="4.59749">
        <ele>240.75390625</ele>
      </trkpt>
      <trkpt lat="44.5119" lon="4.59738">
        <ele>240.15234375</ele>
      </trkpt>
      <trkpt lat="44.51195" lon="4.59724">
        <ele>239.8125</ele>
      </trkpt>
      <trkpt lat="44.51204" lon="4.597">
        <ele>236.90234375</ele>
      </trkpt>
      <trkpt lat="44.51208" lon="4.59685">
        <ele>235.43359375</ele>
      </trkpt>
      <trkpt lat="44.51216" lon="4.59652">
        <ele>232.3671875</ele>
      </trkpt>
      <trkpt lat="44.51217" lon="4.59645">
        <ele>231.74609375</ele>
      </trkpt>
      <trkpt lat="44.51217" lon="4.5964">
        <ele>231.62890625</ele>
      </trkpt>
      <trkpt lat="44.51217" lon="4.59635">
        <ele>231.515625</ele>
      </trkpt>
      <trkpt lat="44.51217" lon="4.59629">
        <ele>231.58984375</ele>
      </trkpt>
      <trkpt lat="44.51216" lon="4.59624">
        <ele>231.68359375</ele>
      </trkpt>
      <trkpt lat="44.51218" lon="4.59621">
        <ele>230.83984375</ele>
      </trkpt>
      <trkpt lat="44.51222" lon="4.59625">
        <ele>229.5390625</ele>
      </trkpt>
      <trkpt lat="44.51223" lon="4.59629">
        <ele>228.96875</ele>
      </trkpt>
      <trkpt lat="44.51225" lon="4.59633">
        <ele>228.57421875</ele>
      </trkpt>
      <trkpt lat="44.51225" lon="4.59648">
        <ele>228.37890625</ele>
      </trkpt>
      <trkpt lat="44.51225" lon="4.59663">
        <ele>228.390625</ele>
      </trkpt>
      <trkpt lat="44.51225" lon="4.59672">
        <ele>228.12890625</ele>
      </trkpt>
      <trkpt lat="44.51225" lon="4.5968">
        <ele>227.83984375</ele>
      </trkpt>
      <trkpt lat="44.51226" lon="4.59688">
        <ele>227.30078125</ele>
      </trkpt>
      <trkpt lat="44.51228" lon="4.59704">
        <ele>225.4453125</ele>
      </trkpt>
      <trkpt lat="44.51229" lon="4.59709">
        <ele>225.0703125</ele>
      </trkpt>
      <trkpt lat="44.51229" lon="4.59715">
        <ele>224.57421875</ele>
      </trkpt>
      <trkpt lat="44.5123" lon="4.59726">
        <ele>223.57421875</ele>
      </trkpt>
      <trkpt lat="44.5123" lon="4.59733">
        <ele>222.921875</ele>
      </trkpt>
      <trkpt lat="44.51227" lon="4.59751">
        <ele>222.328125</ele>
      </trkpt>
      <trkpt lat="44.51225" lon="4.5976">
        <ele>222.3515625</ele>
      </trkpt>
      <trkpt lat="44.51222" lon="4.59767">
        <ele>222.69140625</ele>
      </trkpt>
      <trkpt lat="44.51218" lon="4.59774">
        <ele>223.52734375</ele>
      </trkpt>
      <trkpt lat="44.51213" lon="4.59784">
        <ele>223.84765625</ele>
      </trkpt>
      <trkpt lat="44.51211" lon="4.59793">
        <ele>223.19140625</ele>
      </trkpt>
      <trkpt lat="44.51205" lon="4.59804">
        <ele>223.2109375</ele>
      </trkpt>
      <trkpt lat="44.51201" lon="4.59813">
        <ele>222.62890625</ele>
      </trkpt>
      <trkpt lat="44.51199" lon="4.59821">
        <ele>221.75</ele>
      </trkpt>
      <trkpt lat="44.51198" lon="4.59829">
        <ele>220.51171875</ele>
      </trkpt>
      <trkpt lat="44.51197" lon="4.5984">
        <ele>218.73828125</ele>
      </trkpt>
      <trkpt lat="44.51194" lon="4.59858">
        <ele>215.56640625</ele>
      </trkpt>
      <trkpt lat="44.51192" lon="4.59867">
        <ele>214.11328125</ele>
      </trkpt>
      <trkpt lat="44.51189" lon="4.59875">
        <ele>212.953125</ele>
      </trkpt>
      <trkpt lat="44.51187" lon="4.5988">
        <ele>212.4609375</ele>
      </trkpt>
      <trkpt lat="44.51184" lon="4.59884">
        <ele>212.16015625</ele>
      </trkpt>
      <trkpt lat="44.51174" lon="4.59894">
        <ele>211.87109375</ele>
      </trkpt>
      <trkpt lat="44.51166" lon="4.59899">
        <ele>212.1015625</ele>
      </trkpt>
      <trkpt lat="44.51159" lon="4.59903">
        <ele>212.3046875</ele>
      </trkpt>
      <trkpt lat="44.51153" lon="4.59906">
        <ele>212.59375</ele>
      </trkpt>
      <trkpt lat="44.51148" lon="4.59907">
        <ele>213.23046875</ele>
      </trkpt>
      <trkpt lat="44.51134" lon="4.5991">
        <ele>214.9140625</ele>
      </trkpt>
      <trkpt lat="44.51142" lon="4.59914">
        <ele>212.7109375</ele>
      </trkpt>
      <trkpt lat="44.51156" lon="4.59919">
        <ele>209.375</ele>
      </trkpt>
      <trkpt lat="44.5117" lon="4.59923">
        <ele>206.3046875</ele>
      </trkpt>
      <trkpt lat="44.51182" lon="4.59923">
        <ele>204.2734375</ele>
      </trkpt>
      <trkpt lat="44.5119" lon="4.59923">
        <ele>202.87890625</ele>
      </trkpt>
      <trkpt lat="44.51199" lon="4.59922">
        <ele>201.6953125</ele>
      </trkpt>
      <trkpt lat="44.51206" lon="4.59919">
        <ele>201.0625</ele>
      </trkpt>
      <trkpt lat="44.51211" lon="4.59916">
        <ele>200.85546875</ele>
      </trkpt>
      <trkpt lat="44.51217" lon="4.5991">
        <ele>200.8984375</ele>
      </trkpt>
      <trkpt lat="44.51223" lon="4.599">
        <ele>201.51171875</ele>
      </trkpt>
      <trkpt lat="44.51228" lon="4.59887">
        <ele>202.6640625</ele>
      </trkpt>
      <trkpt lat="44.51233" lon="4.59875">
        <ele>203.66796875</ele>
      </trkpt>
      <trkpt lat="44.51236" lon="4.59867">
        <ele>204.18359375</ele>
      </trkpt>
      <trkpt lat="44.51237" lon="4.5986">
        <ele>204.8515625</ele>
      </trkpt>
      <trkpt lat="44.5124" lon="4.59856">
        <ele>204.93359375</ele>
      </trkpt>
      <trkpt lat="44.51238" lon="4.59872">
        <ele>203.06640625</ele>
      </trkpt>
      <trkpt lat="44.51225" lon="4.59911">
        <ele>199.35546875</ele>
      </trkpt>
      <trkpt lat="44.51205" lon="4.59929">
        <ele>199.375</ele>
      </trkpt>
      <trkpt lat="44.51198" lon="4.59942">
        <ele>197.9609375</ele>
      </trkpt>
      <trkpt lat="44.51193" lon="4.59963">
        <ele>196.21875</ele>
      </trkpt>
      <trkpt lat="44.51189" lon="4.60012">
        <ele>191.1484375</ele>
      </trkpt>
      <trkpt lat="44.51207" lon="4.60004">
        <ele>189.5859375</ele>
      </trkpt>
      <trkpt lat="44.51239" lon="4.59994">
        <ele>186.4921875</ele>
      </trkpt>
      <trkpt lat="44.51254" lon="4.5997">
        <ele>186.84765625</ele>
      </trkpt>
      <trkpt lat="44.51263" lon="4.59963">
        <ele>186.25</ele>
      </trkpt>
      <trkpt lat="44.51277" lon="4.59944">
        <ele>185.55078125</ele>
      </trkpt>
      <trkpt lat="44.51288" lon="4.59926">
        <ele>185.4140625</ele>
      </trkpt>
      <trkpt lat="44.51299" lon="4.59908">
        <ele>187.0078125</ele>
      </trkpt>
      <trkpt lat="44.51299" lon="4.59903">
        <ele>187.44140625</ele>
      </trkpt>
      <trkpt lat="44.51318" lon="4.59916">
        <ele>186.3828125</ele>
      </trkpt>
      <trkpt lat="44.51327" lon="4.59924">
        <ele>185.890625</ele>
      </trkpt>
      <trkpt lat="44.5134" lon="4.59926">
        <ele>185.8203125</ele>
      </trkpt>
      <trkpt lat="44.51365" lon="4.59926">
        <ele>188.58984375</ele>
      </trkpt>
      <trkpt lat="44.51369" lon="4.59931">
        <ele>188.76171875</ele>
      </trkpt>
      <trkpt lat="44.51358" lon="4.59947">
        <ele>186.60546875</ele>
      </trkpt>
      <trkpt lat="44.51349" lon="4.5997">
        <ele>184.265625</ele>
      </trkpt>
      <trkpt lat="44.5136" lon="4.59976">
        <ele>185.59765625</ele>
      </trkpt>
      <trkpt lat="44.51362" lon="4.59986">
        <ele>185.42578125</ele>
      </trkpt>
      <trkpt lat="44.51365" lon="4.60004">
        <ele>185.375</ele>
      </trkpt>
      <trkpt lat="44.51369" lon="4.60022">
        <ele>187.60000610352</ele>
        <time>2021-05-05T16:18:38Z</time>
      </trkpt>
      <trkpt lat="44.51371" lon="4.60024">
        <ele>187.80000305176</ele>
        <time>2021-05-05T16:18:39Z</time>
      </trkpt>
      <trkpt lat="44.51373" lon="4.60025">
        <ele>188</ele>
        <time>2021-05-05T16:18:40Z</time>
      </trkpt>
      <trkpt lat="44.51374" lon="4.60027">
        <ele>188.19999694824</ele>
        <time>2021-05-05T16:18:41Z</time>
      </trkpt>
      <trkpt lat="44.51376" lon="4.60029">
        <ele>188.60000610352</ele>
        <time>2021-05-05T16:18:42Z</time>
      </trkpt>
      <trkpt lat="44.51378" lon="4.6003">
        <ele>188.60000610352</ele>
        <time>2021-05-05T16:18:43Z</time>
      </trkpt>
      <trkpt lat="44.5138" lon="4.60032">
        <ele>189</ele>
        <time>2021-05-05T16:18:44Z</time>
      </trkpt>
      <trkpt lat="44.51382" lon="4.60034">
        <ele>189</ele>
        <time>2021-05-05T16:18:45Z</time>
      </trkpt>
      <trkpt lat="44.51383" lon="4.60036">
        <ele>189.39999389648</ele>
        <time>2021-05-05T16:18:46Z</time>
      </trkpt>
      <trkpt lat="44.51384" lon="4.60039">
        <ele>189.39999389648</ele>
        <time>2021-05-05T16:18:47Z</time>
      </trkpt>
      <trkpt lat="44.51384" lon="4.6004">
        <ele>189.60000610352</ele>
        <time>2021-05-05T16:18:48Z</time>
      </trkpt>
      <trkpt lat="44.51384" lon="4.60042">
        <ele>190</ele>
        <time>2021-05-05T16:18:49Z</time>
      </trkpt>
      <trkpt lat="44.51385" lon="4.60045">
        <ele>190.39999389648</ele>
        <time>2021-05-05T16:18:50Z</time>
      </trkpt>
      <trkpt lat="44.51385" lon="4.60047">
        <ele>190.60000610352</ele>
        <time>2021-05-05T16:18:51Z</time>
      </trkpt>
      <trkpt lat="44.51386" lon="4.60049">
        <ele>190.60000610352</ele>
        <time>2021-05-05T16:18:52Z</time>
      </trkpt>
      <trkpt lat="44.51386" lon="4.60051">
        <ele>190.60000610352</ele>
        <time>2021-05-05T16:18:53Z</time>
      </trkpt>
      <trkpt lat="44.51387" lon="4.60054">
        <ele>190.60000610352</ele>
        <time>2021-05-05T16:18:54Z</time>
      </trkpt>
      <trkpt lat="44.51388" lon="4.60056">
        <ele>191</ele>
        <time>2021-05-05T16:18:55Z</time>
      </trkpt>
      <trkpt lat="44.51388" lon="4.60058">
        <ele>191.39999389648</ele>
        <time>2021-05-05T16:18:56Z</time>
      </trkpt>
      <trkpt lat="44.51388" lon="4.6006">
        <ele>192</ele>
        <time>2021-05-05T16:18:57Z</time>
      </trkpt>
      <trkpt lat="44.51388" lon="4.60062">
        <ele>192.19999694824</ele>
        <time>2021-05-05T16:18:58Z</time>
      </trkpt>
      <trkpt lat="44.51389" lon="4.60064">
        <ele>192.60000610352</ele>
        <time>2021-05-05T16:18:59Z</time>
      </trkpt>
      <trkpt lat="44.5139" lon="4.60066">
        <ele>193</ele>
        <time>2021-05-05T16:19:00Z</time>
      </trkpt>
      <trkpt lat="44.51391" lon="4.60068">
        <ele>193.19999694824</ele>
        <time>2021-05-05T16:19:01Z</time>
      </trkpt>
      <trkpt lat="44.51392" lon="4.6007">
        <ele>193.19999694824</ele>
        <time>2021-05-05T16:19:02Z</time>
      </trkpt>
      <trkpt lat="44.51393" lon="4.60072">
        <ele>193.39999389648</ele>
        <time>2021-05-05T16:19:03Z</time>
      </trkpt>
      <trkpt lat="44.51394" lon="4.60074">
        <ele>193.39999389648</ele>
        <time>2021-05-05T16:19:04Z</time>
      </trkpt>
      <trkpt lat="44.51394" lon="4.60076">
        <ele>193.39999389648</ele>
        <time>2021-05-05T16:19:05Z</time>
      </trkpt>
      <trkpt lat="44.51394" lon="4.60078">
        <ele>193.60000610352</ele>
        <time>2021-05-05T16:19:06Z</time>
      </trkpt>
      <trkpt lat="44.51394" lon="4.6008">
        <ele>193.60000610352</ele>
        <time>2021-05-05T16:19:07Z</time>
      </trkpt>
      <trkpt lat="44.51394" lon="4.60081">
        <ele>193.60000610352</ele>
        <time>2021-05-05T16:19:08Z</time>
      </trkpt>
      <trkpt lat="44.51393" lon="4.60083">
        <ele>193.80000305176</ele>
        <time>2021-05-05T16:19:09Z</time>
      </trkpt>
      <trkpt lat="44.51393" lon="4.60086">
        <ele>193.80000305176</ele>
        <time>2021-05-05T16:19:10Z</time>
      </trkpt>
      <trkpt lat="44.51393" lon="4.60089">
        <ele>194</ele>
        <time>2021-05-05T16:19:11Z</time>
      </trkpt>
      <trkpt lat="44.51393" lon="4.60092">
        <ele>194</ele>
        <time>2021-05-05T16:19:12Z</time>
      </trkpt>
      <trkpt lat="44.51393" lon="4.60095">
        <ele>194.60000610352</ele>
        <time>2021-05-05T16:19:13Z</time>
      </trkpt>
      <trkpt lat="44.51392" lon="4.60098">
        <ele>194.80000305176</ele>
        <time>2021-05-05T16:19:14Z</time>
      </trkpt>
      <trkpt lat="44.51391" lon="4.60101">
        <ele>194.80000305176</ele>
        <time>2021-05-05T16:19:15Z</time>
      </trkpt>
      <trkpt lat="44.51391" lon="4.60103">
        <ele>195.19999694824</ele>
        <time>2021-05-05T16:19:16Z</time>
      </trkpt>
      <trkpt lat="44.51391" lon="4.60107">
        <ele>195.19999694824</ele>
        <time>2021-05-05T16:19:17Z</time>
      </trkpt>
      <trkpt lat="44.51391" lon="4.6011">
        <ele>195.39999389648</ele>
        <time>2021-05-05T16:19:18Z</time>
      </trkpt>
      <trkpt lat="44.51392" lon="4.60113">
        <ele>195.39999389648</ele>
        <time>2021-05-05T16:19:19Z</time>
      </trkpt>
      <trkpt lat="44.51392" lon="4.60116">
        <ele>195.60000610352</ele>
        <time>2021-05-05T16:19:20Z</time>
      </trkpt>
      <trkpt lat="44.51393" lon="4.60119">
        <ele>195.60000610352</ele>
        <time>2021-05-05T16:19:21Z</time>
      </trkpt>
      <trkpt lat="44.51392" lon="4.60121">
        <ele>195.39999389648</ele>
        <time>2021-05-05T16:19:22Z</time>
      </trkpt>
      <trkpt lat="44.51392" lon="4.60125">
        <ele>195.60000610352</ele>
        <time>2021-05-05T16:19:23Z</time>
      </trkpt>
      <trkpt lat="44.51392" lon="4.60128">
        <ele>195.60000610352</ele>
        <time>2021-05-05T16:19:24Z</time>
      </trkpt>
      <trkpt lat="44.51392" lon="4.60132">
        <ele>195.80000305176</ele>
        <time>2021-05-05T16:19:25Z</time>
      </trkpt>
      <trkpt lat="44.51393" lon="4.60135">
        <ele>195.80000305176</ele>
        <time>2021-05-05T16:19:26Z</time>
      </trkpt>
      <trkpt lat="44.51394" lon="4.60137">
        <ele>195.60000610352</ele>
        <time>2021-05-05T16:19:27Z</time>
      </trkpt>
      <trkpt lat="44.51394" lon="4.6014">
        <ele>195.80000305176</ele>
        <time>2021-05-05T16:19:28Z</time>
      </trkpt>
      <trkpt lat="44.51393" lon="4.60142">
        <ele>195.80000305176</ele>
        <time>2021-05-05T16:19:29Z</time>
      </trkpt>
      <trkpt lat="44.51393" lon="4.60145">
        <ele>196</ele>
        <time>2021-05-05T16:19:30Z</time>
      </trkpt>
      <trkpt lat="44.51392" lon="4.60149">
        <ele>196</ele>
        <time>2021-05-05T16:19:31Z</time>
      </trkpt>
      <trkpt lat="44.51392" lon="4.60152">
        <ele>196.19999694824</ele>
        <time>2021-05-05T16:19:32Z</time>
      </trkpt>
      <trkpt lat="44.51392" lon="4.60155">
        <ele>196.19999694824</ele>
        <time>2021-05-05T16:19:33Z</time>
      </trkpt>
      <trkpt lat="44.51392" lon="4.60158">
        <ele>196.39999389648</ele>
        <time>2021-05-05T16:19:34Z</time>
      </trkpt>
      <trkpt lat="44.51392" lon="4.60162">
        <ele>196.60000610352</ele>
        <time>2021-05-05T16:19:35Z</time>
      </trkpt>
      <trkpt lat="44.51392" lon="4.60165">
        <ele>196.80000305176</ele>
        <time>2021-05-05T16:19:36Z</time>
      </trkpt>
      <trkpt lat="44.51392" lon="4.60168">
        <ele>196.80000305176</ele>
        <time>2021-05-05T16:19:37Z</time>
      </trkpt>
      <trkpt lat="44.51392" lon="4.60171">
        <ele>196.80000305176</ele>
        <time>2021-05-05T16:19:38Z</time>
      </trkpt>
      <trkpt lat="44.51393" lon="4.60174">
        <ele>196.80000305176</ele>
        <time>2021-05-05T16:19:39Z</time>
      </trkpt>
      <trkpt lat="44.51393" lon="4.60176">
        <ele>196.80000305176</ele>
        <time>2021-05-05T16:19:40Z</time>
      </trkpt>
      <trkpt lat="44.51396" lon="4.60191">
        <ele>197</ele>
        <time>2021-05-05T16:19:45Z</time>
      </trkpt>
      <trkpt lat="44.51399" lon="4.602">
        <ele>197</ele>
        <time>2021-05-05T16:19:48Z</time>
      </trkpt>
      <trkpt lat="44.51402" lon="4.6021">
        <ele>197.39999389648</ele>
        <time>2021-05-05T16:19:51Z</time>
      </trkpt>
      <trkpt lat="44.51402" lon="4.60214">
        <ele>197.60000610352</ele>
        <time>2021-05-05T16:19:52Z</time>
      </trkpt>
      <trkpt lat="44.51402" lon="4.60222">
        <ele>197.39999389648</ele>
        <time>2021-05-05T16:19:54Z</time>
      </trkpt>
      <trkpt lat="44.51403" lon="4.60225">
        <ele>197.60000610352</ele>
        <time>2021-05-05T16:19:55Z</time>
      </trkpt>
      <trkpt lat="44.51404" lon="4.60228">
        <ele>197.60000610352</ele>
        <time>2021-05-05T16:19:56Z</time>
      </trkpt>
      <trkpt lat="44.51406" lon="4.60233">
        <ele>197.60000610352</ele>
        <time>2021-05-05T16:19:58Z</time>
      </trkpt>
      <trkpt lat="44.51407" lon="4.60235">
        <ele>197.80000305176</ele>
        <time>2021-05-05T16:19:59Z</time>
      </trkpt>
      <trkpt lat="44.51407" lon="4.60236">
        <ele>198</ele>
        <time>2021-05-05T16:20:00Z</time>
      </trkpt>
      <trkpt lat="44.51407" lon="4.60236">
        <ele>198.19999694824</ele>
        <time>2021-05-05T16:20:03Z</time>
      </trkpt>
      <trkpt lat="44.51408" lon="4.60236">
        <ele>198.19999694824</ele>
        <time>2021-05-05T16:20:05Z</time>
      </trkpt>
      <trkpt lat="44.51408" lon="4.60237">
        <ele>198.80000305176</ele>
        <time>2021-05-05T16:20:10Z</time>
      </trkpt>
      <trkpt lat="44.51409" lon="4.60238">
        <ele>198.80000305176</ele>
        <time>2021-05-05T16:20:16Z</time>
      </trkpt>
      <trkpt lat="44.5141" lon="4.6024">
        <ele>199</ele>
        <time>2021-05-05T16:20:19Z</time>
      </trkpt>
      <trkpt lat="44.5141" lon="4.6024">
        <ele>198.80000305176</ele>
        <time>2021-05-05T16:20:20Z</time>
      </trkpt>
      <trkpt lat="44.5141" lon="4.60241">
        <ele>198.80000305176</ele>
        <time>2021-05-05T16:20:23Z</time>
      </trkpt>
      <trkpt lat="44.51411" lon="4.60245">
        <ele>199</ele>
        <time>2021-05-05T16:20:32Z</time>
      </trkpt>
      <trkpt lat="44.51412" lon="4.60248">
        <ele>199</ele>
        <time>2021-05-05T16:20:33Z</time>
      </trkpt>
      <trkpt lat="44.51416" lon="4.6026">
        <ele>199</ele>
        <time>2021-05-05T16:20:37Z</time>
      </trkpt>
      <trkpt lat="44.51418" lon="4.60263">
        <ele>199</ele>
        <time>2021-05-05T16:20:38Z</time>
      </trkpt>
      <trkpt lat="44.51422" lon="4.60268">
        <ele>199.19999694824</ele>
        <time>2021-05-05T16:20:40Z</time>
      </trkpt>
      <trkpt lat="44.51422" lon="4.6027">
        <ele>199.19999694824</ele>
        <time>2021-05-05T16:20:41Z</time>
      </trkpt>
      <trkpt lat="44.51422" lon="4.60273">
        <ele>199</ele>
        <time>2021-05-05T16:20:42Z</time>
      </trkpt>
      <trkpt lat="44.51422" lon="4.60276">
        <ele>199</ele>
        <time>2021-05-05T16:20:43Z</time>
      </trkpt>
      <trkpt lat="44.51422" lon="4.60279">
        <ele>199</ele>
        <time>2021-05-05T16:20:44Z</time>
      </trkpt>
      <trkpt lat="44.51422" lon="4.60281">
        <ele>199.19999694824</ele>
        <time>2021-05-05T16:20:45Z</time>
      </trkpt>
      <trkpt lat="44.51422" lon="4.60283">
        <ele>199.19999694824</ele>
        <time>2021-05-05T16:20:46Z</time>
      </trkpt>
      <trkpt lat="44.51421" lon="4.60285">
        <ele>199.19999694824</ele>
        <time>2021-05-05T16:20:47Z</time>
      </trkpt>
      <trkpt lat="44.51421" lon="4.60287">
        <ele>199.19999694824</ele>
        <time>2021-05-05T16:20:48Z</time>
      </trkpt>
      <trkpt lat="44.51421" lon="4.60288">
        <ele>199.19999694824</ele>
        <time>2021-05-05T16:20:49Z</time>
      </trkpt>
      <trkpt lat="44.5142" lon="4.60292">
        <ele>199.19999694824</ele>
        <time>2021-05-05T16:20:51Z</time>
      </trkpt>
      <trkpt lat="44.5142" lon="4.60294">
        <ele>199.19999694824</ele>
        <time>2021-05-05T16:20:52Z</time>
      </trkpt>
      <trkpt lat="44.5142" lon="4.60295">
        <ele>199.19999694824</ele>
        <time>2021-05-05T16:20:53Z</time>
      </trkpt>
      <trkpt lat="44.51421" lon="4.60296">
        <ele>199.19999694824</ele>
        <time>2021-05-05T16:20:54Z</time>
      </trkpt>
      <trkpt lat="44.51427" lon="4.60298">
        <ele>198.80000305176</ele>
        <time>2021-05-05T16:20:57Z</time>
      </trkpt>
      <trkpt lat="44.5143" lon="4.60299">
        <ele>198.60000610352</ele>
        <time>2021-05-05T16:20:58Z</time>
      </trkpt>
      <trkpt lat="44.51443" lon="4.60306">
        <ele>197</ele>
        <time>2021-05-05T16:21:03Z</time>
      </trkpt>
      <trkpt lat="44.51446" lon="4.60307">
        <ele>196.80000305176</ele>
        <time>2021-05-05T16:21:04Z</time>
      </trkpt>
      <trkpt lat="44.51458" lon="4.60313">
        <ele>196.80000305176</ele>
        <time>2021-05-05T16:21:08Z</time>
      </trkpt>
      <trkpt lat="44.51461" lon="4.60315">
        <ele>196.80000305176</ele>
        <time>2021-05-05T16:21:09Z</time>
      </trkpt>
      <trkpt lat="44.51463" lon="4.60317">
        <ele>196.80000305176</ele>
        <time>2021-05-05T16:21:10Z</time>
      </trkpt>
      <trkpt lat="44.51466" lon="4.60319">
        <ele>197</ele>
        <time>2021-05-05T16:21:11Z</time>
      </trkpt>
      <trkpt lat="44.51468" lon="4.60322">
        <ele>197</ele>
        <time>2021-05-05T16:21:12Z</time>
      </trkpt>
      <trkpt lat="44.5147" lon="4.60324">
        <ele>196.80000305176</ele>
        <time>2021-05-05T16:21:13Z</time>
      </trkpt>
      <trkpt lat="44.51472" lon="4.60325">
        <ele>197.19999694824</ele>
        <time>2021-05-05T16:21:14Z</time>
      </trkpt>
      <trkpt lat="44.51473" lon="4.60327">
        <ele>197.39999389648</ele>
        <time>2021-05-05T16:21:15Z</time>
      </trkpt>
      <trkpt lat="44.51475" lon="4.60328">
        <ele>197.39999389648</ele>
        <time>2021-05-05T16:21:16Z</time>
      </trkpt>
      <trkpt lat="44.51479" lon="4.60331">
        <ele>197.80000305176</ele>
        <time>2021-05-05T16:21:18Z</time>
      </trkpt>
      <trkpt lat="44.51481" lon="4.60332">
        <ele>198</ele>
        <time>2021-05-05T16:21:19Z</time>
      </trkpt>
      <trkpt lat="44.51483" lon="4.60333">
        <ele>198</ele>
        <time>2021-05-05T16:21:20Z</time>
      </trkpt>
      <trkpt lat="44.51485" lon="4.60334">
        <ele>198.19999694824</ele>
        <time>2021-05-05T16:21:21Z</time>
      </trkpt>
      <trkpt lat="44.51487" lon="4.60335">
        <ele>198.60000610352</ele>
        <time>2021-05-05T16:21:22Z</time>
      </trkpt>
      <trkpt lat="44.51489" lon="4.60336">
        <ele>198.60000610352</ele>
        <time>2021-05-05T16:21:23Z</time>
      </trkpt>
      <trkpt lat="44.51491" lon="4.60337">
        <ele>198.60000610352</ele>
        <time>2021-05-05T16:21:24Z</time>
      </trkpt>
      <trkpt lat="44.51492" lon="4.60338">
        <ele>199</ele>
        <time>2021-05-05T16:21:25Z</time>
      </trkpt>
      <trkpt lat="44.51494" lon="4.60339">
        <ele>199.19999694824</ele>
        <time>2021-05-05T16:21:26Z</time>
      </trkpt>
      <trkpt lat="44.51496" lon="4.6034">
        <ele>199.39999389648</ele>
        <time>2021-05-05T16:21:27Z</time>
      </trkpt>
      <trkpt lat="44.51497" lon="4.60341">
        <ele>199.60000610352</ele>
        <time>2021-05-05T16:21:28Z</time>
      </trkpt>
      <trkpt lat="44.51499" lon="4.60341">
        <ele>200</ele>
        <time>2021-05-05T16:21:29Z</time>
      </trkpt>
      <trkpt lat="44.51501" lon="4.60342">
        <ele>200.19999694824</ele>
        <time>2021-05-05T16:21:30Z</time>
      </trkpt>
      <trkpt lat="44.51502" lon="4.60342">
        <ele>200.39999389648</ele>
        <time>2021-05-05T16:21:31Z</time>
      </trkpt>
      <trkpt lat="44.51504" lon="4.60343">
        <ele>201</ele>
        <time>2021-05-05T16:21:32Z</time>
      </trkpt>
      <trkpt lat="44.51505" lon="4.60343">
        <ele>201.60000610352</ele>
        <time>2021-05-05T16:21:33Z</time>
      </trkpt>
      <trkpt lat="44.51507" lon="4.60344">
        <ele>202</ele>
        <time>2021-05-05T16:21:34Z</time>
      </trkpt>
      <trkpt lat="44.51509" lon="4.60344">
        <ele>202</ele>
        <time>2021-05-05T16:21:35Z</time>
      </trkpt>
      <trkpt lat="44.51511" lon="4.60345">
        <ele>202.39999389648</ele>
        <time>2021-05-05T16:21:36Z</time>
      </trkpt>
      <trkpt lat="44.51512" lon="4.60346">
        <ele>202.60000610352</ele>
        <time>2021-05-05T16:21:37Z</time>
      </trkpt>
      <trkpt lat="44.51514" lon="4.60347">
        <ele>203</ele>
        <time>2021-05-05T16:21:38Z</time>
      </trkpt>
      <trkpt lat="44.51516" lon="4.60348">
        <ele>203.60000610352</ele>
        <time>2021-05-05T16:21:39Z</time>
      </trkpt>
      <trkpt lat="44.51517" lon="4.60349">
        <ele>204</ele>
        <time>2021-05-05T16:21:40Z</time>
      </trkpt>
      <trkpt lat="44.51519" lon="4.6035">
        <ele>204.19999694824</ele>
        <time>2021-05-05T16:21:41Z</time>
      </trkpt>
      <trkpt lat="44.5152" lon="4.60352">
        <ele>204.60000610352</ele>
        <time>2021-05-05T16:21:42Z</time>
      </trkpt>
      <trkpt lat="44.51521" lon="4.60354">
        <ele>204.80000305176</ele>
        <time>2021-05-05T16:21:43Z</time>
      </trkpt>
      <trkpt lat="44.51522" lon="4.60356">
        <ele>205</ele>
        <time>2021-05-05T16:21:44Z</time>
      </trkpt>
      <trkpt lat="44.51523" lon="4.60359">
        <ele>205.39999389648</ele>
        <time>2021-05-05T16:21:45Z</time>
      </trkpt>
      <trkpt lat="44.51524" lon="4.60361">
        <ele>205.60000610352</ele>
        <time>2021-05-05T16:21:46Z</time>
      </trkpt>
      <trkpt lat="44.51525" lon="4.60364">
        <ele>205.80000305176</ele>
        <time>2021-05-05T16:21:47Z</time>
      </trkpt>
      <trkpt lat="44.51526" lon="4.60368">
        <ele>206</ele>
        <time>2021-05-05T16:21:48Z</time>
      </trkpt>
      <trkpt lat="44.51526" lon="4.60371">
        <ele>206.19999694824</ele>
        <time>2021-05-05T16:21:49Z</time>
      </trkpt>
      <trkpt lat="44.51527" lon="4.60375">
        <ele>206.39999389648</ele>
        <time>2021-05-05T16:21:50Z</time>
      </trkpt>
      <trkpt lat="44.51529" lon="4.60378">
        <ele>206.39999389648</ele>
        <time>2021-05-05T16:21:51Z</time>
      </trkpt>
      <trkpt lat="44.5153" lon="4.60382">
        <ele>206.39999389648</ele>
        <time>2021-05-05T16:21:52Z</time>
      </trkpt>
      <trkpt lat="44.51532" lon="4.60385">
        <ele>206.60000610352</ele>
        <time>2021-05-05T16:21:53Z</time>
      </trkpt>
      <trkpt lat="44.51535" lon="4.60388">
        <ele>206.39999389648</ele>
        <time>2021-05-05T16:21:54Z</time>
      </trkpt>
      <trkpt lat="44.51537" lon="4.60391">
        <ele>206.80000305176</ele>
        <time>2021-05-05T16:21:55Z</time>
      </trkpt>
      <trkpt lat="44.51539" lon="4.60393">
        <ele>206.80000305176</ele>
        <time>2021-05-05T16:21:56Z</time>
      </trkpt>
      <trkpt lat="44.51541" lon="4.60396">
        <ele>206.80000305176</ele>
        <time>2021-05-05T16:21:57Z</time>
      </trkpt>
      <trkpt lat="44.51542" lon="4.60398">
        <ele>206.80000305176</ele>
        <time>2021-05-05T16:21:58Z</time>
      </trkpt>
      <trkpt lat="44.51544" lon="4.604">
        <ele>206.80000305176</ele>
        <time>2021-05-05T16:21:59Z</time>
      </trkpt>
      <trkpt lat="44.51545" lon="4.60402">
        <ele>207</ele>
        <time>2021-05-05T16:22:00Z</time>
      </trkpt>
      <trkpt lat="44.51546" lon="4.60404">
        <ele>206.80000305176</ele>
        <time>2021-05-05T16:22:01Z</time>
      </trkpt>
      <trkpt lat="44.51548" lon="4.60406">
        <ele>206.80000305176</ele>
        <time>2021-05-05T16:22:02Z</time>
      </trkpt>
      <trkpt lat="44.5155" lon="4.60408">
        <ele>206.80000305176</ele>
        <time>2021-05-05T16:22:03Z</time>
      </trkpt>
      <trkpt lat="44.51551" lon="4.6041">
        <ele>207.39999389648</ele>
        <time>2021-05-05T16:22:04Z</time>
      </trkpt>
      <trkpt lat="44.51553" lon="4.60412">
        <ele>207.39999389648</ele>
        <time>2021-05-05T16:22:05Z</time>
      </trkpt>
      <trkpt lat="44.51554" lon="4.60414">
        <ele>208</ele>
        <time>2021-05-05T16:22:06Z</time>
      </trkpt>
      <trkpt lat="44.51556" lon="4.60416">
        <ele>208</ele>
        <time>2021-05-05T16:22:07Z</time>
      </trkpt>
      <trkpt lat="44.51558" lon="4.60417">
        <ele>208.19999694824</ele>
        <time>2021-05-05T16:22:08Z</time>
      </trkpt>
      <trkpt lat="44.51559" lon="4.60419">
        <ele>208.19999694824</ele>
        <time>2021-05-05T16:22:09Z</time>
      </trkpt>
      <trkpt lat="44.51561" lon="4.60421">
        <ele>208.39999389648</ele>
        <time>2021-05-05T16:22:10Z</time>
      </trkpt>
      <trkpt lat="44.51563" lon="4.60423">
        <ele>208.39999389648</ele>
        <time>2021-05-05T16:22:11Z</time>
      </trkpt>
      <trkpt lat="44.51565" lon="4.60425">
        <ele>209</ele>
        <time>2021-05-05T16:22:12Z</time>
      </trkpt>
      <trkpt lat="44.51568" lon="4.60427">
        <ele>209</ele>
        <time>2021-05-05T16:22:13Z</time>
      </trkpt>
      <trkpt lat="44.5157" lon="4.60429">
        <ele>209.19999694824</ele>
        <time>2021-05-05T16:22:14Z</time>
      </trkpt>
      <trkpt lat="44.51572" lon="4.60431">
        <ele>209.19999694824</ele>
        <time>2021-05-05T16:22:15Z</time>
      </trkpt>
      <trkpt lat="44.51574" lon="4.60433">
        <ele>209.19999694824</ele>
        <time>2021-05-05T16:22:16Z</time>
      </trkpt>
      <trkpt lat="44.51576" lon="4.60435">
        <ele>209.19999694824</ele>
        <time>2021-05-05T16:22:17Z</time>
      </trkpt>
      <trkpt lat="44.51578" lon="4.60437">
        <ele>209.39999389648</ele>
        <time>2021-05-05T16:22:18Z</time>
      </trkpt>
      <trkpt lat="44.51579" lon="4.60439">
        <ele>209.39999389648</ele>
        <time>2021-05-05T16:22:19Z</time>
      </trkpt>
      <trkpt lat="44.51581" lon="4.60441">
        <ele>209.60000610352</ele>
        <time>2021-05-05T16:22:20Z</time>
      </trkpt>
      <trkpt lat="44.51583" lon="4.60443">
        <ele>209.60000610352</ele>
        <time>2021-05-05T16:22:21Z</time>
      </trkpt>
      <trkpt lat="44.51585" lon="4.60444">
        <ele>209.60000610352</ele>
        <time>2021-05-05T16:22:22Z</time>
      </trkpt>
      <trkpt lat="44.51588" lon="4.60446">
        <ele>209.80000305176</ele>
        <time>2021-05-05T16:22:23Z</time>
      </trkpt>
      <trkpt lat="44.5159" lon="4.60447">
        <ele>210</ele>
        <time>2021-05-05T16:22:24Z</time>
      </trkpt>
      <trkpt lat="44.51592" lon="4.60448">
        <ele>210.39999389648</ele>
        <time>2021-05-05T16:22:25Z</time>
      </trkpt>
      <trkpt lat="44.51594" lon="4.60449">
        <ele>210.60000610352</ele>
        <time>2021-05-05T16:22:26Z</time>
      </trkpt>
      <trkpt lat="44.51597" lon="4.6045">
        <ele>210.60000610352</ele>
        <time>2021-05-05T16:22:27Z</time>
      </trkpt>
      <trkpt lat="44.51599" lon="4.60449">
        <ele>210.80000305176</ele>
        <time>2021-05-05T16:22:28Z</time>
      </trkpt>
      <trkpt lat="44.51601" lon="4.60448">
        <ele>210.80000305176</ele>
        <time>2021-05-05T16:22:29Z</time>
      </trkpt>
      <trkpt lat="44.51603" lon="4.60446">
        <ele>211</ele>
        <time>2021-05-05T16:22:30Z</time>
      </trkpt>
      <trkpt lat="44.51604" lon="4.60443">
        <ele>211</ele>
        <time>2021-05-05T16:22:31Z</time>
      </trkpt>
      <trkpt lat="44.51604" lon="4.6044">
        <ele>211.39999389648</ele>
        <time>2021-05-05T16:22:32Z</time>
      </trkpt>
      <trkpt lat="44.51603" lon="4.60436">
        <ele>211.39999389648</ele>
        <time>2021-05-05T16:22:33Z</time>
      </trkpt>
      <trkpt lat="44.51602" lon="4.60433">
        <ele>211.60000610352</ele>
        <time>2021-05-05T16:22:34Z</time>
      </trkpt>
      <trkpt lat="44.51601" lon="4.6043">
        <ele>211.60000610352</ele>
        <time>2021-05-05T16:22:35Z</time>
      </trkpt>
      <trkpt lat="44.516" lon="4.60427">
        <ele>211.80000305176</ele>
        <time>2021-05-05T16:22:36Z</time>
      </trkpt>
      <trkpt lat="44.51599" lon="4.60423">
        <ele>211.80000305176</ele>
        <time>2021-05-05T16:22:37Z</time>
      </trkpt>
      <trkpt lat="44.51598" lon="4.6042">
        <ele>211.80000305176</ele>
        <time>2021-05-05T16:22:38Z</time>
      </trkpt>
      <trkpt lat="44.51597" lon="4.60417">
        <ele>212.19999694824</ele>
        <time>2021-05-05T16:22:39Z</time>
      </trkpt>
      <trkpt lat="44.51596" lon="4.60413">
        <ele>212.39999389648</ele>
        <time>2021-05-05T16:22:40Z</time>
      </trkpt>
      <trkpt lat="44.51595" lon="4.60409">
        <ele>212.60000610352</ele>
        <time>2021-05-05T16:22:41Z</time>
      </trkpt>
      <trkpt lat="44.51594" lon="4.60406">
        <ele>212.80000305176</ele>
        <time>2021-05-05T16:22:42Z</time>
      </trkpt>
      <trkpt lat="44.51593" lon="4.60403">
        <ele>213</ele>
        <time>2021-05-05T16:22:43Z</time>
      </trkpt>
      <trkpt lat="44.51593" lon="4.604">
        <ele>213</ele>
        <time>2021-05-05T16:22:44Z</time>
      </trkpt>
      <trkpt lat="44.51592" lon="4.60397">
        <ele>213.39999389648</ele>
        <time>2021-05-05T16:22:45Z</time>
      </trkpt>
      <trkpt lat="44.51591" lon="4.60394">
        <ele>213.39999389648</ele>
        <time>2021-05-05T16:22:46Z</time>
      </trkpt>
      <trkpt lat="44.51591" lon="4.60391">
        <ele>213.39999389648</ele>
        <time>2021-05-05T16:22:47Z</time>
      </trkpt>
      <trkpt lat="44.5159" lon="4.60388">
        <ele>213.60000610352</ele>
        <time>2021-05-05T16:22:48Z</time>
      </trkpt>
      <trkpt lat="44.5159" lon="4.60385">
        <ele>213.80000305176</ele>
        <time>2021-05-05T16:22:49Z</time>
      </trkpt>
      <trkpt lat="44.51589" lon="4.60382">
        <ele>213.60000610352</ele>
        <time>2021-05-05T16:22:50Z</time>
      </trkpt>
      <trkpt lat="44.51589" lon="4.60379">
        <ele>213.80000305176</ele>
        <time>2021-05-05T16:22:51Z</time>
      </trkpt>
      <trkpt lat="44.51589" lon="4.60376">
        <ele>214</ele>
        <time>2021-05-05T16:22:52Z</time>
      </trkpt>
      <trkpt lat="44.51588" lon="4.60373">
        <ele>214.39999389648</ele>
        <time>2021-05-05T16:22:53Z</time>
      </trkpt>
      <trkpt lat="44.51588" lon="4.6037">
        <ele>214.39999389648</ele>
        <time>2021-05-05T16:22:54Z</time>
      </trkpt>
      <trkpt lat="44.51587" lon="4.60367">
        <ele>214.60000610352</ele>
        <time>2021-05-05T16:22:55Z</time>
      </trkpt>
      <trkpt lat="44.51587" lon="4.60365">
        <ele>214.80000305176</ele>
        <time>2021-05-05T16:22:56Z</time>
      </trkpt>
      <trkpt lat="44.51586" lon="4.60362">
        <ele>215</ele>
        <time>2021-05-05T16:22:57Z</time>
      </trkpt>
      <trkpt lat="44.51585" lon="4.6036">
        <ele>215.19999694824</ele>
        <time>2021-05-05T16:22:58Z</time>
      </trkpt>
      <trkpt lat="44.51585" lon="4.60358">
        <ele>215.60000610352</ele>
        <time>2021-05-05T16:22:59Z</time>
      </trkpt>
      <trkpt lat="44.51584" lon="4.60355">
        <ele>215.60000610352</ele>
        <time>2021-05-05T16:23:00Z</time>
      </trkpt>
      <trkpt lat="44.51583" lon="4.60353">
        <ele>215.80000305176</ele>
        <time>2021-05-05T16:23:01Z</time>
      </trkpt>
      <trkpt lat="44.51582" lon="4.6035">
        <ele>216</ele>
        <time>2021-05-05T16:23:02Z</time>
      </trkpt>
      <trkpt lat="44.51581" lon="4.60348">
        <ele>216.39999389648</ele>
        <time>2021-05-05T16:23:03Z</time>
      </trkpt>
      <trkpt lat="44.5158" lon="4.60346">
        <ele>217</ele>
        <time>2021-05-05T16:23:04Z</time>
      </trkpt>
      <trkpt lat="44.51579" lon="4.60344">
        <ele>217.39999389648</ele>
        <time>2021-05-05T16:23:05Z</time>
      </trkpt>
      <trkpt lat="44.51578" lon="4.60342">
        <ele>217.80000305176</ele>
        <time>2021-05-05T16:23:06Z</time>
      </trkpt>
      <trkpt lat="44.51576" lon="4.6034">
        <ele>217.80000305176</ele>
        <time>2021-05-05T16:23:07Z</time>
      </trkpt>
      <trkpt lat="44.51574" lon="4.60338">
        <ele>218</ele>
        <time>2021-05-05T16:23:08Z</time>
      </trkpt>
      <trkpt lat="44.51573" lon="4.60337">
        <ele>218.19999694824</ele>
        <time>2021-05-05T16:23:09Z</time>
      </trkpt>
      <trkpt lat="44.51571" lon="4.60334">
        <ele>218.60000610352</ele>
        <time>2021-05-05T16:23:10Z</time>
      </trkpt>
      <trkpt lat="44.5157" lon="4.60332">
        <ele>219.19999694824</ele>
        <time>2021-05-05T16:23:11Z</time>
      </trkpt>
      <trkpt lat="44.51569" lon="4.6033">
        <ele>219.60000610352</ele>
        <time>2021-05-05T16:23:12Z</time>
      </trkpt>
      <trkpt lat="44.51568" lon="4.60328">
        <ele>219.80000305176</ele>
        <time>2021-05-05T16:23:13Z</time>
      </trkpt>
      <trkpt lat="44.51567" lon="4.60326">
        <ele>220</ele>
        <time>2021-05-05T16:23:14Z</time>
      </trkpt>
      <trkpt lat="44.51566" lon="4.60323">
        <ele>220.39999389648</ele>
        <time>2021-05-05T16:23:15Z</time>
      </trkpt>
      <trkpt lat="44.51567" lon="4.6032">
        <ele>220.39999389648</ele>
        <time>2021-05-05T16:23:16Z</time>
      </trkpt>
      <trkpt lat="44.51567" lon="4.60319">
        <ele>220.60000610352</ele>
        <time>2021-05-05T16:23:17Z</time>
      </trkpt>
      <trkpt lat="44.51569" lon="4.60317">
        <ele>221</ele>
        <time>2021-05-05T16:23:18Z</time>
      </trkpt>
      <trkpt lat="44.5157" lon="4.60317">
        <ele>221</ele>
        <time>2021-05-05T16:23:19Z</time>
      </trkpt>
      <trkpt lat="44.51572" lon="4.60316">
        <ele>221.19999694824</ele>
        <time>2021-05-05T16:23:20Z</time>
      </trkpt>
      <trkpt lat="44.51574" lon="4.60315">
        <ele>221.39999389648</ele>
        <time>2021-05-05T16:23:21Z</time>
      </trkpt>
      <trkpt lat="44.51575" lon="4.60315">
        <ele>221.60000610352</ele>
        <time>2021-05-05T16:23:22Z</time>
      </trkpt>
      <trkpt lat="44.51577" lon="4.60314">
        <ele>221.80000305176</ele>
        <time>2021-05-05T16:23:23Z</time>
      </trkpt>
      <trkpt lat="44.51579" lon="4.60314">
        <ele>222</ele>
        <time>2021-05-05T16:23:24Z</time>
      </trkpt>
      <trkpt lat="44.51581" lon="4.60313">
        <ele>222.39999389648</ele>
        <time>2021-05-05T16:23:25Z</time>
      </trkpt>
      <trkpt lat="44.51582" lon="4.60311">
        <ele>222.60000610352</ele>
        <time>2021-05-05T16:23:26Z</time>
      </trkpt>
      <trkpt lat="44.51584" lon="4.6031">
        <ele>222.80000305176</ele>
        <time>2021-05-05T16:23:27Z</time>
      </trkpt>
      <trkpt lat="44.51585" lon="4.60309">
        <ele>223.19999694824</ele>
        <time>2021-05-05T16:23:28Z</time>
      </trkpt>
      <trkpt lat="44.51586" lon="4.60307">
        <ele>223.39999389648</ele>
        <time>2021-05-05T16:23:29Z</time>
      </trkpt>
      <trkpt lat="44.51587" lon="4.60306">
        <ele>223.39999389648</ele>
        <time>2021-05-05T16:23:30Z</time>
      </trkpt>
      <trkpt lat="44.51589" lon="4.60304">
        <ele>223.80000305176</ele>
        <time>2021-05-05T16:23:31Z</time>
      </trkpt>
      <trkpt lat="44.5159" lon="4.60302">
        <ele>224</ele>
        <time>2021-05-05T16:23:32Z</time>
      </trkpt>
      <trkpt lat="44.51591" lon="4.60301">
        <ele>224.19999694824</ele>
        <time>2021-05-05T16:23:33Z</time>
      </trkpt>
      <trkpt lat="44.51592" lon="4.60299">
        <ele>224.60000610352</ele>
        <time>2021-05-05T16:23:34Z</time>
      </trkpt>
      <trkpt lat="44.51594" lon="4.60298">
        <ele>224.80000305176</ele>
        <time>2021-05-05T16:23:35Z</time>
      </trkpt>
      <trkpt lat="44.51595" lon="4.60296">
        <ele>225</ele>
        <time>2021-05-05T16:23:36Z</time>
      </trkpt>
      <trkpt lat="44.51596" lon="4.60294">
        <ele>225.39999389648</ele>
        <time>2021-05-05T16:23:37Z</time>
      </trkpt>
      <trkpt lat="44.51598" lon="4.60293">
        <ele>225.80000305176</ele>
        <time>2021-05-05T16:23:38Z</time>
      </trkpt>
      <trkpt lat="44.51599" lon="4.60291">
        <ele>225.80000305176</ele>
        <time>2021-05-05T16:23:39Z</time>
      </trkpt>
      <trkpt lat="44.516" lon="4.60289">
        <ele>226</ele>
        <time>2021-05-05T16:23:40Z</time>
      </trkpt>
      <trkpt lat="44.51602" lon="4.60288">
        <ele>226</ele>
        <time>2021-05-05T16:23:41Z</time>
      </trkpt>
      <trkpt lat="44.51603" lon="4.60286">
        <ele>226.39999389648</ele>
        <time>2021-05-05T16:23:42Z</time>
      </trkpt>
      <trkpt lat="44.51605" lon="4.60285">
        <ele>226.39999389648</ele>
        <time>2021-05-05T16:23:43Z</time>
      </trkpt>
      <trkpt lat="44.51606" lon="4.60283">
        <ele>226.60000610352</ele>
        <time>2021-05-05T16:23:44Z</time>
      </trkpt>
      <trkpt lat="44.51608" lon="4.60281">
        <ele>227</ele>
        <time>2021-05-05T16:23:45Z</time>
      </trkpt>
      <trkpt lat="44.51609" lon="4.6028">
        <ele>227.19999694824</ele>
        <time>2021-05-05T16:23:46Z</time>
      </trkpt>
      <trkpt lat="44.51611" lon="4.60278">
        <ele>227.19999694824</ele>
        <time>2021-05-05T16:23:47Z</time>
      </trkpt>
      <trkpt lat="44.51612" lon="4.60277">
        <ele>227.39999389648</ele>
        <time>2021-05-05T16:23:48Z</time>
      </trkpt>
      <trkpt lat="44.51614" lon="4.60275">
        <ele>227.60000610352</ele>
        <time>2021-05-05T16:23:49Z</time>
      </trkpt>
      <trkpt lat="44.51615" lon="4.60274">
        <ele>227.80000305176</ele>
        <time>2021-05-05T16:23:50Z</time>
      </trkpt>
      <trkpt lat="44.51617" lon="4.60272">
        <ele>228</ele>
        <time>2021-05-05T16:23:51Z</time>
      </trkpt>
      <trkpt lat="44.51618" lon="4.60271">
        <ele>228.19999694824</ele>
        <time>2021-05-05T16:23:52Z</time>
      </trkpt>
      <trkpt lat="44.5162" lon="4.6027">
        <ele>228.19999694824</ele>
        <time>2021-05-05T16:23:53Z</time>
      </trkpt>
      <trkpt lat="44.51621" lon="4.60268">
        <ele>228.39999389648</ele>
        <time>2021-05-05T16:23:54Z</time>
      </trkpt>
      <trkpt lat="44.51623" lon="4.60267">
        <ele>228.39999389648</ele>
        <time>2021-05-05T16:23:55Z</time>
      </trkpt>
      <trkpt lat="44.51625" lon="4.60266">
        <ele>229</ele>
        <time>2021-05-05T16:23:56Z</time>
      </trkpt>
      <trkpt lat="44.51626" lon="4.60264">
        <ele>229.19999694824</ele>
        <time>2021-05-05T16:23:57Z</time>
      </trkpt>
      <trkpt lat="44.51628" lon="4.60263">
        <ele>229.19999694824</ele>
        <time>2021-05-05T16:23:58Z</time>
      </trkpt>
      <trkpt lat="44.51629" lon="4.60261">
        <ele>229.60000610352</ele>
        <time>2021-05-05T16:23:59Z</time>
      </trkpt>
      <trkpt lat="44.5163" lon="4.60259">
        <ele>230</ele>
        <time>2021-05-05T16:24:00Z</time>
      </trkpt>
      <trkpt lat="44.51631" lon="4.60257">
        <ele>230.19999694824</ele>
        <time>2021-05-05T16:24:01Z</time>
      </trkpt>
      <trkpt lat="44.51632" lon="4.60256">
        <ele>230.39999389648</ele>
        <time>2021-05-05T16:24:02Z</time>
      </trkpt>
      <trkpt lat="44.51633" lon="4.60253">
        <ele>230.80000305176</ele>
        <time>2021-05-05T16:24:03Z</time>
      </trkpt>
      <trkpt lat="44.51633" lon="4.60251">
        <ele>231</ele>
        <time>2021-05-05T16:24:04Z</time>
      </trkpt>
      <trkpt lat="44.51634" lon="4.60248">
        <ele>231.60000610352</ele>
        <time>2021-05-05T16:24:05Z</time>
      </trkpt>
      <trkpt lat="44.51635" lon="4.60245">
        <ele>231.80000305176</ele>
        <time>2021-05-05T16:24:06Z</time>
      </trkpt>
      <trkpt lat="44.51635" lon="4.60243">
        <ele>232.19999694824</ele>
        <time>2021-05-05T16:24:07Z</time>
      </trkpt>
      <trkpt lat="44.51636" lon="4.6024">
        <ele>232.39999389648</ele>
        <time>2021-05-05T16:24:08Z</time>
      </trkpt>
      <trkpt lat="44.51636" lon="4.60237">
        <ele>232.80000305176</ele>
        <time>2021-05-05T16:24:09Z</time>
      </trkpt>
      <trkpt lat="44.51637" lon="4.60235">
        <ele>232.80000305176</ele>
        <time>2021-05-05T16:24:10Z</time>
      </trkpt>
      <trkpt lat="44.51637" lon="4.60232">
        <ele>233.19999694824</ele>
        <time>2021-05-05T16:24:11Z</time>
      </trkpt>
      <trkpt lat="44.51638" lon="4.60229">
        <ele>233.39999389648</ele>
        <time>2021-05-05T16:24:12Z</time>
      </trkpt>
      <trkpt lat="44.51639" lon="4.60227">
        <ele>233.60000610352</ele>
        <time>2021-05-05T16:24:13Z</time>
      </trkpt>
      <trkpt lat="44.5164" lon="4.60224">
        <ele>234</ele>
        <time>2021-05-05T16:24:14Z</time>
      </trkpt>
      <trkpt lat="44.51641" lon="4.60222">
        <ele>234</ele>
        <time>2021-05-05T16:24:15Z</time>
      </trkpt>
      <trkpt lat="44.51642" lon="4.60219">
        <ele>234.39999389648</ele>
        <time>2021-05-05T16:24:16Z</time>
      </trkpt>
      <trkpt lat="44.51642" lon="4.60217">
        <ele>234.39999389648</ele>
        <time>2021-05-05T16:24:17Z</time>
      </trkpt>
      <trkpt lat="44.51643" lon="4.60214">
        <ele>234.60000610352</ele>
        <time>2021-05-05T16:24:18Z</time>
      </trkpt>
      <trkpt lat="44.51644" lon="4.60212">
        <ele>235</ele>
        <time>2021-05-05T16:24:19Z</time>
      </trkpt>
      <trkpt lat="44.51645" lon="4.60209">
        <ele>235.19999694824</ele>
        <time>2021-05-05T16:24:20Z</time>
      </trkpt>
      <trkpt lat="44.51647" lon="4.60206">
        <ele>235.39999389648</ele>
        <time>2021-05-05T16:24:21Z</time>
      </trkpt>
      <trkpt lat="44.51648" lon="4.60203">
        <ele>235.60000610352</ele>
        <time>2021-05-05T16:24:22Z</time>
      </trkpt>
      <trkpt lat="44.51649" lon="4.602">
        <ele>235.80000305176</ele>
        <time>2021-05-05T16:24:23Z</time>
      </trkpt>
      <trkpt lat="44.51649" lon="4.60197">
        <ele>236</ele>
        <time>2021-05-05T16:24:24Z</time>
      </trkpt>
      <trkpt lat="44.51649" lon="4.60193">
        <ele>236.19999694824</ele>
        <time>2021-05-05T16:24:25Z</time>
      </trkpt>
      <trkpt lat="44.51649" lon="4.6019">
        <ele>236.39999389648</ele>
        <time>2021-05-05T16:24:26Z</time>
      </trkpt>
      <trkpt lat="44.51649" lon="4.60186">
        <ele>236.60000610352</ele>
        <time>2021-05-05T16:24:27Z</time>
      </trkpt>
      <trkpt lat="44.51649" lon="4.60182">
        <ele>236.60000610352</ele>
        <time>2021-05-05T16:24:28Z</time>
      </trkpt>
      <trkpt lat="44.51648" lon="4.60177">
        <ele>236.60000610352</ele>
        <time>2021-05-05T16:24:29Z</time>
      </trkpt>
      <trkpt lat="44.51648" lon="4.60173">
        <ele>236.60000610352</ele>
        <time>2021-05-05T16:24:30Z</time>
      </trkpt>
      <trkpt lat="44.51647" lon="4.60169">
        <ele>236.60000610352</ele>
        <time>2021-05-05T16:24:31Z</time>
      </trkpt>
      <trkpt lat="44.51646" lon="4.60165">
        <ele>236.60000610352</ele>
        <time>2021-05-05T16:24:32Z</time>
      </trkpt>
      <trkpt lat="44.51645" lon="4.6016">
        <ele>236.60000610352</ele>
        <time>2021-05-05T16:24:33Z</time>
      </trkpt>
      <trkpt lat="44.51645" lon="4.60155">
        <ele>236.60000610352</ele>
        <time>2021-05-05T16:24:34Z</time>
      </trkpt>
      <trkpt lat="44.51646" lon="4.6015">
        <ele>236.80000305176</ele>
        <time>2021-05-05T16:24:35Z</time>
      </trkpt>
      <trkpt lat="44.51648" lon="4.60144">
        <ele>236.60000610352</ele>
        <time>2021-05-05T16:24:36Z</time>
      </trkpt>
      <trkpt lat="44.5165" lon="4.60139">
        <ele>236.39999389648</ele>
        <time>2021-05-05T16:24:37Z</time>
      </trkpt>
      <trkpt lat="44.51653" lon="4.60133">
        <ele>236.39999389648</ele>
        <time>2021-05-05T16:24:38Z</time>
      </trkpt>
      <trkpt lat="44.51656" lon="4.60128">
        <ele>236.39999389648</ele>
        <time>2021-05-05T16:24:39Z</time>
      </trkpt>
      <trkpt lat="44.5166" lon="4.60123">
        <ele>236.39999389648</ele>
        <time>2021-05-05T16:24:40Z</time>
      </trkpt>
      <trkpt lat="44.51663" lon="4.60118">
        <ele>236.19999694824</ele>
        <time>2021-05-05T16:24:41Z</time>
      </trkpt>
      <trkpt lat="44.51666" lon="4.60104">
        <ele>235.80000305176</ele>
        <time>2021-05-05T16:24:43Z</time>
      </trkpt>
      <trkpt lat="44.51669" lon="4.60089">
        <ele>235.80000305176</ele>
        <time>2021-05-05T16:24:45Z</time>
      </trkpt>
      <trkpt lat="44.51672" lon="4.60083">
        <ele>235.39999389648</ele>
        <time>2021-05-05T16:24:46Z</time>
      </trkpt>
      <trkpt lat="44.51674" lon="4.60077">
        <ele>234.80000305176</ele>
        <time>2021-05-05T16:24:47Z</time>
      </trkpt>
      <trkpt lat="44.51677" lon="4.60072">
        <ele>234.39999389648</ele>
        <time>2021-05-05T16:24:48Z</time>
      </trkpt>
      <trkpt lat="44.51679" lon="4.60068">
        <ele>234</ele>
        <time>2021-05-05T16:24:49Z</time>
      </trkpt>
      <trkpt lat="44.51682" lon="4.60065">
        <ele>233.60000610352</ele>
        <time>2021-05-05T16:24:50Z</time>
      </trkpt>
      <trkpt lat="44.51684" lon="4.60062">
        <ele>233.19999694824</ele>
        <time>2021-05-05T16:24:51Z</time>
      </trkpt>
      <trkpt lat="44.51687" lon="4.60059">
        <ele>232.60000610352</ele>
        <time>2021-05-05T16:24:52Z</time>
      </trkpt>
      <trkpt lat="44.51693" lon="4.60054">
        <ele>231.80000305176</ele>
        <time>2021-05-05T16:24:54Z</time>
      </trkpt>
      <trkpt lat="44.51706" lon="4.60043">
        <ele>230.39999389648</ele>
        <time>2021-05-05T16:24:57Z</time>
      </trkpt>
      <trkpt lat="44.51714" lon="4.60034">
        <ele>229.60000610352</ele>
        <time>2021-05-05T16:24:59Z</time>
      </trkpt>
      <trkpt lat="44.51718" lon="4.60029">
        <ele>229.19999694824</ele>
        <time>2021-05-05T16:25:00Z</time>
      </trkpt>
      <trkpt lat="44.5172" lon="4.60023">
        <ele>229</ele>
        <time>2021-05-05T16:25:01Z</time>
      </trkpt>
      <trkpt lat="44.51722" lon="4.60016">
        <ele>228.60000610352</ele>
        <time>2021-05-05T16:25:02Z</time>
      </trkpt>
      <trkpt lat="44.51722" lon="4.60009">
        <ele>228.60000610352</ele>
        <time>2021-05-05T16:25:03Z</time>
      </trkpt>
      <trkpt lat="44.51723" lon="4.60002">
        <ele>228.19999694824</ele>
        <time>2021-05-05T16:25:04Z</time>
      </trkpt>
      <trkpt lat="44.51724" lon="4.59995">
        <ele>227.80000305176</ele>
        <time>2021-05-05T16:25:05Z</time>
      </trkpt>
      <trkpt lat="44.51724" lon="4.59987">
        <ele>227.60000610352</ele>
        <time>2021-05-05T16:25:06Z</time>
      </trkpt>
      <trkpt lat="44.51724" lon="4.59979">
        <ele>227</ele>
        <time>2021-05-05T16:25:07Z</time>
      </trkpt>
      <trkpt lat="44.51725" lon="4.59972">
        <ele>226.39999389648</ele>
        <time>2021-05-05T16:25:08Z</time>
      </trkpt>
      <trkpt lat="44.51726" lon="4.59965">
        <ele>225.80000305176</ele>
        <time>2021-05-05T16:25:09Z</time>
      </trkpt>
      <trkpt lat="44.51731" lon="4.59953">
        <ele>224.60000610352</ele>
        <time>2021-05-05T16:25:11Z</time>
      </trkpt>
      <trkpt lat="44.51735" lon="4.59948">
        <ele>224.19999694824</ele>
        <time>2021-05-05T16:25:12Z</time>
      </trkpt>
      <trkpt lat="44.51739" lon="4.59943">
        <ele>223.80000305176</ele>
        <time>2021-05-05T16:25:13Z</time>
      </trkpt>
      <trkpt lat="44.51743" lon="4.59938">
        <ele>223.19999694824</ele>
        <time>2021-05-05T16:25:14Z</time>
      </trkpt>
      <trkpt lat="44.51752" lon="4.59927">
        <ele>222.19999694824</ele>
        <time>2021-05-05T16:25:16Z</time>
      </trkpt>
      <trkpt lat="44.51757" lon="4.59921">
        <ele>221.80000305176</ele>
        <time>2021-05-05T16:25:17Z</time>
      </trkpt>
      <trkpt lat="44.51765" lon="4.59909">
        <ele>220.60000610352</ele>
        <time>2021-05-05T16:25:19Z</time>
      </trkpt>
      <trkpt lat="44.51772" lon="4.59895">
        <ele>219.60000610352</ele>
        <time>2021-05-05T16:25:21Z</time>
      </trkpt>
      <trkpt lat="44.51785" lon="4.59867">
        <ele>218.19999694824</ele>
        <time>2021-05-05T16:25:25Z</time>
      </trkpt>
      <trkpt lat="44.51788" lon="4.5986">
        <ele>218.19999694824</ele>
        <time>2021-05-05T16:25:26Z</time>
      </trkpt>
      <trkpt lat="44.51791" lon="4.59854">
        <ele>217.80000305176</ele>
        <time>2021-05-05T16:25:27Z</time>
      </trkpt>
      <trkpt lat="44.51799" lon="4.59834">
        <ele>216.19999694824</ele>
        <time>2021-05-05T16:25:30Z</time>
      </trkpt>
      <trkpt lat="44.51801" lon="4.59827">
        <ele>215.80000305176</ele>
        <time>2021-05-05T16:25:31Z</time>
      </trkpt>
      <trkpt lat="44.51803" lon="4.59821">
        <ele>215.60000610352</ele>
        <time>2021-05-05T16:25:32Z</time>
      </trkpt>
      <trkpt lat="44.51804" lon="4.59814">
        <ele>215.39999389648</ele>
        <time>2021-05-05T16:25:33Z</time>
      </trkpt>
      <trkpt lat="44.51806" lon="4.59807">
        <ele>215</ele>
        <time>2021-05-05T16:25:34Z</time>
      </trkpt>
      <trkpt lat="44.51807" lon="4.59803">
        <ele>214.60000610352</ele>
        <time>2021-05-05T16:25:35Z</time>
      </trkpt>
      <trkpt lat="44.51809" lon="4.59803">
        <ele>214</ele>
        <time>2021-05-05T16:25:36Z</time>
      </trkpt>
      <trkpt lat="44.5181" lon="4.59815">
        <ele>212.60000610352</ele>
        <time>2021-05-05T16:25:39Z</time>
      </trkpt>
      <trkpt lat="44.51809" lon="4.59839">
        <ele>211</ele>
        <time>2021-05-05T16:25:43Z</time>
      </trkpt>
      <trkpt lat="44.51808" lon="4.59845">
        <ele>210.60000610352</ele>
        <time>2021-05-05T16:25:44Z</time>
      </trkpt>
      <trkpt lat="44.51806" lon="4.59852">
        <ele>210.39999389648</ele>
        <time>2021-05-05T16:25:45Z</time>
      </trkpt>
      <trkpt lat="44.51805" lon="4.59858">
        <ele>209.80000305176</ele>
        <time>2021-05-05T16:25:46Z</time>
      </trkpt>
      <trkpt lat="44.51804" lon="4.59864">
        <ele>209.39999389648</ele>
        <time>2021-05-05T16:25:47Z</time>
      </trkpt>
      <trkpt lat="44.51803" lon="4.5987">
        <ele>209</ele>
        <time>2021-05-05T16:25:48Z</time>
      </trkpt>
      <trkpt lat="44.518" lon="4.59881">
        <ele>208.80000305176</ele>
        <time>2021-05-05T16:25:50Z</time>
      </trkpt>
      <trkpt lat="44.51797" lon="4.59894">
        <ele>208.19999694824</ele>
        <time>2021-05-05T16:25:52Z</time>
      </trkpt>
      <trkpt lat="44.51796" lon="4.59901">
        <ele>208</ele>
        <time>2021-05-05T16:25:53Z</time>
      </trkpt>
      <trkpt lat="44.51794" lon="4.59917">
        <ele>207.19999694824</ele>
        <time>2021-05-05T16:25:55Z</time>
      </trkpt>
      <trkpt lat="44.51793" lon="4.59925">
        <ele>206.80000305176</ele>
        <time>2021-05-05T16:25:56Z</time>
      </trkpt>
      <trkpt lat="44.51788" lon="4.59967">
        <ele>206</ele>
        <time>2021-05-05T16:26:01Z</time>
      </trkpt>
      <trkpt lat="44.51786" lon="4.59976">
        <ele>205.80000305176</ele>
        <time>2021-05-05T16:26:02Z</time>
      </trkpt>
      <trkpt lat="44.51786" lon="4.59985">
        <ele>205.60000610352</ele>
        <time>2021-05-05T16:26:03Z</time>
      </trkpt>
      <trkpt lat="44.51785" lon="4.59993">
        <ele>205</ele>
        <time>2021-05-05T16:26:04Z</time>
      </trkpt>
      <trkpt lat="44.51785" lon="4.60001">
        <ele>204.39999389648</ele>
        <time>2021-05-05T16:26:05Z</time>
      </trkpt>
      <trkpt lat="44.51786" lon="4.60009">
        <ele>204</ele>
        <time>2021-05-05T16:26:06Z</time>
      </trkpt>
      <trkpt lat="44.51789" lon="4.60016">
        <ele>203.60000610352</ele>
        <time>2021-05-05T16:26:07Z</time>
      </trkpt>
      <trkpt lat="44.51792" lon="4.60022">
        <ele>203.19999694824</ele>
        <time>2021-05-05T16:26:08Z</time>
      </trkpt>
      <trkpt lat="44.51796" lon="4.60028">
        <ele>202.80000305176</ele>
        <time>2021-05-05T16:26:09Z</time>
      </trkpt>
      <trkpt lat="44.518" lon="4.60035">
        <ele>202.39999389648</ele>
        <time>2021-05-05T16:26:10Z</time>
      </trkpt>
      <trkpt lat="44.51802" lon="4.60041">
        <ele>201.60000610352</ele>
        <time>2021-05-05T16:26:11Z</time>
      </trkpt>
      <trkpt lat="44.51804" lon="4.60046">
        <ele>201.60000610352</ele>
        <time>2021-05-05T16:26:12Z</time>
      </trkpt>
      <trkpt lat="44.51805" lon="4.6005">
        <ele>201.19999694824</ele>
        <time>2021-05-05T16:26:13Z</time>
      </trkpt>
      <trkpt lat="44.51805" lon="4.60054">
        <ele>200.80000305176</ele>
        <time>2021-05-05T16:26:14Z</time>
      </trkpt>
      <trkpt lat="44.51804" lon="4.60058">
        <ele>200.60000610352</ele>
        <time>2021-05-05T16:26:15Z</time>
      </trkpt>
      <trkpt lat="44.51802" lon="4.60061">
        <ele>200.39999389648</ele>
        <time>2021-05-05T16:26:16Z</time>
      </trkpt>
      <trkpt lat="44.518" lon="4.60063">
        <ele>200.39999389648</ele>
        <time>2021-05-05T16:26:17Z</time>
      </trkpt>
      <trkpt lat="44.51795" lon="4.60075">
        <ele>199.39999389648</ele>
        <time>2021-05-05T16:26:20Z</time>
      </trkpt>
      <trkpt lat="44.51794" lon="4.60082">
        <ele>199.19999694824</ele>
        <time>2021-05-05T16:26:21Z</time>
      </trkpt>
      <trkpt lat="44.51794" lon="4.60089">
        <ele>198.80000305176</ele>
        <time>2021-05-05T16:26:22Z</time>
      </trkpt>
      <trkpt lat="44.51794" lon="4.60096">
        <ele>198.19999694824</ele>
        <time>2021-05-05T16:26:23Z</time>
      </trkpt>
      <trkpt lat="44.51794" lon="4.60102">
        <ele>198</ele>
        <time>2021-05-05T16:26:24Z</time>
      </trkpt>
      <trkpt lat="44.51793" lon="4.60108">
        <ele>197.60000610352</ele>
        <time>2021-05-05T16:26:25Z</time>
      </trkpt>
      <trkpt lat="44.51791" lon="4.60114">
        <ele>197.60000610352</ele>
        <time>2021-05-05T16:26:26Z</time>
      </trkpt>
      <trkpt lat="44.51789" lon="4.60121">
        <ele>197.19999694824</ele>
        <time>2021-05-05T16:26:27Z</time>
      </trkpt>
      <trkpt lat="44.51787" lon="4.60128">
        <ele>197.19999694824</ele>
        <time>2021-05-05T16:26:28Z</time>
      </trkpt>
      <trkpt lat="44.51786" lon="4.60136">
        <ele>197</ele>
        <time>2021-05-05T16:26:29Z</time>
      </trkpt>
      <trkpt lat="44.51785" lon="4.60143">
        <ele>196.60000610352</ele>
        <time>2021-05-05T16:26:30Z</time>
      </trkpt>
      <trkpt lat="44.51786" lon="4.60148">
        <ele>196.39999389648</ele>
        <time>2021-05-05T16:26:31Z</time>
      </trkpt>
      <trkpt lat="44.51788" lon="4.60152">
        <ele>196.19999694824</ele>
        <time>2021-05-05T16:26:32Z</time>
      </trkpt>
      <trkpt lat="44.51791" lon="4.60154">
        <ele>195.80000305176</ele>
        <time>2021-05-05T16:26:33Z</time>
      </trkpt>
      <trkpt lat="44.51798" lon="4.60153">
        <ele>195.39999389648</ele>
        <time>2021-05-05T16:26:35Z</time>
      </trkpt>
      <trkpt lat="44.51808" lon="4.60152">
        <ele>194.19999694824</ele>
        <time>2021-05-05T16:26:37Z</time>
      </trkpt>
      <trkpt lat="44.51818" lon="4.60154">
        <ele>193</ele>
        <time>2021-05-05T16:26:39Z</time>
      </trkpt>
      <trkpt lat="44.51823" lon="4.60156">
        <ele>193</ele>
        <time>2021-05-05T16:26:40Z</time>
      </trkpt>
      <trkpt lat="44.51828" lon="4.60159">
        <ele>192.80000305176</ele>
        <time>2021-05-05T16:26:41Z</time>
      </trkpt>
      <trkpt lat="44.51832" lon="4.60163">
        <ele>192.80000305176</ele>
        <time>2021-05-05T16:26:42Z</time>
      </trkpt>
      <trkpt lat="44.51835" lon="4.60169">
        <ele>192.80000305176</ele>
        <time>2021-05-05T16:26:43Z</time>
      </trkpt>
      <trkpt lat="44.51838" lon="4.60176">
        <ele>192.60000610352</ele>
        <time>2021-05-05T16:26:44Z</time>
      </trkpt>
      <trkpt lat="44.51841" lon="4.60183">
        <ele>192.60000610352</ele>
        <time>2021-05-05T16:26:45Z</time>
      </trkpt>
      <trkpt lat="44.51844" lon="4.60189">
        <ele>192.39999389648</ele>
        <time>2021-05-05T16:26:46Z</time>
      </trkpt>
      <trkpt lat="44.51846" lon="4.60196">
        <ele>192.39999389648</ele>
        <time>2021-05-05T16:26:47Z</time>
      </trkpt>
      <trkpt lat="44.51848" lon="4.60203">
        <ele>192.19999694824</ele>
        <time>2021-05-05T16:26:48Z</time>
      </trkpt>
      <trkpt lat="44.51847" lon="4.6021">
        <ele>191.80000305176</ele>
        <time>2021-05-05T16:26:49Z</time>
      </trkpt>
      <trkpt lat="44.51846" lon="4.60217">
        <ele>191.60000610352</ele>
        <time>2021-05-05T16:26:50Z</time>
      </trkpt>
      <trkpt lat="44.51844" lon="4.60224">
        <ele>190.80000305176</ele>
        <time>2021-05-05T16:26:51Z</time>
      </trkpt>
      <trkpt lat="44.51842" lon="4.60232">
        <ele>190.39999389648</ele>
        <time>2021-05-05T16:26:52Z</time>
      </trkpt>
      <trkpt lat="44.5184" lon="4.60238">
        <ele>190</ele>
        <time>2021-05-05T16:26:53Z</time>
      </trkpt>
      <trkpt lat="44.51839" lon="4.60245">
        <ele>189.80000305176</ele>
        <time>2021-05-05T16:26:54Z</time>
      </trkpt>
      <trkpt lat="44.5184" lon="4.60253">
        <ele>189.19999694824</ele>
        <time>2021-05-05T16:26:55Z</time>
      </trkpt>
      <trkpt lat="44.51842" lon="4.6026">
        <ele>188.80000305176</ele>
        <time>2021-05-05T16:26:56Z</time>
      </trkpt>
      <trkpt lat="44.51845" lon="4.60265">
        <ele>188.39999389648</ele>
        <time>2021-05-05T16:26:57Z</time>
      </trkpt>
      <trkpt lat="44.51849" lon="4.6027">
        <ele>188.39999389648</ele>
        <time>2021-05-05T16:26:58Z</time>
      </trkpt>
      <trkpt lat="44.51852" lon="4.60273">
        <ele>188.19999694824</ele>
        <time>2021-05-05T16:26:59Z</time>
      </trkpt>
      <trkpt lat="44.51855" lon="4.60277">
        <ele>187.80000305176</ele>
        <time>2021-05-05T16:27:00Z</time>
      </trkpt>
      <trkpt lat="44.51858" lon="4.60282">
        <ele>187</ele>
        <time>2021-05-05T16:27:01Z</time>
      </trkpt>
      <trkpt lat="44.51859" lon="4.60288">
        <ele>186.39999389648</ele>
        <time>2021-05-05T16:27:02Z</time>
      </trkpt>
      <trkpt lat="44.51859" lon="4.60293">
        <ele>186</ele>
        <time>2021-05-05T16:27:03Z</time>
      </trkpt>
      <trkpt lat="44.51857" lon="4.60299">
        <ele>185.80000305176</ele>
        <time>2021-05-05T16:27:04Z</time>
      </trkpt>
      <trkpt lat="44.51855" lon="4.60304">
        <ele>185.60000610352</ele>
        <time>2021-05-05T16:27:05Z</time>
      </trkpt>
      <trkpt lat="44.51853" lon="4.60309">
        <ele>185.60000610352</ele>
        <time>2021-05-05T16:27:06Z</time>
      </trkpt>
      <trkpt lat="44.5185" lon="4.60313">
        <ele>185.39999389648</ele>
        <time>2021-05-05T16:27:07Z</time>
      </trkpt>
      <trkpt lat="44.51847" lon="4.60318">
        <ele>185.19999694824</ele>
        <time>2021-05-05T16:27:08Z</time>
      </trkpt>
      <trkpt lat="44.51838" lon="4.60334">
        <ele>184.80000305176</ele>
        <time>2021-05-05T16:27:11Z</time>
      </trkpt>
      <trkpt lat="44.51834" lon="4.60339">
        <ele>184.60000610352</ele>
        <time>2021-05-05T16:27:12Z</time>
      </trkpt>
      <trkpt lat="44.51825" lon="4.60349">
        <ele>184.60000610352</ele>
        <time>2021-05-05T16:27:14Z</time>
      </trkpt>
      <trkpt lat="44.5182" lon="4.60354">
        <ele>184.60000610352</ele>
        <time>2021-05-05T16:27:15Z</time>
      </trkpt>
      <trkpt lat="44.51804" lon="4.60369">
        <ele>184.19999694824</ele>
        <time>2021-05-05T16:27:18Z</time>
      </trkpt>
      <trkpt lat="44.51799" lon="4.60374">
        <ele>183.80000305176</ele>
        <time>2021-05-05T16:27:19Z</time>
      </trkpt>
      <trkpt lat="44.51789" lon="4.60386">
        <ele>183.39999389648</ele>
        <time>2021-05-05T16:27:21Z</time>
      </trkpt>
      <trkpt lat="44.51785" lon="4.60391">
        <ele>182.80000305176</ele>
        <time>2021-05-05T16:27:22Z</time>
      </trkpt>
      <trkpt lat="44.5178" lon="4.60396">
        <ele>182.19999694824</ele>
        <time>2021-05-05T16:27:23Z</time>
      </trkpt>
      <trkpt lat="44.51776" lon="4.604">
        <ele>181.39999389648</ele>
        <time>2021-05-05T16:27:24Z</time>
      </trkpt>
      <trkpt lat="44.51773" lon="4.60402">
        <ele>180.60000610352</ele>
        <time>2021-05-05T16:27:25Z</time>
      </trkpt>
      <trkpt lat="44.51771" lon="4.60403">
        <ele>180.39999389648</ele>
        <time>2021-05-05T16:27:26Z</time>
      </trkpt>
      <trkpt lat="44.5177" lon="4.60404">
        <ele>180.19999694824</ele>
        <time>2021-05-05T16:27:27Z</time>
      </trkpt>
      <trkpt lat="44.51769" lon="4.60404">
        <ele>179.80000305176</ele>
        <time>2021-05-05T16:27:28Z</time>
      </trkpt>
      <trkpt lat="44.51768" lon="4.60404">
        <ele>177.80000305176</ele>
        <time>2021-05-05T16:27:32Z</time>
      </trkpt>
      <trkpt lat="44.51768" lon="4.60405">
        <ele>177.19999694824</ele>
        <time>2021-05-05T16:27:35Z</time>
      </trkpt>
      <trkpt lat="44.51768" lon="4.60406">
        <ele>177</ele>
        <time>2021-05-05T16:27:37Z</time>
      </trkpt>
      <trkpt lat="44.51765" lon="4.60409">
        <ele>176.60000610352</ele>
        <time>2021-05-05T16:27:43Z</time>
      </trkpt>
      <trkpt lat="44.51765" lon="4.60409">
        <ele>176.60000610352</ele>
        <time>2021-05-05T16:27:44Z</time>
      </trkpt>
      <trkpt lat="44.51764" lon="4.60409">
        <ele>176.60000610352</ele>
        <time>2021-05-05T16:27:46Z</time>
      </trkpt>
      <trkpt lat="44.51762" lon="4.60411">
        <ele>176.60000610352</ele>
        <time>2021-05-05T16:27:48Z</time>
      </trkpt>
      <trkpt lat="44.5176" lon="4.60412">
        <ele>176.60000610352</ele>
        <time>2021-05-05T16:27:49Z</time>
      </trkpt>
      <trkpt lat="44.51758" lon="4.60415">
        <ele>176.60000610352</ele>
        <time>2021-05-05T16:27:50Z</time>
      </trkpt>
      <trkpt lat="44.51755" lon="4.60419">
        <ele>176.60000610352</ele>
        <time>2021-05-05T16:27:51Z</time>
      </trkpt>
      <trkpt lat="44.51753" lon="4.60422">
        <ele>176.39999389648</ele>
        <time>2021-05-05T16:27:52Z</time>
      </trkpt>
      <trkpt lat="44.5175" lon="4.60424">
        <ele>176.60000610352</ele>
        <time>2021-05-05T16:27:53Z</time>
      </trkpt>
      <trkpt lat="44.51734" lon="4.60434">
        <ele>176.39999389648</ele>
        <time>2021-05-05T16:27:57Z</time>
      </trkpt>
      <trkpt lat="44.51729" lon="4.60435">
        <ele>176.19999694824</ele>
        <time>2021-05-05T16:27:58Z</time>
      </trkpt>
      <trkpt lat="44.51724" lon="4.60435">
        <ele>176</ele>
        <time>2021-05-05T16:27:59Z</time>
      </trkpt>
      <trkpt lat="44.51719" lon="4.60434">
        <ele>175.80000305176</ele>
        <time>2021-05-05T16:28:00Z</time>
      </trkpt>
      <trkpt lat="44.51708" lon="4.60435">
        <ele>175.60000610352</ele>
        <time>2021-05-05T16:28:02Z</time>
      </trkpt>
      <trkpt lat="44.51704" lon="4.60438">
        <ele>175.39999389648</ele>
        <time>2021-05-05T16:28:03Z</time>
      </trkpt>
      <trkpt lat="44.51702" lon="4.60442">
        <ele>175.39999389648</ele>
        <time>2021-05-05T16:28:04Z</time>
      </trkpt>
      <trkpt lat="44.51701" lon="4.60447">
        <ele>175.39999389648</ele>
        <time>2021-05-05T16:28:05Z</time>
      </trkpt>
      <trkpt lat="44.51702" lon="4.60452">
        <ele>175.19999694824</ele>
        <time>2021-05-05T16:28:06Z</time>
      </trkpt>
      <trkpt lat="44.51702" lon="4.60457">
        <ele>175.19999694824</ele>
        <time>2021-05-05T16:28:07Z</time>
      </trkpt>
      <trkpt lat="44.51702" lon="4.60462">
        <ele>174.80000305176</ele>
        <time>2021-05-05T16:28:08Z</time>
      </trkpt>
      <trkpt lat="44.51702" lon="4.60466">
        <ele>175</ele>
        <time>2021-05-05T16:28:09Z</time>
      </trkpt>
      <trkpt lat="44.51701" lon="4.6047">
        <ele>174.60000610352</ele>
        <time>2021-05-05T16:28:10Z</time>
      </trkpt>
      <trkpt lat="44.51701" lon="4.60473">
        <ele>174.80000305176</ele>
        <time>2021-05-05T16:28:11Z</time>
      </trkpt>
      <trkpt lat="44.51693" lon="4.60492">
        <ele>174.80000305176</ele>
        <time>2021-05-05T16:28:16Z</time>
      </trkpt>
      <trkpt lat="44.51691" lon="4.60495">
        <ele>174.60000610352</ele>
        <time>2021-05-05T16:28:17Z</time>
      </trkpt>
      <trkpt lat="44.51688" lon="4.60497">
        <ele>174.80000305176</ele>
        <time>2021-05-05T16:28:18Z</time>
      </trkpt>
      <trkpt lat="44.51681" lon="4.60507">
        <ele>174.80000305176</ele>
        <time>2021-05-05T16:28:21Z</time>
      </trkpt>
      <trkpt lat="44.51662" lon="4.60528">
        <ele>175</ele>
        <time>2021-05-05T16:28:27Z</time>
      </trkpt>
      <trkpt lat="44.51656" lon="4.60537">
        <ele>174.80000305176</ele>
        <time>2021-05-05T16:28:29Z</time>
      </trkpt>
      <trkpt lat="44.51653" lon="4.60542">
        <ele>174.80000305176</ele>
        <time>2021-05-05T16:28:30Z</time>
      </trkpt>
      <trkpt lat="44.5165" lon="4.60547">
        <ele>175</ele>
        <time>2021-05-05T16:28:31Z</time>
      </trkpt>
      <trkpt lat="44.51646" lon="4.60553">
        <ele>174.80000305176</ele>
        <time>2021-05-05T16:28:32Z</time>
      </trkpt>
      <trkpt lat="44.51638" lon="4.60565">
        <ele>174.60000610352</ele>
        <time>2021-05-05T16:28:34Z</time>
      </trkpt>
      <trkpt lat="44.51633" lon="4.60572">
        <ele>174.39999389648</ele>
        <time>2021-05-05T16:28:35Z</time>
      </trkpt>
      <trkpt lat="44.51614" lon="4.60595">
        <ele>173.60000610352</ele>
        <time>2021-05-05T16:28:39Z</time>
      </trkpt>
      <trkpt lat="44.51608" lon="4.606">
        <ele>173.39999389648</ele>
        <time>2021-05-05T16:28:40Z</time>
      </trkpt>
      <trkpt lat="44.51603" lon="4.60605">
        <ele>172.60000610352</ele>
        <time>2021-05-05T16:28:41Z</time>
      </trkpt>
      <trkpt lat="44.51574" lon="4.60633">
        <ele>170.19999694824</ele>
        <time>2021-05-05T16:28:46Z</time>
      </trkpt>
      <trkpt lat="44.51568" lon="4.60639">
        <ele>169.80000305176</ele>
        <time>2021-05-05T16:28:47Z</time>
      </trkpt>
      <trkpt lat="44.51558" lon="4.60652">
        <ele>168.80000305176</ele>
        <time>2021-05-05T16:28:49Z</time>
      </trkpt>
      <trkpt lat="44.51547" lon="4.60668">
        <ele>167.60000610352</ele>
        <time>2021-05-05T16:28:51Z</time>
      </trkpt>
      <trkpt lat="44.51541" lon="4.60673">
        <ele>160.9921875</ele>
      </trkpt>
      <trkpt lat="44.51531" lon="4.60687">
        <ele>159.2421875</ele>
      </trkpt>
      <trkpt lat="44.51508" lon="4.60723">
        <ele>155.68359375</ele>
      </trkpt>
      <trkpt lat="44.51505" lon="4.60727">
        <ele>155.21484375</ele>
      </trkpt>
      <trkpt lat="44.51502" lon="4.60729">
        <ele>154.9921875</ele>
      </trkpt>
      <trkpt lat="44.51499" lon="4.60731">
        <ele>154.8203125</ele>
      </trkpt>
      <trkpt lat="44.51495" lon="4.60732">
        <ele>154.6953125</ele>
      </trkpt>
      <trkpt lat="44.51491" lon="4.60732">
        <ele>154.66015625</ele>
      </trkpt>
      <trkpt lat="44.51487" lon="4.60732">
        <ele>154.6640625</ele>
      </trkpt>
      <trkpt lat="44.51483" lon="4.60731">
        <ele>154.69140625</ele>
      </trkpt>
      <trkpt lat="44.51477" lon="4.60729">
        <ele>154.74609375</ele>
      </trkpt>
      <trkpt lat="44.51471" lon="4.60728">
        <ele>154.74609375</ele>
      </trkpt>
      <trkpt lat="44.51467" lon="4.60728">
        <ele>154.65234375</ele>
      </trkpt>
      <trkpt lat="44.51458" lon="4.60732">
        <ele>154.3671875</ele>
      </trkpt>
      <trkpt lat="44.51439" lon="4.60742">
        <ele>154.4140625</ele>
      </trkpt>
      <trkpt lat="44.51428" lon="4.60745">
        <ele>154.765625</ele>
      </trkpt>
      <trkpt lat="44.5142" lon="4.60748">
        <ele>155.01953125</ele>
      </trkpt>
      <trkpt lat="44.5142" lon="4.6076">
        <ele>154.7734375</ele>
      </trkpt>
      <trkpt lat="44.51424" lon="4.60773">
        <ele>154.265625</ele>
      </trkpt>
      <trkpt lat="44.51434" lon="4.60792">
        <ele>152.5</ele>
      </trkpt>
      <trkpt lat="44.51445" lon="4.60813">
        <ele>149.84765625</ele>
      </trkpt>
      <trkpt lat="44.51456" lon="4.60831">
        <ele>146.90234375</ele>
      </trkpt>
      <trkpt lat="44.51469" lon="4.6085">
        <ele>145.265625</ele>
      </trkpt>
      <trkpt lat="44.51483" lon="4.60869">
        <ele>143.19140625</ele>
      </trkpt>
      <trkpt lat="44.51492" lon="4.60885">
        <ele>141.375</ele>
      </trkpt>
      <trkpt lat="44.51498" lon="4.60893">
        <ele>140.58203125</ele>
      </trkpt>
      <trkpt lat="44.51509" lon="4.609">
        <ele>139.3203125</ele>
      </trkpt>
      <trkpt lat="44.51531" lon="4.60917">
        <ele>138.125</ele>
      </trkpt>
      <trkpt lat="44.51543" lon="4.60926">
        <ele>137.41796875</ele>
      </trkpt>
      <trkpt lat="44.51559" lon="4.60937">
        <ele>136.421875</ele>
      </trkpt>
      <trkpt lat="44.51561" lon="4.60939">
        <ele>136.22265625</ele>
      </trkpt>
      <trkpt lat="44.51565" lon="4.60943">
        <ele>136.04296875</ele>
      </trkpt>
      <trkpt lat="44.51566" lon="4.60948">
        <ele>136.140625</ele>
      </trkpt>
      <trkpt lat="44.51565" lon="4.60956">
        <ele>136.26171875</ele>
      </trkpt>
      <trkpt lat="44.51563" lon="4.6096">
        <ele>136.34765625</ele>
      </trkpt>
      <trkpt lat="44.51555" lon="4.60968">
        <ele>136.484375</ele>
      </trkpt>
      <trkpt lat="44.51549" lon="4.60977">
        <ele>136.5546875</ele>
      </trkpt>
      <trkpt lat="44.51537" lon="4.60986">
        <ele>136.49609375</ele>
      </trkpt>
      <trkpt lat="44.51527" lon="4.60993">
        <ele>136.3359375</ele>
      </trkpt>
      <trkpt lat="44.51521" lon="4.60996">
        <ele>136.2109375</ele>
      </trkpt>
      <trkpt lat="44.51517" lon="4.60999">
        <ele>136.19140625</ele>
      </trkpt>
      <trkpt lat="44.51514" lon="4.61003">
        <ele>136.2109375</ele>
      </trkpt>
      <trkpt lat="44.51512" lon="4.61006">
        <ele>136.234375</ele>
      </trkpt>
      <trkpt lat="44.51512" lon="4.61011">
        <ele>136.3046875</ele>
      </trkpt>
      <trkpt lat="44.51517" lon="4.61022">
        <ele>136.84375</ele>
      </trkpt>
      <trkpt lat="44.51517" lon="4.61027">
        <ele>136.9296875</ele>
      </trkpt>
      <trkpt lat="44.515" lon="4.61044">
        <ele>137.140625</ele>
      </trkpt>
      <trkpt lat="44.51485" lon="4.61061">
        <ele>137.3984375</ele>
      </trkpt>
      <trkpt lat="44.51479" lon="4.6105">
        <ele>137.62109375</ele>
      </trkpt>
      <trkpt lat="44.51485" lon="4.61061">
        <ele>137.3984375</ele>
      </trkpt>
      <trkpt lat="44.51465" lon="4.61083">
        <ele>137.02734375</ele>
      </trkpt>
      <trkpt lat="44.51443" lon="4.61108">
        <ele>136.82421875</ele>
      </trkpt>
      <trkpt lat="44.51438" lon="4.61116">
        <ele>136.9140625</ele>
      </trkpt>
      <trkpt lat="44.51436" lon="4.61123">
        <ele>136.76953125</ele>
      </trkpt>
      <trkpt lat="44.51445" lon="4.61112">
        <ele>136.55078125</ele>
      </trkpt>
      <trkpt lat="44.51449" lon="4.61109">
        <ele>136.38671875</ele>
      </trkpt>
      <trkpt lat="44.51469" lon="4.61088">
        <ele>136.95703125</ele>
      </trkpt>
      <trkpt lat="44.51501" lon="4.61052">
        <ele>137.1640625</ele>
      </trkpt>
      <trkpt lat="44.51513" lon="4.6104">
        <ele>136.9765625</ele>
      </trkpt>
      <trkpt lat="44.51521" lon="4.61032">
        <ele>137.34765625</ele>
      </trkpt>
      <trkpt lat="44.51524" lon="4.6103">
        <ele>137.4609375</ele>
      </trkpt>
      <trkpt lat="44.51527" lon="4.61029">
        <ele>137.5859375</ele>
      </trkpt>
      <trkpt lat="44.51535" lon="4.61023">
        <ele>137.80078125</ele>
      </trkpt>
      <trkpt lat="44.5155" lon="4.61015">
        <ele>138</ele>
      </trkpt>
      <trkpt lat="44.51557" lon="4.61011">
        <ele>137.93359375</ele>
      </trkpt>
      <trkpt lat="44.51576" lon="4.60992">
        <ele>138.23828125</ele>
      </trkpt>
      <trkpt lat="44.51601" lon="4.60963">
        <ele>139.30859375</ele>
      </trkpt>
      <trkpt lat="44.51612" lon="4.60951">
        <ele>139.296875</ele>
      </trkpt>
      <trkpt lat="44.51624" lon="4.60944">
        <ele>139.65234375</ele>
      </trkpt>
      <trkpt lat="44.51631" lon="4.6094">
        <ele>140.25390625</ele>
      </trkpt>
      <trkpt lat="44.51634" lon="4.60939">
        <ele>140.609375</ele>
      </trkpt>
      <trkpt lat="44.51644" lon="4.60935">
        <ele>141.60546875</ele>
      </trkpt>
      <trkpt lat="44.51653" lon="4.60932">
        <ele>142.51953125</ele>
      </trkpt>
      <trkpt lat="44.5166" lon="4.60926">
        <ele>143.0625</ele>
      </trkpt>
      <trkpt lat="44.51666" lon="4.60921">
        <ele>143.36328125</ele>
      </trkpt>
      <trkpt lat="44.51674" lon="4.60911">
        <ele>143.6015625</ele>
      </trkpt>
      <trkpt lat="44.51683" lon="4.60897">
        <ele>143.8203125</ele>
      </trkpt>
      <trkpt lat="44.51694" lon="4.6088">
        <ele>144.1484375</ele>
      </trkpt>
      <trkpt lat="44.51705" lon="4.60865">
        <ele>144.58203125</ele>
      </trkpt>
      <trkpt lat="44.51713" lon="4.60859">
        <ele>145.01171875</ele>
      </trkpt>
      <trkpt lat="44.5172" lon="4.60854">
        <ele>145.33984375</ele>
      </trkpt>
      <trkpt lat="44.51727" lon="4.60851">
        <ele>145.7265625</ele>
      </trkpt>
      <trkpt lat="44.51735" lon="4.60848">
        <ele>146.203125</ele>
      </trkpt>
      <trkpt lat="44.51742" lon="4.60847">
        <ele>146.95703125</ele>
      </trkpt>
      <trkpt lat="44.51749" lon="4.60849">
        <ele>147.76953125</ele>
      </trkpt>
      <trkpt lat="44.51754" lon="4.60853">
        <ele>148.8125</ele>
      </trkpt>
      <trkpt lat="44.5176" lon="4.60856">
        <ele>149.796875</ele>
      </trkpt>
      <trkpt lat="44.51766" lon="4.60857">
        <ele>150.55078125</ele>
      </trkpt>
      <trkpt lat="44.5177" lon="4.60857">
        <ele>150.95703125</ele>
      </trkpt>
      <trkpt lat="44.51774" lon="4.60856">
        <ele>151.3046875</ele>
      </trkpt>
      <trkpt lat="44.51777" lon="4.60854">
        <ele>151.421875</ele>
      </trkpt>
      <trkpt lat="44.51781" lon="4.60848">
        <ele>151.1875</ele>
      </trkpt>
      <trkpt lat="44.51785" lon="4.60842">
        <ele>150.95703125</ele>
      </trkpt>
      <trkpt lat="44.51788" lon="4.60835">
        <ele>150.5</ele>
      </trkpt>
      <trkpt lat="44.5179" lon="4.60828">
        <ele>150.109375</ele>
      </trkpt>
      <trkpt lat="44.51794" lon="4.60814">
        <ele>149.42578125</ele>
      </trkpt>
      <trkpt lat="44.51798" lon="4.608">
        <ele>148.85546875</ele>
      </trkpt>
      <trkpt lat="44.51802" lon="4.60789">
        <ele>148.6015625</ele>
      </trkpt>
      <trkpt lat="44.51808" lon="4.60779">
        <ele>148.640625</ele>
      </trkpt>
      <trkpt lat="44.51815" lon="4.6077">
        <ele>149.0703125</ele>
      </trkpt>
      <trkpt lat="44.51822" lon="4.60763">
        <ele>149.76953125</ele>
      </trkpt>
      <trkpt lat="44.51836" lon="4.6075">
        <ele>151.08203125</ele>
      </trkpt>
      <trkpt lat="44.51878" lon="4.60714">
        <ele>154.796875</ele>
      </trkpt>
      <trkpt lat="44.51894" lon="4.60698">
        <ele>156.21484375</ele>
      </trkpt>
      <trkpt lat="44.51905" lon="4.60686">
        <ele>157.13671875</ele>
      </trkpt>
      <trkpt lat="44.51911" lon="4.60679">
        <ele>157.67578125</ele>
      </trkpt>
      <trkpt lat="44.51924" lon="4.60662">
        <ele>158.4765625</ele>
      </trkpt>
      <trkpt lat="44.5193" lon="4.60652">
        <ele>158.45703125</ele>
      </trkpt>
      <trkpt lat="44.51935" lon="4.60643">
        <ele>158.19140625</ele>
      </trkpt>
      <trkpt lat="44.51935" lon="4.60643">
        <ele>157.92578125</ele>
      </trkpt>
      <trkpt lat="44.51937" lon="4.60648">
        <ele>158.89453125</ele>
      </trkpt>
      <trkpt lat="44.51938" lon="4.60652">
        <ele>159.375</ele>
      </trkpt>
      <trkpt lat="44.51938" lon="4.60659">
        <ele>160.12890625</ele>
      </trkpt>
      <trkpt lat="44.51937" lon="4.6067">
        <ele>160.97265625</ele>
      </trkpt>
      <trkpt lat="44.51935" lon="4.60683">
        <ele>161.66796875</ele>
      </trkpt>
      <trkpt lat="44.51933" lon="4.60705">
        <ele>162.98046875</ele>
      </trkpt>
      <trkpt lat="44.51932" lon="4.60711">
        <ele>163.2109375</ele>
      </trkpt>
      <trkpt lat="44.51931" lon="4.60716">
        <ele>163.328125</ele>
      </trkpt>
      <trkpt lat="44.51925" lon="4.60726">
        <ele>163.1640625</ele>
      </trkpt>
      <trkpt lat="44.5192" lon="4.60732">
        <ele>162.8984375</ele>
      </trkpt>
      <trkpt lat="44.51898" lon="4.60758">
        <ele>161.6484375</ele>
      </trkpt>
      <trkpt lat="44.51881" lon="4.60775">
        <ele>160.4609375</ele>
      </trkpt>
      <trkpt lat="44.51869" lon="4.60789">
        <ele>159.66015625</ele>
      </trkpt>
      <trkpt lat="44.51862" lon="4.60799">
        <ele>159.19921875</ele>
      </trkpt>
      <trkpt lat="44.51859" lon="4.60805">
        <ele>158.984375</ele>
      </trkpt>
      <trkpt lat="44.51854" lon="4.60812">
        <ele>158.71484375</ele>
      </trkpt>
      <trkpt lat="44.51851" lon="4.60824">
        <ele>158.92578125</ele>
      </trkpt>
      <trkpt lat="44.51849" lon="4.60836">
        <ele>159.2578125</ele>
      </trkpt>
      <trkpt lat="44.51849" lon="4.60845">
        <ele>159.5859375</ele>
      </trkpt>
      <trkpt lat="44.5185" lon="4.60854">
        <ele>160.125</ele>
      </trkpt>
      <trkpt lat="44.51852" lon="4.60866">
        <ele>160.73828125</ele>
      </trkpt>
      <trkpt lat="44.51858" lon="4.60882">
        <ele>161.6328125</ele>
      </trkpt>
      <trkpt lat="44.51869" lon="4.60917">
        <ele>164.1015625</ele>
      </trkpt>
      <trkpt lat="44.51874" lon="4.60932">
        <ele>165.6796875</ele>
      </trkpt>
      <trkpt lat="44.51875" lon="4.60943">
        <ele>166.5859375</ele>
      </trkpt>
      <trkpt lat="44.51875" lon="4.6095">
        <ele>167.046875</ele>
      </trkpt>
      <trkpt lat="44.51875" lon="4.60959">
        <ele>167.6171875</ele>
      </trkpt>
      <trkpt lat="44.51874" lon="4.60965">
        <ele>167.9609375</ele>
      </trkpt>
      <trkpt lat="44.51873" lon="4.60971">
        <ele>168.2890625</ele>
      </trkpt>
      <trkpt lat="44.51869" lon="4.60982">
        <ele>168.80078125</ele>
      </trkpt>
      <trkpt lat="44.51865" lon="4.60995">
        <ele>169.43359375</ele>
      </trkpt>
      <trkpt lat="44.51858" lon="4.61011">
        <ele>170.55859375</ele>
      </trkpt>
      <trkpt lat="44.51837" lon="4.61052">
        <ele>173.57421875</ele>
      </trkpt>
      <trkpt lat="44.51829" lon="4.61072">
        <ele>175.04296875</ele>
      </trkpt>
      <trkpt lat="44.51826" lon="4.61078">
        <ele>175.52734375</ele>
      </trkpt>
      <trkpt lat="44.51822" lon="4.61087">
        <ele>175.8125</ele>
      </trkpt>
      <trkpt lat="44.51818" lon="4.61095">
        <ele>175.78125</ele>
      </trkpt>
      <trkpt lat="44.51813" lon="4.61103">
        <ele>175.53125</ele>
      </trkpt>
      <trkpt lat="44.51808" lon="4.61111">
        <ele>175.33984375</ele>
      </trkpt>
      <trkpt lat="44.51807" lon="4.61116">
        <ele>175.359375</ele>
      </trkpt>
      <trkpt lat="44.51807" lon="4.6112">
        <ele>175.55078125</ele>
      </trkpt>
      <trkpt lat="44.51809" lon="4.61124">
        <ele>175.87890625</ele>
      </trkpt>
      <trkpt lat="44.51811" lon="4.61129">
        <ele>176.34375</ele>
      </trkpt>
      <trkpt lat="44.51814" lon="4.61138">
        <ele>176.87109375</ele>
      </trkpt>
      <trkpt lat="44.51821" lon="4.61158">
        <ele>177.5234375</ele>
      </trkpt>
      <trkpt lat="44.51828" lon="4.61173">
        <ele>178.21875</ele>
      </trkpt>
      <trkpt lat="44.51836" lon="4.61186">
        <ele>178.640625</ele>
      </trkpt>
      <trkpt lat="44.51836" lon="4.61186">
        <ele>178.640625</ele>
      </trkpt>
      <trkpt lat="44.51838" lon="4.61181">
        <ele>180.39999389648</ele>
        <time>2020-05-31T07:08:30Z</time>
      </trkpt>
      <trkpt lat="44.5184" lon="4.61178">
        <ele>180.39999389648</ele>
        <time>2020-05-31T07:08:29Z</time>
      </trkpt>
      <trkpt lat="44.51843" lon="4.61175">
        <ele>180.60000610352</ele>
        <time>2020-05-31T07:08:28Z</time>
      </trkpt>
      <trkpt lat="44.51845" lon="4.61171">
        <ele>180.60000610352</ele>
        <time>2020-05-31T07:08:27Z</time>
      </trkpt>
      <trkpt lat="44.51846" lon="4.61167">
        <ele>181</ele>
        <time>2020-05-31T07:08:26Z</time>
      </trkpt>
      <trkpt lat="44.51847" lon="4.61157">
        <ele>181.19999694824</ele>
        <time>2020-05-31T07:08:24Z</time>
      </trkpt>
      <trkpt lat="44.51847" lon="4.61147">
        <ele>181.39999389648</ele>
        <time>2020-05-31T07:08:22Z</time>
      </trkpt>
      <trkpt lat="44.51848" lon="4.61138">
        <ele>181.80000305176</ele>
        <time>2020-05-31T07:08:20Z</time>
      </trkpt>
      <trkpt lat="44.51848" lon="4.61134">
        <ele>182</ele>
        <time>2020-05-31T07:08:19Z</time>
      </trkpt>
      <trkpt lat="44.51848" lon="4.61126">
        <ele>183</ele>
        <time>2020-05-31T07:08:17Z</time>
      </trkpt>
      <trkpt lat="44.51847" lon="4.61122">
        <ele>184</ele>
        <time>2020-05-31T07:08:16Z</time>
      </trkpt>
      <trkpt lat="44.51848" lon="4.61118">
        <ele>184</ele>
        <time>2020-05-31T07:08:15Z</time>
      </trkpt>
      <trkpt lat="44.51848" lon="4.61114">
        <ele>184.60000610352</ele>
        <time>2020-05-31T07:08:14Z</time>
      </trkpt>
      <trkpt lat="44.51849" lon="4.61111">
        <ele>185.39999389648</ele>
        <time>2020-05-31T07:08:13Z</time>
      </trkpt>
      <trkpt lat="44.51851" lon="4.61108">
        <ele>185.80000305176</ele>
        <time>2020-05-31T07:08:12Z</time>
      </trkpt>
      <trkpt lat="44.51853" lon="4.61106">
        <ele>186.39999389648</ele>
        <time>2020-05-31T07:08:11Z</time>
      </trkpt>
      <trkpt lat="44.51856" lon="4.61104">
        <ele>187</ele>
        <time>2020-05-31T07:08:10Z</time>
      </trkpt>
      <trkpt lat="44.51859" lon="4.61103">
        <ele>187</ele>
        <time>2020-05-31T07:08:09Z</time>
      </trkpt>
      <trkpt lat="44.51863" lon="4.61105">
        <ele>187.39999389648</ele>
        <time>2020-05-31T07:08:08Z</time>
      </trkpt>
      <trkpt lat="44.51867" lon="4.61107">
        <ele>187.60000610352</ele>
        <time>2020-05-31T07:08:07Z</time>
      </trkpt>
      <trkpt lat="44.51872" lon="4.61111">
        <ele>187.80000305176</ele>
        <time>2020-05-31T07:08:06Z</time>
      </trkpt>
      <trkpt lat="44.51875" lon="4.61115">
        <ele>187.80000305176</ele>
        <time>2020-05-31T07:08:05Z</time>
      </trkpt>
      <trkpt lat="44.51882" lon="4.61122">
        <ele>187.80000305176</ele>
        <time>2020-05-31T07:08:03Z</time>
      </trkpt>
      <trkpt lat="44.51885" lon="4.61126">
        <ele>188</ele>
        <time>2020-05-31T07:08:02Z</time>
      </trkpt>
      <trkpt lat="44.51888" lon="4.61129">
        <ele>188</ele>
        <time>2020-05-31T07:08:01Z</time>
      </trkpt>
      <trkpt lat="44.51893" lon="4.61132">
        <ele>188</ele>
        <time>2020-05-31T07:07:59Z</time>
      </trkpt>
      <trkpt lat="44.51896" lon="4.61134">
        <ele>188.19999694824</ele>
        <time>2020-05-31T07:07:57Z</time>
      </trkpt>
      <trkpt lat="44.51897" lon="4.61134">
        <ele>188.19999694824</ele>
        <time>2020-05-31T07:07:56Z</time>
      </trkpt>
      <trkpt lat="44.51898" lon="4.61134">
        <ele>189.19999694824</ele>
        <time>2020-05-31T07:07:51Z</time>
      </trkpt>
      <trkpt lat="44.51898" lon="4.61135">
        <ele>189.80000305176</ele>
        <time>2020-05-31T07:07:47Z</time>
      </trkpt>
      <trkpt lat="44.519" lon="4.61135">
        <ele>190</ele>
        <time>2020-05-31T07:07:46Z</time>
      </trkpt>
      <trkpt lat="44.51903" lon="4.61134">
        <ele>190.19999694824</ele>
        <time>2020-05-31T07:07:45Z</time>
      </trkpt>
      <trkpt lat="44.5191" lon="4.61132">
        <ele>190.19999694824</ele>
        <time>2020-05-31T07:07:43Z</time>
      </trkpt>
      <trkpt lat="44.5192" lon="4.61128">
        <ele>190.39999389648</ele>
        <time>2020-05-31T07:07:40Z</time>
      </trkpt>
      <trkpt lat="44.51926" lon="4.61125">
        <ele>190.60000610352</ele>
        <time>2020-05-31T07:07:38Z</time>
      </trkpt>
      <trkpt lat="44.51928" lon="4.61124">
        <ele>190.60000610352</ele>
        <time>2020-05-31T07:07:37Z</time>
      </trkpt>
      <trkpt lat="44.5193" lon="4.61122">
        <ele>190.60000610352</ele>
        <time>2020-05-31T07:07:36Z</time>
      </trkpt>
      <trkpt lat="44.51933" lon="4.61121">
        <ele>190.80000305176</ele>
        <time>2020-05-31T07:07:35Z</time>
      </trkpt>
      <trkpt lat="44.51935" lon="4.6112">
        <ele>190.80000305176</ele>
        <time>2020-05-31T07:07:34Z</time>
      </trkpt>
      <trkpt lat="44.51936" lon="4.6112">
        <ele>190.80000305176</ele>
        <time>2020-05-31T07:07:33Z</time>
      </trkpt>
      <trkpt lat="44.51939" lon="4.6112">
        <ele>190.60000610352</ele>
        <time>2020-05-31T07:07:29Z</time>
      </trkpt>
      <trkpt lat="44.51939" lon="4.6112">
        <ele>190.80000305176</ele>
        <time>2020-05-31T07:07:27Z</time>
      </trkpt>
      <trkpt lat="44.51939" lon="4.61119">
        <ele>190.80000305176</ele>
        <time>2020-05-31T07:07:26Z</time>
      </trkpt>
      <trkpt lat="44.5194" lon="4.61118">
        <ele>190.80000305176</ele>
        <time>2020-05-31T07:07:21Z</time>
      </trkpt>
      <trkpt lat="44.5194" lon="4.61118">
        <ele>190.80000305176</ele>
        <time>2020-05-31T07:07:17Z</time>
      </trkpt>
      <trkpt lat="44.51941" lon="4.61117">
        <ele>191</ele>
        <time>2020-05-31T07:07:16Z</time>
      </trkpt>
      <trkpt lat="44.51942" lon="4.61117">
        <ele>191</ele>
        <time>2020-05-31T07:07:14Z</time>
      </trkpt>
      <trkpt lat="44.51942" lon="4.61117">
        <ele>194.60000610352</ele>
        <time>2020-05-31T07:07:04Z</time>
      </trkpt>
      <trkpt lat="44.51943" lon="4.61116">
        <ele>195</ele>
        <time>2020-05-31T07:07:03Z</time>
      </trkpt>
      <trkpt lat="44.51945" lon="4.61115">
        <ele>195.60000610352</ele>
        <time>2020-05-31T07:07:02Z</time>
      </trkpt>
      <trkpt lat="44.51949" lon="4.61113">
        <ele>195.60000610352</ele>
        <time>2020-05-31T07:07:01Z</time>
      </trkpt>
      <trkpt lat="44.51953" lon="4.61113">
        <ele>195.60000610352</ele>
        <time>2020-05-31T07:07:00Z</time>
      </trkpt>
      <trkpt lat="44.51958" lon="4.61113">
        <ele>195.60000610352</ele>
        <time>2020-05-31T07:06:59Z</time>
      </trkpt>
      <trkpt lat="44.51964" lon="4.61113">
        <ele>195.80000305176</ele>
        <time>2020-05-31T07:06:58Z</time>
      </trkpt>
      <trkpt lat="44.5197" lon="4.61112">
        <ele>195.80000305176</ele>
        <time>2020-05-31T07:06:57Z</time>
      </trkpt>
      <trkpt lat="44.51977" lon="4.61111">
        <ele>195.80000305176</ele>
        <time>2020-05-31T07:06:56Z</time>
      </trkpt>
      <trkpt lat="44.51983" lon="4.61109">
        <ele>195.80000305176</ele>
        <time>2020-05-31T07:06:55Z</time>
      </trkpt>
      <trkpt lat="44.51989" lon="4.61108">
        <ele>196</ele>
        <time>2020-05-31T07:06:54Z</time>
      </trkpt>
      <trkpt lat="44.51999" lon="4.61108">
        <ele>196.19999694824</ele>
        <time>2020-05-31T07:06:52Z</time>
      </trkpt>
      <trkpt lat="44.52012" lon="4.61105">
        <ele>196.60000610352</ele>
        <time>2020-05-31T07:06:49Z</time>
      </trkpt>
      <trkpt lat="44.52016" lon="4.61104">
        <ele>196.60000610352</ele>
        <time>2020-05-31T07:06:48Z</time>
      </trkpt>
      <trkpt lat="44.5202" lon="4.61103">
        <ele>197</ele>
        <time>2020-05-31T07:06:47Z</time>
      </trkpt>
      <trkpt lat="44.52025" lon="4.61101">
        <ele>197.60000610352</ele>
        <time>2020-05-31T07:06:46Z</time>
      </trkpt>
      <trkpt lat="44.52051" lon="4.61094">
        <ele>197.80000305176</ele>
        <time>2020-05-31T07:06:40Z</time>
      </trkpt>
      <trkpt lat="44.52055" lon="4.61093">
        <ele>197.80000305176</ele>
        <time>2020-05-31T07:06:39Z</time>
      </trkpt>
      <trkpt lat="44.52059" lon="4.61092">
        <ele>198</ele>
        <time>2020-05-31T07:06:38Z</time>
      </trkpt>
      <trkpt lat="44.52064" lon="4.61091">
        <ele>198</ele>
        <time>2020-05-31T07:06:37Z</time>
      </trkpt>
      <trkpt lat="44.52068" lon="4.61091">
        <ele>198</ele>
        <time>2020-05-31T07:06:36Z</time>
      </trkpt>
      <trkpt lat="44.52072" lon="4.6109">
        <ele>198</ele>
        <time>2020-05-31T07:06:35Z</time>
      </trkpt>
      <trkpt lat="44.52076" lon="4.6109">
        <ele>198</ele>
        <time>2020-05-31T07:06:34Z</time>
      </trkpt>
      <trkpt lat="44.5208" lon="4.61089">
        <ele>198.19999694824</ele>
        <time>2020-05-31T07:06:33Z</time>
      </trkpt>
      <trkpt lat="44.52084" lon="4.61088">
        <ele>198.19999694824</ele>
        <time>2020-05-31T07:06:32Z</time>
      </trkpt>
      <trkpt lat="44.52089" lon="4.61087">
        <ele>198.39999389648</ele>
        <time>2020-05-31T07:06:31Z</time>
      </trkpt>
      <trkpt lat="44.52112" lon="4.61085">
        <ele>198.39999389648</ele>
        <time>2020-05-31T07:06:26Z</time>
      </trkpt>
      <trkpt lat="44.52116" lon="4.61084">
        <ele>198.39999389648</ele>
        <time>2020-05-31T07:06:25Z</time>
      </trkpt>
      <trkpt lat="44.5212" lon="4.61085">
        <ele>198.19999694824</ele>
        <time>2020-05-31T07:06:24Z</time>
      </trkpt>
      <trkpt lat="44.52124" lon="4.61086">
        <ele>198.39999389648</ele>
        <time>2020-05-31T07:06:23Z</time>
      </trkpt>
      <trkpt lat="44.52128" lon="4.61088">
        <ele>198.19999694824</ele>
        <time>2020-05-31T07:06:22Z</time>
      </trkpt>
      <trkpt lat="44.52132" lon="4.61089">
        <ele>198.19999694824</ele>
        <time>2020-05-31T07:06:21Z</time>
      </trkpt>
      <trkpt lat="44.52136" lon="4.61091">
        <ele>198.19999694824</ele>
        <time>2020-05-31T07:06:20Z</time>
      </trkpt>
      <trkpt lat="44.52145" lon="4.61096">
        <ele>198.19999694824</ele>
        <time>2020-05-31T07:06:18Z</time>
      </trkpt>
      <trkpt lat="44.52148" lon="4.61099">
        <ele>198.19999694824</ele>
        <time>2020-05-31T07:06:17Z</time>
      </trkpt>
      <trkpt lat="44.52152" lon="4.61103">
        <ele>198</ele>
        <time>2020-05-31T07:06:16Z</time>
      </trkpt>
      <trkpt lat="44.52155" lon="4.61107">
        <ele>198.19999694824</ele>
        <time>2020-05-31T07:06:15Z</time>
      </trkpt>
      <trkpt lat="44.52163" lon="4.61112">
        <ele>197.80000305176</ele>
        <time>2020-05-31T07:06:13Z</time>
      </trkpt>
      <trkpt lat="44.52167" lon="4.61114">
        <ele>197.80000305176</ele>
        <time>2020-05-31T07:06:12Z</time>
      </trkpt>
      <trkpt lat="44.52171" lon="4.61117">
        <ele>197.80000305176</ele>
        <time>2020-05-31T07:06:11Z</time>
      </trkpt>
      <trkpt lat="44.5218" lon="4.61121">
        <ele>197.39999389648</ele>
        <time>2020-05-31T07:06:09Z</time>
      </trkpt>
      <trkpt lat="44.52184" lon="4.61123">
        <ele>197.39999389648</ele>
        <time>2020-05-31T07:06:08Z</time>
      </trkpt>
      <trkpt lat="44.52196" lon="4.61131">
        <ele>197.19999694824</ele>
        <time>2020-05-31T07:06:05Z</time>
      </trkpt>
      <trkpt lat="44.52199" lon="4.61134">
        <ele>197</ele>
        <time>2020-05-31T07:06:04Z</time>
      </trkpt>
      <trkpt lat="44.52203" lon="4.61136">
        <ele>197</ele>
        <time>2020-05-31T07:06:03Z</time>
      </trkpt>
      <trkpt lat="44.52207" lon="4.61138">
        <ele>197</ele>
        <time>2020-05-31T07:06:02Z</time>
      </trkpt>
      <trkpt lat="44.52211" lon="4.6114">
        <ele>196.80000305176</ele>
        <time>2020-05-31T07:06:01Z</time>
      </trkpt>
      <trkpt lat="44.52215" lon="4.61142">
        <ele>196.80000305176</ele>
        <time>2020-05-31T07:06:00Z</time>
      </trkpt>
      <trkpt lat="44.52219" lon="4.61144">
        <ele>196.80000305176</ele>
        <time>2020-05-31T07:05:59Z</time>
      </trkpt>
      <trkpt lat="44.52223" lon="4.61146">
        <ele>196.60000610352</ele>
        <time>2020-05-31T07:05:58Z</time>
      </trkpt>
      <trkpt lat="44.52227" lon="4.61148">
        <ele>196.80000305176</ele>
        <time>2020-05-31T07:05:57Z</time>
      </trkpt>
      <trkpt lat="44.52231" lon="4.6115">
        <ele>196.60000610352</ele>
        <time>2020-05-31T07:05:56Z</time>
      </trkpt>
      <trkpt lat="44.52235" lon="4.61151">
        <ele>196.60000610352</ele>
        <time>2020-05-31T07:05:55Z</time>
      </trkpt>
      <trkpt lat="44.52239" lon="4.61153">
        <ele>196.60000610352</ele>
        <time>2020-05-31T07:05:54Z</time>
      </trkpt>
      <trkpt lat="44.52244" lon="4.61154">
        <ele>196.39999389648</ele>
        <time>2020-05-31T07:05:53Z</time>
      </trkpt>
      <trkpt lat="44.52248" lon="4.61156">
        <ele>196.19999694824</ele>
        <time>2020-05-31T07:05:52Z</time>
      </trkpt>
      <trkpt lat="44.52271" lon="4.61161">
        <ele>195.80000305176</ele>
        <time>2020-05-31T07:05:47Z</time>
      </trkpt>
      <trkpt lat="44.52274" lon="4.61162">
        <ele>195.60000610352</ele>
        <time>2020-05-31T07:05:46Z</time>
      </trkpt>
      <trkpt lat="44.52281" lon="4.61164">
        <ele>195.39999389648</ele>
        <time>2020-05-31T07:05:44Z</time>
      </trkpt>
      <trkpt lat="44.52284" lon="4.61165">
        <ele>195.39999389648</ele>
        <time>2020-05-31T07:05:43Z</time>
      </trkpt>
      <trkpt lat="44.52287" lon="4.61167">
        <ele>195.39999389648</ele>
        <time>2020-05-31T07:05:42Z</time>
      </trkpt>
      <trkpt lat="44.5229" lon="4.61167">
        <ele>195.19999694824</ele>
        <time>2020-05-31T07:05:41Z</time>
      </trkpt>
      <trkpt lat="44.52293" lon="4.61168">
        <ele>195.19999694824</ele>
        <time>2020-05-31T07:05:40Z</time>
      </trkpt>
      <trkpt lat="44.52296" lon="4.61169">
        <ele>195</ele>
        <time>2020-05-31T07:05:39Z</time>
      </trkpt>
      <trkpt lat="44.52298" lon="4.6117">
        <ele>194.80000305176</ele>
        <time>2020-05-31T07:05:38Z</time>
      </trkpt>
      <trkpt lat="44.52302" lon="4.6117">
        <ele>194.60000610352</ele>
        <time>2020-05-31T07:05:37Z</time>
      </trkpt>
      <trkpt lat="44.52305" lon="4.61172">
        <ele>194.80000305176</ele>
        <time>2020-05-31T07:05:36Z</time>
      </trkpt>
      <trkpt lat="44.52308" lon="4.61173">
        <ele>194.60000610352</ele>
        <time>2020-05-31T07:05:35Z</time>
      </trkpt>
      <trkpt lat="44.5231" lon="4.61174">
        <ele>194.80000305176</ele>
        <time>2020-05-31T07:05:34Z</time>
      </trkpt>
      <trkpt lat="44.52315" lon="4.61175">
        <ele>194.80000305176</ele>
        <time>2020-05-31T07:05:32Z</time>
      </trkpt>
      <trkpt lat="44.52318" lon="4.61176">
        <ele>194.60000610352</ele>
        <time>2020-05-31T07:05:31Z</time>
      </trkpt>
      <trkpt lat="44.52325" lon="4.61176">
        <ele>195</ele>
        <time>2020-05-31T07:05:28Z</time>
      </trkpt>
      <trkpt lat="44.52328" lon="4.61176">
        <ele>195.19999694824</ele>
        <time>2020-05-31T07:05:27Z</time>
      </trkpt>
      <trkpt lat="44.52332" lon="4.61175">
        <ele>196.19999694824</ele>
        <time>2020-05-31T07:05:25Z</time>
      </trkpt>
      <trkpt lat="44.52334" lon="4.61174">
        <ele>196.19999694824</ele>
        <time>2020-05-31T07:05:24Z</time>
      </trkpt>
      <trkpt lat="44.52335" lon="4.61174">
        <ele>196.39999389648</ele>
        <time>2020-05-31T07:05:23Z</time>
      </trkpt>
      <trkpt lat="44.52337" lon="4.61173">
        <ele>197</ele>
        <time>2020-05-31T07:05:22Z</time>
      </trkpt>
      <trkpt lat="44.52338" lon="4.61172">
        <ele>197.39999389648</ele>
        <time>2020-05-31T07:05:21Z</time>
      </trkpt>
      <trkpt lat="44.5234" lon="4.6117">
        <ele>197.80000305176</ele>
        <time>2020-05-31T07:05:20Z</time>
      </trkpt>
      <trkpt lat="44.52343" lon="4.61167">
        <ele>198.39999389648</ele>
        <time>2020-05-31T07:05:19Z</time>
      </trkpt>
      <trkpt lat="44.52347" lon="4.61165">
        <ele>199</ele>
        <time>2020-05-31T07:05:18Z</time>
      </trkpt>
      <trkpt lat="44.52355" lon="4.61162">
        <ele>199.39999389648</ele>
        <time>2020-05-31T07:05:16Z</time>
      </trkpt>
      <trkpt lat="44.52358" lon="4.61162">
        <ele>199.60000610352</ele>
        <time>2020-05-31T07:05:15Z</time>
      </trkpt>
      <trkpt lat="44.52361" lon="4.61161">
        <ele>199.80000305176</ele>
        <time>2020-05-31T07:05:14Z</time>
      </trkpt>
      <trkpt lat="44.52364" lon="4.61159">
        <ele>199.80000305176</ele>
        <time>2020-05-31T07:05:13Z</time>
      </trkpt>
      <trkpt lat="44.52367" lon="4.61157">
        <ele>200.19999694824</ele>
        <time>2020-05-31T07:05:12Z</time>
      </trkpt>
      <trkpt lat="44.52369" lon="4.61153">
        <ele>200.39999389648</ele>
        <time>2020-05-31T07:05:11Z</time>
      </trkpt>
      <trkpt lat="44.52375" lon="4.61147">
        <ele>201.19999694824</ele>
        <time>2020-05-31T07:05:09Z</time>
      </trkpt>
      <trkpt lat="44.5238" lon="4.61143">
        <ele>202.19999694824</ele>
        <time>2020-05-31T07:05:07Z</time>
      </trkpt>
      <trkpt lat="44.52382" lon="4.61141">
        <ele>202.80000305176</ele>
        <time>2020-05-31T07:05:06Z</time>
      </trkpt>
      <trkpt lat="44.52385" lon="4.61139">
        <ele>202.80000305176</ele>
        <time>2020-05-31T07:05:05Z</time>
      </trkpt>
      <trkpt lat="44.52389" lon="4.61138">
        <ele>203</ele>
        <time>2020-05-31T07:05:04Z</time>
      </trkpt>
      <trkpt lat="44.52393" lon="4.61136">
        <ele>203</ele>
        <time>2020-05-31T07:05:03Z</time>
      </trkpt>
      <trkpt lat="44.52396" lon="4.61133">
        <ele>203</ele>
        <time>2020-05-31T07:05:02Z</time>
      </trkpt>
      <trkpt lat="44.524" lon="4.61131">
        <ele>203.19999694824</ele>
        <time>2020-05-31T07:05:01Z</time>
      </trkpt>
      <trkpt lat="44.52403" lon="4.61128">
        <ele>203.39999389648</ele>
        <time>2020-05-31T07:05:00Z</time>
      </trkpt>
      <trkpt lat="44.52405" lon="4.61126">
        <ele>203.39999389648</ele>
        <time>2020-05-31T07:04:59Z</time>
      </trkpt>
      <trkpt lat="44.52408" lon="4.61123">
        <ele>203.60000610352</ele>
        <time>2020-05-31T07:04:58Z</time>
      </trkpt>
      <trkpt lat="44.52412" lon="4.6112">
        <ele>203.60000610352</ele>
        <time>2020-05-31T07:04:57Z</time>
      </trkpt>
      <trkpt lat="44.52419" lon="4.61116">
        <ele>203.60000610352</ele>
        <time>2020-05-31T07:04:55Z</time>
      </trkpt>
      <trkpt lat="44.52422" lon="4.61114">
        <ele>203.60000610352</ele>
        <time>2020-05-31T07:04:54Z</time>
      </trkpt>
      <trkpt lat="44.52425" lon="4.61112">
        <ele>203.60000610352</ele>
        <time>2020-05-31T07:04:53Z</time>
      </trkpt>
      <trkpt lat="44.52428" lon="4.61109">
        <ele>203.60000610352</ele>
        <time>2020-05-31T07:04:52Z</time>
      </trkpt>
      <trkpt lat="44.5243" lon="4.61107">
        <ele>203.60000610352</ele>
        <time>2020-05-31T07:04:51Z</time>
      </trkpt>
      <trkpt lat="44.52432" lon="4.61105">
        <ele>203.60000610352</ele>
        <time>2020-05-31T07:04:50Z</time>
      </trkpt>
      <trkpt lat="44.52435" lon="4.61104">
        <ele>203.39999389648</ele>
        <time>2020-05-31T07:04:49Z</time>
      </trkpt>
      <trkpt lat="44.52442" lon="4.61103">
        <ele>203</ele>
        <time>2020-05-31T07:04:47Z</time>
      </trkpt>
      <trkpt lat="44.52445" lon="4.61101">
        <ele>203</ele>
        <time>2020-05-31T07:04:46Z</time>
      </trkpt>
      <trkpt lat="44.52448" lon="4.611">
        <ele>203</ele>
        <time>2020-05-31T07:04:45Z</time>
      </trkpt>
      <trkpt lat="44.52451" lon="4.61099">
        <ele>202.80000305176</ele>
        <time>2020-05-31T07:04:44Z</time>
      </trkpt>
      <trkpt lat="44.52454" lon="4.61101">
        <ele>202.80000305176</ele>
        <time>2020-05-31T07:04:43Z</time>
      </trkpt>
      <trkpt lat="44.52456" lon="4.61103">
        <ele>202.60000610352</ele>
        <time>2020-05-31T07:04:42Z</time>
      </trkpt>
      <trkpt lat="44.52459" lon="4.61105">
        <ele>202.60000610352</ele>
        <time>2020-05-31T07:04:41Z</time>
      </trkpt>
      <trkpt lat="44.52461" lon="4.61107">
        <ele>202.60000610352</ele>
        <time>2020-05-31T07:04:40Z</time>
      </trkpt>
      <trkpt lat="44.52463" lon="4.61109">
        <ele>202.60000610352</ele>
        <time>2020-05-31T07:04:39Z</time>
      </trkpt>
      <trkpt lat="44.52466" lon="4.6111">
        <ele>202.39999389648</ele>
        <time>2020-05-31T07:04:38Z</time>
      </trkpt>
      <trkpt lat="44.52474" lon="4.61113">
        <ele>202.19999694824</ele>
        <time>2020-05-31T07:04:35Z</time>
      </trkpt>
      <trkpt lat="44.5248" lon="4.61115">
        <ele>202</ele>
        <time>2020-05-31T07:04:33Z</time>
      </trkpt>
      <trkpt lat="44.52483" lon="4.61116">
        <ele>201.80000305176</ele>
        <time>2020-05-31T07:04:32Z</time>
      </trkpt>
      <trkpt lat="44.52486" lon="4.61117">
        <ele>202</ele>
        <time>2020-05-31T07:04:31Z</time>
      </trkpt>
      <trkpt lat="44.52489" lon="4.61117">
        <ele>201.80000305176</ele>
        <time>2020-05-31T07:04:30Z</time>
      </trkpt>
      <trkpt lat="44.52493" lon="4.61116">
        <ele>201.39999389648</ele>
        <time>2020-05-31T07:04:29Z</time>
      </trkpt>
      <trkpt lat="44.52496" lon="4.61114">
        <ele>201.39999389648</ele>
        <time>2020-05-31T07:04:28Z</time>
      </trkpt>
      <trkpt lat="44.52499" lon="4.61112">
        <ele>201</ele>
        <time>2020-05-31T07:04:27Z</time>
      </trkpt>
      <trkpt lat="44.52502" lon="4.61112">
        <ele>201.19999694824</ele>
        <time>2020-05-31T07:04:26Z</time>
      </trkpt>
      <trkpt lat="44.52506" lon="4.61112">
        <ele>201</ele>
        <time>2020-05-31T07:04:25Z</time>
      </trkpt>
      <trkpt lat="44.5251" lon="4.61113">
        <ele>200.80000305176</ele>
        <time>2020-05-31T07:04:24Z</time>
      </trkpt>
      <trkpt lat="44.52514" lon="4.61115">
        <ele>200.80000305176</ele>
        <time>2020-05-31T07:04:23Z</time>
      </trkpt>
      <trkpt lat="44.52517" lon="4.61117">
        <ele>200.60000610352</ele>
        <time>2020-05-31T07:04:22Z</time>
      </trkpt>
      <trkpt lat="44.52521" lon="4.61119">
        <ele>200.19999694824</ele>
        <time>2020-05-31T07:04:21Z</time>
      </trkpt>
      <trkpt lat="44.52524" lon="4.61121">
        <ele>200.19999694824</ele>
        <time>2020-05-31T07:04:20Z</time>
      </trkpt>
      <trkpt lat="44.52528" lon="4.61123">
        <ele>200</ele>
        <time>2020-05-31T07:04:19Z</time>
      </trkpt>
      <trkpt lat="44.52532" lon="4.61124">
        <ele>199.80000305176</ele>
        <time>2020-05-31T07:04:18Z</time>
      </trkpt>
      <trkpt lat="44.52535" lon="4.61126">
        <ele>199.80000305176</ele>
        <time>2020-05-31T07:04:17Z</time>
      </trkpt>
      <trkpt lat="44.52539" lon="4.61127">
        <ele>199.80000305176</ele>
        <time>2020-05-31T07:04:16Z</time>
      </trkpt>
      <trkpt lat="44.52542" lon="4.61129">
        <ele>199.80000305176</ele>
        <time>2020-05-31T07:04:15Z</time>
      </trkpt>
      <trkpt lat="44.52546" lon="4.6113">
        <ele>199.80000305176</ele>
        <time>2020-05-31T07:04:14Z</time>
      </trkpt>
      <trkpt lat="44.52549" lon="4.61131">
        <ele>199.80000305176</ele>
        <time>2020-05-31T07:04:13Z</time>
      </trkpt>
      <trkpt lat="44.52552" lon="4.61133">
        <ele>199.80000305176</ele>
        <time>2020-05-31T07:04:12Z</time>
      </trkpt>
      <trkpt lat="44.52558" lon="4.61133">
        <ele>199.80000305176</ele>
        <time>2020-05-31T07:04:10Z</time>
      </trkpt>
      <trkpt lat="44.52561" lon="4.61132">
        <ele>199.80000305176</ele>
        <time>2020-05-31T07:04:09Z</time>
      </trkpt>
      <trkpt lat="44.52564" lon="4.61131">
        <ele>199.80000305176</ele>
        <time>2020-05-31T07:04:08Z</time>
      </trkpt>
      <trkpt lat="44.52566" lon="4.61131">
        <ele>199.80000305176</ele>
        <time>2020-05-31T07:04:07Z</time>
      </trkpt>
      <trkpt lat="44.52572" lon="4.61129">
        <ele>200</ele>
        <time>2020-05-31T07:04:05Z</time>
      </trkpt>
      <trkpt lat="44.52575" lon="4.61128">
        <ele>200.19999694824</ele>
        <time>2020-05-31T07:04:04Z</time>
      </trkpt>
      <trkpt lat="44.52577" lon="4.61126">
        <ele>200.19999694824</ele>
        <time>2020-05-31T07:04:03Z</time>
      </trkpt>
      <trkpt lat="44.52579" lon="4.61122">
        <ele>200.39999389648</ele>
        <time>2020-05-31T07:04:02Z</time>
      </trkpt>
      <trkpt lat="44.52581" lon="4.61119">
        <ele>200.19999694824</ele>
        <time>2020-05-31T07:04:01Z</time>
      </trkpt>
      <trkpt lat="44.52585" lon="4.61112">
        <ele>200.39999389648</ele>
        <time>2020-05-31T07:03:59Z</time>
      </trkpt>
      <trkpt lat="44.52587" lon="4.61109">
        <ele>200.80000305176</ele>
        <time>2020-05-31T07:03:58Z</time>
      </trkpt>
      <trkpt lat="44.52592" lon="4.61105">
        <ele>201.19999694824</ele>
        <time>2020-05-31T07:03:56Z</time>
      </trkpt>
      <trkpt lat="44.52594" lon="4.61104">
        <ele>201.39999389648</ele>
        <time>2020-05-31T07:03:55Z</time>
      </trkpt>
      <trkpt lat="44.52596" lon="4.61102">
        <ele>201.39999389648</ele>
        <time>2020-05-31T07:03:54Z</time>
      </trkpt>
      <trkpt lat="44.52597" lon="4.61101">
        <ele>201.39999389648</ele>
        <time>2020-05-31T07:03:53Z</time>
      </trkpt>
      <trkpt lat="44.52599" lon="4.61101">
        <ele>201.39999389648</ele>
        <time>2020-05-31T07:03:52Z</time>
      </trkpt>
      <trkpt lat="44.526" lon="4.61103">
        <ele>201.60000610352</ele>
        <time>2020-05-31T07:03:51Z</time>
      </trkpt>
      <trkpt lat="44.52602" lon="4.61104">
        <ele>201.60000610352</ele>
        <time>2020-05-31T07:03:50Z</time>
      </trkpt>
      <trkpt lat="44.52607" lon="4.61105">
        <ele>202</ele>
        <time>2020-05-31T07:03:48Z</time>
      </trkpt>
      <trkpt lat="44.5261" lon="4.61104">
        <ele>201.80000305176</ele>
        <time>2020-05-31T07:03:47Z</time>
      </trkpt>
      <trkpt lat="44.52612" lon="4.61103">
        <ele>201.80000305176</ele>
        <time>2020-05-31T07:03:46Z</time>
      </trkpt>
      <trkpt lat="44.52614" lon="4.61102">
        <ele>202</ele>
        <time>2020-05-31T07:03:45Z</time>
      </trkpt>
      <trkpt lat="44.52616" lon="4.61101">
        <ele>202</ele>
        <time>2020-05-31T07:03:44Z</time>
      </trkpt>
      <trkpt lat="44.52618" lon="4.61101">
        <ele>202</ele>
        <time>2020-05-31T07:03:43Z</time>
      </trkpt>
      <trkpt lat="44.52619" lon="4.61103">
        <ele>201.80000305176</ele>
        <time>2020-05-31T07:03:42Z</time>
      </trkpt>
      <trkpt lat="44.52621" lon="4.61105">
        <ele>202</ele>
        <time>2020-05-31T07:03:41Z</time>
      </trkpt>
      <trkpt lat="44.52623" lon="4.61106">
        <ele>202</ele>
        <time>2020-05-31T07:03:40Z</time>
      </trkpt>
      <trkpt lat="44.52626" lon="4.61107">
        <ele>202.19999694824</ele>
        <time>2020-05-31T07:03:39Z</time>
      </trkpt>
      <trkpt lat="44.52628" lon="4.61107">
        <ele>202.19999694824</ele>
        <time>2020-05-31T07:03:38Z</time>
      </trkpt>
      <trkpt lat="44.52631" lon="4.61108">
        <ele>202.39999389648</ele>
        <time>2020-05-31T07:03:37Z</time>
      </trkpt>
      <trkpt lat="44.52634" lon="4.61109">
        <ele>202.39999389648</ele>
        <time>2020-05-31T07:03:36Z</time>
      </trkpt>
      <trkpt lat="44.52636" lon="4.6111">
        <ele>202.60000610352</ele>
        <time>2020-05-31T07:03:35Z</time>
      </trkpt>
      <trkpt lat="44.52638" lon="4.61111">
        <ele>202.60000610352</ele>
        <time>2020-05-31T07:03:34Z</time>
      </trkpt>
      <trkpt lat="44.5264" lon="4.61112">
        <ele>202.80000305176</ele>
        <time>2020-05-31T07:03:33Z</time>
      </trkpt>
      <trkpt lat="44.52642" lon="4.61112">
        <ele>203</ele>
        <time>2020-05-31T07:03:32Z</time>
      </trkpt>
      <trkpt lat="44.52645" lon="4.61113">
        <ele>203.19999694824</ele>
        <time>2020-05-31T07:03:31Z</time>
      </trkpt>
      <trkpt lat="44.52647" lon="4.61114">
        <ele>203.19999694824</ele>
        <time>2020-05-31T07:03:30Z</time>
      </trkpt>
      <trkpt lat="44.5265" lon="4.61114">
        <ele>203.60000610352</ele>
        <time>2020-05-31T07:03:29Z</time>
      </trkpt>
      <trkpt lat="44.52657" lon="4.61115">
        <ele>203.80000305176</ele>
        <time>2020-05-31T07:03:27Z</time>
      </trkpt>
      <trkpt lat="44.5266" lon="4.61115">
        <ele>203.80000305176</ele>
        <time>2020-05-31T07:03:26Z</time>
      </trkpt>
      <trkpt lat="44.52663" lon="4.61115">
        <ele>204</ele>
        <time>2020-05-31T07:03:25Z</time>
      </trkpt>
      <trkpt lat="44.52666" lon="4.61114">
        <ele>203.80000305176</ele>
        <time>2020-05-31T07:03:24Z</time>
      </trkpt>
      <trkpt lat="44.52668" lon="4.61114">
        <ele>203.80000305176</ele>
        <time>2020-05-31T07:03:23Z</time>
      </trkpt>
      <trkpt lat="44.52671" lon="4.61113">
        <ele>203.80000305176</ele>
        <time>2020-05-31T07:03:22Z</time>
      </trkpt>
      <trkpt lat="44.52673" lon="4.61112">
        <ele>203.80000305176</ele>
        <time>2020-05-31T07:03:21Z</time>
      </trkpt>
      <trkpt lat="44.52675" lon="4.61111">
        <ele>203.80000305176</ele>
        <time>2020-05-31T07:03:20Z</time>
      </trkpt>
      <trkpt lat="44.52677" lon="4.6111">
        <ele>203.60000610352</ele>
        <time>2020-05-31T07:03:19Z</time>
      </trkpt>
      <trkpt lat="44.52679" lon="4.61111">
        <ele>203.39999389648</ele>
        <time>2020-05-31T07:03:18Z</time>
      </trkpt>
      <trkpt lat="44.52682" lon="4.61112">
        <ele>203.39999389648</ele>
        <time>2020-05-31T07:03:17Z</time>
      </trkpt>
      <trkpt lat="44.52685" lon="4.61113">
        <ele>203.39999389648</ele>
        <time>2020-05-31T07:03:16Z</time>
      </trkpt>
      <trkpt lat="44.52688" lon="4.61114">
        <ele>202.80000305176</ele>
        <time>2020-05-31T07:03:15Z</time>
      </trkpt>
      <trkpt lat="44.52691" lon="4.61115">
        <ele>202.39999389648</ele>
        <time>2020-05-31T07:03:14Z</time>
      </trkpt>
      <trkpt lat="44.52695" lon="4.61116">
        <ele>202.39999389648</ele>
        <time>2020-05-31T07:03:13Z</time>
      </trkpt>
      <trkpt lat="44.52697" lon="4.61116">
        <ele>202</ele>
        <time>2020-05-31T07:03:12Z</time>
      </trkpt>
      <trkpt lat="44.527" lon="4.61116">
        <ele>201.80000305176</ele>
        <time>2020-05-31T07:03:11Z</time>
      </trkpt>
      <trkpt lat="44.52703" lon="4.61114">
        <ele>201</ele>
        <time>2020-05-31T07:03:10Z</time>
      </trkpt>
      <trkpt lat="44.52705" lon="4.61113">
        <ele>200.60000610352</ele>
        <time>2020-05-31T07:03:09Z</time>
      </trkpt>
      <trkpt lat="44.52708" lon="4.61111">
        <ele>200.19999694824</ele>
        <time>2020-05-31T07:03:08Z</time>
      </trkpt>
      <trkpt lat="44.5271" lon="4.6111">
        <ele>200.19999694824</ele>
        <time>2020-05-31T07:03:07Z</time>
      </trkpt>
      <trkpt lat="44.52712" lon="4.61109">
        <ele>200.19999694824</ele>
        <time>2020-05-31T07:03:06Z</time>
      </trkpt>
      <trkpt lat="44.52715" lon="4.61108">
        <ele>200</ele>
        <time>2020-05-31T07:03:05Z</time>
      </trkpt>
      <trkpt lat="44.52718" lon="4.61107">
        <ele>199.80000305176</ele>
        <time>2020-05-31T07:03:04Z</time>
      </trkpt>
      <trkpt lat="44.52721" lon="4.61106">
        <ele>199.60000610352</ele>
        <time>2020-05-31T07:03:03Z</time>
      </trkpt>
      <trkpt lat="44.52723" lon="4.61105">
        <ele>199.60000610352</ele>
        <time>2020-05-31T07:03:02Z</time>
      </trkpt>
      <trkpt lat="44.52725" lon="4.61105">
        <ele>199.60000610352</ele>
        <time>2020-05-31T07:03:01Z</time>
      </trkpt>
      <trkpt lat="44.52728" lon="4.61105">
        <ele>199.60000610352</ele>
        <time>2020-05-31T07:03:00Z</time>
      </trkpt>
      <trkpt lat="44.52731" lon="4.61105">
        <ele>199.39999389648</ele>
        <time>2020-05-31T07:02:59Z</time>
      </trkpt>
      <trkpt lat="44.52733" lon="4.61105">
        <ele>199.60000610352</ele>
        <time>2020-05-31T07:02:58Z</time>
      </trkpt>
      <trkpt lat="44.52736" lon="4.61104">
        <ele>199.39999389648</ele>
        <time>2020-05-31T07:02:57Z</time>
      </trkpt>
      <trkpt lat="44.52738" lon="4.61104">
        <ele>199.39999389648</ele>
        <time>2020-05-31T07:02:56Z</time>
      </trkpt>
      <trkpt lat="44.52741" lon="4.61103">
        <ele>199.19999694824</ele>
        <time>2020-05-31T07:02:55Z</time>
      </trkpt>
      <trkpt lat="44.52747" lon="4.61101">
        <ele>198.60000610352</ele>
        <time>2020-05-31T07:02:51Z</time>
      </trkpt>
      <trkpt lat="44.5275" lon="4.61101">
        <ele>198.39999389648</ele>
        <time>2020-05-31T07:02:48Z</time>
      </trkpt>
      <trkpt lat="44.52751" lon="4.611">
        <ele>198.19999694824</ele>
        <time>2020-05-31T07:02:45Z</time>
      </trkpt>
      <trkpt lat="44.52752" lon="4.611">
        <ele>198.19999694824</ele>
        <time>2020-05-31T07:02:44Z</time>
      </trkpt>
      <trkpt lat="44.52754" lon="4.611">
        <ele>198.19999694824</ele>
        <time>2020-05-31T07:02:43Z</time>
      </trkpt>
      <trkpt lat="44.52755" lon="4.61101">
        <ele>198.19999694824</ele>
        <time>2020-05-31T07:02:42Z</time>
      </trkpt>
      <trkpt lat="44.52757" lon="4.61103">
        <ele>198.39999389648</ele>
        <time>2020-05-31T07:02:41Z</time>
      </trkpt>
      <trkpt lat="44.52762" lon="4.61102">
        <ele>198.39999389648</ele>
        <time>2020-05-31T07:02:39Z</time>
      </trkpt>
      <trkpt lat="44.52764" lon="4.61101">
        <ele>198.60000610352</ele>
        <time>2020-05-31T07:02:38Z</time>
      </trkpt>
      <trkpt lat="44.52766" lon="4.61101">
        <ele>198.60000610352</ele>
        <time>2020-05-31T07:02:37Z</time>
      </trkpt>
      <trkpt lat="44.52767" lon="4.61101">
        <ele>198.80000305176</ele>
        <time>2020-05-31T07:02:36Z</time>
      </trkpt>
      <trkpt lat="44.52769" lon="4.61102">
        <ele>198.80000305176</ele>
        <time>2020-05-31T07:02:35Z</time>
      </trkpt>
      <trkpt lat="44.52772" lon="4.61102">
        <ele>199</ele>
        <time>2020-05-31T07:02:34Z</time>
      </trkpt>
      <trkpt lat="44.52775" lon="4.61103">
        <ele>199.19999694824</ele>
        <time>2020-05-31T07:02:33Z</time>
      </trkpt>
      <trkpt lat="44.52782" lon="4.61102">
        <ele>199.39999389648</ele>
        <time>2020-05-31T07:02:30Z</time>
      </trkpt>
      <trkpt lat="44.52783" lon="4.61102">
        <ele>199.80000305176</ele>
        <time>2020-05-31T07:02:29Z</time>
      </trkpt>
      <trkpt lat="44.52789" lon="4.61102">
        <ele>200.60000610352</ele>
        <time>2020-05-31T07:02:26Z</time>
      </trkpt>
      <trkpt lat="44.52791" lon="4.61102">
        <ele>200.39999389648</ele>
        <time>2020-05-31T07:02:25Z</time>
      </trkpt>
      <trkpt lat="44.52792" lon="4.61102">
        <ele>200.80000305176</ele>
        <time>2020-05-31T07:02:24Z</time>
      </trkpt>
      <trkpt lat="44.52793" lon="4.61101">
        <ele>200.60000610352</ele>
        <time>2020-05-31T07:02:22Z</time>
      </trkpt>
      <trkpt lat="44.52794" lon="4.61101">
        <ele>200.80000305176</ele>
        <time>2020-05-31T07:02:21Z</time>
      </trkpt>
      <trkpt lat="44.52795" lon="4.61101">
        <ele>200.80000305176</ele>
        <time>2020-05-31T07:02:20Z</time>
      </trkpt>
      <trkpt lat="44.52797" lon="4.61101">
        <ele>200.80000305176</ele>
        <time>2020-05-31T07:02:19Z</time>
      </trkpt>
      <trkpt lat="44.52799" lon="4.611">
        <ele>200.80000305176</ele>
        <time>2020-05-31T07:02:18Z</time>
      </trkpt>
      <trkpt lat="44.528" lon="4.61098">
        <ele>201</ele>
        <time>2020-05-31T07:02:17Z</time>
      </trkpt>
      <trkpt lat="44.52802" lon="4.61096">
        <ele>201.39999389648</ele>
        <time>2020-05-31T07:02:16Z</time>
      </trkpt>
      <trkpt lat="44.52803" lon="4.61094">
        <ele>204</ele>
        <time>2020-05-31T07:02:11Z</time>
      </trkpt>
      <trkpt lat="44.52804" lon="4.61093">
        <ele>205</ele>
        <time>2020-05-31T07:02:10Z</time>
      </trkpt>
      <trkpt lat="44.52807" lon="4.61093">
        <ele>205.60000610352</ele>
        <time>2020-05-31T07:02:09Z</time>
      </trkpt>
      <trkpt lat="44.52811" lon="4.61092">
        <ele>206</ele>
        <time>2020-05-31T07:02:08Z</time>
      </trkpt>
      <trkpt lat="44.52819" lon="4.61091">
        <ele>206.80000305176</ele>
        <time>2020-05-31T07:02:06Z</time>
      </trkpt>
      <trkpt lat="44.52824" lon="4.61091">
        <ele>207.19999694824</ele>
        <time>2020-05-31T07:02:05Z</time>
      </trkpt>
      <trkpt lat="44.52828" lon="4.6109">
        <ele>207.39999389648</ele>
        <time>2020-05-31T07:02:04Z</time>
      </trkpt>
      <trkpt lat="44.52832" lon="4.61088">
        <ele>208.19999694824</ele>
        <time>2020-05-31T07:02:03Z</time>
      </trkpt>
      <trkpt lat="44.52835" lon="4.61086">
        <ele>209.39999389648</ele>
        <time>2020-05-31T07:02:02Z</time>
      </trkpt>
      <trkpt lat="44.5284" lon="4.61085">
        <ele>209.80000305176</ele>
        <time>2020-05-31T07:02:01Z</time>
      </trkpt>
      <trkpt lat="44.52844" lon="4.61084">
        <ele>210.80000305176</ele>
        <time>2020-05-31T07:02:00Z</time>
      </trkpt>
      <trkpt lat="44.52849" lon="4.61082">
        <ele>211.19999694824</ele>
        <time>2020-05-31T07:01:59Z</time>
      </trkpt>
      <trkpt lat="44.52853" lon="4.61081">
        <ele>212.39999389648</ele>
        <time>2020-05-31T07:01:58Z</time>
      </trkpt>
      <trkpt lat="44.52858" lon="4.6108">
        <ele>212.80000305176</ele>
        <time>2020-05-31T07:01:57Z</time>
      </trkpt>
      <trkpt lat="44.52863" lon="4.61078">
        <ele>213.19999694824</ele>
        <time>2020-05-31T07:01:56Z</time>
      </trkpt>
      <trkpt lat="44.52867" lon="4.61076">
        <ele>213.60000610352</ele>
        <time>2020-05-31T07:01:55Z</time>
      </trkpt>
      <trkpt lat="44.52872" lon="4.61074">
        <ele>213.60000610352</ele>
        <time>2020-05-31T07:01:54Z</time>
      </trkpt>
      <trkpt lat="44.52877" lon="4.61073">
        <ele>214</ele>
        <time>2020-05-31T07:01:53Z</time>
      </trkpt>
      <trkpt lat="44.52886" lon="4.61071">
        <ele>214</ele>
        <time>2020-05-31T07:01:51Z</time>
      </trkpt>
      <trkpt lat="44.5289" lon="4.6107">
        <ele>214.19999694824</ele>
        <time>2020-05-31T07:01:50Z</time>
      </trkpt>
      <trkpt lat="44.52895" lon="4.61069">
        <ele>214.39999389648</ele>
        <time>2020-05-31T07:01:49Z</time>
      </trkpt>
      <trkpt lat="44.529" lon="4.61068">
        <ele>214.60000610352</ele>
        <time>2020-05-31T07:01:48Z</time>
      </trkpt>
      <trkpt lat="44.52905" lon="4.61068">
        <ele>215</ele>
        <time>2020-05-31T07:01:47Z</time>
      </trkpt>
      <trkpt lat="44.5291" lon="4.61069">
        <ele>215.19999694824</ele>
        <time>2020-05-31T07:01:46Z</time>
      </trkpt>
      <trkpt lat="44.5292" lon="4.6107">
        <ele>215.80000305176</ele>
        <time>2020-05-31T07:01:44Z</time>
      </trkpt>
      <trkpt lat="44.52925" lon="4.6107">
        <ele>216.19999694824</ele>
        <time>2020-05-31T07:01:43Z</time>
      </trkpt>
      <trkpt lat="44.5293" lon="4.61069">
        <ele>217</ele>
        <time>2020-05-31T07:01:42Z</time>
      </trkpt>
      <trkpt lat="44.52935" lon="4.61066">
        <ele>218</ele>
        <time>2020-05-31T07:01:41Z</time>
      </trkpt>
      <trkpt lat="44.52938" lon="4.61062">
        <ele>218.39999389648</ele>
        <time>2020-05-31T07:01:40Z</time>
      </trkpt>
      <trkpt lat="44.5294" lon="4.61057">
        <ele>218.39999389648</ele>
        <time>2020-05-31T07:01:39Z</time>
      </trkpt>
      <trkpt lat="44.52942" lon="4.6105">
        <ele>218.80000305176</ele>
        <time>2020-05-31T07:01:38Z</time>
      </trkpt>
      <trkpt lat="44.52942" lon="4.61044">
        <ele>218.80000305176</ele>
        <time>2020-05-31T07:01:37Z</time>
      </trkpt>
      <trkpt lat="44.52941" lon="4.61039">
        <ele>219.19999694824</ele>
        <time>2020-05-31T07:01:36Z</time>
      </trkpt>
      <trkpt lat="44.52939" lon="4.61033">
        <ele>219.60000610352</ele>
        <time>2020-05-31T07:01:35Z</time>
      </trkpt>
      <trkpt lat="44.52938" lon="4.61028">
        <ele>220.19999694824</ele>
        <time>2020-05-31T07:01:34Z</time>
      </trkpt>
      <trkpt lat="44.52936" lon="4.61022">
        <ele>220.39999389648</ele>
        <time>2020-05-31T07:01:33Z</time>
      </trkpt>
      <trkpt lat="44.52933" lon="4.6101">
        <ele>221</ele>
        <time>2020-05-31T07:01:31Z</time>
      </trkpt>
      <trkpt lat="44.52931" lon="4.61004">
        <ele>221</ele>
        <time>2020-05-31T07:01:30Z</time>
      </trkpt>
      <trkpt lat="44.52929" lon="4.60998">
        <ele>221.19999694824</ele>
        <time>2020-05-31T07:01:29Z</time>
      </trkpt>
      <trkpt lat="44.52927" lon="4.60993">
        <ele>221.19999694824</ele>
        <time>2020-05-31T07:01:28Z</time>
      </trkpt>
      <trkpt lat="44.52924" lon="4.60987">
        <ele>221.39999389648</ele>
        <time>2020-05-31T07:01:27Z</time>
      </trkpt>
      <trkpt lat="44.52923" lon="4.60981">
        <ele>221.60000610352</ele>
        <time>2020-05-31T07:01:26Z</time>
      </trkpt>
      <trkpt lat="44.52921" lon="4.60976">
        <ele>221.80000305176</ele>
        <time>2020-05-31T07:01:25Z</time>
      </trkpt>
      <trkpt lat="44.52919" lon="4.6097">
        <ele>222</ele>
        <time>2020-05-31T07:01:24Z</time>
      </trkpt>
      <trkpt lat="44.52916" lon="4.60963">
        <ele>222.19999694824</ele>
        <time>2020-05-31T07:01:23Z</time>
      </trkpt>
      <trkpt lat="44.52911" lon="4.6095">
        <ele>222.39999389648</ele>
        <time>2020-05-31T07:01:21Z</time>
      </trkpt>
      <trkpt lat="44.52909" lon="4.60943">
        <ele>222.80000305176</ele>
        <time>2020-05-31T07:01:20Z</time>
      </trkpt>
      <trkpt lat="44.52903" lon="4.60931">
        <ele>223.39999389648</ele>
        <time>2020-05-31T07:01:18Z</time>
      </trkpt>
      <trkpt lat="44.529" lon="4.60925">
        <ele>223.39999389648</ele>
        <time>2020-05-31T07:01:17Z</time>
      </trkpt>
      <trkpt lat="44.52898" lon="4.60919">
        <ele>223.39999389648</ele>
        <time>2020-05-31T07:01:16Z</time>
      </trkpt>
      <trkpt lat="44.52896" lon="4.60914">
        <ele>223.39999389648</ele>
        <time>2020-05-31T07:01:15Z</time>
      </trkpt>
      <trkpt lat="44.52892" lon="4.60902">
        <ele>223.60000610352</ele>
        <time>2020-05-31T07:01:13Z</time>
      </trkpt>
      <trkpt lat="44.52891" lon="4.60896">
        <ele>223.80000305176</ele>
        <time>2020-05-31T07:01:12Z</time>
      </trkpt>
      <trkpt lat="44.52889" lon="4.60891">
        <ele>223.80000305176</ele>
        <time>2020-05-31T07:01:11Z</time>
      </trkpt>
      <trkpt lat="44.52885" lon="4.60881">
        <ele>223.60000610352</ele>
        <time>2020-05-31T07:01:09Z</time>
      </trkpt>
      <trkpt lat="44.52882" lon="4.60876">
        <ele>223.80000305176</ele>
        <time>2020-05-31T07:01:08Z</time>
      </trkpt>
      <trkpt lat="44.52881" lon="4.60871">
        <ele>223.80000305176</ele>
        <time>2020-05-31T07:01:07Z</time>
      </trkpt>
      <trkpt lat="44.52879" lon="4.60866">
        <ele>223.80000305176</ele>
        <time>2020-05-31T07:01:06Z</time>
      </trkpt>
      <trkpt lat="44.52878" lon="4.60861">
        <ele>223.80000305176</ele>
        <time>2020-05-31T07:01:05Z</time>
      </trkpt>
      <trkpt lat="44.52876" lon="4.60857">
        <ele>223.80000305176</ele>
        <time>2020-05-31T07:01:04Z</time>
      </trkpt>
      <trkpt lat="44.52874" lon="4.60852">
        <ele>223.80000305176</ele>
        <time>2020-05-31T07:01:03Z</time>
      </trkpt>
      <trkpt lat="44.52873" lon="4.60848">
        <ele>224</ele>
        <time>2020-05-31T07:01:02Z</time>
      </trkpt>
      <trkpt lat="44.52871" lon="4.60843">
        <ele>224</ele>
        <time>2020-05-31T07:01:01Z</time>
      </trkpt>
      <trkpt lat="44.5287" lon="4.60837">
        <ele>224</ele>
        <time>2020-05-31T07:01:00Z</time>
      </trkpt>
      <trkpt lat="44.52871" lon="4.60833">
        <ele>223.80000305176</ele>
        <time>2020-05-31T07:00:59Z</time>
      </trkpt>
      <trkpt lat="44.52871" lon="4.60829">
        <ele>224</ele>
        <time>2020-05-31T07:00:58Z</time>
      </trkpt>
      <trkpt lat="44.52873" lon="4.60826">
        <ele>224</ele>
        <time>2020-05-31T07:00:57Z</time>
      </trkpt>
      <trkpt lat="44.52876" lon="4.60824">
        <ele>224</ele>
        <time>2020-05-31T07:00:56Z</time>
      </trkpt>
      <trkpt lat="44.5288" lon="4.60824">
        <ele>223.80000305176</ele>
        <time>2020-05-31T07:00:55Z</time>
      </trkpt>
      <trkpt lat="44.52887" lon="4.60825">
        <ele>223.80000305176</ele>
        <time>2020-05-31T07:00:53Z</time>
      </trkpt>
      <trkpt lat="44.52897" lon="4.60825">
        <ele>223.60000610352</ele>
        <time>2020-05-31T07:00:50Z</time>
      </trkpt>
      <trkpt lat="44.529" lon="4.60825">
        <ele>223.39999389648</ele>
        <time>2020-05-31T07:00:49Z</time>
      </trkpt>
      <trkpt lat="44.52907" lon="4.60826">
        <ele>223.19999694824</ele>
        <time>2020-05-31T07:00:47Z</time>
      </trkpt>
      <trkpt lat="44.52909" lon="4.60826">
        <ele>223.19999694824</ele>
        <time>2020-05-31T07:00:46Z</time>
      </trkpt>
      <trkpt lat="44.52919" lon="4.60827">
        <ele>222.60000610352</ele>
        <time>2020-05-31T07:00:43Z</time>
      </trkpt>
      <trkpt lat="44.52923" lon="4.60827">
        <ele>222.19999694824</ele>
        <time>2020-05-31T07:00:42Z</time>
      </trkpt>
      <trkpt lat="44.52926" lon="4.60827">
        <ele>222.19999694824</ele>
        <time>2020-05-31T07:00:41Z</time>
      </trkpt>
      <trkpt lat="44.5293" lon="4.60827">
        <ele>221.60000610352</ele>
        <time>2020-05-31T07:00:40Z</time>
      </trkpt>
      <trkpt lat="44.52933" lon="4.60827">
        <ele>221.60000610352</ele>
        <time>2020-05-31T07:00:39Z</time>
      </trkpt>
      <trkpt lat="44.52935" lon="4.60826">
        <ele>221.19999694824</ele>
        <time>2020-05-31T07:00:38Z</time>
      </trkpt>
      <trkpt lat="44.52939" lon="4.60825">
        <ele>221.19999694824</ele>
        <time>2020-05-31T07:00:37Z</time>
      </trkpt>
      <trkpt lat="44.52942" lon="4.60824">
        <ele>220.80000305176</ele>
        <time>2020-05-31T07:00:36Z</time>
      </trkpt>
      <trkpt lat="44.52947" lon="4.60823">
        <ele>220.60000610352</ele>
        <time>2020-05-31T07:00:35Z</time>
      </trkpt>
      <trkpt lat="44.52951" lon="4.6082">
        <ele>220.39999389648</ele>
        <time>2020-05-31T07:00:34Z</time>
      </trkpt>
      <trkpt lat="44.52953" lon="4.60818">
        <ele>220</ele>
        <time>2020-05-31T07:00:33Z</time>
      </trkpt>
      <trkpt lat="44.52956" lon="4.60816">
        <ele>220</ele>
        <time>2020-05-31T07:00:32Z</time>
      </trkpt>
      <trkpt lat="44.52958" lon="4.60814">
        <ele>219.60000610352</ele>
        <time>2020-05-31T07:00:31Z</time>
      </trkpt>
      <trkpt lat="44.52961" lon="4.60811">
        <ele>219.19999694824</ele>
        <time>2020-05-31T07:00:30Z</time>
      </trkpt>
      <trkpt lat="44.52962" lon="4.6081">
        <ele>219</ele>
        <time>2020-05-31T07:00:29Z</time>
      </trkpt>
      <trkpt lat="44.52964" lon="4.60808">
        <ele>218.60000610352</ele>
        <time>2020-05-31T07:00:28Z</time>
      </trkpt>
      <trkpt lat="44.52965" lon="4.60806">
        <ele>218.19999694824</ele>
        <time>2020-05-31T07:00:27Z</time>
      </trkpt>
      <trkpt lat="44.52967" lon="4.60804">
        <ele>217.80000305176</ele>
        <time>2020-05-31T07:00:26Z</time>
      </trkpt>
      <trkpt lat="44.52968" lon="4.60802">
        <ele>217.60000610352</ele>
        <time>2020-05-31T07:00:25Z</time>
      </trkpt>
      <trkpt lat="44.52969" lon="4.608">
        <ele>217.60000610352</ele>
        <time>2020-05-31T07:00:24Z</time>
      </trkpt>
      <trkpt lat="44.52971" lon="4.60799">
        <ele>217.39999389648</ele>
        <time>2020-05-31T07:00:23Z</time>
      </trkpt>
      <trkpt lat="44.52974" lon="4.60796">
        <ele>217.60000610352</ele>
        <time>2020-05-31T07:00:22Z</time>
      </trkpt>
      <trkpt lat="44.52976" lon="4.60795">
        <ele>217.39999389648</ele>
        <time>2020-05-31T07:00:21Z</time>
      </trkpt>
      <trkpt lat="44.52978" lon="4.60794">
        <ele>217.39999389648</ele>
        <time>2020-05-31T07:00:20Z</time>
      </trkpt>
      <trkpt lat="44.5298" lon="4.60792">
        <ele>217.19999694824</ele>
        <time>2020-05-31T07:00:19Z</time>
      </trkpt>
      <trkpt lat="44.52981" lon="4.60791">
        <ele>217</ele>
        <time>2020-05-31T07:00:18Z</time>
      </trkpt>
      <trkpt lat="44.52983" lon="4.60789">
        <ele>217</ele>
        <time>2020-05-31T07:00:17Z</time>
      </trkpt>
      <trkpt lat="44.52984" lon="4.60788">
        <ele>216.80000305176</ele>
        <time>2020-05-31T07:00:16Z</time>
      </trkpt>
      <trkpt lat="44.52986" lon="4.60787">
        <ele>216.80000305176</ele>
        <time>2020-05-31T07:00:15Z</time>
      </trkpt>
      <trkpt lat="44.52987" lon="4.60786">
        <ele>216.60000610352</ele>
        <time>2020-05-31T07:00:14Z</time>
      </trkpt>
      <trkpt lat="44.5299" lon="4.60784">
        <ele>216.39999389648</ele>
        <time>2020-05-31T07:00:13Z</time>
      </trkpt>
      <trkpt lat="44.52993" lon="4.60783">
        <ele>216.19999694824</ele>
        <time>2020-05-31T07:00:12Z</time>
      </trkpt>
      <trkpt lat="44.52995" lon="4.60781">
        <ele>215.80000305176</ele>
        <time>2020-05-31T07:00:11Z</time>
      </trkpt>
      <trkpt lat="44.52998" lon="4.60779">
        <ele>215.60000610352</ele>
        <time>2020-05-31T07:00:10Z</time>
      </trkpt>
      <trkpt lat="44.53" lon="4.60778">
        <ele>215.60000610352</ele>
        <time>2020-05-31T07:00:09Z</time>
      </trkpt>
      <trkpt lat="44.53003" lon="4.60776">
        <ele>215.19999694824</ele>
        <time>2020-05-31T07:00:08Z</time>
      </trkpt>
      <trkpt lat="44.53005" lon="4.60775">
        <ele>215.19999694824</ele>
        <time>2020-05-31T07:00:07Z</time>
      </trkpt>
      <trkpt lat="44.53007" lon="4.60773">
        <ele>214.80000305176</ele>
        <time>2020-05-31T07:00:06Z</time>
      </trkpt>
      <trkpt lat="44.5301" lon="4.60772">
        <ele>214.60000610352</ele>
        <time>2020-05-31T07:00:05Z</time>
      </trkpt>
      <trkpt lat="44.53012" lon="4.6077">
        <ele>214.19999694824</ele>
        <time>2020-05-31T07:00:04Z</time>
      </trkpt>
      <trkpt lat="44.53014" lon="4.60768">
        <ele>214.19999694824</ele>
        <time>2020-05-31T07:00:03Z</time>
      </trkpt>
      <trkpt lat="44.53016" lon="4.60766">
        <ele>214</ele>
        <time>2020-05-31T07:00:02Z</time>
      </trkpt>
      <trkpt lat="44.53019" lon="4.60765">
        <ele>213.39999389648</ele>
        <time>2020-05-31T07:00:01Z</time>
      </trkpt>
      <trkpt lat="44.53021" lon="4.60763">
        <ele>213.39999389648</ele>
        <time>2020-05-31T07:00:00Z</time>
      </trkpt>
      <trkpt lat="44.53024" lon="4.60761">
        <ele>213</ele>
        <time>2020-05-31T06:59:59Z</time>
      </trkpt>
      <trkpt lat="44.53026" lon="4.6076">
        <ele>212.60000610352</ele>
        <time>2020-05-31T06:59:58Z</time>
      </trkpt>
      <trkpt lat="44.53028" lon="4.60758">
        <ele>212.60000610352</ele>
        <time>2020-05-31T06:59:57Z</time>
      </trkpt>
      <trkpt lat="44.53031" lon="4.60757">
        <ele>212.19999694824</ele>
        <time>2020-05-31T06:59:56Z</time>
      </trkpt>
      <trkpt lat="44.53033" lon="4.60756">
        <ele>212</ele>
        <time>2020-05-31T06:59:55Z</time>
      </trkpt>
      <trkpt lat="44.53035" lon="4.60755">
        <ele>211.39999389648</ele>
        <time>2020-05-31T06:59:54Z</time>
      </trkpt>
      <trkpt lat="44.53038" lon="4.60754">
        <ele>211.19999694824</ele>
        <time>2020-05-31T06:59:53Z</time>
      </trkpt>
      <trkpt lat="44.5304" lon="4.60753">
        <ele>211</ele>
        <time>2020-05-31T06:59:52Z</time>
      </trkpt>
      <trkpt lat="44.53042" lon="4.60752">
        <ele>210.60000610352</ele>
        <time>2020-05-31T06:59:51Z</time>
      </trkpt>
      <trkpt lat="44.53045" lon="4.60752">
        <ele>210.19999694824</ele>
        <time>2020-05-31T06:59:50Z</time>
      </trkpt>
      <trkpt lat="44.53047" lon="4.60751">
        <ele>210</ele>
        <time>2020-05-31T06:59:49Z</time>
      </trkpt>
      <trkpt lat="44.53049" lon="4.6075">
        <ele>209.80000305176</ele>
        <time>2020-05-31T06:59:48Z</time>
      </trkpt>
      <trkpt lat="44.53051" lon="4.60748">
        <ele>209.39999389648</ele>
        <time>2020-05-31T06:59:47Z</time>
      </trkpt>
      <trkpt lat="44.53054" lon="4.60747">
        <ele>209</ele>
        <time>2020-05-31T06:59:46Z</time>
      </trkpt>
      <trkpt lat="44.53056" lon="4.60746">
        <ele>208.80000305176</ele>
        <time>2020-05-31T06:59:45Z</time>
      </trkpt>
      <trkpt lat="44.53059" lon="4.60745">
        <ele>208.60000610352</ele>
        <time>2020-05-31T06:59:44Z</time>
      </trkpt>
      <trkpt lat="44.53062" lon="4.60745">
        <ele>208.19999694824</ele>
        <time>2020-05-31T06:59:43Z</time>
      </trkpt>
      <trkpt lat="44.53065" lon="4.60743">
        <ele>207.60000610352</ele>
        <time>2020-05-31T06:59:42Z</time>
      </trkpt>
      <trkpt lat="44.53068" lon="4.60743">
        <ele>207.60000610352</ele>
        <time>2020-05-31T06:59:41Z</time>
      </trkpt>
      <trkpt lat="44.53071" lon="4.60742">
        <ele>207</ele>
        <time>2020-05-31T06:59:40Z</time>
      </trkpt>
      <trkpt lat="44.53074" lon="4.6074">
        <ele>206.60000610352</ele>
        <time>2020-05-31T06:59:39Z</time>
      </trkpt>
      <trkpt lat="44.53077" lon="4.60738">
        <ele>206.19999694824</ele>
        <time>2020-05-31T06:59:38Z</time>
      </trkpt>
      <trkpt lat="44.5308" lon="4.60737">
        <ele>205.60000610352</ele>
        <time>2020-05-31T06:59:37Z</time>
      </trkpt>
      <trkpt lat="44.53084" lon="4.60735">
        <ele>205.39999389648</ele>
        <time>2020-05-31T06:59:36Z</time>
      </trkpt>
      <trkpt lat="44.53086" lon="4.60734">
        <ele>205</ele>
        <time>2020-05-31T06:59:35Z</time>
      </trkpt>
      <trkpt lat="44.53088" lon="4.60733">
        <ele>204.39999389648</ele>
        <time>2020-05-31T06:59:34Z</time>
      </trkpt>
      <trkpt lat="44.5309" lon="4.60732">
        <ele>204</ele>
        <time>2020-05-31T06:59:33Z</time>
      </trkpt>
      <trkpt lat="44.53092" lon="4.60731">
        <ele>203.80000305176</ele>
        <time>2020-05-31T06:59:32Z</time>
      </trkpt>
      <trkpt lat="44.53093" lon="4.6073">
        <ele>203.39999389648</ele>
        <time>2020-05-31T06:59:31Z</time>
      </trkpt>
      <trkpt lat="44.53095" lon="4.60729">
        <ele>202.80000305176</ele>
        <time>2020-05-31T06:59:30Z</time>
      </trkpt>
      <trkpt lat="44.53098" lon="4.60728">
        <ele>202</ele>
        <time>2020-05-31T06:59:29Z</time>
      </trkpt>
      <trkpt lat="44.53101" lon="4.60727">
        <ele>201.60000610352</ele>
        <time>2020-05-31T06:59:28Z</time>
      </trkpt>
      <trkpt lat="44.53103" lon="4.60726">
        <ele>201.19999694824</ele>
        <time>2020-05-31T06:59:27Z</time>
      </trkpt>
      <trkpt lat="44.53105" lon="4.60725">
        <ele>201</ele>
        <time>2020-05-31T06:59:26Z</time>
      </trkpt>
      <trkpt lat="44.53108" lon="4.60724">
        <ele>200.80000305176</ele>
        <time>2020-05-31T06:59:25Z</time>
      </trkpt>
      <trkpt lat="44.53109" lon="4.60723">
        <ele>200.39999389648</ele>
        <time>2020-05-31T06:59:24Z</time>
      </trkpt>
      <trkpt lat="44.5311" lon="4.60721">
        <ele>200</ele>
        <time>2020-05-31T06:59:23Z</time>
      </trkpt>
      <trkpt lat="44.53112" lon="4.60719">
        <ele>199.80000305176</ele>
        <time>2020-05-31T06:59:22Z</time>
      </trkpt>
      <trkpt lat="44.53114" lon="4.60718">
        <ele>199.60000610352</ele>
        <time>2020-05-31T06:59:21Z</time>
      </trkpt>
      <trkpt lat="44.53115" lon="4.60717">
        <ele>199.60000610352</ele>
        <time>2020-05-31T06:59:20Z</time>
      </trkpt>
      <trkpt lat="44.53117" lon="4.60714">
        <ele>199.19999694824</ele>
        <time>2020-05-31T06:59:19Z</time>
      </trkpt>
      <trkpt lat="44.53118" lon="4.60712">
        <ele>199</ele>
        <time>2020-05-31T06:59:18Z</time>
      </trkpt>
      <trkpt lat="44.5312" lon="4.6071">
        <ele>198.80000305176</ele>
        <time>2020-05-31T06:59:17Z</time>
      </trkpt>
      <trkpt lat="44.53122" lon="4.60708">
        <ele>198.39999389648</ele>
        <time>2020-05-31T06:59:16Z</time>
      </trkpt>
      <trkpt lat="44.53124" lon="4.60706">
        <ele>198</ele>
        <time>2020-05-31T06:59:15Z</time>
      </trkpt>
      <trkpt lat="44.53127" lon="4.60704">
        <ele>197.80000305176</ele>
        <time>2020-05-31T06:59:14Z</time>
      </trkpt>
      <trkpt lat="44.53128" lon="4.60702">
        <ele>197.39999389648</ele>
        <time>2020-05-31T06:59:13Z</time>
      </trkpt>
      <trkpt lat="44.5313" lon="4.607">
        <ele>197.19999694824</ele>
        <time>2020-05-31T06:59:12Z</time>
      </trkpt>
      <trkpt lat="44.53132" lon="4.60698">
        <ele>197</ele>
        <time>2020-05-31T06:59:11Z</time>
      </trkpt>
      <trkpt lat="44.53133" lon="4.60696">
        <ele>196.60000610352</ele>
        <time>2020-05-31T06:59:10Z</time>
      </trkpt>
      <trkpt lat="44.53135" lon="4.60693">
        <ele>196.39999389648</ele>
        <time>2020-05-31T06:59:09Z</time>
      </trkpt>
      <trkpt lat="44.53137" lon="4.6069">
        <ele>195.80000305176</ele>
        <time>2020-05-31T06:59:08Z</time>
      </trkpt>
      <trkpt lat="44.53138" lon="4.60687">
        <ele>195.80000305176</ele>
        <time>2020-05-31T06:59:07Z</time>
      </trkpt>
      <trkpt lat="44.5314" lon="4.60682">
        <ele>195.60000610352</ele>
        <time>2020-05-31T06:59:06Z</time>
      </trkpt>
      <trkpt lat="44.53141" lon="4.60678">
        <ele>195.19999694824</ele>
        <time>2020-05-31T06:59:05Z</time>
      </trkpt>
      <trkpt lat="44.53142" lon="4.60674">
        <ele>195.19999694824</ele>
        <time>2020-05-31T06:59:04Z</time>
      </trkpt>
      <trkpt lat="44.53145" lon="4.6067">
        <ele>195.19999694824</ele>
        <time>2020-05-31T06:59:03Z</time>
      </trkpt>
      <trkpt lat="44.53148" lon="4.60666">
        <ele>195</ele>
        <time>2020-05-31T06:59:02Z</time>
      </trkpt>
      <trkpt lat="44.5315" lon="4.60662">
        <ele>195</ele>
        <time>2020-05-31T06:59:01Z</time>
      </trkpt>
      <trkpt lat="44.53153" lon="4.60659">
        <ele>195</ele>
        <time>2020-05-31T06:59:00Z</time>
      </trkpt>
      <trkpt lat="44.53155" lon="4.60656">
        <ele>195</ele>
        <time>2020-05-31T06:58:59Z</time>
      </trkpt>
      <trkpt lat="44.53157" lon="4.60653">
        <ele>195.19999694824</ele>
        <time>2020-05-31T06:58:58Z</time>
      </trkpt>
      <trkpt lat="44.5316" lon="4.6065">
        <ele>195.19999694824</ele>
        <time>2020-05-31T06:58:57Z</time>
      </trkpt>
      <trkpt lat="44.53162" lon="4.60646">
        <ele>195</ele>
        <time>2020-05-31T06:58:56Z</time>
      </trkpt>
      <trkpt lat="44.53164" lon="4.60642">
        <ele>195.19999694824</ele>
        <time>2020-05-31T06:58:55Z</time>
      </trkpt>
      <trkpt lat="44.53166" lon="4.60639">
        <ele>195</ele>
        <time>2020-05-31T06:58:54Z</time>
      </trkpt>
      <trkpt lat="44.53168" lon="4.60635">
        <ele>195</ele>
        <time>2020-05-31T06:58:53Z</time>
      </trkpt>
      <trkpt lat="44.5317" lon="4.60631">
        <ele>195.19999694824</ele>
        <time>2020-05-31T06:58:52Z</time>
      </trkpt>
      <trkpt lat="44.53172" lon="4.60626">
        <ele>195.19999694824</ele>
        <time>2020-05-31T06:58:51Z</time>
      </trkpt>
      <trkpt lat="44.53174" lon="4.60621">
        <ele>195.39999389648</ele>
        <time>2020-05-31T06:58:50Z</time>
      </trkpt>
      <trkpt lat="44.53176" lon="4.60615">
        <ele>195.39999389648</ele>
        <time>2020-05-31T06:58:49Z</time>
      </trkpt>
      <trkpt lat="44.53177" lon="4.60608">
        <ele>195.80000305176</ele>
        <time>2020-05-31T06:58:48Z</time>
      </trkpt>
      <trkpt lat="44.53178" lon="4.606">
        <ele>195.80000305176</ele>
        <time>2020-05-31T06:58:47Z</time>
      </trkpt>
      <trkpt lat="44.53181" lon="4.60595">
        <ele>196</ele>
        <time>2020-05-31T06:58:46Z</time>
      </trkpt>
      <trkpt lat="44.53185" lon="4.60591">
        <ele>196.19999694824</ele>
        <time>2020-05-31T06:58:45Z</time>
      </trkpt>
      <trkpt lat="44.53191" lon="4.60588">
        <ele>196.19999694824</ele>
        <time>2020-05-31T06:58:44Z</time>
      </trkpt>
      <trkpt lat="44.53193" lon="4.60584">
        <ele>196.39999389648</ele>
        <time>2020-05-31T06:58:43Z</time>
      </trkpt>
      <trkpt lat="44.53196" lon="4.60578">
        <ele>196.39999389648</ele>
        <time>2020-05-31T06:58:42Z</time>
      </trkpt>
      <trkpt lat="44.53201" lon="4.60564">
        <ele>196.60000610352</ele>
        <time>2020-05-31T06:58:40Z</time>
      </trkpt>
      <trkpt lat="44.53203" lon="4.60556">
        <ele>196.80000305176</ele>
        <time>2020-05-31T06:58:39Z</time>
      </trkpt>
      <trkpt lat="44.53206" lon="4.60549">
        <ele>196.80000305176</ele>
        <time>2020-05-31T06:58:38Z</time>
      </trkpt>
      <trkpt lat="44.53208" lon="4.60541">
        <ele>197.19999694824</ele>
        <time>2020-05-31T06:58:37Z</time>
      </trkpt>
      <trkpt lat="44.5321" lon="4.60533">
        <ele>197.19999694824</ele>
        <time>2020-05-31T06:58:36Z</time>
      </trkpt>
      <trkpt lat="44.53212" lon="4.60525">
        <ele>197.39999389648</ele>
        <time>2020-05-31T06:58:35Z</time>
      </trkpt>
      <trkpt lat="44.53214" lon="4.60517">
        <ele>198</ele>
        <time>2020-05-31T06:58:34Z</time>
      </trkpt>
      <trkpt lat="44.53219" lon="4.60499">
        <ele>199.19999694824</ele>
        <time>2020-05-31T06:58:32Z</time>
      </trkpt>
      <trkpt lat="44.53222" lon="4.60491">
        <ele>200.19999694824</ele>
        <time>2020-05-31T06:58:31Z</time>
      </trkpt>
      <trkpt lat="44.53224" lon="4.60482">
        <ele>200.60000610352</ele>
        <time>2020-05-31T06:58:30Z</time>
      </trkpt>
      <trkpt lat="44.53227" lon="4.60473">
        <ele>200.80000305176</ele>
        <time>2020-05-31T06:58:29Z</time>
      </trkpt>
      <trkpt lat="44.53229" lon="4.60463">
        <ele>201</ele>
        <time>2020-05-31T06:58:28Z</time>
      </trkpt>
      <trkpt lat="44.53235" lon="4.60444">
        <ele>201.19999694824</ele>
        <time>2020-05-31T06:58:26Z</time>
      </trkpt>
      <trkpt lat="44.53237" lon="4.60433">
        <ele>201.19999694824</ele>
        <time>2020-05-31T06:58:25Z</time>
      </trkpt>
      <trkpt lat="44.5324" lon="4.60412">
        <ele>201.60000610352</ele>
        <time>2020-05-31T06:58:23Z</time>
      </trkpt>
      <trkpt lat="44.53241" lon="4.60402">
        <ele>201.80000305176</ele>
        <time>2020-05-31T06:58:22Z</time>
      </trkpt>
      <trkpt lat="44.53241" lon="4.60392">
        <ele>202</ele>
        <time>2020-05-31T06:58:21Z</time>
      </trkpt>
      <trkpt lat="44.53243" lon="4.60376">
        <ele>202.19999694824</ele>
        <time>2020-05-31T06:58:19Z</time>
      </trkpt>
      <trkpt lat="44.53243" lon="4.60369">
        <ele>202.60000610352</ele>
        <time>2020-05-31T06:58:18Z</time>
      </trkpt>
      <trkpt lat="44.53241" lon="4.60363">
        <ele>203</ele>
        <time>2020-05-31T06:58:17Z</time>
      </trkpt>
      <trkpt lat="44.5324" lon="4.60357">
        <ele>203</ele>
        <time>2020-05-31T06:58:16Z</time>
      </trkpt>
      <trkpt lat="44.53236" lon="4.60345">
        <ele>203.60000610352</ele>
        <time>2020-05-31T06:58:14Z</time>
      </trkpt>
      <trkpt lat="44.53234" lon="4.6034">
        <ele>203.80000305176</ele>
        <time>2020-05-31T06:58:13Z</time>
      </trkpt>
      <trkpt lat="44.53233" lon="4.60335">
        <ele>204.19999694824</ele>
        <time>2020-05-31T06:58:12Z</time>
      </trkpt>
      <trkpt lat="44.53232" lon="4.6033">
        <ele>204.60000610352</ele>
        <time>2020-05-31T06:58:11Z</time>
      </trkpt>
      <trkpt lat="44.53235" lon="4.60324">
        <ele>204.80000305176</ele>
        <time>2020-05-31T06:58:10Z</time>
      </trkpt>
      <trkpt lat="44.53241" lon="4.60321">
        <ele>204.60000610352</ele>
        <time>2020-05-31T06:58:09Z</time>
      </trkpt>
      <trkpt lat="44.53246" lon="4.60319">
        <ele>204.80000305176</ele>
        <time>2020-05-31T06:58:08Z</time>
      </trkpt>
      <trkpt lat="44.53251" lon="4.60318">
        <ele>205.19999694824</ele>
        <time>2020-05-31T06:58:07Z</time>
      </trkpt>
      <trkpt lat="44.53256" lon="4.60315">
        <ele>205.80000305176</ele>
        <time>2020-05-31T06:58:06Z</time>
      </trkpt>
      <trkpt lat="44.53261" lon="4.60312">
        <ele>206</ele>
        <time>2020-05-31T06:58:05Z</time>
      </trkpt>
      <trkpt lat="44.5327" lon="4.60299">
        <ele>206.19999694824</ele>
        <time>2020-05-31T06:58:03Z</time>
      </trkpt>
      <trkpt lat="44.53275" lon="4.60293">
        <ele>206.39999389648</ele>
        <time>2020-05-31T06:58:02Z</time>
      </trkpt>
      <trkpt lat="44.53289" lon="4.60263">
        <ele>207.39999389648</ele>
        <time>2020-05-31T06:57:58Z</time>
      </trkpt>
      <trkpt lat="44.53292" lon="4.60255">
        <ele>208</ele>
        <time>2020-05-31T06:57:57Z</time>
      </trkpt>
      <trkpt lat="44.53295" lon="4.60248">
        <ele>208.80000305176</ele>
        <time>2020-05-31T06:57:56Z</time>
      </trkpt>
      <trkpt lat="44.53298" lon="4.60242">
        <ele>208.80000305176</ele>
        <time>2020-05-31T06:57:55Z</time>
      </trkpt>
      <trkpt lat="44.53301" lon="4.60235">
        <ele>209.39999389648</ele>
        <time>2020-05-31T06:57:54Z</time>
      </trkpt>
      <trkpt lat="44.53303" lon="4.60228">
        <ele>209.39999389648</ele>
        <time>2020-05-31T06:57:53Z</time>
      </trkpt>
      <trkpt lat="44.5331" lon="4.60214">
        <ele>210.80000305176</ele>
        <time>2020-05-31T06:57:51Z</time>
      </trkpt>
      <trkpt lat="44.53313" lon="4.60208">
        <ele>211.19999694824</ele>
        <time>2020-05-31T06:57:50Z</time>
      </trkpt>
      <trkpt lat="44.53317" lon="4.60203">
        <ele>211.60000610352</ele>
        <time>2020-05-31T06:57:49Z</time>
      </trkpt>
      <trkpt lat="44.5332" lon="4.60198">
        <ele>212.19999694824</ele>
        <time>2020-05-31T06:57:48Z</time>
      </trkpt>
      <trkpt lat="44.53323" lon="4.60192">
        <ele>213</ele>
        <time>2020-05-31T06:57:47Z</time>
      </trkpt>
      <trkpt lat="44.53326" lon="4.60185">
        <ele>213.19999694824</ele>
        <time>2020-05-31T06:57:46Z</time>
      </trkpt>
      <trkpt lat="44.53328" lon="4.60177">
        <ele>213.60000610352</ele>
        <time>2020-05-31T06:57:45Z</time>
      </trkpt>
      <trkpt lat="44.5333" lon="4.60168">
        <ele>214</ele>
        <time>2020-05-31T06:57:44Z</time>
      </trkpt>
      <trkpt lat="44.53338" lon="4.6014">
        <ele>215.19999694824</ele>
        <time>2020-05-31T06:57:41Z</time>
      </trkpt>
      <trkpt lat="44.5334" lon="4.60132">
        <ele>215.39999389648</ele>
        <time>2020-05-31T06:57:40Z</time>
      </trkpt>
      <trkpt lat="44.53342" lon="4.60124">
        <ele>215.80000305176</ele>
        <time>2020-05-31T06:57:39Z</time>
      </trkpt>
      <trkpt lat="44.53344" lon="4.60109">
        <ele>216</ele>
        <time>2020-05-31T06:57:37Z</time>
      </trkpt>
      <trkpt lat="44.53346" lon="4.60095">
        <ele>216.39999389648</ele>
        <time>2020-05-31T06:57:35Z</time>
      </trkpt>
      <trkpt lat="44.53348" lon="4.60088">
        <ele>216.39999389648</ele>
        <time>2020-05-31T06:57:34Z</time>
      </trkpt>
      <trkpt lat="44.5335" lon="4.60074">
        <ele>216.39999389648</ele>
        <time>2020-05-31T06:57:32Z</time>
      </trkpt>
      <trkpt lat="44.53352" lon="4.60067">
        <ele>216.39999389648</ele>
        <time>2020-05-31T06:57:31Z</time>
      </trkpt>
      <trkpt lat="44.53353" lon="4.60061">
        <ele>216.60000610352</ele>
        <time>2020-05-31T06:57:30Z</time>
      </trkpt>
      <trkpt lat="44.53353" lon="4.60055">
        <ele>216.60000610352</ele>
        <time>2020-05-31T06:57:29Z</time>
      </trkpt>
      <trkpt lat="44.53354" lon="4.60049">
        <ele>216.60000610352</ele>
        <time>2020-05-31T06:57:28Z</time>
      </trkpt>
      <trkpt lat="44.53355" lon="4.60044">
        <ele>216.60000610352</ele>
        <time>2020-05-31T06:57:27Z</time>
      </trkpt>
      <trkpt lat="44.53356" lon="4.60038">
        <ele>216.60000610352</ele>
        <time>2020-05-31T06:57:26Z</time>
      </trkpt>
      <trkpt lat="44.53356" lon="4.60033">
        <ele>216.60000610352</ele>
        <time>2020-05-31T06:57:25Z</time>
      </trkpt>
      <trkpt lat="44.53357" lon="4.60027">
        <ele>216.60000610352</ele>
        <time>2020-05-31T06:57:24Z</time>
      </trkpt>
      <trkpt lat="44.53357" lon="4.60022">
        <ele>216.60000610352</ele>
        <time>2020-05-31T06:57:23Z</time>
      </trkpt>
      <trkpt lat="44.53357" lon="4.60016">
        <ele>216.39999389648</ele>
        <time>2020-05-31T06:57:22Z</time>
      </trkpt>
      <trkpt lat="44.53357" lon="4.6001">
        <ele>216.39999389648</ele>
        <time>2020-05-31T06:57:21Z</time>
      </trkpt>
      <trkpt lat="44.53355" lon="4.59998">
        <ele>216.39999389648</ele>
        <time>2020-05-31T06:57:19Z</time>
      </trkpt>
      <trkpt lat="44.53354" lon="4.59992">
        <ele>216.60000610352</ele>
        <time>2020-05-31T06:57:18Z</time>
      </trkpt>
      <trkpt lat="44.53353" lon="4.59986">
        <ele>216.60000610352</ele>
        <time>2020-05-31T06:57:17Z</time>
      </trkpt>
      <trkpt lat="44.53352" lon="4.5998">
        <ele>216.39999389648</ele>
        <time>2020-05-31T06:57:16Z</time>
      </trkpt>
      <trkpt lat="44.53351" lon="4.59974">
        <ele>216.60000610352</ele>
        <time>2020-05-31T06:57:15Z</time>
      </trkpt>
      <trkpt lat="44.5335" lon="4.59968">
        <ele>216.39999389648</ele>
        <time>2020-05-31T06:57:14Z</time>
      </trkpt>
      <trkpt lat="44.53348" lon="4.59963">
        <ele>216.39999389648</ele>
        <time>2020-05-31T06:57:13Z</time>
      </trkpt>
      <trkpt lat="44.53345" lon="4.59959">
        <ele>216.60000610352</ele>
        <time>2020-05-31T06:57:12Z</time>
      </trkpt>
      <trkpt lat="44.53342" lon="4.59955">
        <ele>216.60000610352</ele>
        <time>2020-05-31T06:57:11Z</time>
      </trkpt>
      <trkpt lat="44.53339" lon="4.59952">
        <ele>216.60000610352</ele>
        <time>2020-05-31T06:57:10Z</time>
      </trkpt>
      <trkpt lat="44.53336" lon="4.5995">
        <ele>216.60000610352</ele>
        <time>2020-05-31T06:57:09Z</time>
      </trkpt>
      <trkpt lat="44.53333" lon="4.59948">
        <ele>216.80000305176</ele>
        <time>2020-05-31T06:57:08Z</time>
      </trkpt>
      <trkpt lat="44.5333" lon="4.59945">
        <ele>217.39999389648</ele>
        <time>2020-05-31T06:57:07Z</time>
      </trkpt>
      <trkpt lat="44.53328" lon="4.59943">
        <ele>218.19999694824</ele>
        <time>2020-05-31T06:57:06Z</time>
      </trkpt>
      <trkpt lat="44.53325" lon="4.59941">
        <ele>219.19999694824</ele>
        <time>2020-05-31T06:57:05Z</time>
      </trkpt>
      <trkpt lat="44.53324" lon="4.59937">
        <ele>220</ele>
        <time>2020-05-31T06:57:04Z</time>
      </trkpt>
      <trkpt lat="44.53322" lon="4.59933">
        <ele>220.60000610352</ele>
        <time>2020-05-31T06:57:03Z</time>
      </trkpt>
      <trkpt lat="44.53322" lon="4.59928">
        <ele>221.60000610352</ele>
        <time>2020-05-31T06:57:02Z</time>
      </trkpt>
      <trkpt lat="44.53324" lon="4.59923">
        <ele>222.39999389648</ele>
        <time>2020-05-31T06:57:01Z</time>
      </trkpt>
      <trkpt lat="44.53327" lon="4.59918">
        <ele>222.80000305176</ele>
        <time>2020-05-31T06:57:00Z</time>
      </trkpt>
      <trkpt lat="44.53331" lon="4.59914">
        <ele>223.19999694824</ele>
        <time>2020-05-31T06:56:59Z</time>
      </trkpt>
      <trkpt lat="44.53335" lon="4.59911">
        <ele>223.60000610352</ele>
        <time>2020-05-31T06:56:58Z</time>
      </trkpt>
      <trkpt lat="44.53339" lon="4.59906">
        <ele>223.80000305176</ele>
        <time>2020-05-31T06:56:57Z</time>
      </trkpt>
      <trkpt lat="44.53343" lon="4.59901">
        <ele>223.80000305176</ele>
        <time>2020-05-31T06:56:56Z</time>
      </trkpt>
      <trkpt lat="44.53345" lon="4.59896">
        <ele>224</ele>
        <time>2020-05-31T06:56:55Z</time>
      </trkpt>
      <trkpt lat="44.53347" lon="4.5989">
        <ele>224</ele>
        <time>2020-05-31T06:56:54Z</time>
      </trkpt>
      <trkpt lat="44.53349" lon="4.59883">
        <ele>224</ele>
        <time>2020-05-31T06:56:53Z</time>
      </trkpt>
      <trkpt lat="44.53351" lon="4.59876">
        <ele>224.19999694824</ele>
        <time>2020-05-31T06:56:52Z</time>
      </trkpt>
      <trkpt lat="44.53353" lon="4.59869">
        <ele>224.19999694824</ele>
        <time>2020-05-31T06:56:51Z</time>
      </trkpt>
      <trkpt lat="44.53355" lon="4.59862">
        <ele>224.60000610352</ele>
        <time>2020-05-31T06:56:50Z</time>
      </trkpt>
      <trkpt lat="44.53359" lon="4.59848">
        <ele>225.19999694824</ele>
        <time>2020-05-31T06:56:48Z</time>
      </trkpt>
      <trkpt lat="44.53362" lon="4.59842">
        <ele>226.19999694824</ele>
        <time>2020-05-31T06:56:47Z</time>
      </trkpt>
      <trkpt lat="44.53364" lon="4.59835">
        <ele>227.19999694824</ele>
        <time>2020-05-31T06:56:46Z</time>
      </trkpt>
      <trkpt lat="44.53367" lon="4.59829">
        <ele>227.80000305176</ele>
        <time>2020-05-31T06:56:45Z</time>
      </trkpt>
      <trkpt lat="44.53371" lon="4.59823">
        <ele>228.39999389648</ele>
        <time>2020-05-31T06:56:44Z</time>
      </trkpt>
      <trkpt lat="44.53375" lon="4.59817">
        <ele>228.80000305176</ele>
        <time>2020-05-31T06:56:43Z</time>
      </trkpt>
      <trkpt lat="44.53381" lon="4.59812">
        <ele>229.39999389648</ele>
        <time>2020-05-31T06:56:42Z</time>
      </trkpt>
      <trkpt lat="44.53387" lon="4.59806">
        <ele>229.19999694824</ele>
        <time>2020-05-31T06:56:41Z</time>
      </trkpt>
      <trkpt lat="44.53393" lon="4.59798">
        <ele>229.39999389648</ele>
        <time>2020-05-31T06:56:40Z</time>
      </trkpt>
      <trkpt lat="44.53403" lon="4.59783">
        <ele>229.39999389648</ele>
        <time>2020-05-31T06:56:38Z</time>
      </trkpt>
      <trkpt lat="44.53411" lon="4.59771">
        <ele>229.60000610352</ele>
        <time>2020-05-31T06:56:36Z</time>
      </trkpt>
      <trkpt lat="44.53418" lon="4.5976">
        <ele>229.60000610352</ele>
        <time>2020-05-31T06:56:34Z</time>
      </trkpt>
      <trkpt lat="44.53423" lon="4.59751">
        <ele>229.80000305176</ele>
        <time>2020-05-31T06:56:32Z</time>
      </trkpt>
      <trkpt lat="44.53425" lon="4.59747">
        <ele>229.80000305176</ele>
        <time>2020-05-31T06:56:31Z</time>
      </trkpt>
      <trkpt lat="44.53428" lon="4.59743">
        <ele>229.80000305176</ele>
        <time>2020-05-31T06:56:30Z</time>
      </trkpt>
      <trkpt lat="44.53431" lon="4.59739">
        <ele>229.80000305176</ele>
        <time>2020-05-31T06:56:29Z</time>
      </trkpt>
      <trkpt lat="44.53434" lon="4.59736">
        <ele>229.60000610352</ele>
        <time>2020-05-31T06:56:28Z</time>
      </trkpt>
      <trkpt lat="44.53458" lon="4.59718">
        <ele>228.60000610352</ele>
        <time>2020-05-31T06:56:21Z</time>
      </trkpt>
      <trkpt lat="44.53461" lon="4.59716">
        <ele>228.39999389648</ele>
        <time>2020-05-31T06:56:20Z</time>
      </trkpt>
      <trkpt lat="44.53463" lon="4.59714">
        <ele>228.19999694824</ele>
        <time>2020-05-31T06:56:19Z</time>
      </trkpt>
      <trkpt lat="44.53466" lon="4.59712">
        <ele>228</ele>
        <time>2020-05-31T06:56:18Z</time>
      </trkpt>
      <trkpt lat="44.53469" lon="4.59709">
        <ele>227.39999389648</ele>
        <time>2020-05-31T06:56:17Z</time>
      </trkpt>
      <trkpt lat="44.53471" lon="4.59707">
        <ele>227.19999694824</ele>
        <time>2020-05-31T06:56:16Z</time>
      </trkpt>
      <trkpt lat="44.53474" lon="4.59705">
        <ele>227</ele>
        <time>2020-05-31T06:56:15Z</time>
      </trkpt>
      <trkpt lat="44.53476" lon="4.59702">
        <ele>226.80000305176</ele>
        <time>2020-05-31T06:56:14Z</time>
      </trkpt>
      <trkpt lat="44.53479" lon="4.597">
        <ele>226.60000610352</ele>
        <time>2020-05-31T06:56:13Z</time>
      </trkpt>
      <trkpt lat="44.53481" lon="4.59697">
        <ele>226.60000610352</ele>
        <time>2020-05-31T06:56:12Z</time>
      </trkpt>
      <trkpt lat="44.53483" lon="4.59694">
        <ele>226.39999389648</ele>
        <time>2020-05-31T06:56:11Z</time>
      </trkpt>
      <trkpt lat="44.53485" lon="4.5969">
        <ele>226.39999389648</ele>
        <time>2020-05-31T06:56:10Z</time>
      </trkpt>
      <trkpt lat="44.53487" lon="4.59687">
        <ele>226.39999389648</ele>
        <time>2020-05-31T06:56:09Z</time>
      </trkpt>
      <trkpt lat="44.5349" lon="4.59684">
        <ele>226</ele>
        <time>2020-05-31T06:56:08Z</time>
      </trkpt>
      <trkpt lat="44.53492" lon="4.59681">
        <ele>225.60000610352</ele>
        <time>2020-05-31T06:56:07Z</time>
      </trkpt>
      <trkpt lat="44.53495" lon="4.59679">
        <ele>225.60000610352</ele>
        <time>2020-05-31T06:56:06Z</time>
      </trkpt>
      <trkpt lat="44.53498" lon="4.59677">
        <ele>225.39999389648</ele>
        <time>2020-05-31T06:56:05Z</time>
      </trkpt>
      <trkpt lat="44.53502" lon="4.59676">
        <ele>225.19999694824</ele>
        <time>2020-05-31T06:56:04Z</time>
      </trkpt>
      <trkpt lat="44.53505" lon="4.59674">
        <ele>224.80000305176</ele>
        <time>2020-05-31T06:56:03Z</time>
      </trkpt>
      <trkpt lat="44.53509" lon="4.59671">
        <ele>224.80000305176</ele>
        <time>2020-05-31T06:56:02Z</time>
      </trkpt>
      <trkpt lat="44.53512" lon="4.59668">
        <ele>224.60000610352</ele>
        <time>2020-05-31T06:56:01Z</time>
      </trkpt>
      <trkpt lat="44.53515" lon="4.59666">
        <ele>224.39999389648</ele>
        <time>2020-05-31T06:56:00Z</time>
      </trkpt>
      <trkpt lat="44.53518" lon="4.59664">
        <ele>224.60000610352</ele>
        <time>2020-05-31T06:55:59Z</time>
      </trkpt>
      <trkpt lat="44.53521" lon="4.59661">
        <ele>224.60000610352</ele>
        <time>2020-05-31T06:55:58Z</time>
      </trkpt>
      <trkpt lat="44.53524" lon="4.59659">
        <ele>224.60000610352</ele>
        <time>2020-05-31T06:55:57Z</time>
      </trkpt>
      <trkpt lat="44.53527" lon="4.59656">
        <ele>224.60000610352</ele>
        <time>2020-05-31T06:55:56Z</time>
      </trkpt>
      <trkpt lat="44.5353" lon="4.59653">
        <ele>224.80000305176</ele>
        <time>2020-05-31T06:55:55Z</time>
      </trkpt>
      <trkpt lat="44.53532" lon="4.5965">
        <ele>224.60000610352</ele>
        <time>2020-05-31T06:55:54Z</time>
      </trkpt>
      <trkpt lat="44.53534" lon="4.59646">
        <ele>224.60000610352</ele>
        <time>2020-05-31T06:55:53Z</time>
      </trkpt>
      <trkpt lat="44.53545" lon="4.59624">
        <ele>225.39999389648</ele>
        <time>2020-05-31T06:55:48Z</time>
      </trkpt>
      <trkpt lat="44.53548" lon="4.5962">
        <ele>225.60000610352</ele>
        <time>2020-05-31T06:55:47Z</time>
      </trkpt>
      <trkpt lat="44.5355" lon="4.59617">
        <ele>226</ele>
        <time>2020-05-31T06:55:46Z</time>
      </trkpt>
      <trkpt lat="44.53552" lon="4.59616">
        <ele>226.39999389648</ele>
        <time>2020-05-31T06:55:45Z</time>
      </trkpt>
      <trkpt lat="44.53554" lon="4.59616">
        <ele>226.39999389648</ele>
        <time>2020-05-31T06:55:44Z</time>
      </trkpt>
      <trkpt lat="44.53556" lon="4.59618">
        <ele>227</ele>
        <time>2020-05-31T06:55:43Z</time>
      </trkpt>
      <trkpt lat="44.53557" lon="4.5962">
        <ele>226.80000305176</ele>
        <time>2020-05-31T06:55:42Z</time>
      </trkpt>
      <trkpt lat="44.53559" lon="4.59622">
        <ele>227.19999694824</ele>
        <time>2020-05-31T06:55:41Z</time>
      </trkpt>
      <trkpt lat="44.5356" lon="4.59626">
        <ele>227</ele>
        <time>2020-05-31T06:55:40Z</time>
      </trkpt>
      <trkpt lat="44.53561" lon="4.59632">
        <ele>227</ele>
        <time>2020-05-31T06:55:39Z</time>
      </trkpt>
      <trkpt lat="44.53567" lon="4.59651">
        <ele>227</ele>
        <time>2020-05-31T06:55:36Z</time>
      </trkpt>
      <trkpt lat="44.53569" lon="4.59658">
        <ele>227</ele>
        <time>2020-05-31T06:55:35Z</time>
      </trkpt>
      <trkpt lat="44.53573" lon="4.5967">
        <ele>227</ele>
        <time>2020-05-31T06:55:33Z</time>
      </trkpt>
      <trkpt lat="44.53574" lon="4.59676">
        <ele>227</ele>
        <time>2020-05-31T06:55:32Z</time>
      </trkpt>
      <trkpt lat="44.53575" lon="4.59683">
        <ele>227</ele>
        <time>2020-05-31T06:55:31Z</time>
      </trkpt>
      <trkpt lat="44.53576" lon="4.59689">
        <ele>227</ele>
        <time>2020-05-31T06:55:30Z</time>
      </trkpt>
      <trkpt lat="44.53576" lon="4.59702">
        <ele>226.80000305176</ele>
        <time>2020-05-31T06:55:28Z</time>
      </trkpt>
      <trkpt lat="44.53576" lon="4.59708">
        <ele>226.80000305176</ele>
        <time>2020-05-31T06:55:27Z</time>
      </trkpt>
      <trkpt lat="44.53576" lon="4.59714">
        <ele>226.80000305176</ele>
        <time>2020-05-31T06:55:26Z</time>
      </trkpt>
      <trkpt lat="44.53576" lon="4.5972">
        <ele>226.80000305176</ele>
        <time>2020-05-31T06:55:25Z</time>
      </trkpt>
      <trkpt lat="44.53576" lon="4.59727">
        <ele>226.80000305176</ele>
        <time>2020-05-31T06:55:24Z</time>
      </trkpt>
      <trkpt lat="44.53576" lon="4.59734">
        <ele>227</ele>
        <time>2020-05-31T06:55:23Z</time>
      </trkpt>
      <trkpt lat="44.53576" lon="4.59741">
        <ele>226.80000305176</ele>
        <time>2020-05-31T06:55:22Z</time>
      </trkpt>
      <trkpt lat="44.53576" lon="4.59747">
        <ele>227.19999694824</ele>
        <time>2020-05-31T06:55:21Z</time>
      </trkpt>
      <trkpt lat="44.53576" lon="4.59754">
        <ele>227.19999694824</ele>
        <time>2020-05-31T06:55:20Z</time>
      </trkpt>
      <trkpt lat="44.53575" lon="4.59762">
        <ele>227.19999694824</ele>
        <time>2020-05-31T06:55:19Z</time>
      </trkpt>
      <trkpt lat="44.53575" lon="4.59769">
        <ele>227.39999389648</ele>
        <time>2020-05-31T06:55:18Z</time>
      </trkpt>
      <trkpt lat="44.53576" lon="4.59776">
        <ele>227.80000305176</ele>
        <time>2020-05-31T06:55:17Z</time>
      </trkpt>
      <trkpt lat="44.53576" lon="4.59784">
        <ele>228</ele>
        <time>2020-05-31T06:55:16Z</time>
      </trkpt>
      <trkpt lat="44.53576" lon="4.59791">
        <ele>228</ele>
        <time>2020-05-31T06:55:15Z</time>
      </trkpt>
      <trkpt lat="44.53577" lon="4.59799">
        <ele>228.19999694824</ele>
        <time>2020-05-31T06:55:14Z</time>
      </trkpt>
      <trkpt lat="44.53578" lon="4.59807">
        <ele>228.19999694824</ele>
        <time>2020-05-31T06:55:13Z</time>
      </trkpt>
      <trkpt lat="44.53579" lon="4.59815">
        <ele>228.39999389648</ele>
        <time>2020-05-31T06:55:12Z</time>
      </trkpt>
      <trkpt lat="44.53581" lon="4.59823">
        <ele>228.60000610352</ele>
        <time>2020-05-31T06:55:11Z</time>
      </trkpt>
      <trkpt lat="44.53582" lon="4.59831">
        <ele>228.80000305176</ele>
        <time>2020-05-31T06:55:10Z</time>
      </trkpt>
      <trkpt lat="44.53584" lon="4.59839">
        <ele>228.80000305176</ele>
        <time>2020-05-31T06:55:09Z</time>
      </trkpt>
      <trkpt lat="44.53584" lon="4.59848">
        <ele>228.60000610352</ele>
        <time>2020-05-31T06:55:08Z</time>
      </trkpt>
      <trkpt lat="44.53583" lon="4.59872">
        <ele>229</ele>
        <time>2020-05-31T06:55:05Z</time>
      </trkpt>
      <trkpt lat="44.53583" lon="4.5988">
        <ele>229.19999694824</ele>
        <time>2020-05-31T06:55:04Z</time>
      </trkpt>
      <trkpt lat="44.53582" lon="4.59887">
        <ele>229.60000610352</ele>
        <time>2020-05-31T06:55:03Z</time>
      </trkpt>
      <trkpt lat="44.53582" lon="4.59896">
        <ele>230.19999694824</ele>
        <time>2020-05-31T06:55:02Z</time>
      </trkpt>
      <trkpt lat="44.53581" lon="4.59904">
        <ele>230.80000305176</ele>
        <time>2020-05-31T06:55:01Z</time>
      </trkpt>
      <trkpt lat="44.5358" lon="4.59912">
        <ele>231.39999389648</ele>
        <time>2020-05-31T06:55:00Z</time>
      </trkpt>
      <trkpt lat="44.53577" lon="4.5993">
        <ele>232.39999389648</ele>
        <time>2020-05-31T06:54:58Z</time>
      </trkpt>
      <trkpt lat="44.53575" lon="4.59938">
        <ele>232.60000610352</ele>
        <time>2020-05-31T06:54:57Z</time>
      </trkpt>
      <trkpt lat="44.5357" lon="4.59955">
        <ele>233.19999694824</ele>
        <time>2020-05-31T06:54:55Z</time>
      </trkpt>
      <trkpt lat="44.53566" lon="4.59973">
        <ele>233.60000610352</ele>
        <time>2020-05-31T06:54:53Z</time>
      </trkpt>
      <trkpt lat="44.53563" lon="4.59989">
        <ele>233.60000610352</ele>
        <time>2020-05-31T06:54:51Z</time>
      </trkpt>
      <trkpt lat="44.53561" lon="4.59996">
        <ele>233.60000610352</ele>
        <time>2020-05-31T06:54:50Z</time>
      </trkpt>
      <trkpt lat="44.5356" lon="4.60002">
        <ele>233.80000305176</ele>
        <time>2020-05-31T06:54:49Z</time>
      </trkpt>
      <trkpt lat="44.53562" lon="4.60007">
        <ele>233.80000305176</ele>
        <time>2020-05-31T06:54:48Z</time>
      </trkpt>
      <trkpt lat="44.53564" lon="4.60012">
        <ele>234</ele>
        <time>2020-05-31T06:54:47Z</time>
      </trkpt>
      <trkpt lat="44.53568" lon="4.60015">
        <ele>234</ele>
        <time>2020-05-31T06:54:46Z</time>
      </trkpt>
      <trkpt lat="44.53573" lon="4.60017">
        <ele>234</ele>
        <time>2020-05-31T06:54:45Z</time>
      </trkpt>
      <trkpt lat="44.53582" lon="4.60021">
        <ele>234.19999694824</ele>
        <time>2020-05-31T06:54:43Z</time>
      </trkpt>
      <trkpt lat="44.53586" lon="4.60024">
        <ele>234.19999694824</ele>
        <time>2020-05-31T06:54:42Z</time>
      </trkpt>
      <trkpt lat="44.5359" lon="4.60026">
        <ele>234.19999694824</ele>
        <time>2020-05-31T06:54:41Z</time>
      </trkpt>
      <trkpt lat="44.53595" lon="4.60028">
        <ele>234.19999694824</ele>
        <time>2020-05-31T06:54:40Z</time>
      </trkpt>
      <trkpt lat="44.53599" lon="4.60029">
        <ele>234.39999389648</ele>
        <time>2020-05-31T06:54:39Z</time>
      </trkpt>
      <trkpt lat="44.53603" lon="4.60029">
        <ele>234.39999389648</ele>
        <time>2020-05-31T06:54:38Z</time>
      </trkpt>
      <trkpt lat="44.53608" lon="4.60029">
        <ele>234.39999389648</ele>
        <time>2020-05-31T06:54:37Z</time>
      </trkpt>
      <trkpt lat="44.53612" lon="4.60027">
        <ele>234.60000610352</ele>
        <time>2020-05-31T06:54:36Z</time>
      </trkpt>
      <trkpt lat="44.53617" lon="4.60025">
        <ele>234.60000610352</ele>
        <time>2020-05-31T06:54:35Z</time>
      </trkpt>
      <trkpt lat="44.53622" lon="4.60023">
        <ele>234.60000610352</ele>
        <time>2020-05-31T06:54:34Z</time>
      </trkpt>
      <trkpt lat="44.53626" lon="4.60021">
        <ele>234.80000305176</ele>
        <time>2020-05-31T06:54:33Z</time>
      </trkpt>
      <trkpt lat="44.53631" lon="4.60019">
        <ele>235</ele>
        <time>2020-05-31T06:54:32Z</time>
      </trkpt>
      <trkpt lat="44.53642" lon="4.60016">
        <ele>235.60000610352</ele>
        <time>2020-05-31T06:54:30Z</time>
      </trkpt>
      <trkpt lat="44.53647" lon="4.60014">
        <ele>236.19999694824</ele>
        <time>2020-05-31T06:54:29Z</time>
      </trkpt>
      <trkpt lat="44.53652" lon="4.60013">
        <ele>236.19999694824</ele>
        <time>2020-05-31T06:54:28Z</time>
      </trkpt>
      <trkpt lat="44.53657" lon="4.60012">
        <ele>236.39999389648</ele>
        <time>2020-05-31T06:54:27Z</time>
      </trkpt>
      <trkpt lat="44.53662" lon="4.6001">
        <ele>236.60000610352</ele>
        <time>2020-05-31T06:54:26Z</time>
      </trkpt>
      <trkpt lat="44.53688" lon="4.59998">
        <ele>237.60000610352</ele>
        <time>2020-05-31T06:54:21Z</time>
      </trkpt>
      <trkpt lat="44.53693" lon="4.59995">
        <ele>237.60000610352</ele>
        <time>2020-05-31T06:54:20Z</time>
      </trkpt>
      <trkpt lat="44.53698" lon="4.59993">
        <ele>237.60000610352</ele>
        <time>2020-05-31T06:54:19Z</time>
      </trkpt>
      <trkpt lat="44.53712" lon="4.59986">
        <ele>237.80000305176</ele>
        <time>2020-05-31T06:54:16Z</time>
      </trkpt>
      <trkpt lat="44.53721" lon="4.59982">
        <ele>238</ele>
        <time>2020-05-31T06:54:14Z</time>
      </trkpt>
      <trkpt lat="44.53725" lon="4.5998">
        <ele>238.19999694824</ele>
        <time>2020-05-31T06:54:13Z</time>
      </trkpt>
      <trkpt lat="44.5373" lon="4.59978">
        <ele>238.19999694824</ele>
        <time>2020-05-31T06:54:12Z</time>
      </trkpt>
      <trkpt lat="44.53739" lon="4.59973">
        <ele>238.60000610352</ele>
        <time>2020-05-31T06:54:10Z</time>
      </trkpt>
      <trkpt lat="44.53744" lon="4.59971">
        <ele>238.80000305176</ele>
        <time>2020-05-31T06:54:09Z</time>
      </trkpt>
      <trkpt lat="44.53753" lon="4.59965">
        <ele>239</ele>
        <time>2020-05-31T06:54:07Z</time>
      </trkpt>
      <trkpt lat="44.53771" lon="4.59956">
        <ele>239.19999694824</ele>
        <time>2020-05-31T06:54:03Z</time>
      </trkpt>
      <trkpt lat="44.53783" lon="4.59948">
        <ele>239.39999389648</ele>
        <time>2020-05-31T06:54:00Z</time>
      </trkpt>
      <trkpt lat="44.53787" lon="4.59946">
        <ele>239.39999389648</ele>
        <time>2020-05-31T06:53:59Z</time>
      </trkpt>
      <trkpt lat="44.53791" lon="4.59944">
        <ele>239.39999389648</ele>
        <time>2020-05-31T06:53:58Z</time>
      </trkpt>
      <trkpt lat="44.53794" lon="4.59942">
        <ele>239.60000610352</ele>
        <time>2020-05-31T06:53:57Z</time>
      </trkpt>
      <trkpt lat="44.53798" lon="4.5994">
        <ele>239.60000610352</ele>
        <time>2020-05-31T06:53:56Z</time>
      </trkpt>
      <trkpt lat="44.53801" lon="4.59937">
        <ele>239.80000305176</ele>
        <time>2020-05-31T06:53:55Z</time>
      </trkpt>
      <trkpt lat="44.53805" lon="4.59935">
        <ele>239.80000305176</ele>
        <time>2020-05-31T06:53:54Z</time>
      </trkpt>
      <trkpt lat="44.53809" lon="4.59933">
        <ele>240</ele>
        <time>2020-05-31T06:53:53Z</time>
      </trkpt>
      <trkpt lat="44.53813" lon="4.5993">
        <ele>240</ele>
        <time>2020-05-31T06:53:52Z</time>
      </trkpt>
      <trkpt lat="44.53816" lon="4.59928">
        <ele>240</ele>
        <time>2020-05-31T06:53:51Z</time>
      </trkpt>
      <trkpt lat="44.5382" lon="4.59925">
        <ele>240.19999694824</ele>
        <time>2020-05-31T06:53:50Z</time>
      </trkpt>
      <trkpt lat="44.53824" lon="4.59922">
        <ele>240.19999694824</ele>
        <time>2020-05-31T06:53:49Z</time>
      </trkpt>
      <trkpt lat="44.53828" lon="4.5992">
        <ele>240.19999694824</ele>
        <time>2020-05-31T06:53:48Z</time>
      </trkpt>
      <trkpt lat="44.53833" lon="4.59917">
        <ele>240.19999694824</ele>
        <time>2020-05-31T06:53:47Z</time>
      </trkpt>
      <trkpt lat="44.53845" lon="4.59907">
        <ele>240.39999389648</ele>
        <time>2020-05-31T06:53:44Z</time>
      </trkpt>
      <trkpt lat="44.53849" lon="4.59904">
        <ele>240.60000610352</ele>
        <time>2020-05-31T06:53:43Z</time>
      </trkpt>
      <trkpt lat="44.5386" lon="4.59892">
        <ele>240.80000305176</ele>
        <time>2020-05-31T06:53:40Z</time>
      </trkpt>
      <trkpt lat="44.53879" lon="4.59874">
        <ele>241</ele>
        <time>2020-05-31T06:53:35Z</time>
      </trkpt>
      <trkpt lat="44.5389" lon="4.59864">
        <ele>241</ele>
        <time>2020-05-31T06:53:32Z</time>
      </trkpt>
      <trkpt lat="44.53905" lon="4.59851">
        <ele>241</ele>
        <time>2020-05-31T06:53:28Z</time>
      </trkpt>
      <trkpt lat="44.5392" lon="4.59834">
        <ele>241.19999694824</ele>
        <time>2020-05-31T06:53:23Z</time>
      </trkpt>
      <trkpt lat="44.53923" lon="4.59831">
        <ele>241.19999694824</ele>
        <time>2020-05-31T06:53:22Z</time>
      </trkpt>
      <trkpt lat="44.53929" lon="4.59824">
        <ele>241.19999694824</ele>
        <time>2020-05-31T06:53:20Z</time>
      </trkpt>
      <trkpt lat="44.53934" lon="4.59818">
        <ele>241.19999694824</ele>
        <time>2020-05-31T06:53:18Z</time>
      </trkpt>
      <trkpt lat="44.53937" lon="4.59815">
        <ele>241.19999694824</ele>
        <time>2020-05-31T06:53:17Z</time>
      </trkpt>
      <trkpt lat="44.5394" lon="4.59812">
        <ele>241.39999389648</ele>
        <time>2020-05-31T06:53:16Z</time>
      </trkpt>
      <trkpt lat="44.53943" lon="4.59809">
        <ele>241.39999389648</ele>
        <time>2020-05-31T06:53:15Z</time>
      </trkpt>
      <trkpt lat="44.53949" lon="4.59803">
        <ele>241.60000610352</ele>
        <time>2020-05-31T06:53:13Z</time>
      </trkpt>
      <trkpt lat="44.53952" lon="4.598">
        <ele>241.39999389648</ele>
        <time>2020-05-31T06:53:12Z</time>
      </trkpt>
      <trkpt lat="44.53955" lon="4.59797">
        <ele>241.60000610352</ele>
        <time>2020-05-31T06:53:11Z</time>
      </trkpt>
      <trkpt lat="44.53957" lon="4.59794">
        <ele>241.60000610352</ele>
        <time>2020-05-31T06:53:10Z</time>
      </trkpt>
      <trkpt lat="44.53961" lon="4.5979">
        <ele>241.60000610352</ele>
        <time>2020-05-31T06:53:09Z</time>
      </trkpt>
      <trkpt lat="44.53964" lon="4.59787">
        <ele>241.80000305176</ele>
        <time>2020-05-31T06:53:08Z</time>
      </trkpt>
      <trkpt lat="44.53967" lon="4.59783">
        <ele>241.60000610352</ele>
        <time>2020-05-31T06:53:07Z</time>
      </trkpt>
      <trkpt lat="44.5397" lon="4.5978">
        <ele>241.60000610352</ele>
        <time>2020-05-31T06:53:06Z</time>
      </trkpt>
      <trkpt lat="44.53981" lon="4.59769">
        <ele>241.80000305176</ele>
        <time>2020-05-31T06:53:03Z</time>
      </trkpt>
      <trkpt lat="44.53984" lon="4.59765">
        <ele>241.80000305176</ele>
        <time>2020-05-31T06:53:02Z</time>
      </trkpt>
      <trkpt lat="44.53987" lon="4.59761">
        <ele>241.80000305176</ele>
        <time>2020-05-31T06:53:01Z</time>
      </trkpt>
      <trkpt lat="44.5399" lon="4.59758">
        <ele>242</ele>
        <time>2020-05-31T06:53:00Z</time>
      </trkpt>
      <trkpt lat="44.53992" lon="4.59754">
        <ele>242</ele>
        <time>2020-05-31T06:52:59Z</time>
      </trkpt>
      <trkpt lat="44.53995" lon="4.59751">
        <ele>241.80000305176</ele>
        <time>2020-05-31T06:52:58Z</time>
      </trkpt>
      <trkpt lat="44.53997" lon="4.59748">
        <ele>241.80000305176</ele>
        <time>2020-05-31T06:52:57Z</time>
      </trkpt>
      <trkpt lat="44.54" lon="4.59744">
        <ele>241.80000305176</ele>
        <time>2020-05-31T06:52:56Z</time>
      </trkpt>
      <trkpt lat="44.54003" lon="4.5974">
        <ele>241.80000305176</ele>
        <time>2020-05-31T06:52:55Z</time>
      </trkpt>
      <trkpt lat="44.54006" lon="4.59735">
        <ele>241.80000305176</ele>
        <time>2020-05-31T06:52:54Z</time>
      </trkpt>
      <trkpt lat="44.54009" lon="4.59729">
        <ele>242</ele>
        <time>2020-05-31T06:52:53Z</time>
      </trkpt>
      <trkpt lat="44.54017" lon="4.59718">
        <ele>241.80000305176</ele>
        <time>2020-05-31T06:52:51Z</time>
      </trkpt>
      <trkpt lat="44.54021" lon="4.59713">
        <ele>242</ele>
        <time>2020-05-31T06:52:50Z</time>
      </trkpt>
      <trkpt lat="44.54025" lon="4.59707">
        <ele>241.80000305176</ele>
        <time>2020-05-31T06:52:49Z</time>
      </trkpt>
      <trkpt lat="44.5403" lon="4.59702">
        <ele>242</ele>
        <time>2020-05-31T06:52:48Z</time>
      </trkpt>
      <trkpt lat="44.54034" lon="4.59697">
        <ele>242</ele>
        <time>2020-05-31T06:52:47Z</time>
      </trkpt>
      <trkpt lat="44.54038" lon="4.59692">
        <ele>241.80000305176</ele>
        <time>2020-05-31T06:52:46Z</time>
      </trkpt>
      <trkpt lat="44.54042" lon="4.59686">
        <ele>241.60000610352</ele>
        <time>2020-05-31T06:52:45Z</time>
      </trkpt>
      <trkpt lat="44.54051" lon="4.59675">
        <ele>241</ele>
        <time>2020-05-31T06:52:43Z</time>
      </trkpt>
      <trkpt lat="44.54059" lon="4.59664">
        <ele>241</ele>
        <time>2020-05-31T06:52:41Z</time>
      </trkpt>
      <trkpt lat="44.54064" lon="4.59659">
        <ele>241</ele>
        <time>2020-05-31T06:52:40Z</time>
      </trkpt>
      <trkpt lat="44.54068" lon="4.59655">
        <ele>240.80000305176</ele>
        <time>2020-05-31T06:52:39Z</time>
      </trkpt>
      <trkpt lat="44.54073" lon="4.5965">
        <ele>240.60000610352</ele>
        <time>2020-05-31T06:52:38Z</time>
      </trkpt>
      <trkpt lat="44.54077" lon="4.59645">
        <ele>240.60000610352</ele>
        <time>2020-05-31T06:52:37Z</time>
      </trkpt>
      <trkpt lat="44.54081" lon="4.59639">
        <ele>240.39999389648</ele>
        <time>2020-05-31T06:52:36Z</time>
      </trkpt>
      <trkpt lat="44.54085" lon="4.59634">
        <ele>240.19999694824</ele>
        <time>2020-05-31T06:52:35Z</time>
      </trkpt>
      <trkpt lat="44.54089" lon="4.59628">
        <ele>239.80000305176</ele>
        <time>2020-05-31T06:52:34Z</time>
      </trkpt>
      <trkpt lat="44.54093" lon="4.59622">
        <ele>239.80000305176</ele>
        <time>2020-05-31T06:52:33Z</time>
      </trkpt>
      <trkpt lat="44.54097" lon="4.59616">
        <ele>239.80000305176</ele>
        <time>2020-05-31T06:52:32Z</time>
      </trkpt>
      <trkpt lat="44.54101" lon="4.59611">
        <ele>239.80000305176</ele>
        <time>2020-05-31T06:52:31Z</time>
      </trkpt>
      <trkpt lat="44.54106" lon="4.59607">
        <ele>239.80000305176</ele>
        <time>2020-05-31T06:52:30Z</time>
      </trkpt>
      <trkpt lat="44.54111" lon="4.59605">
        <ele>239.80000305176</ele>
        <time>2020-05-31T06:52:29Z</time>
      </trkpt>
      <trkpt lat="44.54117" lon="4.59603">
        <ele>240</ele>
        <time>2020-05-31T06:52:28Z</time>
      </trkpt>
      <trkpt lat="44.54122" lon="4.59602">
        <ele>240</ele>
        <time>2020-05-31T06:52:27Z</time>
      </trkpt>
      <trkpt lat="44.54128" lon="4.59601">
        <ele>240.19999694824</ele>
        <time>2020-05-31T06:52:26Z</time>
      </trkpt>
      <trkpt lat="44.54134" lon="4.596">
        <ele>240.39999389648</ele>
        <time>2020-05-31T06:52:25Z</time>
      </trkpt>
      <trkpt lat="44.5414" lon="4.596">
        <ele>241</ele>
        <time>2020-05-31T06:52:24Z</time>
      </trkpt>
      <trkpt lat="44.54146" lon="4.59599">
        <ele>241.80000305176</ele>
        <time>2020-05-31T06:52:23Z</time>
      </trkpt>
      <trkpt lat="44.54152" lon="4.59597">
        <ele>242.60000610352</ele>
        <time>2020-05-31T06:52:22Z</time>
      </trkpt>
      <trkpt lat="44.54158" lon="4.59595">
        <ele>243.19999694824</ele>
        <time>2020-05-31T06:52:21Z</time>
      </trkpt>
      <trkpt lat="44.54165" lon="4.59593">
        <ele>243.19999694824</ele>
        <time>2020-05-31T06:52:20Z</time>
      </trkpt>
      <trkpt lat="44.54172" lon="4.5959">
        <ele>243.80000305176</ele>
        <time>2020-05-31T06:52:19Z</time>
      </trkpt>
      <trkpt lat="44.54179" lon="4.5959">
        <ele>244</ele>
        <time>2020-05-31T06:52:18Z</time>
      </trkpt>
      <trkpt lat="44.54186" lon="4.59592">
        <ele>244.39999389648</ele>
        <time>2020-05-31T06:52:17Z</time>
      </trkpt>
      <trkpt lat="44.54194" lon="4.59595">
        <ele>244.80000305176</ele>
        <time>2020-05-31T06:52:16Z</time>
      </trkpt>
      <trkpt lat="44.54202" lon="4.59598">
        <ele>245.19999694824</ele>
        <time>2020-05-31T06:52:15Z</time>
      </trkpt>
      <trkpt lat="44.5421" lon="4.596">
        <ele>245.39999389648</ele>
        <time>2020-05-31T06:52:14Z</time>
      </trkpt>
      <trkpt lat="44.54217" lon="4.59602">
        <ele>246</ele>
        <time>2020-05-31T06:52:13Z</time>
      </trkpt>
      <trkpt lat="44.54231" lon="4.59607">
        <ele>246.39999389648</ele>
        <time>2020-05-31T06:52:11Z</time>
      </trkpt>
      <trkpt lat="44.54243" lon="4.59612">
        <ele>246.80000305176</ele>
        <time>2020-05-31T06:52:09Z</time>
      </trkpt>
      <trkpt lat="44.54254" lon="4.59615">
        <ele>247.39999389648</ele>
        <time>2020-05-31T06:52:07Z</time>
      </trkpt>
      <trkpt lat="44.5427" lon="4.59619">
        <ele>248</ele>
        <time>2020-05-31T06:52:04Z</time>
      </trkpt>
      <trkpt lat="44.54284" lon="4.59624">
        <ele>248.39999389648</ele>
        <time>2020-05-31T06:52:01Z</time>
      </trkpt>
      <trkpt lat="44.54294" lon="4.59627">
        <ele>248.39999389648</ele>
        <time>2020-05-31T06:51:58Z</time>
      </trkpt>
      <trkpt lat="44.54304" lon="4.5963">
        <ele>248.39999389648</ele>
        <time>2020-05-31T06:51:55Z</time>
      </trkpt>
      <trkpt lat="44.54307" lon="4.5963">
        <ele>248.60000610352</ele>
        <time>2020-05-31T06:51:54Z</time>
      </trkpt>
      <trkpt lat="44.5431" lon="4.5963">
        <ele>248.39999389648</ele>
        <time>2020-05-31T06:51:53Z</time>
      </trkpt>
      <trkpt lat="44.54313" lon="4.59629">
        <ele>248.39999389648</ele>
        <time>2020-05-31T06:51:52Z</time>
      </trkpt>
      <trkpt lat="44.54319" lon="4.59626">
        <ele>248.60000610352</ele>
        <time>2020-05-31T06:51:50Z</time>
      </trkpt>
      <trkpt lat="44.54327" lon="4.5962">
        <ele>248.39999389648</ele>
        <time>2020-05-31T06:51:47Z</time>
      </trkpt>
      <trkpt lat="44.54337" lon="4.59611">
        <ele>247.80000305176</ele>
        <time>2020-05-31T06:51:43Z</time>
      </trkpt>
      <trkpt lat="44.54339" lon="4.59609">
        <ele>247.60000610352</ele>
        <time>2020-05-31T06:51:42Z</time>
      </trkpt>
      <trkpt lat="44.54342" lon="4.59607">
        <ele>247.39999389648</ele>
        <time>2020-05-31T06:51:41Z</time>
      </trkpt>
      <trkpt lat="44.54344" lon="4.59605">
        <ele>247.39999389648</ele>
        <time>2020-05-31T06:51:40Z</time>
      </trkpt>
      <trkpt lat="44.54347" lon="4.59603">
        <ele>247.19999694824</ele>
        <time>2020-05-31T06:51:39Z</time>
      </trkpt>
      <trkpt lat="44.5435" lon="4.59601">
        <ele>247.19999694824</ele>
        <time>2020-05-31T06:51:38Z</time>
      </trkpt>
      <trkpt lat="44.54352" lon="4.59599">
        <ele>247</ele>
        <time>2020-05-31T06:51:37Z</time>
      </trkpt>
      <trkpt lat="44.54355" lon="4.59596">
        <ele>247</ele>
        <time>2020-05-31T06:51:36Z</time>
      </trkpt>
      <trkpt lat="44.54357" lon="4.59595">
        <ele>247</ele>
        <time>2020-05-31T06:51:35Z</time>
      </trkpt>
      <trkpt lat="44.5436" lon="4.59593">
        <ele>246.80000305176</ele>
        <time>2020-05-31T06:51:34Z</time>
      </trkpt>
      <trkpt lat="44.54363" lon="4.59591">
        <ele>246.80000305176</ele>
        <time>2020-05-31T06:51:33Z</time>
      </trkpt>
      <trkpt lat="44.54366" lon="4.5959">
        <ele>246.60000610352</ele>
        <time>2020-05-31T06:51:32Z</time>
      </trkpt>
      <trkpt lat="44.54369" lon="4.59588">
        <ele>246.60000610352</ele>
        <time>2020-05-31T06:51:31Z</time>
      </trkpt>
      <trkpt lat="44.54372" lon="4.59587">
        <ele>246.39999389648</ele>
        <time>2020-05-31T06:51:30Z</time>
      </trkpt>
      <trkpt lat="44.54375" lon="4.59586">
        <ele>246.39999389648</ele>
        <time>2020-05-31T06:51:29Z</time>
      </trkpt>
      <trkpt lat="44.54378" lon="4.59586">
        <ele>246.39999389648</ele>
        <time>2020-05-31T06:51:28Z</time>
      </trkpt>
      <trkpt lat="44.54381" lon="4.59586">
        <ele>246.39999389648</ele>
        <time>2020-05-31T06:51:27Z</time>
      </trkpt>
      <trkpt lat="44.54387" lon="4.59586">
        <ele>246</ele>
        <time>2020-05-31T06:51:25Z</time>
      </trkpt>
      <trkpt lat="44.5439" lon="4.59586">
        <ele>246</ele>
        <time>2020-05-31T06:51:24Z</time>
      </trkpt>
      <trkpt lat="44.54402" lon="4.59585">
        <ele>244.80000305176</ele>
        <time>2020-05-31T06:51:20Z</time>
      </trkpt>
      <trkpt lat="44.54405" lon="4.59585">
        <ele>244.80000305176</ele>
        <time>2020-05-31T06:51:19Z</time>
      </trkpt>
      <trkpt lat="44.54408" lon="4.59584">
        <ele>244.60000610352</ele>
        <time>2020-05-31T06:51:18Z</time>
      </trkpt>
      <trkpt lat="44.54411" lon="4.59583">
        <ele>244.60000610352</ele>
        <time>2020-05-31T06:51:17Z</time>
      </trkpt>
      <trkpt lat="44.54413" lon="4.59582">
        <ele>244.60000610352</ele>
        <time>2020-05-31T06:51:16Z</time>
      </trkpt>
      <trkpt lat="44.54416" lon="4.59582">
        <ele>244.19999694824</ele>
        <time>2020-05-31T06:51:15Z</time>
      </trkpt>
      <trkpt lat="44.54418" lon="4.59582">
        <ele>244</ele>
        <time>2020-05-31T06:51:14Z</time>
      </trkpt>
      <trkpt lat="44.54421" lon="4.59582">
        <ele>243.80000305176</ele>
        <time>2020-05-31T06:51:13Z</time>
      </trkpt>
      <trkpt lat="44.54424" lon="4.59583">
        <ele>243.39999389648</ele>
        <time>2020-05-31T06:51:12Z</time>
      </trkpt>
      <trkpt lat="44.54426" lon="4.59583">
        <ele>243</ele>
        <time>2020-05-31T06:51:11Z</time>
      </trkpt>
      <trkpt lat="44.54429" lon="4.59583">
        <ele>242.80000305176</ele>
        <time>2020-05-31T06:51:10Z</time>
      </trkpt>
      <trkpt lat="44.54432" lon="4.59584">
        <ele>242.60000610352</ele>
        <time>2020-05-31T06:51:09Z</time>
      </trkpt>
      <trkpt lat="44.54434" lon="4.59584">
        <ele>242.39999389648</ele>
        <time>2020-05-31T06:51:08Z</time>
      </trkpt>
      <trkpt lat="44.54437" lon="4.59584">
        <ele>242.19999694824</ele>
        <time>2020-05-31T06:51:07Z</time>
      </trkpt>
      <trkpt lat="44.54439" lon="4.59585">
        <ele>241.60000610352</ele>
        <time>2020-05-31T06:51:06Z</time>
      </trkpt>
      <trkpt lat="44.54441" lon="4.59585">
        <ele>241.60000610352</ele>
        <time>2020-05-31T06:51:05Z</time>
      </trkpt>
      <trkpt lat="44.54443" lon="4.59585">
        <ele>241.19999694824</ele>
        <time>2020-05-31T06:51:04Z</time>
      </trkpt>
      <trkpt lat="44.54446" lon="4.59586">
        <ele>240.80000305176</ele>
        <time>2020-05-31T06:51:03Z</time>
      </trkpt>
      <trkpt lat="44.54448" lon="4.59586">
        <ele>240.80000305176</ele>
        <time>2020-05-31T06:51:02Z</time>
      </trkpt>
      <trkpt lat="44.5445" lon="4.59586">
        <ele>240.80000305176</ele>
        <time>2020-05-31T06:51:01Z</time>
      </trkpt>
      <trkpt lat="44.54453" lon="4.59587">
        <ele>240.60000610352</ele>
        <time>2020-05-31T06:51:00Z</time>
      </trkpt>
      <trkpt lat="44.54455" lon="4.59587">
        <ele>240.19999694824</ele>
        <time>2020-05-31T06:50:59Z</time>
      </trkpt>
      <trkpt lat="44.54457" lon="4.59587">
        <ele>240.19999694824</ele>
        <time>2020-05-31T06:50:58Z</time>
      </trkpt>
      <trkpt lat="44.5446" lon="4.59588">
        <ele>240.19999694824</ele>
        <time>2020-05-31T06:50:57Z</time>
      </trkpt>
      <trkpt lat="44.54462" lon="4.59589">
        <ele>240</ele>
        <time>2020-05-31T06:50:56Z</time>
      </trkpt>
      <trkpt lat="44.54464" lon="4.59589">
        <ele>239.80000305176</ele>
        <time>2020-05-31T06:50:55Z</time>
      </trkpt>
      <trkpt lat="44.54466" lon="4.5959">
        <ele>239.39999389648</ele>
        <time>2020-05-31T06:50:54Z</time>
      </trkpt>
      <trkpt lat="44.54469" lon="4.59589">
        <ele>239.39999389648</ele>
        <time>2020-05-31T06:50:53Z</time>
      </trkpt>
      <trkpt lat="44.54471" lon="4.59589">
        <ele>239.39999389648</ele>
        <time>2020-05-31T06:50:52Z</time>
      </trkpt>
      <trkpt lat="44.54472" lon="4.59589">
        <ele>239.39999389648</ele>
        <time>2020-05-31T06:50:51Z</time>
      </trkpt>
      <trkpt lat="44.54474" lon="4.59589">
        <ele>239.19999694824</ele>
        <time>2020-05-31T06:50:50Z</time>
      </trkpt>
      <trkpt lat="44.54476" lon="4.59589">
        <ele>239.19999694824</ele>
        <time>2020-05-31T06:50:49Z</time>
      </trkpt>
      <trkpt lat="44.54478" lon="4.59588">
        <ele>239.19999694824</ele>
        <time>2020-05-31T06:50:47Z</time>
      </trkpt>
      <trkpt lat="44.5448" lon="4.59588">
        <ele>239.19999694824</ele>
        <time>2020-05-31T06:50:46Z</time>
      </trkpt>
      <trkpt lat="44.54481" lon="4.59588">
        <ele>239.19999694824</ele>
        <time>2020-05-31T06:50:45Z</time>
      </trkpt>
      <trkpt lat="44.54482" lon="4.59589">
        <ele>239</ele>
        <time>2020-05-31T06:50:44Z</time>
      </trkpt>
      <trkpt lat="44.54483" lon="4.59589">
        <ele>239</ele>
        <time>2020-05-31T06:50:43Z</time>
      </trkpt>
      <trkpt lat="44.54483" lon="4.59589">
        <ele>239.19999694824</ele>
        <time>2020-05-31T06:50:42Z</time>
      </trkpt>
      <trkpt lat="44.54484" lon="4.59589">
        <ele>239.19999694824</ele>
        <time>2020-05-31T06:50:41Z</time>
      </trkpt>
      <trkpt lat="44.54484" lon="4.59589">
        <ele>239</ele>
        <time>2020-05-31T06:50:40Z</time>
      </trkpt>
      <trkpt lat="44.54484" lon="4.59588">
        <ele>239.19999694824</ele>
        <time>2020-05-31T06:50:37Z</time>
      </trkpt>
      <trkpt lat="44.54484" lon="4.59588">
        <ele>239</ele>
        <time>2020-05-31T06:50:36Z</time>
      </trkpt>
      <trkpt lat="44.54485" lon="4.59588">
        <ele>238.19999694824</ele>
        <time>2020-05-31T06:50:26Z</time>
      </trkpt>
      <trkpt lat="44.54486" lon="4.59588">
        <ele>237.19999694824</ele>
        <time>2020-05-31T06:50:22Z</time>
      </trkpt>
      <trkpt lat="44.54488" lon="4.59588">
        <ele>236.80000305176</ele>
        <time>2020-05-31T06:50:21Z</time>
      </trkpt>
      <trkpt lat="44.5449" lon="4.59588">
        <ele>236.60000610352</ele>
        <time>2020-05-31T06:50:20Z</time>
      </trkpt>
      <trkpt lat="44.54492" lon="4.59587">
        <ele>236.39999389648</ele>
        <time>2020-05-31T06:50:19Z</time>
      </trkpt>
      <trkpt lat="44.54494" lon="4.59587">
        <ele>236.39999389648</ele>
        <time>2020-05-31T06:50:18Z</time>
      </trkpt>
      <trkpt lat="44.54495" lon="4.59587">
        <ele>236.19999694824</ele>
        <time>2020-05-31T06:50:17Z</time>
      </trkpt>
      <trkpt lat="44.54497" lon="4.59586">
        <ele>235.80000305176</ele>
        <time>2020-05-31T06:50:16Z</time>
      </trkpt>
      <trkpt lat="44.54499" lon="4.59586">
        <ele>235.80000305176</ele>
        <time>2020-05-31T06:50:15Z</time>
      </trkpt>
      <trkpt lat="44.545" lon="4.59586">
        <ele>235.80000305176</ele>
        <time>2020-05-31T06:50:14Z</time>
      </trkpt>
      <trkpt lat="44.54502" lon="4.59585">
        <ele>235.39999389648</ele>
        <time>2020-05-31T06:50:13Z</time>
      </trkpt>
      <trkpt lat="44.54504" lon="4.59585">
        <ele>235.19999694824</ele>
        <time>2020-05-31T06:50:12Z</time>
      </trkpt>
      <trkpt lat="44.54506" lon="4.59585">
        <ele>235.19999694824</ele>
        <time>2020-05-31T06:50:11Z</time>
      </trkpt>
      <trkpt lat="44.54508" lon="4.59585">
        <ele>235</ele>
        <time>2020-05-31T06:50:10Z</time>
      </trkpt>
      <trkpt lat="44.5451" lon="4.59585">
        <ele>234.80000305176</ele>
        <time>2020-05-31T06:50:09Z</time>
      </trkpt>
      <trkpt lat="44.54512" lon="4.59585">
        <ele>234.39999389648</ele>
        <time>2020-05-31T06:50:08Z</time>
      </trkpt>
      <trkpt lat="44.54513" lon="4.59586">
        <ele>234.19999694824</ele>
        <time>2020-05-31T06:50:07Z</time>
      </trkpt>
      <trkpt lat="44.54515" lon="4.59586">
        <ele>233.80000305176</ele>
        <time>2020-05-31T06:50:06Z</time>
      </trkpt>
      <trkpt lat="44.54518" lon="4.59586">
        <ele>234</ele>
        <time>2020-05-31T06:50:05Z</time>
      </trkpt>
      <trkpt lat="44.5452" lon="4.59585">
        <ele>233.60000610352</ele>
        <time>2020-05-31T06:50:04Z</time>
      </trkpt>
      <trkpt lat="44.54522" lon="4.59584">
        <ele>233.60000610352</ele>
        <time>2020-05-31T06:50:03Z</time>
      </trkpt>
      <trkpt lat="44.54523" lon="4.59583">
        <ele>233.39999389648</ele>
        <time>2020-05-31T06:50:02Z</time>
      </trkpt>
      <trkpt lat="44.54525" lon="4.59582">
        <ele>233.39999389648</ele>
        <time>2020-05-31T06:50:01Z</time>
      </trkpt>
      <trkpt lat="44.54527" lon="4.59582">
        <ele>233</ele>
        <time>2020-05-31T06:50:00Z</time>
      </trkpt>
      <trkpt lat="44.54529" lon="4.59582">
        <ele>232.80000305176</ele>
        <time>2020-05-31T06:49:59Z</time>
      </trkpt>
      <trkpt lat="44.54531" lon="4.59582">
        <ele>232.80000305176</ele>
        <time>2020-05-31T06:49:58Z</time>
      </trkpt>
      <trkpt lat="44.54533" lon="4.59582">
        <ele>232.60000610352</ele>
        <time>2020-05-31T06:49:57Z</time>
      </trkpt>
      <trkpt lat="44.54535" lon="4.59582">
        <ele>232.60000610352</ele>
        <time>2020-05-31T06:49:56Z</time>
      </trkpt>
      <trkpt lat="44.54537" lon="4.59581">
        <ele>232.39999389648</ele>
        <time>2020-05-31T06:49:55Z</time>
      </trkpt>
      <trkpt lat="44.54539" lon="4.5958">
        <ele>232.19999694824</ele>
        <time>2020-05-31T06:49:54Z</time>
      </trkpt>
      <trkpt lat="44.54541" lon="4.5958">
        <ele>232.19999694824</ele>
        <time>2020-05-31T06:49:53Z</time>
      </trkpt>
      <trkpt lat="44.54543" lon="4.5958">
        <ele>232.19999694824</ele>
        <time>2020-05-31T06:49:52Z</time>
      </trkpt>
      <trkpt lat="44.54545" lon="4.59579">
        <ele>231.80000305176</ele>
        <time>2020-05-31T06:49:51Z</time>
      </trkpt>
      <trkpt lat="44.54547" lon="4.59579">
        <ele>232</ele>
        <time>2020-05-31T06:49:50Z</time>
      </trkpt>
      <trkpt lat="44.54549" lon="4.59578">
        <ele>231.60000610352</ele>
        <time>2020-05-31T06:49:49Z</time>
      </trkpt>
      <trkpt lat="44.54551" lon="4.59578">
        <ele>231.39999389648</ele>
        <time>2020-05-31T06:49:48Z</time>
      </trkpt>
      <trkpt lat="44.54553" lon="4.59577">
        <ele>231.39999389648</ele>
        <time>2020-05-31T06:49:47Z</time>
      </trkpt>
      <trkpt lat="44.54555" lon="4.59577">
        <ele>231.19999694824</ele>
        <time>2020-05-31T06:49:46Z</time>
      </trkpt>
      <trkpt lat="44.54556" lon="4.59577">
        <ele>230.80000305176</ele>
        <time>2020-05-31T06:49:45Z</time>
      </trkpt>
      <trkpt lat="44.54558" lon="4.59576">
        <ele>230.60000610352</ele>
        <time>2020-05-31T06:49:44Z</time>
      </trkpt>
      <trkpt lat="44.5456" lon="4.59576">
        <ele>230.19999694824</ele>
        <time>2020-05-31T06:49:43Z</time>
      </trkpt>
      <trkpt lat="44.54562" lon="4.59576">
        <ele>230</ele>
        <time>2020-05-31T06:49:42Z</time>
      </trkpt>
      <trkpt lat="44.54564" lon="4.59576">
        <ele>229.60000610352</ele>
        <time>2020-05-31T06:49:41Z</time>
      </trkpt>
      <trkpt lat="44.54566" lon="4.59576">
        <ele>229.19999694824</ele>
        <time>2020-05-31T06:49:40Z</time>
      </trkpt>
      <trkpt lat="44.54568" lon="4.59575">
        <ele>229.19999694824</ele>
        <time>2020-05-31T06:49:39Z</time>
      </trkpt>
      <trkpt lat="44.54569" lon="4.59575">
        <ele>228.80000305176</ele>
        <time>2020-05-31T06:49:38Z</time>
      </trkpt>
      <trkpt lat="44.54571" lon="4.59575">
        <ele>228.60000610352</ele>
        <time>2020-05-31T06:49:37Z</time>
      </trkpt>
      <trkpt lat="44.54573" lon="4.59575">
        <ele>228.39999389648</ele>
        <time>2020-05-31T06:49:36Z</time>
      </trkpt>
      <trkpt lat="44.54575" lon="4.59575">
        <ele>228</ele>
        <time>2020-05-31T06:49:35Z</time>
      </trkpt>
      <trkpt lat="44.54577" lon="4.59575">
        <ele>227.80000305176</ele>
        <time>2020-05-31T06:49:34Z</time>
      </trkpt>
      <trkpt lat="44.54579" lon="4.59574">
        <ele>227.60000610352</ele>
        <time>2020-05-31T06:49:33Z</time>
      </trkpt>
      <trkpt lat="44.5458" lon="4.59574">
        <ele>227.19999694824</ele>
        <time>2020-05-31T06:49:32Z</time>
      </trkpt>
      <trkpt lat="44.54582" lon="4.59574">
        <ele>227.19999694824</ele>
        <time>2020-05-31T06:49:31Z</time>
      </trkpt>
      <trkpt lat="44.54584" lon="4.59574">
        <ele>227</ele>
        <time>2020-05-31T06:49:30Z</time>
      </trkpt>
      <trkpt lat="44.54585" lon="4.59574">
        <ele>226.39999389648</ele>
        <time>2020-05-31T06:49:29Z</time>
      </trkpt>
      <trkpt lat="44.54587" lon="4.59574">
        <ele>226</ele>
        <time>2020-05-31T06:49:28Z</time>
      </trkpt>
      <trkpt lat="44.54588" lon="4.59573">
        <ele>225.80000305176</ele>
        <time>2020-05-31T06:49:27Z</time>
      </trkpt>
      <trkpt lat="44.5459" lon="4.59573">
        <ele>225.39999389648</ele>
        <time>2020-05-31T06:49:26Z</time>
      </trkpt>
      <trkpt lat="44.54592" lon="4.59574">
        <ele>225.19999694824</ele>
        <time>2020-05-31T06:49:25Z</time>
      </trkpt>
      <trkpt lat="44.54593" lon="4.59574">
        <ele>225</ele>
        <time>2020-05-31T06:49:24Z</time>
      </trkpt>
      <trkpt lat="44.54595" lon="4.59575">
        <ele>224.60000610352</ele>
        <time>2020-05-31T06:49:23Z</time>
      </trkpt>
      <trkpt lat="44.54597" lon="4.59575">
        <ele>224.39999389648</ele>
        <time>2020-05-31T06:49:22Z</time>
      </trkpt>
      <trkpt lat="44.54598" lon="4.59575">
        <ele>224</ele>
        <time>2020-05-31T06:49:21Z</time>
      </trkpt>
      <trkpt lat="44.546" lon="4.59575">
        <ele>223.80000305176</ele>
        <time>2020-05-31T06:49:20Z</time>
      </trkpt>
      <trkpt lat="44.54601" lon="4.59574">
        <ele>223.39999389648</ele>
        <time>2020-05-31T06:49:19Z</time>
      </trkpt>
      <trkpt lat="44.54603" lon="4.59575">
        <ele>223</ele>
        <time>2020-05-31T06:49:18Z</time>
      </trkpt>
      <trkpt lat="44.54605" lon="4.59575">
        <ele>222.60000610352</ele>
        <time>2020-05-31T06:49:17Z</time>
      </trkpt>
      <trkpt lat="44.54606" lon="4.59575">
        <ele>222.19999694824</ele>
        <time>2020-05-31T06:49:16Z</time>
      </trkpt>
      <trkpt lat="44.54608" lon="4.59575">
        <ele>222.19999694824</ele>
        <time>2020-05-31T06:49:15Z</time>
      </trkpt>
      <trkpt lat="44.54609" lon="4.59575">
        <ele>221.80000305176</ele>
        <time>2020-05-31T06:49:14Z</time>
      </trkpt>
      <trkpt lat="44.54611" lon="4.59574">
        <ele>221.60000610352</ele>
        <time>2020-05-31T06:49:13Z</time>
      </trkpt>
      <trkpt lat="44.54612" lon="4.59574">
        <ele>221.39999389648</ele>
        <time>2020-05-31T06:49:12Z</time>
      </trkpt>
      <trkpt lat="44.54614" lon="4.59573">
        <ele>221.19999694824</ele>
        <time>2020-05-31T06:49:11Z</time>
      </trkpt>
      <trkpt lat="44.54616" lon="4.59573">
        <ele>221.19999694824</ele>
        <time>2020-05-31T06:49:10Z</time>
      </trkpt>
      <trkpt lat="44.54618" lon="4.59573">
        <ele>221</ele>
        <time>2020-05-31T06:49:09Z</time>
      </trkpt>
      <trkpt lat="44.54619" lon="4.59573">
        <ele>220.60000610352</ele>
        <time>2020-05-31T06:49:08Z</time>
      </trkpt>
      <trkpt lat="44.54621" lon="4.59572">
        <ele>220.60000610352</ele>
        <time>2020-05-31T06:49:07Z</time>
      </trkpt>
      <trkpt lat="44.54622" lon="4.59572">
        <ele>220.39999389648</ele>
        <time>2020-05-31T06:49:06Z</time>
      </trkpt>
      <trkpt lat="44.54624" lon="4.59571">
        <ele>220.19999694824</ele>
        <time>2020-05-31T06:49:05Z</time>
      </trkpt>
      <trkpt lat="44.54625" lon="4.59571">
        <ele>220</ele>
        <time>2020-05-31T06:49:04Z</time>
      </trkpt>
      <trkpt lat="44.54627" lon="4.59571">
        <ele>219.80000305176</ele>
        <time>2020-05-31T06:49:03Z</time>
      </trkpt>
      <trkpt lat="44.54628" lon="4.59571">
        <ele>219.60000610352</ele>
        <time>2020-05-31T06:49:02Z</time>
      </trkpt>
      <trkpt lat="44.54629" lon="4.5957">
        <ele>219.19999694824</ele>
        <time>2020-05-31T06:49:01Z</time>
      </trkpt>
      <trkpt lat="44.54631" lon="4.5957">
        <ele>218.80000305176</ele>
        <time>2020-05-31T06:49:00Z</time>
      </trkpt>
      <trkpt lat="44.54632" lon="4.5957">
        <ele>218.60000610352</ele>
        <time>2020-05-31T06:48:59Z</time>
      </trkpt>
      <trkpt lat="44.54633" lon="4.5957">
        <ele>218.60000610352</ele>
        <time>2020-05-31T06:48:58Z</time>
      </trkpt>
      <trkpt lat="44.54634" lon="4.5957">
        <ele>218.19999694824</ele>
        <time>2020-05-31T06:48:57Z</time>
      </trkpt>
      <trkpt lat="44.54635" lon="4.5957">
        <ele>218</ele>
        <time>2020-05-31T06:48:56Z</time>
      </trkpt>
      <trkpt lat="44.54637" lon="4.59571">
        <ele>217.60000610352</ele>
        <time>2020-05-31T06:48:55Z</time>
      </trkpt>
      <trkpt lat="44.54639" lon="4.5957">
        <ele>217.39999389648</ele>
        <time>2020-05-31T06:48:54Z</time>
      </trkpt>
      <trkpt lat="44.54641" lon="4.59571">
        <ele>217.19999694824</ele>
        <time>2020-05-31T06:48:53Z</time>
      </trkpt>
      <trkpt lat="44.54642" lon="4.59571">
        <ele>216.60000610352</ele>
        <time>2020-05-31T06:48:52Z</time>
      </trkpt>
      <trkpt lat="44.54644" lon="4.59572">
        <ele>216.39999389648</ele>
        <time>2020-05-31T06:48:51Z</time>
      </trkpt>
      <trkpt lat="44.54645" lon="4.59572">
        <ele>216.19999694824</ele>
        <time>2020-05-31T06:48:50Z</time>
      </trkpt>
      <trkpt lat="44.54646" lon="4.59573">
        <ele>216.19999694824</ele>
        <time>2020-05-31T06:48:49Z</time>
      </trkpt>
      <trkpt lat="44.54648" lon="4.59574">
        <ele>215.80000305176</ele>
        <time>2020-05-31T06:48:48Z</time>
      </trkpt>
      <trkpt lat="44.54649" lon="4.59575">
        <ele>215.60000610352</ele>
        <time>2020-05-31T06:48:47Z</time>
      </trkpt>
      <trkpt lat="44.5465" lon="4.59576">
        <ele>215.39999389648</ele>
        <time>2020-05-31T06:48:46Z</time>
      </trkpt>
      <trkpt lat="44.54651" lon="4.59576">
        <ele>215</ele>
        <time>2020-05-31T06:48:45Z</time>
      </trkpt>
      <trkpt lat="44.54653" lon="4.59577">
        <ele>214.80000305176</ele>
        <time>2020-05-31T06:48:44Z</time>
      </trkpt>
      <trkpt lat="44.54655" lon="4.59577">
        <ele>214.80000305176</ele>
        <time>2020-05-31T06:48:43Z</time>
      </trkpt>
      <trkpt lat="44.54656" lon="4.59578">
        <ele>214.39999389648</ele>
        <time>2020-05-31T06:48:42Z</time>
      </trkpt>
      <trkpt lat="44.54658" lon="4.59578">
        <ele>213.80000305176</ele>
        <time>2020-05-31T06:48:41Z</time>
      </trkpt>
      <trkpt lat="44.54659" lon="4.59579">
        <ele>213.39999389648</ele>
        <time>2020-05-31T06:48:40Z</time>
      </trkpt>
      <trkpt lat="44.54661" lon="4.59579">
        <ele>213.19999694824</ele>
        <time>2020-05-31T06:48:39Z</time>
      </trkpt>
      <trkpt lat="44.54663" lon="4.59579">
        <ele>212.80000305176</ele>
        <time>2020-05-31T06:48:38Z</time>
      </trkpt>
      <trkpt lat="44.54665" lon="4.5958">
        <ele>212.39999389648</ele>
        <time>2020-05-31T06:48:37Z</time>
      </trkpt>
      <trkpt lat="44.54666" lon="4.59581">
        <ele>212</ele>
        <time>2020-05-31T06:48:36Z</time>
      </trkpt>
      <trkpt lat="44.54668" lon="4.59581">
        <ele>211.60000610352</ele>
        <time>2020-05-31T06:48:35Z</time>
      </trkpt>
      <trkpt lat="44.54669" lon="4.59582">
        <ele>211.39999389648</ele>
        <time>2020-05-31T06:48:34Z</time>
      </trkpt>
      <trkpt lat="44.54671" lon="4.59582">
        <ele>211</ele>
        <time>2020-05-31T06:48:33Z</time>
      </trkpt>
      <trkpt lat="44.54672" lon="4.59583">
        <ele>210.60000610352</ele>
        <time>2020-05-31T06:48:32Z</time>
      </trkpt>
      <trkpt lat="44.54674" lon="4.59583">
        <ele>210.39999389648</ele>
        <time>2020-05-31T06:48:31Z</time>
      </trkpt>
      <trkpt lat="44.54675" lon="4.59583">
        <ele>210</ele>
        <time>2020-05-31T06:48:30Z</time>
      </trkpt>
      <trkpt lat="44.54676" lon="4.59583">
        <ele>209.60000610352</ele>
        <time>2020-05-31T06:48:29Z</time>
      </trkpt>
      <trkpt lat="44.54678" lon="4.59584">
        <ele>209.60000610352</ele>
        <time>2020-05-31T06:48:28Z</time>
      </trkpt>
      <trkpt lat="44.54679" lon="4.59584">
        <ele>209.19999694824</ele>
        <time>2020-05-31T06:48:27Z</time>
      </trkpt>
      <trkpt lat="44.5468" lon="4.59585">
        <ele>208.80000305176</ele>
        <time>2020-05-31T06:48:26Z</time>
      </trkpt>
      <trkpt lat="44.54682" lon="4.59585">
        <ele>208.60000610352</ele>
        <time>2020-05-31T06:48:25Z</time>
      </trkpt>
      <trkpt lat="44.54683" lon="4.59586">
        <ele>208.39999389648</ele>
        <time>2020-05-31T06:48:24Z</time>
      </trkpt>
      <trkpt lat="44.54685" lon="4.59586">
        <ele>208.19999694824</ele>
        <time>2020-05-31T06:48:23Z</time>
      </trkpt>
      <trkpt lat="44.54687" lon="4.59586">
        <ele>208</ele>
        <time>2020-05-31T06:48:22Z</time>
      </trkpt>
      <trkpt lat="44.54688" lon="4.59586">
        <ele>207.60000610352</ele>
        <time>2020-05-31T06:48:21Z</time>
      </trkpt>
      <trkpt lat="44.5469" lon="4.59586">
        <ele>207.39999389648</ele>
        <time>2020-05-31T06:48:20Z</time>
      </trkpt>
      <trkpt lat="44.54691" lon="4.59587">
        <ele>207.19999694824</ele>
        <time>2020-05-31T06:48:19Z</time>
      </trkpt>
      <trkpt lat="44.54693" lon="4.59588">
        <ele>207</ele>
        <time>2020-05-31T06:48:18Z</time>
      </trkpt>
      <trkpt lat="44.54694" lon="4.59588">
        <ele>207</ele>
        <time>2020-05-31T06:48:17Z</time>
      </trkpt>
      <trkpt lat="44.54695" lon="4.59589">
        <ele>206.60000610352</ele>
        <time>2020-05-31T06:48:16Z</time>
      </trkpt>
      <trkpt lat="44.54697" lon="4.5959">
        <ele>206.39999389648</ele>
        <time>2020-05-31T06:48:15Z</time>
      </trkpt>
      <trkpt lat="44.54698" lon="4.5959">
        <ele>206</ele>
        <time>2020-05-31T06:48:14Z</time>
      </trkpt>
      <trkpt lat="44.547" lon="4.5959">
        <ele>205.80000305176</ele>
        <time>2020-05-31T06:48:13Z</time>
      </trkpt>
      <trkpt lat="44.54702" lon="4.5959">
        <ele>205.39999389648</ele>
        <time>2020-05-31T06:48:12Z</time>
      </trkpt>
      <trkpt lat="44.54703" lon="4.59589">
        <ele>205.39999389648</ele>
        <time>2020-05-31T06:48:11Z</time>
      </trkpt>
      <trkpt lat="44.54705" lon="4.59589">
        <ele>205</ele>
        <time>2020-05-31T06:48:10Z</time>
      </trkpt>
      <trkpt lat="44.54706" lon="4.59589">
        <ele>204.80000305176</ele>
        <time>2020-05-31T06:48:09Z</time>
      </trkpt>
      <trkpt lat="44.54707" lon="4.59589">
        <ele>204.80000305176</ele>
        <time>2020-05-31T06:48:08Z</time>
      </trkpt>
      <trkpt lat="44.54709" lon="4.59589">
        <ele>204.39999389648</ele>
        <time>2020-05-31T06:48:07Z</time>
      </trkpt>
      <trkpt lat="44.54711" lon="4.59589">
        <ele>204.39999389648</ele>
        <time>2020-05-31T06:48:06Z</time>
      </trkpt>
      <trkpt lat="44.54713" lon="4.59589">
        <ele>204.19999694824</ele>
        <time>2020-05-31T06:48:05Z</time>
      </trkpt>
      <trkpt lat="44.54715" lon="4.5959">
        <ele>203.80000305176</ele>
        <time>2020-05-31T06:48:04Z</time>
      </trkpt>
      <trkpt lat="44.54717" lon="4.5959">
        <ele>203.19999694824</ele>
        <time>2020-05-31T06:48:03Z</time>
      </trkpt>
      <trkpt lat="44.54719" lon="4.5959">
        <ele>203</ele>
        <time>2020-05-31T06:48:02Z</time>
      </trkpt>
      <trkpt lat="44.54721" lon="4.59591">
        <ele>202.80000305176</ele>
        <time>2020-05-31T06:48:01Z</time>
      </trkpt>
      <trkpt lat="44.54723" lon="4.59592">
        <ele>202.60000610352</ele>
        <time>2020-05-31T06:48:00Z</time>
      </trkpt>
      <trkpt lat="44.54725" lon="4.59592">
        <ele>202.39999389648</ele>
        <time>2020-05-31T06:47:59Z</time>
      </trkpt>
      <trkpt lat="44.54726" lon="4.59592">
        <ele>202.19999694824</ele>
        <time>2020-05-31T06:47:58Z</time>
      </trkpt>
      <trkpt lat="44.54727" lon="4.59592">
        <ele>202</ele>
        <time>2020-05-31T06:47:57Z</time>
      </trkpt>
      <trkpt lat="44.54729" lon="4.59593">
        <ele>201.80000305176</ele>
        <time>2020-05-31T06:47:56Z</time>
      </trkpt>
      <trkpt lat="44.54731" lon="4.59593">
        <ele>201.60000610352</ele>
        <time>2020-05-31T06:47:55Z</time>
      </trkpt>
      <trkpt lat="44.54733" lon="4.59593">
        <ele>201.39999389648</ele>
        <time>2020-05-31T06:47:54Z</time>
      </trkpt>
      <trkpt lat="44.54734" lon="4.59594">
        <ele>201</ele>
        <time>2020-05-31T06:47:53Z</time>
      </trkpt>
      <trkpt lat="44.54736" lon="4.59595">
        <ele>201</ele>
        <time>2020-05-31T06:47:52Z</time>
      </trkpt>
      <trkpt lat="44.54738" lon="4.59595">
        <ele>200.60000610352</ele>
        <time>2020-05-31T06:47:51Z</time>
      </trkpt>
      <trkpt lat="44.5474" lon="4.59596">
        <ele>200.39999389648</ele>
        <time>2020-05-31T06:47:50Z</time>
      </trkpt>
      <trkpt lat="44.54741" lon="4.59597">
        <ele>200.19999694824</ele>
        <time>2020-05-31T06:47:49Z</time>
      </trkpt>
      <trkpt lat="44.54743" lon="4.59598">
        <ele>199.80000305176</ele>
        <time>2020-05-31T06:47:48Z</time>
      </trkpt>
      <trkpt lat="44.54744" lon="4.59598">
        <ele>199.39999389648</ele>
        <time>2020-05-31T06:47:47Z</time>
      </trkpt>
      <trkpt lat="44.54746" lon="4.59599">
        <ele>199</ele>
        <time>2020-05-31T06:47:46Z</time>
      </trkpt>
      <trkpt lat="44.54749" lon="4.596">
        <ele>199</ele>
        <time>2020-05-31T06:47:45Z</time>
      </trkpt>
      <trkpt lat="44.5475" lon="4.59601">
        <ele>199</ele>
        <time>2020-05-31T06:47:44Z</time>
      </trkpt>
      <trkpt lat="44.54752" lon="4.59603">
        <ele>198.39999389648</ele>
        <time>2020-05-31T06:47:43Z</time>
      </trkpt>
      <trkpt lat="44.54753" lon="4.59604">
        <ele>198.39999389648</ele>
        <time>2020-05-31T06:47:42Z</time>
      </trkpt>
      <trkpt lat="44.54755" lon="4.59606">
        <ele>198</ele>
        <time>2020-05-31T06:47:41Z</time>
      </trkpt>
      <trkpt lat="44.54756" lon="4.59607">
        <ele>197.80000305176</ele>
        <time>2020-05-31T06:47:40Z</time>
      </trkpt>
      <trkpt lat="44.54757" lon="4.59608">
        <ele>197.19999694824</ele>
        <time>2020-05-31T06:47:39Z</time>
      </trkpt>
      <trkpt lat="44.54759" lon="4.5961">
        <ele>197.19999694824</ele>
        <time>2020-05-31T06:47:38Z</time>
      </trkpt>
      <trkpt lat="44.5476" lon="4.59611">
        <ele>196.80000305176</ele>
        <time>2020-05-31T06:47:37Z</time>
      </trkpt>
      <trkpt lat="44.54762" lon="4.59613">
        <ele>196.60000610352</ele>
        <time>2020-05-31T06:47:36Z</time>
      </trkpt>
      <trkpt lat="44.54763" lon="4.59614">
        <ele>196.39999389648</ele>
        <time>2020-05-31T06:47:35Z</time>
      </trkpt>
      <trkpt lat="44.54765" lon="4.59615">
        <ele>196.19999694824</ele>
        <time>2020-05-31T06:47:34Z</time>
      </trkpt>
      <trkpt lat="44.54767" lon="4.59616">
        <ele>195.60000610352</ele>
        <time>2020-05-31T06:47:33Z</time>
      </trkpt>
      <trkpt lat="44.54768" lon="4.59617">
        <ele>195.19999694824</ele>
        <time>2020-05-31T06:47:32Z</time>
      </trkpt>
      <trkpt lat="44.54769" lon="4.59618">
        <ele>194.80000305176</ele>
        <time>2020-05-31T06:47:31Z</time>
      </trkpt>
      <trkpt lat="44.5477" lon="4.59619">
        <ele>194.60000610352</ele>
        <time>2020-05-31T06:47:30Z</time>
      </trkpt>
      <trkpt lat="44.54771" lon="4.5962">
        <ele>194.19999694824</ele>
        <time>2020-05-31T06:47:29Z</time>
      </trkpt>
      <trkpt lat="44.54772" lon="4.59621">
        <ele>193.60000610352</ele>
        <time>2020-05-31T06:47:28Z</time>
      </trkpt>
      <trkpt lat="44.54773" lon="4.59622">
        <ele>193.19999694824</ele>
        <time>2020-05-31T06:47:27Z</time>
      </trkpt>
      <trkpt lat="44.54775" lon="4.59623">
        <ele>192.80000305176</ele>
        <time>2020-05-31T06:47:26Z</time>
      </trkpt>
      <trkpt lat="44.54776" lon="4.59624">
        <ele>192.19999694824</ele>
        <time>2020-05-31T06:47:25Z</time>
      </trkpt>
      <trkpt lat="44.54777" lon="4.59624">
        <ele>192.19999694824</ele>
        <time>2020-05-31T06:47:24Z</time>
      </trkpt>
      <trkpt lat="44.54779" lon="4.59625">
        <ele>191.80000305176</ele>
        <time>2020-05-31T06:47:23Z</time>
      </trkpt>
      <trkpt lat="44.54781" lon="4.59625">
        <ele>191</ele>
        <time>2020-05-31T06:47:22Z</time>
      </trkpt>
      <trkpt lat="44.54783" lon="4.59625">
        <ele>190.60000610352</ele>
        <time>2020-05-31T06:47:21Z</time>
      </trkpt>
      <trkpt lat="44.54785" lon="4.59626">
        <ele>190.39999389648</ele>
        <time>2020-05-31T06:47:20Z</time>
      </trkpt>
      <trkpt lat="44.54786" lon="4.59626">
        <ele>190</ele>
        <time>2020-05-31T06:47:19Z</time>
      </trkpt>
      <trkpt lat="44.54787" lon="4.59627">
        <ele>189.60000610352</ele>
        <time>2020-05-31T06:47:18Z</time>
      </trkpt>
      <trkpt lat="44.54789" lon="4.59629">
        <ele>189.60000610352</ele>
        <time>2020-05-31T06:47:17Z</time>
      </trkpt>
      <trkpt lat="44.54791" lon="4.59629">
        <ele>189.39999389648</ele>
        <time>2020-05-31T06:47:16Z</time>
      </trkpt>
      <trkpt lat="44.54793" lon="4.59631">
        <ele>189.39999389648</ele>
        <time>2020-05-31T06:47:15Z</time>
      </trkpt>
      <trkpt lat="44.54795" lon="4.59632">
        <ele>189.39999389648</ele>
        <time>2020-05-31T06:47:14Z</time>
      </trkpt>
      <trkpt lat="44.54798" lon="4.59633">
        <ele>189.19999694824</ele>
        <time>2020-05-31T06:47:13Z</time>
      </trkpt>
      <trkpt lat="44.548" lon="4.59634">
        <ele>189</ele>
        <time>2020-05-31T06:47:12Z</time>
      </trkpt>
      <trkpt lat="44.54802" lon="4.59635">
        <ele>188.80000305176</ele>
        <time>2020-05-31T06:47:11Z</time>
      </trkpt>
      <trkpt lat="44.54803" lon="4.59636">
        <ele>188.39999389648</ele>
        <time>2020-05-31T06:47:10Z</time>
      </trkpt>
      <trkpt lat="44.54805" lon="4.59636">
        <ele>188.19999694824</ele>
        <time>2020-05-31T06:47:09Z</time>
      </trkpt>
      <trkpt lat="44.54807" lon="4.59637">
        <ele>187.60000610352</ele>
        <time>2020-05-31T06:47:08Z</time>
      </trkpt>
      <trkpt lat="44.54808" lon="4.59637">
        <ele>187.39999389648</ele>
        <time>2020-05-31T06:47:07Z</time>
      </trkpt>
      <trkpt lat="44.5481" lon="4.59637">
        <ele>186.80000305176</ele>
        <time>2020-05-31T06:47:04Z</time>
      </trkpt>
      <trkpt lat="44.54811" lon="4.59636">
        <ele>186.60000610352</ele>
        <time>2020-05-31T06:47:03Z</time>
      </trkpt>
      <trkpt lat="44.54814" lon="4.59637">
        <ele>186.60000610352</ele>
        <time>2020-05-31T06:47:02Z</time>
      </trkpt>
      <trkpt lat="44.54815" lon="4.59637">
        <ele>186.60000610352</ele>
        <time>2020-05-31T06:47:01Z</time>
      </trkpt>
      <trkpt lat="44.54817" lon="4.59637">
        <ele>186.60000610352</ele>
        <time>2020-05-31T06:47:00Z</time>
      </trkpt>
      <trkpt lat="44.54819" lon="4.59636">
        <ele>186.60000610352</ele>
        <time>2020-05-31T06:46:59Z</time>
      </trkpt>
      <trkpt lat="44.54821" lon="4.59635">
        <ele>186.60000610352</ele>
        <time>2020-05-31T06:46:58Z</time>
      </trkpt>
      <trkpt lat="44.54822" lon="4.59633">
        <ele>186.39999389648</ele>
        <time>2020-05-31T06:46:57Z</time>
      </trkpt>
      <trkpt lat="44.54824" lon="4.5963">
        <ele>186.60000610352</ele>
        <time>2020-05-31T06:46:56Z</time>
      </trkpt>
      <trkpt lat="44.54826" lon="4.59627">
        <ele>186.80000305176</ele>
        <time>2020-05-31T06:46:55Z</time>
      </trkpt>
      <trkpt lat="44.54828" lon="4.59624">
        <ele>186.80000305176</ele>
        <time>2020-05-31T06:46:54Z</time>
      </trkpt>
      <trkpt lat="44.5483" lon="4.5962">
        <ele>187</ele>
        <time>2020-05-31T06:46:53Z</time>
      </trkpt>
      <trkpt lat="44.54832" lon="4.59617">
        <ele>187.80000305176</ele>
        <time>2020-05-31T06:46:52Z</time>
      </trkpt>
      <trkpt lat="44.54834" lon="4.59613">
        <ele>188.39999389648</ele>
        <time>2020-05-31T06:46:51Z</time>
      </trkpt>
      <trkpt lat="44.54836" lon="4.59608">
        <ele>188.39999389648</ele>
        <time>2020-05-31T06:46:50Z</time>
      </trkpt>
      <trkpt lat="44.54839" lon="4.59604">
        <ele>188.60000610352</ele>
        <time>2020-05-31T06:46:49Z</time>
      </trkpt>
      <trkpt lat="44.54842" lon="4.59599">
        <ele>188.80000305176</ele>
        <time>2020-05-31T06:46:48Z</time>
      </trkpt>
      <trkpt lat="44.54848" lon="4.59589">
        <ele>189</ele>
        <time>2020-05-31T06:46:46Z</time>
      </trkpt>
      <trkpt lat="44.54852" lon="4.59585">
        <ele>189</ele>
        <time>2020-05-31T06:46:45Z</time>
      </trkpt>
      <trkpt lat="44.54855" lon="4.59581">
        <ele>189</ele>
        <time>2020-05-31T06:46:44Z</time>
      </trkpt>
      <trkpt lat="44.54859" lon="4.59578">
        <ele>189</ele>
        <time>2020-05-31T06:46:43Z</time>
      </trkpt>
      <trkpt lat="44.54863" lon="4.59576">
        <ele>189.19999694824</ele>
        <time>2020-05-31T06:46:42Z</time>
      </trkpt>
      <trkpt lat="44.54867" lon="4.59574">
        <ele>189.19999694824</ele>
        <time>2020-05-31T06:46:41Z</time>
      </trkpt>
      <trkpt lat="44.54871" lon="4.59573">
        <ele>189.39999389648</ele>
        <time>2020-05-31T06:46:40Z</time>
      </trkpt>
      <trkpt lat="44.54886" lon="4.59571">
        <ele>189.39999389648</ele>
        <time>2020-05-31T06:46:36Z</time>
      </trkpt>
      <trkpt lat="44.54889" lon="4.59571">
        <ele>189.39999389648</ele>
        <time>2020-05-31T06:46:35Z</time>
      </trkpt>
      <trkpt lat="44.54892" lon="4.59571">
        <ele>189.39999389648</ele>
        <time>2020-05-31T06:46:34Z</time>
      </trkpt>
      <trkpt lat="44.54904" lon="4.5957">
        <ele>189.60000610352</ele>
        <time>2020-05-31T06:46:30Z</time>
      </trkpt>
      <trkpt lat="44.54906" lon="4.5957">
        <ele>189.60000610352</ele>
        <time>2020-05-31T06:46:29Z</time>
      </trkpt>
      <trkpt lat="44.54909" lon="4.5957">
        <ele>189.39999389648</ele>
        <time>2020-05-31T06:46:28Z</time>
      </trkpt>
      <trkpt lat="44.54911" lon="4.5957">
        <ele>189.60000610352</ele>
        <time>2020-05-31T06:46:27Z</time>
      </trkpt>
      <trkpt lat="44.54913" lon="4.59572">
        <ele>189.60000610352</ele>
        <time>2020-05-31T06:46:26Z</time>
      </trkpt>
      <trkpt lat="44.54915" lon="4.59574">
        <ele>189.39999389648</ele>
        <time>2020-05-31T06:46:25Z</time>
      </trkpt>
      <trkpt lat="44.54916" lon="4.59578">
        <ele>189.39999389648</ele>
        <time>2020-05-31T06:46:24Z</time>
      </trkpt>
      <trkpt lat="44.54918" lon="4.59582">
        <ele>189.60000610352</ele>
        <time>2020-05-31T06:46:23Z</time>
      </trkpt>
      <trkpt lat="44.54924" lon="4.59594">
        <ele>189.60000610352</ele>
        <time>2020-05-31T06:46:20Z</time>
      </trkpt>
      <trkpt lat="44.54926" lon="4.59598">
        <ele>189.60000610352</ele>
        <time>2020-05-31T06:46:19Z</time>
      </trkpt>
      <trkpt lat="44.54928" lon="4.59602">
        <ele>189.60000610352</ele>
        <time>2020-05-31T06:46:18Z</time>
      </trkpt>
      <trkpt lat="44.54929" lon="4.59606">
        <ele>189.60000610352</ele>
        <time>2020-05-31T06:46:17Z</time>
      </trkpt>
      <trkpt lat="44.54931" lon="4.59609">
        <ele>189.60000610352</ele>
        <time>2020-05-31T06:46:16Z</time>
      </trkpt>
      <trkpt lat="44.54933" lon="4.59613">
        <ele>189.80000305176</ele>
        <time>2020-05-31T06:46:15Z</time>
      </trkpt>
      <trkpt lat="44.54934" lon="4.59618">
        <ele>189.60000610352</ele>
        <time>2020-05-31T06:46:14Z</time>
      </trkpt>
      <trkpt lat="44.54936" lon="4.59623">
        <ele>189.80000305176</ele>
        <time>2020-05-31T06:46:13Z</time>
      </trkpt>
      <trkpt lat="44.54939" lon="4.59628">
        <ele>189.80000305176</ele>
        <time>2020-05-31T06:46:12Z</time>
      </trkpt>
      <trkpt lat="44.54941" lon="4.59634">
        <ele>189.80000305176</ele>
        <time>2020-05-31T06:46:11Z</time>
      </trkpt>
      <trkpt lat="44.54943" lon="4.59639">
        <ele>190.19999694824</ele>
        <time>2020-05-31T06:46:10Z</time>
      </trkpt>
      <trkpt lat="44.54945" lon="4.59645">
        <ele>190.19999694824</ele>
        <time>2020-05-31T06:46:09Z</time>
      </trkpt>
      <trkpt lat="44.54949" lon="4.59658">
        <ele>190.19999694824</ele>
        <time>2020-05-31T06:46:07Z</time>
      </trkpt>
      <trkpt lat="44.54952" lon="4.59669">
        <ele>190.39999389648</ele>
        <time>2020-05-31T06:46:05Z</time>
      </trkpt>
      <trkpt lat="44.54954" lon="4.59675">
        <ele>190.60000610352</ele>
        <time>2020-05-31T06:46:04Z</time>
      </trkpt>
      <trkpt lat="44.54956" lon="4.5968">
        <ele>190.80000305176</ele>
        <time>2020-05-31T06:46:03Z</time>
      </trkpt>
      <trkpt lat="44.54957" lon="4.59686">
        <ele>191.39999389648</ele>
        <time>2020-05-31T06:46:02Z</time>
      </trkpt>
      <trkpt lat="44.54959" lon="4.59692">
        <ele>191.60000610352</ele>
        <time>2020-05-31T06:46:01Z</time>
      </trkpt>
      <trkpt lat="44.54961" lon="4.59698">
        <ele>191.80000305176</ele>
        <time>2020-05-31T06:46:00Z</time>
      </trkpt>
      <trkpt lat="44.54963" lon="4.59704">
        <ele>192</ele>
        <time>2020-05-31T06:45:59Z</time>
      </trkpt>
      <trkpt lat="44.54965" lon="4.5971">
        <ele>192</ele>
        <time>2020-05-31T06:45:58Z</time>
      </trkpt>
      <trkpt lat="44.54967" lon="4.59716">
        <ele>192.39999389648</ele>
        <time>2020-05-31T06:45:57Z</time>
      </trkpt>
      <trkpt lat="44.5497" lon="4.59721">
        <ele>192.80000305176</ele>
        <time>2020-05-31T06:45:56Z</time>
      </trkpt>
      <trkpt lat="44.54973" lon="4.59727">
        <ele>193</ele>
        <time>2020-05-31T06:45:55Z</time>
      </trkpt>
      <trkpt lat="44.5498" lon="4.59737">
        <ele>193.80000305176</ele>
        <time>2020-05-31T06:45:53Z</time>
      </trkpt>
      <trkpt lat="44.54995" lon="4.59755">
        <ele>194.19999694824</ele>
        <time>2020-05-31T06:45:49Z</time>
      </trkpt>
      <trkpt lat="44.54999" lon="4.59759">
        <ele>194.19999694824</ele>
        <time>2020-05-31T06:45:48Z</time>
      </trkpt>
      <trkpt lat="44.55007" lon="4.59766">
        <ele>194.19999694824</ele>
        <time>2020-05-31T06:45:46Z</time>
      </trkpt>
      <trkpt lat="44.55015" lon="4.59771">
        <ele>194.39999389648</ele>
        <time>2020-05-31T06:45:44Z</time>
      </trkpt>
      <trkpt lat="44.55018" lon="4.59775">
        <ele>194.39999389648</ele>
        <time>2020-05-31T06:45:43Z</time>
      </trkpt>
      <trkpt lat="44.55022" lon="4.59778">
        <ele>194.60000610352</ele>
        <time>2020-05-31T06:45:42Z</time>
      </trkpt>
      <trkpt lat="44.5503" lon="4.59789">
        <ele>194.60000610352</ele>
        <time>2020-05-31T06:45:39Z</time>
      </trkpt>
      <trkpt lat="44.55033" lon="4.59792">
        <ele>194.60000610352</ele>
        <time>2020-05-31T06:45:38Z</time>
      </trkpt>
      <trkpt lat="44.55036" lon="4.59795">
        <ele>194.60000610352</ele>
        <time>2020-05-31T06:45:37Z</time>
      </trkpt>
      <trkpt lat="44.55039" lon="4.59799">
        <ele>194.80000305176</ele>
        <time>2020-05-31T06:45:36Z</time>
      </trkpt>
      <trkpt lat="44.55042" lon="4.59802">
        <ele>194.80000305176</ele>
        <time>2020-05-31T06:45:35Z</time>
      </trkpt>
      <trkpt lat="44.55045" lon="4.59805">
        <ele>194.60000610352</ele>
        <time>2020-05-31T06:45:34Z</time>
      </trkpt>
      <trkpt lat="44.55049" lon="4.59808">
        <ele>194.60000610352</ele>
        <time>2020-05-31T06:45:33Z</time>
      </trkpt>
      <trkpt lat="44.55055" lon="4.59816">
        <ele>194.80000305176</ele>
        <time>2020-05-31T06:45:31Z</time>
      </trkpt>
      <trkpt lat="44.55059" lon="4.59819">
        <ele>194.80000305176</ele>
        <time>2020-05-31T06:45:30Z</time>
      </trkpt>
      <trkpt lat="44.55061" lon="4.59823">
        <ele>195</ele>
        <time>2020-05-31T06:45:29Z</time>
      </trkpt>
      <trkpt lat="44.55062" lon="4.59827">
        <ele>195</ele>
        <time>2020-05-31T06:45:28Z</time>
      </trkpt>
      <trkpt lat="44.55061" lon="4.59832">
        <ele>194.80000305176</ele>
        <time>2020-05-31T06:45:27Z</time>
      </trkpt>
      <trkpt lat="44.5506" lon="4.59837">
        <ele>194.80000305176</ele>
        <time>2020-05-31T06:45:26Z</time>
      </trkpt>
      <trkpt lat="44.55058" lon="4.59842">
        <ele>194.80000305176</ele>
        <time>2020-05-31T06:45:25Z</time>
      </trkpt>
      <trkpt lat="44.55056" lon="4.59848">
        <ele>195</ele>
        <time>2020-05-31T06:45:24Z</time>
      </trkpt>
      <trkpt lat="44.55054" lon="4.59853">
        <ele>195</ele>
        <time>2020-05-31T06:45:23Z</time>
      </trkpt>
      <trkpt lat="44.5505" lon="4.59865">
        <ele>195.19999694824</ele>
        <time>2020-05-31T06:45:21Z</time>
      </trkpt>
      <trkpt lat="44.55048" lon="4.59871">
        <ele>195.60000610352</ele>
        <time>2020-05-31T06:45:20Z</time>
      </trkpt>
      <trkpt lat="44.55046" lon="4.59877">
        <ele>195.80000305176</ele>
        <time>2020-05-31T06:45:19Z</time>
      </trkpt>
      <trkpt lat="44.55044" lon="4.59883">
        <ele>196</ele>
        <time>2020-05-31T06:45:18Z</time>
      </trkpt>
      <trkpt lat="44.55043" lon="4.59889">
        <ele>196</ele>
        <time>2020-05-31T06:45:17Z</time>
      </trkpt>
      <trkpt lat="44.55041" lon="4.59895">
        <ele>196.39999389648</ele>
        <time>2020-05-31T06:45:16Z</time>
      </trkpt>
      <trkpt lat="44.55039" lon="4.59901">
        <ele>196.39999389648</ele>
        <time>2020-05-31T06:45:15Z</time>
      </trkpt>
      <trkpt lat="44.55038" lon="4.59908">
        <ele>196.80000305176</ele>
        <time>2020-05-31T06:45:14Z</time>
      </trkpt>
      <trkpt lat="44.55032" lon="4.59934">
        <ele>197.60000610352</ele>
        <time>2020-05-31T06:45:10Z</time>
      </trkpt>
      <trkpt lat="44.5503" lon="4.59947">
        <ele>198</ele>
        <time>2020-05-31T06:45:08Z</time>
      </trkpt>
      <trkpt lat="44.55028" lon="4.5996">
        <ele>198</ele>
        <time>2020-05-31T06:45:06Z</time>
      </trkpt>
      <trkpt lat="44.55026" lon="4.59981">
        <ele>198</ele>
        <time>2020-05-31T06:45:02Z</time>
      </trkpt>
      <trkpt lat="44.55026" lon="4.59985">
        <ele>197.80000305176</ele>
        <time>2020-05-31T06:45:01Z</time>
      </trkpt>
      <trkpt lat="44.55026" lon="4.60009">
        <ele>197.19999694824</ele>
        <time>2020-05-31T06:44:56Z</time>
      </trkpt>
      <trkpt lat="44.55026" lon="4.60013">
        <ele>197</ele>
        <time>2020-05-31T06:44:55Z</time>
      </trkpt>
      <trkpt lat="44.55026" lon="4.60017">
        <ele>196.60000610352</ele>
        <time>2020-05-31T06:44:54Z</time>
      </trkpt>
      <trkpt lat="44.55027" lon="4.60021">
        <ele>196.19999694824</ele>
        <time>2020-05-31T06:44:53Z</time>
      </trkpt>
      <trkpt lat="44.55027" lon="4.60025">
        <ele>195.60000610352</ele>
        <time>2020-05-31T06:44:52Z</time>
      </trkpt>
      <trkpt lat="44.55028" lon="4.60029">
        <ele>195.39999389648</ele>
        <time>2020-05-31T06:44:51Z</time>
      </trkpt>
      <trkpt lat="44.55029" lon="4.60033">
        <ele>195.19999694824</ele>
        <time>2020-05-31T06:44:50Z</time>
      </trkpt>
      <trkpt lat="44.5503" lon="4.60038">
        <ele>195</ele>
        <time>2020-05-31T06:44:49Z</time>
      </trkpt>
      <trkpt lat="44.55032" lon="4.60042">
        <ele>194.39999389648</ele>
        <time>2020-05-31T06:44:48Z</time>
      </trkpt>
      <trkpt lat="44.55034" lon="4.60046">
        <ele>194.39999389648</ele>
        <time>2020-05-31T06:44:47Z</time>
      </trkpt>
      <trkpt lat="44.55037" lon="4.6005">
        <ele>194.19999694824</ele>
        <time>2020-05-31T06:44:46Z</time>
      </trkpt>
      <trkpt lat="44.55039" lon="4.60054">
        <ele>194</ele>
        <time>2020-05-31T06:44:45Z</time>
      </trkpt>
      <trkpt lat="44.55041" lon="4.60058">
        <ele>194</ele>
        <time>2020-05-31T06:44:44Z</time>
      </trkpt>
      <trkpt lat="44.55043" lon="4.60063">
        <ele>193.60000610352</ele>
        <time>2020-05-31T06:44:43Z</time>
      </trkpt>
      <trkpt lat="44.55043" lon="4.60068">
        <ele>193.60000610352</ele>
        <time>2020-05-31T06:44:42Z</time>
      </trkpt>
      <trkpt lat="44.55044" lon="4.60073">
        <ele>193.39999389648</ele>
        <time>2020-05-31T06:44:41Z</time>
      </trkpt>
      <trkpt lat="44.55044" lon="4.60078">
        <ele>193.19999694824</ele>
        <time>2020-05-31T06:44:40Z</time>
      </trkpt>
      <trkpt lat="44.55044" lon="4.60083">
        <ele>193</ele>
        <time>2020-05-31T06:44:39Z</time>
      </trkpt>
      <trkpt lat="44.55044" lon="4.60089">
        <ele>193</ele>
        <time>2020-05-31T06:44:38Z</time>
      </trkpt>
      <trkpt lat="44.55044" lon="4.60093">
        <ele>193</ele>
        <time>2020-05-31T06:44:37Z</time>
      </trkpt>
      <trkpt lat="44.55045" lon="4.60097">
        <ele>192.80000305176</ele>
        <time>2020-05-31T06:44:36Z</time>
      </trkpt>
      <trkpt lat="44.55045" lon="4.60101">
        <ele>192.80000305176</ele>
        <time>2020-05-31T06:44:35Z</time>
      </trkpt>
      <trkpt lat="44.55045" lon="4.60105">
        <ele>192.60000610352</ele>
        <time>2020-05-31T06:44:34Z</time>
      </trkpt>
      <trkpt lat="44.55046" lon="4.60109">
        <ele>192.39999389648</ele>
        <time>2020-05-31T06:44:33Z</time>
      </trkpt>
      <trkpt lat="44.55046" lon="4.60113">
        <ele>192.39999389648</ele>
        <time>2020-05-31T06:44:32Z</time>
      </trkpt>
      <trkpt lat="44.55047" lon="4.60117">
        <ele>192.19999694824</ele>
        <time>2020-05-31T06:44:31Z</time>
      </trkpt>
      <trkpt lat="44.55047" lon="4.60121">
        <ele>192.19999694824</ele>
        <time>2020-05-31T06:44:30Z</time>
      </trkpt>
      <trkpt lat="44.55048" lon="4.60125">
        <ele>192</ele>
        <time>2020-05-31T06:44:29Z</time>
      </trkpt>
      <trkpt lat="44.55049" lon="4.60129">
        <ele>191.80000305176</ele>
        <time>2020-05-31T06:44:28Z</time>
      </trkpt>
      <trkpt lat="44.5505" lon="4.60133">
        <ele>191.60000610352</ele>
        <time>2020-05-31T06:44:27Z</time>
      </trkpt>
      <trkpt lat="44.55051" lon="4.60137">
        <ele>191.39999389648</ele>
        <time>2020-05-31T06:44:26Z</time>
      </trkpt>
      <trkpt lat="44.55052" lon="4.6014">
        <ele>191.39999389648</ele>
        <time>2020-05-31T06:44:25Z</time>
      </trkpt>
      <trkpt lat="44.55053" lon="4.60144">
        <ele>191</ele>
        <time>2020-05-31T06:44:24Z</time>
      </trkpt>
      <trkpt lat="44.55053" lon="4.60148">
        <ele>190.80000305176</ele>
        <time>2020-05-31T06:44:23Z</time>
      </trkpt>
      <trkpt lat="44.55054" lon="4.60152">
        <ele>190.60000610352</ele>
        <time>2020-05-31T06:44:22Z</time>
      </trkpt>
      <trkpt lat="44.55055" lon="4.60156">
        <ele>190.39999389648</ele>
        <time>2020-05-31T06:44:21Z</time>
      </trkpt>
      <trkpt lat="44.55056" lon="4.6016">
        <ele>190.19999694824</ele>
        <time>2020-05-31T06:44:20Z</time>
      </trkpt>
      <trkpt lat="44.55056" lon="4.60164">
        <ele>190</ele>
        <time>2020-05-31T06:44:19Z</time>
      </trkpt>
      <trkpt lat="44.55057" lon="4.60168">
        <ele>189.80000305176</ele>
        <time>2020-05-31T06:44:18Z</time>
      </trkpt>
      <trkpt lat="44.55057" lon="4.60172">
        <ele>189.60000610352</ele>
        <time>2020-05-31T06:44:17Z</time>
      </trkpt>
      <trkpt lat="44.55058" lon="4.60176">
        <ele>189.39999389648</ele>
        <time>2020-05-31T06:44:16Z</time>
      </trkpt>
      <trkpt lat="44.55058" lon="4.6018">
        <ele>189.19999694824</ele>
        <time>2020-05-31T06:44:15Z</time>
      </trkpt>
      <trkpt lat="44.55059" lon="4.60184">
        <ele>189.19999694824</ele>
        <time>2020-05-31T06:44:14Z</time>
      </trkpt>
      <trkpt lat="44.5506" lon="4.60188">
        <ele>189</ele>
        <time>2020-05-31T06:44:13Z</time>
      </trkpt>
      <trkpt lat="44.55061" lon="4.60191">
        <ele>188.80000305176</ele>
        <time>2020-05-31T06:44:12Z</time>
      </trkpt>
      <trkpt lat="44.55061" lon="4.60195">
        <ele>188.80000305176</ele>
        <time>2020-05-31T06:44:11Z</time>
      </trkpt>
      <trkpt lat="44.55062" lon="4.60199">
        <ele>188.60000610352</ele>
        <time>2020-05-31T06:44:10Z</time>
      </trkpt>
      <trkpt lat="44.55062" lon="4.60203">
        <ele>188.60000610352</ele>
        <time>2020-05-31T06:44:09Z</time>
      </trkpt>
      <trkpt lat="44.55063" lon="4.60206">
        <ele>188.60000610352</ele>
        <time>2020-05-31T06:44:08Z</time>
      </trkpt>
      <trkpt lat="44.55064" lon="4.6021">
        <ele>188.60000610352</ele>
        <time>2020-05-31T06:44:07Z</time>
      </trkpt>
      <trkpt lat="44.55064" lon="4.60214">
        <ele>188.39999389648</ele>
        <time>2020-05-31T06:44:06Z</time>
      </trkpt>
      <trkpt lat="44.55065" lon="4.60218">
        <ele>188.60000610352</ele>
        <time>2020-05-31T06:44:05Z</time>
      </trkpt>
      <trkpt lat="44.55065" lon="4.60221">
        <ele>188.39999389648</ele>
        <time>2020-05-31T06:44:04Z</time>
      </trkpt>
      <trkpt lat="44.55066" lon="4.60225">
        <ele>188.39999389648</ele>
        <time>2020-05-31T06:44:03Z</time>
      </trkpt>
      <trkpt lat="44.55066" lon="4.60228">
        <ele>188.60000610352</ele>
        <time>2020-05-31T06:44:02Z</time>
      </trkpt>
      <trkpt lat="44.55066" lon="4.60232">
        <ele>188.39999389648</ele>
        <time>2020-05-31T06:44:01Z</time>
      </trkpt>
      <trkpt lat="44.55067" lon="4.60235">
        <ele>188.39999389648</ele>
        <time>2020-05-31T06:44:00Z</time>
      </trkpt>
      <trkpt lat="44.55068" lon="4.60239">
        <ele>188.39999389648</ele>
        <time>2020-05-31T06:43:59Z</time>
      </trkpt>
      <trkpt lat="44.55068" lon="4.60242">
        <ele>188.60000610352</ele>
        <time>2020-05-31T06:43:58Z</time>
      </trkpt>
      <trkpt lat="44.55069" lon="4.60246">
        <ele>188.80000305176</ele>
        <time>2020-05-31T06:43:57Z</time>
      </trkpt>
      <trkpt lat="44.5507" lon="4.60251">
        <ele>189</ele>
        <time>2020-05-31T06:43:56Z</time>
      </trkpt>
      <trkpt lat="44.55072" lon="4.60257">
        <ele>189</ele>
        <time>2020-05-31T06:43:55Z</time>
      </trkpt>
      <trkpt lat="44.55074" lon="4.60263">
        <ele>189</ele>
        <time>2020-05-31T06:43:54Z</time>
      </trkpt>
      <trkpt lat="44.55089" lon="4.60291">
        <ele>188.80000305176</ele>
        <time>2020-05-31T06:43:49Z</time>
      </trkpt>
      <trkpt lat="44.55095" lon="4.603">
        <ele>188.80000305176</ele>
        <time>2020-05-31T06:43:47Z</time>
      </trkpt>
      <trkpt lat="44.55104" lon="4.60309">
        <ele>187.80000305176</ele>
        <time>2020-05-31T06:43:44Z</time>
      </trkpt>
      <trkpt lat="44.55106" lon="4.60312">
        <ele>187.39999389648</ele>
        <time>2020-05-31T06:43:43Z</time>
      </trkpt>
      <trkpt lat="44.55108" lon="4.60314">
        <ele>186.80000305176</ele>
        <time>2020-05-31T06:43:42Z</time>
      </trkpt>
      <trkpt lat="44.55111" lon="4.60317">
        <ele>186.19999694824</ele>
        <time>2020-05-31T06:43:41Z</time>
      </trkpt>
      <trkpt lat="44.55113" lon="4.60319">
        <ele>185.60000610352</ele>
        <time>2020-05-31T06:43:40Z</time>
      </trkpt>
      <trkpt lat="44.55116" lon="4.60322">
        <ele>185</ele>
        <time>2020-05-31T06:43:39Z</time>
      </trkpt>
      <trkpt lat="44.55118" lon="4.60325">
        <ele>184.19999694824</ele>
        <time>2020-05-31T06:43:38Z</time>
      </trkpt>
      <trkpt lat="44.5512" lon="4.60328">
        <ele>183.60000610352</ele>
        <time>2020-05-31T06:43:37Z</time>
      </trkpt>
      <trkpt lat="44.55122" lon="4.60331">
        <ele>183.19999694824</ele>
        <time>2020-05-31T06:43:36Z</time>
      </trkpt>
      <trkpt lat="44.55125" lon="4.60334">
        <ele>182.60000610352</ele>
        <time>2020-05-31T06:43:35Z</time>
      </trkpt>
      <trkpt lat="44.55127" lon="4.60337">
        <ele>182</ele>
        <time>2020-05-31T06:43:34Z</time>
      </trkpt>
      <trkpt lat="44.55129" lon="4.60341">
        <ele>182</ele>
        <time>2020-05-31T06:43:33Z</time>
      </trkpt>
      <trkpt lat="44.55132" lon="4.60344">
        <ele>182</ele>
        <time>2020-05-31T06:43:32Z</time>
      </trkpt>
      <trkpt lat="44.55135" lon="4.60347">
        <ele>182</ele>
        <time>2020-05-31T06:43:31Z</time>
      </trkpt>
      <trkpt lat="44.55138" lon="4.60349">
        <ele>182</ele>
        <time>2020-05-31T06:43:30Z</time>
      </trkpt>
      <trkpt lat="44.55141" lon="4.6035">
        <ele>181.80000305176</ele>
        <time>2020-05-31T06:43:29Z</time>
      </trkpt>
      <trkpt lat="44.55144" lon="4.60351">
        <ele>182</ele>
        <time>2020-05-31T06:43:28Z</time>
      </trkpt>
      <trkpt lat="44.55147" lon="4.60352">
        <ele>182</ele>
        <time>2020-05-31T06:43:27Z</time>
      </trkpt>
      <trkpt lat="44.5515" lon="4.60352">
        <ele>182</ele>
        <time>2020-05-31T06:43:26Z</time>
      </trkpt>
      <trkpt lat="44.55153" lon="4.60352">
        <ele>182</ele>
        <time>2020-05-31T06:43:25Z</time>
      </trkpt>
      <trkpt lat="44.55156" lon="4.60352">
        <ele>182.19999694824</ele>
        <time>2020-05-31T06:43:24Z</time>
      </trkpt>
      <trkpt lat="44.55159" lon="4.60351">
        <ele>182.19999694824</ele>
        <time>2020-05-31T06:43:23Z</time>
      </trkpt>
      <trkpt lat="44.55163" lon="4.60349">
        <ele>182.19999694824</ele>
        <time>2020-05-31T06:43:22Z</time>
      </trkpt>
      <trkpt lat="44.55165" lon="4.60348">
        <ele>184.80000305176</ele>
        <time>2021-07-08T14:40:38Z</time>
      </trkpt>
      <trkpt lat="44.55169" lon="4.60348">
        <ele>184.60000610352</ele>
        <time>2021-07-08T14:40:39Z</time>
      </trkpt>
      <trkpt lat="44.55173" lon="4.60347">
        <ele>184.60000610352</ele>
        <time>2021-07-08T14:40:40Z</time>
      </trkpt>
      <trkpt lat="44.55177" lon="4.60347">
        <ele>184.39999389648</ele>
        <time>2021-07-08T14:40:41Z</time>
      </trkpt>
      <trkpt lat="44.55179" lon="4.60347">
        <ele>184.39999389648</ele>
        <time>2021-07-08T14:40:42Z</time>
      </trkpt>
      <trkpt lat="44.55181" lon="4.60348">
        <ele>184.19999694824</ele>
        <time>2021-07-08T14:40:43Z</time>
      </trkpt>
      <trkpt lat="44.55181" lon="4.60348">
        <ele>184</ele>
        <time>2021-07-08T14:40:44Z</time>
      </trkpt>
      <trkpt lat="44.55182" lon="4.60348">
        <ele>182.60000610352</ele>
        <time>2021-07-08T14:40:48Z</time>
      </trkpt>
      <trkpt lat="44.5519" lon="4.60353">
        <ele>181</ele>
        <time>2021-07-08T14:40:53Z</time>
      </trkpt>
      <trkpt lat="44.55193" lon="4.60356">
        <ele>181</ele>
        <time>2021-07-08T14:40:54Z</time>
      </trkpt>
      <trkpt lat="44.55199" lon="4.60362">
        <ele>180.80000305176</ele>
        <time>2021-07-08T14:40:56Z</time>
      </trkpt>
      <trkpt lat="44.55202" lon="4.60365">
        <ele>180.80000305176</ele>
        <time>2021-07-08T14:40:57Z</time>
      </trkpt>
      <trkpt lat="44.55206" lon="4.60367">
        <ele>180.80000305176</ele>
        <time>2021-07-08T14:40:58Z</time>
      </trkpt>
      <trkpt lat="44.55209" lon="4.60369">
        <ele>180.80000305176</ele>
        <time>2021-07-08T14:40:59Z</time>
      </trkpt>
      <trkpt lat="44.55216" lon="4.60374">
        <ele>180.60000610352</ele>
        <time>2021-07-08T14:41:01Z</time>
      </trkpt>
      <trkpt lat="44.55224" lon="4.60378">
        <ele>180.39999389648</ele>
        <time>2021-07-08T14:41:03Z</time>
      </trkpt>
      <trkpt lat="44.55232" lon="4.60382">
        <ele>179.60000610352</ele>
        <time>2021-07-08T14:41:05Z</time>
      </trkpt>
      <trkpt lat="44.55236" lon="4.60384">
        <ele>179.39999389648</ele>
        <time>2021-07-08T14:41:06Z</time>
      </trkpt>
      <trkpt lat="44.55239" lon="4.60386">
        <ele>178.80000305176</ele>
        <time>2021-07-08T14:41:07Z</time>
      </trkpt>
      <trkpt lat="44.55243" lon="4.60387">
        <ele>178.39999389648</ele>
        <time>2021-07-08T14:41:08Z</time>
      </trkpt>
      <trkpt lat="44.55245" lon="4.60388">
        <ele>178.19999694824</ele>
        <time>2021-07-08T14:41:09Z</time>
      </trkpt>
      <trkpt lat="44.55247" lon="4.60389">
        <ele>177.80000305176</ele>
        <time>2021-07-08T14:41:10Z</time>
      </trkpt>
      <trkpt lat="44.55249" lon="4.6039">
        <ele>177.39999389648</ele>
        <time>2021-07-08T14:41:11Z</time>
      </trkpt>
      <trkpt lat="44.5525" lon="4.6039">
        <ele>177</ele>
        <time>2021-07-08T14:41:12Z</time>
      </trkpt>
      <trkpt lat="44.55251" lon="4.6039">
        <ele>176.80000305176</ele>
        <time>2021-07-08T14:41:13Z</time>
      </trkpt>
      <trkpt lat="44.55252" lon="4.6039">
        <ele>176.39999389648</ele>
        <time>2021-07-08T14:41:14Z</time>
      </trkpt>
      <trkpt lat="44.55252" lon="4.6039">
        <ele>175.60000610352</ele>
        <time>2021-07-08T14:41:17Z</time>
      </trkpt>
      <trkpt lat="44.55255" lon="4.60391">
        <ele>175.19999694824</ele>
        <time>2021-07-08T14:41:24Z</time>
      </trkpt>
      <trkpt lat="44.55256" lon="4.60392">
        <ele>175</ele>
        <time>2021-07-08T14:41:25Z</time>
      </trkpt>
      <trkpt lat="44.55258" lon="4.60391">
        <ele>175</ele>
        <time>2021-07-08T14:41:26Z</time>
      </trkpt>
      <trkpt lat="44.55262" lon="4.60391">
        <ele>175</ele>
        <time>2021-07-08T14:41:27Z</time>
      </trkpt>
      <trkpt lat="44.55264" lon="4.60392">
        <ele>175.19999694824</ele>
        <time>2021-07-08T14:41:28Z</time>
      </trkpt>
      <trkpt lat="44.55266" lon="4.60393">
        <ele>175.19999694824</ele>
        <time>2021-07-08T14:41:29Z</time>
      </trkpt>
      <trkpt lat="44.55269" lon="4.60394">
        <ele>175</ele>
        <time>2021-07-08T14:41:30Z</time>
      </trkpt>
      <trkpt lat="44.5527" lon="4.60394">
        <ele>175</ele>
        <time>2021-07-08T14:41:31Z</time>
      </trkpt>
      <trkpt lat="44.55271" lon="4.60394">
        <ele>175.19999694824</ele>
        <time>2021-07-08T14:41:32Z</time>
      </trkpt>
      <trkpt lat="44.55272" lon="4.60393">
        <ele>175</ele>
        <time>2021-07-08T14:41:33Z</time>
      </trkpt>
      <trkpt lat="44.55273" lon="4.60393">
        <ele>175</ele>
        <time>2021-07-08T14:41:34Z</time>
      </trkpt>
      <trkpt lat="44.55274" lon="4.60392">
        <ele>175</ele>
        <time>2021-07-08T14:41:35Z</time>
      </trkpt>
      <trkpt lat="44.55276" lon="4.60393">
        <ele>174.80000305176</ele>
        <time>2021-07-08T14:41:41Z</time>
      </trkpt>
      <trkpt lat="44.55278" lon="4.60393">
        <ele>174.60000610352</ele>
        <time>2021-07-08T14:41:42Z</time>
      </trkpt>
      <trkpt lat="44.55282" lon="4.60394">
        <ele>174.60000610352</ele>
        <time>2021-07-08T14:41:44Z</time>
      </trkpt>
      <trkpt lat="44.55285" lon="4.60393">
        <ele>174.60000610352</ele>
        <time>2021-07-08T14:41:45Z</time>
      </trkpt>
      <trkpt lat="44.55286" lon="4.60391">
        <ele>174.60000610352</ele>
        <time>2021-07-08T14:41:46Z</time>
      </trkpt>
      <trkpt lat="44.55286" lon="4.60387">
        <ele>174.60000610352</ele>
        <time>2021-07-08T14:41:47Z</time>
      </trkpt>
      <trkpt lat="44.55286" lon="4.60385">
        <ele>174.80000305176</ele>
        <time>2021-07-08T14:41:48Z</time>
      </trkpt>
      <trkpt lat="44.55286" lon="4.60385">
        <ele>174.80000305176</ele>
        <time>2021-07-08T14:41:49Z</time>
      </trkpt>
      <trkpt lat="44.55288" lon="4.60383">
        <ele>174.80000305176</ele>
        <time>2021-07-08T14:41:50Z</time>
      </trkpt>
      <trkpt lat="44.55289" lon="4.60382">
        <ele>175</ele>
        <time>2021-07-08T14:41:51Z</time>
      </trkpt>
      <trkpt lat="44.55292" lon="4.6038">
        <ele>175.19999694824</ele>
        <time>2021-07-08T14:41:53Z</time>
      </trkpt>
      <trkpt lat="44.55296" lon="4.60379">
        <ele>175.60000610352</ele>
        <time>2021-07-08T14:41:55Z</time>
      </trkpt>
      <trkpt lat="44.55297" lon="4.60378">
        <ele>175.80000305176</ele>
        <time>2021-07-08T14:41:56Z</time>
      </trkpt>
      <trkpt lat="44.55301" lon="4.60379">
        <ele>176</ele>
        <time>2021-07-08T14:41:58Z</time>
      </trkpt>
      <trkpt lat="44.55307" lon="4.60376">
        <ele>176.19999694824</ele>
        <time>2021-07-08T14:41:59Z</time>
      </trkpt>
      <trkpt lat="44.5531" lon="4.60379">
        <ele>176.39999389648</ele>
        <time>2021-07-08T14:42:00Z</time>
      </trkpt>
      <trkpt lat="44.55312" lon="4.60378">
        <ele>176.19999694824</ele>
        <time>2021-07-08T14:42:01Z</time>
      </trkpt>
      <trkpt lat="44.55319" lon="4.60378">
        <ele>176.39999389648</ele>
        <time>2021-07-08T14:42:04Z</time>
      </trkpt>
      <trkpt lat="44.55323" lon="4.60375">
        <ele>176.39999389648</ele>
        <time>2021-07-08T14:42:05Z</time>
      </trkpt>
      <trkpt lat="44.55326" lon="4.60372">
        <ele>176.39999389648</ele>
        <time>2021-07-08T14:42:06Z</time>
      </trkpt>
      <trkpt lat="44.55329" lon="4.60367">
        <ele>176.39999389648</ele>
        <time>2021-07-08T14:42:08Z</time>
      </trkpt>
      <trkpt lat="44.5533" lon="4.60365">
        <ele>176.19999694824</ele>
        <time>2021-07-08T14:42:09Z</time>
      </trkpt>
      <trkpt lat="44.5533" lon="4.60363">
        <ele>176.39999389648</ele>
        <time>2021-07-08T14:42:11Z</time>
      </trkpt>
      <trkpt lat="44.55333" lon="4.60358">
        <ele>176.19999694824</ele>
        <time>2021-07-08T14:42:18Z</time>
      </trkpt>
      <trkpt lat="44.55336" lon="4.60351">
        <ele>176.19999694824</ele>
        <time>2021-07-08T14:42:20Z</time>
      </trkpt>
      <trkpt lat="44.55348" lon="4.60328">
        <ele>176</ele>
        <time>2021-07-08T14:42:24Z</time>
      </trkpt>
      <trkpt lat="44.5535" lon="4.60321">
        <ele>176</ele>
        <time>2021-07-08T14:42:25Z</time>
      </trkpt>
      <trkpt lat="44.55352" lon="4.60315">
        <ele>176</ele>
        <time>2021-07-08T14:42:26Z</time>
      </trkpt>
      <trkpt lat="44.55352" lon="4.60309">
        <ele>176.19999694824</ele>
        <time>2021-07-08T14:42:27Z</time>
      </trkpt>
      <trkpt lat="44.55352" lon="4.60303">
        <ele>176.19999694824</ele>
        <time>2021-07-08T14:42:28Z</time>
      </trkpt>
      <trkpt lat="44.55351" lon="4.60298">
        <ele>176.19999694824</ele>
        <time>2021-07-08T14:42:29Z</time>
      </trkpt>
      <trkpt lat="44.55351" lon="4.60293">
        <ele>176.19999694824</ele>
        <time>2021-07-08T14:42:30Z</time>
      </trkpt>
      <trkpt lat="44.55351" lon="4.60289">
        <ele>176</ele>
        <time>2021-07-08T14:42:31Z</time>
      </trkpt>
      <trkpt lat="44.55351" lon="4.60287">
        <ele>176.19999694824</ele>
        <time>2021-07-08T14:42:32Z</time>
      </trkpt>
      <trkpt lat="44.55353" lon="4.60287">
        <ele>176.19999694824</ele>
        <time>2021-07-08T14:42:33Z</time>
      </trkpt>
      <trkpt lat="44.55355" lon="4.60287">
        <ele>176.19999694824</ele>
        <time>2021-07-08T14:42:34Z</time>
      </trkpt>
      <trkpt lat="44.55357" lon="4.60287">
        <ele>176.39999389648</ele>
        <time>2021-07-08T14:42:35Z</time>
      </trkpt>
      <trkpt lat="44.55361" lon="4.60287">
        <ele>177</ele>
        <time>2021-07-08T14:42:37Z</time>
      </trkpt>
      <trkpt lat="44.55363" lon="4.60293">
        <ele>175.19999694824</ele>
        <time>2020-05-31T06:41:56Z</time>
      </trkpt>
      <trkpt lat="44.55365" lon="4.60293">
        <ele>175.19999694824</ele>
        <time>2020-05-31T06:41:55Z</time>
      </trkpt>
      <trkpt lat="44.55366" lon="4.60292">
        <ele>175.19999694824</ele>
        <time>2020-05-31T06:41:54Z</time>
      </trkpt>
      <trkpt lat="44.55368" lon="4.60291">
        <ele>175.39999389648</ele>
        <time>2020-05-31T06:41:53Z</time>
      </trkpt>
      <trkpt lat="44.55371" lon="4.60291">
        <ele>175.60000610352</ele>
        <time>2020-05-31T06:41:52Z</time>
      </trkpt>
      <trkpt lat="44.55374" lon="4.6029">
        <ele>175.60000610352</ele>
        <time>2020-05-31T06:41:51Z</time>
      </trkpt>
      <trkpt lat="44.55377" lon="4.60287">
        <ele>175.80000305176</ele>
        <time>2020-05-31T06:41:50Z</time>
      </trkpt>
      <trkpt lat="44.5538" lon="4.60283">
        <ele>176</ele>
        <time>2020-05-31T06:41:49Z</time>
      </trkpt>
      <trkpt lat="44.55383" lon="4.60277">
        <ele>176</ele>
        <time>2020-05-31T06:41:48Z</time>
      </trkpt>
      <trkpt lat="44.55387" lon="4.60264">
        <ele>176.19999694824</ele>
        <time>2020-05-31T06:41:46Z</time>
      </trkpt>
      <trkpt lat="44.55389" lon="4.60258">
        <ele>176.19999694824</ele>
        <time>2020-05-31T06:41:45Z</time>
      </trkpt>
      <trkpt lat="44.55391" lon="4.60252">
        <ele>176.39999389648</ele>
        <time>2020-05-31T06:41:44Z</time>
      </trkpt>
      <trkpt lat="44.55396" lon="4.60242">
        <ele>176.60000610352</ele>
        <time>2020-05-31T06:41:42Z</time>
      </trkpt>
      <trkpt lat="44.55398" lon="4.60238">
        <ele>176.60000610352</ele>
        <time>2020-05-31T06:41:41Z</time>
      </trkpt>
      <trkpt lat="44.55404" lon="4.60231">
        <ele>176.60000610352</ele>
        <time>2020-05-31T06:41:39Z</time>
      </trkpt>
      <trkpt lat="44.55406" lon="4.60227">
        <ele>176.60000610352</ele>
        <time>2020-05-31T06:41:38Z</time>
      </trkpt>
      <trkpt lat="44.55409" lon="4.60223">
        <ele>176.60000610352</ele>
        <time>2020-05-31T06:41:37Z</time>
      </trkpt>
      <trkpt lat="44.55411" lon="4.6022">
        <ele>176.60000610352</ele>
        <time>2020-05-31T06:41:36Z</time>
      </trkpt>
      <trkpt lat="44.55413" lon="4.60216">
        <ele>176.60000610352</ele>
        <time>2020-05-31T06:41:35Z</time>
      </trkpt>
      <trkpt lat="44.55415" lon="4.60213">
        <ele>176.60000610352</ele>
        <time>2020-05-31T06:41:34Z</time>
      </trkpt>
      <trkpt lat="44.55418" lon="4.60211">
        <ele>176.60000610352</ele>
        <time>2020-05-31T06:41:33Z</time>
      </trkpt>
      <trkpt lat="44.55423" lon="4.60209">
        <ele>176.39999389648</ele>
        <time>2020-05-31T06:41:31Z</time>
      </trkpt>
      <trkpt lat="44.55426" lon="4.60208">
        <ele>176.19999694824</ele>
        <time>2020-05-31T06:41:30Z</time>
      </trkpt>
      <trkpt lat="44.55428" lon="4.60207">
        <ele>176.19999694824</ele>
        <time>2020-05-31T06:41:29Z</time>
      </trkpt>
      <trkpt lat="44.5543" lon="4.60206">
        <ele>176.19999694824</ele>
        <time>2020-05-31T06:41:28Z</time>
      </trkpt>
      <trkpt lat="44.55432" lon="4.60205">
        <ele>176.19999694824</ele>
        <time>2020-05-31T06:41:27Z</time>
      </trkpt>
      <trkpt lat="44.55435" lon="4.60204">
        <ele>176.19999694824</ele>
        <time>2020-05-31T06:41:26Z</time>
      </trkpt>
      <trkpt lat="44.55438" lon="4.60202">
        <ele>175.80000305176</ele>
        <time>2020-05-31T06:41:25Z</time>
      </trkpt>
      <trkpt lat="44.55442" lon="4.602">
        <ele>175.39999389648</ele>
        <time>2020-05-31T06:41:24Z</time>
      </trkpt>
      <trkpt lat="44.55446" lon="4.60197">
        <ele>175</ele>
        <time>2020-05-31T06:41:23Z</time>
      </trkpt>
      <trkpt lat="44.5545" lon="4.60194">
        <ele>174.80000305176</ele>
        <time>2020-05-31T06:41:22Z</time>
      </trkpt>
      <trkpt lat="44.55454" lon="4.60191">
        <ele>174.80000305176</ele>
        <time>2020-05-31T06:41:21Z</time>
      </trkpt>
      <trkpt lat="44.55457" lon="4.60187">
        <ele>174.80000305176</ele>
        <time>2020-05-31T06:41:20Z</time>
      </trkpt>
      <trkpt lat="44.55461" lon="4.60185">
        <ele>174.80000305176</ele>
        <time>2020-05-31T06:41:19Z</time>
      </trkpt>
      <trkpt lat="44.55464" lon="4.60182">
        <ele>174.80000305176</ele>
        <time>2020-05-31T06:41:18Z</time>
      </trkpt>
      <trkpt lat="44.55466" lon="4.60179">
        <ele>174.80000305176</ele>
        <time>2020-05-31T06:41:17Z</time>
      </trkpt>
      <trkpt lat="44.55468" lon="4.60178">
        <ele>174.80000305176</ele>
        <time>2020-05-31T06:41:16Z</time>
      </trkpt>
      <trkpt lat="44.55471" lon="4.6018">
        <ele>174.80000305176</ele>
        <time>2020-05-31T06:41:15Z</time>
      </trkpt>
      <trkpt lat="44.55473" lon="4.60183">
        <ele>174.80000305176</ele>
        <time>2020-05-31T06:41:14Z</time>
      </trkpt>
      <trkpt lat="44.55475" lon="4.60188">
        <ele>175</ele>
        <time>2020-05-31T06:41:13Z</time>
      </trkpt>
      <trkpt lat="44.55476" lon="4.60193">
        <ele>175</ele>
        <time>2020-05-31T06:41:12Z</time>
      </trkpt>
      <trkpt lat="44.5548" lon="4.60203">
        <ele>175.19999694824</ele>
        <time>2020-05-31T06:41:10Z</time>
      </trkpt>
      <trkpt lat="44.55489" lon="4.60225">
        <ele>175.39999389648</ele>
        <time>2020-05-31T06:41:04Z</time>
      </trkpt>
      <trkpt lat="44.55489" lon="4.60228">
        <ele>175.39999389648</ele>
        <time>2020-05-31T06:41:03Z</time>
      </trkpt>
      <trkpt lat="44.55489" lon="4.60231">
        <ele>175.39999389648</ele>
        <time>2020-05-31T06:41:02Z</time>
      </trkpt>
      <trkpt lat="44.55489" lon="4.60234">
        <ele>175.39999389648</ele>
        <time>2020-05-31T06:41:01Z</time>
      </trkpt>
      <trkpt lat="44.5549" lon="4.60236">
        <ele>175.39999389648</ele>
        <time>2020-05-31T06:41:00Z</time>
      </trkpt>
      <trkpt lat="44.55492" lon="4.60237">
        <ele>175.39999389648</ele>
        <time>2020-05-31T06:40:59Z</time>
      </trkpt>
      <trkpt lat="44.55495" lon="4.60235">
        <ele>175.39999389648</ele>
        <time>2020-05-31T06:40:58Z</time>
      </trkpt>
      <trkpt lat="44.55498" lon="4.60232">
        <ele>175.39999389648</ele>
        <time>2020-05-31T06:40:57Z</time>
      </trkpt>
      <trkpt lat="44.55501" lon="4.60228">
        <ele>175.60000610352</ele>
        <time>2020-05-31T06:40:56Z</time>
      </trkpt>
      <trkpt lat="44.55504" lon="4.60225">
        <ele>175.60000610352</ele>
        <time>2020-05-31T06:40:55Z</time>
      </trkpt>
      <trkpt lat="44.55508" lon="4.60224">
        <ele>175.39999389648</ele>
        <time>2020-05-31T06:40:54Z</time>
      </trkpt>
      <trkpt lat="44.55512" lon="4.60225">
        <ele>175.60000610352</ele>
        <time>2020-05-31T06:40:53Z</time>
      </trkpt>
      <trkpt lat="44.55515" lon="4.60228">
        <ele>175.60000610352</ele>
        <time>2020-05-31T06:40:52Z</time>
      </trkpt>
      <trkpt lat="44.55518" lon="4.60233">
        <ele>175.39999389648</ele>
        <time>2020-05-31T06:40:51Z</time>
      </trkpt>
      <trkpt lat="44.55521" lon="4.60237">
        <ele>175.60000610352</ele>
        <time>2020-05-31T06:40:50Z</time>
      </trkpt>
      <trkpt lat="44.55525" lon="4.60242">
        <ele>175.60000610352</ele>
        <time>2020-05-31T06:40:49Z</time>
      </trkpt>
      <trkpt lat="44.55537" lon="4.60257">
        <ele>175.80000305176</ele>
        <time>2020-05-31T06:40:46Z</time>
      </trkpt>
      <trkpt lat="44.55541" lon="4.60261">
        <ele>176</ele>
        <time>2020-05-31T06:40:45Z</time>
      </trkpt>
      <trkpt lat="44.55545" lon="4.60266">
        <ele>176</ele>
        <time>2020-05-31T06:40:44Z</time>
      </trkpt>
      <trkpt lat="44.5555" lon="4.6027">
        <ele>176</ele>
        <time>2020-05-31T06:40:43Z</time>
      </trkpt>
      <trkpt lat="44.55555" lon="4.60272">
        <ele>176</ele>
        <time>2020-05-31T06:40:42Z</time>
      </trkpt>
      <trkpt lat="44.55561" lon="4.60273">
        <ele>176.19999694824</ele>
        <time>2020-05-31T06:40:41Z</time>
      </trkpt>
      <trkpt lat="44.55566" lon="4.60273">
        <ele>176.19999694824</ele>
        <time>2020-05-31T06:40:40Z</time>
      </trkpt>
      <trkpt lat="44.55578" lon="4.60271">
        <ele>176.39999389648</ele>
        <time>2020-05-31T06:40:38Z</time>
      </trkpt>
      <trkpt lat="44.55584" lon="4.60271">
        <ele>176.80000305176</ele>
        <time>2020-05-31T06:40:37Z</time>
      </trkpt>
      <trkpt lat="44.5559" lon="4.6027">
        <ele>177</ele>
        <time>2020-05-31T06:40:36Z</time>
      </trkpt>
      <trkpt lat="44.55596" lon="4.60271">
        <ele>177.19999694824</ele>
        <time>2020-05-31T06:40:35Z</time>
      </trkpt>
      <trkpt lat="44.55602" lon="4.60271">
        <ele>177.39999389648</ele>
        <time>2020-05-31T06:40:34Z</time>
      </trkpt>
      <trkpt lat="44.55608" lon="4.60272">
        <ele>177.80000305176</ele>
        <time>2020-05-31T06:40:33Z</time>
      </trkpt>
      <trkpt lat="44.55614" lon="4.60273">
        <ele>178.19999694824</ele>
        <time>2020-05-31T06:40:32Z</time>
      </trkpt>
      <trkpt lat="44.55621" lon="4.60274">
        <ele>178.39999389648</ele>
        <time>2020-05-31T06:40:31Z</time>
      </trkpt>
      <trkpt lat="44.55627" lon="4.60275">
        <ele>178.80000305176</ele>
        <time>2020-05-31T06:40:30Z</time>
      </trkpt>
      <trkpt lat="44.55639" lon="4.60278">
        <ele>179.39999389648</ele>
        <time>2020-05-31T06:40:28Z</time>
      </trkpt>
      <trkpt lat="44.55652" lon="4.60281">
        <ele>180.19999694824</ele>
        <time>2020-05-31T06:40:26Z</time>
      </trkpt>
      <trkpt lat="44.55658" lon="4.60282">
        <ele>180.19999694824</ele>
        <time>2020-05-31T06:40:25Z</time>
      </trkpt>
      <trkpt lat="44.55676" lon="4.60286">
        <ele>180.39999389648</ele>
        <time>2020-05-31T06:40:22Z</time>
      </trkpt>
      <trkpt lat="44.55682" lon="4.60286">
        <ele>180.19999694824</ele>
        <time>2020-05-31T06:40:21Z</time>
      </trkpt>
      <trkpt lat="44.55687" lon="4.60286">
        <ele>180.19999694824</ele>
        <time>2020-05-31T06:40:20Z</time>
      </trkpt>
      <trkpt lat="44.55693" lon="4.60285">
        <ele>180.39999389648</ele>
        <time>2020-05-31T06:40:19Z</time>
      </trkpt>
      <trkpt lat="44.55701" lon="4.60282">
        <ele>180.19999694824</ele>
        <time>2020-05-31T06:40:17Z</time>
      </trkpt>
      <trkpt lat="44.55707" lon="4.6028">
        <ele>180.19999694824</ele>
        <time>2020-05-31T06:40:15Z</time>
      </trkpt>
      <trkpt lat="44.55709" lon="4.6028">
        <ele>180.39999389648</ele>
        <time>2020-05-31T06:40:14Z</time>
      </trkpt>
      <trkpt lat="44.55711" lon="4.60281">
        <ele>180.39999389648</ele>
        <time>2020-05-31T06:40:13Z</time>
      </trkpt>
      <trkpt lat="44.55711" lon="4.6028">
        <ele>183.19999694824</ele>
        <time>2020-05-31T06:39:46Z</time>
      </trkpt>
      <trkpt lat="44.55711" lon="4.6028">
        <ele>183.39999389648</ele>
        <time>2020-05-31T06:39:45Z</time>
      </trkpt>
      <trkpt lat="44.55712" lon="4.6028">
        <ele>184.39999389648</ele>
        <time>2020-05-31T06:39:42Z</time>
      </trkpt>
      <trkpt lat="44.55714" lon="4.60279">
        <ele>184.80000305176</ele>
        <time>2020-05-31T06:39:41Z</time>
      </trkpt>
      <trkpt lat="44.55717" lon="4.60279">
        <ele>184.80000305176</ele>
        <time>2020-05-31T06:39:40Z</time>
      </trkpt>
      <trkpt lat="44.55724" lon="4.60279">
        <ele>186</ele>
        <time>2020-05-31T06:39:38Z</time>
      </trkpt>
      <trkpt lat="44.55727" lon="4.6028">
        <ele>185.80000305176</ele>
        <time>2020-05-31T06:39:37Z</time>
      </trkpt>
      <trkpt lat="44.5573" lon="4.6028">
        <ele>186</ele>
        <time>2020-05-31T06:39:36Z</time>
      </trkpt>
      <trkpt lat="44.55732" lon="4.60281">
        <ele>186</ele>
        <time>2020-05-31T06:39:35Z</time>
      </trkpt>
      <trkpt lat="44.55734" lon="4.60281">
        <ele>186</ele>
        <time>2020-05-31T06:39:34Z</time>
      </trkpt>
      <trkpt lat="44.55737" lon="4.60282">
        <ele>186</ele>
        <time>2020-05-31T06:39:33Z</time>
      </trkpt>
      <trkpt lat="44.55739" lon="4.60284">
        <ele>186</ele>
        <time>2020-05-31T06:39:32Z</time>
      </trkpt>
      <trkpt lat="44.55742" lon="4.60286">
        <ele>186</ele>
        <time>2020-05-31T06:39:31Z</time>
      </trkpt>
      <trkpt lat="44.55745" lon="4.60288">
        <ele>186</ele>
        <time>2020-05-31T06:39:30Z</time>
      </trkpt>
      <trkpt lat="44.55749" lon="4.60291">
        <ele>186.19999694824</ele>
        <time>2020-05-31T06:39:28Z</time>
      </trkpt>
      <trkpt lat="44.55752" lon="4.60292">
        <ele>186</ele>
        <time>2020-05-31T06:39:27Z</time>
      </trkpt>
      <trkpt lat="44.55757" lon="4.60294">
        <ele>186.19999694824</ele>
        <time>2020-05-31T06:39:20Z</time>
      </trkpt>
      <trkpt lat="44.55757" lon="4.60294">
        <ele>186.19999694824</ele>
        <time>2020-05-31T06:39:18Z</time>
      </trkpt>
      <trkpt lat="44.55759" lon="4.60293">
        <ele>186.39999389648</ele>
        <time>2020-05-31T06:39:17Z</time>
      </trkpt>
      <trkpt lat="44.55761" lon="4.60293">
        <ele>186.60000610352</ele>
        <time>2020-05-31T06:39:16Z</time>
      </trkpt>
      <trkpt lat="44.55764" lon="4.60294">
        <ele>186.80000305176</ele>
        <time>2020-05-31T06:39:15Z</time>
      </trkpt>
      <trkpt lat="44.55767" lon="4.60296">
        <ele>187</ele>
        <time>2020-05-31T06:39:14Z</time>
      </trkpt>
      <trkpt lat="44.55771" lon="4.60299">
        <ele>187.39999389648</ele>
        <time>2020-05-31T06:39:13Z</time>
      </trkpt>
      <trkpt lat="44.55775" lon="4.60301">
        <ele>187.60000610352</ele>
        <time>2020-05-31T06:39:12Z</time>
      </trkpt>
      <trkpt lat="44.55779" lon="4.60303">
        <ele>187.80000305176</ele>
        <time>2020-05-31T06:39:11Z</time>
      </trkpt>
      <trkpt lat="44.55784" lon="4.60305">
        <ele>188</ele>
        <time>2020-05-31T06:39:10Z</time>
      </trkpt>
      <trkpt lat="44.55788" lon="4.60308">
        <ele>188.19999694824</ele>
        <time>2020-05-31T06:39:09Z</time>
      </trkpt>
      <trkpt lat="44.5581" lon="4.60318">
        <ele>188.39999389648</ele>
        <time>2020-05-31T06:39:05Z</time>
      </trkpt>
      <trkpt lat="44.55967" lon="4.60414">
        <ele>192.80000305176</ele>
        <time>2020-02-07T14:01:01Z</time>
      </trkpt>
    </trkseg>
  </trk>
</gpx>